<?xml version='1.0' encoding='UTF-8'?><gpx version="1.1" creator="JPX - https://github.com/jenetics/jpx" xmlns="http://www.topografix.com/GPX/1/1"><trk><trkseg><trkpt lat="45.7201474" lon="11.7329559"><ele>93.0</ele><time>2026-04-04T11:59:39.191Z</time></trkpt><trkpt lat="45.7202785" lon="11.7329737"><ele>93.0</ele><time>2026-04-04T11:59:40.218Z</time></trkpt><trkpt lat="45.7203997" lon="11.7329901"><ele>93.0</ele><time>2026-04-04T11:59:41.17Z</time></trkpt><trkpt lat="45.720511" lon="11.7330065"><ele>93.0</ele><time>2026-04-04T11:59:42.217Z</time></trkpt><trkpt lat="45.7206114" lon="11.7330198"><ele>93.0</ele><time>2026-04-04T11:59:43.18Z</time></trkpt><trkpt lat="45.720702" lon="11.7330329"><ele>93.0</ele><time>2026-04-04T11:59:44.184Z</time></trkpt><trkpt lat="45.7207819" lon="11.7330559"><ele>93.0</ele><time>2026-04-04T11:59:45.183Z</time></trkpt><trkpt lat="45.7208658" lon="11.733092"><ele>93.0</ele><time>2026-04-04T11:59:46.19Z</time></trkpt><trkpt lat="45.7209535" lon="11.7331223"><ele>93.0</ele><time>2026-04-04T11:59:47.182Z</time></trkpt><trkpt lat="45.7210491" lon="11.7331387"><ele>93.0</ele><time>2026-04-04T11:59:48.183Z</time></trkpt><trkpt lat="45.7211475" lon="11.7331575"><ele>92.4</ele><time>2026-04-04T11:59:49.181Z</time></trkpt><trkpt lat="45.7212485" lon="11.7331926"><ele>91.80000000000001</ele><time>2026-04-04T11:59:50.224Z</time></trkpt><trkpt lat="45.7213543" lon="11.7332308"><ele>91.2</ele><time>2026-04-04T11:59:51.17Z</time></trkpt><trkpt lat="45.7214631" lon="11.7332636"><ele>90.6</ele><time>2026-04-04T11:59:52.183Z</time></trkpt><trkpt lat="45.7215822" lon="11.7332774"><ele>90.0</ele><time>2026-04-04T11:59:53.227Z</time></trkpt><trkpt lat="45.7217039" lon="11.7332775"><ele>90.0</ele><time>2026-04-04T11:59:54.19Z</time></trkpt><trkpt lat="45.7218351" lon="11.7332752"><ele>90.0</ele><time>2026-04-04T11:59:55.18Z</time></trkpt><trkpt lat="45.7219782" lon="11.7332801"><ele>90.0</ele><time>2026-04-04T11:59:56.19Z</time></trkpt><trkpt lat="45.7221185" lon="11.7332869"><ele>90.0</ele><time>2026-04-04T11:59:57.184Z</time></trkpt><trkpt lat="45.7222588" lon="11.7332882"><ele>90.5</ele><time>2026-04-04T11:59:58.203Z</time></trkpt><trkpt lat="45.7223985" lon="11.7332879"><ele>91.0</ele><time>2026-04-04T11:59:59.206Z</time></trkpt><trkpt lat="45.7225393" lon="11.7332863"><ele>91.5</ele><time>2026-04-04T12:00:00.183Z</time></trkpt><trkpt lat="45.7226861" lon="11.7332756"><ele>92.0</ele><time>2026-04-04T12:00:01.189Z</time></trkpt><trkpt lat="45.7228259" lon="11.7332627"><ele>92.5</ele><time>2026-04-04T12:00:02.187Z</time></trkpt><trkpt lat="45.7229645" lon="11.7332421"><ele>93.0</ele><time>2026-04-04T12:00:03.197Z</time></trkpt><trkpt lat="45.7231059" lon="11.7332223"><ele>93.5</ele><time>2026-04-04T12:00:04.186Z</time></trkpt><trkpt lat="45.7232514" lon="11.7331981"><ele>94.0</ele><time>2026-04-04T12:00:05.19Z</time></trkpt><trkpt lat="45.7233962" lon="11.7331716"><ele>94.0</ele><time>2026-04-04T12:00:06.199Z</time></trkpt><trkpt lat="45.7235394" lon="11.73315"><ele>94.0</ele><time>2026-04-04T12:00:07.193Z</time></trkpt><trkpt lat="45.7236833" lon="11.7331281"><ele>94.0</ele><time>2026-04-04T12:00:08.197Z</time></trkpt><trkpt lat="45.7238281" lon="11.7331058"><ele>94.0</ele><time>2026-04-04T12:00:09.196Z</time></trkpt><trkpt lat="45.7239717" lon="11.7330836"><ele>94.0</ele><time>2026-04-04T12:00:10.195Z</time></trkpt><trkpt lat="45.7241148" lon="11.7330708"><ele>94.0</ele><time>2026-04-04T12:00:11.187Z</time></trkpt><trkpt lat="45.7242575" lon="11.7330704"><ele>94.0</ele><time>2026-04-04T12:00:12.196Z</time></trkpt><trkpt lat="45.724402" lon="11.733081"><ele>94.0</ele><time>2026-04-04T12:00:13.199Z</time></trkpt><trkpt lat="45.7245474" lon="11.7331062"><ele>94.66666666666666</ele><time>2026-04-04T12:00:14.191Z</time></trkpt><trkpt lat="45.7246956" lon="11.7331419"><ele>95.33333333333333</ele><time>2026-04-04T12:00:15.196Z</time></trkpt><trkpt lat="45.7248466" lon="11.7331851"><ele>96.0</ele><time>2026-04-04T12:00:16.186Z</time></trkpt><trkpt lat="45.7249981" lon="11.7332297"><ele>96.0</ele><time>2026-04-04T12:00:17.188Z</time></trkpt><trkpt lat="45.7251503" lon="11.7332763"><ele>96.0</ele><time>2026-04-04T12:00:18.193Z</time></trkpt><trkpt lat="45.7253038" lon="11.7333227"><ele>96.0</ele><time>2026-04-04T12:00:19.178Z</time></trkpt><trkpt lat="45.7254585" lon="11.7333665"><ele>95.0</ele><time>2026-04-04T12:00:20.19Z</time></trkpt><trkpt lat="45.7256127" lon="11.7334089"><ele>94.0</ele><time>2026-04-04T12:00:21.193Z</time></trkpt><trkpt lat="45.7257647" lon="11.7334533"><ele>93.0</ele><time>2026-04-04T12:00:22.192Z</time></trkpt><trkpt lat="45.7259159" lon="11.7334982"><ele>94.0</ele><time>2026-04-04T12:00:23.194Z</time></trkpt><trkpt lat="45.7260655" lon="11.7335424"><ele>95.0</ele><time>2026-04-04T12:00:24.194Z</time></trkpt><trkpt lat="45.7262143" lon="11.7335839"><ele>96.0</ele><time>2026-04-04T12:00:25.193Z</time></trkpt><trkpt lat="45.7263526" lon="11.7336213"><ele>97.0</ele><time>2026-04-04T12:00:26.193Z</time></trkpt><trkpt lat="45.7264774" lon="11.7336559"><ele>97.0</ele><time>2026-04-04T12:00:27.198Z</time></trkpt><trkpt lat="45.7265852" lon="11.7336886"><ele>97.0</ele><time>2026-04-04T12:00:28.192Z</time></trkpt><trkpt lat="45.7266818" lon="11.733735"><ele>97.0</ele><time>2026-04-04T12:00:29.189Z</time></trkpt><trkpt lat="45.726768" lon="11.7338119"><ele>97.0</ele><time>2026-04-04T12:00:30.192Z</time></trkpt><trkpt lat="45.7268367" lon="11.7339199"><ele>97.0</ele><time>2026-04-04T12:00:31.184Z</time></trkpt><trkpt lat="45.7268926" lon="11.7340429"><ele>97.0</ele><time>2026-04-04T12:00:32.183Z</time></trkpt><trkpt lat="45.7269562" lon="11.7341545"><ele>97.0</ele><time>2026-04-04T12:00:33.196Z</time></trkpt><trkpt lat="45.7270404" lon="11.7342411"><ele>97.0</ele><time>2026-04-04T12:00:34.186Z</time></trkpt><trkpt lat="45.7271431" lon="11.7342948"><ele>97.0</ele><time>2026-04-04T12:00:35.181Z</time></trkpt><trkpt lat="45.7272602" lon="11.7343154"><ele>97.0</ele><time>2026-04-04T12:00:36.196Z</time></trkpt><trkpt lat="45.7273831" lon="11.7343153"><ele>97.0</ele><time>2026-04-04T12:00:37.184Z</time></trkpt><trkpt lat="45.7275077" lon="11.7343114"><ele>97.0</ele><time>2026-04-04T12:00:38.187Z</time></trkpt><trkpt lat="45.7276337" lon="11.7343067"><ele>97.0</ele><time>2026-04-04T12:00:39.188Z</time></trkpt><trkpt lat="45.7277597" lon="11.7343011"><ele>97.0</ele><time>2026-04-04T12:00:40.191Z</time></trkpt><trkpt lat="45.7278857" lon="11.7342943"><ele>96.75</ele><time>2026-04-04T12:00:41.191Z</time></trkpt><trkpt lat="45.7280122" lon="11.7342885"><ele>96.5</ele><time>2026-04-04T12:00:42.19Z</time></trkpt><trkpt lat="45.728139" lon="11.7342826"><ele>96.25</ele><time>2026-04-04T12:00:43.178Z</time></trkpt><trkpt lat="45.7282676" lon="11.7342738"><ele>96.0</ele><time>2026-04-04T12:00:44.189Z</time></trkpt><trkpt lat="45.728397" lon="11.7342506"><ele>96.0</ele><time>2026-04-04T12:00:45.195Z</time></trkpt><trkpt lat="45.7285251" lon="11.7342045"><ele>96.0</ele><time>2026-04-04T12:00:46.182Z</time></trkpt><trkpt lat="45.7286506" lon="11.7341433"><ele>96.0</ele><time>2026-04-04T12:00:47.192Z</time></trkpt><trkpt lat="45.7287758" lon="11.734083"><ele>96.0</ele><time>2026-04-04T12:00:48.194Z</time></trkpt><trkpt lat="45.7289053" lon="11.7340229"><ele>96.0</ele><time>2026-04-04T12:00:49.182Z</time></trkpt><trkpt lat="45.7290373" lon="11.7339637"><ele>96.0</ele><time>2026-04-04T12:00:50.199Z</time></trkpt><trkpt lat="45.7291708" lon="11.7339041"><ele>96.0</ele><time>2026-04-04T12:00:51.186Z</time></trkpt><trkpt lat="45.7293037" lon="11.7338435"><ele>96.0</ele><time>2026-04-04T12:00:52.191Z</time></trkpt><trkpt lat="45.7294367" lon="11.733782"><ele>96.25</ele><time>2026-04-04T12:00:53.195Z</time></trkpt><trkpt lat="45.72957" lon="11.7337219"><ele>96.5</ele><time>2026-04-04T12:00:54.185Z</time></trkpt><trkpt lat="45.7297049" lon="11.7336653"><ele>96.75</ele><time>2026-04-04T12:00:55.182Z</time></trkpt><trkpt lat="45.7298409" lon="11.733613"><ele>97.0</ele><time>2026-04-04T12:00:56.17Z</time></trkpt><trkpt lat="45.7299809" lon="11.7335835"><ele>97.0</ele><time>2026-04-04T12:00:57.19Z</time></trkpt><trkpt lat="45.730126" lon="11.7335652"><ele>97.0</ele><time>2026-04-04T12:00:58.194Z</time></trkpt><trkpt lat="45.7302757" lon="11.7335786"><ele>97.0</ele><time>2026-04-04T12:00:59.196Z</time></trkpt><trkpt lat="45.7304294" lon="11.7335846"><ele>97.0</ele><time>2026-04-04T12:01:00.199Z</time></trkpt><trkpt lat="45.7305863" lon="11.7335798"><ele>97.0</ele><time>2026-04-04T12:01:01.194Z</time></trkpt><trkpt lat="45.7307449" lon="11.7335811"><ele>97.0</ele><time>2026-04-04T12:01:02.192Z</time></trkpt><trkpt lat="45.7309071" lon="11.733583"><ele>97.0</ele><time>2026-04-04T12:01:03.189Z</time></trkpt><trkpt lat="45.7310691" lon="11.7335938"><ele>97.0</ele><time>2026-04-04T12:01:04.191Z</time></trkpt><trkpt lat="45.7312331" lon="11.7335972"><ele>97.0</ele><time>2026-04-04T12:01:05.193Z</time></trkpt><trkpt lat="45.7313954" lon="11.733596"><ele>97.0</ele><time>2026-04-04T12:01:06.193Z</time></trkpt><trkpt lat="45.7315572" lon="11.7335788"><ele>97.0</ele><time>2026-04-04T12:01:07.186Z</time></trkpt><trkpt lat="45.731717" lon="11.7335604"><ele>97.0</ele><time>2026-04-04T12:01:08.189Z</time></trkpt><trkpt lat="45.7318763" lon="11.7335318"><ele>97.0</ele><time>2026-04-04T12:01:09.18Z</time></trkpt><trkpt lat="45.7320278" lon="11.7335003"><ele>97.25</ele><time>2026-04-04T12:01:10.189Z</time></trkpt><trkpt lat="45.7321667" lon="11.7334712"><ele>97.5</ele><time>2026-04-04T12:01:11.185Z</time></trkpt><trkpt lat="45.732295" lon="11.7334425"><ele>97.75</ele><time>2026-04-04T12:01:12.191Z</time></trkpt><trkpt lat="45.7324067" lon="11.7334162"><ele>98.0</ele><time>2026-04-04T12:01:13.176Z</time></trkpt><trkpt lat="45.7325078" lon="11.7333958"><ele>98.0</ele><time>2026-04-04T12:01:14.175Z</time></trkpt><trkpt lat="45.7326043" lon="11.7333979"><ele>98.0</ele><time>2026-04-04T12:01:15.176Z</time></trkpt><trkpt lat="45.7327027" lon="11.7334256"><ele>98.0</ele><time>2026-04-04T12:01:16.181Z</time></trkpt><trkpt lat="45.7328023" lon="11.733453"><ele>98.0</ele><time>2026-04-04T12:01:17.183Z</time></trkpt><trkpt lat="45.7329047" lon="11.733438"><ele>98.0</ele><time>2026-04-04T12:01:18.169Z</time></trkpt><trkpt lat="45.733001" lon="11.733377"><ele>98.0</ele><time>2026-04-04T12:01:19.175Z</time></trkpt><trkpt lat="45.7330999" lon="11.7333075"><ele>98.0</ele><time>2026-04-04T12:01:20.17Z</time></trkpt><trkpt lat="45.7332121" lon="11.7332606"><ele>98.0</ele><time>2026-04-04T12:01:21.184Z</time></trkpt><trkpt lat="45.7333322" lon="11.7332317"><ele>98.0</ele><time>2026-04-04T12:01:22.188Z</time></trkpt><trkpt lat="45.733458" lon="11.7332056"><ele>99.0</ele><time>2026-04-04T12:01:23.193Z</time></trkpt><trkpt lat="45.7335862" lon="11.733179"><ele>100.0</ele><time>2026-04-04T12:01:24.187Z</time></trkpt><trkpt lat="45.7337155" lon="11.7331543"><ele>101.0</ele><time>2026-04-04T12:01:25.185Z</time></trkpt><trkpt lat="45.73385" lon="11.7331254"><ele>102.0</ele><time>2026-04-04T12:01:26.194Z</time></trkpt><trkpt lat="45.733989" lon="11.7330898"><ele>102.0</ele><time>2026-04-04T12:01:27.204Z</time></trkpt><trkpt lat="45.7341264" lon="11.7330485"><ele>102.0</ele><time>2026-04-04T12:01:28.19Z</time></trkpt><trkpt lat="45.734262" lon="11.7330036"><ele>102.0</ele><time>2026-04-04T12:01:29.196Z</time></trkpt><trkpt lat="45.7343952" lon="11.7329511"><ele>102.0</ele><time>2026-04-04T12:01:30.19Z</time></trkpt><trkpt lat="45.734525" lon="11.7328962"><ele>101.75</ele><time>2026-04-04T12:01:31.193Z</time></trkpt><trkpt lat="45.7346526" lon="11.7328428"><ele>101.5</ele><time>2026-04-04T12:01:32.187Z</time></trkpt><trkpt lat="45.7347816" lon="11.7328028"><ele>101.25</ele><time>2026-04-04T12:01:33.185Z</time></trkpt><trkpt lat="45.7349129" lon="11.7327768"><ele>101.0</ele><time>2026-04-04T12:01:34.188Z</time></trkpt><trkpt lat="45.7350485" lon="11.7327643"><ele>101.0</ele><time>2026-04-04T12:01:35.187Z</time></trkpt><trkpt lat="45.7351865" lon="11.7327619"><ele>101.0</ele><time>2026-04-04T12:01:36.19Z</time></trkpt><trkpt lat="45.7353241" lon="11.732766"><ele>101.0</ele><time>2026-04-04T12:01:37.19Z</time></trkpt><trkpt lat="45.7354657" lon="11.7327786"><ele>101.0</ele><time>2026-04-04T12:01:38.18Z</time></trkpt><trkpt lat="45.7356017" lon="11.7327701"><ele>101.0</ele><time>2026-04-04T12:01:39.19Z</time></trkpt><trkpt lat="45.7357267" lon="11.7327623"><ele>101.0</ele><time>2026-04-04T12:01:40.182Z</time></trkpt><trkpt lat="45.7358513" lon="11.7327139"><ele>101.0</ele><time>2026-04-04T12:01:41.186Z</time></trkpt><trkpt lat="45.7359682" lon="11.7326626"><ele>101.0</ele><time>2026-04-04T12:01:42.185Z</time></trkpt><trkpt lat="45.7360767" lon="11.7326175"><ele>100.5</ele><time>2026-04-04T12:01:43.18Z</time></trkpt><trkpt lat="45.7361915" lon="11.7325868"><ele>100.0</ele><time>2026-04-04T12:01:44.174Z</time></trkpt><trkpt lat="45.7363089" lon="11.7325676"><ele>99.5</ele><time>2026-04-04T12:01:45.179Z</time></trkpt><trkpt lat="45.7364207" lon="11.7325444"><ele>99.0</ele><time>2026-04-04T12:01:46.195Z</time></trkpt><trkpt lat="45.7365246" lon="11.7325001"><ele>99.0</ele><time>2026-04-04T12:01:47.192Z</time></trkpt><trkpt lat="45.7366091" lon="11.7324309"><ele>99.0</ele><time>2026-04-04T12:01:48.183Z</time></trkpt><trkpt lat="45.7366758" lon="11.7323242"><ele>99.0</ele><time>2026-04-04T12:01:49.173Z</time></trkpt><trkpt lat="45.736714" lon="11.7321921"><ele>99.0</ele><time>2026-04-04T12:01:50.181Z</time></trkpt><trkpt lat="45.7367277" lon="11.7320399"><ele>99.0</ele><time>2026-04-04T12:01:51.175Z</time></trkpt><trkpt lat="45.7367475" lon="11.7318799"><ele>98.75</ele><time>2026-04-04T12:01:52.185Z</time></trkpt><trkpt lat="45.7367952" lon="11.7317213"><ele>98.5</ele><time>2026-04-04T12:01:53.165Z</time></trkpt><trkpt lat="45.7368687" lon="11.7315729"><ele>98.25</ele><time>2026-04-04T12:01:54.168Z</time></trkpt><trkpt lat="45.7369599" lon="11.7314442"><ele>98.0</ele><time>2026-04-04T12:01:55.188Z</time></trkpt><trkpt lat="45.7370666" lon="11.7313454"><ele>98.5</ele><time>2026-04-04T12:01:56.162Z</time></trkpt><trkpt lat="45.7371866" lon="11.7312753"><ele>99.0</ele><time>2026-04-04T12:01:57.185Z</time></trkpt><trkpt lat="45.7373036" lon="11.7312404"><ele>99.5</ele><time>2026-04-04T12:01:58.183Z</time></trkpt><trkpt lat="45.7374137" lon="11.7312311"><ele>100.0</ele><time>2026-04-04T12:01:59.186Z</time></trkpt><trkpt lat="45.7375127" lon="11.7312416"><ele>100.00000000000001</ele><time>2026-04-04T12:02:00.18Z</time></trkpt><trkpt lat="45.7375935" lon="11.7312659"><ele>100.0</ele><time>2026-04-04T12:02:01.183Z</time></trkpt><trkpt lat="45.7376569" lon="11.7312965"><ele>100.0</ele><time>2026-04-04T12:02:02.189Z</time></trkpt><trkpt lat="45.73773" lon="11.7313382"><ele>100.0</ele><time>2026-04-04T12:02:04.186Z</time></trkpt><trkpt lat="45.7378196" lon="11.7314217"><ele>100.00000000000001</ele><time>2026-04-04T12:02:12.184Z</time></trkpt><trkpt lat="45.7378669" lon="11.7314911"><ele>100.0</ele><time>2026-04-04T12:02:13.181Z</time></trkpt><trkpt lat="45.7379279" lon="11.7315798"><ele>100.0</ele><time>2026-04-04T12:02:14.187Z</time></trkpt><trkpt lat="45.7380099" lon="11.7316531"><ele>100.0</ele><time>2026-04-04T12:02:15.18Z</time></trkpt><trkpt lat="45.7381084" lon="11.7316926"><ele>100.0</ele><time>2026-04-04T12:02:16.177Z</time></trkpt><trkpt lat="45.7382161" lon="11.731702"><ele>100.0</ele><time>2026-04-04T12:02:17.185Z</time></trkpt><trkpt lat="45.7383192" lon="11.7316835"><ele>100.0</ele><time>2026-04-04T12:02:18.175Z</time></trkpt><trkpt lat="45.7384133" lon="11.7316459"><ele>100.00000000000001</ele><time>2026-04-04T12:02:19.172Z</time></trkpt><trkpt lat="45.7384922" lon="11.731582"><ele>100.0</ele><time>2026-04-04T12:02:20.168Z</time></trkpt><trkpt lat="45.7385611" lon="11.7314989"><ele>100.0</ele><time>2026-04-04T12:02:21.168Z</time></trkpt><trkpt lat="45.7385769" lon="11.7313867"><ele>100.0</ele><time>2026-04-04T12:02:22.179Z</time></trkpt><trkpt lat="45.7385571" lon="11.7312721"><ele>100.00000000000001</ele><time>2026-04-04T12:02:23.176Z</time></trkpt><trkpt lat="45.7385098" lon="11.7311704"><ele>100.0</ele><time>2026-04-04T12:02:24.174Z</time></trkpt><trkpt lat="45.7384399" lon="11.7310927"><ele>99.66666666666667</ele><time>2026-04-04T12:02:25.181Z</time></trkpt><trkpt lat="45.7383639" lon="11.7310541"><ele>99.33333333333334</ele><time>2026-04-04T12:02:26.182Z</time></trkpt><trkpt lat="45.7382876" lon="11.7310273"><ele>99.0</ele><time>2026-04-04T12:02:27.183Z</time></trkpt><trkpt lat="45.7382318" lon="11.730966"><ele>98.66666666666666</ele><time>2026-04-04T12:02:28.194Z</time></trkpt><trkpt lat="45.7382018" lon="11.7308795"><ele>98.33333333333333</ele><time>2026-04-04T12:02:29.18Z</time></trkpt><trkpt lat="45.7381982" lon="11.7307734"><ele>98.0</ele><time>2026-04-04T12:02:30.173Z</time></trkpt><trkpt lat="45.7382061" lon="11.7306553"><ele>98.0</ele><time>2026-04-04T12:02:31.181Z</time></trkpt><trkpt lat="45.7382396" lon="11.730504"><ele>98.0</ele><time>2026-04-04T12:02:32.182Z</time></trkpt><trkpt lat="45.738275" lon="11.7303399"><ele>98.0</ele><time>2026-04-04T12:02:33.189Z</time></trkpt><trkpt lat="45.7383051" lon="11.7301705"><ele>98.0</ele><time>2026-04-04T12:02:34.188Z</time></trkpt><trkpt lat="45.7383361" lon="11.7299917"><ele>97.25</ele><time>2026-04-04T12:02:35.192Z</time></trkpt><trkpt lat="45.7383684" lon="11.7298039"><ele>96.5</ele><time>2026-04-04T12:02:36.193Z</time></trkpt><trkpt lat="45.7383972" lon="11.7296104"><ele>95.75</ele><time>2026-04-04T12:02:37.19Z</time></trkpt><trkpt lat="45.7384283" lon="11.7294081"><ele>95.0</ele><time>2026-04-04T12:02:38.199Z</time></trkpt><trkpt lat="45.7384555" lon="11.7291932"><ele>95.0</ele><time>2026-04-04T12:02:39.195Z</time></trkpt><trkpt lat="45.7384845" lon="11.7289734"><ele>95.0</ele><time>2026-04-04T12:02:40.187Z</time></trkpt><trkpt lat="45.73851" lon="11.7287473"><ele>95.0</ele><time>2026-04-04T12:02:41.191Z</time></trkpt><trkpt lat="45.7385334" lon="11.7285189"><ele>95.0</ele><time>2026-04-04T12:02:42.191Z</time></trkpt><trkpt lat="45.7385566" lon="11.7282843"><ele>95.0</ele><time>2026-04-04T12:02:43.197Z</time></trkpt><trkpt lat="45.738578" lon="11.7280375"><ele>95.0</ele><time>2026-04-04T12:02:44.192Z</time></trkpt><trkpt lat="45.7385964" lon="11.727778"><ele>96.0</ele><time>2026-04-04T12:02:45.187Z</time></trkpt><trkpt lat="45.7386129" lon="11.7275092"><ele>97.0</ele><time>2026-04-04T12:02:46.181Z</time></trkpt><trkpt lat="45.7386253" lon="11.727241"><ele>98.0</ele><time>2026-04-04T12:02:47.197Z</time></trkpt><trkpt lat="45.7386369" lon="11.7269763"><ele>98.0</ele><time>2026-04-04T12:02:48.195Z</time></trkpt><trkpt lat="45.7386454" lon="11.7267114"><ele>98.0</ele><time>2026-04-04T12:02:49.192Z</time></trkpt><trkpt lat="45.7386494" lon="11.7264449"><ele>98.0</ele><time>2026-04-04T12:02:50.181Z</time></trkpt><trkpt lat="45.7386499" lon="11.7261746"><ele>98.0</ele><time>2026-04-04T12:02:51.192Z</time></trkpt><trkpt lat="45.738647" lon="11.7259024"><ele>98.0</ele><time>2026-04-04T12:02:52.176Z</time></trkpt><trkpt lat="45.7386407" lon="11.7256305"><ele>98.0</ele><time>2026-04-04T12:02:53.19Z</time></trkpt><trkpt lat="45.7386317" lon="11.725359"><ele>98.0</ele><time>2026-04-04T12:02:54.181Z</time></trkpt><trkpt lat="45.7386194" lon="11.7250865"><ele>98.0</ele><time>2026-04-04T12:02:55.18Z</time></trkpt><trkpt lat="45.7386051" lon="11.7248078"><ele>98.0</ele><time>2026-04-04T12:02:56.179Z</time></trkpt><trkpt lat="45.7385878" lon="11.7245223"><ele>98.0</ele><time>2026-04-04T12:02:57.17Z</time></trkpt><trkpt lat="45.7385686" lon="11.7242346"><ele>98.0</ele><time>2026-04-04T12:02:58.194Z</time></trkpt><trkpt lat="45.7385484" lon="11.7239434"><ele>98.0</ele><time>2026-04-04T12:02:59.184Z</time></trkpt><trkpt lat="45.7385277" lon="11.7236502"><ele>98.0</ele><time>2026-04-04T12:03:00.192Z</time></trkpt><trkpt lat="45.7385053" lon="11.723355"><ele>98.0</ele><time>2026-04-04T12:03:01.181Z</time></trkpt><trkpt lat="45.73848" lon="11.7230531"><ele>98.0</ele><time>2026-04-04T12:03:02.196Z</time></trkpt><trkpt lat="45.7384537" lon="11.722745"><ele>97.33333333333333</ele><time>2026-04-04T12:03:03.187Z</time></trkpt><trkpt lat="45.7384266" lon="11.7224389"><ele>96.66666666666666</ele><time>2026-04-04T12:03:04.183Z</time></trkpt><trkpt lat="45.7383979" lon="11.7221374"><ele>96.0</ele><time>2026-04-04T12:03:05.194Z</time></trkpt><trkpt lat="45.7383649" lon="11.7218436"><ele>95.33333333333333</ele><time>2026-04-04T12:03:06.184Z</time></trkpt><trkpt lat="45.7383257" lon="11.7215575"><ele>94.66666666666666</ele><time>2026-04-04T12:03:07.197Z</time></trkpt><trkpt lat="45.7382796" lon="11.7212753"><ele>94.0</ele><time>2026-04-04T12:03:08.197Z</time></trkpt><trkpt lat="45.7382292" lon="11.7209953"><ele>94.0</ele><time>2026-04-04T12:03:09.193Z</time></trkpt><trkpt lat="45.738174" lon="11.7207183"><ele>94.0</ele><time>2026-04-04T12:03:10.196Z</time></trkpt><trkpt lat="45.7381136" lon="11.7204452"><ele>94.0</ele><time>2026-04-04T12:03:11.194Z</time></trkpt><trkpt lat="45.738049" lon="11.7201765"><ele>94.66666666666666</ele><time>2026-04-04T12:03:12.2Z</time></trkpt><trkpt lat="45.7379837" lon="11.7199271"><ele>95.33333333333333</ele><time>2026-04-04T12:03:13.181Z</time></trkpt><trkpt lat="45.7379235" lon="11.7196866"><ele>96.0</ele><time>2026-04-04T12:03:14.18Z</time></trkpt><trkpt lat="45.7378596" lon="11.7194453"><ele>96.0</ele><time>2026-04-04T12:03:15.178Z</time></trkpt><trkpt lat="45.7377962" lon="11.7192043"><ele>96.0</ele><time>2026-04-04T12:03:16.181Z</time></trkpt><trkpt lat="45.7377387" lon="11.7189628"><ele>96.0</ele><time>2026-04-04T12:03:17.182Z</time></trkpt><trkpt lat="45.7376802" lon="11.7187119"><ele>95.33333333333333</ele><time>2026-04-04T12:03:18.201Z</time></trkpt><trkpt lat="45.7376254" lon="11.7184473"><ele>94.66666666666666</ele><time>2026-04-04T12:03:19.174Z</time></trkpt><trkpt lat="45.7375748" lon="11.7181917"><ele>94.0</ele><time>2026-04-04T12:03:20.181Z</time></trkpt><trkpt lat="45.7375286" lon="11.7179381"><ele>94.0</ele><time>2026-04-04T12:03:21.179Z</time></trkpt><trkpt lat="45.7374869" lon="11.7176805"><ele>94.0</ele><time>2026-04-04T12:03:22.182Z</time></trkpt><trkpt lat="45.7374512" lon="11.7174192"><ele>94.0</ele><time>2026-04-04T12:03:23.177Z</time></trkpt><trkpt lat="45.7374212" lon="11.7171668"><ele>94.0</ele><time>2026-04-04T12:03:24.169Z</time></trkpt><trkpt lat="45.7373953" lon="11.7169316"><ele>94.0</ele><time>2026-04-04T12:03:25.18Z</time></trkpt><trkpt lat="45.7373709" lon="11.716716"><ele>94.0</ele><time>2026-04-04T12:03:26.173Z</time></trkpt><trkpt lat="45.7373532" lon="11.7165139"><ele>94.25</ele><time>2026-04-04T12:03:27.184Z</time></trkpt><trkpt lat="45.7373361" lon="11.716326"><ele>94.5</ele><time>2026-04-04T12:03:28.185Z</time></trkpt><trkpt lat="45.7373177" lon="11.7161503"><ele>94.75</ele><time>2026-04-04T12:03:29.194Z</time></trkpt><trkpt lat="45.7372983" lon="11.7159901"><ele>95.0</ele><time>2026-04-04T12:03:30.193Z</time></trkpt><trkpt lat="45.7372806" lon="11.7158455"><ele>95.16666666666667</ele><time>2026-04-04T12:03:31.188Z</time></trkpt><trkpt lat="45.7372713" lon="11.7157173"><ele>95.33333333333334</ele><time>2026-04-04T12:03:32.178Z</time></trkpt><trkpt lat="45.7372777" lon="11.7156021"><ele>95.5</ele><time>2026-04-04T12:03:33.184Z</time></trkpt><trkpt lat="45.7372957" lon="11.7154923"><ele>95.66666666666667</ele><time>2026-04-04T12:03:34.179Z</time></trkpt><trkpt lat="45.7373273" lon="11.7153855"><ele>95.83333333333333</ele><time>2026-04-04T12:03:35.176Z</time></trkpt><trkpt lat="45.7373731" lon="11.7152853"><ele>96.0</ele><time>2026-04-04T12:03:36.191Z</time></trkpt><trkpt lat="45.7374323" lon="11.715202"><ele>96.0</ele><time>2026-04-04T12:03:37.181Z</time></trkpt><trkpt lat="45.7374991" lon="11.7151514"><ele>96.0</ele><time>2026-04-04T12:03:38.176Z</time></trkpt><trkpt lat="45.737575" lon="11.7151394"><ele>96.0</ele><time>2026-04-04T12:03:39.179Z</time></trkpt><trkpt lat="45.737649" lon="11.7151742"><ele>96.0</ele><time>2026-04-04T12:03:40.188Z</time></trkpt><trkpt lat="45.7377099" lon="11.7152526"><ele>96.0</ele><time>2026-04-04T12:03:41.173Z</time></trkpt><trkpt lat="45.7377498" lon="11.7153674"><ele>96.0</ele><time>2026-04-04T12:03:42.182Z</time></trkpt><trkpt lat="45.7377642" lon="11.7155014"><ele>95.8</ele><time>2026-04-04T12:03:43.177Z</time></trkpt><trkpt lat="45.7377682" lon="11.71564"><ele>95.6</ele><time>2026-04-04T12:03:44.188Z</time></trkpt><trkpt lat="45.7377676" lon="11.7157686"><ele>95.4</ele><time>2026-04-04T12:03:45.189Z</time></trkpt><trkpt lat="45.7377664" lon="11.7159014"><ele>95.2</ele><time>2026-04-04T12:03:46.178Z</time></trkpt><trkpt lat="45.7377662" lon="11.7160379"><ele>95.0</ele><time>2026-04-04T12:03:47.191Z</time></trkpt><trkpt lat="45.7377682" lon="11.7161791"><ele>95.0</ele><time>2026-04-04T12:03:48.197Z</time></trkpt><trkpt lat="45.7377744" lon="11.7163157"><ele>95.0</ele><time>2026-04-04T12:03:49.19Z</time></trkpt><trkpt lat="45.7377848" lon="11.7164368"><ele>95.0</ele><time>2026-04-04T12:03:50.194Z</time></trkpt><trkpt lat="45.7377959" lon="11.7165432"><ele>95.0</ele><time>2026-04-04T12:03:51.193Z</time></trkpt><trkpt lat="45.7378057" lon="11.7166411"><ele>95.0</ele><time>2026-04-04T12:03:52.194Z</time></trkpt><trkpt lat="45.7378152" lon="11.7167402"><ele>95.0</ele><time>2026-04-04T12:03:53.194Z</time></trkpt><trkpt lat="45.7378229" lon="11.7168415"><ele>95.4</ele><time>2026-04-04T12:03:54.19Z</time></trkpt><trkpt lat="45.7378353" lon="11.7169647"><ele>95.8</ele><time>2026-04-04T12:03:55.19Z</time></trkpt><trkpt lat="45.7378481" lon="11.7171224"><ele>96.19999999999999</ele><time>2026-04-04T12:03:56.189Z</time></trkpt><trkpt lat="45.737857" lon="11.7172646"><ele>96.6</ele><time>2026-04-04T12:03:57.186Z</time></trkpt><trkpt lat="45.7378734" lon="11.7174321"><ele>97.0</ele><time>2026-04-04T12:03:58.193Z</time></trkpt><trkpt lat="45.737881" lon="11.7176216"><ele>96.75</ele><time>2026-04-04T12:03:59.187Z</time></trkpt><trkpt lat="45.7378906" lon="11.7178168"><ele>96.5</ele><time>2026-04-04T12:04:00.179Z</time></trkpt><trkpt lat="45.7379035" lon="11.7180193"><ele>96.25</ele><time>2026-04-04T12:04:01.177Z</time></trkpt><trkpt lat="45.7379318" lon="11.7182245"><ele>96.0</ele><time>2026-04-04T12:04:02.182Z</time></trkpt><trkpt lat="45.7379587" lon="11.7184405"><ele>96.0</ele><time>2026-04-04T12:04:03.19Z</time></trkpt><trkpt lat="45.7379945" lon="11.7186592"><ele>96.0</ele><time>2026-04-04T12:04:04.189Z</time></trkpt><trkpt lat="45.7380368" lon="11.7188805"><ele>96.0</ele><time>2026-04-04T12:04:05.178Z</time></trkpt><trkpt lat="45.7380786" lon="11.7191064"><ele>96.0</ele><time>2026-04-04T12:04:06.182Z</time></trkpt><trkpt lat="45.7381224" lon="11.7193402"><ele>96.0</ele><time>2026-04-04T12:04:07.177Z</time></trkpt><trkpt lat="45.7381671" lon="11.7195789"><ele>96.0</ele><time>2026-04-04T12:04:08.19Z</time></trkpt><trkpt lat="45.738209" lon="11.7198312"><ele>96.0</ele><time>2026-04-04T12:04:09.191Z</time></trkpt><trkpt lat="45.7382502" lon="11.7200951"><ele>96.0</ele><time>2026-04-04T12:04:10.184Z</time></trkpt><trkpt lat="45.7382924" lon="11.720372"><ele>96.0</ele><time>2026-04-04T12:04:11.192Z</time></trkpt><trkpt lat="45.7383303" lon="11.7206614"><ele>95.33333333333333</ele><time>2026-04-04T12:04:12.183Z</time></trkpt><trkpt lat="45.7383667" lon="11.720953"><ele>94.66666666666666</ele><time>2026-04-04T12:04:13.192Z</time></trkpt><trkpt lat="45.7384041" lon="11.7212521"><ele>94.0</ele><time>2026-04-04T12:04:14.183Z</time></trkpt><trkpt lat="45.7384431" lon="11.7215653"><ele>94.0</ele><time>2026-04-04T12:04:15.188Z</time></trkpt><trkpt lat="45.7384804" lon="11.7218835"><ele>94.0</ele><time>2026-04-04T12:04:16.186Z</time></trkpt><trkpt lat="45.7385159" lon="11.7222057"><ele>95.0</ele><time>2026-04-04T12:04:17.189Z</time></trkpt><trkpt lat="45.7385484" lon="11.722533"><ele>96.0</ele><time>2026-04-04T12:04:18.194Z</time></trkpt><trkpt lat="45.7385792" lon="11.7228682"><ele>96.0</ele><time>2026-04-04T12:04:19.187Z</time></trkpt><trkpt lat="45.7386105" lon="11.723207"><ele>96.0</ele><time>2026-04-04T12:04:20.186Z</time></trkpt><trkpt lat="45.7386424" lon="11.7235485"><ele>96.0</ele><time>2026-04-04T12:04:21.183Z</time></trkpt><trkpt lat="45.7386715" lon="11.7238935"><ele>96.0</ele><time>2026-04-04T12:04:22.189Z</time></trkpt><trkpt lat="45.7386977" lon="11.7242451"><ele>97.0</ele><time>2026-04-04T12:04:23.184Z</time></trkpt><trkpt lat="45.7387208" lon="11.7246023"><ele>98.0</ele><time>2026-04-04T12:04:24.189Z</time></trkpt><trkpt lat="45.7387387" lon="11.724963"><ele>98.0</ele><time>2026-04-04T12:04:25.188Z</time></trkpt><trkpt lat="45.7387527" lon="11.7253282"><ele>98.0</ele><time>2026-04-04T12:04:26.188Z</time></trkpt><trkpt lat="45.7387598" lon="11.7256982"><ele>98.0</ele><time>2026-04-04T12:04:27.19Z</time></trkpt><trkpt lat="45.7387637" lon="11.72607"><ele>98.0</ele><time>2026-04-04T12:04:28.184Z</time></trkpt><trkpt lat="45.738763" lon="11.7264433"><ele>98.0</ele><time>2026-04-04T12:04:29.182Z</time></trkpt><trkpt lat="45.7387566" lon="11.7268177"><ele>98.0</ele><time>2026-04-04T12:04:30.183Z</time></trkpt><trkpt lat="45.7387443" lon="11.7271927"><ele>98.0</ele><time>2026-04-04T12:04:31.183Z</time></trkpt><trkpt lat="45.7387237" lon="11.7275668"><ele>98.0</ele><time>2026-04-04T12:04:32.181Z</time></trkpt><trkpt lat="45.7386978" lon="11.7279421"><ele>97.0</ele><time>2026-04-04T12:04:33.19Z</time></trkpt><trkpt lat="45.7386672" lon="11.7283141"><ele>96.0</ele><time>2026-04-04T12:04:34.186Z</time></trkpt><trkpt lat="45.7386298" lon="11.7286874"><ele>96.0</ele><time>2026-04-04T12:04:35.188Z</time></trkpt><trkpt lat="45.7385853" lon="11.7290587"><ele>96.0</ele><time>2026-04-04T12:04:36.186Z</time></trkpt><trkpt lat="45.7385357" lon="11.7294302"><ele>95.5</ele><time>2026-04-04T12:04:37.192Z</time></trkpt><trkpt lat="45.738481" lon="11.7297984"><ele>95.0</ele><time>2026-04-04T12:04:38.185Z</time></trkpt><trkpt lat="45.7384191" lon="11.7301674"><ele>96.5</ele><time>2026-04-04T12:04:39.194Z</time></trkpt><trkpt lat="45.7383524" lon="11.7305336"><ele>98.0</ele><time>2026-04-04T12:04:40.197Z</time></trkpt><trkpt lat="45.7382803" lon="11.730899"><ele>99.0</ele><time>2026-04-04T12:04:41.206Z</time></trkpt><trkpt lat="45.7382077" lon="11.7312551"><ele>100.0</ele><time>2026-04-04T12:04:42.194Z</time></trkpt><trkpt lat="45.7381276" lon="11.731607"><ele>99.5</ele><time>2026-04-04T12:04:43.189Z</time></trkpt><trkpt lat="45.738044" lon="11.7319666"><ele>99.0</ele><time>2026-04-04T12:04:44.191Z</time></trkpt><trkpt lat="45.7379571" lon="11.7323175"><ele>99.0</ele><time>2026-04-04T12:04:45.191Z</time></trkpt><trkpt lat="45.7378721" lon="11.7326695"><ele>99.0</ele><time>2026-04-04T12:04:46.191Z</time></trkpt><trkpt lat="45.7377946" lon="11.7330165"><ele>99.5</ele><time>2026-04-04T12:04:47.183Z</time></trkpt><trkpt lat="45.7377153" lon="11.7333676"><ele>100.0</ele><time>2026-04-04T12:04:48.193Z</time></trkpt><trkpt lat="45.7376354" lon="11.7337129"><ele>100.0</ele><time>2026-04-04T12:04:49.191Z</time></trkpt><trkpt lat="45.7375559" lon="11.7340585"><ele>100.0</ele><time>2026-04-04T12:04:50.189Z</time></trkpt><trkpt lat="45.737479" lon="11.7344073"><ele>100.0</ele><time>2026-04-04T12:04:51.194Z</time></trkpt><trkpt lat="45.7373999" lon="11.7347564"><ele>100.0</ele><time>2026-04-04T12:04:52.19Z</time></trkpt><trkpt lat="45.7373177" lon="11.7351028"><ele>100.5</ele><time>2026-04-04T12:04:53.182Z</time></trkpt><trkpt lat="45.7372346" lon="11.7354541"><ele>101.0</ele><time>2026-04-04T12:04:54.202Z</time></trkpt><trkpt lat="45.7371538" lon="11.7358053"><ele>100.5</ele><time>2026-04-04T12:04:55.189Z</time></trkpt><trkpt lat="45.737071" lon="11.7361621"><ele>100.0</ele><time>2026-04-04T12:04:56.188Z</time></trkpt><trkpt lat="45.7369871" lon="11.7365206"><ele>100.0</ele><time>2026-04-04T12:04:57.191Z</time></trkpt><trkpt lat="45.7369023" lon="11.7368777"><ele>100.0</ele><time>2026-04-04T12:04:58.192Z</time></trkpt><trkpt lat="45.7368165" lon="11.7372357"><ele>100.5</ele><time>2026-04-04T12:04:59.205Z</time></trkpt><trkpt lat="45.736731" lon="11.737589"><ele>101.0</ele><time>2026-04-04T12:05:00.197Z</time></trkpt><trkpt lat="45.7366494" lon="11.7379437"><ele>101.0</ele><time>2026-04-04T12:05:01.181Z</time></trkpt><trkpt lat="45.7365747" lon="11.7383052"><ele>101.0</ele><time>2026-04-04T12:05:02.197Z</time></trkpt><trkpt lat="45.7365071" lon="11.738665"><ele>100.5</ele><time>2026-04-04T12:05:03.197Z</time></trkpt><trkpt lat="45.736448" lon="11.7390305"><ele>100.0</ele><time>2026-04-04T12:05:04.193Z</time></trkpt><trkpt lat="45.7363972" lon="11.7394006"><ele>99.5</ele><time>2026-04-04T12:05:05.195Z</time></trkpt><trkpt lat="45.7363565" lon="11.7397728"><ele>99.0</ele><time>2026-04-04T12:05:06.188Z</time></trkpt><trkpt lat="45.7363244" lon="11.7401501"><ele>100.0</ele><time>2026-04-04T12:05:07.185Z</time></trkpt><trkpt lat="45.7362994" lon="11.7405309"><ele>101.0</ele><time>2026-04-04T12:05:08.196Z</time></trkpt><trkpt lat="45.7362783" lon="11.7409089"><ele>102.0</ele><time>2026-04-04T12:05:09.192Z</time></trkpt><trkpt lat="45.7362584" lon="11.7412863"><ele>103.0</ele><time>2026-04-04T12:05:10.192Z</time></trkpt><trkpt lat="45.7362397" lon="11.7416598"><ele>103.0</ele><time>2026-04-04T12:05:11.181Z</time></trkpt><trkpt lat="45.736221" lon="11.7420389"><ele>103.0</ele><time>2026-04-04T12:05:12.192Z</time></trkpt><trkpt lat="45.7362141" lon="11.7424208"><ele>103.0</ele><time>2026-04-04T12:05:13.187Z</time></trkpt><trkpt lat="45.7361952" lon="11.7427976"><ele>103.0</ele><time>2026-04-04T12:05:14.184Z</time></trkpt><trkpt lat="45.7361703" lon="11.7431759"><ele>102.5</ele><time>2026-04-04T12:05:15.193Z</time></trkpt><trkpt lat="45.736148" lon="11.7435507"><ele>102.0</ele><time>2026-04-04T12:05:16.185Z</time></trkpt><trkpt lat="45.7361133" lon="11.7439283"><ele>102.0</ele><time>2026-04-04T12:05:17.187Z</time></trkpt><trkpt lat="45.7360872" lon="11.7443061"><ele>102.0</ele><time>2026-04-04T12:05:18.183Z</time></trkpt><trkpt lat="45.7360626" lon="11.7446877"><ele>102.0</ele><time>2026-04-04T12:05:19.191Z</time></trkpt><trkpt lat="45.736044" lon="11.7450621"><ele>102.0</ele><time>2026-04-04T12:05:20.195Z</time></trkpt><trkpt lat="45.7360233" lon="11.7454325"><ele>101.5</ele><time>2026-04-04T12:05:21.193Z</time></trkpt><trkpt lat="45.7360029" lon="11.7458005"><ele>101.0</ele><time>2026-04-04T12:05:22.193Z</time></trkpt><trkpt lat="45.735981" lon="11.7461693"><ele>101.0</ele><time>2026-04-04T12:05:23.2Z</time></trkpt><trkpt lat="45.7359579" lon="11.746529"><ele>101.0</ele><time>2026-04-04T12:05:24.192Z</time></trkpt><trkpt lat="45.735936" lon="11.7468871"><ele>101.0</ele><time>2026-04-04T12:05:25.187Z</time></trkpt><trkpt lat="45.7359165" lon="11.7472457"><ele>101.0</ele><time>2026-04-04T12:05:26.19Z</time></trkpt><trkpt lat="45.7358968" lon="11.747602"><ele>101.5</ele><time>2026-04-04T12:05:27.195Z</time></trkpt><trkpt lat="45.7358785" lon="11.7479561"><ele>102.0</ele><time>2026-04-04T12:05:28.19Z</time></trkpt><trkpt lat="45.735856" lon="11.7483115"><ele>102.0</ele><time>2026-04-04T12:05:29.194Z</time></trkpt><trkpt lat="45.7358337" lon="11.7486667"><ele>102.0</ele><time>2026-04-04T12:05:30.192Z</time></trkpt><trkpt lat="45.7358143" lon="11.7490221"><ele>101.5</ele><time>2026-04-04T12:05:31.188Z</time></trkpt><trkpt lat="45.7358006" lon="11.7493809"><ele>101.0</ele><time>2026-04-04T12:05:32.186Z</time></trkpt><trkpt lat="45.7357924" lon="11.7497408"><ele>101.0</ele><time>2026-04-04T12:05:33.185Z</time></trkpt><trkpt lat="45.7357886" lon="11.7501028"><ele>101.0</ele><time>2026-04-04T12:05:34.174Z</time></trkpt><trkpt lat="45.7357912" lon="11.7504745"><ele>101.0</ele><time>2026-04-04T12:05:35.191Z</time></trkpt><trkpt lat="45.7358011" lon="11.750847"><ele>101.0</ele><time>2026-04-04T12:05:36.188Z</time></trkpt><trkpt lat="45.7358177" lon="11.751224"><ele>101.0</ele><time>2026-04-04T12:05:37.192Z</time></trkpt><trkpt lat="45.7358403" lon="11.7516015"><ele>101.0</ele><time>2026-04-04T12:05:38.19Z</time></trkpt><trkpt lat="45.7358691" lon="11.751979"><ele>101.0</ele><time>2026-04-04T12:05:39.185Z</time></trkpt><trkpt lat="45.735905" lon="11.7523574"><ele>101.0</ele><time>2026-04-04T12:05:40.174Z</time></trkpt><trkpt lat="45.7359499" lon="11.7527428"><ele>101.0</ele><time>2026-04-04T12:05:41.185Z</time></trkpt><trkpt lat="45.7360033" lon="11.7531276"><ele>101.0</ele><time>2026-04-04T12:05:42.184Z</time></trkpt><trkpt lat="45.7360607" lon="11.7535155"><ele>101.0</ele><time>2026-04-04T12:05:43.191Z</time></trkpt><trkpt lat="45.7361159" lon="11.753905"><ele>101.0</ele><time>2026-04-04T12:05:44.186Z</time></trkpt><trkpt lat="45.73617" lon="11.7542989"><ele>100.0</ele><time>2026-04-04T12:05:45.19Z</time></trkpt><trkpt lat="45.736224" lon="11.7546929"><ele>99.0</ele><time>2026-04-04T12:05:46.194Z</time></trkpt><trkpt lat="45.7362747" lon="11.755086"><ele>100.0</ele><time>2026-04-04T12:05:47.188Z</time></trkpt><trkpt lat="45.736322" lon="11.7554749"><ele>101.0</ele><time>2026-04-04T12:05:48.183Z</time></trkpt><trkpt lat="45.736368" lon="11.7558658"><ele>101.0</ele><time>2026-04-04T12:05:49.19Z</time></trkpt><trkpt lat="45.7364139" lon="11.7562542"><ele>101.0</ele><time>2026-04-04T12:05:50.192Z</time></trkpt><trkpt lat="45.7364605" lon="11.7566419"><ele>100.5</ele><time>2026-04-04T12:05:51.195Z</time></trkpt><trkpt lat="45.7365103" lon="11.7570249"><ele>100.0</ele><time>2026-04-04T12:05:52.177Z</time></trkpt><trkpt lat="45.7365639" lon="11.7574097"><ele>100.5</ele><time>2026-04-04T12:05:53.19Z</time></trkpt><trkpt lat="45.7366173" lon="11.7577877"><ele>101.0</ele><time>2026-04-04T12:05:54.19Z</time></trkpt><trkpt lat="45.7366689" lon="11.7581669"><ele>101.5</ele><time>2026-04-04T12:05:55.2Z</time></trkpt><trkpt lat="45.7367166" lon="11.758543"><ele>102.0</ele><time>2026-04-04T12:05:56.189Z</time></trkpt><trkpt lat="45.7367651" lon="11.7589206"><ele>102.0</ele><time>2026-04-04T12:05:57.185Z</time></trkpt><trkpt lat="45.7368146" lon="11.7592965"><ele>102.0</ele><time>2026-04-04T12:05:58.19Z</time></trkpt><trkpt lat="45.7368721" lon="11.7596702"><ele>102.5</ele><time>2026-04-04T12:05:59.202Z</time></trkpt><trkpt lat="45.7369192" lon="11.7600319"><ele>103.0</ele><time>2026-04-04T12:06:00.205Z</time></trkpt><trkpt lat="45.7369717" lon="11.7603899"><ele>103.0</ele><time>2026-04-04T12:06:01.2Z</time></trkpt><trkpt lat="45.7370216" lon="11.7607566"><ele>103.0</ele><time>2026-04-04T12:06:02.205Z</time></trkpt><trkpt lat="45.7370727" lon="11.7611155"><ele>102.0</ele><time>2026-04-04T12:06:03.201Z</time></trkpt><trkpt lat="45.7371244" lon="11.7614858"><ele>101.0</ele><time>2026-04-04T12:06:04.228Z</time></trkpt><trkpt lat="45.7371765" lon="11.7618468"><ele>101.0</ele><time>2026-04-04T12:06:05.192Z</time></trkpt><trkpt lat="45.7372291" lon="11.7622162"><ele>101.0</ele><time>2026-04-04T12:06:06.196Z</time></trkpt><trkpt lat="45.7372822" lon="11.7625834"><ele>101.0</ele><time>2026-04-04T12:06:07.191Z</time></trkpt><trkpt lat="45.7373358" lon="11.7629613"><ele>101.0</ele><time>2026-04-04T12:06:08.201Z</time></trkpt><trkpt lat="45.7373963" lon="11.7633269"><ele>102.0</ele><time>2026-04-04T12:06:09.206Z</time></trkpt><trkpt lat="45.7374595" lon="11.7636827"><ele>103.0</ele><time>2026-04-04T12:06:10.188Z</time></trkpt><trkpt lat="45.7375172" lon="11.7640454"><ele>102.5</ele><time>2026-04-04T12:06:11.19Z</time></trkpt><trkpt lat="45.737579" lon="11.7644006"><ele>102.0</ele><time>2026-04-04T12:06:12.191Z</time></trkpt><trkpt lat="45.7376443" lon="11.7647542"><ele>102.0</ele><time>2026-04-04T12:06:13.178Z</time></trkpt><trkpt lat="45.7377061" lon="11.7651138"><ele>102.0</ele><time>2026-04-04T12:06:14.187Z</time></trkpt><trkpt lat="45.73777" lon="11.7654759"><ele>102.0</ele><time>2026-04-04T12:06:15.202Z</time></trkpt><trkpt lat="45.7378311" lon="11.7658406"><ele>102.0</ele><time>2026-04-04T12:06:16.204Z</time></trkpt><trkpt lat="45.7378937" lon="11.7662076"><ele>102.0</ele><time>2026-04-04T12:06:17.219Z</time></trkpt><trkpt lat="45.7379553" lon="11.7665697"><ele>102.0</ele><time>2026-04-04T12:06:18.206Z</time></trkpt><trkpt lat="45.7380184" lon="11.7669323"><ele>102.5</ele><time>2026-04-04T12:06:19.194Z</time></trkpt><trkpt lat="45.7380845" lon="11.7672961"><ele>103.0</ele><time>2026-04-04T12:06:20.204Z</time></trkpt><trkpt lat="45.7381491" lon="11.7676555"><ele>103.5</ele><time>2026-04-04T12:06:21.188Z</time></trkpt><trkpt lat="45.7382144" lon="11.7680187"><ele>104.0</ele><time>2026-04-04T12:06:22.213Z</time></trkpt><trkpt lat="45.7382785" lon="11.7683751"><ele>103.5</ele><time>2026-04-04T12:06:23.202Z</time></trkpt><trkpt lat="45.7383427" lon="11.7687325"><ele>103.0</ele><time>2026-04-04T12:06:24.191Z</time></trkpt><trkpt lat="45.7384068" lon="11.7690891"><ele>101.5</ele><time>2026-04-04T12:06:25.181Z</time></trkpt><trkpt lat="45.7384706" lon="11.7694469"><ele>100.0</ele><time>2026-04-04T12:06:26.208Z</time></trkpt><trkpt lat="45.7385325" lon="11.769798"><ele>101.0</ele><time>2026-04-04T12:06:27.192Z</time></trkpt><trkpt lat="45.7385958" lon="11.7701515"><ele>102.0</ele><time>2026-04-04T12:06:28.182Z</time></trkpt><trkpt lat="45.7386604" lon="11.7705092"><ele>102.0</ele><time>2026-04-04T12:06:29.198Z</time></trkpt><trkpt lat="45.7387242" lon="11.7708642"><ele>102.0</ele><time>2026-04-04T12:06:30.185Z</time></trkpt><trkpt lat="45.7387884" lon="11.7712254"><ele>101.5</ele><time>2026-04-04T12:06:31.185Z</time></trkpt><trkpt lat="45.7388521" lon="11.7715906"><ele>101.0</ele><time>2026-04-04T12:06:32.189Z</time></trkpt><trkpt lat="45.7389165" lon="11.7719598"><ele>101.0</ele><time>2026-04-04T12:06:33.188Z</time></trkpt><trkpt lat="45.7389802" lon="11.7723334"><ele>101.0</ele><time>2026-04-04T12:06:34.18Z</time></trkpt><trkpt lat="45.7390447" lon="11.7727099"><ele>101.5</ele><time>2026-04-04T12:06:35.186Z</time></trkpt><trkpt lat="45.7391086" lon="11.7730865"><ele>102.0</ele><time>2026-04-04T12:06:36.196Z</time></trkpt><trkpt lat="45.7391726" lon="11.7734633"><ele>101.5</ele><time>2026-04-04T12:06:37.203Z</time></trkpt><trkpt lat="45.7392339" lon="11.7738351"><ele>101.0</ele><time>2026-04-04T12:06:38.199Z</time></trkpt><trkpt lat="45.7392982" lon="11.7741995"><ele>100.5</ele><time>2026-04-04T12:06:39.2Z</time></trkpt><trkpt lat="45.7393573" lon="11.7745641"><ele>100.0</ele><time>2026-04-04T12:06:40.189Z</time></trkpt><trkpt lat="45.7394136" lon="11.7749378"><ele>100.5</ele><time>2026-04-04T12:06:41.199Z</time></trkpt><trkpt lat="45.7394695" lon="11.7753104"><ele>101.0</ele><time>2026-04-04T12:06:42.207Z</time></trkpt><trkpt lat="45.7395254" lon="11.77568"><ele>101.5</ele><time>2026-04-04T12:06:43.201Z</time></trkpt><trkpt lat="45.7395808" lon="11.7760504"><ele>102.0</ele><time>2026-04-04T12:06:44.195Z</time></trkpt><trkpt lat="45.7396374" lon="11.7764229"><ele>102.0</ele><time>2026-04-04T12:06:45.2Z</time></trkpt><trkpt lat="45.7396942" lon="11.7767936"><ele>102.0</ele><time>2026-04-04T12:06:46.197Z</time></trkpt><trkpt lat="45.7397493" lon="11.7771631"><ele>101.0</ele><time>2026-04-04T12:06:47.194Z</time></trkpt><trkpt lat="45.7398028" lon="11.7775312"><ele>100.0</ele><time>2026-04-04T12:06:48.192Z</time></trkpt><trkpt lat="45.7398567" lon="11.7778995"><ele>99.5</ele><time>2026-04-04T12:06:49.189Z</time></trkpt><trkpt lat="45.739911" lon="11.778268"><ele>99.0</ele><time>2026-04-04T12:06:50.188Z</time></trkpt><trkpt lat="45.739965" lon="11.7786357"><ele>99.0</ele><time>2026-04-04T12:06:51.201Z</time></trkpt><trkpt lat="45.7400192" lon="11.7789991"><ele>99.0</ele><time>2026-04-04T12:06:52.193Z</time></trkpt><trkpt lat="45.7400735" lon="11.7793692"><ele>99.0</ele><time>2026-04-04T12:06:53.205Z</time></trkpt><trkpt lat="45.7401291" lon="11.7797344"><ele>99.0</ele><time>2026-04-04T12:06:54.203Z</time></trkpt><trkpt lat="45.7401815" lon="11.7800979"><ele>99.5</ele><time>2026-04-04T12:06:55.19Z</time></trkpt><trkpt lat="45.7402307" lon="11.7804779"><ele>100.0</ele><time>2026-04-04T12:06:56.197Z</time></trkpt><trkpt lat="45.7402813" lon="11.7808544"><ele>99.5</ele><time>2026-04-04T12:06:57.203Z</time></trkpt><trkpt lat="45.7403346" lon="11.7812193"><ele>99.0</ele><time>2026-04-04T12:06:58.176Z</time></trkpt><trkpt lat="45.7397266" lon="11.7783462"><ele>97.0</ele><time>2026-04-04T12:07:17.307Z</time></trkpt><trkpt lat="45.7411431" lon="11.7900596"><ele>97.5</ele><time>2026-04-04T12:07:22.161Z</time></trkpt><trkpt lat="45.7410983" lon="11.7905233"><ele>98.0</ele><time>2026-04-04T12:07:23.2Z</time></trkpt><trkpt lat="45.7410855" lon="11.7909066"><ele>98.0</ele><time>2026-04-04T12:07:24.203Z</time></trkpt><trkpt lat="45.7410806" lon="11.7912905"><ele>98.0</ele><time>2026-04-04T12:07:25.193Z</time></trkpt><trkpt lat="45.741081" lon="11.7916812"><ele>98.0</ele><time>2026-04-04T12:07:26.211Z</time></trkpt><trkpt lat="45.7410785" lon="11.7920635"><ele>98.0</ele><time>2026-04-04T12:07:27.21Z</time></trkpt><trkpt lat="45.7410788" lon="11.7924409"><ele>98.0</ele><time>2026-04-04T12:07:28.191Z</time></trkpt><trkpt lat="45.7410887" lon="11.7928152"><ele>98.0</ele><time>2026-04-04T12:07:29.199Z</time></trkpt><trkpt lat="45.7411051" lon="11.7931884"><ele>98.0</ele><time>2026-04-04T12:07:30.2Z</time></trkpt><trkpt lat="45.7411305" lon="11.793566"><ele>98.0</ele><time>2026-04-04T12:07:31.198Z</time></trkpt><trkpt lat="45.7411635" lon="11.7939376"><ele>98.0</ele><time>2026-04-04T12:07:32.204Z</time></trkpt><trkpt lat="45.7412049" lon="11.7943039"><ele>98.0</ele><time>2026-04-04T12:07:33.19Z</time></trkpt><trkpt lat="45.7412529" lon="11.7946724"><ele>98.0</ele><time>2026-04-04T12:07:34.203Z</time></trkpt><trkpt lat="45.7413049" lon="11.795037"><ele>98.0</ele><time>2026-04-04T12:07:35.198Z</time></trkpt><trkpt lat="45.7413669" lon="11.7953995"><ele>98.0</ele><time>2026-04-04T12:07:36.206Z</time></trkpt><trkpt lat="45.741437" lon="11.7957553"><ele>98.0</ele><time>2026-04-04T12:07:37.2Z</time></trkpt><trkpt lat="45.7415221" lon="11.7961143"><ele>97.5</ele><time>2026-04-04T12:07:38.21Z</time></trkpt><trkpt lat="45.7416141" lon="11.7964639"><ele>97.0</ele><time>2026-04-04T12:07:39.204Z</time></trkpt><trkpt lat="45.7417183" lon="11.7968113"><ele>96.0</ele><time>2026-04-04T12:07:40.2Z</time></trkpt><trkpt lat="45.7418356" lon="11.7971539"><ele>95.0</ele><time>2026-04-04T12:07:41.207Z</time></trkpt><trkpt lat="45.741957" lon="11.7974958"><ele>95.0</ele><time>2026-04-04T12:07:42.219Z</time></trkpt><trkpt lat="45.7420792" lon="11.7978315"><ele>95.0</ele><time>2026-04-04T12:07:43.188Z</time></trkpt><trkpt lat="45.742203" lon="11.7981753"><ele>96.0</ele><time>2026-04-04T12:07:44.189Z</time></trkpt><trkpt lat="45.7423286" lon="11.7985203"><ele>97.0</ele><time>2026-04-04T12:07:45.209Z</time></trkpt><trkpt lat="45.7424457" lon="11.7988622"><ele>97.0</ele><time>2026-04-04T12:07:46.202Z</time></trkpt><trkpt lat="45.7425553" lon="11.7992042"><ele>97.0</ele><time>2026-04-04T12:07:47.198Z</time></trkpt><trkpt lat="45.7426596" lon="11.7995455"><ele>96.5</ele><time>2026-04-04T12:07:48.195Z</time></trkpt><trkpt lat="45.7427641" lon="11.7998881"><ele>96.0</ele><time>2026-04-04T12:07:49.188Z</time></trkpt><trkpt lat="45.7428683" lon="11.8002356"><ele>96.0</ele><time>2026-04-04T12:07:50.194Z</time></trkpt><trkpt lat="45.7429728" lon="11.8005863"><ele>96.0</ele><time>2026-04-04T12:07:51.211Z</time></trkpt><trkpt lat="45.743071" lon="11.8009355"><ele>95.0</ele><time>2026-04-04T12:07:52.202Z</time></trkpt><trkpt lat="45.7431627" lon="11.8012911"><ele>94.0</ele><time>2026-04-04T12:07:53.187Z</time></trkpt><trkpt lat="45.743251" lon="11.8016628"><ele>93.5</ele><time>2026-04-04T12:07:54.229Z</time></trkpt><trkpt lat="45.743324" lon="11.8020287"><ele>93.0</ele><time>2026-04-04T12:07:55.22Z</time></trkpt><trkpt lat="45.7433912" lon="11.8023974"><ele>93.0</ele><time>2026-04-04T12:07:56.202Z</time></trkpt><trkpt lat="45.7434494" lon="11.8027771"><ele>93.0</ele><time>2026-04-04T12:07:57.205Z</time></trkpt><trkpt lat="45.7434967" lon="11.8031563"><ele>93.5</ele><time>2026-04-04T12:07:58.203Z</time></trkpt><trkpt lat="45.7435362" lon="11.8035351"><ele>94.0</ele><time>2026-04-04T12:07:59.201Z</time></trkpt><trkpt lat="45.7435693" lon="11.8039154"><ele>94.0</ele><time>2026-04-04T12:08:00.196Z</time></trkpt><trkpt lat="45.7435958" lon="11.804296"><ele>94.0</ele><time>2026-04-04T12:08:01.203Z</time></trkpt><trkpt lat="45.7436176" lon="11.8046741"><ele>95.0</ele><time>2026-04-04T12:08:02.199Z</time></trkpt><trkpt lat="45.743636" lon="11.8050559"><ele>96.0</ele><time>2026-04-04T12:08:03.207Z</time></trkpt><trkpt lat="45.7436547" lon="11.8054316"><ele>96.0</ele><time>2026-04-04T12:08:04.197Z</time></trkpt><trkpt lat="45.743671" lon="11.8058124"><ele>96.0</ele><time>2026-04-04T12:08:05.202Z</time></trkpt><trkpt lat="45.7436908" lon="11.806193"><ele>94.5</ele><time>2026-04-04T12:08:06.206Z</time></trkpt><trkpt lat="45.7437035" lon="11.8065714"><ele>93.0</ele><time>2026-04-04T12:08:07.208Z</time></trkpt><trkpt lat="45.7437195" lon="11.8069479"><ele>92.5</ele><time>2026-04-04T12:08:08.213Z</time></trkpt><trkpt lat="45.7437413" lon="11.8073191"><ele>92.0</ele><time>2026-04-04T12:08:09.2Z</time></trkpt><trkpt lat="45.7437681" lon="11.8076944"><ele>91.5</ele><time>2026-04-04T12:08:10.195Z</time></trkpt><trkpt lat="45.743802" lon="11.8080706"><ele>91.0</ele><time>2026-04-04T12:08:11.208Z</time></trkpt><trkpt lat="45.7438504" lon="11.8084321"><ele>91.0</ele><time>2026-04-04T12:08:12.182Z</time></trkpt><trkpt lat="45.7439118" lon="11.8088018"><ele>91.0</ele><time>2026-04-04T12:08:13.194Z</time></trkpt><trkpt lat="45.7439801" lon="11.8091664"><ele>91.0</ele><time>2026-04-04T12:08:14.201Z</time></trkpt><trkpt lat="45.7440593" lon="11.8095254"><ele>91.0</ele><time>2026-04-04T12:08:15.205Z</time></trkpt><trkpt lat="45.7441417" lon="11.8098734"><ele>91.5</ele><time>2026-04-04T12:08:16.187Z</time></trkpt><trkpt lat="45.7442255" lon="11.8102224"><ele>92.0</ele><time>2026-04-04T12:08:17.191Z</time></trkpt><trkpt lat="45.745189" lon="11.8144042"><ele>90.5</ele><time>2026-04-04T12:08:29.203Z</time></trkpt><trkpt lat="45.745257" lon="11.8147382"><ele>89.0</ele><time>2026-04-04T12:08:30.209Z</time></trkpt><trkpt lat="45.7453362" lon="11.8150942"><ele>89.0</ele><time>2026-04-04T12:08:31.204Z</time></trkpt><trkpt lat="45.7454129" lon="11.8154651"><ele>89.0</ele><time>2026-04-04T12:08:32.197Z</time></trkpt><trkpt lat="45.7454915" lon="11.8158349"><ele>89.0</ele><time>2026-04-04T12:08:33.199Z</time></trkpt><trkpt lat="45.7455682" lon="11.8162224"><ele>89.0</ele><time>2026-04-04T12:08:34.206Z</time></trkpt><trkpt lat="45.7456384" lon="11.8166123"><ele>89.0</ele><time>2026-04-04T12:08:35.187Z</time></trkpt><trkpt lat="45.7457031" lon="11.8170005"><ele>89.0</ele><time>2026-04-04T12:08:36.2Z</time></trkpt><trkpt lat="45.7457613" lon="11.8173808"><ele>88.5</ele><time>2026-04-04T12:08:37.202Z</time></trkpt><trkpt lat="45.7458208" lon="11.8177632"><ele>88.0</ele><time>2026-04-04T12:08:38.205Z</time></trkpt><trkpt lat="45.745874" lon="11.8181475"><ele>88.0</ele><time>2026-04-04T12:08:39.199Z</time></trkpt><trkpt lat="45.7459212" lon="11.8185328"><ele>88.0</ele><time>2026-04-04T12:08:40.2Z</time></trkpt><trkpt lat="45.7459654" lon="11.8189099"><ele>88.0</ele><time>2026-04-04T12:08:41.202Z</time></trkpt><trkpt lat="45.7460092" lon="11.8192785"><ele>88.0</ele><time>2026-04-04T12:08:42.196Z</time></trkpt><trkpt lat="45.7460475" lon="11.8196485"><ele>88.0</ele><time>2026-04-04T12:08:43.206Z</time></trkpt><trkpt lat="45.7460882" lon="11.8200202"><ele>88.0</ele><time>2026-04-04T12:08:44.19Z</time></trkpt><trkpt lat="45.746132" lon="11.820392"><ele>88.0</ele><time>2026-04-04T12:08:45.188Z</time></trkpt><trkpt lat="45.7461736" lon="11.8207671"><ele>88.0</ele><time>2026-04-04T12:08:46.201Z</time></trkpt><trkpt lat="45.7462159" lon="11.8211321"><ele>87.5</ele><time>2026-04-04T12:08:47.2Z</time></trkpt><trkpt lat="45.7462535" lon="11.821497"><ele>87.0</ele><time>2026-04-04T12:08:48.194Z</time></trkpt><trkpt lat="45.746286" lon="11.8218629"><ele>87.0</ele><time>2026-04-04T12:08:49.2Z</time></trkpt><trkpt lat="45.74631" lon="11.8222271"><ele>87.0</ele><time>2026-04-04T12:08:50.188Z</time></trkpt><trkpt lat="45.7463282" lon="11.8225941"><ele>88.0</ele><time>2026-04-04T12:08:51.205Z</time></trkpt><trkpt lat="45.7463483" lon="11.822954"><ele>89.0</ele><time>2026-04-04T12:08:52.197Z</time></trkpt><trkpt lat="45.7463733" lon="11.8233149"><ele>89.0</ele><time>2026-04-04T12:08:53.197Z</time></trkpt><trkpt lat="45.7463989" lon="11.8236731"><ele>89.0</ele><time>2026-04-04T12:08:54.182Z</time></trkpt><trkpt lat="45.746421" lon="11.8240336"><ele>87.5</ele><time>2026-04-04T12:08:55.197Z</time></trkpt><trkpt lat="45.7464452" lon="11.8243882"><ele>86.0</ele><time>2026-04-04T12:08:56.203Z</time></trkpt><trkpt lat="45.7464695" lon="11.8247412"><ele>86.0</ele><time>2026-04-04T12:08:57.201Z</time></trkpt><trkpt lat="45.7464924" lon="11.8250976"><ele>86.0</ele><time>2026-04-04T12:08:58.215Z</time></trkpt><trkpt lat="45.7465174" lon="11.8254519"><ele>86.5</ele><time>2026-04-04T12:08:59.2Z</time></trkpt><trkpt lat="45.7465435" lon="11.8258099"><ele>87.0</ele><time>2026-04-04T12:09:00.198Z</time></trkpt><trkpt lat="45.7465701" lon="11.8261679"><ele>86.0</ele><time>2026-04-04T12:09:01.183Z</time></trkpt><trkpt lat="45.7465963" lon="11.8265307"><ele>85.0</ele><time>2026-04-04T12:09:02.2Z</time></trkpt><trkpt lat="45.7466201" lon="11.8268905"><ele>85.0</ele><time>2026-04-04T12:09:03.202Z</time></trkpt><trkpt lat="45.7466431" lon="11.8272517"><ele>85.0</ele><time>2026-04-04T12:09:04.196Z</time></trkpt><trkpt lat="45.7466633" lon="11.8276166"><ele>85.0</ele><time>2026-04-04T12:09:05.206Z</time></trkpt><trkpt lat="45.7466854" lon="11.827978"><ele>85.0</ele><time>2026-04-04T12:09:06.194Z</time></trkpt><trkpt lat="45.7467058" lon="11.8283457"><ele>84.5</ele><time>2026-04-04T12:09:07.192Z</time></trkpt><trkpt lat="45.7467256" lon="11.8287189"><ele>84.0</ele><time>2026-04-04T12:09:08.218Z</time></trkpt><trkpt lat="45.7467437" lon="11.8290853"><ele>84.0</ele><time>2026-04-04T12:09:09.212Z</time></trkpt><trkpt lat="45.7467613" lon="11.8294525"><ele>84.0</ele><time>2026-04-04T12:09:10.201Z</time></trkpt><trkpt lat="45.7467762" lon="11.8298226"><ele>83.5</ele><time>2026-04-04T12:09:11.188Z</time></trkpt><trkpt lat="45.7467908" lon="11.8301986"><ele>83.0</ele><time>2026-04-04T12:09:12.201Z</time></trkpt><trkpt lat="45.7468016" lon="11.8305704"><ele>83.0</ele><time>2026-04-04T12:09:13.194Z</time></trkpt><trkpt lat="45.7468123" lon="11.8309481"><ele>83.0</ele><time>2026-04-04T12:09:14.201Z</time></trkpt><trkpt lat="45.7468211" lon="11.8313262"><ele>83.5</ele><time>2026-04-04T12:09:15.204Z</time></trkpt><trkpt lat="45.7468274" lon="11.8317036"><ele>84.0</ele><time>2026-04-04T12:09:16.196Z</time></trkpt><trkpt lat="45.7468351" lon="11.8320859"><ele>84.5</ele><time>2026-04-04T12:09:17.211Z</time></trkpt><trkpt lat="45.7468408" lon="11.8324644"><ele>85.0</ele><time>2026-04-04T12:09:18.196Z</time></trkpt><trkpt lat="45.746844" lon="11.8328414"><ele>83.5</ele><time>2026-04-04T12:09:19.169Z</time></trkpt><trkpt lat="45.7468467" lon="11.8332263"><ele>82.0</ele><time>2026-04-04T12:09:20.182Z</time></trkpt><trkpt lat="45.7468486" lon="11.8336089"><ele>82.0</ele><time>2026-04-04T12:09:21.187Z</time></trkpt><trkpt lat="45.7468474" lon="11.8339946"><ele>82.0</ele><time>2026-04-04T12:09:22.202Z</time></trkpt><trkpt lat="45.7468452" lon="11.8343771"><ele>82.5</ele><time>2026-04-04T12:09:23.2Z</time></trkpt><trkpt lat="45.7468416" lon="11.8347598"><ele>83.0</ele><time>2026-04-04T12:09:24.19Z</time></trkpt><trkpt lat="45.7468344" lon="11.8351434"><ele>83.0</ele><time>2026-04-04T12:09:25.179Z</time></trkpt><trkpt lat="45.746825" lon="11.8355319"><ele>83.0</ele><time>2026-04-04T12:09:26.198Z</time></trkpt><trkpt lat="45.7468136" lon="11.8359137"><ele>84.0</ele><time>2026-04-04T12:09:27.183Z</time></trkpt><trkpt lat="45.7468004" lon="11.836305"><ele>85.0</ele><time>2026-04-04T12:09:28.196Z</time></trkpt><trkpt lat="45.7467864" lon="11.8366901"><ele>84.0</ele><time>2026-04-04T12:09:29.172Z</time></trkpt><trkpt lat="45.746768" lon="11.8370861"><ele>83.0</ele><time>2026-04-04T12:09:30.201Z</time></trkpt><trkpt lat="45.7467516" lon="11.837474"><ele>83.5</ele><time>2026-04-04T12:09:31.206Z</time></trkpt><trkpt lat="45.7467353" lon="11.8378629"><ele>84.0</ele><time>2026-04-04T12:09:32.206Z</time></trkpt><trkpt lat="45.7467182" lon="11.8382499"><ele>82.5</ele><time>2026-04-04T12:09:33.206Z</time></trkpt><trkpt lat="45.7467" lon="11.8386373"><ele>81.0</ele><time>2026-04-04T12:09:34.21Z</time></trkpt><trkpt lat="45.7466794" lon="11.8390208"><ele>81.0</ele><time>2026-04-04T12:09:35.185Z</time></trkpt><trkpt lat="45.7466571" lon="11.839413"><ele>81.0</ele><time>2026-04-04T12:09:36.201Z</time></trkpt><trkpt lat="45.7466342" lon="11.8398"><ele>80.5</ele><time>2026-04-04T12:09:37.202Z</time></trkpt><trkpt lat="45.7466105" lon="11.8401847"><ele>80.0</ele><time>2026-04-04T12:09:38.204Z</time></trkpt><trkpt lat="45.7465874" lon="11.8405663"><ele>80.0</ele><time>2026-04-04T12:09:39.189Z</time></trkpt><trkpt lat="45.7465645" lon="11.8409478"><ele>80.0</ele><time>2026-04-04T12:09:40.201Z</time></trkpt><trkpt lat="45.7465384" lon="11.8413224"><ele>80.0</ele><time>2026-04-04T12:09:41.199Z</time></trkpt><trkpt lat="45.746513" lon="11.8416944"><ele>80.0</ele><time>2026-04-04T12:09:42.198Z</time></trkpt><trkpt lat="45.7464853" lon="11.8420651"><ele>80.5</ele><time>2026-04-04T12:09:43.199Z</time></trkpt><trkpt lat="45.7464592" lon="11.8424315"><ele>81.0</ele><time>2026-04-04T12:09:44.191Z</time></trkpt><trkpt lat="45.7464307" lon="11.8428054"><ele>81.0</ele><time>2026-04-04T12:09:45.224Z</time></trkpt><trkpt lat="45.7464034" lon="11.8431697"><ele>81.0</ele><time>2026-04-04T12:09:46.205Z</time></trkpt><trkpt lat="45.7463764" lon="11.8435387"><ele>79.5</ele><time>2026-04-04T12:09:47.186Z</time></trkpt><trkpt lat="45.746348" lon="11.8439103"><ele>78.0</ele><time>2026-04-04T12:09:48.19Z</time></trkpt><trkpt lat="45.7463203" lon="11.8442801"><ele>78.5</ele><time>2026-04-04T12:09:49.186Z</time></trkpt><trkpt lat="45.7462922" lon="11.8446516"><ele>79.0</ele><time>2026-04-04T12:09:50.196Z</time></trkpt><trkpt lat="45.7462647" lon="11.8450226"><ele>79.5</ele><time>2026-04-04T12:09:51.199Z</time></trkpt><trkpt lat="45.7462393" lon="11.8453945"><ele>80.0</ele><time>2026-04-04T12:09:52.19Z</time></trkpt><trkpt lat="45.7462186" lon="11.8457709"><ele>79.5</ele><time>2026-04-04T12:09:53.205Z</time></trkpt><trkpt lat="45.7462036" lon="11.8461465"><ele>79.0</ele><time>2026-04-04T12:09:54.203Z</time></trkpt><trkpt lat="45.7461948" lon="11.8465262"><ele>79.0</ele><time>2026-04-04T12:09:55.209Z</time></trkpt><trkpt lat="45.7461914" lon="11.8469057"><ele>79.0</ele><time>2026-04-04T12:09:56.191Z</time></trkpt><trkpt lat="45.7461931" lon="11.8472907"><ele>79.0</ele><time>2026-04-04T12:09:57.197Z</time></trkpt><trkpt lat="45.7461999" lon="11.8476731"><ele>79.0</ele><time>2026-04-04T12:09:58.197Z</time></trkpt><trkpt lat="45.7462111" lon="11.8480541"><ele>79.0</ele><time>2026-04-04T12:09:59.199Z</time></trkpt><trkpt lat="45.7462266" lon="11.8484318"><ele>79.0</ele><time>2026-04-04T12:10:00.197Z</time></trkpt><trkpt lat="45.7462473" lon="11.8488093"><ele>79.0</ele><time>2026-04-04T12:10:01.202Z</time></trkpt><trkpt lat="45.7462733" lon="11.849184"><ele>79.0</ele><time>2026-04-04T12:10:02.189Z</time></trkpt><trkpt lat="45.7463047" lon="11.8495603"><ele>78.5</ele><time>2026-04-04T12:10:03.186Z</time></trkpt><trkpt lat="45.7463406" lon="11.8499355"><ele>78.0</ele><time>2026-04-04T12:10:04.196Z</time></trkpt><trkpt lat="45.7463813" lon="11.8503088"><ele>77.5</ele><time>2026-04-04T12:10:05.206Z</time></trkpt><trkpt lat="45.7464278" lon="11.8506786"><ele>77.0</ele><time>2026-04-04T12:10:06.194Z</time></trkpt><trkpt lat="45.7464804" lon="11.8510506"><ele>77.0</ele><time>2026-04-04T12:10:07.197Z</time></trkpt><trkpt lat="45.7465375" lon="11.8514215"><ele>77.0</ele><time>2026-04-04T12:10:08.2Z</time></trkpt><trkpt lat="45.7465997" lon="11.8517913"><ele>77.0</ele><time>2026-04-04T12:10:09.206Z</time></trkpt><trkpt lat="45.7466676" lon="11.8521593"><ele>77.0</ele><time>2026-04-04T12:10:10.201Z</time></trkpt><trkpt lat="45.7467401" lon="11.8525272"><ele>77.0</ele><time>2026-04-04T12:10:11.195Z</time></trkpt><trkpt lat="45.7468178" lon="11.8528959"><ele>77.0</ele><time>2026-04-04T12:10:12.195Z</time></trkpt><trkpt lat="45.7469015" lon="11.8532642"><ele>76.0</ele><time>2026-04-04T12:10:13.2Z</time></trkpt><trkpt lat="45.7469913" lon="11.8536303"><ele>75.0</ele><time>2026-04-04T12:10:14.201Z</time></trkpt><trkpt lat="45.7470861" lon="11.8539954"><ele>76.0</ele><time>2026-04-04T12:10:15.195Z</time></trkpt><trkpt lat="45.7471856" lon="11.8543584"><ele>77.0</ele><time>2026-04-04T12:10:16.184Z</time></trkpt><trkpt lat="45.7472913" lon="11.8547221"><ele>77.0</ele><time>2026-04-04T12:10:17.205Z</time></trkpt><trkpt lat="45.7474005" lon="11.8550756"><ele>77.0</ele><time>2026-04-04T12:10:18.191Z</time></trkpt><trkpt lat="45.7475154" lon="11.8554269"><ele>76.5</ele><time>2026-04-04T12:10:19.201Z</time></trkpt><trkpt lat="45.7476344" lon="11.855767"><ele>76.0</ele><time>2026-04-04T12:10:20.198Z</time></trkpt><trkpt lat="45.7477546" lon="11.8560958"><ele>76.0</ele><time>2026-04-04T12:10:21.195Z</time></trkpt><trkpt lat="45.7478784" lon="11.8564193"><ele>76.0</ele><time>2026-04-04T12:10:22.204Z</time></trkpt><trkpt lat="45.7480058" lon="11.8567383"><ele>76.0</ele><time>2026-04-04T12:10:23.191Z</time></trkpt><trkpt lat="45.7481368" lon="11.8570564"><ele>76.0</ele><time>2026-04-04T12:10:24.192Z</time></trkpt><trkpt lat="45.7482647" lon="11.8573615"><ele>75.5</ele><time>2026-04-04T12:10:25.216Z</time></trkpt><trkpt lat="45.7483869" lon="11.8576545"><ele>75.0</ele><time>2026-04-04T12:10:26.185Z</time></trkpt><trkpt lat="45.7491593" lon="11.8594815"><ele>75.0</ele><time>2026-04-04T12:10:32.2Z</time></trkpt><trkpt lat="45.7493164" lon="11.8598017"><ele>75.0</ele><time>2026-04-04T12:10:33.199Z</time></trkpt><trkpt lat="45.7494612" lon="11.8601284"><ele>75.5</ele><time>2026-04-04T12:10:34.171Z</time></trkpt><trkpt lat="45.7496013" lon="11.8604729"><ele>76.0</ele><time>2026-04-04T12:10:35.174Z</time></trkpt><trkpt lat="45.7497522" lon="11.8608214"><ele>75.0</ele><time>2026-04-04T12:10:36.185Z</time></trkpt><trkpt lat="45.7498992" lon="11.8611683"><ele>74.0</ele><time>2026-04-04T12:10:37.178Z</time></trkpt><trkpt lat="45.7500441" lon="11.8615098"><ele>73.5</ele><time>2026-04-04T12:10:38.182Z</time></trkpt><trkpt lat="45.7501872" lon="11.8618425"><ele>73.0</ele><time>2026-04-04T12:10:39.188Z</time></trkpt><trkpt lat="45.7503269" lon="11.8621675"><ele>73.0</ele><time>2026-04-04T12:10:40.183Z</time></trkpt><trkpt lat="45.7504665" lon="11.8624924"><ele>73.0</ele><time>2026-04-04T12:10:41.18Z</time></trkpt><trkpt lat="45.7506063" lon="11.8628156"><ele>73.0</ele><time>2026-04-04T12:10:42.171Z</time></trkpt><trkpt lat="45.750746" lon="11.8631435"><ele>73.0</ele><time>2026-04-04T12:10:43.202Z</time></trkpt><trkpt lat="45.7508849" lon="11.863463"><ele>73.0</ele><time>2026-04-04T12:10:44.194Z</time></trkpt><trkpt lat="45.751023" lon="11.8637866"><ele>73.0</ele><time>2026-04-04T12:10:45.198Z</time></trkpt><trkpt lat="45.7511615" lon="11.8641101"><ele>74.5</ele><time>2026-04-04T12:10:46.194Z</time></trkpt><trkpt lat="45.751298" lon="11.8644314"><ele>76.0</ele><time>2026-04-04T12:10:47.177Z</time></trkpt><trkpt lat="45.7514332" lon="11.8647511"><ele>76.0</ele><time>2026-04-04T12:10:48.162Z</time></trkpt><trkpt lat="45.751568" lon="11.8650799"><ele>76.0</ele><time>2026-04-04T12:10:49.196Z</time></trkpt><trkpt lat="45.7516986" lon="11.8654007"><ele>75.0</ele><time>2026-04-04T12:10:50.192Z</time></trkpt><trkpt lat="45.7518272" lon="11.8657238"><ele>74.0</ele><time>2026-04-04T12:10:51.191Z</time></trkpt><trkpt lat="45.7519515" lon="11.8660478"><ele>73.5</ele><time>2026-04-04T12:10:52.181Z</time></trkpt><trkpt lat="45.7520762" lon="11.8663765"><ele>73.0</ele><time>2026-04-04T12:10:53.194Z</time></trkpt><trkpt lat="45.7521972" lon="11.8667046"><ele>73.0</ele><time>2026-04-04T12:10:54.208Z</time></trkpt><trkpt lat="45.7523146" lon="11.8670308"><ele>73.0</ele><time>2026-04-04T12:10:55.198Z</time></trkpt><trkpt lat="45.7524315" lon="11.8673596"><ele>73.0</ele><time>2026-04-04T12:10:56.195Z</time></trkpt><trkpt lat="45.7525449" lon="11.8676892"><ele>73.0</ele><time>2026-04-04T12:10:57.189Z</time></trkpt><trkpt lat="45.7526569" lon="11.8680224"><ele>73.5</ele><time>2026-04-04T12:10:58.208Z</time></trkpt><trkpt lat="45.7527637" lon="11.868356"><ele>74.0</ele><time>2026-04-04T12:10:59.217Z</time></trkpt><trkpt lat="45.7528676" lon="11.8686899"><ele>74.0</ele><time>2026-04-04T12:11:00.195Z</time></trkpt><trkpt lat="45.7529713" lon="11.8690282"><ele>74.0</ele><time>2026-04-04T12:11:01.18Z</time></trkpt><trkpt lat="45.7530735" lon="11.8693747"><ele>73.5</ele><time>2026-04-04T12:11:02.201Z</time></trkpt><trkpt lat="45.7531707" lon="11.8697167"><ele>73.0</ele><time>2026-04-04T12:11:03.185Z</time></trkpt><trkpt lat="45.7532681" lon="11.8700611"><ele>72.5</ele><time>2026-04-04T12:11:04.178Z</time></trkpt><trkpt lat="45.7533607" lon="11.8704083"><ele>72.0</ele><time>2026-04-04T12:11:05.187Z</time></trkpt><trkpt lat="45.7534494" lon="11.8707562"><ele>72.5</ele><time>2026-04-04T12:11:06.193Z</time></trkpt><trkpt lat="45.7535357" lon="11.8711022"><ele>73.0</ele><time>2026-04-04T12:11:07.201Z</time></trkpt><trkpt lat="45.7536176" lon="11.8714471"><ele>73.0</ele><time>2026-04-04T12:11:08.197Z</time></trkpt><trkpt lat="45.7536971" lon="11.8717954"><ele>73.0</ele><time>2026-04-04T12:11:09.213Z</time></trkpt><trkpt lat="45.7537736" lon="11.8721393"><ele>73.0</ele><time>2026-04-04T12:11:10.196Z</time></trkpt><trkpt lat="45.7538482" lon="11.8724899"><ele>73.0</ele><time>2026-04-04T12:11:11.199Z</time></trkpt><trkpt lat="45.75392" lon="11.8728416"><ele>73.0</ele><time>2026-04-04T12:11:12.202Z</time></trkpt><trkpt lat="45.7539892" lon="11.8731942"><ele>73.0</ele><time>2026-04-04T12:11:13.202Z</time></trkpt><trkpt lat="45.7540539" lon="11.8735476"><ele>72.0</ele><time>2026-04-04T12:11:14.185Z</time></trkpt><trkpt lat="45.7541164" lon="11.8739035"><ele>71.0</ele><time>2026-04-04T12:11:15.188Z</time></trkpt><trkpt lat="45.7541776" lon="11.8742576"><ele>72.0</ele><time>2026-04-04T12:11:16.202Z</time></trkpt><trkpt lat="45.7542348" lon="11.8746071"><ele>73.0</ele><time>2026-04-04T12:11:17.189Z</time></trkpt><trkpt lat="45.7542906" lon="11.8749618"><ele>74.0</ele><time>2026-04-04T12:11:18.2Z</time></trkpt><trkpt lat="45.7543417" lon="11.8753151"><ele>75.0</ele><time>2026-04-04T12:11:19.196Z</time></trkpt><trkpt lat="45.7543894" lon="11.8756704"><ele>74.5</ele><time>2026-04-04T12:11:20.191Z</time></trkpt><trkpt lat="45.7544349" lon="11.8760281"><ele>74.0</ele><time>2026-04-04T12:11:21.188Z</time></trkpt><trkpt lat="45.7544804" lon="11.8763889"><ele>74.0</ele><time>2026-04-04T12:11:22.199Z</time></trkpt><trkpt lat="45.7545237" lon="11.8767498"><ele>74.0</ele><time>2026-04-04T12:11:23.196Z</time></trkpt><trkpt lat="45.7545628" lon="11.8771146"><ele>74.0</ele><time>2026-04-04T12:11:24.199Z</time></trkpt><trkpt lat="45.7545977" lon="11.8774812"><ele>74.0</ele><time>2026-04-04T12:11:25.199Z</time></trkpt><trkpt lat="45.754629" lon="11.8778493"><ele>74.0</ele><time>2026-04-04T12:11:26.194Z</time></trkpt><trkpt lat="45.7546573" lon="11.8782219"><ele>74.0</ele><time>2026-04-04T12:11:27.206Z</time></trkpt><trkpt lat="45.7546839" lon="11.8785916"><ele>74.0</ele><time>2026-04-04T12:11:28.207Z</time></trkpt><trkpt lat="45.7547076" lon="11.8789616"><ele>74.0</ele><time>2026-04-04T12:11:29.192Z</time></trkpt><trkpt lat="45.7547291" lon="11.8793365"><ele>74.0</ele><time>2026-04-04T12:11:30.188Z</time></trkpt><trkpt lat="45.7547457" lon="11.8797104"><ele>74.0</ele><time>2026-04-04T12:11:31.167Z</time></trkpt><trkpt lat="45.7547598" lon="11.8800949"><ele>74.0</ele><time>2026-04-04T12:11:32.218Z</time></trkpt><trkpt lat="45.7547711" lon="11.8804656"><ele>74.0</ele><time>2026-04-04T12:11:33.19Z</time></trkpt><trkpt lat="45.7547785" lon="11.8808477"><ele>74.0</ele><time>2026-04-04T12:11:34.205Z</time></trkpt><trkpt lat="45.7547818" lon="11.8812286"><ele>74.0</ele><time>2026-04-04T12:11:35.21Z</time></trkpt><trkpt lat="45.7547819" lon="11.8816095"><ele>73.5</ele><time>2026-04-04T12:11:36.197Z</time></trkpt><trkpt lat="45.7547803" lon="11.8819951"><ele>73.0</ele><time>2026-04-04T12:11:37.197Z</time></trkpt><trkpt lat="45.7547757" lon="11.8823806"><ele>72.0</ele><time>2026-04-04T12:11:38.196Z</time></trkpt><trkpt lat="45.7547691" lon="11.8827664"><ele>71.0</ele><time>2026-04-04T12:11:39.194Z</time></trkpt><trkpt lat="45.7547587" lon="11.883157"><ele>71.0</ele><time>2026-04-04T12:11:40.221Z</time></trkpt><trkpt lat="45.7547445" lon="11.8835411"><ele>71.0</ele><time>2026-04-04T12:11:41.198Z</time></trkpt><trkpt lat="45.7547271" lon="11.8839343"><ele>71.0</ele><time>2026-04-04T12:11:42.207Z</time></trkpt><trkpt lat="45.7547047" lon="11.8843259"><ele>71.0</ele><time>2026-04-04T12:11:43.195Z</time></trkpt><trkpt lat="45.754678" lon="11.8847206"><ele>72.5</ele><time>2026-04-04T12:11:44.187Z</time></trkpt><trkpt lat="45.7546478" lon="11.8851219"><ele>74.0</ele><time>2026-04-04T12:11:45.226Z</time></trkpt><trkpt lat="45.7546172" lon="11.8855127"><ele>74.0</ele><time>2026-04-04T12:11:46.205Z</time></trkpt><trkpt lat="45.7545825" lon="11.8859097"><ele>74.0</ele><time>2026-04-04T12:11:47.198Z</time></trkpt><trkpt lat="45.7545442" lon="11.8863063"><ele>74.5</ele><time>2026-04-04T12:11:48.197Z</time></trkpt><trkpt lat="45.7545038" lon="11.8867027"><ele>75.0</ele><time>2026-04-04T12:11:49.195Z</time></trkpt><trkpt lat="45.7544588" lon="11.8871"><ele>75.0</ele><time>2026-04-04T12:11:50.208Z</time></trkpt><trkpt lat="45.7544105" lon="11.8874894"><ele>75.0</ele><time>2026-04-04T12:11:51.196Z</time></trkpt><trkpt lat="45.7543581" lon="11.8878758"><ele>74.0</ele><time>2026-04-04T12:11:52.189Z</time></trkpt><trkpt lat="45.7543029" lon="11.8882598"><ele>73.0</ele><time>2026-04-04T12:11:53.205Z</time></trkpt><trkpt lat="45.7542455" lon="11.8886352"><ele>73.0</ele><time>2026-04-04T12:11:54.195Z</time></trkpt><trkpt lat="45.7541846" lon="11.8890092"><ele>73.0</ele><time>2026-04-04T12:11:55.188Z</time></trkpt><trkpt lat="45.7541212" lon="11.8893802"><ele>73.0</ele><time>2026-04-04T12:11:56.186Z</time></trkpt><trkpt lat="45.7540559" lon="11.8897493"><ele>73.0</ele><time>2026-04-04T12:11:57.199Z</time></trkpt><trkpt lat="45.7539882" lon="11.8901131"><ele>73.0</ele><time>2026-04-04T12:11:58.202Z</time></trkpt><trkpt lat="45.7539184" lon="11.8904736"><ele>73.0</ele><time>2026-04-04T12:11:59.199Z</time></trkpt><trkpt lat="45.7538452" lon="11.8908319"><ele>73.5</ele><time>2026-04-04T12:12:00.203Z</time></trkpt><trkpt lat="45.7537685" lon="11.8911872"><ele>74.0</ele><time>2026-04-04T12:12:01.208Z</time></trkpt><trkpt lat="45.7536893" lon="11.8915378"><ele>74.0</ele><time>2026-04-04T12:12:02.185Z</time></trkpt><trkpt lat="45.7536071" lon="11.8918937"><ele>74.0</ele><time>2026-04-04T12:12:03.197Z</time></trkpt><trkpt lat="45.7535239" lon="11.892245"><ele>73.5</ele><time>2026-04-04T12:12:04.193Z</time></trkpt><trkpt lat="45.7534396" lon="11.8925964"><ele>73.0</ele><time>2026-04-04T12:12:05.191Z</time></trkpt><trkpt lat="45.7533533" lon="11.8929485"><ele>73.0</ele><time>2026-04-04T12:12:06.199Z</time></trkpt><trkpt lat="45.7532653" lon="11.8932987"><ele>73.0</ele><time>2026-04-04T12:12:07.2Z</time></trkpt><trkpt lat="45.7531768" lon="11.893649"><ele>72.5</ele><time>2026-04-04T12:12:08.202Z</time></trkpt><trkpt lat="45.7530876" lon="11.8939965"><ele>72.0</ele><time>2026-04-04T12:12:09.193Z</time></trkpt><trkpt lat="45.7529972" lon="11.8943422"><ele>72.0</ele><time>2026-04-04T12:12:10.191Z</time></trkpt><trkpt lat="45.7529079" lon="11.8946886"><ele>72.0</ele><time>2026-04-04T12:12:11.195Z</time></trkpt><trkpt lat="45.7528203" lon="11.8950342"><ele>72.0</ele><time>2026-04-04T12:12:12.185Z</time></trkpt><trkpt lat="45.7527329" lon="11.8953841"><ele>72.0</ele><time>2026-04-04T12:12:13.199Z</time></trkpt><trkpt lat="45.7526469" lon="11.8957278"><ele>71.5</ele><time>2026-04-04T12:12:14.174Z</time></trkpt><trkpt lat="45.7525582" lon="11.8960783"><ele>71.0</ele><time>2026-04-04T12:12:15.199Z</time></trkpt><trkpt lat="45.7524696" lon="11.8964248"><ele>71.0</ele><time>2026-04-04T12:12:16.206Z</time></trkpt><trkpt lat="45.7523798" lon="11.8967704"><ele>71.0</ele><time>2026-04-04T12:12:17.193Z</time></trkpt><trkpt lat="45.7522894" lon="11.8971207"><ele>71.0</ele><time>2026-04-04T12:12:18.2Z</time></trkpt><trkpt lat="45.7522001" lon="11.8974691"><ele>71.0</ele><time>2026-04-04T12:12:19.194Z</time></trkpt><trkpt lat="45.7521099" lon="11.8978213"><ele>71.0</ele><time>2026-04-04T12:12:20.204Z</time></trkpt><trkpt lat="45.75202" lon="11.8981725"><ele>71.0</ele><time>2026-04-04T12:12:21.194Z</time></trkpt><trkpt lat="45.7519305" lon="11.8985269"><ele>71.5</ele><time>2026-04-04T12:12:22.195Z</time></trkpt><trkpt lat="45.7518422" lon="11.8988836"><ele>72.0</ele><time>2026-04-04T12:12:23.205Z</time></trkpt><trkpt lat="45.7517547" lon="11.8992353"><ele>71.5</ele><time>2026-04-04T12:12:24.172Z</time></trkpt><trkpt lat="45.7516645" lon="11.8995965"><ele>71.0</ele><time>2026-04-04T12:12:25.192Z</time></trkpt><trkpt lat="45.7515745" lon="11.8999517"><ele>71.0</ele><time>2026-04-04T12:12:26.164Z</time></trkpt><trkpt lat="45.7514815" lon="11.9003178"><ele>71.0</ele><time>2026-04-04T12:12:27.192Z</time></trkpt><trkpt lat="45.7513882" lon="11.9006783"><ele>71.5</ele><time>2026-04-04T12:12:28.189Z</time></trkpt><trkpt lat="45.7512942" lon="11.9010419"><ele>72.0</ele><time>2026-04-04T12:12:29.199Z</time></trkpt><trkpt lat="45.7512018" lon="11.9014024"><ele>71.5</ele><time>2026-04-04T12:12:30.196Z</time></trkpt><trkpt lat="45.7511102" lon="11.9017639"><ele>71.0</ele><time>2026-04-04T12:12:31.207Z</time></trkpt><trkpt lat="45.7510216" lon="11.9021198"><ele>71.0</ele><time>2026-04-04T12:12:32.187Z</time></trkpt><trkpt lat="45.7509314" lon="11.9024777"><ele>71.0</ele><time>2026-04-04T12:12:33.192Z</time></trkpt><trkpt lat="45.7508414" lon="11.9028323"><ele>71.0</ele><time>2026-04-04T12:12:34.189Z</time></trkpt><trkpt lat="45.7507511" lon="11.9031879"><ele>71.0</ele><time>2026-04-04T12:12:35.197Z</time></trkpt><trkpt lat="45.750661" lon="11.9035408"><ele>71.5</ele><time>2026-04-04T12:12:36.19Z</time></trkpt><trkpt lat="45.7505692" lon="11.9038936"><ele>72.0</ele><time>2026-04-04T12:12:37.184Z</time></trkpt><trkpt lat="45.7504771" lon="11.9042492"><ele>72.0</ele><time>2026-04-04T12:12:38.196Z</time></trkpt><trkpt lat="45.7503853" lon="11.9046043"><ele>72.0</ele><time>2026-04-04T12:12:39.201Z</time></trkpt><trkpt lat="45.7502944" lon="11.9049589"><ele>71.0</ele><time>2026-04-04T12:12:40.185Z</time></trkpt><trkpt lat="45.7502035" lon="11.9053196"><ele>70.0</ele><time>2026-04-04T12:12:41.182Z</time></trkpt><trkpt lat="45.7501108" lon="11.9056862"><ele>70.5</ele><time>2026-04-04T12:12:42.197Z</time></trkpt><trkpt lat="45.7500153" lon="11.9060484"><ele>71.0</ele><time>2026-04-04T12:12:43.192Z</time></trkpt><trkpt lat="45.7499192" lon="11.9064131"><ele>71.5</ele><time>2026-04-04T12:12:44.202Z</time></trkpt><trkpt lat="45.7498253" lon="11.9067764"><ele>72.0</ele><time>2026-04-04T12:12:45.194Z</time></trkpt><trkpt lat="45.749732" lon="11.9071442"><ele>72.0</ele><time>2026-04-04T12:12:46.197Z</time></trkpt><trkpt lat="45.7496408" lon="11.9075137"><ele>72.0</ele><time>2026-04-04T12:12:47.203Z</time></trkpt><trkpt lat="45.7495498" lon="11.9078776"><ele>72.0</ele><time>2026-04-04T12:12:48.19Z</time></trkpt><trkpt lat="45.7494601" lon="11.9082329"><ele>72.0</ele><time>2026-04-04T12:12:49.191Z</time></trkpt><trkpt lat="45.7493726" lon="11.9085775"><ele>72.5</ele><time>2026-04-04T12:12:50.171Z</time></trkpt><trkpt lat="45.7492825" lon="11.9089296"><ele>73.0</ele><time>2026-04-04T12:12:51.187Z</time></trkpt><trkpt lat="45.7491917" lon="11.9092762"><ele>72.0</ele><time>2026-04-04T12:12:52.188Z</time></trkpt><trkpt lat="45.7471385" lon="11.9148943"><ele>71.5</ele><time>2026-04-04T12:13:09.146Z</time></trkpt><trkpt lat="45.7469618" lon="11.9151521"><ele>71.0</ele><time>2026-04-04T12:13:10.208Z</time></trkpt><trkpt lat="45.7468372" lon="11.915458"><ele>70.5</ele><time>2026-04-04T12:13:11.181Z</time></trkpt><trkpt lat="45.7467114" lon="11.915781"><ele>70.0</ele><time>2026-04-04T12:13:12.208Z</time></trkpt><trkpt lat="45.746588" lon="11.9160886"><ele>70.0</ele><time>2026-04-04T12:13:13.176Z</time></trkpt><trkpt lat="45.7464587" lon="11.9164091"><ele>70.0</ele><time>2026-04-04T12:13:14.196Z</time></trkpt><trkpt lat="45.7463317" lon="11.9167261"><ele>71.0</ele><time>2026-04-04T12:13:15.176Z</time></trkpt><trkpt lat="45.7462022" lon="11.9170474"><ele>72.0</ele><time>2026-04-04T12:13:16.185Z</time></trkpt><trkpt lat="45.7460706" lon="11.9173653"><ele>72.0</ele><time>2026-04-04T12:13:17.188Z</time></trkpt><trkpt lat="45.7459366" lon="11.9176806"><ele>72.0</ele><time>2026-04-04T12:13:18.19Z</time></trkpt><trkpt lat="45.745804" lon="11.917997"><ele>72.0</ele><time>2026-04-04T12:13:19.186Z</time></trkpt><trkpt lat="45.7456742" lon="11.9183178"><ele>72.0</ele><time>2026-04-04T12:13:20.193Z</time></trkpt><trkpt lat="45.7455497" lon="11.9186409"><ele>73.0</ele><time>2026-04-04T12:13:21.186Z</time></trkpt><trkpt lat="45.7454276" lon="11.918972"><ele>74.0</ele><time>2026-04-04T12:13:22.198Z</time></trkpt><trkpt lat="45.7453111" lon="11.9193079"><ele>73.5</ele><time>2026-04-04T12:13:23.199Z</time></trkpt><trkpt lat="45.7452041" lon="11.9196521"><ele>73.0</ele><time>2026-04-04T12:13:24.201Z</time></trkpt><trkpt lat="45.7451052" lon="11.9200015"><ele>72.0</ele><time>2026-04-04T12:13:25.192Z</time></trkpt><trkpt lat="45.7450135" lon="11.9203602"><ele>71.0</ele><time>2026-04-04T12:13:26.191Z</time></trkpt><trkpt lat="45.7449277" lon="11.9207232"><ele>72.0</ele><time>2026-04-04T12:13:27.194Z</time></trkpt><trkpt lat="45.7448468" lon="11.9210854"><ele>73.0</ele><time>2026-04-04T12:13:28.192Z</time></trkpt><trkpt lat="45.7447726" lon="11.9214503"><ele>73.0</ele><time>2026-04-04T12:13:29.185Z</time></trkpt><trkpt lat="45.7447075" lon="11.9218169"><ele>73.0</ele><time>2026-04-04T12:13:30.17Z</time></trkpt><trkpt lat="45.7446477" lon="11.9221989"><ele>73.0</ele><time>2026-04-04T12:13:31.208Z</time></trkpt><trkpt lat="45.744597" lon="11.922564"><ele>73.0</ele><time>2026-04-04T12:13:32.168Z</time></trkpt><trkpt lat="45.744551" lon="11.9229451"><ele>73.0</ele><time>2026-04-04T12:13:33.193Z</time></trkpt><trkpt lat="45.7445047" lon="11.9233164"><ele>73.0</ele><time>2026-04-04T12:13:34.192Z</time></trkpt><trkpt lat="45.7444581" lon="11.9236897"><ele>73.0</ele><time>2026-04-04T12:13:35.209Z</time></trkpt><trkpt lat="45.7444082" lon="11.9240537"><ele>73.0</ele><time>2026-04-04T12:13:36.186Z</time></trkpt><trkpt lat="45.7443556" lon="11.924425"><ele>73.0</ele><time>2026-04-04T12:13:37.183Z</time></trkpt><trkpt lat="45.7443029" lon="11.9247978"><ele>73.0</ele><time>2026-04-04T12:13:38.193Z</time></trkpt><trkpt lat="45.7442525" lon="11.9251696"><ele>73.0</ele><time>2026-04-04T12:13:39.206Z</time></trkpt><trkpt lat="45.7442059" lon="11.9255374"><ele>73.0</ele><time>2026-04-04T12:13:40.186Z</time></trkpt><trkpt lat="45.7441589" lon="11.9259121"><ele>73.0</ele><time>2026-04-04T12:13:41.196Z</time></trkpt><trkpt lat="45.7441144" lon="11.9262852"><ele>73.0</ele><time>2026-04-04T12:13:42.203Z</time></trkpt><trkpt lat="45.7440663" lon="11.9266552"><ele>73.5</ele><time>2026-04-04T12:13:43.188Z</time></trkpt><trkpt lat="45.7440149" lon="11.9270307"><ele>74.0</ele><time>2026-04-04T12:13:44.187Z</time></trkpt><trkpt lat="45.7439617" lon="11.9274051"><ele>75.0</ele><time>2026-04-04T12:13:45.183Z</time></trkpt><trkpt lat="45.7439091" lon="11.927777"><ele>76.0</ele><time>2026-04-04T12:13:46.186Z</time></trkpt><trkpt lat="45.7438558" lon="11.9281475"><ele>75.5</ele><time>2026-04-04T12:13:47.192Z</time></trkpt><trkpt lat="45.7438056" lon="11.9285145"><ele>75.0</ele><time>2026-04-04T12:13:48.195Z</time></trkpt><trkpt lat="45.7437545" lon="11.9288825"><ele>74.5</ele><time>2026-04-04T12:13:49.193Z</time></trkpt><trkpt lat="45.7437019" lon="11.9292459"><ele>74.0</ele><time>2026-04-04T12:13:50.166Z</time></trkpt><trkpt lat="45.7436483" lon="11.9296198"><ele>74.0</ele><time>2026-04-04T12:13:51.181Z</time></trkpt><trkpt lat="45.7435933" lon="11.9299875"><ele>74.0</ele><time>2026-04-04T12:13:52.171Z</time></trkpt><trkpt lat="45.7435342" lon="11.9303601"><ele>74.0</ele><time>2026-04-04T12:13:53.181Z</time></trkpt><trkpt lat="45.7434715" lon="11.9307326"><ele>74.0</ele><time>2026-04-04T12:13:54.189Z</time></trkpt><trkpt lat="45.7434037" lon="11.9310997"><ele>74.5</ele><time>2026-04-04T12:13:55.198Z</time></trkpt><trkpt lat="45.7433321" lon="11.9314597"><ele>75.0</ele><time>2026-04-04T12:13:56.195Z</time></trkpt><trkpt lat="45.7432563" lon="11.9318161"><ele>74.0</ele><time>2026-04-04T12:13:57.191Z</time></trkpt><trkpt lat="45.7431758" lon="11.9321705"><ele>73.0</ele><time>2026-04-04T12:13:58.189Z</time></trkpt><trkpt lat="45.7430911" lon="11.9325213"><ele>74.0</ele><time>2026-04-04T12:13:59.193Z</time></trkpt><trkpt lat="45.7430044" lon="11.9328685"><ele>75.0</ele><time>2026-04-04T12:14:00.192Z</time></trkpt><trkpt lat="45.7429112" lon="11.9332136"><ele>75.0</ele><time>2026-04-04T12:14:01.194Z</time></trkpt><trkpt lat="45.7428138" lon="11.9335543"><ele>75.0</ele><time>2026-04-04T12:14:02.192Z</time></trkpt><trkpt lat="45.7427224" lon="11.9338967"><ele>74.0</ele><time>2026-04-04T12:14:03.187Z</time></trkpt><trkpt lat="45.7424656" lon="11.9349488"><ele>74.5</ele><time>2026-04-04T12:14:06.188Z</time></trkpt><trkpt lat="45.7423701" lon="11.9353026"><ele>75.0</ele><time>2026-04-04T12:14:07.173Z</time></trkpt><trkpt lat="45.742271" lon="11.9356611"><ele>74.5</ele><time>2026-04-04T12:14:08.192Z</time></trkpt><trkpt lat="45.7421757" lon="11.9360126"><ele>74.0</ele><time>2026-04-04T12:14:09.194Z</time></trkpt><trkpt lat="45.7420769" lon="11.9363548"><ele>74.0</ele><time>2026-04-04T12:14:10.168Z</time></trkpt><trkpt lat="45.741974" lon="11.9367012"><ele>74.0</ele><time>2026-04-04T12:14:11.183Z</time></trkpt><trkpt lat="45.7418712" lon="11.9370512"><ele>73.5</ele><time>2026-04-04T12:14:12.185Z</time></trkpt><trkpt lat="45.7417708" lon="11.9374043"><ele>73.0</ele><time>2026-04-04T12:14:13.169Z</time></trkpt><trkpt lat="45.7416699" lon="11.9377633"><ele>73.0</ele><time>2026-04-04T12:14:14.171Z</time></trkpt><trkpt lat="45.7415683" lon="11.9381243"><ele>73.0</ele><time>2026-04-04T12:14:15.189Z</time></trkpt><trkpt lat="45.7414671" lon="11.9384822"><ele>74.0</ele><time>2026-04-04T12:14:16.18Z</time></trkpt><trkpt lat="45.7413656" lon="11.9388408"><ele>75.0</ele><time>2026-04-04T12:14:17.185Z</time></trkpt><trkpt lat="45.7412631" lon="11.9391998"><ele>75.5</ele><time>2026-04-04T12:14:18.188Z</time></trkpt><trkpt lat="45.7411615" lon="11.9395537"><ele>76.0</ele><time>2026-04-04T12:14:19.193Z</time></trkpt><trkpt lat="45.7410613" lon="11.9399046"><ele>76.5</ele><time>2026-04-04T12:14:20.197Z</time></trkpt><trkpt lat="45.7409624" lon="11.9402519"><ele>77.0</ele><time>2026-04-04T12:14:21.188Z</time></trkpt><trkpt lat="45.7408669" lon="11.9405984"><ele>76.0</ele><time>2026-04-04T12:14:22.196Z</time></trkpt><trkpt lat="45.7407745" lon="11.9409406"><ele>75.0</ele><time>2026-04-04T12:14:23.19Z</time></trkpt><trkpt lat="45.7406812" lon="11.9412833"><ele>75.0</ele><time>2026-04-04T12:14:24.193Z</time></trkpt><trkpt lat="45.7405859" lon="11.9416246"><ele>75.0</ele><time>2026-04-04T12:14:25.195Z</time></trkpt><trkpt lat="45.7404901" lon="11.9419653"><ele>75.5</ele><time>2026-04-04T12:14:26.199Z</time></trkpt><trkpt lat="45.7403938" lon="11.9423063"><ele>76.0</ele><time>2026-04-04T12:14:27.208Z</time></trkpt><trkpt lat="45.740297" lon="11.9426459"><ele>76.5</ele><time>2026-04-04T12:14:28.199Z</time></trkpt><trkpt lat="45.7401982" lon="11.9429874"><ele>77.0</ele><time>2026-04-04T12:14:29.198Z</time></trkpt><trkpt lat="45.7400999" lon="11.9433303"><ele>76.0</ele><time>2026-04-04T12:14:30.19Z</time></trkpt><trkpt lat="45.7400023" lon="11.943675"><ele>75.0</ele><time>2026-04-04T12:14:31.191Z</time></trkpt><trkpt lat="45.7399062" lon="11.9440213"><ele>75.5</ele><time>2026-04-04T12:14:32.191Z</time></trkpt><trkpt lat="45.739809" lon="11.9443692"><ele>76.0</ele><time>2026-04-04T12:14:33.203Z</time></trkpt><trkpt lat="45.739712" lon="11.9447164"><ele>75.5</ele><time>2026-04-04T12:14:34.195Z</time></trkpt><trkpt lat="45.739612" lon="11.9450628"><ele>75.0</ele><time>2026-04-04T12:14:35.183Z</time></trkpt><trkpt lat="45.7395039" lon="11.9454084"><ele>75.0</ele><time>2026-04-04T12:14:36.19Z</time></trkpt><trkpt lat="45.7393889" lon="11.9457484"><ele>75.0</ele><time>2026-04-04T12:14:37.208Z</time></trkpt><trkpt lat="45.7392689" lon="11.9460806"><ele>74.5</ele><time>2026-04-04T12:14:38.197Z</time></trkpt><trkpt lat="45.7391415" lon="11.9464121"><ele>74.0</ele><time>2026-04-04T12:14:39.185Z</time></trkpt><trkpt lat="45.7390084" lon="11.9467433"><ele>74.0</ele><time>2026-04-04T12:14:40.178Z</time></trkpt><trkpt lat="45.7388695" lon="11.9470713"><ele>74.0</ele><time>2026-04-04T12:14:41.173Z</time></trkpt><trkpt lat="45.738732" lon="11.9473977"><ele>74.0</ele><time>2026-04-04T12:14:42.185Z</time></trkpt><trkpt lat="45.738587" lon="11.9477095"><ele>74.0</ele><time>2026-04-04T12:14:43.184Z</time></trkpt><trkpt lat="45.7384348" lon="11.9480251"><ele>74.5</ele><time>2026-04-04T12:14:44.205Z</time></trkpt><trkpt lat="45.7382813" lon="11.9483295"><ele>75.0</ele><time>2026-04-04T12:14:45.191Z</time></trkpt><trkpt lat="45.7381097" lon="11.9486354"><ele>75.5</ele><time>2026-04-04T12:14:46.211Z</time></trkpt><trkpt lat="45.7379405" lon="11.948931"><ele>76.0</ele><time>2026-04-04T12:14:47.179Z</time></trkpt><trkpt lat="45.7377602" lon="11.9492288"><ele>74.5</ele><time>2026-04-04T12:14:48.203Z</time></trkpt><trkpt lat="45.7375823" lon="11.9495199"><ele>73.0</ele><time>2026-04-04T12:14:49.192Z</time></trkpt><trkpt lat="45.7373989" lon="11.9498124"><ele>73.5</ele><time>2026-04-04T12:14:50.203Z</time></trkpt><trkpt lat="45.7372188" lon="11.9500956"><ele>74.0</ele><time>2026-04-04T12:14:51.19Z</time></trkpt><trkpt lat="45.737042" lon="11.9503766"><ele>74.0</ele><time>2026-04-04T12:14:52.194Z</time></trkpt><trkpt lat="45.7368711" lon="11.9506513"><ele>74.0</ele><time>2026-04-04T12:14:53.192Z</time></trkpt><trkpt lat="45.7366962" lon="11.9509225"><ele>74.5</ele><time>2026-04-04T12:14:54.207Z</time></trkpt><trkpt lat="45.7365216" lon="11.9511914"><ele>75.0</ele><time>2026-04-04T12:14:55.188Z</time></trkpt><trkpt lat="45.7360184" lon="11.9520476"><ele>75.0</ele><time>2026-04-04T12:14:58.174Z</time></trkpt><trkpt lat="45.7358476" lon="11.9523136"><ele>75.0</ele><time>2026-04-04T12:14:59.176Z</time></trkpt><trkpt lat="45.7356668" lon="11.9525851"><ele>75.0</ele><time>2026-04-04T12:15:00.213Z</time></trkpt><trkpt lat="45.7354924" lon="11.9528402"><ele>75.0</ele><time>2026-04-04T12:15:01.198Z</time></trkpt><trkpt lat="45.7353151" lon="11.9531079"><ele>74.0</ele><time>2026-04-04T12:15:02.194Z</time></trkpt><trkpt lat="45.7351394" lon="11.9533799"><ele>73.0</ele><time>2026-04-04T12:15:03.196Z</time></trkpt><trkpt lat="45.7349606" lon="11.9536537"><ele>73.0</ele><time>2026-04-04T12:15:04.195Z</time></trkpt><trkpt lat="45.7347817" lon="11.9539263"><ele>73.0</ele><time>2026-04-04T12:15:05.201Z</time></trkpt><trkpt lat="45.7346025" lon="11.9541943"><ele>73.0</ele><time>2026-04-04T12:15:06.197Z</time></trkpt><trkpt lat="45.7344215" lon="11.9544626"><ele>73.0</ele><time>2026-04-04T12:15:07.191Z</time></trkpt><trkpt lat="45.7342437" lon="11.9547358"><ele>73.0</ele><time>2026-04-04T12:15:08.198Z</time></trkpt><trkpt lat="45.7340706" lon="11.9550168"><ele>73.0</ele><time>2026-04-04T12:15:09.209Z</time></trkpt><trkpt lat="45.7339062" lon="11.9553062"><ele>73.0</ele><time>2026-04-04T12:15:10.208Z</time></trkpt><trkpt lat="45.7337477" lon="11.9556032"><ele>73.0</ele><time>2026-04-04T12:15:11.205Z</time></trkpt><trkpt lat="45.7335954" lon="11.9559103"><ele>73.0</ele><time>2026-04-04T12:15:12.205Z</time></trkpt><trkpt lat="45.7334501" lon="11.9562199"><ele>73.0</ele><time>2026-04-04T12:15:13.17Z</time></trkpt><trkpt lat="45.7333061" lon="11.9565399"><ele>72.5</ele><time>2026-04-04T12:15:14.174Z</time></trkpt><trkpt lat="45.7331656" lon="11.9568617"><ele>72.0</ele><time>2026-04-04T12:15:15.175Z</time></trkpt><trkpt lat="45.7323661" lon="11.9588534"><ele>72.5</ele><time>2026-04-04T12:15:21.144Z</time></trkpt><trkpt lat="45.7322715" lon="11.9592225"><ele>73.0</ele><time>2026-04-04T12:15:22.175Z</time></trkpt><trkpt lat="45.732189" lon="11.959589"><ele>73.0</ele><time>2026-04-04T12:15:23.169Z</time></trkpt><trkpt lat="45.7321126" lon="11.9599558"><ele>73.0</ele><time>2026-04-04T12:15:24.169Z</time></trkpt><trkpt lat="45.7320537" lon="11.960325"><ele>72.5</ele><time>2026-04-04T12:15:25.171Z</time></trkpt><trkpt lat="45.7320022" lon="11.9606916"><ele>72.0</ele><time>2026-04-04T12:15:26.17Z</time></trkpt><trkpt lat="45.7319378" lon="11.9610574"><ele>71.5</ele><time>2026-04-04T12:15:27.175Z</time></trkpt><trkpt lat="45.7318719" lon="11.9614235"><ele>71.0</ele><time>2026-04-04T12:15:28.171Z</time></trkpt><trkpt lat="45.7318011" lon="11.9617954"><ele>71.0</ele><time>2026-04-04T12:15:29.202Z</time></trkpt><trkpt lat="45.7317308" lon="11.9621551"><ele>71.0</ele><time>2026-04-04T12:15:30.181Z</time></trkpt><trkpt lat="45.7316562" lon="11.9625219"><ele>71.5</ele><time>2026-04-04T12:15:31.205Z</time></trkpt><trkpt lat="45.7315811" lon="11.962879"><ele>72.0</ele><time>2026-04-04T12:15:32.17Z</time></trkpt><trkpt lat="45.7315027" lon="11.9632403"><ele>71.5</ele><time>2026-04-04T12:15:33.177Z</time></trkpt><trkpt lat="45.7314284" lon="11.9636004"><ele>71.0</ele><time>2026-04-04T12:15:34.177Z</time></trkpt><trkpt lat="45.7313561" lon="11.9639649"><ele>70.5</ele><time>2026-04-04T12:15:35.18Z</time></trkpt><trkpt lat="45.7312819" lon="11.9643307"><ele>70.0</ele><time>2026-04-04T12:15:36.178Z</time></trkpt><trkpt lat="45.731209" lon="11.9646988"><ele>69.5</ele><time>2026-04-04T12:15:37.173Z</time></trkpt><trkpt lat="45.7311346" lon="11.96507"><ele>69.0</ele><time>2026-04-04T12:15:38.177Z</time></trkpt><trkpt lat="45.731059" lon="11.9654366"><ele>69.5</ele><time>2026-04-04T12:15:39.182Z</time></trkpt><trkpt lat="45.7309831" lon="11.9658013"><ele>70.0</ele><time>2026-04-04T12:15:40.173Z</time></trkpt><trkpt lat="45.7309087" lon="11.9661675"><ele>70.5</ele><time>2026-04-04T12:15:41.167Z</time></trkpt><trkpt lat="45.7308353" lon="11.9665327"><ele>71.0</ele><time>2026-04-04T12:15:42.168Z</time></trkpt><trkpt lat="45.7307605" lon="11.9668973"><ele>71.0</ele><time>2026-04-04T12:15:43.167Z</time></trkpt><trkpt lat="45.7306837" lon="11.967264"><ele>71.0</ele><time>2026-04-04T12:15:44.202Z</time></trkpt><trkpt lat="45.7306082" lon="11.9676177"><ele>71.0</ele><time>2026-04-04T12:15:45.155Z</time></trkpt><trkpt lat="45.7305287" lon="11.9679837"><ele>71.0</ele><time>2026-04-04T12:15:46.165Z</time></trkpt><trkpt lat="45.7304519" lon="11.9683476"><ele>71.0</ele><time>2026-04-04T12:15:47.158Z</time></trkpt><trkpt lat="45.7303843" lon="11.9687068"><ele>71.0</ele><time>2026-04-04T12:15:48.168Z</time></trkpt><trkpt lat="45.7303226" lon="11.9690666"><ele>71.5</ele><time>2026-04-04T12:15:49.179Z</time></trkpt><trkpt lat="45.7302693" lon="11.9694251"><ele>72.0</ele><time>2026-04-04T12:15:50.177Z</time></trkpt><trkpt lat="45.7302226" lon="11.9697924"><ele>72.5</ele><time>2026-04-04T12:15:51.172Z</time></trkpt><trkpt lat="45.7301863" lon="11.9701658"><ele>73.0</ele><time>2026-04-04T12:15:52.176Z</time></trkpt><trkpt lat="45.7301634" lon="11.9705398"><ele>72.5</ele><time>2026-04-04T12:15:53.171Z</time></trkpt><trkpt lat="45.7301523" lon="11.9709183"><ele>72.0</ele><time>2026-04-04T12:15:54.169Z</time></trkpt><trkpt lat="45.7301449" lon="11.9712972"><ele>72.0</ele><time>2026-04-04T12:15:55.169Z</time></trkpt><trkpt lat="45.730141" lon="11.971677"><ele>72.0</ele><time>2026-04-04T12:15:56.171Z</time></trkpt><trkpt lat="45.7301383" lon="11.972057"><ele>72.0</ele><time>2026-04-04T12:15:57.174Z</time></trkpt><trkpt lat="45.730136" lon="11.9724365"><ele>72.0</ele><time>2026-04-04T12:15:58.169Z</time></trkpt><trkpt lat="45.7301298" lon="11.9728185"><ele>72.0</ele><time>2026-04-04T12:15:59.175Z</time></trkpt><trkpt lat="45.730119" lon="11.9731953"><ele>72.0</ele><time>2026-04-04T12:16:00.173Z</time></trkpt><trkpt lat="45.7301079" lon="11.9735729"><ele>72.0</ele><time>2026-04-04T12:16:01.182Z</time></trkpt><trkpt lat="45.7300985" lon="11.9739473"><ele>72.0</ele><time>2026-04-04T12:16:02.176Z</time></trkpt><trkpt lat="45.7300882" lon="11.974327"><ele>72.0</ele><time>2026-04-04T12:16:03.185Z</time></trkpt><trkpt lat="45.7300776" lon="11.9747052"><ele>72.0</ele><time>2026-04-04T12:16:04.176Z</time></trkpt><trkpt lat="45.73007" lon="11.9750852"><ele>72.0</ele><time>2026-04-04T12:16:05.174Z</time></trkpt><trkpt lat="45.7300628" lon="11.9754657"><ele>72.0</ele><time>2026-04-04T12:16:06.158Z</time></trkpt><trkpt lat="45.7300554" lon="11.9758495"><ele>72.5</ele><time>2026-04-04T12:16:07.164Z</time></trkpt><trkpt lat="45.7300482" lon="11.976231"><ele>73.0</ele><time>2026-04-04T12:16:08.171Z</time></trkpt><trkpt lat="45.7300399" lon="11.9766109"><ele>72.5</ele><time>2026-04-04T12:16:09.17Z</time></trkpt><trkpt lat="45.7300312" lon="11.9769917"><ele>72.0</ele><time>2026-04-04T12:16:10.184Z</time></trkpt><trkpt lat="45.730023" lon="11.9773647"><ele>74.0</ele><time>2026-04-04T12:16:11.175Z</time></trkpt><trkpt lat="45.7300125" lon="11.9777383"><ele>76.0</ele><time>2026-04-04T12:16:12.176Z</time></trkpt><trkpt lat="45.7299999" lon="11.9781108"><ele>76.5</ele><time>2026-04-04T12:16:13.18Z</time></trkpt><trkpt lat="45.7299838" lon="11.9784802"><ele>77.0</ele><time>2026-04-04T12:16:14.178Z</time></trkpt><trkpt lat="45.7299635" lon="11.9788476"><ele>75.5</ele><time>2026-04-04T12:16:15.185Z</time></trkpt><trkpt lat="45.7299386" lon="11.9792121"><ele>74.0</ele><time>2026-04-04T12:16:16.179Z</time></trkpt><trkpt lat="45.7299044" lon="11.9795764"><ele>74.0</ele><time>2026-04-04T12:16:17.172Z</time></trkpt><trkpt lat="45.7298613" lon="11.9799455"><ele>74.0</ele><time>2026-04-04T12:16:18.184Z</time></trkpt><trkpt lat="45.7298115" lon="11.9803122"><ele>73.5</ele><time>2026-04-04T12:16:19.185Z</time></trkpt><trkpt lat="45.7297566" lon="11.9806812"><ele>73.0</ele><time>2026-04-04T12:16:20.198Z</time></trkpt><trkpt lat="45.7296977" lon="11.9810439"><ele>73.0</ele><time>2026-04-04T12:16:21.182Z</time></trkpt><trkpt lat="45.7296296" lon="11.9814108"><ele>73.0</ele><time>2026-04-04T12:16:22.197Z</time></trkpt><trkpt lat="45.72956" lon="11.9817658"><ele>73.0</ele><time>2026-04-04T12:16:23.16Z</time></trkpt><trkpt lat="45.729485" lon="11.982132"><ele>73.0</ele><time>2026-04-04T12:16:24.175Z</time></trkpt><trkpt lat="45.729411" lon="11.9824927"><ele>72.0</ele><time>2026-04-04T12:16:25.207Z</time></trkpt><trkpt lat="45.7293421" lon="11.9828461"><ele>71.0</ele><time>2026-04-04T12:16:26.18Z</time></trkpt><trkpt lat="45.7292709" lon="11.9832074"><ele>71.0</ele><time>2026-04-04T12:16:27.186Z</time></trkpt><trkpt lat="45.7292007" lon="11.9835668"><ele>71.0</ele><time>2026-04-04T12:16:28.194Z</time></trkpt><trkpt lat="45.7291299" lon="11.9839225"><ele>71.0</ele><time>2026-04-04T12:16:29.179Z</time></trkpt><trkpt lat="45.729058" lon="11.9842845"><ele>71.0</ele><time>2026-04-04T12:16:30.189Z</time></trkpt><trkpt lat="45.7289887" lon="11.9846428"><ele>71.0</ele><time>2026-04-04T12:16:31.189Z</time></trkpt><trkpt lat="45.7289194" lon="11.9850032"><ele>71.0</ele><time>2026-04-04T12:16:32.191Z</time></trkpt><trkpt lat="45.728853" lon="11.9853598"><ele>71.0</ele><time>2026-04-04T12:16:33.194Z</time></trkpt><trkpt lat="45.7287819" lon="11.9857215"><ele>71.0</ele><time>2026-04-04T12:16:34.207Z</time></trkpt><trkpt lat="45.7287089" lon="11.9860797"><ele>70.5</ele><time>2026-04-04T12:16:35.182Z</time></trkpt><trkpt lat="45.7286351" lon="11.9864403"><ele>70.0</ele><time>2026-04-04T12:16:36.167Z</time></trkpt><trkpt lat="45.7285562" lon="11.9868087"><ele>70.0</ele><time>2026-04-04T12:16:37.194Z</time></trkpt><trkpt lat="45.7284803" lon="11.987171"><ele>70.0</ele><time>2026-04-04T12:16:38.189Z</time></trkpt><trkpt lat="45.7284042" lon="11.9875348"><ele>70.0</ele><time>2026-04-04T12:16:39.176Z</time></trkpt><trkpt lat="45.7283276" lon="11.987903"><ele>70.0</ele><time>2026-04-04T12:16:40.191Z</time></trkpt><trkpt lat="45.7282564" lon="11.988268"><ele>71.0</ele><time>2026-04-04T12:16:41.196Z</time></trkpt><trkpt lat="45.7281918" lon="11.9886345"><ele>72.0</ele><time>2026-04-04T12:16:42.182Z</time></trkpt><trkpt lat="45.7281332" lon="11.989005"><ele>71.5</ele><time>2026-04-04T12:16:43.166Z</time></trkpt><trkpt lat="45.7280806" lon="11.9893839"><ele>71.0</ele><time>2026-04-04T12:16:44.205Z</time></trkpt><trkpt lat="45.7280384" lon="11.9897553"><ele>71.0</ele><time>2026-04-04T12:16:45.183Z</time></trkpt><trkpt lat="45.7280016" lon="11.9901332"><ele>71.0</ele><time>2026-04-04T12:16:46.18Z</time></trkpt><trkpt lat="45.727968" lon="11.9905096"><ele>72.0</ele><time>2026-04-04T12:16:47.176Z</time></trkpt><trkpt lat="45.7279302" lon="11.9908942"><ele>73.0</ele><time>2026-04-04T12:16:48.191Z</time></trkpt><trkpt lat="45.7278903" lon="11.9912648"><ele>73.0</ele><time>2026-04-04T12:16:49.175Z</time></trkpt><trkpt lat="45.7278455" lon="11.9916503"><ele>73.0</ele><time>2026-04-04T12:16:50.198Z</time></trkpt><trkpt lat="45.7278162" lon="11.9920251"><ele>73.0</ele><time>2026-04-04T12:16:51.181Z</time></trkpt><trkpt lat="45.7278332" lon="11.9924017"><ele>73.0</ele><time>2026-04-04T12:16:52.195Z</time></trkpt><trkpt lat="45.7278565" lon="11.9927675"><ele>72.5</ele><time>2026-04-04T12:16:53.195Z</time></trkpt><trkpt lat="45.7278754" lon="11.9931399"><ele>72.0</ele><time>2026-04-04T12:16:54.188Z</time></trkpt><trkpt lat="45.727901" lon="11.9935195"><ele>71.5</ele><time>2026-04-04T12:16:55.179Z</time></trkpt><trkpt lat="45.7279275" lon="11.9939018"><ele>71.0</ele><time>2026-04-04T12:16:56.208Z</time></trkpt><trkpt lat="45.7279546" lon="11.9942721"><ele>71.0</ele><time>2026-04-04T12:16:57.19Z</time></trkpt><trkpt lat="45.7279849" lon="11.9946506"><ele>71.0</ele><time>2026-04-04T12:16:58.208Z</time></trkpt><trkpt lat="45.7280226" lon="11.9950195"><ele>71.0</ele><time>2026-04-04T12:16:59.191Z</time></trkpt><trkpt lat="45.7280669" lon="11.995391"><ele>71.0</ele><time>2026-04-04T12:17:00.177Z</time></trkpt><trkpt lat="45.7281163" lon="11.9957671"><ele>70.5</ele><time>2026-04-04T12:17:01.207Z</time></trkpt><trkpt lat="45.7281718" lon="11.9961312"><ele>70.0</ele><time>2026-04-04T12:17:02.186Z</time></trkpt><trkpt lat="45.7282373" lon="11.9964975"><ele>69.5</ele><time>2026-04-04T12:17:03.195Z</time></trkpt><trkpt lat="45.7283073" lon="11.9968594"><ele>69.0</ele><time>2026-04-04T12:17:04.202Z</time></trkpt><trkpt lat="45.7283793" lon="11.9972168"><ele>70.0</ele><time>2026-04-04T12:17:05.193Z</time></trkpt><trkpt lat="45.7284537" lon="11.9975747"><ele>71.0</ele><time>2026-04-04T12:17:06.196Z</time></trkpt><trkpt lat="45.7285278" lon="11.9979305"><ele>71.0</ele><time>2026-04-04T12:17:07.204Z</time></trkpt><trkpt lat="45.7285989" lon="11.998289"><ele>71.0</ele><time>2026-04-04T12:17:08.193Z</time></trkpt><trkpt lat="45.7286677" lon="11.9986527"><ele>71.0</ele><time>2026-04-04T12:17:09.189Z</time></trkpt><trkpt lat="45.7287355" lon="11.9990169"><ele>71.0</ele><time>2026-04-04T12:17:10.192Z</time></trkpt><trkpt lat="45.7287997" lon="11.9993821"><ele>71.0</ele><time>2026-04-04T12:17:11.191Z</time></trkpt><trkpt lat="45.7288617" lon="11.9997502"><ele>71.0</ele><time>2026-04-04T12:17:12.201Z</time></trkpt><trkpt lat="45.7289241" lon="12.0001126"><ele>71.0</ele><time>2026-04-04T12:17:13.185Z</time></trkpt><trkpt lat="45.7289857" lon="12.0004831"><ele>71.0</ele><time>2026-04-04T12:17:14.185Z</time></trkpt><trkpt lat="45.7290467" lon="12.0008464"><ele>71.0</ele><time>2026-04-04T12:17:15.184Z</time></trkpt><trkpt lat="45.7290903" lon="12.0012129"><ele>71.0</ele><time>2026-04-04T12:17:16.186Z</time></trkpt><trkpt lat="45.7291359" lon="12.0015769"><ele>71.0</ele><time>2026-04-04T12:17:17.191Z</time></trkpt><trkpt lat="45.7291691" lon="12.001949"><ele>71.0</ele><time>2026-04-04T12:17:18.191Z</time></trkpt><trkpt lat="45.7291868" lon="12.0023181"><ele>71.0</ele><time>2026-04-04T12:17:19.188Z</time></trkpt><trkpt lat="45.7291998" lon="12.0026924"><ele>71.0</ele><time>2026-04-04T12:17:20.183Z</time></trkpt><trkpt lat="45.7292101" lon="12.0030644"><ele>70.5</ele><time>2026-04-04T12:17:21.192Z</time></trkpt><trkpt lat="45.729225" lon="12.0034319"><ele>70.0</ele><time>2026-04-04T12:17:22.2Z</time></trkpt><trkpt lat="45.7292386" lon="12.0038016"><ele>70.0</ele><time>2026-04-04T12:17:23.202Z</time></trkpt><trkpt lat="45.7292509" lon="12.0041676"><ele>70.0</ele><time>2026-04-04T12:17:24.175Z</time></trkpt><trkpt lat="45.7292595" lon="12.0045453"><ele>70.0</ele><time>2026-04-04T12:17:25.195Z</time></trkpt><trkpt lat="45.7292695" lon="12.004921"><ele>70.0</ele><time>2026-04-04T12:17:26.198Z</time></trkpt><trkpt lat="45.7292763" lon="12.0053"><ele>70.0</ele><time>2026-04-04T12:17:27.2Z</time></trkpt><trkpt lat="45.7292816" lon="12.0056741"><ele>70.0</ele><time>2026-04-04T12:17:28.194Z</time></trkpt><trkpt lat="45.7292878" lon="12.0060511"><ele>70.0</ele><time>2026-04-04T12:17:29.181Z</time></trkpt><trkpt lat="45.7292966" lon="12.0064304"><ele>70.0</ele><time>2026-04-04T12:17:30.193Z</time></trkpt><trkpt lat="45.7293053" lon="12.0068004"><ele>70.0</ele><time>2026-04-04T12:17:31.184Z</time></trkpt><trkpt lat="45.7293134" lon="12.0071703"><ele>70.0</ele><time>2026-04-04T12:17:32.19Z</time></trkpt><trkpt lat="45.7293225" lon="12.0075407"><ele>70.0</ele><time>2026-04-04T12:17:33.2Z</time></trkpt><trkpt lat="45.7293322" lon="12.0079031"><ele>70.0</ele><time>2026-04-04T12:17:34.179Z</time></trkpt><trkpt lat="45.729342" lon="12.0082768"><ele>70.0</ele><time>2026-04-04T12:17:35.18Z</time></trkpt><trkpt lat="45.7293461" lon="12.0086518"><ele>70.0</ele><time>2026-04-04T12:17:36.199Z</time></trkpt><trkpt lat="45.7293512" lon="12.0090248"><ele>70.5</ele><time>2026-04-04T12:17:37.198Z</time></trkpt><trkpt lat="45.7293595" lon="12.0094018"><ele>71.0</ele><time>2026-04-04T12:17:38.196Z</time></trkpt><trkpt lat="45.7293701" lon="12.0097819"><ele>71.0</ele><time>2026-04-04T12:17:39.193Z</time></trkpt><trkpt lat="45.7293796" lon="12.0101639"><ele>71.0</ele><time>2026-04-04T12:17:40.198Z</time></trkpt><trkpt lat="45.7293876" lon="12.0105441"><ele>71.0</ele><time>2026-04-04T12:17:41.199Z</time></trkpt><trkpt lat="45.7293992" lon="12.0109258"><ele>71.0</ele><time>2026-04-04T12:17:42.2Z</time></trkpt><trkpt lat="45.7294087" lon="12.0113077"><ele>70.5</ele><time>2026-04-04T12:17:43.208Z</time></trkpt><trkpt lat="45.7294165" lon="12.0116843"><ele>70.0</ele><time>2026-04-04T12:17:44.172Z</time></trkpt><trkpt lat="45.7294251" lon="12.0120724"><ele>70.0</ele><time>2026-04-04T12:17:45.195Z</time></trkpt><trkpt lat="45.7294364" lon="12.0124544"><ele>70.0</ele><time>2026-04-04T12:17:46.192Z</time></trkpt><trkpt lat="45.7294457" lon="12.0128354"><ele>70.0</ele><time>2026-04-04T12:17:47.186Z</time></trkpt><trkpt lat="45.7294515" lon="12.0132222"><ele>70.0</ele><time>2026-04-04T12:17:48.196Z</time></trkpt><trkpt lat="45.7294605" lon="12.0136066"><ele>70.0</ele><time>2026-04-04T12:17:49.206Z</time></trkpt><trkpt lat="45.7294713" lon="12.0139854"><ele>70.0</ele><time>2026-04-04T12:17:50.191Z</time></trkpt><trkpt lat="45.7294805" lon="12.0143714"><ele>70.0</ele><time>2026-04-04T12:17:51.203Z</time></trkpt><trkpt lat="45.7294885" lon="12.0147538"><ele>70.0</ele><time>2026-04-04T12:17:52.185Z</time></trkpt><trkpt lat="45.7295016" lon="12.0151476"><ele>70.0</ele><time>2026-04-04T12:17:53.191Z</time></trkpt><trkpt lat="45.729511" lon="12.0155348"><ele>70.0</ele><time>2026-04-04T12:17:54.197Z</time></trkpt><trkpt lat="45.7295226" lon="12.0159007"><ele>70.0</ele><time>2026-04-04T12:17:55.176Z</time></trkpt><trkpt lat="45.7295333" lon="12.0162688"><ele>70.0</ele><time>2026-04-04T12:17:56.192Z</time></trkpt><trkpt lat="45.7295436" lon="12.0166344"><ele>70.5</ele><time>2026-04-04T12:17:57.202Z</time></trkpt><trkpt lat="45.7295501" lon="12.0170043"><ele>71.0</ele><time>2026-04-04T12:17:58.206Z</time></trkpt><trkpt lat="45.7295542" lon="12.0173754"><ele>70.5</ele><time>2026-04-04T12:17:59.204Z</time></trkpt><trkpt lat="45.7295629" lon="12.0177482"><ele>70.0</ele><time>2026-04-04T12:18:00.181Z</time></trkpt><trkpt lat="45.7295722" lon="12.0181294"><ele>70.5</ele><time>2026-04-04T12:18:01.205Z</time></trkpt><trkpt lat="45.7295815" lon="12.0185021"><ele>71.0</ele><time>2026-04-04T12:18:02.186Z</time></trkpt><trkpt lat="45.7295912" lon="12.018882"><ele>71.0</ele><time>2026-04-04T12:18:03.177Z</time></trkpt><trkpt lat="45.7296016" lon="12.0192652"><ele>71.0</ele><time>2026-04-04T12:18:04.194Z</time></trkpt><trkpt lat="45.7296136" lon="12.019646"><ele>71.5</ele><time>2026-04-04T12:18:05.195Z</time></trkpt><trkpt lat="45.7296287" lon="12.0200279"><ele>72.0</ele><time>2026-04-04T12:18:06.2Z</time></trkpt><trkpt lat="45.7296434" lon="12.0204095"><ele>72.0</ele><time>2026-04-04T12:18:07.202Z</time></trkpt><trkpt lat="45.7296631" lon="12.0207871"><ele>72.0</ele><time>2026-04-04T12:18:08.174Z</time></trkpt><trkpt lat="45.7296881" lon="12.0211687"><ele>71.0</ele><time>2026-04-04T12:18:09.185Z</time></trkpt><trkpt lat="45.7297213" lon="12.02155"><ele>70.0</ele><time>2026-04-04T12:18:10.194Z</time></trkpt><trkpt lat="45.7297548" lon="12.0219282"><ele>70.0</ele><time>2026-04-04T12:18:11.193Z</time></trkpt><trkpt lat="45.7297891" lon="12.0223039"><ele>70.0</ele><time>2026-04-04T12:18:12.198Z</time></trkpt><trkpt lat="45.7298231" lon="12.0226764"><ele>70.0</ele><time>2026-04-04T12:18:13.211Z</time></trkpt><trkpt lat="45.7298663" lon="12.0230424"><ele>70.0</ele><time>2026-04-04T12:18:14.201Z</time></trkpt><trkpt lat="45.7299143" lon="12.0234036"><ele>70.0</ele><time>2026-04-04T12:18:15.204Z</time></trkpt><trkpt lat="45.7299652" lon="12.0237636"><ele>70.0</ele><time>2026-04-04T12:18:16.199Z</time></trkpt><trkpt lat="45.7300185" lon="12.0241265"><ele>70.0</ele><time>2026-04-04T12:18:17.2Z</time></trkpt><trkpt lat="45.7300742" lon="12.0244933"><ele>70.0</ele><time>2026-04-04T12:18:18.196Z</time></trkpt><trkpt lat="45.7301384" lon="12.0248565"><ele>70.0</ele><time>2026-04-04T12:18:19.198Z</time></trkpt><trkpt lat="45.7302043" lon="12.0252206"><ele>70.0</ele><time>2026-04-04T12:18:20.184Z</time></trkpt><trkpt lat="45.7302719" lon="12.0255873"><ele>69.5</ele><time>2026-04-04T12:18:21.209Z</time></trkpt><trkpt lat="45.7303451" lon="12.0259413"><ele>69.0</ele><time>2026-04-04T12:18:22.197Z</time></trkpt><trkpt lat="45.7304234" lon="12.0262934"><ele>69.5</ele><time>2026-04-04T12:18:23.191Z</time></trkpt><trkpt lat="45.7305024" lon="12.026645"><ele>70.0</ele><time>2026-04-04T12:18:24.185Z</time></trkpt><trkpt lat="45.7305844" lon="12.0269996"><ele>70.0</ele><time>2026-04-04T12:18:25.192Z</time></trkpt><trkpt lat="45.7306713" lon="12.0273512"><ele>70.0</ele><time>2026-04-04T12:18:26.187Z</time></trkpt><trkpt lat="45.7307613" lon="12.0277043"><ele>70.0</ele><time>2026-04-04T12:18:27.203Z</time></trkpt><trkpt lat="45.7308554" lon="12.0280529"><ele>70.0</ele><time>2026-04-04T12:18:28.193Z</time></trkpt><trkpt lat="45.7309569" lon="12.0283992"><ele>70.5</ele><time>2026-04-04T12:18:29.19Z</time></trkpt><trkpt lat="45.7310606" lon="12.0287417"><ele>71.0</ele><time>2026-04-04T12:18:30.198Z</time></trkpt><trkpt lat="45.7311647" lon="12.0290826"><ele>70.0</ele><time>2026-04-04T12:18:31.188Z</time></trkpt><trkpt lat="45.7312757" lon="12.0294219"><ele>69.0</ele><time>2026-04-04T12:18:32.196Z</time></trkpt><trkpt lat="45.7313844" lon="12.0297653"><ele>69.0</ele><time>2026-04-04T12:18:33.211Z</time></trkpt><trkpt lat="45.7314968" lon="12.0300991"><ele>69.0</ele><time>2026-04-04T12:18:34.189Z</time></trkpt><trkpt lat="45.7316185" lon="12.0304364"><ele>69.0</ele><time>2026-04-04T12:18:35.196Z</time></trkpt><trkpt lat="45.7317418" lon="12.0307692"><ele>69.0</ele><time>2026-04-04T12:18:36.205Z</time></trkpt><trkpt lat="45.7318687" lon="12.0310971"><ele>69.5</ele><time>2026-04-04T12:18:37.181Z</time></trkpt><trkpt lat="45.7320009" lon="12.0314268"><ele>70.0</ele><time>2026-04-04T12:18:38.191Z</time></trkpt><trkpt lat="45.7321346" lon="12.0317542"><ele>70.0</ele><time>2026-04-04T12:18:39.186Z</time></trkpt><trkpt lat="45.7322694" lon="12.0320809"><ele>70.0</ele><time>2026-04-04T12:18:40.199Z</time></trkpt><trkpt lat="45.732409" lon="12.0324012"><ele>70.0</ele><time>2026-04-04T12:18:41.173Z</time></trkpt><trkpt lat="45.7325571" lon="12.0327232"><ele>70.0</ele><time>2026-04-04T12:18:42.196Z</time></trkpt><trkpt lat="45.7327067" lon="12.0330391"><ele>70.5</ele><time>2026-04-04T12:18:43.2Z</time></trkpt><trkpt lat="45.7328558" lon="12.0333492"><ele>71.0</ele><time>2026-04-04T12:18:44.19Z</time></trkpt><trkpt lat="45.7330057" lon="12.0336564"><ele>71.0</ele><time>2026-04-04T12:18:45.188Z</time></trkpt><trkpt lat="45.7331616" lon="12.0339638"><ele>71.0</ele><time>2026-04-04T12:18:46.186Z</time></trkpt><trkpt lat="45.7333185" lon="12.0342615"><ele>71.5</ele><time>2026-04-04T12:18:47.189Z</time></trkpt><trkpt lat="45.7334746" lon="12.0345599"><ele>72.0</ele><time>2026-04-04T12:18:48.196Z</time></trkpt><trkpt lat="45.7336334" lon="12.0348538"><ele>71.5</ele><time>2026-04-04T12:18:49.198Z</time></trkpt><trkpt lat="45.7337911" lon="12.035145"><ele>71.0</ele><time>2026-04-04T12:18:50.182Z</time></trkpt><trkpt lat="45.7339516" lon="12.0354385"><ele>71.0</ele><time>2026-04-04T12:18:51.191Z</time></trkpt><trkpt lat="45.7341098" lon="12.0357303"><ele>71.0</ele><time>2026-04-04T12:18:52.18Z</time></trkpt><trkpt lat="45.7342693" lon="12.0360268"><ele>71.0</ele><time>2026-04-04T12:18:53.19Z</time></trkpt><trkpt lat="45.7344258" lon="12.0363258"><ele>71.0</ele><time>2026-04-04T12:18:54.202Z</time></trkpt><trkpt lat="45.7345796" lon="12.0366229"><ele>71.5</ele><time>2026-04-04T12:18:55.188Z</time></trkpt><trkpt lat="45.7347357" lon="12.0369202"><ele>72.0</ele><time>2026-04-04T12:18:56.204Z</time></trkpt><trkpt lat="45.734891" lon="12.0372108"><ele>71.5</ele><time>2026-04-04T12:18:57.197Z</time></trkpt><trkpt lat="45.7350474" lon="12.0375034"><ele>71.0</ele><time>2026-04-04T12:18:58.196Z</time></trkpt><trkpt lat="45.735203" lon="12.0377972"><ele>71.0</ele><time>2026-04-04T12:18:59.189Z</time></trkpt><trkpt lat="45.7353599" lon="12.0380929"><ele>71.0</ele><time>2026-04-04T12:19:00.192Z</time></trkpt><trkpt lat="45.7355186" lon="12.0383882"><ele>71.0</ele><time>2026-04-04T12:19:01.201Z</time></trkpt><trkpt lat="45.735676" lon="12.0386819"><ele>71.0</ele><time>2026-04-04T12:19:02.191Z</time></trkpt><trkpt lat="45.7358356" lon="12.0389798"><ele>71.0</ele><time>2026-04-04T12:19:03.201Z</time></trkpt><trkpt lat="45.7359957" lon="12.0392773"><ele>71.0</ele><time>2026-04-04T12:19:04.207Z</time></trkpt><trkpt lat="45.7361552" lon="12.0395736"><ele>71.5</ele><time>2026-04-04T12:19:05.191Z</time></trkpt><trkpt lat="45.7363162" lon="12.039873"><ele>72.0</ele><time>2026-04-04T12:19:06.19Z</time></trkpt><trkpt lat="45.7364777" lon="12.0401742"><ele>72.5</ele><time>2026-04-04T12:19:07.193Z</time></trkpt><trkpt lat="45.7366394" lon="12.0404768"><ele>73.0</ele><time>2026-04-04T12:19:08.205Z</time></trkpt><trkpt lat="45.7367996" lon="12.0407784"><ele>72.5</ele><time>2026-04-04T12:19:09.197Z</time></trkpt><trkpt lat="45.7369611" lon="12.0410823"><ele>72.0</ele><time>2026-04-04T12:19:10.201Z</time></trkpt><trkpt lat="45.7371211" lon="12.0413819"><ele>72.0</ele><time>2026-04-04T12:19:11.169Z</time></trkpt><trkpt lat="45.7372855" lon="12.0416908"><ele>72.0</ele><time>2026-04-04T12:19:12.191Z</time></trkpt><trkpt lat="45.7374474" lon="12.0419946"><ele>72.0</ele><time>2026-04-04T12:19:13.182Z</time></trkpt><trkpt lat="45.7376113" lon="12.042304"><ele>72.0</ele><time>2026-04-04T12:19:14.21Z</time></trkpt><trkpt lat="45.7377708" lon="12.0426055"><ele>72.5</ele><time>2026-04-04T12:19:15.187Z</time></trkpt><trkpt lat="45.7379311" lon="12.0429099"><ele>73.0</ele><time>2026-04-04T12:19:16.178Z</time></trkpt><trkpt lat="45.7380908" lon="12.0432143"><ele>73.0</ele><time>2026-04-04T12:19:17.181Z</time></trkpt><trkpt lat="45.7382482" lon="12.0435225"><ele>73.0</ele><time>2026-04-04T12:19:18.209Z</time></trkpt><trkpt lat="45.7383992" lon="12.0438262"><ele>73.0</ele><time>2026-04-04T12:19:19.195Z</time></trkpt><trkpt lat="45.7385478" lon="12.0441351"><ele>73.0</ele><time>2026-04-04T12:19:20.186Z</time></trkpt><trkpt lat="45.7386941" lon="12.0444465"><ele>72.5</ele><time>2026-04-04T12:19:21.2Z</time></trkpt><trkpt lat="45.7388324" lon="12.0447564"><ele>72.0</ele><time>2026-04-04T12:19:22.176Z</time></trkpt><trkpt lat="45.7389674" lon="12.0450771"><ele>73.5</ele><time>2026-04-04T12:19:23.189Z</time></trkpt><trkpt lat="45.7390945" lon="12.0453999"><ele>75.0</ele><time>2026-04-04T12:19:24.185Z</time></trkpt><trkpt lat="45.7392192" lon="12.0457282"><ele>75.5</ele><time>2026-04-04T12:19:25.192Z</time></trkpt><trkpt lat="45.7393397" lon="12.0460579"><ele>76.0</ele><time>2026-04-04T12:19:26.191Z</time></trkpt><trkpt lat="45.7394555" lon="12.04639"><ele>76.0</ele><time>2026-04-04T12:19:27.181Z</time></trkpt><trkpt lat="45.7395687" lon="12.0467285"><ele>76.0</ele><time>2026-04-04T12:19:28.196Z</time></trkpt><trkpt lat="45.7396763" lon="12.0470669"><ele>76.0</ele><time>2026-04-04T12:19:29.195Z</time></trkpt><trkpt lat="45.7397795" lon="12.0474108"><ele>76.0</ele><time>2026-04-04T12:19:30.209Z</time></trkpt><trkpt lat="45.7398772" lon="12.0477544"><ele>76.0</ele><time>2026-04-04T12:19:31.186Z</time></trkpt><trkpt lat="45.7399713" lon="12.0481062"><ele>76.0</ele><time>2026-04-04T12:19:32.179Z</time></trkpt><trkpt lat="45.7400603" lon="12.0484639"><ele>76.0</ele><time>2026-04-04T12:19:33.193Z</time></trkpt><trkpt lat="45.7401452" lon="12.0488215"><ele>76.0</ele><time>2026-04-04T12:19:34.197Z</time></trkpt><trkpt lat="45.7402269" lon="12.0491798"><ele>76.0</ele><time>2026-04-04T12:19:35.188Z</time></trkpt><trkpt lat="45.7403086" lon="12.0495423"><ele>76.0</ele><time>2026-04-04T12:19:36.195Z</time></trkpt><trkpt lat="45.740388" lon="12.0499058"><ele>75.5</ele><time>2026-04-04T12:19:37.196Z</time></trkpt><trkpt lat="45.7404682" lon="12.0502717"><ele>75.0</ele><time>2026-04-04T12:19:38.197Z</time></trkpt><trkpt lat="45.7405484" lon="12.0506389"><ele>76.0</ele><time>2026-04-04T12:19:39.201Z</time></trkpt><trkpt lat="45.7406276" lon="12.0510037"><ele>77.0</ele><time>2026-04-04T12:19:40.191Z</time></trkpt><trkpt lat="45.7407065" lon="12.0513702"><ele>77.0</ele><time>2026-04-04T12:19:41.185Z</time></trkpt><trkpt lat="45.7407857" lon="12.0517379"><ele>77.0</ele><time>2026-04-04T12:19:42.183Z</time></trkpt><trkpt lat="45.7408653" lon="12.0521056"><ele>77.0</ele><time>2026-04-04T12:19:43.178Z</time></trkpt><trkpt lat="45.7409459" lon="12.0524756"><ele>77.0</ele><time>2026-04-04T12:19:44.2Z</time></trkpt><trkpt lat="45.7410243" lon="12.0528371"><ele>76.5</ele><time>2026-04-04T12:19:45.172Z</time></trkpt><trkpt lat="45.7411051" lon="12.053205"><ele>76.0</ele><time>2026-04-04T12:19:46.183Z</time></trkpt><trkpt lat="45.7411854" lon="12.0535699"><ele>76.0</ele><time>2026-04-04T12:19:47.197Z</time></trkpt><trkpt lat="45.7412641" lon="12.0539308"><ele>76.0</ele><time>2026-04-04T12:19:48.193Z</time></trkpt><trkpt lat="45.7413427" lon="12.0542911"><ele>76.5</ele><time>2026-04-04T12:19:49.189Z</time></trkpt><trkpt lat="45.7414218" lon="12.0546517"><ele>77.0</ele><time>2026-04-04T12:19:50.193Z</time></trkpt><trkpt lat="45.7415008" lon="12.0550104"><ele>77.0</ele><time>2026-04-04T12:19:51.189Z</time></trkpt><trkpt lat="45.7415787" lon="12.0553684"><ele>77.0</ele><time>2026-04-04T12:19:52.175Z</time></trkpt><trkpt lat="45.7416567" lon="12.0557291"><ele>77.0</ele><time>2026-04-04T12:19:53.182Z</time></trkpt><trkpt lat="45.7417351" lon="12.0560893"><ele>77.0</ele><time>2026-04-04T12:19:54.197Z</time></trkpt><trkpt lat="45.741813" lon="12.0564475"><ele>77.0</ele><time>2026-04-04T12:19:55.181Z</time></trkpt><trkpt lat="45.741893" lon="12.0568137"><ele>77.0</ele><time>2026-04-04T12:19:56.193Z</time></trkpt><trkpt lat="45.7419733" lon="12.0571795"><ele>77.5</ele><time>2026-04-04T12:19:57.201Z</time></trkpt><trkpt lat="45.7420527" lon="12.0575336"><ele>78.0</ele><time>2026-04-04T12:19:58.181Z</time></trkpt><trkpt lat="45.7421319" lon="12.057895"><ele>81.0</ele><time>2026-04-04T12:19:59.169Z</time></trkpt><trkpt lat="45.7453521" lon="12.066191"><ele>81.0</ele><time>2026-04-04T12:20:24.109Z</time></trkpt><trkpt lat="45.7454358" lon="12.0664896"><ele>81.0</ele><time>2026-04-04T12:20:25.205Z</time></trkpt><trkpt lat="45.7454745" lon="12.0667822"><ele>81.0</ele><time>2026-04-04T12:20:26.177Z</time></trkpt><trkpt lat="45.7456247" lon="12.0670278"><ele>81.0</ele><time>2026-04-04T12:20:27.181Z</time></trkpt><trkpt lat="45.7457999" lon="12.0672807"><ele>81.0</ele><time>2026-04-04T12:20:28.187Z</time></trkpt><trkpt lat="45.745991" lon="12.0675186"><ele>81.0</ele><time>2026-04-04T12:20:29.183Z</time></trkpt><trkpt lat="45.746191" lon="12.0677586"><ele>81.0</ele><time>2026-04-04T12:20:30.186Z</time></trkpt><trkpt lat="45.7463941" lon="12.0679917"><ele>81.0</ele><time>2026-04-04T12:20:31.191Z</time></trkpt><trkpt lat="45.7465988" lon="12.068218"><ele>81.0</ele><time>2026-04-04T12:20:32.19Z</time></trkpt><trkpt lat="45.7468066" lon="12.0684402"><ele>81.5</ele><time>2026-04-04T12:20:33.186Z</time></trkpt><trkpt lat="45.74702" lon="12.0686606"><ele>82.0</ele><time>2026-04-04T12:20:34.184Z</time></trkpt><trkpt lat="45.7472381" lon="12.0688762"><ele>82.0</ele><time>2026-04-04T12:20:35.187Z</time></trkpt><trkpt lat="45.7474592" lon="12.0690853"><ele>82.0</ele><time>2026-04-04T12:20:36.187Z</time></trkpt><trkpt lat="45.7476831" lon="12.0692902"><ele>81.5</ele><time>2026-04-04T12:20:37.182Z</time></trkpt><trkpt lat="45.7479154" lon="12.0694772"><ele>81.0</ele><time>2026-04-04T12:20:38.183Z</time></trkpt><trkpt lat="45.7481519" lon="12.0696565"><ele>81.0</ele><time>2026-04-04T12:20:39.206Z</time></trkpt><trkpt lat="45.7483862" lon="12.0698362"><ele>81.0</ele><time>2026-04-04T12:20:40.188Z</time></trkpt><trkpt lat="45.748628" lon="12.0700162"><ele>82.0</ele><time>2026-04-04T12:20:41.199Z</time></trkpt><trkpt lat="45.7488675" lon="12.0701987"><ele>83.0</ele><time>2026-04-04T12:20:42.191Z</time></trkpt><trkpt lat="45.7491052" lon="12.0703781"><ele>83.0</ele><time>2026-04-04T12:20:43.197Z</time></trkpt><trkpt lat="45.7493347" lon="12.0705491"><ele>83.0</ele><time>2026-04-04T12:20:44.19Z</time></trkpt><trkpt lat="45.7495617" lon="12.0707262"><ele>83.0</ele><time>2026-04-04T12:20:45.197Z</time></trkpt><trkpt lat="45.7497869" lon="12.070903"><ele>83.0</ele><time>2026-04-04T12:20:46.188Z</time></trkpt><trkpt lat="45.750013" lon="12.0710873"><ele>83.5</ele><time>2026-04-04T12:20:47.189Z</time></trkpt><trkpt lat="45.7502403" lon="12.071269"><ele>84.0</ele><time>2026-04-04T12:20:48.19Z</time></trkpt><trkpt lat="45.7504676" lon="12.0714487"><ele>83.5</ele><time>2026-04-04T12:20:49.188Z</time></trkpt><trkpt lat="45.7506962" lon="12.0716315"><ele>83.0</ele><time>2026-04-04T12:20:50.206Z</time></trkpt><trkpt lat="45.7509186" lon="12.0718117"><ele>83.5</ele><time>2026-04-04T12:20:51.181Z</time></trkpt><trkpt lat="45.7511396" lon="12.0720025"><ele>84.0</ele><time>2026-04-04T12:20:52.171Z</time></trkpt><trkpt lat="45.7513598" lon="12.0722012"><ele>84.0</ele><time>2026-04-04T12:20:53.187Z</time></trkpt><trkpt lat="45.7515758" lon="12.0724011"><ele>84.0</ele><time>2026-04-04T12:20:54.179Z</time></trkpt><trkpt lat="45.7517909" lon="12.0726061"><ele>84.0</ele><time>2026-04-04T12:20:55.177Z</time></trkpt><trkpt lat="45.7520067" lon="12.0728198"><ele>84.0</ele><time>2026-04-04T12:20:56.201Z</time></trkpt><trkpt lat="45.7522144" lon="12.0730359"><ele>84.0</ele><time>2026-04-04T12:20:57.199Z</time></trkpt><trkpt lat="45.7524196" lon="12.0732594"><ele>84.0</ele><time>2026-04-04T12:20:58.184Z</time></trkpt><trkpt lat="45.7526246" lon="12.0734952"><ele>85.0</ele><time>2026-04-04T12:20:59.195Z</time></trkpt><trkpt lat="45.7528286" lon="12.0737342"><ele>86.0</ele><time>2026-04-04T12:21:00.202Z</time></trkpt><trkpt lat="45.753031" lon="12.0739768"><ele>86.0</ele><time>2026-04-04T12:21:01.189Z</time></trkpt><trkpt lat="45.7532335" lon="12.074229"><ele>86.0</ele><time>2026-04-04T12:21:02.212Z</time></trkpt><trkpt lat="45.753428" lon="12.0744815"><ele>86.5</ele><time>2026-04-04T12:21:03.189Z</time></trkpt><trkpt lat="45.7536208" lon="12.0747469"><ele>87.0</ele><time>2026-04-04T12:21:04.188Z</time></trkpt><trkpt lat="45.7538092" lon="12.0750184"><ele>87.0</ele><time>2026-04-04T12:21:05.226Z</time></trkpt><trkpt lat="45.7539852" lon="12.0752823"><ele>87.0</ele><time>2026-04-04T12:21:06.191Z</time></trkpt><trkpt lat="45.754162" lon="12.0755551"><ele>87.0</ele><time>2026-04-04T12:21:07.203Z</time></trkpt><trkpt lat="45.7543319" lon="12.0758262"><ele>87.0</ele><time>2026-04-04T12:21:08.182Z</time></trkpt><trkpt lat="45.7544997" lon="12.0761067"><ele>86.5</ele><time>2026-04-04T12:21:09.19Z</time></trkpt><trkpt lat="45.7546579" lon="12.0763918"><ele>86.0</ele><time>2026-04-04T12:21:10.176Z</time></trkpt><trkpt lat="45.754818" lon="12.0766856"><ele>85.5</ele><time>2026-04-04T12:21:11.191Z</time></trkpt><trkpt lat="45.7549798" lon="12.0769793"><ele>85.0</ele><time>2026-04-04T12:21:12.179Z</time></trkpt><trkpt lat="45.7551424" lon="12.0772872"><ele>86.0</ele><time>2026-04-04T12:21:13.191Z</time></trkpt><trkpt lat="45.755299" lon="12.0776029"><ele>87.0</ele><time>2026-04-04T12:21:14.199Z</time></trkpt><trkpt lat="45.7554496" lon="12.0779211"><ele>87.0</ele><time>2026-04-04T12:21:15.186Z</time></trkpt><trkpt lat="45.755598" lon="12.0782456"><ele>87.0</ele><time>2026-04-04T12:21:16.204Z</time></trkpt><trkpt lat="45.7557377" lon="12.0785657"><ele>87.0</ele><time>2026-04-04T12:21:17.203Z</time></trkpt><trkpt lat="45.7558697" lon="12.0788888"><ele>87.0</ele><time>2026-04-04T12:21:18.196Z</time></trkpt><trkpt lat="45.7559973" lon="12.0792159"><ele>87.0</ele><time>2026-04-04T12:21:19.18Z</time></trkpt><trkpt lat="45.7561253" lon="12.0795464"><ele>87.0</ele><time>2026-04-04T12:21:20.193Z</time></trkpt><trkpt lat="45.7562466" lon="12.0798719"><ele>86.5</ele><time>2026-04-04T12:21:21.176Z</time></trkpt><trkpt lat="45.7563712" lon="12.0802035"><ele>86.0</ele><time>2026-04-04T12:21:22.206Z</time></trkpt><trkpt lat="45.7564923" lon="12.0805223"><ele>85.5</ele><time>2026-04-04T12:21:23.178Z</time></trkpt><trkpt lat="45.7566213" lon="12.0808435"><ele>85.0</ele><time>2026-04-04T12:21:24.177Z</time></trkpt><trkpt lat="45.7567485" lon="12.0811655"><ele>87.0</ele><time>2026-04-04T12:21:25.167Z</time></trkpt><trkpt lat="45.7568787" lon="12.0814947"><ele>89.0</ele><time>2026-04-04T12:21:26.181Z</time></trkpt><trkpt lat="45.7570075" lon="12.0818245"><ele>89.0</ele><time>2026-04-04T12:21:27.197Z</time></trkpt><trkpt lat="45.7571312" lon="12.0821502"><ele>89.0</ele><time>2026-04-04T12:21:28.169Z</time></trkpt><trkpt lat="45.7572591" lon="12.082482"><ele>89.0</ele><time>2026-04-04T12:21:29.185Z</time></trkpt><trkpt lat="45.757386" lon="12.0828123"><ele>89.0</ele><time>2026-04-04T12:21:30.197Z</time></trkpt><trkpt lat="45.7575129" lon="12.0831414"><ele>88.0</ele><time>2026-04-04T12:21:31.196Z</time></trkpt><trkpt lat="45.7576417" lon="12.0834706"><ele>87.0</ele><time>2026-04-04T12:21:32.187Z</time></trkpt><trkpt lat="45.7577701" lon="12.0838036"><ele>88.0</ele><time>2026-04-04T12:21:33.189Z</time></trkpt><trkpt lat="45.7578995" lon="12.0841393"><ele>89.0</ele><time>2026-04-04T12:21:34.187Z</time></trkpt><trkpt lat="45.7580307" lon="12.0844778"><ele>89.0</ele><time>2026-04-04T12:21:35.192Z</time></trkpt><trkpt lat="45.7581594" lon="12.0848142"><ele>89.0</ele><time>2026-04-04T12:21:36.193Z</time></trkpt><trkpt lat="45.758289" lon="12.08515"><ele>88.0</ele><time>2026-04-04T12:21:37.187Z</time></trkpt><trkpt lat="45.7584229" lon="12.0854874"><ele>87.0</ele><time>2026-04-04T12:21:38.193Z</time></trkpt><trkpt lat="45.7585543" lon="12.0858155"><ele>86.5</ele><time>2026-04-04T12:21:39.211Z</time></trkpt><trkpt lat="45.7586819" lon="12.086127"><ele>86.0</ele><time>2026-04-04T12:21:40.198Z</time></trkpt><trkpt lat="45.7588084" lon="12.0864474"><ele>87.0</ele><time>2026-04-04T12:21:41.19Z</time></trkpt><trkpt lat="45.7589371" lon="12.0867703"><ele>88.0</ele><time>2026-04-04T12:21:42.197Z</time></trkpt><trkpt lat="45.7590662" lon="12.0871"><ele>88.5</ele><time>2026-04-04T12:21:43.206Z</time></trkpt><trkpt lat="45.7591951" lon="12.0874346"><ele>89.0</ele><time>2026-04-04T12:21:44.192Z</time></trkpt><trkpt lat="45.7593212" lon="12.0877668"><ele>89.5</ele><time>2026-04-04T12:21:45.181Z</time></trkpt><trkpt lat="45.7594466" lon="12.0881005"><ele>90.0</ele><time>2026-04-04T12:21:46.192Z</time></trkpt><trkpt lat="45.7595699" lon="12.0884332"><ele>90.0</ele><time>2026-04-04T12:21:47.191Z</time></trkpt><trkpt lat="45.7596986" lon="12.0887642"><ele>90.0</ele><time>2026-04-04T12:21:48.19Z</time></trkpt><trkpt lat="45.7598264" lon="12.0890961"><ele>90.0</ele><time>2026-04-04T12:21:49.188Z</time></trkpt><trkpt lat="45.7599518" lon="12.0894264"><ele>90.0</ele><time>2026-04-04T12:21:50.186Z</time></trkpt><trkpt lat="45.7600738" lon="12.089755"><ele>90.5</ele><time>2026-04-04T12:21:51.193Z</time></trkpt><trkpt lat="45.7601908" lon="12.0900756"><ele>91.0</ele><time>2026-04-04T12:21:52.186Z</time></trkpt><trkpt lat="45.7603002" lon="12.0903851"><ele>91.0</ele><time>2026-04-04T12:21:53.168Z</time></trkpt><trkpt lat="45.7604057" lon="12.0906898"><ele>91.0</ele><time>2026-04-04T12:21:54.171Z</time></trkpt><trkpt lat="45.7605115" lon="12.0909954"><ele>91.0</ele><time>2026-04-04T12:21:55.179Z</time></trkpt><trkpt lat="45.7606127" lon="12.0912955"><ele>91.0</ele><time>2026-04-04T12:21:56.177Z</time></trkpt><trkpt lat="45.7607112" lon="12.0916125"><ele>90.0</ele><time>2026-04-04T12:21:57.193Z</time></trkpt><trkpt lat="45.7608031" lon="12.0919219"><ele>89.0</ele><time>2026-04-04T12:21:58.193Z</time></trkpt><trkpt lat="45.7608771" lon="12.0922168"><ele>88.66666666666667</ele><time>2026-04-04T12:21:59.181Z</time></trkpt><trkpt lat="45.7609563" lon="12.0924926"><ele>88.33333333333333</ele><time>2026-04-04T12:22:00.186Z</time></trkpt><trkpt lat="45.7610264" lon="12.0927707"><ele>88.0</ele><time>2026-04-04T12:22:01.177Z</time></trkpt><trkpt lat="45.7610915" lon="12.0930541"><ele>88.33333333333333</ele><time>2026-04-04T12:22:02.175Z</time></trkpt><trkpt lat="45.7611364" lon="12.0933393"><ele>88.66666666666667</ele><time>2026-04-04T12:22:03.209Z</time></trkpt><trkpt lat="45.7611619" lon="12.0936023"><ele>89.0</ele><time>2026-04-04T12:22:04.174Z</time></trkpt><trkpt lat="45.7611764" lon="12.0938561"><ele>89.0</ele><time>2026-04-04T12:22:05.191Z</time></trkpt><trkpt lat="45.7611871" lon="12.094091"><ele>89.0</ele><time>2026-04-04T12:22:06.175Z</time></trkpt><trkpt lat="45.7611994" lon="12.094322"><ele>89.0</ele><time>2026-04-04T12:22:07.189Z</time></trkpt><trkpt lat="45.7612156" lon="12.0945573"><ele>89.0</ele><time>2026-04-04T12:22:08.192Z</time></trkpt><trkpt lat="45.7612348" lon="12.094794"><ele>89.0</ele><time>2026-04-04T12:22:09.187Z</time></trkpt><trkpt lat="45.7612526" lon="12.0950276"><ele>89.0</ele><time>2026-04-04T12:22:10.192Z</time></trkpt><trkpt lat="45.7612666" lon="12.0952474"><ele>88.5</ele><time>2026-04-04T12:22:11.181Z</time></trkpt><trkpt lat="45.7612802" lon="12.0954433"><ele>88.0</ele><time>2026-04-04T12:22:12.189Z</time></trkpt><trkpt lat="45.7612967" lon="12.0956111"><ele>87.5</ele><time>2026-04-04T12:22:13.191Z</time></trkpt><trkpt lat="45.7613303" lon="12.0957603"><ele>87.0</ele><time>2026-04-04T12:22:14.173Z</time></trkpt><trkpt lat="45.7613943" lon="12.095893"><ele>88.25</ele><time>2026-04-04T12:22:15.173Z</time></trkpt><trkpt lat="45.7614832" lon="12.0959966"><ele>89.5</ele><time>2026-04-04T12:22:16.168Z</time></trkpt><trkpt lat="45.7615897" lon="12.0960575"><ele>90.75</ele><time>2026-04-04T12:22:17.166Z</time></trkpt><trkpt lat="45.7617055" lon="12.0960723"><ele>92.0</ele><time>2026-04-04T12:22:18.168Z</time></trkpt><trkpt lat="45.7618195" lon="12.0960542"><ele>91.39999999999999</ele><time>2026-04-04T12:22:19.171Z</time></trkpt><trkpt lat="45.7619208" lon="12.0959776"><ele>90.8</ele><time>2026-04-04T12:22:20.172Z</time></trkpt><trkpt lat="45.761995" lon="12.0958773"><ele>90.2</ele><time>2026-04-04T12:22:21.172Z</time></trkpt><trkpt lat="45.7620473" lon="12.0957497"><ele>89.6</ele><time>2026-04-04T12:22:22.174Z</time></trkpt><trkpt lat="45.7620782" lon="12.0955946"><ele>89.0</ele><time>2026-04-04T12:22:23.167Z</time></trkpt><trkpt lat="45.762083" lon="12.0954189"><ele>89.0</ele><time>2026-04-04T12:22:24.165Z</time></trkpt><trkpt lat="45.7620445" lon="12.0952336"><ele>89.0</ele><time>2026-04-04T12:22:25.165Z</time></trkpt><trkpt lat="45.7619964" lon="12.0950427"><ele>89.0</ele><time>2026-04-04T12:22:26.173Z</time></trkpt><trkpt lat="45.7619512" lon="12.0948483"><ele>89.0</ele><time>2026-04-04T12:22:27.176Z</time></trkpt><trkpt lat="45.7619061" lon="12.0946542"><ele>89.0</ele><time>2026-04-04T12:22:28.183Z</time></trkpt><trkpt lat="45.7618627" lon="12.0944623"><ele>89.0</ele><time>2026-04-04T12:22:29.182Z</time></trkpt><trkpt lat="45.7618191" lon="12.0942732"><ele>89.0</ele><time>2026-04-04T12:22:30.181Z</time></trkpt><trkpt lat="45.7617728" lon="12.0940855"><ele>89.0</ele><time>2026-04-04T12:22:31.176Z</time></trkpt><trkpt lat="45.7617176" lon="12.0938957"><ele>89.0</ele><time>2026-04-04T12:22:32.182Z</time></trkpt><trkpt lat="45.7616508" lon="12.093705"><ele>89.0</ele><time>2026-04-04T12:22:33.186Z</time></trkpt><trkpt lat="45.7615897" lon="12.0935254"><ele>89.0</ele><time>2026-04-04T12:22:34.169Z</time></trkpt><trkpt lat="45.761536" lon="12.093355"><ele>89.0</ele><time>2026-04-04T12:22:35.172Z</time></trkpt><trkpt lat="45.7614911" lon="12.093198"><ele>88.80000000000001</ele><time>2026-04-04T12:22:36.185Z</time></trkpt><trkpt lat="45.7614516" lon="12.0930527"><ele>88.60000000000001</ele><time>2026-04-04T12:22:37.173Z</time></trkpt><trkpt lat="45.7614181" lon="12.0929253"><ele>88.4</ele><time>2026-04-04T12:22:38.165Z</time></trkpt><trkpt lat="45.7613876" lon="12.0928257"><ele>88.2</ele><time>2026-04-04T12:22:39.176Z</time></trkpt><trkpt lat="45.7613417" lon="12.0926838"><ele>88.0</ele><time>2026-04-04T12:22:41.18Z</time></trkpt><trkpt lat="45.7612966" lon="12.0925134"><ele>88.25</ele><time>2026-04-04T12:22:43.188Z</time></trkpt><trkpt lat="45.7612169" lon="12.0923663"><ele>88.5</ele><time>2026-04-04T12:22:45.183Z</time></trkpt><trkpt lat="45.7612051" lon="12.0922016"><ele>88.75</ele><time>2026-04-04T12:22:46.181Z</time></trkpt><trkpt lat="45.7611729" lon="12.0920513"><ele>89.0</ele><time>2026-04-04T12:22:47.193Z</time></trkpt><trkpt lat="45.7611493" lon="12.0919021"><ele>89.0</ele><time>2026-04-04T12:22:48.189Z</time></trkpt><trkpt lat="45.7611282" lon="12.0917453"><ele>89.0</ele><time>2026-04-04T12:22:49.175Z</time></trkpt><trkpt lat="45.761101" lon="12.0915599"><ele>89.0</ele><time>2026-04-04T12:22:50.188Z</time></trkpt><trkpt lat="45.7610796" lon="12.0913998"><ele>89.0</ele><time>2026-04-04T12:22:51.183Z</time></trkpt><trkpt lat="45.7610599" lon="12.0912557"><ele>88.83333333333334</ele><time>2026-04-04T12:22:52.184Z</time></trkpt><trkpt lat="45.7610531" lon="12.0911313"><ele>88.66666666666667</ele><time>2026-04-04T12:22:53.192Z</time></trkpt><trkpt lat="45.7610623" lon="12.0910302"><ele>88.5</ele><time>2026-04-04T12:22:54.184Z</time></trkpt><trkpt lat="45.7610905" lon="12.090933"><ele>88.33333333333333</ele><time>2026-04-04T12:22:55.182Z</time></trkpt><trkpt lat="45.761142" lon="12.0908426"><ele>88.16666666666666</ele><time>2026-04-04T12:22:56.18Z</time></trkpt><trkpt lat="45.7611998" lon="12.0907477"><ele>88.0</ele><time>2026-04-04T12:22:57.175Z</time></trkpt><trkpt lat="45.7612384" lon="12.0906357"><ele>88.33333333333333</ele><time>2026-04-04T12:22:58.175Z</time></trkpt><trkpt lat="45.7612568" lon="12.0905207"><ele>88.66666666666666</ele><time>2026-04-04T12:22:59.191Z</time></trkpt><trkpt lat="45.7612539" lon="12.0904029"><ele>89.0</ele><time>2026-04-04T12:23:00.174Z</time></trkpt><trkpt lat="45.7612242" lon="12.090294"><ele>89.33333333333333</ele><time>2026-04-04T12:23:01.172Z</time></trkpt><trkpt lat="45.7611703" lon="12.0902036"><ele>89.66666666666667</ele><time>2026-04-04T12:23:02.171Z</time></trkpt><trkpt lat="45.7610966" lon="12.0901416"><ele>90.0</ele><time>2026-04-04T12:23:03.179Z</time></trkpt><trkpt lat="45.7610112" lon="12.0901232"><ele>90.2</ele><time>2026-04-04T12:23:04.189Z</time></trkpt><trkpt lat="45.7609266" lon="12.09015"><ele>90.4</ele><time>2026-04-04T12:23:05.174Z</time></trkpt><trkpt lat="45.7608541" lon="12.0902135"><ele>90.6</ele><time>2026-04-04T12:23:06.183Z</time></trkpt><trkpt lat="45.7607981" lon="12.0903057"><ele>90.8</ele><time>2026-04-04T12:23:07.177Z</time></trkpt><trkpt lat="45.7607583" lon="12.0904266"><ele>91.0</ele><time>2026-04-04T12:23:08.186Z</time></trkpt><trkpt lat="45.7607121" lon="12.0905589"><ele>91.0</ele><time>2026-04-04T12:23:09.188Z</time></trkpt><trkpt lat="45.7606402" lon="12.0906735"><ele>91.0</ele><time>2026-04-04T12:23:10.186Z</time></trkpt><trkpt lat="45.7605472" lon="12.0907599"><ele>91.0</ele><time>2026-04-04T12:23:11.175Z</time></trkpt><trkpt lat="45.7604429" lon="12.0908302"><ele>91.0</ele><time>2026-04-04T12:23:12.191Z</time></trkpt><trkpt lat="45.7603315" lon="12.0909018"><ele>91.0</ele><time>2026-04-04T12:23:13.188Z</time></trkpt><trkpt lat="45.7602178" lon="12.0909766"><ele>91.0</ele><time>2026-04-04T12:23:14.184Z</time></trkpt><trkpt lat="45.7601039" lon="12.0910606"><ele>91.0</ele><time>2026-04-04T12:23:15.192Z</time></trkpt><trkpt lat="45.7599934" lon="12.0911619"><ele>91.0</ele><time>2026-04-04T12:23:16.184Z</time></trkpt><trkpt lat="45.7598838" lon="12.091271"><ele>91.0</ele><time>2026-04-04T12:23:17.193Z</time></trkpt><trkpt lat="45.7597756" lon="12.0913846"><ele>91.0</ele><time>2026-04-04T12:23:18.182Z</time></trkpt><trkpt lat="45.7596696" lon="12.0915073"><ele>91.0</ele><time>2026-04-04T12:23:19.191Z</time></trkpt><trkpt lat="45.7595643" lon="12.0916361"><ele>91.0</ele><time>2026-04-04T12:23:20.187Z</time></trkpt><trkpt lat="45.7594499" lon="12.0917654"><ele>90.25</ele><time>2026-04-04T12:23:21.18Z</time></trkpt><trkpt lat="45.7593299" lon="12.091876"><ele>89.5</ele><time>2026-04-04T12:23:22.173Z</time></trkpt><trkpt lat="45.7592102" lon="12.0919581"><ele>88.75</ele><time>2026-04-04T12:23:23.185Z</time></trkpt><trkpt lat="45.7590857" lon="12.0920175"><ele>88.0</ele><time>2026-04-04T12:23:24.188Z</time></trkpt><trkpt lat="45.758958" lon="12.0920596"><ele>88.0</ele><time>2026-04-04T12:23:25.205Z</time></trkpt><trkpt lat="45.7588348" lon="12.0920925"><ele>88.0</ele><time>2026-04-04T12:23:26.197Z</time></trkpt><trkpt lat="45.7587211" lon="12.0921184"><ele>88.0</ele><time>2026-04-04T12:23:27.193Z</time></trkpt><trkpt lat="45.7586141" lon="12.0921364"><ele>88.0</ele><time>2026-04-04T12:23:28.181Z</time></trkpt><trkpt lat="45.7585072" lon="12.0921329"><ele>88.4</ele><time>2026-04-04T12:23:29.191Z</time></trkpt><trkpt lat="45.758405" lon="12.092106"><ele>88.80000000000001</ele><time>2026-04-04T12:23:30.186Z</time></trkpt><trkpt lat="45.7583116" lon="12.0921071"><ele>89.2</ele><time>2026-04-04T12:23:31.191Z</time></trkpt><trkpt lat="45.7582258" lon="12.0921594"><ele>89.6</ele><time>2026-04-04T12:23:32.184Z</time></trkpt><trkpt lat="45.7581583" lon="12.0922592"><ele>90.0</ele><time>2026-04-04T12:23:33.188Z</time></trkpt><trkpt lat="45.7581205" lon="12.0923933"><ele>89.5</ele><time>2026-04-04T12:23:34.175Z</time></trkpt><trkpt lat="45.7581209" lon="12.0925437"><ele>89.0</ele><time>2026-04-04T12:23:35.183Z</time></trkpt><trkpt lat="45.7581404" lon="12.0927003"><ele>88.5</ele><time>2026-04-04T12:23:36.185Z</time></trkpt><trkpt lat="45.7581457" lon="12.0928681"><ele>88.0</ele><time>2026-04-04T12:23:37.18Z</time></trkpt><trkpt lat="45.7581232" lon="12.0930467"><ele>88.0</ele><time>2026-04-04T12:23:38.178Z</time></trkpt><trkpt lat="45.7580764" lon="12.0932304"><ele>88.0</ele><time>2026-04-04T12:23:39.183Z</time></trkpt><trkpt lat="45.7580067" lon="12.0934127"><ele>88.0</ele><time>2026-04-04T12:23:40.184Z</time></trkpt><trkpt lat="45.7579174" lon="12.0935919"><ele>88.0</ele><time>2026-04-04T12:23:41.184Z</time></trkpt><trkpt lat="45.75781" lon="12.0937654"><ele>87.66666666666666</ele><time>2026-04-04T12:23:42.195Z</time></trkpt><trkpt lat="45.7576885" lon="12.0939357"><ele>87.33333333333333</ele><time>2026-04-04T12:23:43.195Z</time></trkpt><trkpt lat="45.7575642" lon="12.0941081"><ele>87.0</ele><time>2026-04-04T12:23:44.192Z</time></trkpt><trkpt lat="45.7574418" lon="12.0942871"><ele>87.0</ele><time>2026-04-04T12:23:45.192Z</time></trkpt><trkpt lat="45.7573228" lon="12.0944685"><ele>87.0</ele><time>2026-04-04T12:23:46.191Z</time></trkpt><trkpt lat="45.7572043" lon="12.0946522"><ele>87.0</ele><time>2026-04-04T12:23:47.183Z</time></trkpt><trkpt lat="45.7570866" lon="12.0948377"><ele>87.33333333333333</ele><time>2026-04-04T12:23:48.187Z</time></trkpt><trkpt lat="45.7569714" lon="12.0950224"><ele>87.66666666666666</ele><time>2026-04-04T12:23:49.185Z</time></trkpt><trkpt lat="45.75686" lon="12.0952049"><ele>88.0</ele><time>2026-04-04T12:23:50.187Z</time></trkpt><trkpt lat="45.75675" lon="12.0953864"><ele>88.0</ele><time>2026-04-04T12:23:51.193Z</time></trkpt><trkpt lat="45.7566417" lon="12.0955645"><ele>88.0</ele><time>2026-04-04T12:23:52.191Z</time></trkpt><trkpt lat="45.7565381" lon="12.0957331"><ele>88.0</ele><time>2026-04-04T12:23:53.179Z</time></trkpt><trkpt lat="45.7564351" lon="12.0959005"><ele>88.0</ele><time>2026-04-04T12:23:54.189Z</time></trkpt><trkpt lat="45.7563316" lon="12.0960673"><ele>88.0</ele><time>2026-04-04T12:23:55.193Z</time></trkpt><trkpt lat="45.7562275" lon="12.0962341"><ele>88.0</ele><time>2026-04-04T12:23:56.208Z</time></trkpt><trkpt lat="45.7561231" lon="12.0964015"><ele>88.0</ele><time>2026-04-04T12:23:57.183Z</time></trkpt><trkpt lat="45.7560189" lon="12.0965665"><ele>88.0</ele><time>2026-04-04T12:23:58.195Z</time></trkpt><trkpt lat="45.7559186" lon="12.0967175"><ele>88.0</ele><time>2026-04-04T12:23:59.19Z</time></trkpt><trkpt lat="45.755818" lon="12.0968554"><ele>88.0</ele><time>2026-04-04T12:24:00.191Z</time></trkpt><trkpt lat="45.7557231" lon="12.0969782"><ele>88.0</ele><time>2026-04-04T12:24:01.192Z</time></trkpt><trkpt lat="45.7556401" lon="12.0970883"><ele>88.0</ele><time>2026-04-04T12:24:02.192Z</time></trkpt><trkpt lat="45.7555651" lon="12.0971929"><ele>88.0</ele><time>2026-04-04T12:24:03.186Z</time></trkpt><trkpt lat="45.7554835" lon="12.0972884"><ele>88.0</ele><time>2026-04-04T12:24:04.189Z</time></trkpt><trkpt lat="45.7554007" lon="12.0973646"><ele>88.0</ele><time>2026-04-04T12:24:05.189Z</time></trkpt><trkpt lat="45.7553287" lon="12.0974396"><ele>87.80000000000001</ele><time>2026-04-04T12:24:06.188Z</time></trkpt><trkpt lat="45.7552796" lon="12.0975398"><ele>87.6</ele><time>2026-04-04T12:24:07.184Z</time></trkpt><trkpt lat="45.7552659" lon="12.0976565"><ele>87.4</ele><time>2026-04-04T12:24:08.183Z</time></trkpt><trkpt lat="45.7552896" lon="12.0977737"><ele>87.19999999999999</ele><time>2026-04-04T12:24:09.179Z</time></trkpt><trkpt lat="45.7553483" lon="12.0978795"><ele>87.0</ele><time>2026-04-04T12:24:10.181Z</time></trkpt><trkpt lat="45.7554398" lon="12.0979741"><ele>87.0</ele><time>2026-04-04T12:24:11.182Z</time></trkpt><trkpt lat="45.7555452" lon="12.0980813"><ele>87.0</ele><time>2026-04-04T12:24:12.181Z</time></trkpt><trkpt lat="45.7556483" lon="12.0982164"><ele>87.0</ele><time>2026-04-04T12:24:13.179Z</time></trkpt><trkpt lat="45.7557506" lon="12.0983754"><ele>87.0</ele><time>2026-04-04T12:24:14.182Z</time></trkpt><trkpt lat="45.7558561" lon="12.0985421"><ele>86.0</ele><time>2026-04-04T12:24:15.176Z</time></trkpt><trkpt lat="45.7559617" lon="12.0987114"><ele>85.0</ele><time>2026-04-04T12:24:16.191Z</time></trkpt><trkpt lat="45.7560673" lon="12.0988891"><ele>84.0</ele><time>2026-04-04T12:24:17.182Z</time></trkpt><trkpt lat="45.7561744" lon="12.099072"><ele>83.66666666666667</ele><time>2026-04-04T12:24:18.19Z</time></trkpt><trkpt lat="45.7562835" lon="12.0992599"><ele>83.33333333333334</ele><time>2026-04-04T12:24:19.185Z</time></trkpt><trkpt lat="45.7563939" lon="12.0994542"><ele>83.0</ele><time>2026-04-04T12:24:20.188Z</time></trkpt><trkpt lat="45.7565051" lon="12.0996553"><ele>83.0</ele><time>2026-04-04T12:24:21.193Z</time></trkpt><trkpt lat="45.7566128" lon="12.0998648"><ele>83.0</ele><time>2026-04-04T12:24:22.187Z</time></trkpt><trkpt lat="45.7567111" lon="12.1000881"><ele>83.0</ele><time>2026-04-04T12:24:23.19Z</time></trkpt><trkpt lat="45.756792" lon="12.1003304"><ele>83.33333333333334</ele><time>2026-04-04T12:24:24.196Z</time></trkpt><trkpt lat="45.7568537" lon="12.1005831"><ele>83.66666666666667</ele><time>2026-04-04T12:24:25.191Z</time></trkpt><trkpt lat="45.7568967" lon="12.1008307"><ele>84.0</ele><time>2026-04-04T12:24:26.168Z</time></trkpt><trkpt lat="45.7569221" lon="12.1010698"><ele>84.33333333333333</ele><time>2026-04-04T12:24:27.178Z</time></trkpt><trkpt lat="45.7569319" lon="12.1013125"><ele>84.66666666666666</ele><time>2026-04-04T12:24:28.192Z</time></trkpt><trkpt lat="45.7569245" lon="12.1015577"><ele>85.0</ele><time>2026-04-04T12:24:29.183Z</time></trkpt><trkpt lat="45.756899" lon="12.1018049"><ele>85.0</ele><time>2026-04-04T12:24:30.19Z</time></trkpt><trkpt lat="45.7568568" lon="12.1020532"><ele>85.0</ele><time>2026-04-04T12:24:31.183Z</time></trkpt><trkpt lat="45.7567977" lon="12.1023028"><ele>85.0</ele><time>2026-04-04T12:24:32.189Z</time></trkpt><trkpt lat="45.7567241" lon="12.102553"><ele>85.0</ele><time>2026-04-04T12:24:33.195Z</time></trkpt><trkpt lat="45.7566357" lon="12.1028009"><ele>85.0</ele><time>2026-04-04T12:24:34.185Z</time></trkpt><trkpt lat="45.7565389" lon="12.103033"><ele>85.0</ele><time>2026-04-04T12:24:35.189Z</time></trkpt><trkpt lat="45.7564216" lon="12.1032601"><ele>85.0</ele><time>2026-04-04T12:24:36.198Z</time></trkpt><trkpt lat="45.7563021" lon="12.1034962"><ele>85.0</ele><time>2026-04-04T12:24:37.199Z</time></trkpt><trkpt lat="45.7561937" lon="12.10374"><ele>85.0</ele><time>2026-04-04T12:24:38.19Z</time></trkpt><trkpt lat="45.7560853" lon="12.10399"><ele>85.0</ele><time>2026-04-04T12:24:39.196Z</time></trkpt><trkpt lat="45.7559853" lon="12.1042451"><ele>85.0</ele><time>2026-04-04T12:24:40.196Z</time></trkpt><trkpt lat="45.7558954" lon="12.1045048"><ele>85.0</ele><time>2026-04-04T12:24:41.189Z</time></trkpt><trkpt lat="45.7558085" lon="12.1047729"><ele>84.33333333333333</ele><time>2026-04-04T12:24:42.19Z</time></trkpt><trkpt lat="45.755727" lon="12.1050507"><ele>83.66666666666667</ele><time>2026-04-04T12:24:43.189Z</time></trkpt><trkpt lat="45.7556508" lon="12.1053378"><ele>83.0</ele><time>2026-04-04T12:24:44.194Z</time></trkpt><trkpt lat="45.7555818" lon="12.105634"><ele>82.33333333333334</ele><time>2026-04-04T12:24:45.191Z</time></trkpt><trkpt lat="45.75552" lon="12.1059358"><ele>81.66666666666667</ele><time>2026-04-04T12:24:46.192Z</time></trkpt><trkpt lat="45.7554661" lon="12.1062417"><ele>81.0</ele><time>2026-04-04T12:24:47.191Z</time></trkpt><trkpt lat="45.7554211" lon="12.1065544"><ele>80.5</ele><time>2026-04-04T12:24:48.192Z</time></trkpt><trkpt lat="45.7553852" lon="12.1068748"><ele>80.0</ele><time>2026-04-04T12:24:49.175Z</time></trkpt><trkpt lat="45.755355" lon="12.1072"><ele>80.0</ele><time>2026-04-04T12:24:50.195Z</time></trkpt><trkpt lat="45.7553274" lon="12.1075293"><ele>80.0</ele><time>2026-04-04T12:24:51.197Z</time></trkpt><trkpt lat="45.7553029" lon="12.1078598"><ele>80.0</ele><time>2026-04-04T12:24:52.189Z</time></trkpt><trkpt lat="45.7552803" lon="12.1081824"><ele>80.0</ele><time>2026-04-04T12:24:53.191Z</time></trkpt><trkpt lat="45.7552556" lon="12.1084966"><ele>80.0</ele><time>2026-04-04T12:24:54.189Z</time></trkpt><trkpt lat="45.7552314" lon="12.108809"><ele>80.0</ele><time>2026-04-04T12:24:55.183Z</time></trkpt><trkpt lat="45.7552077" lon="12.1091217"><ele>80.0</ele><time>2026-04-04T12:24:56.192Z</time></trkpt><trkpt lat="45.7551863" lon="12.109432"><ele>80.0</ele><time>2026-04-04T12:24:57.193Z</time></trkpt><trkpt lat="45.7551677" lon="12.1097427"><ele>79.66666666666667</ele><time>2026-04-04T12:24:58.183Z</time></trkpt><trkpt lat="45.7551497" lon="12.1100564"><ele>79.33333333333333</ele><time>2026-04-04T12:24:59.184Z</time></trkpt><trkpt lat="45.7551262" lon="12.1103699"><ele>79.0</ele><time>2026-04-04T12:25:00.183Z</time></trkpt><trkpt lat="45.7550881" lon="12.1106847"><ele>80.0</ele><time>2026-04-04T12:25:01.189Z</time></trkpt><trkpt lat="45.7550314" lon="12.110998"><ele>81.0</ele><time>2026-04-04T12:25:02.188Z</time></trkpt><trkpt lat="45.754959" lon="12.1113078"><ele>80.0</ele><time>2026-04-04T12:25:03.197Z</time></trkpt><trkpt lat="45.7548746" lon="12.1116128"><ele>79.0</ele><time>2026-04-04T12:25:04.186Z</time></trkpt><trkpt lat="45.7547835" lon="12.1119161"><ele>79.0</ele><time>2026-04-04T12:25:05.189Z</time></trkpt><trkpt lat="45.7546855" lon="12.1122168"><ele>79.0</ele><time>2026-04-04T12:25:06.188Z</time></trkpt><trkpt lat="45.7545773" lon="12.1125129"><ele>79.0</ele><time>2026-04-04T12:25:07.194Z</time></trkpt><trkpt lat="45.7544658" lon="12.1128064"><ele>79.0</ele><time>2026-04-04T12:25:08.18Z</time></trkpt><trkpt lat="45.754364" lon="12.1130837"><ele>78.66666666666666</ele><time>2026-04-04T12:25:09.191Z</time></trkpt><trkpt lat="45.7542675" lon="12.1133514"><ele>78.33333333333333</ele><time>2026-04-04T12:25:10.185Z</time></trkpt><trkpt lat="45.7541755" lon="12.1136077"><ele>78.0</ele><time>2026-04-04T12:25:11.188Z</time></trkpt><trkpt lat="45.7540866" lon="12.1138533"><ele>78.33333333333333</ele><time>2026-04-04T12:25:12.196Z</time></trkpt><trkpt lat="45.7540028" lon="12.114084"><ele>78.66666666666666</ele><time>2026-04-04T12:25:13.195Z</time></trkpt><trkpt lat="45.7539238" lon="12.1143003"><ele>79.0</ele><time>2026-04-04T12:25:14.175Z</time></trkpt><trkpt lat="45.7538496" lon="12.1145023"><ele>79.0</ele><time>2026-04-04T12:25:15.185Z</time></trkpt><trkpt lat="45.7537786" lon="12.1146895"><ele>79.0</ele><time>2026-04-04T12:25:16.191Z</time></trkpt><trkpt lat="45.7537114" lon="12.1148619"><ele>79.0</ele><time>2026-04-04T12:25:17.193Z</time></trkpt><trkpt lat="45.7536518" lon="12.11501"><ele>79.0</ele><time>2026-04-04T12:25:18.189Z</time></trkpt><trkpt lat="45.7535992" lon="12.1151351"><ele>79.4</ele><time>2026-04-04T12:25:19.191Z</time></trkpt><trkpt lat="45.753536" lon="12.1152369"><ele>79.80000000000001</ele><time>2026-04-04T12:25:20.185Z</time></trkpt><trkpt lat="45.753454" lon="12.1153055"><ele>80.19999999999999</ele><time>2026-04-04T12:25:21.192Z</time></trkpt><trkpt lat="45.7533681" lon="12.1153541"><ele>80.6</ele><time>2026-04-04T12:25:22.189Z</time></trkpt><trkpt lat="45.7532957" lon="12.1154292"><ele>81.0</ele><time>2026-04-04T12:25:23.191Z</time></trkpt><trkpt lat="45.7532495" lon="12.1155354"><ele>81.0</ele><time>2026-04-04T12:25:24.192Z</time></trkpt><trkpt lat="45.7532302" lon="12.1156611"><ele>81.0</ele><time>2026-04-04T12:25:25.179Z</time></trkpt><trkpt lat="45.7532454" lon="12.115786"><ele>81.0</ele><time>2026-04-04T12:25:26.169Z</time></trkpt><trkpt lat="45.7532981" lon="12.1158935"><ele>81.0</ele><time>2026-04-04T12:25:27.183Z</time></trkpt><trkpt lat="45.7533812" lon="12.1159655"><ele>81.0</ele><time>2026-04-04T12:25:28.191Z</time></trkpt><trkpt lat="45.753485" lon="12.115999"><ele>80.25</ele><time>2026-04-04T12:25:29.188Z</time></trkpt><trkpt lat="45.7535983" lon="12.1160475"><ele>79.5</ele><time>2026-04-04T12:25:30.181Z</time></trkpt><trkpt lat="45.7537069" lon="12.1161407"><ele>78.75</ele><time>2026-04-04T12:25:31.177Z</time></trkpt><trkpt lat="45.7538115" lon="12.1162727"><ele>78.0</ele><time>2026-04-04T12:25:32.191Z</time></trkpt><trkpt lat="45.7539114" lon="12.1164317"><ele>78.33333333333333</ele><time>2026-04-04T12:25:33.187Z</time></trkpt><trkpt lat="45.7540134" lon="12.1166003"><ele>78.66666666666666</ele><time>2026-04-04T12:25:34.193Z</time></trkpt><trkpt lat="45.7541218" lon="12.1167765"><ele>79.0</ele><time>2026-04-04T12:25:35.189Z</time></trkpt><trkpt lat="45.754236" lon="12.1169613"><ele>79.0</ele><time>2026-04-04T12:25:36.19Z</time></trkpt><trkpt lat="45.754352" lon="12.1171548"><ele>79.0</ele><time>2026-04-04T12:25:37.198Z</time></trkpt><trkpt lat="45.7544692" lon="12.1173525"><ele>79.0</ele><time>2026-04-04T12:25:38.195Z</time></trkpt><trkpt lat="45.7545895" lon="12.1175515"><ele>79.0</ele><time>2026-04-04T12:25:39.194Z</time></trkpt><trkpt lat="45.7547112" lon="12.1177483"><ele>79.0</ele><time>2026-04-04T12:25:40.189Z</time></trkpt><trkpt lat="45.7548324" lon="12.1179444"><ele>79.0</ele><time>2026-04-04T12:25:41.195Z</time></trkpt><trkpt lat="45.7549535" lon="12.1181375"><ele>79.33333333333333</ele><time>2026-04-04T12:25:42.185Z</time></trkpt><trkpt lat="45.7550772" lon="12.1183328"><ele>79.66666666666667</ele><time>2026-04-04T12:25:43.191Z</time></trkpt><trkpt lat="45.7552029" lon="12.1185313"><ele>80.0</ele><time>2026-04-04T12:25:44.193Z</time></trkpt><trkpt lat="45.7553308" lon="12.118729"><ele>80.0</ele><time>2026-04-04T12:25:45.183Z</time></trkpt><trkpt lat="45.755462" lon="12.1189253"><ele>80.0</ele><time>2026-04-04T12:25:46.19Z</time></trkpt><trkpt lat="45.7556034" lon="12.1191134"><ele>80.0</ele><time>2026-04-04T12:25:47.182Z</time></trkpt><trkpt lat="45.755756" lon="12.1192903"><ele>79.66666666666667</ele><time>2026-04-04T12:25:48.179Z</time></trkpt><trkpt lat="45.7559164" lon="12.1194621"><ele>79.33333333333333</ele><time>2026-04-04T12:25:49.176Z</time></trkpt><trkpt lat="45.7560814" lon="12.1196358"><ele>79.0</ele><time>2026-04-04T12:25:50.187Z</time></trkpt><trkpt lat="45.756245" lon="12.1198107"><ele>78.66666666666666</ele><time>2026-04-04T12:25:51.187Z</time></trkpt><trkpt lat="45.7564072" lon="12.1199821"><ele>78.33333333333333</ele><time>2026-04-04T12:25:52.18Z</time></trkpt><trkpt lat="45.7565688" lon="12.1201465"><ele>78.0</ele><time>2026-04-04T12:25:53.205Z</time></trkpt><trkpt lat="45.7567341" lon="12.1202951"><ele>77.66666666666667</ele><time>2026-04-04T12:25:54.195Z</time></trkpt><trkpt lat="45.756906" lon="12.120424"><ele>77.33333333333334</ele><time>2026-04-04T12:25:55.189Z</time></trkpt><trkpt lat="45.757082" lon="12.1205356"><ele>77.0</ele><time>2026-04-04T12:25:56.188Z</time></trkpt><trkpt lat="45.7572563" lon="12.1206351"><ele>77.0</ele><time>2026-04-04T12:25:57.191Z</time></trkpt><trkpt lat="45.7574238" lon="12.1207368"><ele>77.0</ele><time>2026-04-04T12:25:58.184Z</time></trkpt><trkpt lat="45.7575839" lon="12.1208307"><ele>77.0</ele><time>2026-04-04T12:25:59.179Z</time></trkpt><trkpt lat="45.7577335" lon="12.1209264"><ele>77.66666666666667</ele><time>2026-04-04T12:26:00.185Z</time></trkpt><trkpt lat="45.7578852" lon="12.1210313"><ele>78.33333333333333</ele><time>2026-04-04T12:26:01.182Z</time></trkpt><trkpt lat="45.7580391" lon="12.1211561"><ele>79.0</ele><time>2026-04-04T12:26:02.187Z</time></trkpt><trkpt lat="45.7581952" lon="12.1213026"><ele>79.0</ele><time>2026-04-04T12:26:03.187Z</time></trkpt><trkpt lat="45.7583479" lon="12.1214713"><ele>79.0</ele><time>2026-04-04T12:26:04.193Z</time></trkpt><trkpt lat="45.7584974" lon="12.1216599"><ele>79.0</ele><time>2026-04-04T12:26:05.196Z</time></trkpt><trkpt lat="45.75865" lon="12.1218572"><ele>78.66666666666666</ele><time>2026-04-04T12:26:06.188Z</time></trkpt><trkpt lat="45.7587983" lon="12.122059"><ele>78.33333333333333</ele><time>2026-04-04T12:26:07.185Z</time></trkpt><trkpt lat="45.758922" lon="12.122236"><ele>78.0</ele><time>2026-04-04T12:26:08.197Z</time></trkpt><trkpt lat="45.7590288" lon="12.1224014"><ele>78.25</ele><time>2026-04-04T12:26:09.186Z</time></trkpt><trkpt lat="45.7591204" lon="12.1225501"><ele>78.5</ele><time>2026-04-04T12:26:10.195Z</time></trkpt><trkpt lat="45.7592056" lon="12.1226875"><ele>78.75</ele><time>2026-04-04T12:26:11.195Z</time></trkpt><trkpt lat="45.7592946" lon="12.1228274"><ele>79.0</ele><time>2026-04-04T12:26:12.187Z</time></trkpt><trkpt lat="45.7593911" lon="12.1229769"><ele>79.0</ele><time>2026-04-04T12:26:13.18Z</time></trkpt><trkpt lat="45.759495" lon="12.1231355"><ele>79.0</ele><time>2026-04-04T12:26:14.192Z</time></trkpt><trkpt lat="45.7596061" lon="12.1233067"><ele>79.0</ele><time>2026-04-04T12:26:15.182Z</time></trkpt><trkpt lat="45.759724" lon="12.1234887"><ele>79.0</ele><time>2026-04-04T12:26:16.189Z</time></trkpt><trkpt lat="45.7598476" lon="12.1236762"><ele>79.0</ele><time>2026-04-04T12:26:17.185Z</time></trkpt><trkpt lat="45.759976" lon="12.1238624"><ele>79.0</ele><time>2026-04-04T12:26:18.214Z</time></trkpt><trkpt lat="45.7601116" lon="12.1240439"><ele>78.33333333333333</ele><time>2026-04-04T12:26:19.191Z</time></trkpt><trkpt lat="45.7602552" lon="12.1242226"><ele>77.66666666666667</ele><time>2026-04-04T12:26:20.196Z</time></trkpt><trkpt lat="45.7604046" lon="12.124402"><ele>77.0</ele><time>2026-04-04T12:26:21.188Z</time></trkpt><trkpt lat="45.7605556" lon="12.1245869"><ele>77.0</ele><time>2026-04-04T12:26:22.181Z</time></trkpt><trkpt lat="45.760704" lon="12.1247634"><ele>77.0</ele><time>2026-04-04T12:26:23.189Z</time></trkpt><trkpt lat="45.760848" lon="12.1249349"><ele>77.0</ele><time>2026-04-04T12:26:24.196Z</time></trkpt><trkpt lat="45.7609866" lon="12.1251007"><ele>77.33333333333334</ele><time>2026-04-04T12:26:25.19Z</time></trkpt><trkpt lat="45.761109" lon="12.1252472"><ele>77.66666666666667</ele><time>2026-04-04T12:26:26.191Z</time></trkpt><trkpt lat="45.7612298" lon="12.1253889"><ele>78.0</ele><time>2026-04-04T12:26:27.19Z</time></trkpt><trkpt lat="45.7613433" lon="12.12554"><ele>78.0</ele><time>2026-04-04T12:26:28.192Z</time></trkpt><trkpt lat="45.7614631" lon="12.1256807"><ele>78.0</ele><time>2026-04-04T12:26:29.186Z</time></trkpt><trkpt lat="45.7615912" lon="12.1258192"><ele>78.0</ele><time>2026-04-04T12:26:30.186Z</time></trkpt><trkpt lat="45.7617291" lon="12.1259435"><ele>78.0</ele><time>2026-04-04T12:26:31.186Z</time></trkpt><trkpt lat="45.7618801" lon="12.1260584"><ele>78.0</ele><time>2026-04-04T12:26:32.187Z</time></trkpt><trkpt lat="45.7620319" lon="12.1261696"><ele>78.0</ele><time>2026-04-04T12:26:33.186Z</time></trkpt><trkpt lat="45.7621789" lon="12.1262766"><ele>78.0</ele><time>2026-04-04T12:26:34.172Z</time></trkpt><trkpt lat="45.7623156" lon="12.1263989"><ele>78.0</ele><time>2026-04-04T12:26:35.176Z</time></trkpt><trkpt lat="45.7624438" lon="12.1265164"><ele>78.0</ele><time>2026-04-04T12:26:36.187Z</time></trkpt><trkpt lat="45.7625676" lon="12.1266343"><ele>78.25</ele><time>2026-04-04T12:26:37.189Z</time></trkpt><trkpt lat="45.7626937" lon="12.1267569"><ele>78.5</ele><time>2026-04-04T12:26:38.192Z</time></trkpt><trkpt lat="45.7628155" lon="12.1268821"><ele>78.75</ele><time>2026-04-04T12:26:39.187Z</time></trkpt><trkpt lat="45.7629336" lon="12.1270063"><ele>79.0</ele><time>2026-04-04T12:26:40.194Z</time></trkpt><trkpt lat="45.7630531" lon="12.1271359"><ele>79.0</ele><time>2026-04-04T12:26:41.194Z</time></trkpt><trkpt lat="45.7631731" lon="12.127274"><ele>79.0</ele><time>2026-04-04T12:26:42.195Z</time></trkpt><trkpt lat="45.7632949" lon="12.127407"><ele>79.0</ele><time>2026-04-04T12:26:43.191Z</time></trkpt><trkpt lat="45.7634183" lon="12.1275435"><ele>78.66666666666666</ele><time>2026-04-04T12:26:44.192Z</time></trkpt><trkpt lat="45.76354" lon="12.1276818"><ele>78.33333333333333</ele><time>2026-04-04T12:26:45.177Z</time></trkpt><trkpt lat="45.763658" lon="12.1278167"><ele>78.0</ele><time>2026-04-04T12:26:46.166Z</time></trkpt><trkpt lat="45.7637733" lon="12.1279552"><ele>78.0</ele><time>2026-04-04T12:26:47.199Z</time></trkpt><trkpt lat="45.7638888" lon="12.1280949"><ele>78.0</ele><time>2026-04-04T12:26:48.189Z</time></trkpt><trkpt lat="45.764005" lon="12.1282367"><ele>78.0</ele><time>2026-04-04T12:26:49.193Z</time></trkpt><trkpt lat="45.7641216" lon="12.1283783"><ele>78.0</ele><time>2026-04-04T12:26:50.186Z</time></trkpt><trkpt lat="45.7642368" lon="12.1285177"><ele>78.0</ele><time>2026-04-04T12:26:51.188Z</time></trkpt><trkpt lat="45.7643505" lon="12.1286541"><ele>78.0</ele><time>2026-04-04T12:26:52.182Z</time></trkpt><trkpt lat="45.7644618" lon="12.1287856"><ele>78.0</ele><time>2026-04-04T12:26:53.192Z</time></trkpt><trkpt lat="45.7645655" lon="12.1289105"><ele>78.0</ele><time>2026-04-04T12:26:54.193Z</time></trkpt><trkpt lat="45.7646623" lon="12.1290304"><ele>78.0</ele><time>2026-04-04T12:26:55.189Z</time></trkpt><trkpt lat="45.7647514" lon="12.1291436"><ele>78.0</ele><time>2026-04-04T12:26:56.193Z</time></trkpt><trkpt lat="45.7648327" lon="12.1292489"><ele>78.0</ele><time>2026-04-04T12:26:57.176Z</time></trkpt><trkpt lat="45.7649066" lon="12.1293464"><ele>78.0</ele><time>2026-04-04T12:26:58.199Z</time></trkpt><trkpt lat="45.7649688" lon="12.1294265"><ele>78.0</ele><time>2026-04-04T12:26:59.201Z</time></trkpt><trkpt lat="45.7650173" lon="12.1294884"><ele>78.0</ele><time>2026-04-04T12:27:00.177Z</time></trkpt><trkpt lat="45.7650965" lon="12.1295905"><ele>78.0</ele><time>2026-04-04T12:27:02.186Z</time></trkpt><trkpt lat="45.7651604" lon="12.1296821"><ele>78.0</ele><time>2026-04-04T12:27:04.181Z</time></trkpt><trkpt lat="45.7652352" lon="12.1297931"><ele>78.16666666666667</ele><time>2026-04-04T12:27:06.189Z</time></trkpt><trkpt lat="45.7652782" lon="12.1298648"><ele>78.33333333333333</ele><time>2026-04-04T12:27:07.178Z</time></trkpt><trkpt lat="45.7653234" lon="12.1299444"><ele>78.5</ele><time>2026-04-04T12:27:08.191Z</time></trkpt><trkpt lat="45.765365" lon="12.1300316"><ele>78.66666666666666</ele><time>2026-04-04T12:27:09.19Z</time></trkpt><trkpt lat="45.7653953" lon="12.130115"><ele>78.83333333333333</ele><time>2026-04-04T12:27:10.191Z</time></trkpt><trkpt lat="45.765424" lon="12.1302898"><ele>79.0</ele><time>2026-04-04T12:27:12.175Z</time></trkpt><trkpt lat="45.7654378" lon="12.1303818"><ele>79.0</ele><time>2026-04-04T12:27:13.171Z</time></trkpt><trkpt lat="45.7654832" lon="12.1304717"><ele>79.0</ele><time>2026-04-04T12:27:14.175Z</time></trkpt><trkpt lat="45.7655463" lon="12.1305108"><ele>79.0</ele><time>2026-04-04T12:27:15.176Z</time></trkpt><trkpt lat="45.7656259" lon="12.1305297"><ele>79.0</ele><time>2026-04-04T12:27:16.18Z</time></trkpt><trkpt lat="45.7657101" lon="12.1305602"><ele>79.0</ele><time>2026-04-04T12:27:17.194Z</time></trkpt><trkpt lat="45.7657788" lon="12.1306084"><ele>79.0</ele><time>2026-04-04T12:27:18.188Z</time></trkpt><trkpt lat="45.7658674" lon="12.1307007"><ele>78.8</ele><time>2026-04-04T12:27:20.182Z</time></trkpt><trkpt lat="45.7659454" lon="12.1307938"><ele>78.60000000000001</ele><time>2026-04-04T12:27:22.193Z</time></trkpt><trkpt lat="45.7660028" lon="12.1308694"><ele>78.4</ele><time>2026-04-04T12:27:23.188Z</time></trkpt><trkpt lat="45.7660792" lon="12.1309632"><ele>78.2</ele><time>2026-04-04T12:27:24.177Z</time></trkpt><trkpt lat="45.766171" lon="12.131072"><ele>78.0</ele><time>2026-04-04T12:27:25.191Z</time></trkpt><trkpt lat="45.7662747" lon="12.1311983"><ele>78.25</ele><time>2026-04-04T12:27:26.195Z</time></trkpt><trkpt lat="45.7663818" lon="12.13133"><ele>78.5</ele><time>2026-04-04T12:27:27.183Z</time></trkpt><trkpt lat="45.7664899" lon="12.1314609"><ele>78.75</ele><time>2026-04-04T12:27:28.193Z</time></trkpt><trkpt lat="45.7666045" lon="12.1316003"><ele>79.0</ele><time>2026-04-04T12:27:29.187Z</time></trkpt><trkpt lat="45.7667368" lon="12.1317538"><ele>79.0</ele><time>2026-04-04T12:27:30.19Z</time></trkpt><trkpt lat="45.7668874" lon="12.1319277"><ele>79.0</ele><time>2026-04-04T12:27:31.185Z</time></trkpt><trkpt lat="45.767038" lon="12.1321214"><ele>79.0</ele><time>2026-04-04T12:27:32.185Z</time></trkpt><trkpt lat="45.7671859" lon="12.1323265"><ele>78.0</ele><time>2026-04-04T12:27:33.198Z</time></trkpt><trkpt lat="45.7673295" lon="12.1325456"><ele>77.0</ele><time>2026-04-04T12:27:34.196Z</time></trkpt><trkpt lat="45.7674704" lon="12.1327676"><ele>76.0</ele><time>2026-04-04T12:27:35.181Z</time></trkpt><trkpt lat="45.7676108" lon="12.1329869"><ele>76.33333333333333</ele><time>2026-04-04T12:27:36.184Z</time></trkpt><trkpt lat="45.7677526" lon="12.1332009"><ele>76.66666666666667</ele><time>2026-04-04T12:27:37.192Z</time></trkpt><trkpt lat="45.7678956" lon="12.1334082"><ele>77.0</ele><time>2026-04-04T12:27:38.192Z</time></trkpt><trkpt lat="45.7680393" lon="12.1336094"><ele>77.0</ele><time>2026-04-04T12:27:39.188Z</time></trkpt><trkpt lat="45.7681844" lon="12.1338068"><ele>77.0</ele><time>2026-04-04T12:27:40.185Z</time></trkpt><trkpt lat="45.7683366" lon="12.1339952"><ele>77.0</ele><time>2026-04-04T12:27:41.191Z</time></trkpt><trkpt lat="45.7684945" lon="12.1341743"><ele>76.66666666666667</ele><time>2026-04-04T12:27:42.189Z</time></trkpt><trkpt lat="45.7686428" lon="12.1343322"><ele>76.33333333333333</ele><time>2026-04-04T12:27:43.194Z</time></trkpt><trkpt lat="45.7687738" lon="12.1344645"><ele>76.0</ele><time>2026-04-04T12:27:44.188Z</time></trkpt><trkpt lat="45.7688887" lon="12.1345837"><ele>76.0</ele><time>2026-04-04T12:27:45.191Z</time></trkpt><trkpt lat="45.7689962" lon="12.1346975"><ele>76.0</ele><time>2026-04-04T12:27:46.188Z</time></trkpt><trkpt lat="45.7691064" lon="12.1348201"><ele>76.0</ele><time>2026-04-04T12:27:47.198Z</time></trkpt><trkpt lat="45.7692224" lon="12.1349557"><ele>76.0</ele><time>2026-04-04T12:27:48.189Z</time></trkpt><trkpt lat="45.7693417" lon="12.1351027"><ele>76.66666666666666</ele><time>2026-04-04T12:27:49.193Z</time></trkpt><trkpt lat="45.769465" lon="12.1352609"><ele>77.33333333333333</ele><time>2026-04-04T12:27:50.174Z</time></trkpt><trkpt lat="45.7695938" lon="12.1354284"><ele>78.0</ele><time>2026-04-04T12:27:51.193Z</time></trkpt><trkpt lat="45.7697308" lon="12.1356044"><ele>78.33333333333333</ele><time>2026-04-04T12:27:52.181Z</time></trkpt><trkpt lat="45.7698752" lon="12.1357848"><ele>78.66666666666666</ele><time>2026-04-04T12:27:53.181Z</time></trkpt><trkpt lat="45.7700276" lon="12.135969"><ele>79.0</ele><time>2026-04-04T12:27:54.191Z</time></trkpt><trkpt lat="45.7701862" lon="12.1361572"><ele>79.33333333333333</ele><time>2026-04-04T12:27:55.197Z</time></trkpt><trkpt lat="45.770344" lon="12.136345"><ele>79.66666666666667</ele><time>2026-04-04T12:27:56.193Z</time></trkpt><trkpt lat="45.7705013" lon="12.1365289"><ele>80.0</ele><time>2026-04-04T12:27:57.212Z</time></trkpt><trkpt lat="45.7706592" lon="12.1367083"><ele>80.0</ele><time>2026-04-04T12:27:58.194Z</time></trkpt><trkpt lat="45.7708121" lon="12.1368798"><ele>80.0</ele><time>2026-04-04T12:27:59.188Z</time></trkpt><trkpt lat="45.770956" lon="12.137043"><ele>80.0</ele><time>2026-04-04T12:28:00.198Z</time></trkpt><trkpt lat="45.7710987" lon="12.1372038"><ele>80.33333333333334</ele><time>2026-04-04T12:28:01.191Z</time></trkpt><trkpt lat="45.7712449" lon="12.1373546"><ele>80.66666666666667</ele><time>2026-04-04T12:28:02.197Z</time></trkpt><trkpt lat="45.7713997" lon="12.1374923"><ele>81.0</ele><time>2026-04-04T12:28:03.188Z</time></trkpt><trkpt lat="45.7715636" lon="12.1376171"><ele>81.0</ele><time>2026-04-04T12:28:04.189Z</time></trkpt><trkpt lat="45.7717371" lon="12.1377386"><ele>81.0</ele><time>2026-04-04T12:28:05.191Z</time></trkpt><trkpt lat="45.7719142" lon="12.1378645"><ele>81.0</ele><time>2026-04-04T12:28:06.197Z</time></trkpt><trkpt lat="45.7720888" lon="12.1380045"><ele>80.33333333333333</ele><time>2026-04-04T12:28:07.189Z</time></trkpt><trkpt lat="45.7722565" lon="12.1381643"><ele>79.66666666666666</ele><time>2026-04-04T12:28:08.194Z</time></trkpt><trkpt lat="45.7724148" lon="12.1383382"><ele>79.0</ele><time>2026-04-04T12:28:09.187Z</time></trkpt><trkpt lat="45.7725708" lon="12.13852"><ele>79.66666666666666</ele><time>2026-04-04T12:28:10.195Z</time></trkpt><trkpt lat="45.7727279" lon="12.1387049"><ele>80.33333333333333</ele><time>2026-04-04T12:28:11.187Z</time></trkpt><trkpt lat="45.7728855" lon="12.1388885"><ele>81.0</ele><time>2026-04-04T12:28:12.186Z</time></trkpt><trkpt lat="45.7730436" lon="12.1390712"><ele>81.0</ele><time>2026-04-04T12:28:13.207Z</time></trkpt><trkpt lat="45.7731982" lon="12.1392482"><ele>81.0</ele><time>2026-04-04T12:28:14.189Z</time></trkpt><trkpt lat="45.773351" lon="12.1394261"><ele>81.0</ele><time>2026-04-04T12:28:15.188Z</time></trkpt><trkpt lat="45.7734982" lon="12.1396025"><ele>80.66666666666667</ele><time>2026-04-04T12:28:16.187Z</time></trkpt><trkpt lat="45.7736381" lon="12.1397732"><ele>80.33333333333334</ele><time>2026-04-04T12:28:17.2Z</time></trkpt><trkpt lat="45.7737655" lon="12.139934"><ele>80.0</ele><time>2026-04-04T12:28:18.199Z</time></trkpt><trkpt lat="45.7738842" lon="12.1400856"><ele>79.75</ele><time>2026-04-04T12:28:19.171Z</time></trkpt><trkpt lat="45.7740045" lon="12.1402386"><ele>79.5</ele><time>2026-04-04T12:28:20.191Z</time></trkpt><trkpt lat="45.7741131" lon="12.1403777"><ele>79.25</ele><time>2026-04-04T12:28:21.201Z</time></trkpt><trkpt lat="45.7742011" lon="12.1404928"><ele>79.0</ele><time>2026-04-04T12:28:22.188Z</time></trkpt><trkpt lat="45.7742767" lon="12.1405931"><ele>79.0</ele><time>2026-04-04T12:28:23.195Z</time></trkpt><trkpt lat="45.7743423" lon="12.1406836"><ele>79.0</ele><time>2026-04-04T12:28:24.188Z</time></trkpt><trkpt lat="45.7743975" lon="12.1407664"><ele>79.0</ele><time>2026-04-04T12:28:25.191Z</time></trkpt><trkpt lat="45.7744399" lon="12.1408389"><ele>79.0</ele><time>2026-04-04T12:28:26.193Z</time></trkpt><trkpt lat="45.7744914" lon="12.1409334"><ele>79.0</ele><time>2026-04-04T12:28:28.189Z</time></trkpt><trkpt lat="45.7745644" lon="12.1409852"><ele>79.0</ele><time>2026-04-04T12:28:35.168Z</time></trkpt><trkpt lat="45.7746255" lon="12.1409594"><ele>79.2</ele><time>2026-04-04T12:28:36.175Z</time></trkpt><trkpt lat="45.7746981" lon="12.1409014"><ele>79.4</ele><time>2026-04-04T12:28:37.188Z</time></trkpt><trkpt lat="45.7747758" lon="12.1408237"><ele>79.6</ele><time>2026-04-04T12:28:38.176Z</time></trkpt><trkpt lat="45.7748595" lon="12.1407387"><ele>79.8</ele><time>2026-04-04T12:28:39.179Z</time></trkpt><trkpt lat="45.7749551" lon="12.1406435"><ele>80.0</ele><time>2026-04-04T12:28:40.19Z</time></trkpt><trkpt lat="45.7750545" lon="12.1405435"><ele>80.0</ele><time>2026-04-04T12:28:41.194Z</time></trkpt><trkpt lat="45.7751625" lon="12.1404371"><ele>80.0</ele><time>2026-04-04T12:28:42.188Z</time></trkpt><trkpt lat="45.7752705" lon="12.1403299"><ele>80.0</ele><time>2026-04-04T12:28:43.189Z</time></trkpt><trkpt lat="45.7753873" lon="12.1402145"><ele>80.0</ele><time>2026-04-04T12:28:44.201Z</time></trkpt><trkpt lat="45.7755121" lon="12.1400893"><ele>80.33333333333334</ele><time>2026-04-04T12:28:45.193Z</time></trkpt><trkpt lat="45.7756404" lon="12.1399635"><ele>80.66666666666667</ele><time>2026-04-04T12:28:46.194Z</time></trkpt><trkpt lat="45.7757695" lon="12.1398376"><ele>81.0</ele><time>2026-04-04T12:28:47.184Z</time></trkpt><trkpt lat="45.7759011" lon="12.1397084"><ele>81.33333333333333</ele><time>2026-04-04T12:28:48.184Z</time></trkpt><trkpt lat="45.7760362" lon="12.1395739"><ele>81.66666666666666</ele><time>2026-04-04T12:28:49.194Z</time></trkpt><trkpt lat="45.7761732" lon="12.1394351"><ele>82.0</ele><time>2026-04-04T12:28:50.191Z</time></trkpt><trkpt lat="45.7763101" lon="12.139296"><ele>82.0</ele><time>2026-04-04T12:28:51.19Z</time></trkpt><trkpt lat="45.7764479" lon="12.139159"><ele>82.0</ele><time>2026-04-04T12:28:52.176Z</time></trkpt><trkpt lat="45.7765878" lon="12.1390226"><ele>82.0</ele><time>2026-04-04T12:28:53.195Z</time></trkpt><trkpt lat="45.7767331" lon="12.1388933"><ele>83.33333333333333</ele><time>2026-04-04T12:28:54.193Z</time></trkpt><trkpt lat="45.7768843" lon="12.1387719"><ele>84.66666666666667</ele><time>2026-04-04T12:28:55.19Z</time></trkpt><trkpt lat="45.7770434" lon="12.1386547"><ele>86.0</ele><time>2026-04-04T12:28:56.19Z</time></trkpt><trkpt lat="45.7772055" lon="12.1385363"><ele>86.0</ele><time>2026-04-04T12:28:57.183Z</time></trkpt><trkpt lat="45.7773704" lon="12.1384139"><ele>86.0</ele><time>2026-04-04T12:28:58.183Z</time></trkpt><trkpt lat="45.7775336" lon="12.1382903"><ele>86.0</ele><time>2026-04-04T12:28:59.177Z</time></trkpt><trkpt lat="45.7776966" lon="12.1381671"><ele>86.0</ele><time>2026-04-04T12:29:00.184Z</time></trkpt><trkpt lat="45.7778595" lon="12.1380451"><ele>86.0</ele><time>2026-04-04T12:29:01.188Z</time></trkpt><trkpt lat="45.7780247" lon="12.1379298"><ele>86.0</ele><time>2026-04-04T12:29:02.19Z</time></trkpt><trkpt lat="45.7781944" lon="12.137827"><ele>86.0</ele><time>2026-04-04T12:29:03.197Z</time></trkpt><trkpt lat="45.7783625" lon="12.1377322"><ele>86.0</ele><time>2026-04-04T12:29:04.174Z</time></trkpt><trkpt lat="45.7785431" lon="12.1376757"><ele>86.0</ele><time>2026-04-04T12:29:05.189Z</time></trkpt><trkpt lat="45.7787272" lon="12.1376352"><ele>86.0</ele><time>2026-04-04T12:29:06.186Z</time></trkpt><trkpt lat="45.7789146" lon="12.1376199"><ele>86.0</ele><time>2026-04-04T12:29:07.167Z</time></trkpt><trkpt lat="45.779105" lon="12.1376299"><ele>86.0</ele><time>2026-04-04T12:29:08.195Z</time></trkpt><trkpt lat="45.779296" lon="12.1376589"><ele>85.33333333333334</ele><time>2026-04-04T12:29:09.181Z</time></trkpt><trkpt lat="45.7794883" lon="12.1377044"><ele>84.66666666666667</ele><time>2026-04-04T12:29:10.187Z</time></trkpt><trkpt lat="45.7796857" lon="12.1377542"><ele>84.0</ele><time>2026-04-04T12:29:11.195Z</time></trkpt><trkpt lat="45.7798884" lon="12.1378041"><ele>84.0</ele><time>2026-04-04T12:29:12.186Z</time></trkpt><trkpt lat="45.7800884" lon="12.1378511"><ele>84.0</ele><time>2026-04-04T12:29:13.188Z</time></trkpt><trkpt lat="45.7802888" lon="12.1378903"><ele>84.0</ele><time>2026-04-04T12:29:14.183Z</time></trkpt><trkpt lat="45.7804868" lon="12.1379103"><ele>84.33333333333333</ele><time>2026-04-04T12:29:15.193Z</time></trkpt><trkpt lat="45.7806847" lon="12.1378947"><ele>84.66666666666666</ele><time>2026-04-04T12:29:16.186Z</time></trkpt><trkpt lat="45.7808803" lon="12.1378428"><ele>85.0</ele><time>2026-04-04T12:29:17.18Z</time></trkpt><trkpt lat="45.7810724" lon="12.1377551"><ele>85.33333333333333</ele><time>2026-04-04T12:29:18.195Z</time></trkpt><trkpt lat="45.781252" lon="12.1376507"><ele>85.66666666666667</ele><time>2026-04-04T12:29:19.197Z</time></trkpt><trkpt lat="45.7814233" lon="12.13755"><ele>86.0</ele><time>2026-04-04T12:29:20.19Z</time></trkpt><trkpt lat="45.7815865" lon="12.1374494"><ele>86.0</ele><time>2026-04-04T12:29:21.19Z</time></trkpt><trkpt lat="45.7817416" lon="12.1373591"><ele>86.0</ele><time>2026-04-04T12:29:22.195Z</time></trkpt><trkpt lat="45.7818922" lon="12.1372893"><ele>86.0</ele><time>2026-04-04T12:29:23.194Z</time></trkpt><trkpt lat="45.7820374" lon="12.137231"><ele>86.75</ele><time>2026-04-04T12:29:24.187Z</time></trkpt><trkpt lat="45.7821815" lon="12.1371749"><ele>87.5</ele><time>2026-04-04T12:29:25.188Z</time></trkpt><trkpt lat="45.7823263" lon="12.1371166"><ele>88.25</ele><time>2026-04-04T12:29:26.197Z</time></trkpt><trkpt lat="45.7824668" lon="12.1370642"><ele>89.0</ele><time>2026-04-04T12:29:27.196Z</time></trkpt><trkpt lat="45.7826004" lon="12.1370144"><ele>89.0</ele><time>2026-04-04T12:29:28.169Z</time></trkpt><trkpt lat="45.7827235" lon="12.13697"><ele>89.0</ele><time>2026-04-04T12:29:29.172Z</time></trkpt><trkpt lat="45.782834" lon="12.136927"><ele>89.0</ele><time>2026-04-04T12:29:30.18Z</time></trkpt><trkpt lat="45.7829354" lon="12.1368883"><ele>89.0</ele><time>2026-04-04T12:29:31.187Z</time></trkpt><trkpt lat="45.783028" lon="12.1368528"><ele>89.0</ele><time>2026-04-04T12:29:32.168Z</time></trkpt><trkpt lat="45.7831112" lon="12.1368214"><ele>89.0</ele><time>2026-04-04T12:29:33.173Z</time></trkpt><trkpt lat="45.7831829" lon="12.1367952"><ele>89.0</ele><time>2026-04-04T12:29:34.182Z</time></trkpt><trkpt lat="45.7832615" lon="12.1367756"><ele>89.0</ele><time>2026-04-04T12:29:36.185Z</time></trkpt><trkpt lat="45.7833482" lon="12.1367538"><ele>89.0</ele><time>2026-04-04T12:29:43.186Z</time></trkpt><trkpt lat="45.7834611" lon="12.1367668"><ele>89.0</ele><time>2026-04-04T12:29:45.185Z</time></trkpt><trkpt lat="45.7835369" lon="12.1368113"><ele>89.0</ele><time>2026-04-04T12:29:46.185Z</time></trkpt><trkpt lat="45.7836122" lon="12.1368742"><ele>89.2</ele><time>2026-04-04T12:29:47.188Z</time></trkpt><trkpt lat="45.783684" lon="12.1369643"><ele>89.4</ele><time>2026-04-04T12:29:48.171Z</time></trkpt><trkpt lat="45.783751" lon="12.1370861"><ele>89.6</ele><time>2026-04-04T12:29:49.181Z</time></trkpt><trkpt lat="45.7838072" lon="12.1372302"><ele>89.8</ele><time>2026-04-04T12:29:50.181Z</time></trkpt><trkpt lat="45.7838586" lon="12.1373893"><ele>90.0</ele><time>2026-04-04T12:29:51.185Z</time></trkpt><trkpt lat="45.7839154" lon="12.137559"><ele>90.0</ele><time>2026-04-04T12:29:52.19Z</time></trkpt><trkpt lat="45.7839755" lon="12.1377384"><ele>90.0</ele><time>2026-04-04T12:29:53.201Z</time></trkpt><trkpt lat="45.7840382" lon="12.137924"><ele>90.0</ele><time>2026-04-04T12:29:54.195Z</time></trkpt><trkpt lat="45.7841005" lon="12.138114"><ele>90.0</ele><time>2026-04-04T12:29:55.184Z</time></trkpt><trkpt lat="45.784165" lon="12.1383079"><ele>90.0</ele><time>2026-04-04T12:29:56.188Z</time></trkpt><trkpt lat="45.7842286" lon="12.1385049"><ele>90.0</ele><time>2026-04-04T12:29:57.19Z</time></trkpt><trkpt lat="45.7842922" lon="12.1387016"><ele>90.0</ele><time>2026-04-04T12:29:58.19Z</time></trkpt><trkpt lat="45.7843555" lon="12.1388983"><ele>90.0</ele><time>2026-04-04T12:29:59.195Z</time></trkpt><trkpt lat="45.7844164" lon="12.1390877"><ele>90.0</ele><time>2026-04-04T12:30:00.188Z</time></trkpt><trkpt lat="45.7844763" lon="12.1392678"><ele>90.0</ele><time>2026-04-04T12:30:01.195Z</time></trkpt><trkpt lat="45.7845346" lon="12.1394444"><ele>90.0</ele><time>2026-04-04T12:30:02.18Z</time></trkpt><trkpt lat="45.7845947" lon="12.1396235"><ele>90.0</ele><time>2026-04-04T12:30:03.184Z</time></trkpt><trkpt lat="45.7846551" lon="12.1397919"><ele>90.0</ele><time>2026-04-04T12:30:04.193Z</time></trkpt><trkpt lat="45.7847078" lon="12.1399433"><ele>90.0</ele><time>2026-04-04T12:30:05.184Z</time></trkpt><trkpt lat="45.7847515" lon="12.1400798"><ele>90.0</ele><time>2026-04-04T12:30:06.192Z</time></trkpt><trkpt lat="45.7847937" lon="12.1402004"><ele>90.0</ele><time>2026-04-04T12:30:07.176Z</time></trkpt><trkpt lat="45.7848298" lon="12.1403124"><ele>90.0</ele><time>2026-04-04T12:30:08.189Z</time></trkpt><trkpt lat="45.7848536" lon="12.140401"><ele>90.0</ele><time>2026-04-04T12:30:09.186Z</time></trkpt><trkpt lat="45.7848855" lon="12.1405079"><ele>90.0</ele><time>2026-04-04T12:30:11.188Z</time></trkpt><trkpt lat="45.7848716" lon="12.1406051"><ele>90.0</ele><time>2026-04-04T12:30:14.176Z</time></trkpt><trkpt lat="45.7847951" lon="12.1405796"><ele>90.0</ele><time>2026-04-04T12:30:17.18Z</time></trkpt><trkpt lat="45.7847261" lon="12.1405629"><ele>90.0</ele><time>2026-04-04T12:30:19.187Z</time></trkpt></trkseg><trkseg><trkpt lat="45.784819" lon="12.1404134"><ele>90.0</ele><time>2026-04-04T12:53:53.009Z</time></trkpt><trkpt lat="45.7847489" lon="12.140423"><ele>90.0</ele><time>2026-04-04T12:53:57.066Z</time></trkpt><trkpt lat="45.7846913" lon="12.1404779"><ele>90.0</ele><time>2026-04-04T12:54:04.075Z</time></trkpt><trkpt lat="45.7847451" lon="12.1405642"><ele>90.0</ele><time>2026-04-04T12:54:32.085Z</time></trkpt><trkpt lat="45.784825" lon="12.1405874"><ele>90.0</ele><time>2026-04-04T12:54:34.094Z</time></trkpt><trkpt lat="45.7849141" lon="12.1406682"><ele>90.0</ele><time>2026-04-04T12:54:38.083Z</time></trkpt><trkpt lat="45.7849806" lon="12.1406061"><ele>90.0</ele><time>2026-04-04T12:55:06.133Z</time></trkpt><trkpt lat="45.7849467" lon="12.1404497"><ele>90.0</ele><time>2026-04-04T12:55:08.079Z</time></trkpt><trkpt lat="45.7849148" lon="12.1403575"><ele>90.0</ele><time>2026-04-04T12:55:09.083Z</time></trkpt><trkpt lat="45.784879" lon="12.1402563"><ele>90.0</ele><time>2026-04-04T12:55:10.088Z</time></trkpt><trkpt lat="45.7848398" lon="12.1401316"><ele>90.0</ele><time>2026-04-04T12:55:11.083Z</time></trkpt><trkpt lat="45.7847963" lon="12.1400012"><ele>90.0</ele><time>2026-04-04T12:55:12.084Z</time></trkpt><trkpt lat="45.7847503" lon="12.139863"><ele>90.0</ele><time>2026-04-04T12:55:13.085Z</time></trkpt><trkpt lat="45.7847111" lon="12.1397374"><ele>90.0</ele><time>2026-04-04T12:55:14.085Z</time></trkpt><trkpt lat="45.7846719" lon="12.1396129"><ele>90.0</ele><time>2026-04-04T12:55:15.084Z</time></trkpt><trkpt lat="45.784632" lon="12.1394918"><ele>90.0</ele><time>2026-04-04T12:55:16.084Z</time></trkpt><trkpt lat="45.7845967" lon="12.1393819"><ele>90.0</ele><time>2026-04-04T12:55:17.082Z</time></trkpt><trkpt lat="45.7845631" lon="12.1392921"><ele>90.0</ele><time>2026-04-04T12:55:18.087Z</time></trkpt><trkpt lat="45.7844838" lon="12.1392006"><ele>90.0</ele><time>2026-04-04T12:55:20.081Z</time></trkpt><trkpt lat="45.7844109" lon="12.1392605"><ele>90.0</ele><time>2026-04-04T12:55:22.082Z</time></trkpt><trkpt lat="45.7844132" lon="12.1393651"><ele>90.0</ele><time>2026-04-04T12:55:24.085Z</time></trkpt><trkpt lat="45.7844757" lon="12.13945"><ele>90.0</ele><time>2026-04-04T12:55:27.086Z</time></trkpt><trkpt lat="45.7845401" lon="12.1394528"><ele>90.0</ele><time>2026-04-04T12:56:06.107Z</time></trkpt><trkpt lat="45.7846325" lon="12.13955"><ele>90.0</ele><time>2026-04-04T12:58:33.092Z</time></trkpt><trkpt lat="45.7846622" lon="12.1396672"><ele>90.0</ele><time>2026-04-04T12:58:34.088Z</time></trkpt><trkpt lat="45.7846999" lon="12.1398282"><ele>90.0</ele><time>2026-04-04T12:58:35.084Z</time></trkpt><trkpt lat="45.7847656" lon="12.1400258"><ele>90.0</ele><time>2026-04-04T12:58:36.095Z</time></trkpt><trkpt lat="45.7848396" lon="12.1402457"><ele>90.0</ele><time>2026-04-04T12:58:37.089Z</time></trkpt><trkpt lat="45.7848997" lon="12.1404326"><ele>90.0</ele><time>2026-04-04T12:58:38.095Z</time></trkpt><trkpt lat="45.784955" lon="12.1406059"><ele>90.0</ele><time>2026-04-04T12:58:39.091Z</time></trkpt><trkpt lat="45.785012" lon="12.1407825"><ele>90.0</ele><time>2026-04-04T12:58:40.085Z</time></trkpt><trkpt lat="45.7850696" lon="12.1409516"><ele>90.0</ele><time>2026-04-04T12:58:41.09Z</time></trkpt><trkpt lat="45.7851244" lon="12.1411134"><ele>90.0</ele><time>2026-04-04T12:58:42.095Z</time></trkpt><trkpt lat="45.785177" lon="12.1412708"><ele>90.0</ele><time>2026-04-04T12:58:43.093Z</time></trkpt><trkpt lat="45.7852279" lon="12.1414287"><ele>90.2</ele><time>2026-04-04T12:58:44.088Z</time></trkpt><trkpt lat="45.7852777" lon="12.14158"><ele>90.4</ele><time>2026-04-04T12:58:45.087Z</time></trkpt><trkpt lat="45.7853266" lon="12.1417276"><ele>90.6</ele><time>2026-04-04T12:58:46.088Z</time></trkpt><trkpt lat="45.7853752" lon="12.1418712"><ele>90.8</ele><time>2026-04-04T12:58:47.094Z</time></trkpt><trkpt lat="45.7854211" lon="12.142007"><ele>91.0</ele><time>2026-04-04T12:58:48.088Z</time></trkpt><trkpt lat="45.7854672" lon="12.1421446"><ele>91.0</ele><time>2026-04-04T12:58:49.093Z</time></trkpt><trkpt lat="45.7855108" lon="12.1422779"><ele>91.0</ele><time>2026-04-04T12:58:50.087Z</time></trkpt><trkpt lat="45.7855567" lon="12.1424131"><ele>91.0</ele><time>2026-04-04T12:58:51.09Z</time></trkpt><trkpt lat="45.7856048" lon="12.1425541"><ele>91.0</ele><time>2026-04-04T12:58:52.094Z</time></trkpt><trkpt lat="45.7856516" lon="12.1427033"><ele>91.0</ele><time>2026-04-04T12:58:53.09Z</time></trkpt><trkpt lat="45.7856995" lon="12.1428569"><ele>90.75</ele><time>2026-04-04T12:58:54.092Z</time></trkpt><trkpt lat="45.785749" lon="12.1430169"><ele>90.5</ele><time>2026-04-04T12:58:55.089Z</time></trkpt><trkpt lat="45.7857984" lon="12.1431839"><ele>90.25</ele><time>2026-04-04T12:58:56.103Z</time></trkpt><trkpt lat="45.7858457" lon="12.1433443"><ele>90.0</ele><time>2026-04-04T12:58:57.09Z</time></trkpt><trkpt lat="45.7858836" lon="12.1434727"><ele>89.4</ele><time>2026-04-04T12:58:58.096Z</time></trkpt><trkpt lat="45.7859184" lon="12.1435903"><ele>88.8</ele><time>2026-04-04T12:58:59.092Z</time></trkpt><trkpt lat="45.785956" lon="12.1437121"><ele>88.19999999999999</ele><time>2026-04-04T12:59:00.092Z</time></trkpt><trkpt lat="45.786003" lon="12.1438571"><ele>87.6</ele><time>2026-04-04T12:59:01.089Z</time></trkpt><trkpt lat="45.7860417" lon="12.143992"><ele>87.0</ele><time>2026-04-04T12:59:02.093Z</time></trkpt><trkpt lat="45.7860699" lon="12.1440994"><ele>86.83333333333333</ele><time>2026-04-04T12:59:03.088Z</time></trkpt><trkpt lat="45.7860993" lon="12.1442087"><ele>86.66666666666667</ele><time>2026-04-04T12:59:05.087Z</time></trkpt><trkpt lat="45.7861281" lon="12.1443355"><ele>86.5</ele><time>2026-04-04T12:59:28.199Z</time></trkpt><trkpt lat="45.786165" lon="12.144476"><ele>86.33333333333334</ele><time>2026-04-04T12:59:30.096Z</time></trkpt><trkpt lat="45.786192" lon="12.1445636"><ele>86.16666666666667</ele><time>2026-04-04T12:59:32.101Z</time></trkpt><trkpt lat="45.7862576" lon="12.1446703"><ele>86.0</ele><time>2026-04-04T12:59:35.094Z</time></trkpt><trkpt lat="45.7864453" lon="12.1445989"><ele>86.0</ele><time>2026-04-04T12:59:38.143Z</time></trkpt><trkpt lat="45.786516" lon="12.1445331"><ele>86.0</ele><time>2026-04-04T12:59:39.094Z</time></trkpt><trkpt lat="45.7865964" lon="12.1444565"><ele>86.0</ele><time>2026-04-04T12:59:40.094Z</time></trkpt><trkpt lat="45.7866853" lon="12.144375"><ele>86.0</ele><time>2026-04-04T12:59:41.09Z</time></trkpt><trkpt lat="45.7867745" lon="12.1442949"><ele>86.0</ele><time>2026-04-04T12:59:42.094Z</time></trkpt><trkpt lat="45.7868627" lon="12.144217"><ele>86.0</ele><time>2026-04-04T12:59:43.094Z</time></trkpt><trkpt lat="45.7869541" lon="12.1441401"><ele>86.0</ele><time>2026-04-04T12:59:44.097Z</time></trkpt><trkpt lat="45.7870486" lon="12.1440562"><ele>86.0</ele><time>2026-04-04T12:59:45.089Z</time></trkpt><trkpt lat="45.7871421" lon="12.1439714"><ele>86.0</ele><time>2026-04-04T12:59:46.091Z</time></trkpt><trkpt lat="45.7872343" lon="12.1438853"><ele>86.0</ele><time>2026-04-04T12:59:47.09Z</time></trkpt><trkpt lat="45.7873249" lon="12.1438009"><ele>86.0</ele><time>2026-04-04T12:59:48.102Z</time></trkpt><trkpt lat="45.7874089" lon="12.1437231"><ele>86.0</ele><time>2026-04-04T12:59:49.091Z</time></trkpt><trkpt lat="45.7874936" lon="12.1436421"><ele>86.0</ele><time>2026-04-04T12:59:50.093Z</time></trkpt><trkpt lat="45.7875799" lon="12.1435618"><ele>86.0</ele><time>2026-04-04T12:59:51.091Z</time></trkpt><trkpt lat="45.7876709" lon="12.1434779"><ele>86.0</ele><time>2026-04-04T12:59:52.1Z</time></trkpt><trkpt lat="45.7877611" lon="12.1433939"><ele>86.0</ele><time>2026-04-04T12:59:53.093Z</time></trkpt><trkpt lat="45.7878543" lon="12.1433182"><ele>86.0</ele><time>2026-04-04T12:59:54.091Z</time></trkpt><trkpt lat="45.7879527" lon="12.1432475"><ele>86.0</ele><time>2026-04-04T12:59:55.092Z</time></trkpt><trkpt lat="45.7880525" lon="12.1431826"><ele>86.0</ele><time>2026-04-04T12:59:56.099Z</time></trkpt><trkpt lat="45.7881537" lon="12.1431198"><ele>86.0</ele><time>2026-04-04T12:59:57.092Z</time></trkpt><trkpt lat="45.788258" lon="12.1430565"><ele>86.0</ele><time>2026-04-04T12:59:58.096Z</time></trkpt><trkpt lat="45.7883641" lon="12.1429928"><ele>86.0</ele><time>2026-04-04T12:59:59.091Z</time></trkpt><trkpt lat="45.7884639" lon="12.1429326"><ele>86.0</ele><time>2026-04-04T13:00:00.092Z</time></trkpt><trkpt lat="45.7885547" lon="12.1428788"><ele>86.0</ele><time>2026-04-04T13:00:01.097Z</time></trkpt><trkpt lat="45.7886411" lon="12.1428291"><ele>86.0</ele><time>2026-04-04T13:00:02.093Z</time></trkpt><trkpt lat="45.7887302" lon="12.1427858"><ele>86.6</ele><time>2026-04-04T13:00:03.095Z</time></trkpt><trkpt lat="45.788823" lon="12.1427491"><ele>87.19999999999999</ele><time>2026-04-04T13:00:04.1Z</time></trkpt><trkpt lat="45.7889172" lon="12.1427245"><ele>87.80000000000001</ele><time>2026-04-04T13:00:05.096Z</time></trkpt><trkpt lat="45.7890121" lon="12.1427102"><ele>88.4</ele><time>2026-04-04T13:00:06.096Z</time></trkpt><trkpt lat="45.7891125" lon="12.1427028"><ele>89.0</ele><time>2026-04-04T13:00:07.095Z</time></trkpt><trkpt lat="45.7892236" lon="12.1426941"><ele>89.0</ele><time>2026-04-04T13:00:08.094Z</time></trkpt><trkpt lat="45.7893422" lon="12.1426775"><ele>89.0</ele><time>2026-04-04T13:00:09.087Z</time></trkpt><trkpt lat="45.7894642" lon="12.1426441"><ele>89.0</ele><time>2026-04-04T13:00:10.1Z</time></trkpt><trkpt lat="45.7895915" lon="12.1425941"><ele>89.0</ele><time>2026-04-04T13:00:11.094Z</time></trkpt><trkpt lat="45.7897226" lon="12.1425398"><ele>89.5</ele><time>2026-04-04T13:00:12.089Z</time></trkpt><trkpt lat="45.7898489" lon="12.1424872"><ele>90.0</ele><time>2026-04-04T13:00:13.095Z</time></trkpt><trkpt lat="45.7899624" lon="12.1424404"><ele>90.5</ele><time>2026-04-04T13:00:14.095Z</time></trkpt><trkpt lat="45.7900629" lon="12.1424008"><ele>91.0</ele><time>2026-04-04T13:00:15.09Z</time></trkpt><trkpt lat="45.7901623" lon="12.1423627"><ele>92.16666666666666</ele><time>2026-04-04T13:00:16.094Z</time></trkpt><trkpt lat="45.7902567" lon="12.1423271"><ele>93.33333333333333</ele><time>2026-04-04T13:00:17.093Z</time></trkpt><trkpt lat="45.7903363" lon="12.1422956"><ele>94.5</ele><time>2026-04-04T13:00:18.091Z</time></trkpt><trkpt lat="45.790405" lon="12.1422672"><ele>95.66666666666666</ele><time>2026-04-04T13:00:19.093Z</time></trkpt><trkpt lat="45.7905026" lon="12.1422146"><ele>96.83333333333333</ele><time>2026-04-04T13:00:21.092Z</time></trkpt><trkpt lat="45.790579" lon="12.1422128"><ele>98.0</ele><time>2026-04-04T13:00:23.095Z</time></trkpt><trkpt lat="45.7906679" lon="12.1423758"><ele>97.2</ele><time>2026-04-04T13:00:25.099Z</time></trkpt><trkpt lat="45.7907238" lon="12.142492"><ele>96.4</ele><time>2026-04-04T13:00:26.098Z</time></trkpt><trkpt lat="45.7907858" lon="12.1426194"><ele>95.60000000000001</ele><time>2026-04-04T13:00:27.091Z</time></trkpt><trkpt lat="45.7908546" lon="12.1427465"><ele>94.80000000000001</ele><time>2026-04-04T13:00:28.101Z</time></trkpt><trkpt lat="45.7909335" lon="12.1428727"><ele>94.0</ele><time>2026-04-04T13:00:29.088Z</time></trkpt><trkpt lat="45.7910212" lon="12.1429864"><ele>94.6</ele><time>2026-04-04T13:00:30.093Z</time></trkpt><trkpt lat="45.7911091" lon="12.1430767"><ele>95.2</ele><time>2026-04-04T13:00:31.097Z</time></trkpt><trkpt lat="45.7911971" lon="12.1431474"><ele>95.8</ele><time>2026-04-04T13:00:32.095Z</time></trkpt><trkpt lat="45.7912823" lon="12.1432119"><ele>96.39999999999999</ele><time>2026-04-04T13:00:33.092Z</time></trkpt><trkpt lat="45.7913674" lon="12.1432865"><ele>97.0</ele><time>2026-04-04T13:00:34.093Z</time></trkpt><trkpt lat="45.7914526" lon="12.1433621"><ele>97.0</ele><time>2026-04-04T13:00:35.099Z</time></trkpt><trkpt lat="45.7915269" lon="12.143472"><ele>97.0</ele><time>2026-04-04T13:00:36.095Z</time></trkpt><trkpt lat="45.7915787" lon="12.1435957"><ele>97.0</ele><time>2026-04-04T13:00:37.087Z</time></trkpt><trkpt lat="45.7916093" lon="12.1437322"><ele>97.0</ele><time>2026-04-04T13:00:38.107Z</time></trkpt><trkpt lat="45.791632" lon="12.1438796"><ele>97.0</ele><time>2026-04-04T13:00:39.085Z</time></trkpt><trkpt lat="45.7916529" lon="12.1440397"><ele>95.75</ele><time>2026-04-04T13:00:40.088Z</time></trkpt><trkpt lat="45.7916746" lon="12.1441992"><ele>94.5</ele><time>2026-04-04T13:00:41.113Z</time></trkpt><trkpt lat="45.7916994" lon="12.144361"><ele>93.25</ele><time>2026-04-04T13:00:42.098Z</time></trkpt><trkpt lat="45.7917255" lon="12.1445279"><ele>92.0</ele><time>2026-04-04T13:00:43.092Z</time></trkpt><trkpt lat="45.7917528" lon="12.1446976"><ele>92.0</ele><time>2026-04-04T13:00:44.098Z</time></trkpt><trkpt lat="45.7917804" lon="12.1448645"><ele>92.0</ele><time>2026-04-04T13:00:45.09Z</time></trkpt><trkpt lat="45.7918115" lon="12.1450247"><ele>92.0</ele><time>2026-04-04T13:00:46.093Z</time></trkpt><trkpt lat="45.7918516" lon="12.1451808"><ele>92.0</ele><time>2026-04-04T13:00:47.095Z</time></trkpt><trkpt lat="45.7919031" lon="12.1453346"><ele>91.5</ele><time>2026-04-04T13:00:48.094Z</time></trkpt><trkpt lat="45.7919616" lon="12.1454838"><ele>91.0</ele><time>2026-04-04T13:00:49.096Z</time></trkpt><trkpt lat="45.7920246" lon="12.1456344"><ele>90.5</ele><time>2026-04-04T13:00:50.099Z</time></trkpt><trkpt lat="45.7920859" lon="12.1457749"><ele>90.0</ele><time>2026-04-04T13:00:51.096Z</time></trkpt><trkpt lat="45.7921446" lon="12.1459052"><ele>90.0</ele><time>2026-04-04T13:00:52.093Z</time></trkpt><trkpt lat="45.7922029" lon="12.1460347"><ele>90.0</ele><time>2026-04-04T13:00:53.106Z</time></trkpt><trkpt lat="45.7922628" lon="12.1461655"><ele>90.0</ele><time>2026-04-04T13:00:54.094Z</time></trkpt><trkpt lat="45.7923235" lon="12.1462945"><ele>90.0</ele><time>2026-04-04T13:00:55.1Z</time></trkpt><trkpt lat="45.7923866" lon="12.1464124"><ele>90.0</ele><time>2026-04-04T13:00:56.089Z</time></trkpt><trkpt lat="45.7924493" lon="12.1465176"><ele>89.4</ele><time>2026-04-04T13:00:57.095Z</time></trkpt><trkpt lat="45.7925114" lon="12.1466181"><ele>88.8</ele><time>2026-04-04T13:00:58.11Z</time></trkpt><trkpt lat="45.7925785" lon="12.146719"><ele>88.19999999999999</ele><time>2026-04-04T13:00:59.094Z</time></trkpt><trkpt lat="45.7926469" lon="12.1468207"><ele>87.6</ele><time>2026-04-04T13:01:00.099Z</time></trkpt><trkpt lat="45.7927156" lon="12.1469242"><ele>87.0</ele><time>2026-04-04T13:01:01.094Z</time></trkpt><trkpt lat="45.7927804" lon="12.1470227"><ele>87.0</ele><time>2026-04-04T13:01:02.099Z</time></trkpt><trkpt lat="45.7928403" lon="12.147116"><ele>87.0</ele><time>2026-04-04T13:01:03.098Z</time></trkpt><trkpt lat="45.7928977" lon="12.1472028"><ele>87.0</ele><time>2026-04-04T13:01:04.098Z</time></trkpt><trkpt lat="45.792952" lon="12.1472809"><ele>87.0</ele><time>2026-04-04T13:01:05.096Z</time></trkpt><trkpt lat="45.7930021" lon="12.1473575"><ele>87.0</ele><time>2026-04-04T13:01:06.101Z</time></trkpt><trkpt lat="45.7930577" lon="12.1474326"><ele>87.0</ele><time>2026-04-04T13:01:07.093Z</time></trkpt><trkpt lat="45.7931091" lon="12.1474991"><ele>87.16666666666667</ele><time>2026-04-04T13:01:08.11Z</time></trkpt><trkpt lat="45.7931595" lon="12.1475623"><ele>87.33333333333333</ele><time>2026-04-04T13:01:09.095Z</time></trkpt><trkpt lat="45.7932082" lon="12.1476218"><ele>87.5</ele><time>2026-04-04T13:01:10.098Z</time></trkpt><trkpt lat="45.7932906" lon="12.1477232"><ele>87.66666666666666</ele><time>2026-04-04T13:01:12.093Z</time></trkpt><trkpt lat="45.793382" lon="12.1478488"><ele>87.83333333333333</ele><time>2026-04-04T13:01:14.103Z</time></trkpt><trkpt lat="45.793427" lon="12.1479428"><ele>88.0</ele><time>2026-04-04T13:01:15.093Z</time></trkpt><trkpt lat="45.7934732" lon="12.1480417"><ele>88.4</ele><time>2026-04-04T13:01:16.093Z</time></trkpt><trkpt lat="45.7935069" lon="12.1481619"><ele>88.80000000000001</ele><time>2026-04-04T13:01:17.095Z</time></trkpt><trkpt lat="45.7935423" lon="12.1482901"><ele>89.2</ele><time>2026-04-04T13:01:18.091Z</time></trkpt><trkpt lat="45.793581" lon="12.1484256"><ele>89.6</ele><time>2026-04-04T13:01:19.097Z</time></trkpt><trkpt lat="45.7936197" lon="12.1485623"><ele>90.0</ele><time>2026-04-04T13:01:20.097Z</time></trkpt><trkpt lat="45.7936594" lon="12.1487035"><ele>90.0</ele><time>2026-04-04T13:01:21.099Z</time></trkpt><trkpt lat="45.7937023" lon="12.1488519"><ele>90.0</ele><time>2026-04-04T13:01:22.092Z</time></trkpt><trkpt lat="45.7937468" lon="12.1490021"><ele>90.0</ele><time>2026-04-04T13:01:23.088Z</time></trkpt><trkpt lat="45.7937889" lon="12.1491578"><ele>90.0</ele><time>2026-04-04T13:01:24.092Z</time></trkpt><trkpt lat="45.7938281" lon="12.1493158"><ele>90.0</ele><time>2026-04-04T13:01:25.093Z</time></trkpt><trkpt lat="45.7938663" lon="12.1494771"><ele>90.0</ele><time>2026-04-04T13:01:26.102Z</time></trkpt><trkpt lat="45.7939053" lon="12.1496369"><ele>90.0</ele><time>2026-04-04T13:01:27.091Z</time></trkpt><trkpt lat="45.793948" lon="12.1497967"><ele>90.0</ele><time>2026-04-04T13:01:28.091Z</time></trkpt><trkpt lat="45.7939973" lon="12.1499547"><ele>89.5</ele><time>2026-04-04T13:01:29.097Z</time></trkpt><trkpt lat="45.7940476" lon="12.150111"><ele>89.0</ele><time>2026-04-04T13:01:30.094Z</time></trkpt><trkpt lat="45.7941297" lon="12.1502399"><ele>88.5</ele><time>2026-04-04T13:01:31.087Z</time></trkpt><trkpt lat="45.7942252" lon="12.1503546"><ele>88.0</ele><time>2026-04-04T13:01:32.099Z</time></trkpt><trkpt lat="45.7943278" lon="12.1504617"><ele>88.25</ele><time>2026-04-04T13:01:33.094Z</time></trkpt><trkpt lat="45.7944315" lon="12.1505672"><ele>88.5</ele><time>2026-04-04T13:01:34.093Z</time></trkpt><trkpt lat="45.7945329" lon="12.1506687"><ele>88.75</ele><time>2026-04-04T13:01:35.096Z</time></trkpt><trkpt lat="45.7946344" lon="12.1507741"><ele>89.0</ele><time>2026-04-04T13:01:36.097Z</time></trkpt><trkpt lat="45.7947358" lon="12.1508802"><ele>88.5</ele><time>2026-04-04T13:01:37.101Z</time></trkpt><trkpt lat="45.7948371" lon="12.1509813"><ele>88.0</ele><time>2026-04-04T13:01:38.099Z</time></trkpt><trkpt lat="45.7949402" lon="12.1510811"><ele>87.5</ele><time>2026-04-04T13:01:39.09Z</time></trkpt><trkpt lat="45.7950404" lon="12.1511772"><ele>87.0</ele><time>2026-04-04T13:01:40.094Z</time></trkpt><trkpt lat="45.7951425" lon="12.1512699"><ele>87.19999999999999</ele><time>2026-04-04T13:01:41.091Z</time></trkpt><trkpt lat="45.7952417" lon="12.1513651"><ele>87.4</ele><time>2026-04-04T13:01:42.095Z</time></trkpt><trkpt lat="45.795337" lon="12.1514546"><ele>87.6</ele><time>2026-04-04T13:01:43.088Z</time></trkpt><trkpt lat="45.7954244" lon="12.151547"><ele>87.80000000000001</ele><time>2026-04-04T13:01:44.102Z</time></trkpt><trkpt lat="45.7955013" lon="12.1516417"><ele>88.0</ele><time>2026-04-04T13:01:45.09Z</time></trkpt><trkpt lat="45.7955758" lon="12.1517403"><ele>88.0</ele><time>2026-04-04T13:01:46.089Z</time></trkpt><trkpt lat="45.7956479" lon="12.1518357"><ele>88.0</ele><time>2026-04-04T13:01:47.091Z</time></trkpt><trkpt lat="45.79572" lon="12.1519313"><ele>88.0</ele><time>2026-04-04T13:01:48.095Z</time></trkpt><trkpt lat="45.7957882" lon="12.1520261"><ele>88.0</ele><time>2026-04-04T13:01:49.097Z</time></trkpt><trkpt lat="45.7958575" lon="12.1521219"><ele>88.0</ele><time>2026-04-04T13:01:50.1Z</time></trkpt><trkpt lat="45.7959273" lon="12.1522144"><ele>88.0</ele><time>2026-04-04T13:01:51.116Z</time></trkpt><trkpt lat="45.7959916" lon="12.1522993"><ele>88.0</ele><time>2026-04-04T13:01:52.101Z</time></trkpt><trkpt lat="45.7960416" lon="12.152371"><ele>88.0</ele><time>2026-04-04T13:01:53.085Z</time></trkpt><trkpt lat="45.7961176" lon="12.1524701"><ele>88.0</ele><time>2026-04-04T13:01:55.124Z</time></trkpt><trkpt lat="45.7961996" lon="12.1524757"><ele>88.0</ele><time>2026-04-04T13:01:57.087Z</time></trkpt><trkpt lat="45.7963147" lon="12.15245"><ele>88.16666666666666</ele><time>2026-04-04T13:01:59.088Z</time></trkpt><trkpt lat="45.7963843" lon="12.1524715"><ele>88.33333333333333</ele><time>2026-04-04T13:02:00.09Z</time></trkpt><trkpt lat="45.7964612" lon="12.1524944"><ele>88.5</ele><time>2026-04-04T13:02:01.089Z</time></trkpt><trkpt lat="45.7965465" lon="12.1525206"><ele>88.66666666666667</ele><time>2026-04-04T13:02:02.114Z</time></trkpt><trkpt lat="45.7966386" lon="12.1525482"><ele>88.83333333333334</ele><time>2026-04-04T13:02:03.086Z</time></trkpt><trkpt lat="45.7967337" lon="12.1525838"><ele>89.0</ele><time>2026-04-04T13:02:04.096Z</time></trkpt><trkpt lat="45.7968281" lon="12.1526146"><ele>90.0</ele><time>2026-04-04T13:02:05.086Z</time></trkpt><trkpt lat="45.7969199" lon="12.1526456"><ele>91.0</ele><time>2026-04-04T13:02:06.097Z</time></trkpt><trkpt lat="45.7970101" lon="12.1526748"><ele>92.0</ele><time>2026-04-04T13:02:07.087Z</time></trkpt><trkpt lat="45.7970944" lon="12.1527047"><ele>93.0</ele><time>2026-04-04T13:02:08.117Z</time></trkpt><trkpt lat="45.7971755" lon="12.1527334"><ele>94.0</ele><time>2026-04-04T13:02:09.119Z</time></trkpt><trkpt lat="45.7972506" lon="12.1527592"><ele>95.0</ele><time>2026-04-04T13:02:10.09Z</time></trkpt><trkpt lat="45.7973256" lon="12.1527843"><ele>95.0</ele><time>2026-04-04T13:02:11.085Z</time></trkpt><trkpt lat="45.7973986" lon="12.152808"><ele>95.0</ele><time>2026-04-04T13:02:12.088Z</time></trkpt><trkpt lat="45.7974702" lon="12.1528312"><ele>95.0</ele><time>2026-04-04T13:02:13.099Z</time></trkpt><trkpt lat="45.797544" lon="12.1528595"><ele>95.0</ele><time>2026-04-04T13:02:14.092Z</time></trkpt><trkpt lat="45.7976149" lon="12.1528854"><ele>95.0</ele><time>2026-04-04T13:02:15.086Z</time></trkpt><trkpt lat="45.7976876" lon="12.1529083"><ele>95.0</ele><time>2026-04-04T13:02:16.089Z</time></trkpt><trkpt lat="45.7977649" lon="12.1529335"><ele>96.0</ele><time>2026-04-04T13:02:17.087Z</time></trkpt><trkpt lat="45.7978453" lon="12.152958"><ele>97.0</ele><time>2026-04-04T13:02:18.094Z</time></trkpt><trkpt lat="45.7979258" lon="12.1529844"><ele>98.0</ele><time>2026-04-04T13:02:19.086Z</time></trkpt><trkpt lat="45.7980114" lon="12.1530122"><ele>99.0</ele><time>2026-04-04T13:02:20.091Z</time></trkpt><trkpt lat="45.7981045" lon="12.1530426"><ele>100.0</ele><time>2026-04-04T13:02:21.089Z</time></trkpt><trkpt lat="45.79821" lon="12.153075"><ele>100.0</ele><time>2026-04-04T13:02:22.091Z</time></trkpt><trkpt lat="45.7983204" lon="12.1531076"><ele>100.0</ele><time>2026-04-04T13:02:23.096Z</time></trkpt><trkpt lat="45.7984331" lon="12.1531408"><ele>100.0</ele><time>2026-04-04T13:02:24.091Z</time></trkpt><trkpt lat="45.7985454" lon="12.1531754"><ele>100.0</ele><time>2026-04-04T13:02:25.081Z</time></trkpt><trkpt lat="45.7986567" lon="12.1532106"><ele>101.75</ele><time>2026-04-04T13:02:26.085Z</time></trkpt><trkpt lat="45.7987686" lon="12.153246"><ele>103.5</ele><time>2026-04-04T13:02:27.087Z</time></trkpt><trkpt lat="45.7988817" lon="12.1532805"><ele>105.25</ele><time>2026-04-04T13:02:28.088Z</time></trkpt><trkpt lat="45.7989946" lon="12.1533158"><ele>107.0</ele><time>2026-04-04T13:02:29.091Z</time></trkpt><trkpt lat="45.7991074" lon="12.1533553"><ele>107.0</ele><time>2026-04-04T13:02:30.088Z</time></trkpt><trkpt lat="45.7992191" lon="12.1534035"><ele>106.99999999999999</ele><time>2026-04-04T13:02:31.089Z</time></trkpt><trkpt lat="45.7993272" lon="12.153447"><ele>106.99999999999999</ele><time>2026-04-04T13:02:32.088Z</time></trkpt><trkpt lat="45.799422" lon="12.1534994"><ele>107.0</ele><time>2026-04-04T13:02:33.085Z</time></trkpt><trkpt lat="45.7995072" lon="12.1535395"><ele>107.0</ele><time>2026-04-04T13:02:34.086Z</time></trkpt><trkpt lat="45.7995827" lon="12.1535742"><ele>107.8</ele><time>2026-04-04T13:02:35.089Z</time></trkpt><trkpt lat="45.7996482" lon="12.1535844"><ele>108.6</ele><time>2026-04-04T13:02:36.083Z</time></trkpt><trkpt lat="45.7997109" lon="12.1535688"><ele>109.39999999999999</ele><time>2026-04-04T13:02:37.09Z</time></trkpt><trkpt lat="45.7998133" lon="12.1535245"><ele>110.19999999999999</ele><time>2026-04-04T13:02:39.086Z</time></trkpt><trkpt lat="45.7999121" lon="12.153462"><ele>111.0</ele><time>2026-04-04T13:02:41.09Z</time></trkpt><trkpt lat="45.8000094" lon="12.1533935"><ele>111.0</ele><time>2026-04-04T13:02:43.092Z</time></trkpt><trkpt lat="45.8001112" lon="12.1533517"><ele>111.0</ele><time>2026-04-04T13:02:45.084Z</time></trkpt><trkpt lat="45.8002075" lon="12.1533668"><ele>111.0</ele><time>2026-04-04T13:02:47.089Z</time></trkpt><trkpt lat="45.800289" lon="12.1534517"><ele>111.0</ele><time>2026-04-04T13:02:49.116Z</time></trkpt><trkpt lat="45.8003263" lon="12.1535341"><ele>111.0</ele><time>2026-04-04T13:02:50.087Z</time></trkpt><trkpt lat="45.8003488" lon="12.1536415"><ele>111.66666666666667</ele><time>2026-04-04T13:02:51.086Z</time></trkpt><trkpt lat="45.8003732" lon="12.1537637"><ele>112.33333333333334</ele><time>2026-04-04T13:02:52.09Z</time></trkpt><trkpt lat="45.8004045" lon="12.1538668"><ele>113.0</ele><time>2026-04-04T13:02:53.088Z</time></trkpt><trkpt lat="45.8004685" lon="12.1539397"><ele>113.66666666666667</ele><time>2026-04-04T13:02:54.092Z</time></trkpt><trkpt lat="45.8005353" lon="12.1540036"><ele>114.33333333333334</ele><time>2026-04-04T13:02:55.085Z</time></trkpt><trkpt lat="45.8006129" lon="12.1540492"><ele>115.0</ele><time>2026-04-04T13:02:56.094Z</time></trkpt><trkpt lat="45.8006751" lon="12.1540805"><ele>115.00000000000001</ele><time>2026-04-04T13:02:57.087Z</time></trkpt><trkpt lat="45.8007735" lon="12.1540681"><ele>115.0</ele><time>2026-04-04T13:02:59.095Z</time></trkpt><trkpt lat="45.8008243" lon="12.154013"><ele>115.0</ele><time>2026-04-04T13:03:00.094Z</time></trkpt><trkpt lat="45.8008646" lon="12.1539231"><ele>115.0</ele><time>2026-04-04T13:03:01.083Z</time></trkpt><trkpt lat="45.8009037" lon="12.1538262"><ele>115.00000000000001</ele><time>2026-04-04T13:03:02.087Z</time></trkpt><trkpt lat="45.8009514" lon="12.1537336"><ele>115.0</ele><time>2026-04-04T13:03:03.088Z</time></trkpt><trkpt lat="45.8010099" lon="12.1536541"><ele>117.33333333333334</ele><time>2026-04-04T13:03:04.089Z</time></trkpt><trkpt lat="45.8010834" lon="12.1535871"><ele>119.66666666666667</ele><time>2026-04-04T13:03:05.087Z</time></trkpt><trkpt lat="45.8011593" lon="12.1535328"><ele>122.0</ele><time>2026-04-04T13:03:06.087Z</time></trkpt><trkpt lat="45.801233" lon="12.1534895"><ele>124.33333333333334</ele><time>2026-04-04T13:03:07.087Z</time></trkpt><trkpt lat="45.8013139" lon="12.1534488"><ele>126.66666666666667</ele><time>2026-04-04T13:03:08.086Z</time></trkpt><trkpt lat="45.8014022" lon="12.1533898"><ele>129.0</ele><time>2026-04-04T13:03:09.087Z</time></trkpt><trkpt lat="45.801497" lon="12.1533548"><ele>129.0</ele><time>2026-04-04T13:03:10.09Z</time></trkpt><trkpt lat="45.8015917" lon="12.1533207"><ele>129.0</ele><time>2026-04-04T13:03:11.096Z</time></trkpt><trkpt lat="45.8016849" lon="12.1532919"><ele>129.0</ele><time>2026-04-04T13:03:12.087Z</time></trkpt><trkpt lat="45.8017799" lon="12.153262"><ele>129.0</ele><time>2026-04-04T13:03:13.086Z</time></trkpt><trkpt lat="45.8018865" lon="12.1532332"><ele>129.0</ele><time>2026-04-04T13:03:14.087Z</time></trkpt><trkpt lat="45.8019924" lon="12.1532048"><ele>131.8</ele><time>2026-04-04T13:03:15.087Z</time></trkpt><trkpt lat="45.8020977" lon="12.1531767"><ele>134.60000000000002</ele><time>2026-04-04T13:03:16.086Z</time></trkpt><trkpt lat="45.8022051" lon="12.1531384"><ele>137.4</ele><time>2026-04-04T13:03:17.088Z</time></trkpt><trkpt lat="45.8023056" lon="12.1530967"><ele>140.20000000000002</ele><time>2026-04-04T13:03:18.082Z</time></trkpt><trkpt lat="45.8023972" lon="12.1530277"><ele>143.0</ele><time>2026-04-04T13:03:19.084Z</time></trkpt><trkpt lat="45.8024925" lon="12.1529451"><ele>143.0</ele><time>2026-04-04T13:03:20.087Z</time></trkpt><trkpt lat="45.8025816" lon="12.1528661"><ele>143.0</ele><time>2026-04-04T13:03:21.089Z</time></trkpt><trkpt lat="45.8026605" lon="12.1527607"><ele>143.0</ele><time>2026-04-04T13:03:22.087Z</time></trkpt><trkpt lat="45.8027267" lon="12.1526656"><ele>143.0</ele><time>2026-04-04T13:03:23.083Z</time></trkpt><trkpt lat="45.8027732" lon="12.1525939"><ele>143.0</ele><time>2026-04-04T13:03:24.089Z</time></trkpt><trkpt lat="45.8029089" lon="12.1525432"><ele>146.0</ele><time>2026-04-04T13:03:26.084Z</time></trkpt><trkpt lat="45.8030143" lon="12.1525386"><ele>149.0</ele><time>2026-04-04T13:03:27.088Z</time></trkpt><trkpt lat="45.8031068" lon="12.1525401"><ele>152.0</ele><time>2026-04-04T13:03:28.091Z</time></trkpt><trkpt lat="45.8031973" lon="12.1525413"><ele>155.0</ele><time>2026-04-04T13:03:29.083Z</time></trkpt><trkpt lat="45.8032853" lon="12.1525355"><ele>158.0</ele><time>2026-04-04T13:03:30.085Z</time></trkpt><trkpt lat="45.8033698" lon="12.152516"><ele>158.0</ele><time>2026-04-04T13:03:31.088Z</time></trkpt><trkpt lat="45.8034527" lon="12.1524682"><ele>158.0</ele><time>2026-04-04T13:03:32.084Z</time></trkpt><trkpt lat="45.8035343" lon="12.1523938"><ele>158.0</ele><time>2026-04-04T13:03:33.091Z</time></trkpt><trkpt lat="45.8036169" lon="12.1523205"><ele>158.0</ele><time>2026-04-04T13:03:34.087Z</time></trkpt><trkpt lat="45.8037121" lon="12.1522598"><ele>158.0</ele><time>2026-04-04T13:03:35.083Z</time></trkpt><trkpt lat="45.8038361" lon="12.1522109"><ele>160.75</ele><time>2026-04-04T13:03:36.086Z</time></trkpt><trkpt lat="45.8039479" lon="12.152157"><ele>163.5</ele><time>2026-04-04T13:03:37.085Z</time></trkpt><trkpt lat="45.8040648" lon="12.1521029"><ele>166.25</ele><time>2026-04-04T13:03:38.09Z</time></trkpt><trkpt lat="45.8041719" lon="12.1520353"><ele>169.0</ele><time>2026-04-04T13:03:39.084Z</time></trkpt><trkpt lat="45.8042805" lon="12.1519314"><ele>171.25</ele><time>2026-04-04T13:03:40.086Z</time></trkpt><trkpt lat="45.8043858" lon="12.1518247"><ele>173.5</ele><time>2026-04-04T13:03:41.089Z</time></trkpt><trkpt lat="45.8044918" lon="12.1517415"><ele>175.75</ele><time>2026-04-04T13:03:42.091Z</time></trkpt><trkpt lat="45.8045918" lon="12.1516715"><ele>178.0</ele><time>2026-04-04T13:03:43.086Z</time></trkpt><trkpt lat="45.8046762" lon="12.1516181"><ele>178.0</ele><time>2026-04-04T13:03:44.088Z</time></trkpt><trkpt lat="45.8047628" lon="12.1515978"><ele>178.0</ele><time>2026-04-04T13:03:45.089Z</time></trkpt><trkpt lat="45.8048504" lon="12.1516155"><ele>178.0</ele><time>2026-04-04T13:03:46.088Z</time></trkpt><trkpt lat="45.804937" lon="12.1516524"><ele>178.0</ele><time>2026-04-04T13:03:47.092Z</time></trkpt><trkpt lat="45.8050116" lon="12.1516907"><ele>178.0</ele><time>2026-04-04T13:03:48.084Z</time></trkpt><trkpt lat="45.8050792" lon="12.1517197"><ele>178.0</ele><time>2026-04-04T13:03:49.088Z</time></trkpt><trkpt lat="45.8051446" lon="12.1517335"><ele>178.42857142857142</ele><time>2026-04-04T13:03:50.088Z</time></trkpt><trkpt lat="45.8052129" lon="12.151753"><ele>178.85714285714286</ele><time>2026-04-04T13:03:51.09Z</time></trkpt><trkpt lat="45.8052775" lon="12.1517749"><ele>179.28571428571428</ele><time>2026-04-04T13:03:52.092Z</time></trkpt><trkpt lat="45.805345" lon="12.1518241"><ele>179.71428571428572</ele><time>2026-04-04T13:03:53.093Z</time></trkpt><trkpt lat="45.8053954" lon="12.1518921"><ele>180.14285714285714</ele><time>2026-04-04T13:03:54.088Z</time></trkpt><trkpt lat="45.8054279" lon="12.1519749"><ele>180.57142857142856</ele><time>2026-04-04T13:03:55.092Z</time></trkpt><trkpt lat="45.8054488" lon="12.1520708"><ele>181.0</ele><time>2026-04-04T13:03:56.093Z</time></trkpt><trkpt lat="45.8054681" lon="12.1521646"><ele>181.0</ele><time>2026-04-04T13:03:57.085Z</time></trkpt><trkpt lat="45.8055313" lon="12.1523014"><ele>181.0</ele><time>2026-04-04T13:03:59.094Z</time></trkpt><trkpt lat="45.8056259" lon="12.152348"><ele>181.0</ele><time>2026-04-04T13:04:01.087Z</time></trkpt><trkpt lat="45.805735" lon="12.1523142"><ele>181.0</ele><time>2026-04-04T13:04:03.096Z</time></trkpt><trkpt lat="45.8058284" lon="12.1522071"><ele>181.0</ele><time>2026-04-04T13:04:05.088Z</time></trkpt><trkpt lat="45.8058816" lon="12.1520744"><ele>181.0</ele><time>2026-04-04T13:04:07.088Z</time></trkpt><trkpt lat="45.8059324" lon="12.1519885"><ele>181.0</ele><time>2026-04-04T13:04:09.092Z</time></trkpt><trkpt lat="45.8060155" lon="12.1520089"><ele>181.0</ele><time>2026-04-04T13:04:11.09Z</time></trkpt><trkpt lat="45.806075" lon="12.1521411"><ele>181.0</ele><time>2026-04-04T13:04:13.087Z</time></trkpt><trkpt lat="45.806054" lon="12.152311"><ele>181.0</ele><time>2026-04-04T13:04:15.082Z</time></trkpt><trkpt lat="45.8060122" lon="12.1524117"><ele>179.60000000000002</ele><time>2026-04-04T13:04:16.094Z</time></trkpt><trkpt lat="45.8059627" lon="12.1525437"><ele>178.2</ele><time>2026-04-04T13:04:17.086Z</time></trkpt><trkpt lat="45.8059402" lon="12.1527084"><ele>176.8</ele><time>2026-04-04T13:04:18.085Z</time></trkpt><trkpt lat="45.8059453" lon="12.1528597"><ele>175.39999999999998</ele><time>2026-04-04T13:04:19.089Z</time></trkpt><trkpt lat="45.8059571" lon="12.1529754"><ele>174.0</ele><time>2026-04-04T13:04:20.09Z</time></trkpt><trkpt lat="45.8059773" lon="12.1530812"><ele>173.5</ele><time>2026-04-04T13:04:21.087Z</time></trkpt><trkpt lat="45.8060193" lon="12.1531659"><ele>173.0</ele><time>2026-04-04T13:04:22.089Z</time></trkpt><trkpt lat="45.8060741" lon="12.1532206"><ele>172.5</ele><time>2026-04-04T13:04:23.08Z</time></trkpt><trkpt lat="45.8061709" lon="12.1533133"><ele>172.0</ele><time>2026-04-04T13:04:25.085Z</time></trkpt><trkpt lat="45.8062428" lon="12.1534028"><ele>171.5</ele><time>2026-04-04T13:04:27.087Z</time></trkpt><trkpt lat="45.8062782" lon="12.1534815"><ele>171.0</ele><time>2026-04-04T13:04:29.087Z</time></trkpt><trkpt lat="45.8063704" lon="12.153494"><ele>171.0</ele><time>2026-04-04T13:04:31.089Z</time></trkpt><trkpt lat="45.8064311" lon="12.1534522"><ele>171.0</ele><time>2026-04-04T13:04:32.086Z</time></trkpt><trkpt lat="45.8065037" lon="12.1534036"><ele>171.0</ele><time>2026-04-04T13:04:33.091Z</time></trkpt><trkpt lat="45.8065896" lon="12.1533438"><ele>171.0</ele><time>2026-04-04T13:04:34.087Z</time></trkpt><trkpt lat="45.8066842" lon="12.153297"><ele>171.0</ele><time>2026-04-04T13:04:35.087Z</time></trkpt><trkpt lat="45.8067803" lon="12.1532682"><ele>171.0</ele><time>2026-04-04T13:04:36.09Z</time></trkpt><trkpt lat="45.8068797" lon="12.1532523"><ele>172.5</ele><time>2026-04-04T13:04:37.088Z</time></trkpt><trkpt lat="45.8069814" lon="12.1532491"><ele>174.0</ele><time>2026-04-04T13:04:38.09Z</time></trkpt><trkpt lat="45.8070943" lon="12.153261"><ele>175.5</ele><time>2026-04-04T13:04:39.088Z</time></trkpt><trkpt lat="45.8072099" lon="12.1532847"><ele>177.0</ele><time>2026-04-04T13:04:40.091Z</time></trkpt><trkpt lat="45.8073292" lon="12.1533226"><ele>177.0</ele><time>2026-04-04T13:04:41.087Z</time></trkpt><trkpt lat="45.8074509" lon="12.1533714"><ele>177.0</ele><time>2026-04-04T13:04:42.088Z</time></trkpt><trkpt lat="45.8075724" lon="12.1534296"><ele>177.0</ele><time>2026-04-04T13:04:43.092Z</time></trkpt><trkpt lat="45.8076925" lon="12.1534898"><ele>177.0</ele><time>2026-04-04T13:04:44.096Z</time></trkpt><trkpt lat="45.8078111" lon="12.1535486"><ele>176.8</ele><time>2026-04-04T13:04:45.09Z</time></trkpt><trkpt lat="45.8079282" lon="12.153607"><ele>176.6</ele><time>2026-04-04T13:04:46.092Z</time></trkpt><trkpt lat="45.8080346" lon="12.1536609"><ele>176.4</ele><time>2026-04-04T13:04:47.089Z</time></trkpt><trkpt lat="45.8081339" lon="12.1537104"><ele>176.20000000000002</ele><time>2026-04-04T13:04:48.09Z</time></trkpt><trkpt lat="45.8082318" lon="12.1537667"><ele>176.0</ele><time>2026-04-04T13:04:49.094Z</time></trkpt><trkpt lat="45.8083235" lon="12.1538346"><ele>176.0</ele><time>2026-04-04T13:04:50.092Z</time></trkpt><trkpt lat="45.8084015" lon="12.1539031"><ele>176.0</ele><time>2026-04-04T13:04:51.09Z</time></trkpt><trkpt lat="45.8084648" lon="12.1539742"><ele>176.0</ele><time>2026-04-04T13:04:52.085Z</time></trkpt><trkpt lat="45.808517" lon="12.154059"><ele>176.0</ele><time>2026-04-04T13:04:53.089Z</time></trkpt><trkpt lat="45.808562" lon="12.1541582"><ele>176.0</ele><time>2026-04-04T13:04:54.091Z</time></trkpt><trkpt lat="45.8086094" lon="12.1542565"><ele>176.0</ele><time>2026-04-04T13:04:55.087Z</time></trkpt><trkpt lat="45.8086571" lon="12.1543507"><ele>175.8</ele><time>2026-04-04T13:04:56.09Z</time></trkpt><trkpt lat="45.8087126" lon="12.1544305"><ele>175.60000000000002</ele><time>2026-04-04T13:04:57.089Z</time></trkpt><trkpt lat="45.8088024" lon="12.1544914"><ele>175.4</ele><time>2026-04-04T13:04:58.084Z</time></trkpt><trkpt lat="45.8089163" lon="12.1545374"><ele>175.2</ele><time>2026-04-04T13:04:59.089Z</time></trkpt><trkpt lat="45.8090284" lon="12.1545803"><ele>175.0</ele><time>2026-04-04T13:05:00.085Z</time></trkpt><trkpt lat="45.8091345" lon="12.1546243"><ele>175.0</ele><time>2026-04-04T13:05:01.083Z</time></trkpt><trkpt lat="45.8092329" lon="12.1546682"><ele>175.0</ele><time>2026-04-04T13:05:02.087Z</time></trkpt><trkpt lat="45.8093364" lon="12.154703"><ele>175.0</ele><time>2026-04-04T13:05:03.093Z</time></trkpt><trkpt lat="45.8094397" lon="12.1547354"><ele>175.0</ele><time>2026-04-04T13:05:04.095Z</time></trkpt><trkpt lat="45.8095395" lon="12.1547272"><ele>175.0</ele><time>2026-04-04T13:05:05.084Z</time></trkpt><trkpt lat="45.8096355" lon="12.1546917"><ele>175.5</ele><time>2026-04-04T13:05:06.097Z</time></trkpt><trkpt lat="45.809726" lon="12.1546261"><ele>176.0</ele><time>2026-04-04T13:05:07.088Z</time></trkpt><trkpt lat="45.8098108" lon="12.154512"><ele>176.5</ele><time>2026-04-04T13:05:08.096Z</time></trkpt><trkpt lat="45.809891" lon="12.1543878"><ele>177.0</ele><time>2026-04-04T13:05:09.087Z</time></trkpt><trkpt lat="45.8099716" lon="12.1542471"><ele>177.0</ele><time>2026-04-04T13:05:10.09Z</time></trkpt><trkpt lat="45.8100632" lon="12.1541388"><ele>177.0</ele><time>2026-04-04T13:05:11.084Z</time></trkpt><trkpt lat="45.810168" lon="12.1540704"><ele>177.0</ele><time>2026-04-04T13:05:12.089Z</time></trkpt><trkpt lat="45.8102811" lon="12.1540105"><ele>177.0</ele><time>2026-04-04T13:05:13.086Z</time></trkpt><trkpt lat="45.8104093" lon="12.1539528"><ele>177.75</ele><time>2026-04-04T13:05:14.089Z</time></trkpt><trkpt lat="45.8105444" lon="12.1539215"><ele>178.5</ele><time>2026-04-04T13:05:15.084Z</time></trkpt><trkpt lat="45.8106797" lon="12.1538965"><ele>179.25</ele><time>2026-04-04T13:05:16.087Z</time></trkpt><trkpt lat="45.8108121" lon="12.1538644"><ele>180.0</ele><time>2026-04-04T13:05:17.088Z</time></trkpt><trkpt lat="45.8109419" lon="12.1538291"><ele>181.2</ele><time>2026-04-04T13:05:18.089Z</time></trkpt><trkpt lat="45.8110531" lon="12.1537596"><ele>182.4</ele><time>2026-04-04T13:05:19.088Z</time></trkpt><trkpt lat="45.8111591" lon="12.1536836"><ele>183.60000000000002</ele><time>2026-04-04T13:05:20.085Z</time></trkpt><trkpt lat="45.8112419" lon="12.153607"><ele>184.8</ele><time>2026-04-04T13:05:21.085Z</time></trkpt><trkpt lat="45.811325" lon="12.1535325"><ele>186.0</ele><time>2026-04-04T13:05:22.088Z</time></trkpt><trkpt lat="45.811415" lon="12.1534634"><ele>186.0</ele><time>2026-04-04T13:05:23.091Z</time></trkpt><trkpt lat="45.8115074" lon="12.1534075"><ele>186.0</ele><time>2026-04-04T13:05:24.095Z</time></trkpt><trkpt lat="45.8116064" lon="12.1533618"><ele>186.0</ele><time>2026-04-04T13:05:25.087Z</time></trkpt><trkpt lat="45.8117025" lon="12.1533036"><ele>186.0</ele><time>2026-04-04T13:05:26.099Z</time></trkpt><trkpt lat="45.8117979" lon="12.1532082"><ele>186.0</ele><time>2026-04-04T13:05:27.089Z</time></trkpt><trkpt lat="45.811888" lon="12.153105"><ele>187.0</ele><time>2026-04-04T13:05:28.087Z</time></trkpt><trkpt lat="45.8119666" lon="12.1529871"><ele>188.0</ele><time>2026-04-04T13:05:29.084Z</time></trkpt><trkpt lat="45.8120366" lon="12.1528697"><ele>189.0</ele><time>2026-04-04T13:05:30.088Z</time></trkpt><trkpt lat="45.8121048" lon="12.1527532"><ele>190.0</ele><time>2026-04-04T13:05:31.084Z</time></trkpt><trkpt lat="45.8121749" lon="12.1526401"><ele>191.0</ele><time>2026-04-04T13:05:32.086Z</time></trkpt><trkpt lat="45.8122248" lon="12.1525369"><ele>191.0</ele><time>2026-04-04T13:05:33.084Z</time></trkpt><trkpt lat="45.8122729" lon="12.1524386"><ele>191.0</ele><time>2026-04-04T13:05:34.084Z</time></trkpt><trkpt lat="45.8123163" lon="12.1523555"><ele>191.0</ele><time>2026-04-04T13:05:35.089Z</time></trkpt><trkpt lat="45.8123741" lon="12.1522943"><ele>191.0</ele><time>2026-04-04T13:05:36.084Z</time></trkpt><trkpt lat="45.8124412" lon="12.1522573"><ele>191.0</ele><time>2026-04-04T13:05:37.083Z</time></trkpt><trkpt lat="45.8125245" lon="12.1522417"><ele>191.0</ele><time>2026-04-04T13:05:38.097Z</time></trkpt><trkpt lat="45.8126268" lon="12.1522576"><ele>191.5</ele><time>2026-04-04T13:05:39.09Z</time></trkpt><trkpt lat="45.8127394" lon="12.1523277"><ele>192.0</ele><time>2026-04-04T13:05:40.086Z</time></trkpt><trkpt lat="45.8128568" lon="12.152411"><ele>192.5</ele><time>2026-04-04T13:05:41.091Z</time></trkpt><trkpt lat="45.8129522" lon="12.1525186"><ele>193.0</ele><time>2026-04-04T13:05:42.083Z</time></trkpt><trkpt lat="45.8130326" lon="12.1526403"><ele>193.25</ele><time>2026-04-04T13:05:43.085Z</time></trkpt><trkpt lat="45.8131153" lon="12.1527639"><ele>193.5</ele><time>2026-04-04T13:05:44.09Z</time></trkpt><trkpt lat="45.8131898" lon="12.152885"><ele>193.75</ele><time>2026-04-04T13:05:45.09Z</time></trkpt><trkpt lat="45.8132679" lon="12.153008"><ele>194.0</ele><time>2026-04-04T13:05:46.085Z</time></trkpt><trkpt lat="45.8133481" lon="12.1531359"><ele>193.39999999999998</ele><time>2026-04-04T13:05:47.088Z</time></trkpt><trkpt lat="45.8134203" lon="12.1532611"><ele>192.8</ele><time>2026-04-04T13:05:48.087Z</time></trkpt><trkpt lat="45.8134843" lon="12.153378"><ele>192.2</ele><time>2026-04-04T13:05:49.088Z</time></trkpt><trkpt lat="45.8135455" lon="12.1534887"><ele>191.60000000000002</ele><time>2026-04-04T13:05:50.088Z</time></trkpt><trkpt lat="45.8135993" lon="12.1535779"><ele>191.0</ele><time>2026-04-04T13:05:51.091Z</time></trkpt><trkpt lat="45.8136556" lon="12.1536355"><ele>192.16666666666666</ele><time>2026-04-04T13:05:52.083Z</time></trkpt><trkpt lat="45.8137208" lon="12.153647"><ele>193.33333333333331</ele><time>2026-04-04T13:05:53.089Z</time></trkpt><trkpt lat="45.8138328" lon="12.1535796"><ele>194.5</ele><time>2026-04-04T13:05:55.089Z</time></trkpt><trkpt lat="45.8138864" lon="12.1535229"><ele>195.66666666666666</ele><time>2026-04-04T13:05:56.086Z</time></trkpt><trkpt lat="45.8139481" lon="12.1534828"><ele>196.83333333333334</ele><time>2026-04-04T13:05:57.086Z</time></trkpt><trkpt lat="45.8140171" lon="12.1534451"><ele>198.0</ele><time>2026-04-04T13:05:58.084Z</time></trkpt><trkpt lat="45.8140908" lon="12.1534039"><ele>198.0</ele><time>2026-04-04T13:05:59.087Z</time></trkpt><trkpt lat="45.814156" lon="12.1533722"><ele>198.0</ele><time>2026-04-04T13:06:00.088Z</time></trkpt><trkpt lat="45.8142215" lon="12.1533412"><ele>198.0</ele><time>2026-04-04T13:06:01.09Z</time></trkpt><trkpt lat="45.8143057" lon="12.1533053"><ele>198.0</ele><time>2026-04-04T13:06:02.084Z</time></trkpt><trkpt lat="45.814399" lon="12.1532538"><ele>198.0</ele><time>2026-04-04T13:06:03.085Z</time></trkpt><trkpt lat="45.8144751" lon="12.1531778"><ele>198.0</ele><time>2026-04-04T13:06:04.091Z</time></trkpt><trkpt lat="45.8145492" lon="12.1530612"><ele>197.4</ele><time>2026-04-04T13:06:05.081Z</time></trkpt><trkpt lat="45.8146164" lon="12.1529588"><ele>196.8</ele><time>2026-04-04T13:06:06.085Z</time></trkpt><trkpt lat="45.8146872" lon="12.1528939"><ele>196.2</ele><time>2026-04-04T13:06:07.089Z</time></trkpt><trkpt lat="45.8147785" lon="12.1528707"><ele>195.6</ele><time>2026-04-04T13:06:08.096Z</time></trkpt><trkpt lat="45.8148869" lon="12.1528977"><ele>195.0</ele><time>2026-04-04T13:06:09.093Z</time></trkpt><trkpt lat="45.8150037" lon="12.1529677"><ele>195.0</ele><time>2026-04-04T13:06:10.085Z</time></trkpt><trkpt lat="45.815118" lon="12.1530326"><ele>195.0</ele><time>2026-04-04T13:06:11.084Z</time></trkpt><trkpt lat="45.8152306" lon="12.1530624"><ele>195.0</ele><time>2026-04-04T13:06:12.087Z</time></trkpt><trkpt lat="45.8153582" lon="12.1530536"><ele>195.0</ele><time>2026-04-04T13:06:13.087Z</time></trkpt><trkpt lat="45.815489" lon="12.1530325"><ele>196.0</ele><time>2026-04-04T13:06:14.099Z</time></trkpt><trkpt lat="45.8156135" lon="12.1530134"><ele>197.0</ele><time>2026-04-04T13:06:15.094Z</time></trkpt><trkpt lat="45.815743" lon="12.1530268"><ele>198.0</ele><time>2026-04-04T13:06:16.086Z</time></trkpt><trkpt lat="45.8158526" lon="12.1530553"><ele>199.0</ele><time>2026-04-04T13:06:17.089Z</time></trkpt><trkpt lat="45.8159555" lon="12.1530856"><ele>198.33333333333331</ele><time>2026-04-04T13:06:18.09Z</time></trkpt><trkpt lat="45.8160466" lon="12.1531114"><ele>197.66666666666666</ele><time>2026-04-04T13:06:19.09Z</time></trkpt><trkpt lat="45.8161386" lon="12.1531246"><ele>197.0</ele><time>2026-04-04T13:06:20.088Z</time></trkpt><trkpt lat="45.816204" lon="12.153107"><ele>196.33333333333331</ele><time>2026-04-04T13:06:21.102Z</time></trkpt><trkpt lat="45.8162472" lon="12.1530188"><ele>195.66666666666666</ele><time>2026-04-04T13:06:22.089Z</time></trkpt><trkpt lat="45.8162984" lon="12.1529147"><ele>195.0</ele><time>2026-04-04T13:06:23.086Z</time></trkpt><trkpt lat="45.8163248" lon="12.1527755"><ele>195.0</ele><time>2026-04-04T13:06:24.082Z</time></trkpt><trkpt lat="45.8163352" lon="12.1526371"><ele>195.0</ele><time>2026-04-04T13:06:25.086Z</time></trkpt><trkpt lat="45.8163513" lon="12.1525282"><ele>195.0</ele><time>2026-04-04T13:06:26.091Z</time></trkpt><trkpt lat="45.8163939" lon="12.1523798"><ele>195.0</ele><time>2026-04-04T13:06:28.086Z</time></trkpt><trkpt lat="45.8164349" lon="12.1522748"><ele>195.0</ele><time>2026-04-04T13:06:30.091Z</time></trkpt><trkpt lat="45.8163541" lon="12.152213"><ele>195.6</ele><time>2026-04-04T13:06:33.1Z</time></trkpt><trkpt lat="45.8162757" lon="12.1522428"><ele>196.2</ele><time>2026-04-04T13:06:34.088Z</time></trkpt><trkpt lat="45.8161799" lon="12.1522849"><ele>196.8</ele><time>2026-04-04T13:06:35.085Z</time></trkpt><trkpt lat="45.8160693" lon="12.1523339"><ele>197.4</ele><time>2026-04-04T13:06:36.087Z</time></trkpt><trkpt lat="45.8159751" lon="12.1523655"><ele>198.0</ele><time>2026-04-04T13:06:37.086Z</time></trkpt><trkpt lat="45.8158997" lon="12.1523748"><ele>198.16666666666666</ele><time>2026-04-04T13:06:38.095Z</time></trkpt><trkpt lat="45.8158286" lon="12.1523808"><ele>198.33333333333331</ele><time>2026-04-04T13:06:39.092Z</time></trkpt><trkpt lat="45.8157646" lon="12.1523619"><ele>198.5</ele><time>2026-04-04T13:06:40.09Z</time></trkpt><trkpt lat="45.8156881" lon="12.1523196"><ele>198.66666666666666</ele><time>2026-04-04T13:06:41.084Z</time></trkpt><trkpt lat="45.8156142" lon="12.1522378"><ele>198.83333333333331</ele><time>2026-04-04T13:06:42.086Z</time></trkpt><trkpt lat="45.8155534" lon="12.1520928"><ele>199.0</ele><time>2026-04-04T13:06:43.085Z</time></trkpt><trkpt lat="45.8155235" lon="12.1519258"><ele>199.0</ele><time>2026-04-04T13:06:44.091Z</time></trkpt><trkpt lat="45.8155097" lon="12.1517773"><ele>199.0</ele><time>2026-04-04T13:06:45.087Z</time></trkpt><trkpt lat="45.8155344" lon="12.1516388"><ele>199.0</ele><time>2026-04-04T13:06:46.095Z</time></trkpt><trkpt lat="45.8155865" lon="12.1515028"><ele>199.0</ele><time>2026-04-04T13:06:47.088Z</time></trkpt><trkpt lat="45.8156337" lon="12.1513828"><ele>199.0</ele><time>2026-04-04T13:06:48.089Z</time></trkpt><trkpt lat="45.8156578" lon="12.1512493"><ele>199.0</ele><time>2026-04-04T13:06:49.097Z</time></trkpt><trkpt lat="45.8156592" lon="12.1511002"><ele>199.0</ele><time>2026-04-04T13:06:50.093Z</time></trkpt><trkpt lat="45.8156371" lon="12.1509402"><ele>199.0</ele><time>2026-04-04T13:06:51.113Z</time></trkpt><trkpt lat="45.8155989" lon="12.1508032"><ele>199.0</ele><time>2026-04-04T13:06:52.102Z</time></trkpt><trkpt lat="45.815564" lon="12.1506847"><ele>199.0</ele><time>2026-04-04T13:06:53.092Z</time></trkpt><trkpt lat="45.8154951" lon="12.1505926"><ele>199.79999999999998</ele><time>2026-04-04T13:06:54.093Z</time></trkpt><trkpt lat="45.8153983" lon="12.1505119"><ele>200.6</ele><time>2026-04-04T13:06:55.091Z</time></trkpt><trkpt lat="45.8152987" lon="12.1504497"><ele>201.4</ele><time>2026-04-04T13:06:56.087Z</time></trkpt><trkpt lat="45.8152162" lon="12.1503896"><ele>202.2</ele><time>2026-04-04T13:06:57.092Z</time></trkpt><trkpt lat="45.815154" lon="12.1502769"><ele>203.0</ele><time>2026-04-04T13:06:58.096Z</time></trkpt><trkpt lat="45.8151197" lon="12.1501604"><ele>203.16666666666669</ele><time>2026-04-04T13:06:59.09Z</time></trkpt><trkpt lat="45.8150925" lon="12.1500472"><ele>203.33333333333334</ele><time>2026-04-04T13:07:00.094Z</time></trkpt><trkpt lat="45.8151098" lon="12.1499388"><ele>203.5</ele><time>2026-04-04T13:07:01.088Z</time></trkpt><trkpt lat="45.8151426" lon="12.1498102"><ele>203.66666666666669</ele><time>2026-04-04T13:07:02.089Z</time></trkpt><trkpt lat="45.8151722" lon="12.1496908"><ele>203.83333333333334</ele><time>2026-04-04T13:07:03.096Z</time></trkpt><trkpt lat="45.8151611" lon="12.1495844"><ele>204.0</ele><time>2026-04-04T13:07:04.102Z</time></trkpt><trkpt lat="45.8151234" lon="12.1494885"><ele>204.79999999999998</ele><time>2026-04-04T13:07:05.092Z</time></trkpt><trkpt lat="45.8150818" lon="12.14939"><ele>205.6</ele><time>2026-04-04T13:07:06.108Z</time></trkpt><trkpt lat="45.815" lon="12.1493092"><ele>206.4</ele><time>2026-04-04T13:07:07.107Z</time></trkpt><trkpt lat="45.814903" lon="12.1492409"><ele>207.2</ele><time>2026-04-04T13:07:08.096Z</time></trkpt><trkpt lat="45.8148149" lon="12.1491379"><ele>208.0</ele><time>2026-04-04T13:07:09.101Z</time></trkpt><trkpt lat="45.8147549" lon="12.1489818"><ele>208.0</ele><time>2026-04-04T13:07:10.107Z</time></trkpt><trkpt lat="45.8147046" lon="12.1488466"><ele>208.0</ele><time>2026-04-04T13:07:11.102Z</time></trkpt><trkpt lat="45.8146832" lon="12.1487165"><ele>208.0</ele><time>2026-04-04T13:07:12.096Z</time></trkpt><trkpt lat="45.8146899" lon="12.1485765"><ele>208.0</ele><time>2026-04-04T13:07:13.102Z</time></trkpt><trkpt lat="45.8147213" lon="12.1484425"><ele>208.0</ele><time>2026-04-04T13:07:14.106Z</time></trkpt><trkpt lat="45.814737" lon="12.1483299"><ele>207.99999999999997</ele><time>2026-04-04T13:07:15.099Z</time></trkpt><trkpt lat="45.8147536" lon="12.1482271"><ele>208.0</ele><time>2026-04-04T13:07:16.104Z</time></trkpt><trkpt lat="45.8147374" lon="12.1481238"><ele>208.0</ele><time>2026-04-04T13:07:17.088Z</time></trkpt><trkpt lat="45.8146668" lon="12.1480225"><ele>208.0</ele><time>2026-04-04T13:07:18.088Z</time></trkpt><trkpt lat="45.814603" lon="12.1479259"><ele>207.99999999999997</ele><time>2026-04-04T13:07:19.088Z</time></trkpt><trkpt lat="45.8145408" lon="12.147828"><ele>208.0</ele><time>2026-04-04T13:07:20.092Z</time></trkpt><trkpt lat="45.8145017" lon="12.1477187"><ele>208.4</ele><time>2026-04-04T13:07:21.091Z</time></trkpt><trkpt lat="45.8145004" lon="12.1475832"><ele>208.8</ele><time>2026-04-04T13:07:22.089Z</time></trkpt><trkpt lat="45.8145201" lon="12.1474352"><ele>209.2</ele><time>2026-04-04T13:07:23.086Z</time></trkpt><trkpt lat="45.8145469" lon="12.1472925"><ele>209.6</ele><time>2026-04-04T13:07:24.085Z</time></trkpt><trkpt lat="45.8145892" lon="12.1471448"><ele>210.0</ele><time>2026-04-04T13:07:25.085Z</time></trkpt><trkpt lat="45.8146288" lon="12.1469884"><ele>210.5</ele><time>2026-04-04T13:07:26.09Z</time></trkpt><trkpt lat="45.8146525" lon="12.1468438"><ele>211.0</ele><time>2026-04-04T13:07:27.086Z</time></trkpt><trkpt lat="45.8146636" lon="12.1467184"><ele>211.5</ele><time>2026-04-04T13:07:28.087Z</time></trkpt><trkpt lat="45.8146701" lon="12.1466125"><ele>212.0</ele><time>2026-04-04T13:07:29.087Z</time></trkpt><trkpt lat="45.8146743" lon="12.1464639"><ele>212.5</ele><time>2026-04-04T13:07:31.086Z</time></trkpt><trkpt lat="45.8146501" lon="12.1463691"><ele>213.0</ele><time>2026-04-04T13:07:33.093Z</time></trkpt><trkpt lat="45.8145574" lon="12.1462982"><ele>213.33333333333334</ele><time>2026-04-04T13:07:35.097Z</time></trkpt><trkpt lat="45.8144666" lon="12.146296"><ele>213.66666666666669</ele><time>2026-04-04T13:07:36.093Z</time></trkpt><trkpt lat="45.8143764" lon="12.1462965"><ele>214.0</ele><time>2026-04-04T13:07:37.086Z</time></trkpt><trkpt lat="45.8142894" lon="12.1463068"><ele>214.33333333333334</ele><time>2026-04-04T13:07:38.097Z</time></trkpt><trkpt lat="45.8142196" lon="12.1463126"><ele>214.66666666666669</ele><time>2026-04-04T13:07:39.089Z</time></trkpt><trkpt lat="45.8141129" lon="12.1463268"><ele>215.0</ele><time>2026-04-04T13:07:41.092Z</time></trkpt><trkpt lat="45.8140366" lon="12.1463183"><ele>215.14285714285714</ele><time>2026-04-04T13:07:46.096Z</time></trkpt><trkpt lat="45.8139688" lon="12.1463222"><ele>215.2857142857143</ele><time>2026-04-04T13:07:48.097Z</time></trkpt><trkpt lat="45.8139026" lon="12.1463679"><ele>215.42857142857144</ele><time>2026-04-04T13:07:50.104Z</time></trkpt><trkpt lat="45.8138471" lon="12.1464317"><ele>215.57142857142856</ele><time>2026-04-04T13:07:52.096Z</time></trkpt><trkpt lat="45.8137946" lon="12.146493"><ele>215.71428571428572</ele><time>2026-04-04T13:07:54.093Z</time></trkpt><trkpt lat="45.8137413" lon="12.1465577"><ele>215.85714285714286</ele><time>2026-04-04T13:07:56.094Z</time></trkpt><trkpt lat="45.8136769" lon="12.1466553"><ele>216.0</ele><time>2026-04-04T13:08:01.087Z</time></trkpt><trkpt lat="45.8135951" lon="12.1467323"><ele>215.0</ele><time>2026-04-04T13:08:03.091Z</time></trkpt><trkpt lat="45.8135427" lon="12.1467859"><ele>214.00000000000003</ele><time>2026-04-04T13:08:04.088Z</time></trkpt><trkpt lat="45.8134767" lon="12.1468571"><ele>213.0</ele><time>2026-04-04T13:08:05.084Z</time></trkpt><trkpt lat="45.8133978" lon="12.1469463"><ele>212.0</ele><time>2026-04-04T13:08:06.088Z</time></trkpt><trkpt lat="45.8133051" lon="12.1470473"><ele>211.0</ele><time>2026-04-04T13:08:07.092Z</time></trkpt><trkpt lat="45.8132211" lon="12.1471375"><ele>211.0</ele><time>2026-04-04T13:08:08.089Z</time></trkpt><trkpt lat="45.8131321" lon="12.1472275"><ele>211.0</ele><time>2026-04-04T13:08:09.087Z</time></trkpt><trkpt lat="45.8130304" lon="12.1473141"><ele>211.0</ele><time>2026-04-04T13:08:10.097Z</time></trkpt><trkpt lat="45.8129256" lon="12.147386"><ele>211.0</ele><time>2026-04-04T13:08:11.091Z</time></trkpt><trkpt lat="45.8128182" lon="12.1474411"><ele>210.75</ele><time>2026-04-04T13:08:12.09Z</time></trkpt><trkpt lat="45.8127097" lon="12.1474926"><ele>210.5</ele><time>2026-04-04T13:08:13.089Z</time></trkpt><trkpt lat="45.8125947" lon="12.1475206"><ele>210.25</ele><time>2026-04-04T13:08:14.093Z</time></trkpt><trkpt lat="45.812471" lon="12.1475292"><ele>210.0</ele><time>2026-04-04T13:08:15.086Z</time></trkpt><trkpt lat="45.8123374" lon="12.1475253"><ele>209.25</ele><time>2026-04-04T13:08:16.084Z</time></trkpt><trkpt lat="45.8122083" lon="12.1475155"><ele>208.5</ele><time>2026-04-04T13:08:17.088Z</time></trkpt><trkpt lat="45.812084" lon="12.1475065"><ele>207.75</ele><time>2026-04-04T13:08:18.089Z</time></trkpt><trkpt lat="45.811958" lon="12.1474922"><ele>207.0</ele><time>2026-04-04T13:08:19.091Z</time></trkpt><trkpt lat="45.811832" lon="12.1474783"><ele>207.5</ele><time>2026-04-04T13:08:20.095Z</time></trkpt><trkpt lat="45.8117056" lon="12.1474656"><ele>208.0</ele><time>2026-04-04T13:08:21.085Z</time></trkpt><trkpt lat="45.8115734" lon="12.1474532"><ele>208.5</ele><time>2026-04-04T13:08:22.085Z</time></trkpt><trkpt lat="45.8114407" lon="12.1474398"><ele>209.0</ele><time>2026-04-04T13:08:23.091Z</time></trkpt><trkpt lat="45.8113113" lon="12.147425"><ele>209.0</ele><time>2026-04-04T13:08:24.085Z</time></trkpt><trkpt lat="45.811178" lon="12.147414"><ele>209.0</ele><time>2026-04-04T13:08:25.085Z</time></trkpt><trkpt lat="45.8110475" lon="12.1474016"><ele>209.0</ele><time>2026-04-04T13:08:26.107Z</time></trkpt><trkpt lat="45.8109206" lon="12.1473892"><ele>209.0</ele><time>2026-04-04T13:08:27.091Z</time></trkpt><trkpt lat="45.8108072" lon="12.147385"><ele>208.2</ele><time>2026-04-04T13:08:28.087Z</time></trkpt><trkpt lat="45.8106998" lon="12.1473908"><ele>207.39999999999998</ele><time>2026-04-04T13:08:29.091Z</time></trkpt><trkpt lat="45.8106035" lon="12.1474035"><ele>206.6</ele><time>2026-04-04T13:08:30.094Z</time></trkpt><trkpt lat="45.8105144" lon="12.1474172"><ele>205.8</ele><time>2026-04-04T13:08:31.085Z</time></trkpt><trkpt lat="45.8104226" lon="12.1474353"><ele>205.0</ele><time>2026-04-04T13:08:32.089Z</time></trkpt><trkpt lat="45.8103321" lon="12.1474604"><ele>204.99999999999997</ele><time>2026-04-04T13:08:33.089Z</time></trkpt><trkpt lat="45.8102496" lon="12.1474849"><ele>205.0</ele><time>2026-04-04T13:08:34.09Z</time></trkpt><trkpt lat="45.8101736" lon="12.1475103"><ele>205.0</ele><time>2026-04-04T13:08:35.089Z</time></trkpt><trkpt lat="45.8101042" lon="12.1475342"><ele>205.0</ele><time>2026-04-04T13:08:36.087Z</time></trkpt><trkpt lat="45.8100414" lon="12.147552"><ele>204.99999999999997</ele><time>2026-04-04T13:08:37.089Z</time></trkpt><trkpt lat="45.8099366" lon="12.1475443"><ele>205.0</ele><time>2026-04-04T13:08:39.09Z</time></trkpt><trkpt lat="45.8098322" lon="12.1474924"><ele>205.66666666666666</ele><time>2026-04-04T13:08:41.093Z</time></trkpt><trkpt lat="45.8097777" lon="12.147447"><ele>206.33333333333331</ele><time>2026-04-04T13:08:42.095Z</time></trkpt><trkpt lat="45.8097338" lon="12.1473811"><ele>207.0</ele><time>2026-04-04T13:08:43.096Z</time></trkpt><trkpt lat="45.8096838" lon="12.1473015"><ele>207.66666666666669</ele><time>2026-04-04T13:08:44.087Z</time></trkpt><trkpt lat="45.8096394" lon="12.1471849"><ele>208.33333333333334</ele><time>2026-04-04T13:08:45.09Z</time></trkpt><trkpt lat="45.8095963" lon="12.1470559"><ele>209.0</ele><time>2026-04-04T13:08:46.088Z</time></trkpt><trkpt lat="45.8095632" lon="12.1469222"><ele>209.39999999999998</ele><time>2026-04-04T13:08:47.087Z</time></trkpt><trkpt lat="45.8095251" lon="12.1467704"><ele>209.8</ele><time>2026-04-04T13:08:48.096Z</time></trkpt><trkpt lat="45.8094897" lon="12.1466192"><ele>210.2</ele><time>2026-04-04T13:08:49.094Z</time></trkpt><trkpt lat="45.8094658" lon="12.1464685"><ele>210.60000000000002</ele><time>2026-04-04T13:08:50.085Z</time></trkpt><trkpt lat="45.8094501" lon="12.1463464"><ele>211.0</ele><time>2026-04-04T13:08:51.083Z</time></trkpt><trkpt lat="45.8094418" lon="12.1462232"><ele>211.49999999999997</ele><time>2026-04-04T13:08:52.085Z</time></trkpt><trkpt lat="45.8094485" lon="12.1461029"><ele>212.0</ele><time>2026-04-04T13:08:53.087Z</time></trkpt><trkpt lat="45.8094733" lon="12.1459867"><ele>212.5</ele><time>2026-04-04T13:08:54.088Z</time></trkpt><trkpt lat="45.8095174" lon="12.1458754"><ele>213.0</ele><time>2026-04-04T13:08:55.087Z</time></trkpt><trkpt lat="45.8095453" lon="12.1457513"><ele>213.49999999999997</ele><time>2026-04-04T13:08:56.084Z</time></trkpt><trkpt lat="45.8095455" lon="12.145618"><ele>214.0</ele><time>2026-04-04T13:08:57.085Z</time></trkpt><trkpt lat="45.8094993" lon="12.1455052"><ele>213.6</ele><time>2026-04-04T13:08:58.089Z</time></trkpt><trkpt lat="45.8094232" lon="12.1454349"><ele>213.2</ele><time>2026-04-04T13:08:59.092Z</time></trkpt><trkpt lat="45.8093206" lon="12.1453875"><ele>212.79999999999998</ele><time>2026-04-04T13:09:00.083Z</time></trkpt><trkpt lat="45.809204" lon="12.1453587"><ele>212.39999999999998</ele><time>2026-04-04T13:09:01.085Z</time></trkpt><trkpt lat="45.8090794" lon="12.1453381"><ele>212.0</ele><time>2026-04-04T13:09:02.088Z</time></trkpt><trkpt lat="45.8089551" lon="12.1453172"><ele>212.0</ele><time>2026-04-04T13:09:03.086Z</time></trkpt><trkpt lat="45.8088472" lon="12.1453181"><ele>212.0</ele><time>2026-04-04T13:09:04.081Z</time></trkpt><trkpt lat="45.8087418" lon="12.1453321"><ele>212.0</ele><time>2026-04-04T13:09:05.087Z</time></trkpt><trkpt lat="45.8086388" lon="12.1453354"><ele>212.0</ele><time>2026-04-04T13:09:06.086Z</time></trkpt><trkpt lat="45.8085436" lon="12.1453236"><ele>212.0</ele><time>2026-04-04T13:09:07.085Z</time></trkpt><trkpt lat="45.8084513" lon="12.1452804"><ele>211.6</ele><time>2026-04-04T13:09:08.084Z</time></trkpt><trkpt lat="45.8083546" lon="12.1452291"><ele>211.2</ele><time>2026-04-04T13:09:09.085Z</time></trkpt><trkpt lat="45.8082544" lon="12.1451456"><ele>210.8</ele><time>2026-04-04T13:09:10.085Z</time></trkpt><trkpt lat="45.808161" lon="12.1450658"><ele>210.4</ele><time>2026-04-04T13:09:11.084Z</time></trkpt><trkpt lat="45.8080802" lon="12.1449852"><ele>210.0</ele><time>2026-04-04T13:09:12.092Z</time></trkpt><trkpt lat="45.8080056" lon="12.1449102"><ele>209.2</ele><time>2026-04-04T13:09:13.084Z</time></trkpt><trkpt lat="45.8079325" lon="12.1448379"><ele>208.4</ele><time>2026-04-04T13:09:14.084Z</time></trkpt><trkpt lat="45.8078509" lon="12.144794"><ele>207.60000000000002</ele><time>2026-04-04T13:09:15.084Z</time></trkpt><trkpt lat="45.8077573" lon="12.1447831"><ele>206.8</ele><time>2026-04-04T13:09:16.091Z</time></trkpt><trkpt lat="45.8076446" lon="12.1448351"><ele>206.0</ele><time>2026-04-04T13:09:17.084Z</time></trkpt><trkpt lat="45.8075316" lon="12.1449303"><ele>205.25</ele><time>2026-04-04T13:09:18.088Z</time></trkpt><trkpt lat="45.8074174" lon="12.1450352"><ele>204.5</ele><time>2026-04-04T13:09:19.088Z</time></trkpt><trkpt lat="45.8073201" lon="12.1451201"><ele>203.75</ele><time>2026-04-04T13:09:20.092Z</time></trkpt><trkpt lat="45.8072345" lon="12.1451865"><ele>203.0</ele><time>2026-04-04T13:09:21.091Z</time></trkpt><trkpt lat="45.8071436" lon="12.1452583"><ele>203.0</ele><time>2026-04-04T13:09:22.085Z</time></trkpt><trkpt lat="45.8070515" lon="12.1453286"><ele>203.0</ele><time>2026-04-04T13:09:23.086Z</time></trkpt><trkpt lat="45.8069618" lon="12.1454038"><ele>203.0</ele><time>2026-04-04T13:09:24.091Z</time></trkpt><trkpt lat="45.8068669" lon="12.1454795"><ele>203.0</ele><time>2026-04-04T13:09:25.085Z</time></trkpt><trkpt lat="45.8067663" lon="12.1455592"><ele>203.0</ele><time>2026-04-04T13:09:26.097Z</time></trkpt><trkpt lat="45.8066734" lon="12.1456518"><ele>202.2</ele><time>2026-04-04T13:09:27.085Z</time></trkpt><trkpt lat="45.8066066" lon="12.1457838"><ele>201.4</ele><time>2026-04-04T13:09:28.094Z</time></trkpt><trkpt lat="45.8065519" lon="12.1459389"><ele>200.6</ele><time>2026-04-04T13:09:29.086Z</time></trkpt><trkpt lat="45.8065172" lon="12.1460816"><ele>199.79999999999998</ele><time>2026-04-04T13:09:30.09Z</time></trkpt><trkpt lat="45.8064723" lon="12.1462068"><ele>199.0</ele><time>2026-04-04T13:09:31.081Z</time></trkpt><trkpt lat="45.8064244" lon="12.1463098"><ele>198.99999999999997</ele><time>2026-04-04T13:09:32.089Z</time></trkpt><trkpt lat="45.8063737" lon="12.146389"><ele>199.0</ele><time>2026-04-04T13:09:33.083Z</time></trkpt><trkpt lat="45.8063134" lon="12.1464318"><ele>199.0</ele><time>2026-04-04T13:09:34.085Z</time></trkpt><trkpt lat="45.806238" lon="12.14643"><ele>199.0</ele><time>2026-04-04T13:09:35.085Z</time></trkpt><trkpt lat="45.8061586" lon="12.1463984"><ele>198.99999999999997</ele><time>2026-04-04T13:09:36.095Z</time></trkpt><trkpt lat="45.8060763" lon="12.1463592"><ele>199.0</ele><time>2026-04-04T13:09:37.084Z</time></trkpt><trkpt lat="45.8059774" lon="12.1463231"><ele>198.0</ele><time>2026-04-04T13:09:38.09Z</time></trkpt><trkpt lat="45.8058661" lon="12.1463094"><ele>197.0</ele><time>2026-04-04T13:09:39.086Z</time></trkpt><trkpt lat="45.8057581" lon="12.1463492"><ele>196.0</ele><time>2026-04-04T13:09:40.094Z</time></trkpt><trkpt lat="45.8056634" lon="12.1463994"><ele>195.0</ele><time>2026-04-04T13:09:41.094Z</time></trkpt><trkpt lat="45.8055944" lon="12.1464351"><ele>194.0</ele><time>2026-04-04T13:09:42.092Z</time></trkpt><trkpt lat="45.8055286" lon="12.1464484"><ele>194.0</ele><time>2026-04-04T13:09:43.092Z</time></trkpt><trkpt lat="45.8054561" lon="12.1464268"><ele>194.0</ele><time>2026-04-04T13:09:44.089Z</time></trkpt><trkpt lat="45.8053837" lon="12.1463668"><ele>194.0</ele><time>2026-04-04T13:09:45.091Z</time></trkpt><trkpt lat="45.805333" lon="12.1462891"><ele>194.0</ele><time>2026-04-04T13:09:46.085Z</time></trkpt><trkpt lat="45.8052928" lon="12.1462007"><ele>194.0</ele><time>2026-04-04T13:09:47.085Z</time></trkpt><trkpt lat="45.8052882" lon="12.1461009"><ele>194.0</ele><time>2026-04-04T13:09:48.089Z</time></trkpt><trkpt lat="45.8052929" lon="12.1459958"><ele>194.0</ele><time>2026-04-04T13:09:49.091Z</time></trkpt><trkpt lat="45.8052833" lon="12.145845"><ele>194.00000000000003</ele><time>2026-04-04T13:09:51.093Z</time></trkpt><trkpt lat="45.8051649" lon="12.1457898"><ele>194.0</ele><time>2026-04-04T13:09:53.089Z</time></trkpt><trkpt lat="45.8050863" lon="12.1458403"><ele>194.0</ele><time>2026-04-04T13:09:54.089Z</time></trkpt><trkpt lat="45.8050117" lon="12.1459059"><ele>194.0</ele><time>2026-04-04T13:09:55.083Z</time></trkpt><trkpt lat="45.804941" lon="12.1459309"><ele>194.00000000000003</ele><time>2026-04-04T13:09:56.089Z</time></trkpt><trkpt lat="45.8048657" lon="12.1459147"><ele>194.0</ele><time>2026-04-04T13:09:57.086Z</time></trkpt><trkpt lat="45.8047862" lon="12.145867"><ele>193.79999999999998</ele><time>2026-04-04T13:09:58.082Z</time></trkpt><trkpt lat="45.8047095" lon="12.1457725"><ele>193.6</ele><time>2026-04-04T13:09:59.086Z</time></trkpt><trkpt lat="45.8046417" lon="12.1456569"><ele>193.4</ele><time>2026-04-04T13:10:00.087Z</time></trkpt><trkpt lat="45.8045829" lon="12.1455713"><ele>193.2</ele><time>2026-04-04T13:10:01.089Z</time></trkpt><trkpt lat="45.8045101" lon="12.1455224"><ele>193.0</ele><time>2026-04-04T13:10:02.094Z</time></trkpt><trkpt lat="45.8044058" lon="12.1455563"><ele>192.0</ele><time>2026-04-04T13:10:04.081Z</time></trkpt><trkpt lat="45.8043968" lon="12.1457557"><ele>191.0</ele><time>2026-04-04T13:10:06.086Z</time></trkpt><trkpt lat="45.8044219" lon="12.1458783"><ele>190.0</ele><time>2026-04-04T13:10:07.087Z</time></trkpt><trkpt lat="45.8044252" lon="12.1459702"><ele>189.0</ele><time>2026-04-04T13:10:08.093Z</time></trkpt><trkpt lat="45.8043524" lon="12.1460979"><ele>188.0</ele><time>2026-04-04T13:10:10.083Z</time></trkpt><trkpt lat="45.8042755" lon="12.1461225"><ele>188.0</ele><time>2026-04-04T13:10:11.085Z</time></trkpt><trkpt lat="45.8041895" lon="12.1461261"><ele>188.0</ele><time>2026-04-04T13:10:12.093Z</time></trkpt><trkpt lat="45.8041076" lon="12.1461784"><ele>188.0</ele><time>2026-04-04T13:10:13.081Z</time></trkpt><trkpt lat="45.8040493" lon="12.1462646"><ele>188.0</ele><time>2026-04-04T13:10:14.09Z</time></trkpt><trkpt lat="45.8040172" lon="12.1463425"><ele>188.0</ele><time>2026-04-04T13:10:15.077Z</time></trkpt><trkpt lat="45.8039321" lon="12.1464676"><ele>188.0</ele><time>2026-04-04T13:10:17.08Z</time></trkpt><trkpt lat="45.8038593" lon="12.146497"><ele>188.0</ele><time>2026-04-04T13:10:18.088Z</time></trkpt><trkpt lat="45.8037852" lon="12.1464842"><ele>188.0</ele><time>2026-04-04T13:10:19.086Z</time></trkpt><trkpt lat="45.8037023" lon="12.1464351"><ele>188.0</ele><time>2026-04-04T13:10:20.085Z</time></trkpt><trkpt lat="45.8036125" lon="12.1463654"><ele>188.0</ele><time>2026-04-04T13:10:21.086Z</time></trkpt><trkpt lat="45.8035046" lon="12.1463301"><ele>188.0</ele><time>2026-04-04T13:10:22.094Z</time></trkpt><trkpt lat="45.8033959" lon="12.1463386"><ele>187.25</ele><time>2026-04-04T13:10:23.08Z</time></trkpt><trkpt lat="45.8032872" lon="12.1463465"><ele>186.5</ele><time>2026-04-04T13:10:24.083Z</time></trkpt><trkpt lat="45.8031733" lon="12.1463628"><ele>185.75</ele><time>2026-04-04T13:10:25.085Z</time></trkpt><trkpt lat="45.8030565" lon="12.1463911"><ele>185.0</ele><time>2026-04-04T13:10:26.083Z</time></trkpt><trkpt lat="45.8029448" lon="12.1464295"><ele>185.0</ele><time>2026-04-04T13:10:27.086Z</time></trkpt><trkpt lat="45.8028538" lon="12.1464673"><ele>185.0</ele><time>2026-04-04T13:10:28.093Z</time></trkpt><trkpt lat="45.8027789" lon="12.1464996"><ele>185.0</ele><time>2026-04-04T13:10:29.091Z</time></trkpt><trkpt lat="45.8026726" lon="12.146523"><ele>185.0</ele><time>2026-04-04T13:10:31.085Z</time></trkpt><trkpt lat="45.8025565" lon="12.1464258"><ele>185.0</ele><time>2026-04-04T13:10:33.091Z</time></trkpt><trkpt lat="45.8024916" lon="12.146319"><ele>183.0</ele><time>2026-04-04T13:10:34.089Z</time></trkpt><trkpt lat="45.8024079" lon="12.1461962"><ele>181.0</ele><time>2026-04-04T13:10:35.087Z</time></trkpt><trkpt lat="45.8023137" lon="12.1460859"><ele>179.0</ele><time>2026-04-04T13:10:36.086Z</time></trkpt><trkpt lat="45.802216" lon="12.14598"><ele>177.0</ele><time>2026-04-04T13:10:37.083Z</time></trkpt><trkpt lat="45.8021217" lon="12.1458706"><ele>177.0</ele><time>2026-04-04T13:10:38.091Z</time></trkpt><trkpt lat="45.8020433" lon="12.145761"><ele>177.0</ele><time>2026-04-04T13:10:39.08Z</time></trkpt><trkpt lat="45.8019518" lon="12.1456427"><ele>177.0</ele><time>2026-04-04T13:10:40.085Z</time></trkpt><trkpt lat="45.801844" lon="12.1455339"><ele>177.0</ele><time>2026-04-04T13:10:41.083Z</time></trkpt><trkpt lat="45.8017367" lon="12.1454317"><ele>174.39999999999998</ele><time>2026-04-04T13:10:42.088Z</time></trkpt><trkpt lat="45.8016471" lon="12.1453225"><ele>171.79999999999998</ele><time>2026-04-04T13:10:43.085Z</time></trkpt><trkpt lat="45.8015681" lon="12.1452262"><ele>169.2</ele><time>2026-04-04T13:10:44.083Z</time></trkpt><trkpt lat="45.8014961" lon="12.1451304"><ele>166.6</ele><time>2026-04-04T13:10:45.083Z</time></trkpt><trkpt lat="45.8014282" lon="12.1450323"><ele>164.0</ele><time>2026-04-04T13:10:46.092Z</time></trkpt><trkpt lat="45.8013762" lon="12.1449197"><ele>164.0</ele><time>2026-04-04T13:10:47.083Z</time></trkpt><trkpt lat="45.8013557" lon="12.1448026"><ele>164.0</ele><time>2026-04-04T13:10:48.087Z</time></trkpt><trkpt lat="45.8013609" lon="12.1446551"><ele>164.0</ele><time>2026-04-04T13:10:49.087Z</time></trkpt><trkpt lat="45.8013819" lon="12.1444835"><ele>164.0</ele><time>2026-04-04T13:10:50.088Z</time></trkpt><trkpt lat="45.8045829" lon="12.1455713"><ele>168.79999999999998</ele><time>2026-04-04T13:10:01.089Z</time></trkpt><trkpt lat="45.8045101" lon="12.1455224"><ele>173.6</ele><time>2026-04-04T13:10:02.094Z</time></trkpt><trkpt lat="45.8044058" lon="12.1455563"><ele>178.4</ele><time>2026-04-04T13:10:04.081Z</time></trkpt><trkpt lat="45.8043968" lon="12.1457557"><ele>183.2</ele><time>2026-04-04T13:10:06.086Z</time></trkpt><trkpt lat="45.8044219" lon="12.1458783"><ele>188.0</ele><time>2026-04-04T13:10:07.087Z</time></trkpt><trkpt lat="45.8044252" lon="12.1459702"><ele>188.0</ele><time>2026-04-04T13:10:08.093Z</time></trkpt><trkpt lat="45.8043524" lon="12.1460979"><ele>188.0</ele><time>2026-04-04T13:10:10.083Z</time></trkpt><trkpt lat="45.8042755" lon="12.1461225"><ele>188.0</ele><time>2026-04-04T13:10:11.085Z</time></trkpt><trkpt lat="45.8041895" lon="12.1461261"><ele>188.0</ele><time>2026-04-04T13:10:12.093Z</time></trkpt><trkpt lat="45.8041076" lon="12.1461784"><ele>188.0</ele><time>2026-04-04T13:10:13.081Z</time></trkpt><trkpt lat="45.8040493" lon="12.1462646"><ele>188.0</ele><time>2026-04-04T13:10:14.09Z</time></trkpt><trkpt lat="45.8040172" lon="12.1463425"><ele>188.0</ele><time>2026-04-04T13:10:15.077Z</time></trkpt><trkpt lat="45.8039321" lon="12.1464676"><ele>188.0</ele><time>2026-04-04T13:10:17.08Z</time></trkpt><trkpt lat="45.8038593" lon="12.146497"><ele>188.0</ele><time>2026-04-04T13:10:18.088Z</time></trkpt><trkpt lat="45.8037852" lon="12.1464842"><ele>188.0</ele><time>2026-04-04T13:10:19.086Z</time></trkpt><trkpt lat="45.8037023" lon="12.1464351"><ele>188.0</ele><time>2026-04-04T13:10:20.085Z</time></trkpt><trkpt lat="45.8036125" lon="12.1463654"><ele>188.0</ele><time>2026-04-04T13:10:21.086Z</time></trkpt><trkpt lat="45.8035046" lon="12.1463301"><ele>188.0</ele><time>2026-04-04T13:10:22.094Z</time></trkpt><trkpt lat="45.8033959" lon="12.1463386"><ele>188.0</ele><time>2026-04-04T13:10:23.08Z</time></trkpt><trkpt lat="45.8032872" lon="12.1463465"><ele>188.0</ele><time>2026-04-04T13:10:24.083Z</time></trkpt><trkpt lat="45.8031733" lon="12.1463628"><ele>188.0</ele><time>2026-04-04T13:10:25.085Z</time></trkpt><trkpt lat="45.8030565" lon="12.1463911"><ele>187.4</ele><time>2026-04-04T13:10:26.083Z</time></trkpt><trkpt lat="45.8029448" lon="12.1464295"><ele>186.8</ele><time>2026-04-04T13:10:27.086Z</time></trkpt><trkpt lat="45.8028538" lon="12.1464673"><ele>186.2</ele><time>2026-04-04T13:10:28.093Z</time></trkpt><trkpt lat="45.8027789" lon="12.1464996"><ele>185.6</ele><time>2026-04-04T13:10:29.091Z</time></trkpt><trkpt lat="45.8026726" lon="12.146523"><ele>185.0</ele><time>2026-04-04T13:10:31.085Z</time></trkpt><trkpt lat="45.8025565" lon="12.1464258"><ele>183.0</ele><time>2026-04-04T13:10:33.091Z</time></trkpt><trkpt lat="45.8024916" lon="12.146319"><ele>181.0</ele><time>2026-04-04T13:10:34.089Z</time></trkpt><trkpt lat="45.8024079" lon="12.1461962"><ele>179.0</ele><time>2026-04-04T13:10:35.087Z</time></trkpt><trkpt lat="45.8023137" lon="12.1460859"><ele>177.0</ele><time>2026-04-04T13:10:36.086Z</time></trkpt><trkpt lat="45.802216" lon="12.14598"><ele>177.0</ele><time>2026-04-04T13:10:37.083Z</time></trkpt><trkpt lat="45.8021217" lon="12.1458706"><ele>177.0</ele><time>2026-04-04T13:10:38.091Z</time></trkpt><trkpt lat="45.8020433" lon="12.145761"><ele>177.0</ele><time>2026-04-04T13:10:39.08Z</time></trkpt><trkpt lat="45.8019518" lon="12.1456427"><ele>177.0</ele><time>2026-04-04T13:10:40.085Z</time></trkpt><trkpt lat="45.801844" lon="12.1455339"><ele>174.39999999999998</ele><time>2026-04-04T13:10:41.083Z</time></trkpt><trkpt lat="45.8017367" lon="12.1454317"><ele>171.79999999999998</ele><time>2026-04-04T13:10:42.088Z</time></trkpt><trkpt lat="45.8016471" lon="12.1453225"><ele>169.2</ele><time>2026-04-04T13:10:43.085Z</time></trkpt><trkpt lat="45.8015681" lon="12.1452262"><ele>166.6</ele><time>2026-04-04T13:10:44.083Z</time></trkpt><trkpt lat="45.8014961" lon="12.1451304"><ele>164.0</ele><time>2026-04-04T13:10:45.083Z</time></trkpt><trkpt lat="45.8014282" lon="12.1450323"><ele>164.0</ele><time>2026-04-04T13:10:46.092Z</time></trkpt><trkpt lat="45.8013762" lon="12.1449197"><ele>164.0</ele><time>2026-04-04T13:10:47.083Z</time></trkpt><trkpt lat="45.8013557" lon="12.1448026"><ele>164.0</ele><time>2026-04-04T13:10:48.087Z</time></trkpt><trkpt lat="45.8013609" lon="12.1446551"><ele>164.0</ele><time>2026-04-04T13:10:49.087Z</time></trkpt><trkpt lat="45.8013819" lon="12.1444835"><ele>164.0</ele><time>2026-04-04T13:10:50.088Z</time></trkpt><trkpt lat="45.8014051" lon="12.1443359"><ele>164.0</ele><time>2026-04-04T13:10:51.083Z</time></trkpt><trkpt lat="45.8014162" lon="12.1442341"><ele>164.0</ele><time>2026-04-04T13:10:52.085Z</time></trkpt><trkpt lat="45.8013947" lon="12.1441424"><ele>164.0</ele><time>2026-04-04T13:10:53.087Z</time></trkpt><trkpt lat="45.8013394" lon="12.1440703"><ele>164.0</ele><time>2026-04-04T13:10:54.083Z</time></trkpt><trkpt lat="45.8012694" lon="12.1440203"><ele>164.0</ele><time>2026-04-04T13:10:55.083Z</time></trkpt><trkpt lat="45.8011702" lon="12.1440078"><ele>164.0</ele><time>2026-04-04T13:10:56.092Z</time></trkpt><trkpt lat="45.8010582" lon="12.1440057"><ele>165.2</ele><time>2026-04-04T13:10:57.083Z</time></trkpt><trkpt lat="45.8009544" lon="12.1439996"><ele>166.39999999999998</ele><time>2026-04-04T13:10:58.084Z</time></trkpt><trkpt lat="45.8008548" lon="12.1439874"><ele>167.6</ele><time>2026-04-04T13:10:59.086Z</time></trkpt><trkpt lat="45.8007502" lon="12.1439384"><ele>168.8</ele><time>2026-04-04T13:11:00.086Z</time></trkpt><trkpt lat="45.8006479" lon="12.1438578"><ele>170.0</ele><time>2026-04-04T13:11:01.084Z</time></trkpt><trkpt lat="45.8005466" lon="12.14375"><ele>170.0</ele><time>2026-04-04T13:11:02.083Z</time></trkpt><trkpt lat="45.8004487" lon="12.1436513"><ele>170.0</ele><time>2026-04-04T13:11:03.083Z</time></trkpt><trkpt lat="45.8003671" lon="12.1435699"><ele>170.0</ele><time>2026-04-04T13:11:04.086Z</time></trkpt><trkpt lat="45.8002983" lon="12.143488"><ele>170.0</ele><time>2026-04-04T13:11:05.083Z</time></trkpt><trkpt lat="45.8002398" lon="12.1433896"><ele>170.0</ele><time>2026-04-04T13:11:06.088Z</time></trkpt><trkpt lat="45.8001898" lon="12.1432679"><ele>168.0</ele><time>2026-04-04T13:11:07.083Z</time></trkpt><trkpt lat="45.8001604" lon="12.1431329"><ele>166.0</ele><time>2026-04-04T13:11:08.088Z</time></trkpt><trkpt lat="45.8001298" lon="12.1430157"><ele>164.0</ele><time>2026-04-04T13:11:09.083Z</time></trkpt><trkpt lat="45.800092" lon="12.1429254"><ele>162.0</ele><time>2026-04-04T13:11:10.088Z</time></trkpt><trkpt lat="45.8000281" lon="12.142875"><ele>160.0</ele><time>2026-04-04T13:11:11.087Z</time></trkpt><trkpt lat="45.7999592" lon="12.1428659"><ele>158.0</ele><time>2026-04-04T13:11:12.083Z</time></trkpt><trkpt lat="45.7998946" lon="12.142887"><ele>158.0</ele><time>2026-04-04T13:11:13.08Z</time></trkpt><trkpt lat="45.7997936" lon="12.1430109"><ele>158.0</ele><time>2026-04-04T13:11:15.09Z</time></trkpt><trkpt lat="45.7997593" lon="12.1431291"><ele>158.0</ele><time>2026-04-04T13:11:16.083Z</time></trkpt><trkpt lat="45.7997533" lon="12.1432908"><ele>158.0</ele><time>2026-04-04T13:11:17.084Z</time></trkpt><trkpt lat="45.7997473" lon="12.1434535"><ele>158.0</ele><time>2026-04-04T13:11:18.084Z</time></trkpt><trkpt lat="45.7997291" lon="12.1436043"><ele>158.16666666666666</ele><time>2026-04-04T13:11:19.084Z</time></trkpt><trkpt lat="45.7996992" lon="12.1437639"><ele>158.33333333333331</ele><time>2026-04-04T13:11:20.08Z</time></trkpt><trkpt lat="45.7996728" lon="12.1439032"><ele>158.5</ele><time>2026-04-04T13:11:21.08Z</time></trkpt><trkpt lat="45.7996529" lon="12.144018"><ele>158.66666666666666</ele><time>2026-04-04T13:11:22.083Z</time></trkpt><trkpt lat="45.7996222" lon="12.144117"><ele>158.83333333333334</ele><time>2026-04-04T13:11:23.083Z</time></trkpt><trkpt lat="45.7995871" lon="12.1442064"><ele>159.0</ele><time>2026-04-04T13:11:24.089Z</time></trkpt><trkpt lat="45.7995363" lon="12.1442886"><ele>160.2</ele><time>2026-04-04T13:11:25.088Z</time></trkpt><trkpt lat="45.7994734" lon="12.1443745"><ele>161.4</ele><time>2026-04-04T13:11:26.089Z</time></trkpt><trkpt lat="45.7993886" lon="12.1444449"><ele>162.6</ele><time>2026-04-04T13:11:27.084Z</time></trkpt><trkpt lat="45.7993" lon="12.144508"><ele>163.8</ele><time>2026-04-04T13:11:28.091Z</time></trkpt><trkpt lat="45.7992038" lon="12.144549"><ele>165.0</ele><time>2026-04-04T13:11:29.087Z</time></trkpt><trkpt lat="45.7991042" lon="12.144564"><ele>166.33333333333334</ele><time>2026-04-04T13:11:30.088Z</time></trkpt><trkpt lat="45.7990091" lon="12.1445794"><ele>167.66666666666666</ele><time>2026-04-04T13:11:31.089Z</time></trkpt><trkpt lat="45.7989379" lon="12.1446295"><ele>169.0</ele><time>2026-04-04T13:11:32.086Z</time></trkpt><trkpt lat="45.7988637" lon="12.1446754"><ele>170.33333333333331</ele><time>2026-04-04T13:11:33.086Z</time></trkpt><trkpt lat="45.7987894" lon="12.1447249"><ele>171.66666666666666</ele><time>2026-04-04T13:11:34.09Z</time></trkpt><trkpt lat="45.7987125" lon="12.1447691"><ele>173.0</ele><time>2026-04-04T13:11:35.086Z</time></trkpt><trkpt lat="45.7986264" lon="12.1447888"><ele>173.0</ele><time>2026-04-04T13:11:36.086Z</time></trkpt><trkpt lat="45.7985435" lon="12.1447857"><ele>173.0</ele><time>2026-04-04T13:11:37.086Z</time></trkpt><trkpt lat="45.7984613" lon="12.1447636"><ele>173.0</ele><time>2026-04-04T13:11:38.087Z</time></trkpt><trkpt lat="45.7983843" lon="12.1447476"><ele>173.0</ele><time>2026-04-04T13:11:39.089Z</time></trkpt><trkpt lat="45.7983159" lon="12.1447382"><ele>173.0</ele><time>2026-04-04T13:11:40.086Z</time></trkpt><trkpt lat="45.7982326" lon="12.1447684"><ele>173.0</ele><time>2026-04-04T13:11:41.084Z</time></trkpt><trkpt lat="45.7981578" lon="12.1448219"><ele>171.5</ele><time>2026-04-04T13:11:42.084Z</time></trkpt><trkpt lat="45.7980889" lon="12.1448701"><ele>170.0</ele><time>2026-04-04T13:11:43.088Z</time></trkpt><trkpt lat="45.798014" lon="12.1449147"><ele>168.5</ele><time>2026-04-04T13:11:44.087Z</time></trkpt><trkpt lat="45.7979427" lon="12.1449551"><ele>167.0</ele><time>2026-04-04T13:11:45.086Z</time></trkpt><trkpt lat="45.7978619" lon="12.1450024"><ele>165.5</ele><time>2026-04-04T13:11:46.088Z</time></trkpt><trkpt lat="45.7977634" lon="12.1450724"><ele>164.0</ele><time>2026-04-04T13:11:47.083Z</time></trkpt><trkpt lat="45.797666" lon="12.1451521"><ele>159.6</ele><time>2026-04-04T13:11:48.085Z</time></trkpt><trkpt lat="45.7975827" lon="12.1452367"><ele>155.2</ele><time>2026-04-04T13:11:49.092Z</time></trkpt><trkpt lat="45.7974961" lon="12.1453148"><ele>150.79999999999998</ele><time>2026-04-04T13:11:50.093Z</time></trkpt><trkpt lat="45.7974059" lon="12.1453949"><ele>146.39999999999998</ele><time>2026-04-04T13:11:51.086Z</time></trkpt><trkpt lat="45.7973205" lon="12.1454659"><ele>142.0</ele><time>2026-04-04T13:11:52.087Z</time></trkpt><trkpt lat="45.7972496" lon="12.1455203"><ele>142.0</ele><time>2026-04-04T13:11:53.084Z</time></trkpt><trkpt lat="45.7971453" lon="12.1455917"><ele>142.0</ele><time>2026-04-04T13:11:55.091Z</time></trkpt><trkpt lat="45.7970646" lon="12.1455957"><ele>142.0</ele><time>2026-04-04T13:11:57.085Z</time></trkpt><trkpt lat="45.7970021" lon="12.1454607"><ele>142.0</ele><time>2026-04-04T13:11:59.095Z</time></trkpt><trkpt lat="45.7969707" lon="12.1453495"><ele>142.0</ele><time>2026-04-04T13:12:00.092Z</time></trkpt><trkpt lat="45.7969324" lon="12.1452366"><ele>142.0</ele><time>2026-04-04T13:12:01.087Z</time></trkpt><trkpt lat="45.796891" lon="12.1451235"><ele>142.0</ele><time>2026-04-04T13:12:02.081Z</time></trkpt><trkpt lat="45.7968315" lon="12.1450273"><ele>142.0</ele><time>2026-04-04T13:12:03.082Z</time></trkpt><trkpt lat="45.7967723" lon="12.1449498"><ele>142.0</ele><time>2026-04-04T13:12:04.081Z</time></trkpt><trkpt lat="45.7966994" lon="12.1448999"><ele>142.0</ele><time>2026-04-04T13:12:05.087Z</time></trkpt><trkpt lat="45.7965678" lon="12.1449366"><ele>139.66666666666669</ele><time>2026-04-04T13:12:07.084Z</time></trkpt><trkpt lat="45.7965105" lon="12.1450094"><ele>137.33333333333334</ele><time>2026-04-04T13:12:08.087Z</time></trkpt><trkpt lat="45.7964489" lon="12.1450874"><ele>135.0</ele><time>2026-04-04T13:12:09.086Z</time></trkpt><trkpt lat="45.7963856" lon="12.1451749"><ele>132.66666666666666</ele><time>2026-04-04T13:12:10.086Z</time></trkpt><trkpt lat="45.7963118" lon="12.1452368"><ele>130.33333333333331</ele><time>2026-04-04T13:12:11.084Z</time></trkpt><trkpt lat="45.7962357" lon="12.145297"><ele>128.0</ele><time>2026-04-04T13:12:12.094Z</time></trkpt><trkpt lat="45.7961566" lon="12.1453554"><ele>128.0</ele><time>2026-04-04T13:12:13.084Z</time></trkpt><trkpt lat="45.7960799" lon="12.1454182"><ele>128.0</ele><time>2026-04-04T13:12:14.085Z</time></trkpt><trkpt lat="45.7960066" lon="12.1454961"><ele>128.0</ele><time>2026-04-04T13:12:15.085Z</time></trkpt><trkpt lat="45.7959414" lon="12.1455871"><ele>128.0</ele><time>2026-04-04T13:12:16.094Z</time></trkpt><trkpt lat="45.7958784" lon="12.1456877"><ele>128.0</ele><time>2026-04-04T13:12:17.086Z</time></trkpt><trkpt lat="45.7958128" lon="12.1457875"><ele>126.33333333333333</ele><time>2026-04-04T13:12:18.089Z</time></trkpt><trkpt lat="45.7957414" lon="12.1458733"><ele>124.66666666666666</ele><time>2026-04-04T13:12:19.088Z</time></trkpt><trkpt lat="45.7956672" lon="12.1459441"><ele>123.0</ele><time>2026-04-04T13:12:20.09Z</time></trkpt><trkpt lat="45.7955919" lon="12.146007"><ele>121.33333333333334</ele><time>2026-04-04T13:12:21.084Z</time></trkpt><trkpt lat="45.7955182" lon="12.1460709"><ele>119.66666666666667</ele><time>2026-04-04T13:12:22.091Z</time></trkpt><trkpt lat="45.7954468" lon="12.1461414"><ele>118.0</ele><time>2026-04-04T13:12:23.08Z</time></trkpt><trkpt lat="45.7953686" lon="12.1462181"><ele>118.0</ele><time>2026-04-04T13:12:24.092Z</time></trkpt><trkpt lat="45.7952864" lon="12.1462813"><ele>118.00000000000001</ele><time>2026-04-04T13:12:25.087Z</time></trkpt><trkpt lat="45.7952017" lon="12.1463311"><ele>118.00000000000001</ele><time>2026-04-04T13:12:26.086Z</time></trkpt><trkpt lat="45.795111" lon="12.1463808"><ele>118.0</ele><time>2026-04-04T13:12:27.089Z</time></trkpt><trkpt lat="45.795023" lon="12.1464323"><ele>118.0</ele><time>2026-04-04T13:12:28.095Z</time></trkpt><trkpt lat="45.7949454" lon="12.1465056"><ele>115.0</ele><time>2026-04-04T13:12:29.096Z</time></trkpt><trkpt lat="45.7948766" lon="12.1465707"><ele>112.00000000000001</ele><time>2026-04-04T13:12:30.092Z</time></trkpt><trkpt lat="45.7948158" lon="12.1466207"><ele>109.0</ele><time>2026-04-04T13:12:31.088Z</time></trkpt><trkpt lat="45.794701" lon="12.1466753"><ele>106.0</ele><time>2026-04-04T13:12:33.086Z</time></trkpt><trkpt lat="45.7946357" lon="12.1466692"><ele>103.0</ele><time>2026-04-04T13:12:34.095Z</time></trkpt><trkpt lat="45.7945295" lon="12.1466069"><ele>103.80000000000001</ele><time>2026-04-04T13:12:36.09Z</time></trkpt><trkpt lat="45.7944582" lon="12.1465101"><ele>104.6</ele><time>2026-04-04T13:12:38.094Z</time></trkpt><trkpt lat="45.794455" lon="12.1463415"><ele>105.39999999999999</ele><time>2026-04-04T13:12:40.1Z</time></trkpt><trkpt lat="45.7944598" lon="12.1462302"><ele>106.19999999999999</ele><time>2026-04-04T13:12:41.086Z</time></trkpt><trkpt lat="45.7944662" lon="12.1461086"><ele>107.0</ele><time>2026-04-04T13:12:42.086Z</time></trkpt><trkpt lat="45.7944723" lon="12.1459755"><ele>107.0</ele><time>2026-04-04T13:12:43.09Z</time></trkpt><trkpt lat="45.7944769" lon="12.14585"><ele>106.99999999999999</ele><time>2026-04-04T13:12:44.09Z</time></trkpt><trkpt lat="45.7944791" lon="12.145723"><ele>106.99999999999999</ele><time>2026-04-04T13:12:45.091Z</time></trkpt><trkpt lat="45.7944806" lon="12.1455913"><ele>107.0</ele><time>2026-04-04T13:12:46.098Z</time></trkpt><trkpt lat="45.7944839" lon="12.1454482"><ele>107.0</ele><time>2026-04-04T13:12:47.09Z</time></trkpt><trkpt lat="45.7944892" lon="12.1452871"><ele>106.39999999999999</ele><time>2026-04-04T13:12:48.089Z</time></trkpt><trkpt lat="45.7944944" lon="12.1451208"><ele>105.79999999999998</ele><time>2026-04-04T13:12:49.091Z</time></trkpt><trkpt lat="45.794501" lon="12.1449615"><ele>105.2</ele><time>2026-04-04T13:12:50.091Z</time></trkpt><trkpt lat="45.7945072" lon="12.1448034"><ele>104.6</ele><time>2026-04-04T13:12:51.088Z</time></trkpt><trkpt lat="45.7945157" lon="12.1446514"><ele>104.0</ele><time>2026-04-04T13:12:52.089Z</time></trkpt><trkpt lat="45.7945238" lon="12.1445016"><ele>104.0</ele><time>2026-04-04T13:12:53.087Z</time></trkpt><trkpt lat="45.7945379" lon="12.1443508"><ele>104.0</ele><time>2026-04-04T13:12:54.09Z</time></trkpt><trkpt lat="45.794552" lon="12.1442105"><ele>104.0</ele><time>2026-04-04T13:12:55.09Z</time></trkpt><trkpt lat="45.7945698" lon="12.1440673"><ele>104.0</ele><time>2026-04-04T13:12:56.094Z</time></trkpt><trkpt lat="45.7946006" lon="12.1439201"><ele>104.0</ele><time>2026-04-04T13:12:57.087Z</time></trkpt><trkpt lat="45.7946423" lon="12.143774"><ele>104.2</ele><time>2026-04-04T13:12:58.09Z</time></trkpt><trkpt lat="45.7946783" lon="12.1436381"><ele>104.4</ele><time>2026-04-04T13:12:59.083Z</time></trkpt><trkpt lat="45.7947114" lon="12.1435017"><ele>104.6</ele><time>2026-04-04T13:13:00.094Z</time></trkpt><trkpt lat="45.7947416" lon="12.1433815"><ele>104.8</ele><time>2026-04-04T13:13:01.094Z</time></trkpt><trkpt lat="45.7947715" lon="12.1432663"><ele>105.0</ele><time>2026-04-04T13:13:02.087Z</time></trkpt><trkpt lat="45.794802" lon="12.1431492"><ele>105.0</ele><time>2026-04-04T13:13:03.083Z</time></trkpt><trkpt lat="45.7948309" lon="12.1430501"><ele>105.0</ele><time>2026-04-04T13:13:04.095Z</time></trkpt><trkpt lat="45.7948562" lon="12.1429526"><ele>105.0</ele><time>2026-04-04T13:13:05.087Z</time></trkpt><trkpt lat="45.7948761" lon="12.1428618"><ele>105.0</ele><time>2026-04-04T13:13:06.087Z</time></trkpt><trkpt lat="45.7948984" lon="12.1427497"><ele>105.0</ele><time>2026-04-04T13:13:07.093Z</time></trkpt><trkpt lat="45.7949024" lon="12.1426451"><ele>105.0</ele><time>2026-04-04T13:13:08.089Z</time></trkpt><trkpt lat="45.7948999" lon="12.1425274"><ele>105.0</ele><time>2026-04-04T13:13:09.085Z</time></trkpt><trkpt lat="45.7948985" lon="12.1423933"><ele>105.0</ele><time>2026-04-04T13:13:10.087Z</time></trkpt><trkpt lat="45.7949011" lon="12.1422625"><ele>105.0</ele><time>2026-04-04T13:13:11.087Z</time></trkpt><trkpt lat="45.7949007" lon="12.1421583"><ele>105.0</ele><time>2026-04-04T13:13:12.088Z</time></trkpt><trkpt lat="45.7948994" lon="12.1420656"><ele>105.0</ele><time>2026-04-04T13:13:13.088Z</time></trkpt><trkpt lat="45.7948962" lon="12.1419333"><ele>105.0</ele><time>2026-04-04T13:13:15.088Z</time></trkpt><trkpt lat="45.7949112" lon="12.1418404"><ele>106.5</ele><time>2026-04-04T13:13:17.101Z</time></trkpt><trkpt lat="45.7950094" lon="12.1417735"><ele>108.0</ele><time>2026-04-04T13:13:20.089Z</time></trkpt><trkpt lat="45.7950745" lon="12.1417703"><ele>109.5</ele><time>2026-04-04T13:13:21.091Z</time></trkpt><trkpt lat="45.7951595" lon="12.141749"><ele>111.0</ele><time>2026-04-04T13:13:22.09Z</time></trkpt><trkpt lat="45.7952389" lon="12.141693"><ele>112.5</ele><time>2026-04-04T13:13:23.088Z</time></trkpt><trkpt lat="45.7953189" lon="12.1416217"><ele>114.0</ele><time>2026-04-04T13:13:24.088Z</time></trkpt><trkpt lat="45.7954024" lon="12.1415514"><ele>118.5</ele><time>2026-04-04T13:13:25.088Z</time></trkpt><trkpt lat="45.7954972" lon="12.1415026"><ele>123.0</ele><time>2026-04-04T13:13:26.091Z</time></trkpt><trkpt lat="45.7956073" lon="12.1414542"><ele>127.5</ele><time>2026-04-04T13:13:27.1Z</time></trkpt><trkpt lat="45.7957253" lon="12.1413957"><ele>132.0</ele><time>2026-04-04T13:13:28.091Z</time></trkpt><trkpt lat="45.7958401" lon="12.1413256"><ele>132.0</ele><time>2026-04-04T13:13:29.084Z</time></trkpt><trkpt lat="45.7959439" lon="12.1412431"><ele>132.0</ele><time>2026-04-04T13:13:30.09Z</time></trkpt><trkpt lat="45.7960378" lon="12.1411447"><ele>132.0</ele><time>2026-04-04T13:13:31.089Z</time></trkpt><trkpt lat="45.7961148" lon="12.1410262"><ele>132.0</ele><time>2026-04-04T13:13:32.091Z</time></trkpt><trkpt lat="45.796186" lon="12.1408871"><ele>132.5</ele><time>2026-04-04T13:13:33.084Z</time></trkpt><trkpt lat="45.7962606" lon="12.1407233"><ele>133.0</ele><time>2026-04-04T13:13:34.092Z</time></trkpt><trkpt lat="45.7963189" lon="12.1405504"><ele>133.5</ele><time>2026-04-04T13:13:35.086Z</time></trkpt><trkpt lat="45.7963776" lon="12.1403818"><ele>134.0</ele><time>2026-04-04T13:13:36.09Z</time></trkpt><trkpt lat="45.7964344" lon="12.1402209"><ele>135.4</ele><time>2026-04-04T13:13:37.085Z</time></trkpt><trkpt lat="45.7964904" lon="12.1400649"><ele>136.8</ele><time>2026-04-04T13:13:38.094Z</time></trkpt><trkpt lat="45.7965549" lon="12.1399188"><ele>138.2</ele><time>2026-04-04T13:13:39.089Z</time></trkpt><trkpt lat="45.7966116" lon="12.1397839"><ele>139.6</ele><time>2026-04-04T13:13:40.085Z</time></trkpt><trkpt lat="45.7966731" lon="12.1396777"><ele>141.0</ele><time>2026-04-04T13:13:41.088Z</time></trkpt><trkpt lat="45.7967177" lon="12.1395925"><ele>141.0</ele><time>2026-04-04T13:13:42.088Z</time></trkpt><trkpt lat="45.7967935" lon="12.1395139"><ele>141.0</ele><time>2026-04-04T13:13:44.087Z</time></trkpt><trkpt lat="45.7968539" lon="12.139569"><ele>141.0</ele><time>2026-04-04T13:13:46.108Z</time></trkpt><trkpt lat="45.7968701" lon="12.1396907"><ele>141.0</ele><time>2026-04-04T13:13:48.098Z</time></trkpt><trkpt lat="45.7968504" lon="12.1398002"><ele>141.0</ele><time>2026-04-04T13:13:49.092Z</time></trkpt><trkpt lat="45.7967845" lon="12.139914"><ele>141.0</ele><time>2026-04-04T13:13:50.097Z</time></trkpt><trkpt lat="45.7967413" lon="12.140032"><ele>141.0</ele><time>2026-04-04T13:13:51.09Z</time></trkpt><trkpt lat="45.7967177" lon="12.140139"><ele>141.0</ele><time>2026-04-04T13:13:52.097Z</time></trkpt><trkpt lat="45.7967174" lon="12.140269"><ele>141.0</ele><time>2026-04-04T13:13:53.093Z</time></trkpt><trkpt lat="45.7967288" lon="12.1403908"><ele>141.0</ele><time>2026-04-04T13:13:54.089Z</time></trkpt><trkpt lat="45.7967394" lon="12.1404851"><ele>141.0</ele><time>2026-04-04T13:13:55.095Z</time></trkpt><trkpt lat="45.7967697" lon="12.1405803"><ele>141.0</ele><time>2026-04-04T13:13:57.097Z</time></trkpt><trkpt lat="45.7968337" lon="12.1405946"><ele>143.0</ele><time>2026-04-04T13:13:59.098Z</time></trkpt><trkpt lat="45.796875" lon="12.1404835"><ele>145.0</ele><time>2026-04-04T13:14:01.091Z</time></trkpt><trkpt lat="45.7968822" lon="12.1403883"><ele>147.0</ele><time>2026-04-04T13:14:02.093Z</time></trkpt><trkpt lat="45.7968994" lon="12.1402955"><ele>149.0</ele><time>2026-04-04T13:14:03.091Z</time></trkpt><trkpt lat="45.7969591" lon="12.1402269"><ele>151.0</ele><time>2026-04-04T13:14:04.094Z</time></trkpt><trkpt lat="45.7970176" lon="12.1401662"><ele>153.0</ele><time>2026-04-04T13:14:05.089Z</time></trkpt><trkpt lat="45.79708" lon="12.1401208"><ele>155.0</ele><time>2026-04-04T13:14:06.086Z</time></trkpt><trkpt lat="45.7971418" lon="12.1400823"><ele>155.0</ele><time>2026-04-04T13:14:07.086Z</time></trkpt><trkpt lat="45.7972074" lon="12.1400278"><ele>155.0</ele><time>2026-04-04T13:14:08.087Z</time></trkpt><trkpt lat="45.7972654" lon="12.1399768"><ele>155.0</ele><time>2026-04-04T13:14:09.085Z</time></trkpt><trkpt lat="45.7973729" lon="12.1399055"><ele>155.0</ele><time>2026-04-04T13:14:11.081Z</time></trkpt><trkpt lat="45.7974958" lon="12.1398454"><ele>155.0</ele><time>2026-04-04T13:14:13.088Z</time></trkpt><trkpt lat="45.797567" lon="12.1398015"><ele>153.8</ele><time>2026-04-04T13:14:14.084Z</time></trkpt><trkpt lat="45.797662" lon="12.1397484"><ele>152.6</ele><time>2026-04-04T13:14:15.092Z</time></trkpt><trkpt lat="45.7977539" lon="12.1396813"><ele>151.4</ele><time>2026-04-04T13:14:16.088Z</time></trkpt><trkpt lat="45.79786" lon="12.1396145"><ele>150.2</ele><time>2026-04-04T13:14:17.084Z</time></trkpt><trkpt lat="45.7979628" lon="12.1395512"><ele>149.0</ele><time>2026-04-04T13:14:18.084Z</time></trkpt><trkpt lat="45.7980633" lon="12.1394944"><ele>152.2</ele><time>2026-04-04T13:14:19.089Z</time></trkpt><trkpt lat="45.7981715" lon="12.1394538"><ele>155.4</ele><time>2026-04-04T13:14:20.1Z</time></trkpt><trkpt lat="45.7982801" lon="12.1394282"><ele>158.6</ele><time>2026-04-04T13:14:21.085Z</time></trkpt><trkpt lat="45.7983887" lon="12.1394163"><ele>161.8</ele><time>2026-04-04T13:14:22.086Z</time></trkpt><trkpt lat="45.7984818" lon="12.1394173"><ele>165.0</ele><time>2026-04-04T13:14:23.089Z</time></trkpt><trkpt lat="45.7985748" lon="12.1394227"><ele>167.6</ele><time>2026-04-04T13:14:24.087Z</time></trkpt><trkpt lat="45.798671" lon="12.1394306"><ele>170.2</ele><time>2026-04-04T13:14:25.087Z</time></trkpt><trkpt lat="45.7987703" lon="12.1394335"><ele>172.8</ele><time>2026-04-04T13:14:26.094Z</time></trkpt><trkpt lat="45.7988638" lon="12.1394502"><ele>175.4</ele><time>2026-04-04T13:14:27.092Z</time></trkpt><trkpt lat="45.7989556" lon="12.1394468"><ele>178.0</ele><time>2026-04-04T13:14:28.092Z</time></trkpt><trkpt lat="45.799046" lon="12.1394451"><ele>178.0</ele><time>2026-04-04T13:14:29.086Z</time></trkpt><trkpt lat="45.7991377" lon="12.1394408"><ele>178.0</ele><time>2026-04-04T13:14:30.09Z</time></trkpt><trkpt lat="45.7992316" lon="12.1394444"><ele>178.0</ele><time>2026-04-04T13:14:31.088Z</time></trkpt><trkpt lat="45.799325" lon="12.139455"><ele>178.0</ele><time>2026-04-04T13:14:32.091Z</time></trkpt><trkpt lat="45.799407" lon="12.1394537"><ele>178.0</ele><time>2026-04-04T13:14:33.08Z</time></trkpt><trkpt lat="45.799494" lon="12.1394408"><ele>178.0</ele><time>2026-04-04T13:14:34.086Z</time></trkpt><trkpt lat="45.7995839" lon="12.1394047"><ele>179.8</ele><time>2026-04-04T13:14:35.088Z</time></trkpt><trkpt lat="45.799658" lon="12.1393383"><ele>181.60000000000002</ele><time>2026-04-04T13:14:36.098Z</time></trkpt><trkpt lat="45.7997183" lon="12.1392241"><ele>183.39999999999998</ele><time>2026-04-04T13:14:37.088Z</time></trkpt><trkpt lat="45.7997709" lon="12.1390779"><ele>185.2</ele><time>2026-04-04T13:14:38.092Z</time></trkpt><trkpt lat="45.7998043" lon="12.1389175"><ele>187.0</ele><time>2026-04-04T13:14:39.088Z</time></trkpt><trkpt lat="45.7998359" lon="12.1387783"><ele>187.83333333333334</ele><time>2026-04-04T13:14:40.098Z</time></trkpt><trkpt lat="45.7998617" lon="12.1386749"><ele>188.66666666666669</ele><time>2026-04-04T13:14:41.087Z</time></trkpt><trkpt lat="45.7999207" lon="12.1385845"><ele>189.5</ele><time>2026-04-04T13:14:42.085Z</time></trkpt><trkpt lat="45.7999933" lon="12.1385157"><ele>190.33333333333334</ele><time>2026-04-04T13:14:43.087Z</time></trkpt><trkpt lat="45.8000696" lon="12.138493"><ele>191.16666666666666</ele><time>2026-04-04T13:14:44.095Z</time></trkpt><trkpt lat="45.8001371" lon="12.1384741"><ele>192.0</ele><time>2026-04-04T13:14:45.089Z</time></trkpt><trkpt lat="45.8002042" lon="12.1384428"><ele>193.33333333333334</ele><time>2026-04-04T13:14:46.097Z</time></trkpt><trkpt lat="45.8002796" lon="12.1384119"><ele>194.66666666666669</ele><time>2026-04-04T13:14:47.087Z</time></trkpt><trkpt lat="45.8003647" lon="12.1384135"><ele>196.0</ele><time>2026-04-04T13:14:48.091Z</time></trkpt><trkpt lat="45.8004526" lon="12.1384308"><ele>197.33333333333334</ele><time>2026-04-04T13:14:49.098Z</time></trkpt><trkpt lat="45.8005316" lon="12.1384816"><ele>198.66666666666669</ele><time>2026-04-04T13:14:50.087Z</time></trkpt><trkpt lat="45.8006073" lon="12.13855"><ele>200.0</ele><time>2026-04-04T13:14:51.084Z</time></trkpt><trkpt lat="45.8006698" lon="12.1386296"><ele>200.00000000000003</ele><time>2026-04-04T13:14:52.091Z</time></trkpt><trkpt lat="45.800723" lon="12.1387085"><ele>200.0</ele><time>2026-04-04T13:14:53.088Z</time></trkpt><trkpt lat="45.8007781" lon="12.1387925"><ele>200.0</ele><time>2026-04-04T13:14:54.086Z</time></trkpt><trkpt lat="45.8008391" lon="12.1388676"><ele>200.0</ele><time>2026-04-04T13:14:55.085Z</time></trkpt><trkpt lat="45.8009093" lon="12.1389349"><ele>200.00000000000003</ele><time>2026-04-04T13:14:56.09Z</time></trkpt><trkpt lat="45.800984" lon="12.1389778"><ele>200.0</ele><time>2026-04-04T13:14:57.089Z</time></trkpt><trkpt lat="45.8010575" lon="12.1390007"><ele>201.66666666666669</ele><time>2026-04-04T13:14:58.086Z</time></trkpt><trkpt lat="45.8011355" lon="12.138992"><ele>203.33333333333334</ele><time>2026-04-04T13:14:59.089Z</time></trkpt><trkpt lat="45.8012195" lon="12.1389715"><ele>205.0</ele><time>2026-04-04T13:15:00.092Z</time></trkpt><trkpt lat="45.8013009" lon="12.1389393"><ele>206.66666666666669</ele><time>2026-04-04T13:15:01.091Z</time></trkpt><trkpt lat="45.8013711" lon="12.1389004"><ele>208.33333333333334</ele><time>2026-04-04T13:15:02.091Z</time></trkpt><trkpt lat="45.8014451" lon="12.1388647"><ele>210.0</ele><time>2026-04-04T13:15:03.089Z</time></trkpt><trkpt lat="45.8015178" lon="12.1388368"><ele>210.0</ele><time>2026-04-04T13:15:04.091Z</time></trkpt><trkpt lat="45.8015807" lon="12.1388106"><ele>210.0</ele><time>2026-04-04T13:15:05.09Z</time></trkpt><trkpt lat="45.8016431" lon="12.1387828"><ele>210.0</ele><time>2026-04-04T13:15:06.092Z</time></trkpt><trkpt lat="45.8017087" lon="12.1387542"><ele>210.0</ele><time>2026-04-04T13:15:07.088Z</time></trkpt><trkpt lat="45.8017667" lon="12.1387141"><ele>210.0</ele><time>2026-04-04T13:15:08.095Z</time></trkpt><trkpt lat="45.8018218" lon="12.1386609"><ele>210.0</ele><time>2026-04-04T13:15:09.093Z</time></trkpt><trkpt lat="45.8018717" lon="12.1386009"><ele>210.0</ele><time>2026-04-04T13:15:10.092Z</time></trkpt><trkpt lat="45.8019237" lon="12.1385346"><ele>210.2</ele><time>2026-04-04T13:15:11.09Z</time></trkpt><trkpt lat="45.8019747" lon="12.138474"><ele>210.4</ele><time>2026-04-04T13:15:12.09Z</time></trkpt><trkpt lat="45.8020268" lon="12.1384142"><ele>210.60000000000002</ele><time>2026-04-04T13:15:13.086Z</time></trkpt><trkpt lat="45.8020803" lon="12.1383583"><ele>210.8</ele><time>2026-04-04T13:15:14.086Z</time></trkpt><trkpt lat="45.8021871" lon="12.1382596"><ele>211.0</ele><time>2026-04-04T13:15:16.086Z</time></trkpt><trkpt lat="45.8023133" lon="12.1381949"><ele>212.16666666666666</ele><time>2026-04-04T13:15:18.09Z</time></trkpt><trkpt lat="45.8023787" lon="12.1381662"><ele>213.33333333333331</ele><time>2026-04-04T13:15:19.091Z</time></trkpt><trkpt lat="45.802441" lon="12.138149"><ele>214.5</ele><time>2026-04-04T13:15:20.095Z</time></trkpt><trkpt lat="45.802532" lon="12.138121"><ele>215.66666666666669</ele><time>2026-04-04T13:15:22.088Z</time></trkpt><trkpt lat="45.8025879" lon="12.1380533"><ele>216.83333333333334</ele><time>2026-04-04T13:15:24.103Z</time></trkpt><trkpt lat="45.8025565" lon="12.1379203"><ele>218.0</ele><time>2026-04-04T13:15:26.097Z</time></trkpt><trkpt lat="45.8025115" lon="12.137843"><ele>218.00000000000003</ele><time>2026-04-04T13:15:27.093Z</time></trkpt><trkpt lat="45.802466" lon="12.1377617"><ele>218.0</ele><time>2026-04-04T13:15:28.093Z</time></trkpt><trkpt lat="45.8024278" lon="12.1376591"><ele>218.0</ele><time>2026-04-04T13:15:29.09Z</time></trkpt><trkpt lat="45.8024017" lon="12.1375416"><ele>218.0</ele><time>2026-04-04T13:15:30.098Z</time></trkpt><trkpt lat="45.8024027" lon="12.137416"><ele>218.00000000000003</ele><time>2026-04-04T13:15:31.085Z</time></trkpt><trkpt lat="45.8024051" lon="12.137302"><ele>218.0</ele><time>2026-04-04T13:15:32.094Z</time></trkpt><trkpt lat="45.8024241" lon="12.1371863"><ele>219.8</ele><time>2026-04-04T13:15:33.085Z</time></trkpt><trkpt lat="45.8024508" lon="12.1370533"><ele>221.60000000000002</ele><time>2026-04-04T13:15:34.089Z</time></trkpt><trkpt lat="45.8024648" lon="12.1369164"><ele>223.39999999999998</ele><time>2026-04-04T13:15:35.092Z</time></trkpt><trkpt lat="45.8024733" lon="12.1367832"><ele>225.2</ele><time>2026-04-04T13:15:36.091Z</time></trkpt><trkpt lat="45.8024783" lon="12.1366464"><ele>227.0</ele><time>2026-04-04T13:15:37.09Z</time></trkpt><trkpt lat="45.8024821" lon="12.1365138"><ele>228.0</ele><time>2026-04-04T13:15:38.091Z</time></trkpt><trkpt lat="45.8024809" lon="12.1363973"><ele>229.0</ele><time>2026-04-04T13:15:39.089Z</time></trkpt><trkpt lat="45.8024864" lon="12.1362684"><ele>230.0</ele><time>2026-04-04T13:15:40.09Z</time></trkpt><trkpt lat="45.802493" lon="12.1361426"><ele>231.0</ele><time>2026-04-04T13:15:41.087Z</time></trkpt><trkpt lat="45.8025157" lon="12.1360147"><ele>232.0</ele><time>2026-04-04T13:15:42.134Z</time></trkpt><trkpt lat="45.8025519" lon="12.1358767"><ele>232.0</ele><time>2026-04-04T13:15:43.089Z</time></trkpt><trkpt lat="45.8025853" lon="12.1357573"><ele>232.0</ele><time>2026-04-04T13:15:44.095Z</time></trkpt><trkpt lat="45.8026289" lon="12.1356423"><ele>232.0</ele><time>2026-04-04T13:15:45.092Z</time></trkpt><trkpt lat="45.8026839" lon="12.1355288"><ele>232.0</ele><time>2026-04-04T13:15:46.096Z</time></trkpt><trkpt lat="45.8027425" lon="12.1354188"><ele>232.0</ele><time>2026-04-04T13:15:47.093Z</time></trkpt><trkpt lat="45.8028008" lon="12.135307"><ele>233.00000000000003</ele><time>2026-04-04T13:15:48.101Z</time></trkpt><trkpt lat="45.8028589" lon="12.1352154"><ele>234.0</ele><time>2026-04-04T13:15:49.095Z</time></trkpt><trkpt lat="45.8029144" lon="12.1351358"><ele>235.00000000000003</ele><time>2026-04-04T13:15:50.097Z</time></trkpt><trkpt lat="45.8029643" lon="12.1350608"><ele>236.00000000000003</ele><time>2026-04-04T13:15:51.088Z</time></trkpt><trkpt lat="45.8030147" lon="12.1349896"><ele>237.0</ele><time>2026-04-04T13:15:52.099Z</time></trkpt><trkpt lat="45.80306" lon="12.1349252"><ele>238.00000000000003</ele><time>2026-04-04T13:15:53.091Z</time></trkpt><trkpt lat="45.8031051" lon="12.1348534"><ele>239.00000000000003</ele><time>2026-04-04T13:15:54.095Z</time></trkpt><trkpt lat="45.803169" lon="12.1347385"><ele>239.2</ele><time>2026-04-04T13:15:56.093Z</time></trkpt><trkpt lat="45.8032161" lon="12.1346408"><ele>239.39999999999998</ele><time>2026-04-04T13:15:58.091Z</time></trkpt><trkpt lat="45.8032763" lon="12.1345478"><ele>239.6</ele><time>2026-04-04T13:16:00.099Z</time></trkpt><trkpt lat="45.8033189" lon="12.1344553"><ele>239.8</ele><time>2026-04-04T13:16:02.094Z</time></trkpt><trkpt lat="45.8032916" lon="12.1343175"><ele>240.0</ele><time>2026-04-04T13:16:05.088Z</time></trkpt><trkpt lat="45.8032149" lon="12.1342074"><ele>240.0</ele><time>2026-04-04T13:16:07.088Z</time></trkpt><trkpt lat="45.8031177" lon="12.1340942"><ele>240.0</ele><time>2026-04-04T13:16:09.094Z</time></trkpt><trkpt lat="45.803067" lon="12.1340395"><ele>240.0</ele><time>2026-04-04T13:16:10.094Z</time></trkpt><trkpt lat="45.803011" lon="12.1339773"><ele>240.0</ele><time>2026-04-04T13:16:11.094Z</time></trkpt><trkpt lat="45.8029593" lon="12.1339185"><ele>240.0</ele><time>2026-04-04T13:16:12.091Z</time></trkpt><trkpt lat="45.8028948" lon="12.1338541"><ele>240.0</ele><time>2026-04-04T13:16:13.091Z</time></trkpt><trkpt lat="45.8028138" lon="12.1338068"><ele>239.8</ele><time>2026-04-04T13:16:14.09Z</time></trkpt><trkpt lat="45.8027236" lon="12.1337801"><ele>239.6</ele><time>2026-04-04T13:16:15.093Z</time></trkpt><trkpt lat="45.8026313" lon="12.1337563"><ele>239.39999999999998</ele><time>2026-04-04T13:16:16.094Z</time></trkpt><trkpt lat="45.8025523" lon="12.1337221"><ele>239.2</ele><time>2026-04-04T13:16:17.087Z</time></trkpt><trkpt lat="45.8024813" lon="12.1337008"><ele>239.0</ele><time>2026-04-04T13:16:18.092Z</time></trkpt><trkpt lat="45.8023424" lon="12.1337159"><ele>240.00000000000003</ele><time>2026-04-04T13:16:20.09Z</time></trkpt><trkpt lat="45.8022697" lon="12.1337719"><ele>241.0</ele><time>2026-04-04T13:16:21.088Z</time></trkpt><trkpt lat="45.8021967" lon="12.1338183"><ele>242.0</ele><time>2026-04-04T13:16:22.092Z</time></trkpt><trkpt lat="45.8021159" lon="12.1338592"><ele>243.0</ele><time>2026-04-04T13:16:23.091Z</time></trkpt><trkpt lat="45.8020333" lon="12.1338891"><ele>244.00000000000003</ele><time>2026-04-04T13:16:24.091Z</time></trkpt><trkpt lat="45.8019393" lon="12.1338984"><ele>245.0</ele><time>2026-04-04T13:16:25.098Z</time></trkpt><trkpt lat="45.801843" lon="12.1339005"><ele>244.4</ele><time>2026-04-04T13:16:26.092Z</time></trkpt><trkpt lat="45.801753" lon="12.133894"><ele>243.8</ele><time>2026-04-04T13:16:27.092Z</time></trkpt><trkpt lat="45.8016639" lon="12.1338805"><ele>243.2</ele><time>2026-04-04T13:16:28.086Z</time></trkpt><trkpt lat="45.8015797" lon="12.1338624"><ele>242.6</ele><time>2026-04-04T13:16:29.087Z</time></trkpt><trkpt lat="45.8014933" lon="12.1338484"><ele>242.0</ele><time>2026-04-04T13:16:30.097Z</time></trkpt><trkpt lat="45.801378" lon="12.1338311"><ele>242.00000000000003</ele><time>2026-04-04T13:16:31.089Z</time></trkpt><trkpt lat="45.8012734" lon="12.1338195"><ele>242.0</ele><time>2026-04-04T13:16:32.091Z</time></trkpt><trkpt lat="45.8011832" lon="12.1338008"><ele>242.0</ele><time>2026-04-04T13:16:33.089Z</time></trkpt><trkpt lat="45.8011007" lon="12.1337877"><ele>242.0</ele><time>2026-04-04T13:16:34.085Z</time></trkpt><trkpt lat="45.8010231" lon="12.1337748"><ele>242.00000000000003</ele><time>2026-04-04T13:16:35.084Z</time></trkpt><trkpt lat="45.8009581" lon="12.1337631"><ele>242.0</ele><time>2026-04-04T13:16:36.096Z</time></trkpt><trkpt lat="45.8008867" lon="12.1337566"><ele>240.33333333333334</ele><time>2026-04-04T13:16:37.096Z</time></trkpt><trkpt lat="45.8008172" lon="12.1337608"><ele>238.66666666666669</ele><time>2026-04-04T13:16:38.094Z</time></trkpt><trkpt lat="45.8007414" lon="12.1337886"><ele>237.0</ele><time>2026-04-04T13:16:39.089Z</time></trkpt><trkpt lat="45.8006671" lon="12.133853"><ele>235.33333333333331</ele><time>2026-04-04T13:16:40.101Z</time></trkpt><trkpt lat="45.8006007" lon="12.1339448"><ele>233.66666666666666</ele><time>2026-04-04T13:16:41.093Z</time></trkpt><trkpt lat="45.8005346" lon="12.1340584"><ele>232.0</ele><time>2026-04-04T13:16:42.101Z</time></trkpt><trkpt lat="45.8004661" lon="12.1341755"><ele>230.6</ele><time>2026-04-04T13:16:43.087Z</time></trkpt><trkpt lat="45.800396" lon="12.1342727"><ele>229.2</ele><time>2026-04-04T13:16:44.092Z</time></trkpt><trkpt lat="45.8003287" lon="12.134363"><ele>227.8</ele><time>2026-04-04T13:16:45.09Z</time></trkpt><trkpt lat="45.8002683" lon="12.1344548"><ele>226.4</ele><time>2026-04-04T13:16:46.09Z</time></trkpt><trkpt lat="45.8002157" lon="12.1345358"><ele>225.0</ele><time>2026-04-04T13:16:47.098Z</time></trkpt><trkpt lat="45.8001468" lon="12.1346538"><ele>223.5</ele><time>2026-04-04T13:16:49.089Z</time></trkpt><trkpt lat="45.8000967" lon="12.134712"><ele>222.0</ele><time>2026-04-04T13:16:51.095Z</time></trkpt><trkpt lat="45.8000118" lon="12.1346964"><ele>220.5</ele><time>2026-04-04T13:16:54.097Z</time></trkpt><trkpt lat="45.7999794" lon="12.1345805"><ele>219.0</ele><time>2026-04-04T13:16:55.091Z</time></trkpt><trkpt lat="45.7999707" lon="12.1344477"><ele>217.5</ele><time>2026-04-04T13:16:56.105Z</time></trkpt><trkpt lat="45.7999528" lon="12.13428"><ele>216.0</ele><time>2026-04-04T13:16:57.091Z</time></trkpt><trkpt lat="45.7999414" lon="12.1341342"><ele>215.20000000000002</ele><time>2026-04-04T13:16:58.088Z</time></trkpt><trkpt lat="45.7999312" lon="12.1340122"><ele>214.40000000000003</ele><time>2026-04-04T13:16:59.089Z</time></trkpt><trkpt lat="45.7999204" lon="12.1339053"><ele>213.6</ele><time>2026-04-04T13:17:00.092Z</time></trkpt><trkpt lat="45.799906" lon="12.1337415"><ele>212.8</ele><time>2026-04-04T13:17:02.091Z</time></trkpt><trkpt lat="45.7998899" lon="12.1335563"><ele>212.0</ele><time>2026-04-04T13:17:04.089Z</time></trkpt><trkpt lat="45.7998886" lon="12.1334412"><ele>212.00000000000003</ele><time>2026-04-04T13:17:05.091Z</time></trkpt><trkpt lat="45.7998921" lon="12.1333449"><ele>212.0</ele><time>2026-04-04T13:17:06.094Z</time></trkpt><trkpt lat="45.799901" lon="12.133169"><ele>212.0</ele><time>2026-04-04T13:17:08.098Z</time></trkpt><trkpt lat="45.7999203" lon="12.1330818"><ele>212.0</ele><time>2026-04-04T13:17:09.098Z</time></trkpt><trkpt lat="45.799956" lon="12.1330046"><ele>212.00000000000003</ele><time>2026-04-04T13:17:10.09Z</time></trkpt><trkpt lat="45.7999968" lon="12.1329298"><ele>212.0</ele><time>2026-04-04T13:17:11.091Z</time></trkpt><trkpt lat="45.8000494" lon="12.1328118"><ele>213.2</ele><time>2026-04-04T13:17:13.087Z</time></trkpt><trkpt lat="45.8000565" lon="12.1327203"><ele>214.39999999999998</ele><time>2026-04-04T13:17:15.095Z</time></trkpt><trkpt lat="45.7999904" lon="12.1326887"><ele>215.60000000000002</ele><time>2026-04-04T13:17:17.088Z</time></trkpt><trkpt lat="45.7998574" lon="12.1327647"><ele>216.8</ele><time>2026-04-04T13:17:19.086Z</time></trkpt><trkpt lat="45.7997525" lon="12.1328092"><ele>218.0</ele><time>2026-04-04T13:17:20.089Z</time></trkpt><trkpt lat="45.7996477" lon="12.1328567"><ele>218.0</ele><time>2026-04-04T13:17:21.087Z</time></trkpt><trkpt lat="45.7995497" lon="12.1329084"><ele>218.0</ele><time>2026-04-04T13:17:22.095Z</time></trkpt><trkpt lat="45.7994673" lon="12.1329929"><ele>218.0</ele><time>2026-04-04T13:17:23.087Z</time></trkpt><trkpt lat="45.7993956" lon="12.1330658"><ele>218.0</ele><time>2026-04-04T13:17:24.09Z</time></trkpt><trkpt lat="45.7993233" lon="12.1331016"><ele>218.0</ele><time>2026-04-04T13:17:25.096Z</time></trkpt><trkpt lat="45.7992428" lon="12.1331044"><ele>218.8</ele><time>2026-04-04T13:17:26.101Z</time></trkpt><trkpt lat="45.7991664" lon="12.1330868"><ele>219.60000000000002</ele><time>2026-04-04T13:17:27.09Z</time></trkpt><trkpt lat="45.7990862" lon="12.1330486"><ele>220.39999999999998</ele><time>2026-04-04T13:17:28.089Z</time></trkpt><trkpt lat="45.7989893" lon="12.1329945"><ele>221.2</ele><time>2026-04-04T13:17:29.088Z</time></trkpt><trkpt lat="45.7988928" lon="12.1329291"><ele>222.0</ele><time>2026-04-04T13:17:30.087Z</time></trkpt><trkpt lat="45.7988134" lon="12.1328832"><ele>222.0</ele><time>2026-04-04T13:17:31.087Z</time></trkpt><trkpt lat="45.7987487" lon="12.1328684"><ele>222.0</ele><time>2026-04-04T13:17:32.094Z</time></trkpt><trkpt lat="45.7986607" lon="12.1329338"><ele>222.0</ele><time>2026-04-04T13:17:34.095Z</time></trkpt><trkpt lat="45.7986473" lon="12.1331321"><ele>222.0</ele><time>2026-04-04T13:17:36.093Z</time></trkpt><trkpt lat="45.7986459" lon="12.1332251"><ele>222.0</ele><time>2026-04-04T13:17:37.094Z</time></trkpt><trkpt lat="45.7985816" lon="12.1333211"><ele>221.39999999999998</ele><time>2026-04-04T13:17:39.092Z</time></trkpt><trkpt lat="45.798498" lon="12.1332888"><ele>220.79999999999998</ele><time>2026-04-04T13:17:41.1Z</time></trkpt><trkpt lat="45.7984103" lon="12.1332718"><ele>220.2</ele><time>2026-04-04T13:17:44.09Z</time></trkpt><trkpt lat="45.7983168" lon="12.1332367"><ele>219.6</ele><time>2026-04-04T13:17:47.092Z</time></trkpt><trkpt lat="45.7982161" lon="12.133201"><ele>219.0</ele><time>2026-04-04T13:17:49.099Z</time></trkpt><trkpt lat="45.798106" lon="12.1331608"><ele>219.14285714285714</ele><time>2026-04-04T13:17:51.095Z</time></trkpt><trkpt lat="45.7980426" lon="12.1331446"><ele>219.28571428571428</ele><time>2026-04-04T13:17:52.095Z</time></trkpt><trkpt lat="45.7979798" lon="12.1331349"><ele>219.42857142857142</ele><time>2026-04-04T13:17:53.091Z</time></trkpt><trkpt lat="45.7979115" lon="12.1331249"><ele>219.57142857142856</ele><time>2026-04-04T13:17:54.095Z</time></trkpt><trkpt lat="45.7978426" lon="12.1331237"><ele>219.71428571428572</ele><time>2026-04-04T13:17:55.092Z</time></trkpt><trkpt lat="45.7977695" lon="12.1331107"><ele>219.85714285714283</ele><time>2026-04-04T13:17:56.094Z</time></trkpt><trkpt lat="45.7976951" lon="12.1330758"><ele>220.0</ele><time>2026-04-04T13:17:57.092Z</time></trkpt><trkpt lat="45.7976241" lon="12.1330193"><ele>219.99999999999997</ele><time>2026-04-04T13:17:58.081Z</time></trkpt><trkpt lat="45.7975511" lon="12.1329436"><ele>220.0</ele><time>2026-04-04T13:17:59.091Z</time></trkpt><trkpt lat="45.7974792" lon="12.132872"><ele>220.0</ele><time>2026-04-04T13:18:00.086Z</time></trkpt><trkpt lat="45.7974126" lon="12.132807"><ele>220.0</ele><time>2026-04-04T13:18:01.086Z</time></trkpt><trkpt lat="45.7973504" lon="12.1327432"><ele>219.99999999999997</ele><time>2026-04-04T13:18:02.089Z</time></trkpt><trkpt lat="45.7973037" lon="12.1326632"><ele>220.0</ele><time>2026-04-04T13:18:03.087Z</time></trkpt><trkpt lat="45.7972655" lon="12.1325603"><ele>219.99999999999997</ele><time>2026-04-04T13:18:04.088Z</time></trkpt><trkpt lat="45.7972372" lon="12.1324565"><ele>220.0</ele><time>2026-04-04T13:18:05.085Z</time></trkpt><trkpt lat="45.7972167" lon="12.1323565"><ele>220.0</ele><time>2026-04-04T13:18:06.088Z</time></trkpt><trkpt lat="45.7971939" lon="12.132266"><ele>220.0</ele><time>2026-04-04T13:18:07.092Z</time></trkpt><trkpt lat="45.7971579" lon="12.1321836"><ele>220.0</ele><time>2026-04-04T13:18:08.088Z</time></trkpt><trkpt lat="45.7971046" lon="12.1321284"><ele>219.99999999999997</ele><time>2026-04-04T13:18:09.088Z</time></trkpt><trkpt lat="45.7970243" lon="12.1320976"><ele>220.0</ele><time>2026-04-04T13:18:10.083Z</time></trkpt><trkpt lat="45.7969273" lon="12.1320808"><ele>219.0</ele><time>2026-04-04T13:18:11.091Z</time></trkpt><trkpt lat="45.7968234" lon="12.1320641"><ele>218.0</ele><time>2026-04-04T13:18:12.091Z</time></trkpt><trkpt lat="45.7967142" lon="12.1320473"><ele>217.0</ele><time>2026-04-04T13:18:13.084Z</time></trkpt><trkpt lat="45.7966065" lon="12.1320317"><ele>216.0</ele><time>2026-04-04T13:18:14.089Z</time></trkpt><trkpt lat="45.7965043" lon="12.1320161"><ele>215.0</ele><time>2026-04-04T13:18:15.083Z</time></trkpt><trkpt lat="45.7964097" lon="12.1319954"><ele>215.00000000000003</ele><time>2026-04-04T13:18:16.095Z</time></trkpt><trkpt lat="45.7963336" lon="12.1319853"><ele>215.0</ele><time>2026-04-04T13:18:17.085Z</time></trkpt><trkpt lat="45.7962578" lon="12.1319788"><ele>215.0</ele><time>2026-04-04T13:18:18.091Z</time></trkpt><trkpt lat="45.7961911" lon="12.1319575"><ele>215.0</ele><time>2026-04-04T13:18:19.085Z</time></trkpt><trkpt lat="45.7961259" lon="12.1319152"><ele>215.00000000000003</ele><time>2026-04-04T13:18:20.088Z</time></trkpt><trkpt lat="45.7960854" lon="12.1317686"><ele>215.0</ele><time>2026-04-04T13:18:22.092Z</time></trkpt><trkpt lat="45.7961186" lon="12.1316557"><ele>214.0</ele><time>2026-04-04T13:18:23.103Z</time></trkpt><trkpt lat="45.7961651" lon="12.1315205"><ele>213.0</ele><time>2026-04-04T13:18:24.086Z</time></trkpt><trkpt lat="45.7962209" lon="12.1313645"><ele>212.0</ele><time>2026-04-04T13:18:25.085Z</time></trkpt><trkpt lat="45.7962694" lon="12.1311995"><ele>211.0</ele><time>2026-04-04T13:18:26.092Z</time></trkpt><trkpt lat="45.796322" lon="12.1310517"><ele>211.0</ele><time>2026-04-04T13:18:27.091Z</time></trkpt><trkpt lat="45.7963754" lon="12.1309218"><ele>211.0</ele><time>2026-04-04T13:18:28.088Z</time></trkpt><trkpt lat="45.7964442" lon="12.1308186"><ele>211.0</ele><time>2026-04-04T13:18:29.084Z</time></trkpt><trkpt lat="45.7965045" lon="12.1307311"><ele>211.0</ele><time>2026-04-04T13:18:30.091Z</time></trkpt><trkpt lat="45.7965445" lon="12.130643"><ele>211.0</ele><time>2026-04-04T13:18:31.081Z</time></trkpt><trkpt lat="45.7965634" lon="12.1304735"><ele>211.4</ele><time>2026-04-04T13:18:33.092Z</time></trkpt><trkpt lat="45.7964829" lon="12.1303699"><ele>211.8</ele><time>2026-04-04T13:18:35.086Z</time></trkpt><trkpt lat="45.7964092" lon="12.1303589"><ele>212.20000000000002</ele><time>2026-04-04T13:18:36.098Z</time></trkpt><trkpt lat="45.7963267" lon="12.1303895"><ele>212.60000000000002</ele><time>2026-04-04T13:18:37.086Z</time></trkpt><trkpt lat="45.7962357" lon="12.1304604"><ele>213.0</ele><time>2026-04-04T13:18:38.093Z</time></trkpt><trkpt lat="45.7961264" lon="12.1305334"><ele>213.0</ele><time>2026-04-04T13:18:39.089Z</time></trkpt><trkpt lat="45.7960181" lon="12.1305945"><ele>213.0</ele><time>2026-04-04T13:18:40.085Z</time></trkpt><trkpt lat="45.7959001" lon="12.1306564"><ele>213.0</ele><time>2026-04-04T13:18:41.091Z</time></trkpt><trkpt lat="45.7957893" lon="12.1307093"><ele>213.0</ele><time>2026-04-04T13:18:42.088Z</time></trkpt><trkpt lat="45.7956846" lon="12.1307637"><ele>211.2</ele><time>2026-04-04T13:18:43.089Z</time></trkpt><trkpt lat="45.7955977" lon="12.1308308"><ele>209.4</ele><time>2026-04-04T13:18:44.092Z</time></trkpt><trkpt lat="45.7955186" lon="12.1309365"><ele>207.6</ele><time>2026-04-04T13:18:45.084Z</time></trkpt><trkpt lat="45.7954328" lon="12.1310313"><ele>205.79999999999998</ele><time>2026-04-04T13:18:46.088Z</time></trkpt><trkpt lat="45.7953393" lon="12.1310934"><ele>204.0</ele><time>2026-04-04T13:18:47.083Z</time></trkpt><trkpt lat="45.7952443" lon="12.1311281"><ele>203.16666666666666</ele><time>2026-04-04T13:18:48.087Z</time></trkpt><trkpt lat="45.7951473" lon="12.1311336"><ele>202.33333333333331</ele><time>2026-04-04T13:18:49.093Z</time></trkpt><trkpt lat="45.7950702" lon="12.131127"><ele>201.5</ele><time>2026-04-04T13:18:50.085Z</time></trkpt><trkpt lat="45.7949991" lon="12.1310965"><ele>200.66666666666666</ele><time>2026-04-04T13:18:51.093Z</time></trkpt><trkpt lat="45.7949204" lon="12.1310709"><ele>199.83333333333331</ele><time>2026-04-04T13:18:52.088Z</time></trkpt><trkpt lat="45.7948451" lon="12.13105"><ele>199.0</ele><time>2026-04-04T13:18:53.088Z</time></trkpt><trkpt lat="45.7947849" lon="12.1310785"><ele>198.99999999999997</ele><time>2026-04-04T13:18:54.087Z</time></trkpt><trkpt lat="45.7947179" lon="12.1311341"><ele>199.0</ele><time>2026-04-04T13:18:56.093Z</time></trkpt><trkpt lat="45.7946674" lon="12.1311915"><ele>199.0</ele><time>2026-04-04T13:18:58.115Z</time></trkpt><trkpt lat="45.7946128" lon="12.1311461"><ele>199.0</ele><time>2026-04-04T13:19:00.102Z</time></trkpt><trkpt lat="45.794588" lon="12.1310557"><ele>198.99999999999997</ele><time>2026-04-04T13:19:02.097Z</time></trkpt><trkpt lat="45.7946067" lon="12.1308857"><ele>199.0</ele><time>2026-04-04T13:19:04.092Z</time></trkpt><trkpt lat="45.7946032" lon="12.1307953"><ele>199.33333333333331</ele><time>2026-04-04T13:19:05.088Z</time></trkpt><trkpt lat="45.7946004" lon="12.1307008"><ele>199.66666666666666</ele><time>2026-04-04T13:19:06.086Z</time></trkpt><trkpt lat="45.7945945" lon="12.1305933"><ele>200.0</ele><time>2026-04-04T13:19:07.09Z</time></trkpt><trkpt lat="45.7945934" lon="12.1304851"><ele>200.33333333333331</ele><time>2026-04-04T13:19:08.089Z</time></trkpt><trkpt lat="45.7946065" lon="12.1303757"><ele>200.66666666666666</ele><time>2026-04-04T13:19:09.088Z</time></trkpt><trkpt lat="45.7946222" lon="12.1302671"><ele>201.0</ele><time>2026-04-04T13:19:10.089Z</time></trkpt><trkpt lat="45.7946504" lon="12.1301591"><ele>201.0</ele><time>2026-04-04T13:19:11.085Z</time></trkpt><trkpt lat="45.7946849" lon="12.1300487"><ele>201.0</ele><time>2026-04-04T13:19:12.089Z</time></trkpt><trkpt lat="45.7947424" lon="12.1299538"><ele>201.0</ele><time>2026-04-04T13:19:13.081Z</time></trkpt><trkpt lat="45.7948075" lon="12.1298792"><ele>197.0</ele><time>2026-04-04T13:19:14.083Z</time></trkpt></trkseg><trkseg><trkpt lat="45.8007388" lon="12.1604561"><ele>96.0</ele><time>2026-04-04T13:52:06.081Z</time></trkpt><trkpt lat="45.8006491" lon="12.1605381"><ele>96.0</ele><time>2026-04-04T13:52:07.058Z</time></trkpt><trkpt lat="45.800556" lon="12.1605959"><ele>96.0</ele><time>2026-04-04T13:52:08.051Z</time></trkpt><trkpt lat="45.8004514" lon="12.1606068"><ele>96.0</ele><time>2026-04-04T13:52:09.107Z</time></trkpt><trkpt lat="45.8003341" lon="12.1605659"><ele>96.0</ele><time>2026-04-04T13:52:10.057Z</time></trkpt><trkpt lat="45.8002109" lon="12.1605084"><ele>94.25</ele><time>2026-04-04T13:52:11.054Z</time></trkpt><trkpt lat="45.800081" lon="12.1604511"><ele>92.5</ele><time>2026-04-04T13:52:12.049Z</time></trkpt><trkpt lat="45.7999453" lon="12.1603961"><ele>90.75</ele><time>2026-04-04T13:52:13.057Z</time></trkpt><trkpt lat="45.7998083" lon="12.1603428"><ele>89.0</ele><time>2026-04-04T13:52:14.065Z</time></trkpt><trkpt lat="45.7996781" lon="12.160286"><ele>89.0</ele><time>2026-04-04T13:52:15.079Z</time></trkpt><trkpt lat="45.7995687" lon="12.1602428"><ele>89.0</ele><time>2026-04-04T13:52:16.058Z</time></trkpt><trkpt lat="45.7994765" lon="12.1602126"><ele>89.0</ele><time>2026-04-04T13:52:17.079Z</time></trkpt><trkpt lat="45.7994009" lon="12.1601931"><ele>89.0</ele><time>2026-04-04T13:52:18.054Z</time></trkpt><trkpt lat="45.7993329" lon="12.1601776"><ele>89.0</ele><time>2026-04-04T13:52:19.075Z</time></trkpt><trkpt lat="45.7992511" lon="12.1601936"><ele>89.0</ele><time>2026-04-04T13:52:21.13Z</time></trkpt><trkpt lat="45.79919" lon="12.1600851"><ele>88.2</ele><time>2026-04-04T13:52:29.09Z</time></trkpt><trkpt lat="45.7991863" lon="12.1599842"><ele>87.4</ele><time>2026-04-04T13:52:30.065Z</time></trkpt><trkpt lat="45.7991814" lon="12.1598602"><ele>86.6</ele><time>2026-04-04T13:52:31.104Z</time></trkpt><trkpt lat="45.7991714" lon="12.1597196"><ele>85.8</ele><time>2026-04-04T13:52:32.047Z</time></trkpt><trkpt lat="45.7991594" lon="12.1595668"><ele>85.0</ele><time>2026-04-04T13:52:33.048Z</time></trkpt><trkpt lat="45.7991468" lon="12.1594021"><ele>85.0</ele><time>2026-04-04T13:52:34.055Z</time></trkpt><trkpt lat="45.7991348" lon="12.1592346"><ele>85.0</ele><time>2026-04-04T13:52:35.048Z</time></trkpt><trkpt lat="45.7991222" lon="12.1590642"><ele>85.0</ele><time>2026-04-04T13:52:36.061Z</time></trkpt><trkpt lat="45.799109" lon="12.1588904"><ele>85.0</ele><time>2026-04-04T13:52:37.061Z</time></trkpt><trkpt lat="45.7990924" lon="12.1587149"><ele>85.25</ele><time>2026-04-04T13:52:38.059Z</time></trkpt><trkpt lat="45.7990731" lon="12.1585491"><ele>85.5</ele><time>2026-04-04T13:52:39.066Z</time></trkpt><trkpt lat="45.7990404" lon="12.158395"><ele>85.75</ele><time>2026-04-04T13:52:40.043Z</time></trkpt><trkpt lat="45.7989887" lon="12.1582505"><ele>86.0</ele><time>2026-04-04T13:52:41.056Z</time></trkpt><trkpt lat="45.7989208" lon="12.158117"><ele>86.0</ele><time>2026-04-04T13:52:42.056Z</time></trkpt><trkpt lat="45.7988433" lon="12.1579864"><ele>86.0</ele><time>2026-04-04T13:52:43.067Z</time></trkpt><trkpt lat="45.7987605" lon="12.1578583"><ele>86.0</ele><time>2026-04-04T13:52:44.074Z</time></trkpt><trkpt lat="45.7986754" lon="12.1577323"><ele>86.0</ele><time>2026-04-04T13:52:45.048Z</time></trkpt><trkpt lat="45.7985901" lon="12.1576078"><ele>86.0</ele><time>2026-04-04T13:52:46.072Z</time></trkpt><trkpt lat="45.7985054" lon="12.1574834"><ele>86.0</ele><time>2026-04-04T13:52:47.052Z</time></trkpt><trkpt lat="45.7984235" lon="12.1573634"><ele>86.0</ele><time>2026-04-04T13:52:48.055Z</time></trkpt><trkpt lat="45.7983472" lon="12.157248"><ele>86.0</ele><time>2026-04-04T13:52:49.05Z</time></trkpt><trkpt lat="45.7982696" lon="12.157126"><ele>86.5</ele><time>2026-04-04T13:52:50.053Z</time></trkpt><trkpt lat="45.7981947" lon="12.1569938"><ele>87.0</ele><time>2026-04-04T13:52:51.053Z</time></trkpt><trkpt lat="45.7981304" lon="12.1568558"><ele>87.5</ele><time>2026-04-04T13:52:52.052Z</time></trkpt><trkpt lat="45.7980723" lon="12.1567081"><ele>88.0</ele><time>2026-04-04T13:52:53.054Z</time></trkpt><trkpt lat="45.7980111" lon="12.1565441"><ele>88.25</ele><time>2026-04-04T13:52:54.054Z</time></trkpt><trkpt lat="45.7979448" lon="12.1563708"><ele>88.5</ele><time>2026-04-04T13:52:55.066Z</time></trkpt><trkpt lat="45.7978772" lon="12.1561872"><ele>88.75</ele><time>2026-04-04T13:52:56.055Z</time></trkpt><trkpt lat="45.7978108" lon="12.155988"><ele>89.0</ele><time>2026-04-04T13:52:57.057Z</time></trkpt><trkpt lat="45.7977457" lon="12.1557776"><ele>88.75</ele><time>2026-04-04T13:52:58.054Z</time></trkpt><trkpt lat="45.7976823" lon="12.1555714"><ele>88.5</ele><time>2026-04-04T13:52:59.051Z</time></trkpt><trkpt lat="45.7976154" lon="12.1553891"><ele>88.25</ele><time>2026-04-04T13:53:00.05Z</time></trkpt><trkpt lat="45.7975439" lon="12.1552323"><ele>88.0</ele><time>2026-04-04T13:53:01.054Z</time></trkpt><trkpt lat="45.7974727" lon="12.1550945"><ele>88.0</ele><time>2026-04-04T13:53:02.05Z</time></trkpt><trkpt lat="45.7974051" lon="12.1549669"><ele>88.0</ele><time>2026-04-04T13:53:03.058Z</time></trkpt><trkpt lat="45.7973341" lon="12.1548444"><ele>88.0</ele><time>2026-04-04T13:53:04.06Z</time></trkpt><trkpt lat="45.7972622" lon="12.1547288"><ele>88.0</ele><time>2026-04-04T13:53:05.052Z</time></trkpt><trkpt lat="45.7971985" lon="12.1546224"><ele>88.0</ele><time>2026-04-04T13:53:06.051Z</time></trkpt><trkpt lat="45.7971449" lon="12.15452"><ele>88.4</ele><time>2026-04-04T13:53:07.056Z</time></trkpt><trkpt lat="45.7970935" lon="12.1544134"><ele>88.80000000000001</ele><time>2026-04-04T13:53:08.053Z</time></trkpt><trkpt lat="45.7970399" lon="12.1543017"><ele>89.2</ele><time>2026-04-04T13:53:09.057Z</time></trkpt><trkpt lat="45.7969861" lon="12.1541931"><ele>89.6</ele><time>2026-04-04T13:53:10.074Z</time></trkpt><trkpt lat="45.7969313" lon="12.1540856"><ele>90.0</ele><time>2026-04-04T13:53:11.058Z</time></trkpt><trkpt lat="45.7968717" lon="12.1539688"><ele>89.8</ele><time>2026-04-04T13:53:12.048Z</time></trkpt><trkpt lat="45.7968112" lon="12.1538422"><ele>89.6</ele><time>2026-04-04T13:53:13.082Z</time></trkpt><trkpt lat="45.7967512" lon="12.1537102"><ele>89.4</ele><time>2026-04-04T13:53:14.058Z</time></trkpt><trkpt lat="45.7966913" lon="12.1535759"><ele>89.2</ele><time>2026-04-04T13:53:15.06Z</time></trkpt><trkpt lat="45.7966289" lon="12.1534406"><ele>89.0</ele><time>2026-04-04T13:53:16.055Z</time></trkpt><trkpt lat="45.7965644" lon="12.1533042"><ele>89.0</ele><time>2026-04-04T13:53:17.056Z</time></trkpt><trkpt lat="45.7964988" lon="12.1531662"><ele>89.0</ele><time>2026-04-04T13:53:18.056Z</time></trkpt><trkpt lat="45.7964398" lon="12.153039"><ele>89.0</ele><time>2026-04-04T13:53:19.074Z</time></trkpt><trkpt lat="45.7963865" lon="12.1529237"><ele>89.0</ele><time>2026-04-04T13:53:20.053Z</time></trkpt><trkpt lat="45.796335" lon="12.1528146"><ele>89.0</ele><time>2026-04-04T13:53:21.051Z</time></trkpt><trkpt lat="45.7962879" lon="12.1527172"><ele>89.0</ele><time>2026-04-04T13:53:22.056Z</time></trkpt><trkpt lat="45.7962455" lon="12.1526321"><ele>89.0</ele><time>2026-04-04T13:53:23.054Z</time></trkpt><trkpt lat="45.7962099" lon="12.1525564"><ele>89.0</ele><time>2026-04-04T13:53:24.062Z</time></trkpt><trkpt lat="45.7962035" lon="12.1524439"><ele>89.0</ele><time>2026-04-04T13:53:26.099Z</time></trkpt><trkpt lat="45.7963033" lon="12.1524095"><ele>89.0</ele><time>2026-04-04T13:53:28.073Z</time></trkpt><trkpt lat="45.7963669" lon="12.1524351"><ele>89.0</ele><time>2026-04-04T13:53:29.067Z</time></trkpt><trkpt lat="45.7964416" lon="12.1524635"><ele>89.0</ele><time>2026-04-04T13:53:30.057Z</time></trkpt><trkpt lat="45.7965262" lon="12.1524902"><ele>89.0</ele><time>2026-04-04T13:53:31.066Z</time></trkpt><trkpt lat="45.7966162" lon="12.1525188"><ele>89.0</ele><time>2026-04-04T13:53:32.05Z</time></trkpt><trkpt lat="45.7967139" lon="12.1525518"><ele>89.0</ele><time>2026-04-04T13:53:33.055Z</time></trkpt><trkpt lat="45.7968123" lon="12.1525818"><ele>89.0</ele><time>2026-04-04T13:53:34.084Z</time></trkpt><trkpt lat="45.7969119" lon="12.1526159"><ele>90.2</ele><time>2026-04-04T13:53:35.051Z</time></trkpt><trkpt lat="45.797017" lon="12.152651"><ele>91.4</ele><time>2026-04-04T13:53:36.051Z</time></trkpt><trkpt lat="45.7971204" lon="12.1526886"><ele>92.6</ele><time>2026-04-04T13:53:37.058Z</time></trkpt><trkpt lat="45.7972274" lon="12.152727"><ele>93.8</ele><time>2026-04-04T13:53:38.051Z</time></trkpt><trkpt lat="45.7973294" lon="12.1527574"><ele>95.0</ele><time>2026-04-04T13:53:39.064Z</time></trkpt><trkpt lat="45.7974267" lon="12.1527863"><ele>95.0</ele><time>2026-04-04T13:53:40.05Z</time></trkpt><trkpt lat="45.7975205" lon="12.1528154"><ele>95.0</ele><time>2026-04-04T13:53:41.057Z</time></trkpt><trkpt lat="45.7976126" lon="12.1528452"><ele>95.0</ele><time>2026-04-04T13:53:42.056Z</time></trkpt><trkpt lat="45.7977106" lon="12.1528776"><ele>95.0</ele><time>2026-04-04T13:53:43.052Z</time></trkpt><trkpt lat="45.7978119" lon="12.1529121"><ele>95.0</ele><time>2026-04-04T13:53:44.052Z</time></trkpt><trkpt lat="45.7979166" lon="12.1529454"><ele>96.25</ele><time>2026-04-04T13:53:45.053Z</time></trkpt><trkpt lat="45.7980233" lon="12.1529797"><ele>97.5</ele><time>2026-04-04T13:53:46.056Z</time></trkpt><trkpt lat="45.7981327" lon="12.153015"><ele>98.75</ele><time>2026-04-04T13:53:47.056Z</time></trkpt><trkpt lat="45.798245" lon="12.1530496"><ele>100.0</ele><time>2026-04-04T13:53:48.075Z</time></trkpt><trkpt lat="45.7983571" lon="12.1530836"><ele>100.0</ele><time>2026-04-04T13:53:49.056Z</time></trkpt><trkpt lat="45.7984672" lon="12.153118"><ele>100.0</ele><time>2026-04-04T13:53:50.054Z</time></trkpt><trkpt lat="45.7985754" lon="12.1531518"><ele>100.0</ele><time>2026-04-04T13:53:51.054Z</time></trkpt><trkpt lat="45.7986821" lon="12.1531838"><ele>100.0</ele><time>2026-04-04T13:53:52.051Z</time></trkpt><trkpt lat="45.7987869" lon="12.1532158"><ele>100.0</ele><time>2026-04-04T13:53:53.063Z</time></trkpt><trkpt lat="45.7988897" lon="12.1532477"><ele>101.4</ele><time>2026-04-04T13:53:54.05Z</time></trkpt><trkpt lat="45.7989915" lon="12.1532798"><ele>102.8</ele><time>2026-04-04T13:53:55.054Z</time></trkpt><trkpt lat="45.7990922" lon="12.1533144"><ele>104.19999999999999</ele><time>2026-04-04T13:53:56.055Z</time></trkpt><trkpt lat="45.7991917" lon="12.1533555"><ele>105.6</ele><time>2026-04-04T13:53:57.057Z</time></trkpt><trkpt lat="45.7992904" lon="12.1534051"><ele>107.0</ele><time>2026-04-04T13:53:58.055Z</time></trkpt><trkpt lat="45.7993909" lon="12.1534591"><ele>107.66666666666666</ele><time>2026-04-04T13:53:59.055Z</time></trkpt><trkpt lat="45.7994927" lon="12.1535118"><ele>108.33333333333333</ele><time>2026-04-04T13:54:00.07Z</time></trkpt><trkpt lat="45.7995847" lon="12.1535519"><ele>109.0</ele><time>2026-04-04T13:54:01.054Z</time></trkpt><trkpt lat="45.7996626" lon="12.1535796"><ele>109.66666666666666</ele><time>2026-04-04T13:54:02.055Z</time></trkpt><trkpt lat="45.7997335" lon="12.1535759"><ele>110.33333333333333</ele><time>2026-04-04T13:54:03.053Z</time></trkpt><trkpt lat="45.7997992" lon="12.1535231"><ele>111.0</ele><time>2026-04-04T13:54:05.056Z</time></trkpt><trkpt lat="45.7998678" lon="12.1536147"><ele>111.0</ele><time>2026-04-04T13:55:07.061Z</time></trkpt><trkpt lat="45.7998559" lon="12.1537064"><ele>111.0</ele><time>2026-04-04T13:55:10.049Z</time></trkpt></trkseg><trkseg><trkpt lat="45.7998968" lon="12.1536457"><ele>111.0</ele><time>2026-04-04T14:34:01.07Z</time></trkpt><trkpt lat="45.7998278" lon="12.1535843"><ele>111.0</ele><time>2026-04-04T14:34:04.065Z</time></trkpt><trkpt lat="45.7997555" lon="12.1535443"><ele>111.0</ele><time>2026-04-04T14:34:07.054Z</time></trkpt><trkpt lat="45.7998348" lon="12.153482"><ele>111.0</ele><time>2026-04-04T14:34:10.061Z</time></trkpt><trkpt lat="45.799895" lon="12.1534372"><ele>111.0</ele><time>2026-04-04T14:34:11.051Z</time></trkpt><trkpt lat="45.7999549" lon="12.1533891"><ele>111.0</ele><time>2026-04-04T14:34:12.05Z</time></trkpt><trkpt lat="45.800016" lon="12.1533407"><ele>111.0</ele><time>2026-04-04T14:34:13.058Z</time></trkpt><trkpt lat="45.8001383" lon="12.1533065"><ele>111.0</ele><time>2026-04-04T14:34:15.058Z</time></trkpt><trkpt lat="45.8002321" lon="12.1533767"><ele>111.0</ele><time>2026-04-04T14:34:17.058Z</time></trkpt><trkpt lat="45.8002754" lon="12.1534423"><ele>111.0</ele><time>2026-04-04T14:34:18.062Z</time></trkpt><trkpt lat="45.8003156" lon="12.1535417"><ele>111.0</ele><time>2026-04-04T14:34:19.065Z</time></trkpt><trkpt lat="45.800345" lon="12.1536608"><ele>111.66666666666667</ele><time>2026-04-04T14:34:20.062Z</time></trkpt><trkpt lat="45.8003838" lon="12.1537792"><ele>112.33333333333334</ele><time>2026-04-04T14:34:21.054Z</time></trkpt><trkpt lat="45.800432" lon="12.1538665"><ele>113.0</ele><time>2026-04-04T14:34:22.054Z</time></trkpt><trkpt lat="45.8004794" lon="12.1539421"><ele>113.66666666666667</ele><time>2026-04-04T14:34:23.062Z</time></trkpt><trkpt lat="45.8005465" lon="12.1539826"><ele>114.33333333333334</ele><time>2026-04-04T14:34:24.054Z</time></trkpt><trkpt lat="45.8006173" lon="12.1540117"><ele>115.0</ele><time>2026-04-04T14:34:25.061Z</time></trkpt><trkpt lat="45.8007266" lon="12.1540334"><ele>115.0</ele><time>2026-04-04T14:34:27.058Z</time></trkpt><trkpt lat="45.8008254" lon="12.1539331"><ele>115.0</ele><time>2026-04-04T14:34:29.06Z</time></trkpt><trkpt lat="45.8008759" lon="12.1538561"><ele>115.0</ele><time>2026-04-04T14:34:30.054Z</time></trkpt><trkpt lat="45.800924" lon="12.153769"><ele>115.0</ele><time>2026-04-04T14:34:31.053Z</time></trkpt><trkpt lat="45.8009791" lon="12.1536778"><ele>115.0</ele><time>2026-04-04T14:34:32.058Z</time></trkpt><trkpt lat="45.8010579" lon="12.1535981"><ele>117.8</ele><time>2026-04-04T14:34:33.051Z</time></trkpt><trkpt lat="45.801138" lon="12.1535393"><ele>120.6</ele><time>2026-04-04T14:34:34.051Z</time></trkpt><trkpt lat="45.8012322" lon="12.1534953"><ele>123.4</ele><time>2026-04-04T14:34:35.06Z</time></trkpt><trkpt lat="45.8013305" lon="12.1534409"><ele>126.2</ele><time>2026-04-04T14:34:36.056Z</time></trkpt><trkpt lat="45.8014357" lon="12.1533833"><ele>129.0</ele><time>2026-04-04T14:34:37.06Z</time></trkpt><trkpt lat="45.801536" lon="12.1533277"><ele>129.0</ele><time>2026-04-04T14:34:38.052Z</time></trkpt><trkpt lat="45.8016416" lon="12.1532969"><ele>129.0</ele><time>2026-04-04T14:34:39.05Z</time></trkpt><trkpt lat="45.8017536" lon="12.153274"><ele>129.0</ele><time>2026-04-04T14:34:40.055Z</time></trkpt><trkpt lat="45.8018633" lon="12.1532453"><ele>129.0</ele><time>2026-04-04T14:34:41.06Z</time></trkpt><trkpt lat="45.8019787" lon="12.1532155"><ele>131.8</ele><time>2026-04-04T14:34:42.055Z</time></trkpt><trkpt lat="45.8020853" lon="12.1531769"><ele>134.60000000000002</ele><time>2026-04-04T14:34:43.064Z</time></trkpt><trkpt lat="45.8021928" lon="12.1531367"><ele>137.4</ele><time>2026-04-04T14:34:44.056Z</time></trkpt><trkpt lat="45.8022946" lon="12.1530638"><ele>140.20000000000002</ele><time>2026-04-04T14:34:45.059Z</time></trkpt><trkpt lat="45.8023859" lon="12.1529822"><ele>143.0</ele><time>2026-04-04T14:34:46.05Z</time></trkpt><trkpt lat="45.8024722" lon="12.1528942"><ele>143.0</ele><time>2026-04-04T14:34:47.061Z</time></trkpt><trkpt lat="45.8025575" lon="12.1527907"><ele>143.0</ele><time>2026-04-04T14:34:48.062Z</time></trkpt><trkpt lat="45.8026385" lon="12.1526743"><ele>143.0</ele><time>2026-04-04T14:34:49.065Z</time></trkpt><trkpt lat="45.802707" lon="12.1525754"><ele>143.0</ele><time>2026-04-04T14:34:50.054Z</time></trkpt><trkpt lat="45.8027625" lon="12.1525205"><ele>143.0</ele><time>2026-04-04T14:34:51.065Z</time></trkpt><trkpt lat="45.802823" lon="12.1524875"><ele>146.0</ele><time>2026-04-04T14:34:52.051Z</time></trkpt><trkpt lat="45.8029024" lon="12.1524783"><ele>149.0</ele><time>2026-04-04T14:34:53.054Z</time></trkpt><trkpt lat="45.8030072" lon="12.152462"><ele>152.0</ele><time>2026-04-04T14:34:54.054Z</time></trkpt><trkpt lat="45.803104" lon="12.1524605"><ele>155.0</ele><time>2026-04-04T14:34:55.058Z</time></trkpt><trkpt lat="45.8031967" lon="12.1524614"><ele>158.0</ele><time>2026-04-04T14:34:56.054Z</time></trkpt><trkpt lat="45.8032756" lon="12.1524635"><ele>158.0</ele><time>2026-04-04T14:34:57.068Z</time></trkpt><trkpt lat="45.8033654" lon="12.1524227"><ele>158.0</ele><time>2026-04-04T14:34:58.056Z</time></trkpt><trkpt lat="45.8034564" lon="12.1523536"><ele>158.0</ele><time>2026-04-04T14:34:59.056Z</time></trkpt><trkpt lat="45.803545" lon="12.1522796"><ele>158.0</ele><time>2026-04-04T14:35:00.058Z</time></trkpt><trkpt lat="45.8036413" lon="12.1522144"><ele>158.0</ele><time>2026-04-04T14:35:01.056Z</time></trkpt><trkpt lat="45.8037508" lon="12.1521744"><ele>160.2</ele><time>2026-04-04T14:35:02.052Z</time></trkpt><trkpt lat="45.8038671" lon="12.1521301"><ele>162.4</ele><time>2026-04-04T14:35:03.056Z</time></trkpt><trkpt lat="45.8039683" lon="12.1520872"><ele>164.6</ele><time>2026-04-04T14:35:04.049Z</time></trkpt><trkpt lat="45.8040628" lon="12.1520395"><ele>166.79999999999998</ele><time>2026-04-04T14:35:05.059Z</time></trkpt><trkpt lat="45.8041539" lon="12.1519612"><ele>169.0</ele><time>2026-04-04T14:35:06.053Z</time></trkpt><trkpt lat="45.8042489" lon="12.1518661"><ele>170.79999999999998</ele><time>2026-04-04T14:35:07.059Z</time></trkpt><trkpt lat="45.8043473" lon="12.1517856"><ele>172.6</ele><time>2026-04-04T14:35:08.055Z</time></trkpt><trkpt lat="45.8044397" lon="12.1517221"><ele>174.4</ele><time>2026-04-04T14:35:09.07Z</time></trkpt><trkpt lat="45.8045305" lon="12.1516607"><ele>176.2</ele><time>2026-04-04T14:35:10.055Z</time></trkpt><trkpt lat="45.8046125" lon="12.1516096"><ele>178.0</ele><time>2026-04-04T14:35:11.056Z</time></trkpt><trkpt lat="45.804687" lon="12.1515604"><ele>178.0</ele><time>2026-04-04T14:35:12.058Z</time></trkpt><trkpt lat="45.8047752" lon="12.1515602"><ele>178.0</ele><time>2026-04-04T14:35:13.058Z</time></trkpt><trkpt lat="45.8048812" lon="12.1515727"><ele>178.0</ele><time>2026-04-04T14:35:14.048Z</time></trkpt><trkpt lat="45.8049772" lon="12.1516048"><ele>178.0</ele><time>2026-04-04T14:35:15.057Z</time></trkpt><trkpt lat="45.805062" lon="12.1516324"><ele>178.0</ele><time>2026-04-04T14:35:16.055Z</time></trkpt><trkpt lat="45.8051421" lon="12.1516636"><ele>178.5</ele><time>2026-04-04T14:35:17.063Z</time></trkpt><trkpt lat="45.8052197" lon="12.1516839"><ele>179.0</ele><time>2026-04-04T14:35:18.056Z</time></trkpt><trkpt lat="45.8052859" lon="12.1517238"><ele>179.5</ele><time>2026-04-04T14:35:19.054Z</time></trkpt><trkpt lat="45.8053524" lon="12.1518024"><ele>180.0</ele><time>2026-04-04T14:35:20.063Z</time></trkpt><trkpt lat="45.8053895" lon="12.151914"><ele>180.5</ele><time>2026-04-04T14:35:21.061Z</time></trkpt><trkpt lat="45.8054199" lon="12.1520386"><ele>181.0</ele><time>2026-04-04T14:35:22.059Z</time></trkpt><trkpt lat="45.8054495" lon="12.1521336"><ele>181.0</ele><time>2026-04-04T14:35:23.068Z</time></trkpt><trkpt lat="45.8055131" lon="12.1522733"><ele>181.0</ele><time>2026-04-04T14:35:25.062Z</time></trkpt><trkpt lat="45.8056193" lon="12.1523449"><ele>181.0</ele><time>2026-04-04T14:35:27.051Z</time></trkpt><trkpt lat="45.8056863" lon="12.1523199"><ele>181.0</ele><time>2026-04-04T14:35:28.071Z</time></trkpt><trkpt lat="45.8057435" lon="12.1522746"><ele>181.0</ele><time>2026-04-04T14:35:29.056Z</time></trkpt><trkpt lat="45.8058119" lon="12.1521748"><ele>181.0</ele><time>2026-04-04T14:35:31.057Z</time></trkpt><trkpt lat="45.8058463" lon="12.1520647"><ele>181.0</ele><time>2026-04-04T14:35:33.066Z</time></trkpt><trkpt lat="45.8058966" lon="12.1519708"><ele>181.0</ele><time>2026-04-04T14:35:35.066Z</time></trkpt><trkpt lat="45.805961" lon="12.1519325"><ele>181.0</ele><time>2026-04-04T14:35:37.056Z</time></trkpt><trkpt lat="45.8060233" lon="12.1519641"><ele>181.0</ele><time>2026-04-04T14:35:39.067Z</time></trkpt><trkpt lat="45.8060727" lon="12.1520855"><ele>181.0</ele><time>2026-04-04T14:35:42.068Z</time></trkpt><trkpt lat="45.8060751" lon="12.1521811"><ele>179.60000000000002</ele><time>2026-04-04T14:35:44.057Z</time></trkpt><trkpt lat="45.8060413" lon="12.1523044"><ele>178.2</ele><time>2026-04-04T14:35:46.057Z</time></trkpt><trkpt lat="45.8059956" lon="12.1524075"><ele>176.8</ele><time>2026-04-04T14:35:48.053Z</time></trkpt><trkpt lat="45.8059535" lon="12.1525318"><ele>175.39999999999998</ele><time>2026-04-04T14:35:50.054Z</time></trkpt><trkpt lat="45.8059321" lon="12.1526521"><ele>174.0</ele><time>2026-04-04T14:35:52.054Z</time></trkpt><trkpt lat="45.8059294" lon="12.1527811"><ele>174.0</ele><time>2026-04-04T14:35:54.058Z</time></trkpt><trkpt lat="45.8059499" lon="12.152923"><ele>174.0</ele><time>2026-04-04T14:35:56.055Z</time></trkpt><trkpt lat="45.8059763" lon="12.1530051"><ele>174.0</ele><time>2026-04-04T14:35:57.055Z</time></trkpt><trkpt lat="45.8060163" lon="12.1530846"><ele>174.0</ele><time>2026-04-04T14:35:58.056Z</time></trkpt><trkpt lat="45.8060663" lon="12.1531531"><ele>174.0</ele><time>2026-04-04T14:35:59.052Z</time></trkpt><trkpt lat="45.8061186" lon="12.1532182"><ele>174.0</ele><time>2026-04-04T14:36:00.052Z</time></trkpt><trkpt lat="45.8061718" lon="12.1532763"><ele>174.0</ele><time>2026-04-04T14:36:01.06Z</time></trkpt><trkpt lat="45.8062276" lon="12.1533405"><ele>173.5</ele><time>2026-04-04T14:36:02.053Z</time></trkpt><trkpt lat="45.8063265" lon="12.1533874"><ele>173.0</ele><time>2026-04-04T14:36:04.057Z</time></trkpt><trkpt lat="45.8063915" lon="12.153382"><ele>172.5</ele><time>2026-04-04T14:36:05.055Z</time></trkpt><trkpt lat="45.8064637" lon="12.153361"><ele>172.0</ele><time>2026-04-04T14:36:06.054Z</time></trkpt><trkpt lat="45.8065607" lon="12.1533225"><ele>171.5</ele><time>2026-04-04T14:36:07.056Z</time></trkpt><trkpt lat="45.8066553" lon="12.1532804"><ele>171.0</ele><time>2026-04-04T14:36:08.054Z</time></trkpt><trkpt lat="45.8067542" lon="12.153252"><ele>172.20000000000002</ele><time>2026-04-04T14:36:09.061Z</time></trkpt><trkpt lat="45.8068538" lon="12.1532229"><ele>173.4</ele><time>2026-04-04T14:36:10.054Z</time></trkpt><trkpt lat="45.8069577" lon="12.1532092"><ele>174.6</ele><time>2026-04-04T14:36:11.058Z</time></trkpt><trkpt lat="45.807064" lon="12.1532213"><ele>175.8</ele><time>2026-04-04T14:36:12.05Z</time></trkpt><trkpt lat="45.8071645" lon="12.1532478"><ele>177.0</ele><time>2026-04-04T14:36:13.06Z</time></trkpt><trkpt lat="45.8072707" lon="12.1532872"><ele>177.0</ele><time>2026-04-04T14:36:14.059Z</time></trkpt><trkpt lat="45.8073827" lon="12.1533359"><ele>177.0</ele><time>2026-04-04T14:36:15.061Z</time></trkpt><trkpt lat="45.8074908" lon="12.1533921"><ele>177.0</ele><time>2026-04-04T14:36:16.068Z</time></trkpt><trkpt lat="45.8075884" lon="12.153445"><ele>177.0</ele><time>2026-04-04T14:36:17.065Z</time></trkpt><trkpt lat="45.8076847" lon="12.1534904"><ele>177.0</ele><time>2026-04-04T14:36:18.053Z</time></trkpt><trkpt lat="45.8077673" lon="12.1535354"><ele>176.83333333333334</ele><time>2026-04-04T14:36:19.052Z</time></trkpt><trkpt lat="45.8078437" lon="12.153571"><ele>176.66666666666666</ele><time>2026-04-04T14:36:20.056Z</time></trkpt><trkpt lat="45.8079129" lon="12.1536084"><ele>176.5</ele><time>2026-04-04T14:36:21.06Z</time></trkpt><trkpt lat="45.8079762" lon="12.1536419"><ele>176.33333333333331</ele><time>2026-04-04T14:36:22.055Z</time></trkpt><trkpt lat="45.8080381" lon="12.153672"><ele>176.16666666666666</ele><time>2026-04-04T14:36:23.057Z</time></trkpt><trkpt lat="45.8081364" lon="12.1537162"><ele>176.0</ele><time>2026-04-04T14:36:25.052Z</time></trkpt><trkpt lat="45.8082095" lon="12.1537535"><ele>176.0</ele><time>2026-04-04T14:36:27.061Z</time></trkpt><trkpt lat="45.808275" lon="12.153799"><ele>176.0</ele><time>2026-04-04T14:36:30.058Z</time></trkpt><trkpt lat="45.8083589" lon="12.153857"><ele>176.0</ele><time>2026-04-04T14:36:58.091Z</time></trkpt><trkpt lat="45.8084541" lon="12.1539427"><ele>176.0</ele><time>2026-04-04T14:37:00.058Z</time></trkpt><trkpt lat="45.8085229" lon="12.1540803"><ele>176.0</ele><time>2026-04-04T14:37:02.055Z</time></trkpt><trkpt lat="45.8085556" lon="12.1541671"><ele>175.8</ele><time>2026-04-04T14:37:03.054Z</time></trkpt><trkpt lat="45.8085877" lon="12.1542499"><ele>175.60000000000002</ele><time>2026-04-04T14:37:04.059Z</time></trkpt><trkpt lat="45.8086782" lon="12.1543746"><ele>175.4</ele><time>2026-04-04T14:37:06.06Z</time></trkpt><trkpt lat="45.808746" lon="12.1544086"><ele>175.2</ele><time>2026-04-04T14:37:07.062Z</time></trkpt><trkpt lat="45.8088325" lon="12.1544487"><ele>175.0</ele><time>2026-04-04T14:37:08.057Z</time></trkpt><trkpt lat="45.8089493" lon="12.1544956"><ele>175.0</ele><time>2026-04-04T14:37:09.058Z</time></trkpt><trkpt lat="45.8090542" lon="12.1545377"><ele>175.0</ele><time>2026-04-04T14:37:10.059Z</time></trkpt><trkpt lat="45.8091545" lon="12.1545781"><ele>175.0</ele><time>2026-04-04T14:37:11.067Z</time></trkpt><trkpt lat="45.8092617" lon="12.1546251"><ele>175.0</ele><time>2026-04-04T14:37:12.057Z</time></trkpt><trkpt lat="45.8093857" lon="12.1546636"><ele>175.4</ele><time>2026-04-04T14:37:13.064Z</time></trkpt><trkpt lat="45.8094923" lon="12.1546571"><ele>175.8</ele><time>2026-04-04T14:37:14.062Z</time></trkpt><trkpt lat="45.8095942" lon="12.1546448"><ele>176.2</ele><time>2026-04-04T14:37:15.063Z</time></trkpt><trkpt lat="45.8096718" lon="12.1545969"><ele>176.6</ele><time>2026-04-04T14:37:16.054Z</time></trkpt><trkpt lat="45.8097521" lon="12.1545239"><ele>177.0</ele><time>2026-04-04T14:37:17.066Z</time></trkpt><trkpt lat="45.8098282" lon="12.1544383"><ele>177.0</ele><time>2026-04-04T14:37:18.058Z</time></trkpt><trkpt lat="45.8098991" lon="12.154325"><ele>177.0</ele><time>2026-04-04T14:37:19.062Z</time></trkpt><trkpt lat="45.8099753" lon="12.1542296"><ele>177.0</ele><time>2026-04-04T14:37:20.054Z</time></trkpt><trkpt lat="45.8100405" lon="12.1541399"><ele>177.0</ele><time>2026-04-04T14:37:21.06Z</time></trkpt><trkpt lat="45.8101016" lon="12.1540777"><ele>177.0</ele><time>2026-04-04T14:37:22.051Z</time></trkpt><trkpt lat="45.8101779" lon="12.15404"><ele>177.6</ele><time>2026-04-04T14:37:23.063Z</time></trkpt><trkpt lat="45.8102738" lon="12.1540048"><ele>178.2</ele><time>2026-04-04T14:37:24.056Z</time></trkpt><trkpt lat="45.8103762" lon="12.1539542"><ele>178.8</ele><time>2026-04-04T14:37:25.06Z</time></trkpt><trkpt lat="45.810487" lon="12.1539185"><ele>179.4</ele><time>2026-04-04T14:37:26.055Z</time></trkpt><trkpt lat="45.8106133" lon="12.1539055"><ele>180.0</ele><time>2026-04-04T14:37:27.058Z</time></trkpt><trkpt lat="45.8107308" lon="12.1538835"><ele>180.0</ele><time>2026-04-04T14:37:28.051Z</time></trkpt><trkpt lat="45.810831" lon="12.1538432"><ele>180.0</ele><time>2026-04-04T14:37:29.057Z</time></trkpt><trkpt lat="45.8109336" lon="12.153804"><ele>180.0</ele><time>2026-04-04T14:37:30.051Z</time></trkpt><trkpt lat="45.811027" lon="12.1537386"><ele>180.0</ele><time>2026-04-04T14:37:31.053Z</time></trkpt><trkpt lat="45.8111165" lon="12.1536818"><ele>180.0</ele><time>2026-04-04T14:37:32.052Z</time></trkpt><trkpt lat="45.8111903" lon="12.1536241"><ele>181.0</ele><time>2026-04-04T14:37:33.05Z</time></trkpt><trkpt lat="45.8112457" lon="12.1535769"><ele>182.0</ele><time>2026-04-04T14:37:34.06Z</time></trkpt><trkpt lat="45.8113041" lon="12.1535249"><ele>183.0</ele><time>2026-04-04T14:37:35.052Z</time></trkpt><trkpt lat="45.8113702" lon="12.1534722"><ele>184.0</ele><time>2026-04-04T14:37:36.053Z</time></trkpt><trkpt lat="45.8114661" lon="12.1534089"><ele>185.0</ele><time>2026-04-04T14:37:37.057Z</time></trkpt><trkpt lat="45.8115453" lon="12.1533782"><ele>186.0</ele><time>2026-04-04T14:37:38.055Z</time></trkpt><trkpt lat="45.8116373" lon="12.1533223"><ele>186.0</ele><time>2026-04-04T14:37:39.057Z</time></trkpt><trkpt lat="45.8117321" lon="12.1532367"><ele>186.0</ele><time>2026-04-04T14:37:40.063Z</time></trkpt><trkpt lat="45.8118294" lon="12.1531416"><ele>186.0</ele><time>2026-04-04T14:37:41.056Z</time></trkpt><trkpt lat="45.8119143" lon="12.1530067"><ele>186.0</ele><time>2026-04-04T14:37:42.045Z</time></trkpt><trkpt lat="45.8119936" lon="12.1528773"><ele>187.0</ele><time>2026-04-04T14:37:43.053Z</time></trkpt><trkpt lat="45.81207" lon="12.152758"><ele>188.0</ele><time>2026-04-04T14:37:44.053Z</time></trkpt><trkpt lat="45.8121429" lon="12.1526408"><ele>189.0</ele><time>2026-04-04T14:37:45.06Z</time></trkpt><trkpt lat="45.8122066" lon="12.1525116"><ele>190.0</ele><time>2026-04-04T14:37:46.06Z</time></trkpt><trkpt lat="45.8122647" lon="12.1523963"><ele>191.0</ele><time>2026-04-04T14:37:47.056Z</time></trkpt><trkpt lat="45.8123235" lon="12.1523146"><ele>191.4</ele><time>2026-04-04T14:37:48.059Z</time></trkpt><trkpt lat="45.8123805" lon="12.1522524"><ele>191.8</ele><time>2026-04-04T14:37:49.062Z</time></trkpt><trkpt lat="45.8124519" lon="12.1522185"><ele>192.20000000000002</ele><time>2026-04-04T14:37:50.053Z</time></trkpt><trkpt lat="45.8125534" lon="12.1522288"><ele>192.60000000000002</ele><time>2026-04-04T14:37:51.061Z</time></trkpt><trkpt lat="45.8126634" lon="12.1522709"><ele>193.0</ele><time>2026-04-04T14:37:52.056Z</time></trkpt><trkpt lat="45.8127803" lon="12.1523597"><ele>193.25</ele><time>2026-04-04T14:37:53.055Z</time></trkpt><trkpt lat="45.812885" lon="12.1524613"><ele>193.5</ele><time>2026-04-04T14:37:54.057Z</time></trkpt><trkpt lat="45.8129852" lon="12.1525619"><ele>193.75</ele><time>2026-04-04T14:37:55.059Z</time></trkpt><trkpt lat="45.8130746" lon="12.1526942"><ele>194.0</ele><time>2026-04-04T14:37:56.059Z</time></trkpt><trkpt lat="45.8131618" lon="12.152836"><ele>194.0</ele><time>2026-04-04T14:37:57.058Z</time></trkpt><trkpt lat="45.8132557" lon="12.1529982"><ele>194.0</ele><time>2026-04-04T14:37:58.054Z</time></trkpt><trkpt lat="45.8133591" lon="12.1531497"><ele>194.0</ele><time>2026-04-04T14:37:59.056Z</time></trkpt><trkpt lat="45.8134549" lon="12.1533042"><ele>194.0</ele><time>2026-04-04T14:38:00.053Z</time></trkpt><trkpt lat="45.8135259" lon="12.1534564"><ele>194.79999999999998</ele><time>2026-04-04T14:38:01.056Z</time></trkpt><trkpt lat="45.8135803" lon="12.153566"><ele>195.6</ele><time>2026-04-04T14:38:02.062Z</time></trkpt><trkpt lat="45.8136314" lon="12.1536334"><ele>196.4</ele><time>2026-04-04T14:38:03.055Z</time></trkpt><trkpt lat="45.8137702" lon="12.153633"><ele>197.2</ele><time>2026-04-04T14:38:05.06Z</time></trkpt><trkpt lat="45.8138703" lon="12.1535764"><ele>198.0</ele><time>2026-04-04T14:38:06.058Z</time></trkpt><trkpt lat="45.8139744" lon="12.1534999"><ele>198.0</ele><time>2026-04-04T14:38:07.056Z</time></trkpt><trkpt lat="45.8140797" lon="12.1534371"><ele>198.0</ele><time>2026-04-04T14:38:08.054Z</time></trkpt><trkpt lat="45.8141764" lon="12.153389"><ele>198.0</ele><time>2026-04-04T14:38:09.056Z</time></trkpt><trkpt lat="45.8142655" lon="12.1533437"><ele>198.0</ele><time>2026-04-04T14:38:10.054Z</time></trkpt><trkpt lat="45.814342" lon="12.1532915"><ele>198.0</ele><time>2026-04-04T14:38:11.053Z</time></trkpt><trkpt lat="45.8144219" lon="12.153218"><ele>197.5</ele><time>2026-04-04T14:38:12.056Z</time></trkpt><trkpt lat="45.8144935" lon="12.1531136"><ele>197.0</ele><time>2026-04-04T14:38:13.057Z</time></trkpt><trkpt lat="45.8145547" lon="12.1530154"><ele>196.5</ele><time>2026-04-04T14:38:14.053Z</time></trkpt><trkpt lat="45.8146108" lon="12.1529353"><ele>196.0</ele><time>2026-04-04T14:38:15.065Z</time></trkpt><trkpt lat="45.8146687" lon="12.1528856"><ele>195.5</ele><time>2026-04-04T14:38:16.058Z</time></trkpt><trkpt lat="45.8147385" lon="12.1528786"><ele>195.0</ele><time>2026-04-04T14:38:17.057Z</time></trkpt><trkpt lat="45.8148135" lon="12.1528945"><ele>195.0</ele><time>2026-04-04T14:38:18.059Z</time></trkpt><trkpt lat="45.8148896" lon="12.1529126"><ele>195.0</ele><time>2026-04-04T14:38:19.057Z</time></trkpt><trkpt lat="45.8149615" lon="12.1529626"><ele>195.0</ele><time>2026-04-04T14:38:20.058Z</time></trkpt><trkpt lat="45.8150352" lon="12.1529993"><ele>195.0</ele><time>2026-04-04T14:38:21.054Z</time></trkpt><trkpt lat="45.8151473" lon="12.1530256"><ele>195.0</ele><time>2026-04-04T14:38:23.055Z</time></trkpt><trkpt lat="45.8152482" lon="12.153009"><ele>195.66666666666666</ele><time>2026-04-04T14:38:25.058Z</time></trkpt><trkpt lat="45.8153343" lon="12.1529871"><ele>196.33333333333331</ele><time>2026-04-04T14:38:27.054Z</time></trkpt><trkpt lat="45.8154185" lon="12.1529694"><ele>197.0</ele><time>2026-04-04T14:38:29.056Z</time></trkpt><trkpt lat="45.8155245" lon="12.1529709"><ele>197.66666666666666</ele><time>2026-04-04T14:38:31.053Z</time></trkpt><trkpt lat="45.8155954" lon="12.1529871"><ele>198.33333333333331</ele><time>2026-04-04T14:38:32.064Z</time></trkpt><trkpt lat="45.8156844" lon="12.1530078"><ele>199.0</ele><time>2026-04-04T14:38:33.065Z</time></trkpt><trkpt lat="45.8157717" lon="12.1530316"><ele>198.99999999999997</ele><time>2026-04-04T14:38:34.057Z</time></trkpt><trkpt lat="45.8158565" lon="12.1530571"><ele>199.0</ele><time>2026-04-04T14:38:35.058Z</time></trkpt><trkpt lat="45.8159345" lon="12.153078"><ele>199.0</ele><time>2026-04-04T14:38:36.058Z</time></trkpt><trkpt lat="45.8160012" lon="12.1530908"><ele>199.0</ele><time>2026-04-04T14:38:37.065Z</time></trkpt><trkpt lat="45.8161133" lon="12.1530673"><ele>198.99999999999997</ele><time>2026-04-04T14:38:39.055Z</time></trkpt><trkpt lat="45.8161949" lon="12.152985"><ele>199.0</ele><time>2026-04-04T14:38:41.052Z</time></trkpt><trkpt lat="45.8162459" lon="12.1528759"><ele>198.83333333333331</ele><time>2026-04-04T14:38:43.054Z</time></trkpt><trkpt lat="45.816272" lon="12.1527736"><ele>198.66666666666666</ele><time>2026-04-04T14:38:45.064Z</time></trkpt><trkpt lat="45.8162829" lon="12.1526423"><ele>198.5</ele><time>2026-04-04T14:38:47.055Z</time></trkpt><trkpt lat="45.8163094" lon="12.1525174"><ele>198.33333333333331</ele><time>2026-04-04T14:38:49.06Z</time></trkpt><trkpt lat="45.8163339" lon="12.1523896"><ele>198.16666666666666</ele><time>2026-04-04T14:38:51.056Z</time></trkpt><trkpt lat="45.8163658" lon="12.1523016"><ele>198.0</ele><time>2026-04-04T14:38:52.058Z</time></trkpt><trkpt lat="45.8164091" lon="12.1522298"><ele>198.0</ele><time>2026-04-04T14:38:53.06Z</time></trkpt><trkpt lat="45.8165123" lon="12.1521549"><ele>198.0</ele><time>2026-04-04T14:38:55.061Z</time></trkpt><trkpt lat="45.816628" lon="12.1521315"><ele>198.0</ele><time>2026-04-04T14:38:57.057Z</time></trkpt><trkpt lat="45.8167285" lon="12.15216"><ele>198.0</ele><time>2026-04-04T14:38:59.053Z</time></trkpt><trkpt lat="45.816806" lon="12.1521925"><ele>198.0</ele><time>2026-04-04T14:39:01.062Z</time></trkpt><trkpt lat="45.8168958" lon="12.1522123"><ele>197.75</ele><time>2026-04-04T14:39:08.061Z</time></trkpt><trkpt lat="45.8169211" lon="12.1520568"><ele>197.5</ele><time>2026-04-04T14:39:10.06Z</time></trkpt><trkpt lat="45.816911" lon="12.1519173"><ele>197.25</ele><time>2026-04-04T14:39:11.056Z</time></trkpt><trkpt lat="45.8168976" lon="12.1517548"><ele>197.0</ele><time>2026-04-04T14:39:12.054Z</time></trkpt><trkpt lat="45.8168725" lon="12.1515488"><ele>198.66666666666669</ele><time>2026-04-04T14:39:13.06Z</time></trkpt><trkpt lat="45.8168256" lon="12.1513206"><ele>200.33333333333331</ele><time>2026-04-04T14:39:14.055Z</time></trkpt><trkpt lat="45.8167597" lon="12.1511027"><ele>202.0</ele><time>2026-04-04T14:39:15.07Z</time></trkpt><trkpt lat="45.8166934" lon="12.1509155"><ele>202.0</ele><time>2026-04-04T14:39:16.059Z</time></trkpt><trkpt lat="45.8166305" lon="12.1507385"><ele>202.0</ele><time>2026-04-04T14:39:17.062Z</time></trkpt><trkpt lat="45.8165985" lon="12.1505727"><ele>202.0</ele><time>2026-04-04T14:39:18.055Z</time></trkpt><trkpt lat="45.8166062" lon="12.1503976"><ele>202.0</ele><time>2026-04-04T14:39:19.068Z</time></trkpt><trkpt lat="45.816663" lon="12.1502176"><ele>202.5</ele><time>2026-04-04T14:39:20.057Z</time></trkpt><trkpt lat="45.8167288" lon="12.150034"><ele>203.0</ele><time>2026-04-04T14:39:21.067Z</time></trkpt><trkpt lat="45.8167956" lon="12.1498537"><ele>203.5</ele><time>2026-04-04T14:39:22.068Z</time></trkpt><trkpt lat="45.8168495" lon="12.1496526"><ele>204.0</ele><time>2026-04-04T14:39:23.067Z</time></trkpt><trkpt lat="45.8168746" lon="12.1494387"><ele>205.25</ele><time>2026-04-04T14:39:24.06Z</time></trkpt><trkpt lat="45.8168689" lon="12.1492162"><ele>206.5</ele><time>2026-04-04T14:39:25.059Z</time></trkpt><trkpt lat="45.816858" lon="12.1490017"><ele>207.75</ele><time>2026-04-04T14:39:26.059Z</time></trkpt><trkpt lat="45.8168665" lon="12.148809"><ele>209.0</ele><time>2026-04-04T14:39:27.061Z</time></trkpt><trkpt lat="45.8168762" lon="12.148604"><ele>209.33333333333334</ele><time>2026-04-04T14:39:28.066Z</time></trkpt><trkpt lat="45.8169195" lon="12.1483745"><ele>209.66666666666669</ele><time>2026-04-04T14:39:29.058Z</time></trkpt><trkpt lat="45.8170063" lon="12.1481101"><ele>210.0</ele><time>2026-04-04T14:39:30.061Z</time></trkpt><trkpt lat="45.8170926" lon="12.1478206"><ele>211.33333333333331</ele><time>2026-04-04T14:39:31.117Z</time></trkpt><trkpt lat="45.8171655" lon="12.1475152"><ele>212.66666666666666</ele><time>2026-04-04T14:39:32.054Z</time></trkpt><trkpt lat="45.8172247" lon="12.1472435"><ele>214.0</ele><time>2026-04-04T14:39:33.057Z</time></trkpt><trkpt lat="45.8172637" lon="12.1469849"><ele>214.0</ele><time>2026-04-04T14:39:34.064Z</time></trkpt><trkpt lat="45.817285" lon="12.1467296"><ele>214.0</ele><time>2026-04-04T14:39:35.064Z</time></trkpt><trkpt lat="45.8173091" lon="12.1464727"><ele>214.0</ele><time>2026-04-04T14:39:36.07Z</time></trkpt><trkpt lat="45.8173318" lon="12.1462146"><ele>214.0</ele><time>2026-04-04T14:39:37.059Z</time></trkpt><trkpt lat="45.8173402" lon="12.1459672"><ele>214.0</ele><time>2026-04-04T14:39:38.05Z</time></trkpt><trkpt lat="45.8173434" lon="12.1457109"><ele>214.0</ele><time>2026-04-04T14:39:39.057Z</time></trkpt><trkpt lat="45.8173284" lon="12.1454657"><ele>214.0</ele><time>2026-04-04T14:39:40.059Z</time></trkpt><trkpt lat="45.8173016" lon="12.1452436"><ele>214.0</ele><time>2026-04-04T14:39:41.055Z</time></trkpt><trkpt lat="45.8172743" lon="12.145019"><ele>214.0</ele><time>2026-04-04T14:39:42.062Z</time></trkpt><trkpt lat="45.8172396" lon="12.1447914"><ele>216.5</ele><time>2026-04-04T14:39:43.054Z</time></trkpt><trkpt lat="45.8171617" lon="12.1445822"><ele>219.0</ele><time>2026-04-04T14:39:44.056Z</time></trkpt><trkpt lat="45.8170876" lon="12.1444121"><ele>221.5</ele><time>2026-04-04T14:39:45.051Z</time></trkpt><trkpt lat="45.8170334" lon="12.1442517"><ele>224.0</ele><time>2026-04-04T14:39:46.052Z</time></trkpt><trkpt lat="45.8169797" lon="12.1440939"><ele>224.75</ele><time>2026-04-04T14:39:47.063Z</time></trkpt><trkpt lat="45.8169925" lon="12.143885"><ele>225.5</ele><time>2026-04-04T14:39:48.061Z</time></trkpt><trkpt lat="45.8170176" lon="12.1437102"><ele>226.25</ele><time>2026-04-04T14:39:49.054Z</time></trkpt><trkpt lat="45.8170261" lon="12.1435419"><ele>227.0</ele><time>2026-04-04T14:39:50.057Z</time></trkpt><trkpt lat="45.817048" lon="12.1433925"><ele>227.0</ele><time>2026-04-04T14:39:51.052Z</time></trkpt><trkpt lat="45.8170306" lon="12.1432924"><ele>227.0</ele><time>2026-04-04T14:39:52.057Z</time></trkpt><trkpt lat="45.8170027" lon="12.14316"><ele>227.0</ele><time>2026-04-04T14:39:54.051Z</time></trkpt><trkpt lat="45.8170074" lon="12.1429634"><ele>227.0</ele><time>2026-04-04T14:40:07.075Z</time></trkpt><trkpt lat="45.8170171" lon="12.1428709"><ele>227.0</ele><time>2026-04-04T14:40:08.054Z</time></trkpt><trkpt lat="45.817055" lon="12.1427672"><ele>227.75</ele><time>2026-04-04T14:40:09.075Z</time></trkpt><trkpt lat="45.8171236" lon="12.1426681"><ele>228.5</ele><time>2026-04-04T14:40:10.056Z</time></trkpt><trkpt lat="45.8172244" lon="12.1425118"><ele>229.25</ele><time>2026-04-04T14:40:11.051Z</time></trkpt><trkpt lat="45.8173342" lon="12.1423521"><ele>230.0</ele><time>2026-04-04T14:40:12.054Z</time></trkpt><trkpt lat="45.8174345" lon="12.1421778"><ele>231.33333333333334</ele><time>2026-04-04T14:40:13.063Z</time></trkpt><trkpt lat="45.8175442" lon="12.1420024"><ele>232.66666666666669</ele><time>2026-04-04T14:40:14.054Z</time></trkpt><trkpt lat="45.8176521" lon="12.1418311"><ele>234.0</ele><time>2026-04-04T14:40:15.06Z</time></trkpt><trkpt lat="45.8177554" lon="12.1416631"><ele>233.0</ele><time>2026-04-04T14:40:16.058Z</time></trkpt><trkpt lat="45.8178683" lon="12.1414936"><ele>232.0</ele><time>2026-04-04T14:40:17.059Z</time></trkpt><trkpt lat="45.817978" lon="12.1413268"><ele>231.0</ele><time>2026-04-04T14:40:18.054Z</time></trkpt><trkpt lat="45.8180849" lon="12.1411553"><ele>231.0</ele><time>2026-04-04T14:40:19.057Z</time></trkpt><trkpt lat="45.8181821" lon="12.1409731"><ele>231.0</ele><time>2026-04-04T14:40:20.06Z</time></trkpt><trkpt lat="45.8182516" lon="12.1407825"><ele>231.0</ele><time>2026-04-04T14:40:21.06Z</time></trkpt><trkpt lat="45.818292" lon="12.1405739"><ele>230.0</ele><time>2026-04-04T14:40:22.055Z</time></trkpt><trkpt lat="45.8183056" lon="12.1403546"><ele>229.0</ele><time>2026-04-04T14:40:23.086Z</time></trkpt><trkpt lat="45.8183172" lon="12.140136"><ele>228.0</ele><time>2026-04-04T14:40:24.055Z</time></trkpt><trkpt lat="45.8182963" lon="12.139893"><ele>229.25</ele><time>2026-04-04T14:40:25.057Z</time></trkpt><trkpt lat="45.8182657" lon="12.1396792"><ele>230.5</ele><time>2026-04-04T14:40:26.056Z</time></trkpt><trkpt lat="45.8182246" lon="12.139487"><ele>231.75</ele><time>2026-04-04T14:40:27.058Z</time></trkpt><trkpt lat="45.8181781" lon="12.1392976"><ele>233.0</ele><time>2026-04-04T14:40:28.051Z</time></trkpt><trkpt lat="45.8181305" lon="12.1391227"><ele>234.75</ele><time>2026-04-04T14:40:29.098Z</time></trkpt><trkpt lat="45.8180977" lon="12.1389387"><ele>236.5</ele><time>2026-04-04T14:40:30.051Z</time></trkpt><trkpt lat="45.8180669" lon="12.1387705"><ele>238.25</ele><time>2026-04-04T14:40:31.07Z</time></trkpt><trkpt lat="45.8180349" lon="12.1386095"><ele>240.0</ele><time>2026-04-04T14:40:32.052Z</time></trkpt><trkpt lat="45.8179941" lon="12.1384449"><ele>240.0</ele><time>2026-04-04T14:40:33.062Z</time></trkpt><trkpt lat="45.8179454" lon="12.1382773"><ele>240.0</ele><time>2026-04-04T14:40:34.057Z</time></trkpt><trkpt lat="45.817896" lon="12.1380958"><ele>240.0</ele><time>2026-04-04T14:40:35.06Z</time></trkpt><trkpt lat="45.8178453" lon="12.1379058"><ele>240.0</ele><time>2026-04-04T14:40:36.059Z</time></trkpt><trkpt lat="45.8178061" lon="12.1377172"><ele>241.5</ele><time>2026-04-04T14:40:37.054Z</time></trkpt><trkpt lat="45.8177735" lon="12.1375349"><ele>243.0</ele><time>2026-04-04T14:40:38.064Z</time></trkpt><trkpt lat="45.8177676" lon="12.1373348"><ele>244.5</ele><time>2026-04-04T14:40:39.062Z</time></trkpt><trkpt lat="45.8177734" lon="12.1371391"><ele>246.0</ele><time>2026-04-04T14:40:40.054Z</time></trkpt><trkpt lat="45.8177902" lon="12.1369431"><ele>247.0</ele><time>2026-04-04T14:40:41.061Z</time></trkpt><trkpt lat="45.8178152" lon="12.1367459"><ele>248.0</ele><time>2026-04-04T14:40:42.06Z</time></trkpt><trkpt lat="45.8178274" lon="12.1365472"><ele>249.0</ele><time>2026-04-04T14:40:43.054Z</time></trkpt><trkpt lat="45.8178316" lon="12.1363483"><ele>250.0</ele><time>2026-04-04T14:40:44.055Z</time></trkpt><trkpt lat="45.8177976" lon="12.1361445"><ele>250.0</ele><time>2026-04-04T14:40:45.058Z</time></trkpt><trkpt lat="45.8177432" lon="12.135939"><ele>250.0</ele><time>2026-04-04T14:40:46.055Z</time></trkpt><trkpt lat="45.8176787" lon="12.1357353"><ele>250.0</ele><time>2026-04-04T14:40:47.053Z</time></trkpt><trkpt lat="45.817604" lon="12.1355052"><ele>253.66666666666666</ele><time>2026-04-04T14:40:48.052Z</time></trkpt><trkpt lat="45.8175213" lon="12.1352584"><ele>257.3333333333333</ele><time>2026-04-04T14:40:49.058Z</time></trkpt><trkpt lat="45.8174203" lon="12.1349658"><ele>261.0</ele><time>2026-04-04T14:40:50.052Z</time></trkpt><trkpt lat="45.8173227" lon="12.1346781"><ele>261.0</ele><time>2026-04-04T14:40:51.054Z</time></trkpt><trkpt lat="45.817234" lon="12.1344501"><ele>261.0</ele><time>2026-04-04T14:40:52.052Z</time></trkpt><trkpt lat="45.8171479" lon="12.1342351"><ele>261.0</ele><time>2026-04-04T14:40:53.054Z</time></trkpt><trkpt lat="45.8170902" lon="12.1339968"><ele>261.0</ele><time>2026-04-04T14:40:54.052Z</time></trkpt><trkpt lat="45.8170368" lon="12.1337774"><ele>261.0</ele><time>2026-04-04T14:40:55.057Z</time></trkpt><trkpt lat="45.8169855" lon="12.1335607"><ele>261.0</ele><time>2026-04-04T14:40:56.056Z</time></trkpt><trkpt lat="45.8169144" lon="12.1333668"><ele>261.0</ele><time>2026-04-04T14:40:57.05Z</time></trkpt><trkpt lat="45.8168407" lon="12.1332109"><ele>261.0</ele><time>2026-04-04T14:40:58.059Z</time></trkpt><trkpt lat="45.8167668" lon="12.1330932"><ele>261.0</ele><time>2026-04-04T14:40:59.056Z</time></trkpt><trkpt lat="45.816706" lon="12.1330106"><ele>261.0</ele><time>2026-04-04T14:41:00.053Z</time></trkpt><trkpt lat="45.8166508" lon="12.132952"><ele>261.0</ele><time>2026-04-04T14:41:01.058Z</time></trkpt><trkpt lat="45.8165632" lon="12.1328512"><ele>262.2</ele><time>2026-04-04T14:41:03.054Z</time></trkpt><trkpt lat="45.8164612" lon="12.1327507"><ele>263.40000000000003</ele><time>2026-04-04T14:41:05.06Z</time></trkpt><trkpt lat="45.8163927" lon="12.13269"><ele>264.6</ele><time>2026-04-04T14:41:06.058Z</time></trkpt><trkpt lat="45.8163223" lon="12.1326167"><ele>265.8</ele><time>2026-04-04T14:41:07.06Z</time></trkpt><trkpt lat="45.8162425" lon="12.1325345"><ele>267.0</ele><time>2026-04-04T14:41:08.049Z</time></trkpt><trkpt lat="45.816158" lon="12.1324476"><ele>267.5</ele><time>2026-04-04T14:41:09.058Z</time></trkpt><trkpt lat="45.8160684" lon="12.1323547"><ele>268.0</ele><time>2026-04-04T14:41:10.051Z</time></trkpt><trkpt lat="45.8159743" lon="12.1322569"><ele>268.5</ele><time>2026-04-04T14:41:11.05Z</time></trkpt><trkpt lat="45.8158737" lon="12.132159"><ele>269.0</ele><time>2026-04-04T14:41:12.053Z</time></trkpt><trkpt lat="45.8157723" lon="12.1320563"><ele>268.0</ele><time>2026-04-04T14:41:13.055Z</time></trkpt><trkpt lat="45.8156691" lon="12.1319518"><ele>267.0</ele><time>2026-04-04T14:41:14.052Z</time></trkpt><trkpt lat="45.8155604" lon="12.1318421"><ele>266.0</ele><time>2026-04-04T14:41:15.058Z</time></trkpt><trkpt lat="45.8154504" lon="12.1317339"><ele>265.0</ele><time>2026-04-04T14:41:16.056Z</time></trkpt><trkpt lat="45.8153359" lon="12.1316211"><ele>266.25</ele><time>2026-04-04T14:41:17.056Z</time></trkpt><trkpt lat="45.8152198" lon="12.1315009"><ele>267.5</ele><time>2026-04-04T14:41:18.051Z</time></trkpt><trkpt lat="45.815099" lon="12.1313851"><ele>268.75</ele><time>2026-04-04T14:41:19.057Z</time></trkpt><trkpt lat="45.8149846" lon="12.1312619"><ele>270.0</ele><time>2026-04-04T14:41:20.055Z</time></trkpt><trkpt lat="45.8148725" lon="12.1311202"><ele>271.0</ele><time>2026-04-04T14:41:21.06Z</time></trkpt><trkpt lat="45.814766" lon="12.1309731"><ele>272.0</ele><time>2026-04-04T14:41:22.052Z</time></trkpt><trkpt lat="45.8146641" lon="12.1308165"><ele>273.0</ele><time>2026-04-04T14:41:23.062Z</time></trkpt><trkpt lat="45.8145653" lon="12.1306443"><ele>275.5</ele><time>2026-04-04T14:41:24.059Z</time></trkpt><trkpt lat="45.8144684" lon="12.1304816"><ele>278.0</ele><time>2026-04-04T14:41:25.065Z</time></trkpt><trkpt lat="45.8143662" lon="12.1303241"><ele>280.5</ele><time>2026-04-04T14:41:26.052Z</time></trkpt><trkpt lat="45.8142511" lon="12.1301939"><ele>283.0</ele><time>2026-04-04T14:41:27.051Z</time></trkpt><trkpt lat="45.8141482" lon="12.1300594"><ele>284.75</ele><time>2026-04-04T14:41:28.058Z</time></trkpt><trkpt lat="45.8140558" lon="12.1299429"><ele>286.5</ele><time>2026-04-04T14:41:29.049Z</time></trkpt><trkpt lat="45.813976" lon="12.1298396"><ele>288.25</ele><time>2026-04-04T14:41:30.048Z</time></trkpt><trkpt lat="45.8138857" lon="12.1297175"><ele>290.0</ele><time>2026-04-04T14:41:31.058Z</time></trkpt><trkpt lat="45.8138233" lon="12.1295654"><ele>290.25</ele><time>2026-04-04T14:41:32.053Z</time></trkpt><trkpt lat="45.8137593" lon="12.129427"><ele>290.5</ele><time>2026-04-04T14:41:33.056Z</time></trkpt><trkpt lat="45.8137441" lon="12.129239"><ele>290.75</ele><time>2026-04-04T14:41:34.057Z</time></trkpt><trkpt lat="45.8137511" lon="12.1290325"><ele>291.0</ele><time>2026-04-04T14:41:35.063Z</time></trkpt><trkpt lat="45.8137615" lon="12.1288192"><ele>291.0</ele><time>2026-04-04T14:41:36.055Z</time></trkpt><trkpt lat="45.8137707" lon="12.1286308"><ele>291.0</ele><time>2026-04-04T14:41:37.052Z</time></trkpt><trkpt lat="45.8137795" lon="12.128445"><ele>291.0</ele><time>2026-04-04T14:41:38.057Z</time></trkpt><trkpt lat="45.8137908" lon="12.1282574"><ele>291.0</ele><time>2026-04-04T14:41:39.051Z</time></trkpt><trkpt lat="45.8137986" lon="12.1280729"><ele>291.25</ele><time>2026-04-04T14:41:40.051Z</time></trkpt><trkpt lat="45.813802" lon="12.1278896"><ele>291.5</ele><time>2026-04-04T14:41:41.061Z</time></trkpt><trkpt lat="45.8137754" lon="12.1277032"><ele>291.75</ele><time>2026-04-04T14:41:42.057Z</time></trkpt><trkpt lat="45.8137153" lon="12.1275198"><ele>292.0</ele><time>2026-04-04T14:41:43.058Z</time></trkpt><trkpt lat="45.8136172" lon="12.1273398"><ele>293.3333333333333</ele><time>2026-04-04T14:41:44.05Z</time></trkpt><trkpt lat="45.81352" lon="12.1271578"><ele>294.6666666666667</ele><time>2026-04-04T14:41:45.058Z</time></trkpt><trkpt lat="45.8134174" lon="12.1269551"><ele>296.0</ele><time>2026-04-04T14:41:46.053Z</time></trkpt><trkpt lat="45.813322" lon="12.1267594"><ele>297.25</ele><time>2026-04-04T14:41:47.053Z</time></trkpt><trkpt lat="45.8132353" lon="12.126576"><ele>298.5</ele><time>2026-04-04T14:41:48.047Z</time></trkpt><trkpt lat="45.8131598" lon="12.1264101"><ele>299.75</ele><time>2026-04-04T14:41:49.058Z</time></trkpt><trkpt lat="45.8130813" lon="12.1262389"><ele>301.0</ele><time>2026-04-04T14:41:50.05Z</time></trkpt><trkpt lat="45.8130094" lon="12.1260886"><ele>302.75</ele><time>2026-04-04T14:41:51.055Z</time></trkpt><trkpt lat="45.812976" lon="12.1259031"><ele>304.5</ele><time>2026-04-04T14:41:52.055Z</time></trkpt><trkpt lat="45.8130006" lon="12.1256916"><ele>306.25</ele><time>2026-04-04T14:41:53.05Z</time></trkpt><trkpt lat="45.8130293" lon="12.1254958"><ele>308.0</ele><time>2026-04-04T14:41:54.052Z</time></trkpt><trkpt lat="45.8130923" lon="12.1253048"><ele>308.0</ele><time>2026-04-04T14:41:55.05Z</time></trkpt><trkpt lat="45.813173" lon="12.1251286"><ele>308.0</ele><time>2026-04-04T14:41:56.052Z</time></trkpt><trkpt lat="45.8132749" lon="12.1249711"><ele>308.0</ele><time>2026-04-04T14:41:57.05Z</time></trkpt><trkpt lat="45.8133837" lon="12.1248178"><ele>308.0</ele><time>2026-04-04T14:41:58.055Z</time></trkpt><trkpt lat="45.8134948" lon="12.1246534"><ele>309.33333333333337</ele><time>2026-04-04T14:41:59.049Z</time></trkpt><trkpt lat="45.8136142" lon="12.1244927"><ele>310.6666666666667</ele><time>2026-04-04T14:42:00.059Z</time></trkpt><trkpt lat="45.813722" lon="12.1243173"><ele>312.0</ele><time>2026-04-04T14:42:01.064Z</time></trkpt><trkpt lat="45.8138159" lon="12.1241291"><ele>312.0</ele><time>2026-04-04T14:42:02.056Z</time></trkpt><trkpt lat="45.813902" lon="12.1239397"><ele>312.0</ele><time>2026-04-04T14:42:03.059Z</time></trkpt><trkpt lat="45.8139848" lon="12.123765"><ele>312.0</ele><time>2026-04-04T14:42:04.049Z</time></trkpt><trkpt lat="45.8140514" lon="12.1236259"><ele>312.0</ele><time>2026-04-04T14:42:05.057Z</time></trkpt><trkpt lat="45.8140817" lon="12.1234578"><ele>312.0</ele><time>2026-04-04T14:42:06.055Z</time></trkpt><trkpt lat="45.8141028" lon="12.1233018"><ele>312.0</ele><time>2026-04-04T14:42:07.054Z</time></trkpt><trkpt lat="45.8140521" lon="12.1231296"><ele>312.0</ele><time>2026-04-04T14:42:08.06Z</time></trkpt><trkpt lat="45.8139541" lon="12.123003"><ele>312.0</ele><time>2026-04-04T14:42:09.058Z</time></trkpt><trkpt lat="45.8138418" lon="12.1229093"><ele>313.0</ele><time>2026-04-04T14:42:10.055Z</time></trkpt><trkpt lat="45.8137167" lon="12.1228224"><ele>314.0</ele><time>2026-04-04T14:42:11.053Z</time></trkpt><trkpt lat="45.8135911" lon="12.1227293"><ele>315.0</ele><time>2026-04-04T14:42:12.063Z</time></trkpt><trkpt lat="45.8134717" lon="12.1226332"><ele>316.0</ele><time>2026-04-04T14:42:13.051Z</time></trkpt><trkpt lat="45.8133499" lon="12.1225269"><ele>316.75</ele><time>2026-04-04T14:42:14.053Z</time></trkpt><trkpt lat="45.8132293" lon="12.1224149"><ele>317.5</ele><time>2026-04-04T14:42:15.047Z</time></trkpt><trkpt lat="45.8131106" lon="12.1223016"><ele>318.25</ele><time>2026-04-04T14:42:16.051Z</time></trkpt><trkpt lat="45.8129884" lon="12.122191"><ele>319.0</ele><time>2026-04-04T14:42:17.057Z</time></trkpt><trkpt lat="45.8128667" lon="12.1220814"><ele>319.0</ele><time>2026-04-04T14:42:18.048Z</time></trkpt><trkpt lat="45.8127494" lon="12.1219655"><ele>319.0</ele><time>2026-04-04T14:42:19.063Z</time></trkpt><trkpt lat="45.8126389" lon="12.1218346"><ele>319.0</ele><time>2026-04-04T14:42:20.051Z</time></trkpt><trkpt lat="45.8125418" lon="12.1216866"><ele>319.0</ele><time>2026-04-04T14:42:21.06Z</time></trkpt><trkpt lat="45.812458" lon="12.1215237"><ele>321.25</ele><time>2026-04-04T14:42:22.057Z</time></trkpt><trkpt lat="45.8123874" lon="12.1213459"><ele>323.5</ele><time>2026-04-04T14:42:23.075Z</time></trkpt><trkpt lat="45.8123248" lon="12.1211745"><ele>325.75</ele><time>2026-04-04T14:42:24.049Z</time></trkpt><trkpt lat="45.8122879" lon="12.1209883"><ele>328.0</ele><time>2026-04-04T14:42:25.056Z</time></trkpt><trkpt lat="45.8122627" lon="12.1208015"><ele>329.0</ele><time>2026-04-04T14:42:26.047Z</time></trkpt><trkpt lat="45.8122499" lon="12.1206033"><ele>330.0</ele><time>2026-04-04T14:42:27.093Z</time></trkpt><trkpt lat="45.8122436" lon="12.1204038"><ele>331.0</ele><time>2026-04-04T14:42:28.052Z</time></trkpt><trkpt lat="45.8122359" lon="12.1202136"><ele>332.0</ele><time>2026-04-04T14:42:29.059Z</time></trkpt><trkpt lat="45.8122263" lon="12.1200055"><ele>332.25</ele><time>2026-04-04T14:42:30.052Z</time></trkpt><trkpt lat="45.8122144" lon="12.1197986"><ele>332.5</ele><time>2026-04-04T14:42:31.053Z</time></trkpt><trkpt lat="45.8122079" lon="12.1196039"><ele>332.75</ele><time>2026-04-04T14:42:32.053Z</time></trkpt><trkpt lat="45.8121968" lon="12.1194182"><ele>333.0</ele><time>2026-04-04T14:42:33.064Z</time></trkpt><trkpt lat="45.8121912" lon="12.1192504"><ele>333.0</ele><time>2026-04-04T14:42:34.052Z</time></trkpt><trkpt lat="45.812183" lon="12.1191036"><ele>333.0</ele><time>2026-04-04T14:42:35.06Z</time></trkpt><trkpt lat="45.8121835" lon="12.1189672"><ele>333.0</ele><time>2026-04-04T14:42:36.055Z</time></trkpt><trkpt lat="45.8121987" lon="12.1188207"><ele>333.0</ele><time>2026-04-04T14:42:37.068Z</time></trkpt><trkpt lat="45.8122346" lon="12.118665"><ele>333.0</ele><time>2026-04-04T14:42:38.063Z</time></trkpt><trkpt lat="45.8123624" lon="12.1183552"><ele>333.0</ele><time>2026-04-04T14:42:40.058Z</time></trkpt><trkpt lat="45.8124654" lon="12.1182366"><ele>333.0</ele><time>2026-04-04T14:42:41.068Z</time></trkpt><trkpt lat="45.8125752" lon="12.1181132"><ele>333.0</ele><time>2026-04-04T14:42:42.059Z</time></trkpt><trkpt lat="45.8126716" lon="12.1179785"><ele>333.0</ele><time>2026-04-04T14:42:43.072Z</time></trkpt><trkpt lat="45.8128497" lon="12.1176756"><ele>332.6666666666667</ele><time>2026-04-04T14:42:45.073Z</time></trkpt><trkpt lat="45.8129307" lon="12.1175082"><ele>332.33333333333337</ele><time>2026-04-04T14:42:46.055Z</time></trkpt><trkpt lat="45.8130066" lon="12.1173387"><ele>332.0</ele><time>2026-04-04T14:42:47.071Z</time></trkpt><trkpt lat="45.8130889" lon="12.1169783"><ele>332.6666666666667</ele><time>2026-04-04T14:42:49.08Z</time></trkpt><trkpt lat="45.8130825" lon="12.1165998"><ele>333.3333333333333</ele><time>2026-04-04T14:42:51.057Z</time></trkpt><trkpt lat="45.8130498" lon="12.1164055"><ele>334.0</ele><time>2026-04-04T14:42:52.065Z</time></trkpt><trkpt lat="45.8130141" lon="12.116217"><ele>334.0</ele><time>2026-04-04T14:42:53.074Z</time></trkpt><trkpt lat="45.8129777" lon="12.1160305"><ele>334.0</ele><time>2026-04-04T14:42:54.064Z</time></trkpt><trkpt lat="45.8129453" lon="12.1158595"><ele>334.0</ele><time>2026-04-04T14:42:55.059Z</time></trkpt><trkpt lat="45.812894" lon="12.1157122"><ele>334.0</ele><time>2026-04-04T14:42:56.071Z</time></trkpt><trkpt lat="45.8127873" lon="12.1154339"><ele>333.25</ele><time>2026-04-04T14:42:58.069Z</time></trkpt><trkpt lat="45.8127276" lon="12.1153157"><ele>332.5</ele><time>2026-04-04T14:42:59.067Z</time></trkpt><trkpt lat="45.8125955" lon="12.1151343"><ele>331.75</ele><time>2026-04-04T14:43:01.058Z</time></trkpt><trkpt lat="45.8125083" lon="12.1150777"><ele>331.0</ele><time>2026-04-04T14:43:02.067Z</time></trkpt><trkpt lat="45.81241" lon="12.1150596"><ele>331.0</ele><time>2026-04-04T14:43:03.064Z</time></trkpt><trkpt lat="45.8123097" lon="12.1150746"><ele>331.0</ele><time>2026-04-04T14:43:04.072Z</time></trkpt><trkpt lat="45.8122146" lon="12.115117"><ele>331.0</ele><time>2026-04-04T14:43:05.065Z</time></trkpt><trkpt lat="45.8120071" lon="12.1151826"><ele>331.0</ele><time>2026-04-04T14:43:07.065Z</time></trkpt><trkpt lat="45.8119022" lon="12.1151741"><ele>329.66666666666663</ele><time>2026-04-04T14:43:08.059Z</time></trkpt><trkpt lat="45.8117989" lon="12.1151163"><ele>328.3333333333333</ele><time>2026-04-04T14:43:09.057Z</time></trkpt><trkpt lat="45.8116063" lon="12.1149275"><ele>327.0</ele><time>2026-04-04T14:43:11.06Z</time></trkpt><trkpt lat="45.8115196" lon="12.1148228"><ele>323.3333333333333</ele><time>2026-04-04T14:43:12.06Z</time></trkpt><trkpt lat="45.8113118" lon="12.1146162"><ele>319.66666666666663</ele><time>2026-04-04T14:43:14.055Z</time></trkpt><trkpt lat="45.811232" lon="12.1144649"><ele>316.0</ele><time>2026-04-04T14:43:15.058Z</time></trkpt><trkpt lat="45.8111722" lon="12.1143014"><ele>316.0</ele><time>2026-04-04T14:43:16.057Z</time></trkpt><trkpt lat="45.8111085" lon="12.1141514"><ele>316.0</ele><time>2026-04-04T14:43:17.063Z</time></trkpt><trkpt lat="45.8110345" lon="12.1139973"><ele>316.0</ele><time>2026-04-04T14:43:18.055Z</time></trkpt><trkpt lat="45.8109147" lon="12.1139064"><ele>316.0</ele><time>2026-04-04T14:43:19.062Z</time></trkpt><trkpt lat="45.8107918" lon="12.1138394"><ele>316.66666666666663</ele><time>2026-04-04T14:43:20.056Z</time></trkpt><trkpt lat="45.8106566" lon="12.1137953"><ele>317.3333333333333</ele><time>2026-04-04T14:43:21.053Z</time></trkpt><trkpt lat="45.8105232" lon="12.1137409"><ele>318.0</ele><time>2026-04-04T14:43:22.061Z</time></trkpt><trkpt lat="45.8102758" lon="12.1135613"><ele>318.0</ele><time>2026-04-04T14:43:24.058Z</time></trkpt><trkpt lat="45.8101882" lon="12.1133791"><ele>318.0</ele><time>2026-04-04T14:43:25.063Z</time></trkpt><trkpt lat="45.8101288" lon="12.1131989"><ele>318.0</ele><time>2026-04-04T14:43:26.061Z</time></trkpt><trkpt lat="45.8100228" lon="12.1130457"><ele>318.0</ele><time>2026-04-04T14:43:27.069Z</time></trkpt><trkpt lat="45.8097781" lon="12.1128014"><ele>321.0</ele><time>2026-04-04T14:43:29.08Z</time></trkpt><trkpt lat="45.8095418" lon="12.1126067"><ele>324.0</ele><time>2026-04-04T14:43:31.074Z</time></trkpt><trkpt lat="45.8093494" lon="12.1124365"><ele>323.5</ele><time>2026-04-04T14:43:33.068Z</time></trkpt><trkpt lat="45.8091999" lon="12.1122909"><ele>323.0</ele><time>2026-04-04T14:43:35.066Z</time></trkpt><trkpt lat="45.8090952" lon="12.1121712"><ele>322.5</ele><time>2026-04-04T14:43:37.063Z</time></trkpt><trkpt lat="45.8090296" lon="12.1120682"><ele>322.0</ele><time>2026-04-04T14:43:39.061Z</time></trkpt><trkpt lat="45.8090266" lon="12.1119667"><ele>322.0</ele><time>2026-04-04T14:43:41.055Z</time></trkpt><trkpt lat="45.8090933" lon="12.1118818"><ele>322.0</ele><time>2026-04-04T14:43:43.063Z</time></trkpt><trkpt lat="45.8092223" lon="12.1119187"><ele>322.0</ele><time>2026-04-04T14:43:45.07Z</time></trkpt><trkpt lat="45.809411" lon="12.1119699"><ele>322.0</ele><time>2026-04-04T14:43:47.073Z</time></trkpt><trkpt lat="45.8095007" lon="12.1119727"><ele>322.5</ele><time>2026-04-04T14:43:48.057Z</time></trkpt><trkpt lat="45.8095925" lon="12.1119182"><ele>323.0</ele><time>2026-04-04T14:43:49.063Z</time></trkpt><trkpt lat="45.809689" lon="12.1118313"><ele>323.5</ele><time>2026-04-04T14:43:50.064Z</time></trkpt><trkpt lat="45.809881" lon="12.1116354"><ele>324.0</ele><time>2026-04-04T14:43:52.058Z</time></trkpt><trkpt lat="45.809995" lon="12.1115736"><ele>324.0</ele><time>2026-04-04T14:43:53.069Z</time></trkpt><trkpt lat="45.8101433" lon="12.1115341"><ele>324.0</ele><time>2026-04-04T14:43:54.06Z</time></trkpt><trkpt lat="45.8103094" lon="12.1114893"><ele>324.0</ele><time>2026-04-04T14:43:55.071Z</time></trkpt><trkpt lat="45.8104735" lon="12.1114453"><ele>326.6666666666667</ele><time>2026-04-04T14:43:56.065Z</time></trkpt><trkpt lat="45.8106337" lon="12.1113818"><ele>329.33333333333337</ele><time>2026-04-04T14:43:57.064Z</time></trkpt><trkpt lat="45.8107872" lon="12.1113102"><ele>332.0</ele><time>2026-04-04T14:43:58.058Z</time></trkpt><trkpt lat="45.8109437" lon="12.1112383"><ele>333.0</ele><time>2026-04-04T14:43:59.069Z</time></trkpt><trkpt lat="45.8110917" lon="12.1111643"><ele>334.0</ele><time>2026-04-04T14:44:00.061Z</time></trkpt><trkpt lat="45.8112275" lon="12.1110773"><ele>335.0</ele><time>2026-04-04T14:44:01.074Z</time></trkpt><trkpt lat="45.8113481" lon="12.110987"><ele>336.0</ele><time>2026-04-04T14:44:02.067Z</time></trkpt><trkpt lat="45.811537" lon="12.110782"><ele>336.0</ele><time>2026-04-04T14:44:04.06Z</time></trkpt><trkpt lat="45.8117273" lon="12.1107508"><ele>336.0</ele><time>2026-04-04T14:44:06.056Z</time></trkpt><trkpt lat="45.8119405" lon="12.1109761"><ele>335.3333333333333</ele><time>2026-04-04T14:44:08.052Z</time></trkpt><trkpt lat="45.8120683" lon="12.1110216"><ele>334.66666666666663</ele><time>2026-04-04T14:44:09.057Z</time></trkpt><trkpt lat="45.8122054" lon="12.1110351"><ele>334.0</ele><time>2026-04-04T14:44:10.06Z</time></trkpt><trkpt lat="45.8125263" lon="12.1108473"><ele>330.0</ele><time>2026-04-04T14:44:12.054Z</time></trkpt><trkpt lat="45.8129057" lon="12.1106387"><ele>326.0</ele><time>2026-04-04T14:44:14.059Z</time></trkpt><trkpt lat="45.8133375" lon="12.1104213"><ele>326.0</ele><time>2026-04-04T14:44:16.052Z</time></trkpt><trkpt lat="45.8136975" lon="12.1102373"><ele>326.0</ele><time>2026-04-04T14:44:18.06Z</time></trkpt><trkpt lat="45.8138564" lon="12.1101616"><ele>326.0</ele><time>2026-04-04T14:44:19.064Z</time></trkpt><trkpt lat="45.8139801" lon="12.1100822"><ele>326.0</ele><time>2026-04-04T14:44:20.056Z</time></trkpt><trkpt lat="45.8142014" lon="12.1099752"><ele>326.0</ele><time>2026-04-04T14:44:22.053Z</time></trkpt><trkpt lat="45.8144652" lon="12.1100222"><ele>325.5</ele><time>2026-04-04T14:44:24.053Z</time></trkpt><trkpt lat="45.8147327" lon="12.1100673"><ele>325.0</ele><time>2026-04-04T14:44:26.057Z</time></trkpt><trkpt lat="45.8149154" lon="12.1101654"><ele>325.0</ele><time>2026-04-04T14:44:28.061Z</time></trkpt><trkpt lat="45.8151162" lon="12.1103502"><ele>325.0</ele><time>2026-04-04T14:44:30.063Z</time></trkpt><trkpt lat="45.8152277" lon="12.110408"><ele>325.0</ele><time>2026-04-04T14:44:31.062Z</time></trkpt><trkpt lat="45.8153418" lon="12.1104669"><ele>325.25</ele><time>2026-04-04T14:44:32.067Z</time></trkpt><trkpt lat="45.8154328" lon="12.1105437"><ele>325.5</ele><time>2026-04-04T14:44:33.078Z</time></trkpt><trkpt lat="45.8155143" lon="12.1106051"><ele>325.75</ele><time>2026-04-04T14:44:34.069Z</time></trkpt><trkpt lat="45.8155918" lon="12.110661"><ele>326.0</ele><time>2026-04-04T14:44:35.072Z</time></trkpt><trkpt lat="45.8157689" lon="12.1105633"><ele>326.0</ele><time>2026-04-04T14:44:37.07Z</time></trkpt><trkpt lat="45.815905" lon="12.1104652"><ele>326.0</ele><time>2026-04-04T14:44:39.053Z</time></trkpt><trkpt lat="45.8160073" lon="12.110409"><ele>326.0</ele><time>2026-04-04T14:44:41.069Z</time></trkpt><trkpt lat="45.8160721" lon="12.1103747"><ele>326.0</ele><time>2026-04-04T14:44:43.068Z</time></trkpt><trkpt lat="45.816061" lon="12.1101906"><ele>325.8</ele><time>2026-04-04T14:44:47.059Z</time></trkpt><trkpt lat="45.816038" lon="12.1100574"><ele>325.6</ele><time>2026-04-04T14:44:49.067Z</time></trkpt><trkpt lat="45.8160052" lon="12.109911"><ele>325.4</ele><time>2026-04-04T14:44:51.053Z</time></trkpt><trkpt lat="45.8159744" lon="12.1097551"><ele>325.2</ele><time>2026-04-04T14:44:53.062Z</time></trkpt><trkpt lat="45.8159328" lon="12.1095897"><ele>325.0</ele><time>2026-04-04T14:44:55.052Z</time></trkpt><trkpt lat="45.8159074" lon="12.1095024"><ele>325.0</ele><time>2026-04-04T14:44:56.058Z</time></trkpt><trkpt lat="45.8158828" lon="12.1094091"><ele>325.0</ele><time>2026-04-04T14:44:57.079Z</time></trkpt><trkpt lat="45.815847" lon="12.1092289"><ele>325.0</ele><time>2026-04-04T14:44:59.065Z</time></trkpt><trkpt lat="45.8158496" lon="12.1091359"><ele>325.0</ele><time>2026-04-04T14:45:00.062Z</time></trkpt><trkpt lat="45.8158689" lon="12.1090493"><ele>325.0</ele><time>2026-04-04T14:45:01.073Z</time></trkpt><trkpt lat="45.815936" lon="12.1089092"><ele>325.0</ele><time>2026-04-04T14:45:03.069Z</time></trkpt><trkpt lat="45.8159968" lon="12.108791"><ele>324.0</ele><time>2026-04-04T14:45:05.067Z</time></trkpt><trkpt lat="45.8160526" lon="12.1086895"><ele>324.0</ele><time>2026-04-04T14:45:07.077Z</time></trkpt><trkpt lat="45.8160937" lon="12.108587"><ele>324.0</ele><time>2026-04-04T14:45:09.071Z</time></trkpt><trkpt lat="45.8161451" lon="12.108514"><ele>324.0</ele><time>2026-04-04T14:45:11.064Z</time></trkpt><trkpt lat="45.8161881" lon="12.1084453"><ele>324.0</ele><time>2026-04-04T14:45:13.056Z</time></trkpt></trkseg><trkseg><trkpt lat="45.8161398" lon="12.1085096"><ele>324.0</ele><time>2026-04-04T15:45:45.147Z</time></trkpt><trkpt lat="45.8160694" lon="12.1086245"><ele>324.0</ele><time>2026-04-04T15:45:47.143Z</time></trkpt><trkpt lat="45.8160039" lon="12.1087641"><ele>324.0</ele><time>2026-04-04T15:45:48.153Z</time></trkpt><trkpt lat="45.8159521" lon="12.1088886"><ele>324.0</ele><time>2026-04-04T15:45:49.144Z</time></trkpt><trkpt lat="45.8158955" lon="12.1090124"><ele>324.0</ele><time>2026-04-04T15:45:50.14Z</time></trkpt><trkpt lat="45.8158755" lon="12.1091329"><ele>324.1666666666667</ele><time>2026-04-04T15:45:51.145Z</time></trkpt><trkpt lat="45.81586" lon="12.1092555"><ele>324.3333333333333</ele><time>2026-04-04T15:45:52.144Z</time></trkpt><trkpt lat="45.8158834" lon="12.1093741"><ele>324.5</ele><time>2026-04-04T15:45:53.144Z</time></trkpt><trkpt lat="45.8159082" lon="12.1094919"><ele>324.66666666666663</ele><time>2026-04-04T15:45:54.151Z</time></trkpt><trkpt lat="45.8159349" lon="12.1096159"><ele>324.8333333333333</ele><time>2026-04-04T15:45:55.141Z</time></trkpt><trkpt lat="45.8159626" lon="12.109738"><ele>325.0</ele><time>2026-04-04T15:45:56.152Z</time></trkpt><trkpt lat="45.8159864" lon="12.1098484"><ele>325.16666666666663</ele><time>2026-04-04T15:45:57.143Z</time></trkpt><trkpt lat="45.8160049" lon="12.1099476"><ele>325.3333333333333</ele><time>2026-04-04T15:45:58.145Z</time></trkpt><trkpt lat="45.8160192" lon="12.1100365"><ele>325.5</ele><time>2026-04-04T15:45:59.142Z</time></trkpt><trkpt lat="45.8160423" lon="12.1101683"><ele>325.6666666666667</ele><time>2026-04-04T15:46:01.14Z</time></trkpt><trkpt lat="45.8160404" lon="12.1102906"><ele>325.83333333333337</ele><time>2026-04-04T15:46:18.153Z</time></trkpt><trkpt lat="45.8160026" lon="12.1103641"><ele>326.0</ele><time>2026-04-04T15:46:21.152Z</time></trkpt><trkpt lat="45.815896" lon="12.1104548"><ele>326.0</ele><time>2026-04-04T15:46:23.147Z</time></trkpt><trkpt lat="45.8158248" lon="12.1105054"><ele>326.0</ele><time>2026-04-04T15:46:24.152Z</time></trkpt><trkpt lat="45.8157498" lon="12.1105596"><ele>326.0</ele><time>2026-04-04T15:46:25.143Z</time></trkpt><trkpt lat="45.8156792" lon="12.1106106"><ele>326.0</ele><time>2026-04-04T15:46:26.155Z</time></trkpt><trkpt lat="45.8156194" lon="12.1106541"><ele>326.0</ele><time>2026-04-04T15:46:27.137Z</time></trkpt><trkpt lat="45.8155559" lon="12.1106688"><ele>326.0</ele><time>2026-04-04T15:46:28.148Z</time></trkpt><trkpt lat="45.8154816" lon="12.1106331"><ele>326.0</ele><time>2026-04-04T15:46:29.144Z</time></trkpt><trkpt lat="45.8154211" lon="12.11056"><ele>326.0</ele><time>2026-04-04T15:46:30.15Z</time></trkpt><trkpt lat="45.81533" lon="12.1105003"><ele>326.0</ele><time>2026-04-04T15:46:31.151Z</time></trkpt><trkpt lat="45.8152194" lon="12.1104552"><ele>326.0</ele><time>2026-04-04T15:46:32.153Z</time></trkpt><trkpt lat="45.8151208" lon="12.110413"><ele>326.0</ele><time>2026-04-04T15:46:33.147Z</time></trkpt><trkpt lat="45.8150267" lon="12.1103484"><ele>325.8</ele><time>2026-04-04T15:46:34.15Z</time></trkpt><trkpt lat="45.8149418" lon="12.1102699"><ele>325.6</ele><time>2026-04-04T15:46:35.149Z</time></trkpt><trkpt lat="45.8148653" lon="12.1101866"><ele>325.4</ele><time>2026-04-04T15:46:36.143Z</time></trkpt><trkpt lat="45.814789" lon="12.1101125"><ele>325.2</ele><time>2026-04-04T15:46:37.145Z</time></trkpt><trkpt lat="45.81471" lon="12.1100534"><ele>325.0</ele><time>2026-04-04T15:46:38.154Z</time></trkpt><trkpt lat="45.8146173" lon="12.1100527"><ele>325.0</ele><time>2026-04-04T15:46:39.141Z</time></trkpt><trkpt lat="45.814523" lon="12.110069"><ele>325.0</ele><time>2026-04-04T15:46:40.175Z</time></trkpt><trkpt lat="45.814431" lon="12.1100697"><ele>325.0</ele><time>2026-04-04T15:46:41.143Z</time></trkpt><trkpt lat="45.8143464" lon="12.1100359"><ele>325.0</ele><time>2026-04-04T15:46:42.144Z</time></trkpt><trkpt lat="45.8142508" lon="12.1099992"><ele>325.0</ele><time>2026-04-04T15:46:43.139Z</time></trkpt><trkpt lat="45.8141467" lon="12.110024"><ele>325.25</ele><time>2026-04-04T15:46:44.146Z</time></trkpt><trkpt lat="45.8140359" lon="12.1100664"><ele>325.5</ele><time>2026-04-04T15:46:45.143Z</time></trkpt><trkpt lat="45.8139284" lon="12.1101185"><ele>325.75</ele><time>2026-04-04T15:46:46.147Z</time></trkpt><trkpt lat="45.8138162" lon="12.1101747"><ele>326.0</ele><time>2026-04-04T15:46:47.143Z</time></trkpt><trkpt lat="45.8137059" lon="12.1102301"><ele>326.0</ele><time>2026-04-04T15:46:48.151Z</time></trkpt><trkpt lat="45.813595" lon="12.11029"><ele>326.0</ele><time>2026-04-04T15:46:49.15Z</time></trkpt><trkpt lat="45.8134837" lon="12.1103455"><ele>326.0</ele><time>2026-04-04T15:46:50.143Z</time></trkpt><trkpt lat="45.8133686" lon="12.1104015"><ele>326.0</ele><time>2026-04-04T15:46:51.153Z</time></trkpt><trkpt lat="45.8132526" lon="12.1104565"><ele>326.0</ele><time>2026-04-04T15:46:52.146Z</time></trkpt><trkpt lat="45.8131364" lon="12.11051"><ele>326.0</ele><time>2026-04-04T15:46:53.148Z</time></trkpt><trkpt lat="45.8130182" lon="12.1105668"><ele>326.0</ele><time>2026-04-04T15:46:54.151Z</time></trkpt><trkpt lat="45.8128985" lon="12.1106236"><ele>326.0</ele><time>2026-04-04T15:46:55.142Z</time></trkpt><trkpt lat="45.8127788" lon="12.1106821"><ele>325.25</ele><time>2026-04-04T15:46:56.143Z</time></trkpt><trkpt lat="45.8126588" lon="12.1107427"><ele>324.5</ele><time>2026-04-04T15:46:57.142Z</time></trkpt><trkpt lat="45.8125363" lon="12.1108037"><ele>323.75</ele><time>2026-04-04T15:46:58.152Z</time></trkpt><trkpt lat="45.8124183" lon="12.1108636"><ele>323.0</ele><time>2026-04-04T15:46:59.148Z</time></trkpt><trkpt lat="45.8123132" lon="12.110918"><ele>325.2</ele><time>2026-04-04T15:47:00.154Z</time></trkpt><trkpt lat="45.8122134" lon="12.1109688"><ele>327.4</ele><time>2026-04-04T15:47:01.147Z</time></trkpt><trkpt lat="45.8121165" lon="12.1110017"><ele>329.59999999999997</ele><time>2026-04-04T15:47:02.141Z</time></trkpt><trkpt lat="45.8120192" lon="12.1110112"><ele>331.79999999999995</ele><time>2026-04-04T15:47:03.143Z</time></trkpt><trkpt lat="45.8119235" lon="12.1109856"><ele>334.0</ele><time>2026-04-04T15:47:04.144Z</time></trkpt><trkpt lat="45.8118291" lon="12.1109575"><ele>334.3333333333333</ele><time>2026-04-04T15:47:05.152Z</time></trkpt><trkpt lat="45.8117463" lon="12.1108888"><ele>334.66666666666663</ele><time>2026-04-04T15:47:06.148Z</time></trkpt><trkpt lat="45.811671" lon="12.1108165"><ele>335.0</ele><time>2026-04-04T15:47:07.152Z</time></trkpt><trkpt lat="45.8116047" lon="12.1107721"><ele>335.3333333333333</ele><time>2026-04-04T15:47:08.139Z</time></trkpt><trkpt lat="45.8115245" lon="12.1107578"><ele>335.6666666666667</ele><time>2026-04-04T15:47:09.145Z</time></trkpt><trkpt lat="45.8114476" lon="12.1108248"><ele>336.0</ele><time>2026-04-04T15:47:10.147Z</time></trkpt><trkpt lat="45.8113584" lon="12.1109111"><ele>336.0</ele><time>2026-04-04T15:47:11.145Z</time></trkpt><trkpt lat="45.8112529" lon="12.1109914"><ele>336.0</ele><time>2026-04-04T15:47:12.136Z</time></trkpt><trkpt lat="45.8111504" lon="12.1110643"><ele>336.0</ele><time>2026-04-04T15:47:13.148Z</time></trkpt><trkpt lat="45.8110404" lon="12.1111281"><ele>336.0</ele><time>2026-04-04T15:47:14.144Z</time></trkpt><trkpt lat="45.8109252" lon="12.1111907"><ele>335.0</ele><time>2026-04-04T15:47:15.147Z</time></trkpt><trkpt lat="45.8108097" lon="12.1112451"><ele>334.0</ele><time>2026-04-04T15:47:16.151Z</time></trkpt><trkpt lat="45.810693" lon="12.1112985"><ele>333.0</ele><time>2026-04-04T15:47:17.141Z</time></trkpt><trkpt lat="45.8105754" lon="12.1113497"><ele>332.0</ele><time>2026-04-04T15:47:18.153Z</time></trkpt><trkpt lat="45.8104559" lon="12.1113963"><ele>332.0</ele><time>2026-04-04T15:47:19.154Z</time></trkpt><trkpt lat="45.810334" lon="12.1114374"><ele>332.0</ele><time>2026-04-04T15:47:20.141Z</time></trkpt><trkpt lat="45.810206" lon="12.1114767"><ele>332.0</ele><time>2026-04-04T15:47:21.149Z</time></trkpt><trkpt lat="45.8100768" lon="12.1115101"><ele>332.0</ele><time>2026-04-04T15:47:22.147Z</time></trkpt><trkpt lat="45.8099497" lon="12.1115557"><ele>331.5</ele><time>2026-04-04T15:47:23.144Z</time></trkpt><trkpt lat="45.8098357" lon="12.1116248"><ele>331.0</ele><time>2026-04-04T15:47:24.147Z</time></trkpt><trkpt lat="45.8097392" lon="12.1117148"><ele>330.5</ele><time>2026-04-04T15:47:25.155Z</time></trkpt><trkpt lat="45.8096549" lon="12.1118151"><ele>330.0</ele><time>2026-04-04T15:47:26.149Z</time></trkpt><trkpt lat="45.8095753" lon="12.1119086"><ele>330.0</ele><time>2026-04-04T15:47:27.149Z</time></trkpt><trkpt lat="45.8094981" lon="12.1119785"><ele>330.0</ele><time>2026-04-04T15:47:28.146Z</time></trkpt><trkpt lat="45.8094084" lon="12.1120192"><ele>330.0</ele><time>2026-04-04T15:47:29.147Z</time></trkpt><trkpt lat="45.8093098" lon="12.1120158"><ele>330.0</ele><time>2026-04-04T15:47:30.145Z</time></trkpt><trkpt lat="45.8092346" lon="12.111978"><ele>330.0</ele><time>2026-04-04T15:47:31.144Z</time></trkpt><trkpt lat="45.8091695" lon="12.1119499"><ele>330.0</ele><time>2026-04-04T15:47:32.143Z</time></trkpt><trkpt lat="45.8090685" lon="12.1119092"><ele>328.6666666666667</ele><time>2026-04-04T15:47:34.146Z</time></trkpt><trkpt lat="45.8090081" lon="12.1118771"><ele>327.3333333333333</ele><time>2026-04-04T15:47:36.142Z</time></trkpt><trkpt lat="45.8089367" lon="12.1118817"><ele>326.0</ele><time>2026-04-04T15:47:45.189Z</time></trkpt><trkpt lat="45.8089431" lon="12.1119994"><ele>324.66666666666663</ele><time>2026-04-04T15:47:47.172Z</time></trkpt><trkpt lat="45.8089691" lon="12.1120977"><ele>323.3333333333333</ele><time>2026-04-04T15:47:48.153Z</time></trkpt><trkpt lat="45.809044" lon="12.112217"><ele>322.0</ele><time>2026-04-04T15:47:49.155Z</time></trkpt><trkpt lat="45.8091314" lon="12.1123324"><ele>321.5</ele><time>2026-04-04T15:47:50.141Z</time></trkpt><trkpt lat="45.809231" lon="12.1124449"><ele>321.0</ele><time>2026-04-04T15:47:51.137Z</time></trkpt><trkpt lat="45.8093452" lon="12.1125473"><ele>320.5</ele><time>2026-04-04T15:47:52.152Z</time></trkpt><trkpt lat="45.8094672" lon="12.1126441"><ele>320.0</ele><time>2026-04-04T15:47:53.147Z</time></trkpt><trkpt lat="45.8095942" lon="12.1127402"><ele>321.0</ele><time>2026-04-04T15:47:54.156Z</time></trkpt><trkpt lat="45.8097199" lon="12.1128311"><ele>322.0</ele><time>2026-04-04T15:47:55.145Z</time></trkpt><trkpt lat="45.8098322" lon="12.1129226"><ele>323.0</ele><time>2026-04-04T15:47:56.144Z</time></trkpt><trkpt lat="45.8099309" lon="12.1130211"><ele>324.0</ele><time>2026-04-04T15:47:57.139Z</time></trkpt><trkpt lat="45.8100296" lon="12.1131204"><ele>323.25</ele><time>2026-04-04T15:47:58.149Z</time></trkpt><trkpt lat="45.8101025" lon="12.113255"><ele>322.5</ele><time>2026-04-04T15:47:59.146Z</time></trkpt><trkpt lat="45.8101674" lon="12.113398"><ele>321.75</ele><time>2026-04-04T15:48:00.15Z</time></trkpt><trkpt lat="45.8102342" lon="12.1135351"><ele>321.0</ele><time>2026-04-04T15:48:01.142Z</time></trkpt><trkpt lat="45.8103158" lon="12.1136521"><ele>320.40000000000003</ele><time>2026-04-04T15:48:02.156Z</time></trkpt><trkpt lat="45.8104165" lon="12.113743"><ele>319.8</ele><time>2026-04-04T15:48:03.147Z</time></trkpt><trkpt lat="45.8105227" lon="12.113803"><ele>319.20000000000005</ele><time>2026-04-04T15:48:04.149Z</time></trkpt><trkpt lat="45.8106248" lon="12.1138467"><ele>318.6</ele><time>2026-04-04T15:48:05.15Z</time></trkpt><trkpt lat="45.8107264" lon="12.11389"><ele>318.0</ele><time>2026-04-04T15:48:06.147Z</time></trkpt><trkpt lat="45.8108218" lon="12.1139298"><ele>318.0</ele><time>2026-04-04T15:48:07.147Z</time></trkpt><trkpt lat="45.8109116" lon="12.1139678"><ele>318.0</ele><time>2026-04-04T15:48:08.143Z</time></trkpt><trkpt lat="45.8109955" lon="12.1140202"><ele>318.0</ele><time>2026-04-04T15:48:09.146Z</time></trkpt><trkpt lat="45.8110709" lon="12.1141188"><ele>318.0</ele><time>2026-04-04T15:48:10.145Z</time></trkpt><trkpt lat="45.8111271" lon="12.1142352"><ele>318.0</ele><time>2026-04-04T15:48:11.147Z</time></trkpt><trkpt lat="45.8111797" lon="12.1143754"><ele>317.5</ele><time>2026-04-04T15:48:12.144Z</time></trkpt><trkpt lat="45.8112297" lon="12.1145201"><ele>317.0</ele><time>2026-04-04T15:48:13.145Z</time></trkpt><trkpt lat="45.8112989" lon="12.1146496"><ele>316.5</ele><time>2026-04-04T15:48:14.14Z</time></trkpt><trkpt lat="45.8113852" lon="12.1147562"><ele>316.0</ele><time>2026-04-04T15:48:15.145Z</time></trkpt><trkpt lat="45.8114788" lon="12.114845"><ele>318.20000000000005</ele><time>2026-04-04T15:48:16.139Z</time></trkpt><trkpt lat="45.8115677" lon="12.1149288"><ele>320.40000000000003</ele><time>2026-04-04T15:48:17.146Z</time></trkpt><trkpt lat="45.8116511" lon="12.1150186"><ele>322.6</ele><time>2026-04-04T15:48:18.149Z</time></trkpt><trkpt lat="45.8117307" lon="12.1151014"><ele>324.8</ele><time>2026-04-04T15:48:19.146Z</time></trkpt><trkpt lat="45.8118097" lon="12.1151703"><ele>327.0</ele><time>2026-04-04T15:48:20.138Z</time></trkpt><trkpt lat="45.8118915" lon="12.1152147"><ele>327.6666666666667</ele><time>2026-04-04T15:48:21.142Z</time></trkpt><trkpt lat="45.8119735" lon="12.1152279"><ele>328.3333333333333</ele><time>2026-04-04T15:48:22.15Z</time></trkpt><trkpt lat="45.8120549" lon="12.1152107"><ele>329.0</ele><time>2026-04-04T15:48:23.148Z</time></trkpt><trkpt lat="45.8121368" lon="12.1151703"><ele>329.66666666666663</ele><time>2026-04-04T15:48:24.141Z</time></trkpt><trkpt lat="45.8122236" lon="12.1151237"><ele>330.3333333333333</ele><time>2026-04-04T15:48:25.148Z</time></trkpt><trkpt lat="45.8123152" lon="12.1150891"><ele>331.0</ele><time>2026-04-04T15:48:26.171Z</time></trkpt><trkpt lat="45.8124123" lon="12.1150812"><ele>331.0</ele><time>2026-04-04T15:48:27.139Z</time></trkpt><trkpt lat="45.8125091" lon="12.115112"><ele>331.0</ele><time>2026-04-04T15:48:28.144Z</time></trkpt><trkpt lat="45.8125941" lon="12.1151774"><ele>331.0</ele><time>2026-04-04T15:48:29.147Z</time></trkpt><trkpt lat="45.8126796" lon="12.1152494"><ele>331.0</ele><time>2026-04-04T15:48:30.141Z</time></trkpt><trkpt lat="45.8127417" lon="12.1153687"><ele>331.0</ele><time>2026-04-04T15:48:31.136Z</time></trkpt><trkpt lat="45.8127972" lon="12.1155074"><ele>330.5</ele><time>2026-04-04T15:48:32.138Z</time></trkpt><trkpt lat="45.8128501" lon="12.1156528"><ele>330.0</ele><time>2026-04-04T15:48:33.148Z</time></trkpt><trkpt lat="45.8129011" lon="12.1158095"><ele>329.5</ele><time>2026-04-04T15:48:34.148Z</time></trkpt><trkpt lat="45.812949" lon="12.1159762"><ele>329.0</ele><time>2026-04-04T15:48:35.158Z</time></trkpt><trkpt lat="45.8129901" lon="12.1161503"><ele>330.25</ele><time>2026-04-04T15:48:36.146Z</time></trkpt><trkpt lat="45.8130261" lon="12.1163323"><ele>331.5</ele><time>2026-04-04T15:48:37.143Z</time></trkpt><trkpt lat="45.8130576" lon="12.1165148"><ele>332.75</ele><time>2026-04-04T15:48:38.14Z</time></trkpt><trkpt lat="45.8130824" lon="12.1167044"><ele>334.0</ele><time>2026-04-04T15:48:39.148Z</time></trkpt><trkpt lat="45.8130838" lon="12.1168933"><ele>334.25</ele><time>2026-04-04T15:48:40.145Z</time></trkpt><trkpt lat="45.8130593" lon="12.1170763"><ele>334.5</ele><time>2026-04-04T15:48:41.15Z</time></trkpt><trkpt lat="45.8130119" lon="12.1172529"><ele>334.75</ele><time>2026-04-04T15:48:42.146Z</time></trkpt><trkpt lat="45.8129388" lon="12.1174343"><ele>335.0</ele><time>2026-04-04T15:48:43.144Z</time></trkpt><trkpt lat="45.812851" lon="12.1176207"><ele>334.25</ele><time>2026-04-04T15:48:44.142Z</time></trkpt><trkpt lat="45.8127601" lon="12.1177977"><ele>333.5</ele><time>2026-04-04T15:48:45.141Z</time></trkpt><trkpt lat="45.8126685" lon="12.1179526"><ele>332.75</ele><time>2026-04-04T15:48:46.143Z</time></trkpt><trkpt lat="45.8125737" lon="12.118084"><ele>332.0</ele><time>2026-04-04T15:48:47.144Z</time></trkpt><trkpt lat="45.8124768" lon="12.1181964"><ele>332.20000000000005</ele><time>2026-04-04T15:48:48.147Z</time></trkpt><trkpt lat="45.8123885" lon="12.1182991"><ele>332.4</ele><time>2026-04-04T15:48:49.144Z</time></trkpt><trkpt lat="45.8123101" lon="12.1184073"><ele>332.6</ele><time>2026-04-04T15:48:50.143Z</time></trkpt><trkpt lat="45.8122468" lon="12.1185326"><ele>332.79999999999995</ele><time>2026-04-04T15:48:51.149Z</time></trkpt><trkpt lat="45.8122011" lon="12.118678"><ele>333.0</ele><time>2026-04-04T15:48:52.148Z</time></trkpt><trkpt lat="45.8121738" lon="12.1188431"><ele>333.0</ele><time>2026-04-04T15:48:53.143Z</time></trkpt><trkpt lat="45.8121719" lon="12.1190292"><ele>333.0</ele><time>2026-04-04T15:48:54.144Z</time></trkpt><trkpt lat="45.8121803" lon="12.1192364"><ele>333.0</ele><time>2026-04-04T15:48:55.15Z</time></trkpt><trkpt lat="45.8121882" lon="12.1194495"><ele>333.0</ele><time>2026-04-04T15:48:56.144Z</time></trkpt><trkpt lat="45.8121937" lon="12.1196512"><ele>333.0</ele><time>2026-04-04T15:48:57.145Z</time></trkpt><trkpt lat="45.8122001" lon="12.1198498"><ele>333.0</ele><time>2026-04-04T15:48:58.141Z</time></trkpt><trkpt lat="45.8122083" lon="12.1200492"><ele>333.0</ele><time>2026-04-04T15:48:59.15Z</time></trkpt><trkpt lat="45.8122175" lon="12.1202509"><ele>333.0</ele><time>2026-04-04T15:49:00.143Z</time></trkpt><trkpt lat="45.8122261" lon="12.1204533"><ele>332.75</ele><time>2026-04-04T15:49:01.139Z</time></trkpt><trkpt lat="45.812234" lon="12.1206496"><ele>332.5</ele><time>2026-04-04T15:49:02.144Z</time></trkpt><trkpt lat="45.8122462" lon="12.1208476"><ele>332.25</ele><time>2026-04-04T15:49:03.148Z</time></trkpt><trkpt lat="45.8122653" lon="12.1210416"><ele>332.0</ele><time>2026-04-04T15:49:04.143Z</time></trkpt><trkpt lat="45.8123054" lon="12.1212331"><ele>331.0</ele><time>2026-04-04T15:49:05.145Z</time></trkpt><trkpt lat="45.8123468" lon="12.1214288"><ele>330.0</ele><time>2026-04-04T15:49:06.146Z</time></trkpt><trkpt lat="45.8124178" lon="12.1216005"><ele>329.0</ele><time>2026-04-04T15:49:07.156Z</time></trkpt><trkpt lat="45.8124912" lon="12.1217767"><ele>328.0</ele><time>2026-04-04T15:49:08.148Z</time></trkpt><trkpt lat="45.8125912" lon="12.1219423"><ele>325.0</ele><time>2026-04-04T15:49:09.153Z</time></trkpt><trkpt lat="45.8127148" lon="12.1221048"><ele>322.0</ele><time>2026-04-04T15:49:10.148Z</time></trkpt><trkpt lat="45.8128622" lon="12.1222657"><ele>319.0</ele><time>2026-04-04T15:49:11.15Z</time></trkpt><trkpt lat="45.8130218" lon="12.1224048"><ele>319.0</ele><time>2026-04-04T15:49:12.145Z</time></trkpt><trkpt lat="45.8131813" lon="12.1225246"><ele>319.0</ele><time>2026-04-04T15:49:13.154Z</time></trkpt><trkpt lat="45.8133237" lon="12.1226416"><ele>319.0</ele><time>2026-04-04T15:49:14.142Z</time></trkpt><trkpt lat="45.8134567" lon="12.1227551"><ele>318.25</ele><time>2026-04-04T15:49:15.142Z</time></trkpt><trkpt lat="45.8135892" lon="12.122854"><ele>317.5</ele><time>2026-04-04T15:49:16.142Z</time></trkpt><trkpt lat="45.8137112" lon="12.1229305"><ele>316.75</ele><time>2026-04-04T15:49:17.149Z</time></trkpt><trkpt lat="45.8138302" lon="12.1229926"><ele>316.0</ele><time>2026-04-04T15:49:18.148Z</time></trkpt><trkpt lat="45.8139298" lon="12.1230631"><ele>316.0</ele><time>2026-04-04T15:49:19.154Z</time></trkpt><trkpt lat="45.8139973" lon="12.123173"><ele>316.0</ele><time>2026-04-04T15:49:20.155Z</time></trkpt><trkpt lat="45.8140566" lon="12.1232998"><ele>316.0</ele><time>2026-04-04T15:49:21.146Z</time></trkpt><trkpt lat="45.8140623" lon="12.1234765"><ele>316.0</ele><time>2026-04-04T15:49:22.155Z</time></trkpt><trkpt lat="45.8140265" lon="12.1236435"><ele>314.66666666666663</ele><time>2026-04-04T15:49:23.151Z</time></trkpt><trkpt lat="45.8139762" lon="12.1238157"><ele>313.3333333333333</ele><time>2026-04-04T15:49:24.156Z</time></trkpt><trkpt lat="45.8138803" lon="12.1240019"><ele>312.0</ele><time>2026-04-04T15:49:25.144Z</time></trkpt><trkpt lat="45.8137533" lon="12.1242249"><ele>312.0</ele><time>2026-04-04T15:49:26.156Z</time></trkpt><trkpt lat="45.8136182" lon="12.1244311"><ele>312.0</ele><time>2026-04-04T15:49:27.146Z</time></trkpt><trkpt lat="45.8134863" lon="12.12462"><ele>312.0</ele><time>2026-04-04T15:49:28.148Z</time></trkpt><trkpt lat="45.8133545" lon="12.1248024"><ele>310.6666666666667</ele><time>2026-04-04T15:49:29.148Z</time></trkpt><trkpt lat="45.8132211" lon="12.1249942"><ele>309.33333333333337</ele><time>2026-04-04T15:49:30.16Z</time></trkpt><trkpt lat="45.8131134" lon="12.1252131"><ele>308.0</ele><time>2026-04-04T15:49:31.157Z</time></trkpt><trkpt lat="45.813008" lon="12.1254365"><ele>308.0</ele><time>2026-04-04T15:49:32.147Z</time></trkpt><trkpt lat="45.8129502" lon="12.1256894"><ele>308.0</ele><time>2026-04-04T15:49:33.184Z</time></trkpt><trkpt lat="45.812919" lon="12.1259173"><ele>308.0</ele><time>2026-04-04T15:49:34.158Z</time></trkpt><trkpt lat="45.8129635" lon="12.1261737"><ele>308.0</ele><time>2026-04-04T15:49:35.161Z</time></trkpt><trkpt lat="45.8130512" lon="12.1263744"><ele>308.0</ele><time>2026-04-04T15:49:36.149Z</time></trkpt><trkpt lat="45.8131326" lon="12.1265358"><ele>308.0</ele><time>2026-04-04T15:49:37.159Z</time></trkpt><trkpt lat="45.813204" lon="12.1266779"><ele>308.0</ele><time>2026-04-04T15:49:38.151Z</time></trkpt><trkpt lat="45.8132551" lon="12.1267902"><ele>306.83333333333337</ele><time>2026-04-04T15:49:39.156Z</time></trkpt><trkpt lat="45.8132948" lon="12.1268668"><ele>305.6666666666667</ele><time>2026-04-04T15:49:40.153Z</time></trkpt><trkpt lat="45.8133329" lon="12.126956"><ele>304.5</ele><time>2026-04-04T15:49:42.14Z</time></trkpt><trkpt lat="45.8132542" lon="12.1268849"><ele>303.3333333333333</ele><time>2026-04-04T15:49:55.166Z</time></trkpt><trkpt lat="45.8132144" lon="12.1268035"><ele>302.16666666666663</ele><time>2026-04-04T15:49:56.171Z</time></trkpt><trkpt lat="45.8131646" lon="12.1267209"><ele>301.0</ele><time>2026-04-04T15:49:57.191Z</time></trkpt><trkpt lat="45.8131079" lon="12.1266512"><ele>301.0</ele><time>2026-04-04T15:49:58.151Z</time></trkpt><trkpt lat="45.8130601" lon="12.1265885"><ele>301.0</ele><time>2026-04-04T15:49:59.163Z</time></trkpt><trkpt lat="45.8129944" lon="12.1265543"><ele>301.0</ele><time>2026-04-04T15:50:00.152Z</time></trkpt><trkpt lat="45.8129304" lon="12.1265268"><ele>301.0</ele><time>2026-04-04T15:50:01.16Z</time></trkpt><trkpt lat="45.8128668" lon="12.1265331"><ele>301.0</ele><time>2026-04-04T15:50:02.152Z</time></trkpt><trkpt lat="45.8128006" lon="12.1265516"><ele>301.0</ele><time>2026-04-04T15:50:03.158Z</time></trkpt><trkpt lat="45.8126972" lon="12.1265634"><ele>301.0</ele><time>2026-04-04T15:50:05.147Z</time></trkpt><trkpt lat="45.8125955" lon="12.126496"><ele>301.2</ele><time>2026-04-04T15:50:07.151Z</time></trkpt><trkpt lat="45.8125213" lon="12.1263554"><ele>301.40000000000003</ele><time>2026-04-04T15:50:09.151Z</time></trkpt><trkpt lat="45.8125146" lon="12.1262425"><ele>301.6</ele><time>2026-04-04T15:50:10.151Z</time></trkpt><trkpt lat="45.8125013" lon="12.1261203"><ele>301.8</ele><time>2026-04-04T15:50:11.153Z</time></trkpt><trkpt lat="45.8124842" lon="12.1259987"><ele>302.0</ele><time>2026-04-04T15:50:12.151Z</time></trkpt><trkpt lat="45.8124874" lon="12.1258703"><ele>302.0</ele><time>2026-04-04T15:50:13.158Z</time></trkpt><trkpt lat="45.8124341" lon="12.1257685"><ele>302.0</ele><time>2026-04-04T15:50:14.153Z</time></trkpt><trkpt lat="45.8123689" lon="12.1257031"><ele>302.0</ele><time>2026-04-04T15:50:15.162Z</time></trkpt><trkpt lat="45.8122923" lon="12.1256612"><ele>302.0</ele><time>2026-04-04T15:50:16.154Z</time></trkpt><trkpt lat="45.8121997" lon="12.1256469"><ele>302.0</ele><time>2026-04-04T15:50:17.152Z</time></trkpt><trkpt lat="45.8121001" lon="12.1256354"><ele>302.0</ele><time>2026-04-04T15:50:18.158Z</time></trkpt><trkpt lat="45.8120025" lon="12.1256603"><ele>302.0</ele><time>2026-04-04T15:50:19.157Z</time></trkpt><trkpt lat="45.8119195" lon="12.1257294"><ele>302.0</ele><time>2026-04-04T15:50:20.156Z</time></trkpt><trkpt lat="45.811853" lon="12.1258342"><ele>302.0</ele><time>2026-04-04T15:50:21.156Z</time></trkpt><trkpt lat="45.8117907" lon="12.1259752"><ele>302.0</ele><time>2026-04-04T15:50:22.16Z</time></trkpt><trkpt lat="45.8117353" lon="12.1261147"><ele>302.0</ele><time>2026-04-04T15:50:23.149Z</time></trkpt><trkpt lat="45.8116796" lon="12.1262144"><ele>303.33333333333337</ele><time>2026-04-04T15:50:24.156Z</time></trkpt><trkpt lat="45.8116154" lon="12.1262984"><ele>304.6666666666667</ele><time>2026-04-04T15:50:25.148Z</time></trkpt><trkpt lat="45.8115476" lon="12.1263385"><ele>306.0</ele><time>2026-04-04T15:50:26.153Z</time></trkpt><trkpt lat="45.8114344" lon="12.1263194"><ele>307.3333333333333</ele><time>2026-04-04T15:50:28.145Z</time></trkpt><trkpt lat="45.8113882" lon="12.1262392"><ele>308.66666666666663</ele><time>2026-04-04T15:50:29.161Z</time></trkpt><trkpt lat="45.8113469" lon="12.1261571"><ele>310.0</ele><time>2026-04-04T15:50:30.149Z</time></trkpt><trkpt lat="45.8113126" lon="12.1260199"><ele>310.0</ele><time>2026-04-04T15:50:31.156Z</time></trkpt><trkpt lat="45.8112676" lon="12.1259082"><ele>310.0</ele><time>2026-04-04T15:50:32.143Z</time></trkpt><trkpt lat="45.8112276" lon="12.1258205"><ele>310.0</ele><time>2026-04-04T15:50:33.145Z</time></trkpt><trkpt lat="45.8111704" lon="12.1257376"><ele>310.0</ele><time>2026-04-04T15:50:34.161Z</time></trkpt><trkpt lat="45.8110993" lon="12.1256828"><ele>310.0</ele><time>2026-04-04T15:50:35.153Z</time></trkpt><trkpt lat="45.8110161" lon="12.1256297"><ele>310.0</ele><time>2026-04-04T15:50:36.148Z</time></trkpt><trkpt lat="45.8109232" lon="12.1255432"><ele>309.75</ele><time>2026-04-04T15:50:37.152Z</time></trkpt><trkpt lat="45.8108145" lon="12.1254612"><ele>309.5</ele><time>2026-04-04T15:50:38.152Z</time></trkpt><trkpt lat="45.8107162" lon="12.1253662"><ele>309.25</ele><time>2026-04-04T15:50:39.156Z</time></trkpt><trkpt lat="45.8106231" lon="12.125247"><ele>309.0</ele><time>2026-04-04T15:50:40.153Z</time></trkpt><trkpt lat="45.8105083" lon="12.1251026"><ele>309.0</ele><time>2026-04-04T15:50:41.152Z</time></trkpt><trkpt lat="45.8103857" lon="12.1249923"><ele>309.0</ele><time>2026-04-04T15:50:42.146Z</time></trkpt><trkpt lat="45.8102798" lon="12.1249101"><ele>309.0</ele><time>2026-04-04T15:50:43.145Z</time></trkpt><trkpt lat="45.810168" lon="12.124823"><ele>309.0</ele><time>2026-04-04T15:50:44.156Z</time></trkpt><trkpt lat="45.810057" lon="12.1247582"><ele>311.25</ele><time>2026-04-04T15:50:45.15Z</time></trkpt><trkpt lat="45.8099486" lon="12.1246691"><ele>313.5</ele><time>2026-04-04T15:50:46.146Z</time></trkpt><trkpt lat="45.8098514" lon="12.1245756"><ele>315.75</ele><time>2026-04-04T15:50:47.148Z</time></trkpt><trkpt lat="45.8097715" lon="12.1244744"><ele>318.0</ele><time>2026-04-04T15:50:48.15Z</time></trkpt><trkpt lat="45.8096902" lon="12.1243731"><ele>318.0</ele><time>2026-04-04T15:50:49.154Z</time></trkpt><trkpt lat="45.8095922" lon="12.1243383"><ele>318.0</ele><time>2026-04-04T15:50:50.154Z</time></trkpt><trkpt lat="45.8094725" lon="12.124369"><ele>318.0</ele><time>2026-04-04T15:50:51.16Z</time></trkpt><trkpt lat="45.8093433" lon="12.1244156"><ele>318.0</ele><time>2026-04-04T15:50:52.16Z</time></trkpt><trkpt lat="45.8092313" lon="12.1244896"><ele>318.25</ele><time>2026-04-04T15:50:53.148Z</time></trkpt><trkpt lat="45.8091147" lon="12.1245495"><ele>318.5</ele><time>2026-04-04T15:50:54.149Z</time></trkpt><trkpt lat="45.8090043" lon="12.1246076"><ele>318.75</ele><time>2026-04-04T15:50:55.153Z</time></trkpt><trkpt lat="45.8088814" lon="12.1246483"><ele>319.0</ele><time>2026-04-04T15:50:56.156Z</time></trkpt><trkpt lat="45.8087516" lon="12.1247123"><ele>319.0</ele><time>2026-04-04T15:50:57.152Z</time></trkpt><trkpt lat="45.8086274" lon="12.1247892"><ele>319.0</ele><time>2026-04-04T15:50:58.148Z</time></trkpt><trkpt lat="45.8085245" lon="12.1248399"><ele>319.0</ele><time>2026-04-04T15:50:59.15Z</time></trkpt><trkpt lat="45.8084182" lon="12.1248714"><ele>319.0</ele><time>2026-04-04T15:51:00.146Z</time></trkpt><trkpt lat="45.8082617" lon="12.1248806"><ele>316.66666666666663</ele><time>2026-04-04T15:51:01.153Z</time></trkpt><trkpt lat="45.808104" lon="12.1249284"><ele>314.3333333333333</ele><time>2026-04-04T15:51:02.152Z</time></trkpt><trkpt lat="45.8079416" lon="12.1249614"><ele>312.0</ele><time>2026-04-04T15:51:03.16Z</time></trkpt><trkpt lat="45.8077814" lon="12.1250346"><ele>311.3333333333333</ele><time>2026-04-04T15:51:04.148Z</time></trkpt><trkpt lat="45.8076165" lon="12.125082"><ele>310.66666666666663</ele><time>2026-04-04T15:51:05.159Z</time></trkpt><trkpt lat="45.8074691" lon="12.125101"><ele>310.0</ele><time>2026-04-04T15:51:06.156Z</time></trkpt><trkpt lat="45.8073201" lon="12.1251244"><ele>310.0</ele><time>2026-04-04T15:51:07.153Z</time></trkpt><trkpt lat="45.8071524" lon="12.1251095"><ele>310.0</ele><time>2026-04-04T15:51:08.159Z</time></trkpt><trkpt lat="45.806985" lon="12.1250957"><ele>310.0</ele><time>2026-04-04T15:51:09.15Z</time></trkpt><trkpt lat="45.8068152" lon="12.1250808"><ele>311.0</ele><time>2026-04-04T15:51:10.175Z</time></trkpt><trkpt lat="45.8066457" lon="12.1250582"><ele>312.0</ele><time>2026-04-04T15:51:11.176Z</time></trkpt><trkpt lat="45.8064743" lon="12.1250498"><ele>313.0</ele><time>2026-04-04T15:51:12.158Z</time></trkpt><trkpt lat="45.8063402" lon="12.1250487"><ele>313.0</ele><time>2026-04-04T15:51:13.146Z</time></trkpt><trkpt lat="45.8062086" lon="12.1250514"><ele>313.0</ele><time>2026-04-04T15:51:14.144Z</time></trkpt><trkpt lat="45.8060643" lon="12.1250593"><ele>313.0</ele><time>2026-04-04T15:51:15.15Z</time></trkpt><trkpt lat="45.8059264" lon="12.1250816"><ele>313.0</ele><time>2026-04-04T15:51:16.149Z</time></trkpt><trkpt lat="45.8057823" lon="12.1251222"><ele>312.6</ele><time>2026-04-04T15:51:17.158Z</time></trkpt><trkpt lat="45.8056554" lon="12.1251719"><ele>312.20000000000005</ele><time>2026-04-04T15:51:18.16Z</time></trkpt><trkpt lat="45.8055498" lon="12.1252117"><ele>311.8</ele><time>2026-04-04T15:51:19.149Z</time></trkpt><trkpt lat="45.8054596" lon="12.1252653"><ele>311.40000000000003</ele><time>2026-04-04T15:51:20.153Z</time></trkpt><trkpt lat="45.8053803" lon="12.125289"><ele>311.0</ele><time>2026-04-04T15:51:21.157Z</time></trkpt><trkpt lat="45.8053058" lon="12.1252976"><ele>311.0</ele><time>2026-04-04T15:51:22.156Z</time></trkpt><trkpt lat="45.8052212" lon="12.1252935"><ele>311.0</ele><time>2026-04-04T15:51:23.155Z</time></trkpt><trkpt lat="45.8051473" lon="12.1252353"><ele>311.0</ele><time>2026-04-04T15:51:24.166Z</time></trkpt><trkpt lat="45.8050635" lon="12.1251447"><ele>311.0</ele><time>2026-04-04T15:51:25.159Z</time></trkpt><trkpt lat="45.8049626" lon="12.1250212"><ele>311.0</ele><time>2026-04-04T15:51:26.16Z</time></trkpt><trkpt lat="45.8048588" lon="12.1249168"><ele>309.0</ele><time>2026-04-04T15:51:27.15Z</time></trkpt><trkpt lat="45.8047458" lon="12.1248172"><ele>307.0</ele><time>2026-04-04T15:51:28.148Z</time></trkpt><trkpt lat="45.8046264" lon="12.1247219"><ele>305.0</ele><time>2026-04-04T15:51:29.159Z</time></trkpt><trkpt lat="45.8045113" lon="12.1246605"><ele>303.0</ele><time>2026-04-04T15:51:30.143Z</time></trkpt><trkpt lat="45.8043658" lon="12.1246237"><ele>302.8</ele><time>2026-04-04T15:51:31.154Z</time></trkpt><trkpt lat="45.8042336" lon="12.1245999"><ele>302.6</ele><time>2026-04-04T15:51:32.149Z</time></trkpt><trkpt lat="45.8041288" lon="12.1245673"><ele>302.4</ele><time>2026-04-04T15:51:33.154Z</time></trkpt><trkpt lat="45.804043" lon="12.1245472"><ele>302.2</ele><time>2026-04-04T15:51:34.152Z</time></trkpt><trkpt lat="45.8039769" lon="12.1245013"><ele>302.0</ele><time>2026-04-04T15:51:35.154Z</time></trkpt><trkpt lat="45.8039159" lon="12.124453"><ele>302.0</ele><time>2026-04-04T15:51:36.145Z</time></trkpt><trkpt lat="45.8038804" lon="12.1243644"><ele>302.0</ele><time>2026-04-04T15:51:37.161Z</time></trkpt><trkpt lat="45.8038539" lon="12.124242"><ele>302.0</ele><time>2026-04-04T15:51:38.154Z</time></trkpt><trkpt lat="45.8038219" lon="12.1241063"><ele>302.0</ele><time>2026-04-04T15:51:39.165Z</time></trkpt><trkpt lat="45.803798" lon="12.1239661"><ele>302.0</ele><time>2026-04-04T15:51:40.153Z</time></trkpt><trkpt lat="45.8037929" lon="12.1238308"><ele>302.6</ele><time>2026-04-04T15:51:41.158Z</time></trkpt><trkpt lat="45.8037832" lon="12.1237137"><ele>303.2</ele><time>2026-04-04T15:51:42.162Z</time></trkpt><trkpt lat="45.8037567" lon="12.1236124"><ele>303.8</ele><time>2026-04-04T15:51:43.155Z</time></trkpt><trkpt lat="45.8037201" lon="12.1235258"><ele>304.4</ele><time>2026-04-04T15:51:44.153Z</time></trkpt><trkpt lat="45.8035924" lon="12.1235007"><ele>305.0</ele><time>2026-04-04T15:51:46.151Z</time></trkpt><trkpt lat="45.8034991" lon="12.123545"><ele>304.0</ele><time>2026-04-04T15:51:47.154Z</time></trkpt><trkpt lat="45.8034213" lon="12.1236282"><ele>303.0</ele><time>2026-04-04T15:51:48.157Z</time></trkpt><trkpt lat="45.8033481" lon="12.1237522"><ele>302.0</ele><time>2026-04-04T15:51:49.153Z</time></trkpt><trkpt lat="45.8032784" lon="12.1238952"><ele>301.0</ele><time>2026-04-04T15:51:50.147Z</time></trkpt><trkpt lat="45.8032065" lon="12.1240388"><ele>299.8</ele><time>2026-04-04T15:51:51.152Z</time></trkpt><trkpt lat="45.8031379" lon="12.1241463"><ele>298.6</ele><time>2026-04-04T15:51:52.15Z</time></trkpt><trkpt lat="45.8030647" lon="12.1242314"><ele>297.4</ele><time>2026-04-04T15:51:53.145Z</time></trkpt><trkpt lat="45.8029594" lon="12.1242901"><ele>296.2</ele><time>2026-04-04T15:51:54.145Z</time></trkpt><trkpt lat="45.8028752" lon="12.1243268"><ele>295.0</ele><time>2026-04-04T15:51:55.151Z</time></trkpt><trkpt lat="45.8027707" lon="12.1243637"><ele>295.25</ele><time>2026-04-04T15:51:56.16Z</time></trkpt><trkpt lat="45.8026487" lon="12.1243436"><ele>295.5</ele><time>2026-04-04T15:51:57.149Z</time></trkpt><trkpt lat="45.8024978" lon="12.1243073"><ele>295.75</ele><time>2026-04-04T15:51:58.154Z</time></trkpt><trkpt lat="45.8023433" lon="12.1242767"><ele>296.0</ele><time>2026-04-04T15:51:59.16Z</time></trkpt><trkpt lat="45.8022124" lon="12.1242801"><ele>296.0</ele><time>2026-04-04T15:52:00.153Z</time></trkpt><trkpt lat="45.8020749" lon="12.1242782"><ele>296.0</ele><time>2026-04-04T15:52:01.152Z</time></trkpt><trkpt lat="45.8019238" lon="12.1242703"><ele>296.0</ele><time>2026-04-04T15:52:02.154Z</time></trkpt><trkpt lat="45.8017636" lon="12.1242882"><ele>296.0</ele><time>2026-04-04T15:52:03.147Z</time></trkpt><trkpt lat="45.801594" lon="12.1242987"><ele>295.6666666666667</ele><time>2026-04-04T15:52:04.161Z</time></trkpt><trkpt lat="45.801417" lon="12.1243114"><ele>295.3333333333333</ele><time>2026-04-04T15:52:05.156Z</time></trkpt><trkpt lat="45.8012391" lon="12.124328"><ele>295.0</ele><time>2026-04-04T15:52:06.161Z</time></trkpt><trkpt lat="45.8010843" lon="12.124317"><ele>294.66666666666663</ele><time>2026-04-04T15:52:07.152Z</time></trkpt><trkpt lat="45.8009252" lon="12.1242992"><ele>294.3333333333333</ele><time>2026-04-04T15:52:08.158Z</time></trkpt><trkpt lat="45.8007636" lon="12.1242999"><ele>294.0</ele><time>2026-04-04T15:52:09.151Z</time></trkpt><trkpt lat="45.8006173" lon="12.1243056"><ele>294.0</ele><time>2026-04-04T15:52:10.15Z</time></trkpt><trkpt lat="45.8005046" lon="12.124303"><ele>294.0</ele><time>2026-04-04T15:52:11.158Z</time></trkpt><trkpt lat="45.8004021" lon="12.1242986"><ele>294.0</ele><time>2026-04-04T15:52:12.16Z</time></trkpt><trkpt lat="45.8002863" lon="12.1242854"><ele>294.0</ele><time>2026-04-04T15:52:13.167Z</time></trkpt><trkpt lat="45.8001811" lon="12.1242579"><ele>294.0</ele><time>2026-04-04T15:52:14.158Z</time></trkpt><trkpt lat="45.8000921" lon="12.1241891"><ele>293.2</ele><time>2026-04-04T15:52:15.154Z</time></trkpt><trkpt lat="45.800021" lon="12.1241186"><ele>292.4</ele><time>2026-04-04T15:52:16.154Z</time></trkpt><trkpt lat="45.7999596" lon="12.1240554"><ele>291.6</ele><time>2026-04-04T15:52:17.158Z</time></trkpt><trkpt lat="45.7998678" lon="12.1239695"><ele>290.8</ele><time>2026-04-04T15:52:19.162Z</time></trkpt><trkpt lat="45.799807" lon="12.1239405"><ele>290.0</ele><time>2026-04-04T15:52:20.155Z</time></trkpt><trkpt lat="45.7996992" lon="12.1238702"><ele>289.6</ele><time>2026-04-04T15:52:22.156Z</time></trkpt><trkpt lat="45.7996407" lon="12.1238123"><ele>289.2</ele><time>2026-04-04T15:52:23.165Z</time></trkpt><trkpt lat="45.7995511" lon="12.1237372"><ele>288.8</ele><time>2026-04-04T15:52:25.158Z</time></trkpt><trkpt lat="45.7994533" lon="12.1237124"><ele>288.4</ele><time>2026-04-04T15:52:27.163Z</time></trkpt><trkpt lat="45.7993706" lon="12.1237889"><ele>288.0</ele><time>2026-04-04T15:52:29.159Z</time></trkpt><trkpt lat="45.7993122" lon="12.1238683"><ele>286.8</ele><time>2026-04-04T15:52:30.145Z</time></trkpt><trkpt lat="45.7992546" lon="12.1239522"><ele>285.6</ele><time>2026-04-04T15:52:31.154Z</time></trkpt><trkpt lat="45.7991777" lon="12.1240247"><ele>284.4</ele><time>2026-04-04T15:52:32.145Z</time></trkpt><trkpt lat="45.7990727" lon="12.1241053"><ele>283.2</ele><time>2026-04-04T15:52:33.151Z</time></trkpt><trkpt lat="45.7989351" lon="12.1241887"><ele>282.0</ele><time>2026-04-04T15:52:34.148Z</time></trkpt><trkpt lat="45.7988091" lon="12.1242581"><ele>282.0</ele><time>2026-04-04T15:52:35.159Z</time></trkpt><trkpt lat="45.7987004" lon="12.1242968"><ele>282.0</ele><time>2026-04-04T15:52:36.153Z</time></trkpt><trkpt lat="45.7986001" lon="12.1243306"><ele>282.0</ele><time>2026-04-04T15:52:37.166Z</time></trkpt><trkpt lat="45.7985088" lon="12.1243535"><ele>282.0</ele><time>2026-04-04T15:52:38.156Z</time></trkpt><trkpt lat="45.7984538" lon="12.1244116"><ele>282.0</ele><time>2026-04-04T15:52:39.156Z</time></trkpt><trkpt lat="45.7983729" lon="12.1245129"><ele>279.4</ele><time>2026-04-04T15:52:40.156Z</time></trkpt><trkpt lat="45.7983017" lon="12.1246237"><ele>276.79999999999995</ele><time>2026-04-04T15:52:41.164Z</time></trkpt><trkpt lat="45.7982462" lon="12.124723"><ele>274.2</ele><time>2026-04-04T15:52:42.156Z</time></trkpt><trkpt lat="45.7982132" lon="12.1248425"><ele>271.59999999999997</ele><time>2026-04-04T15:52:43.16Z</time></trkpt><trkpt lat="45.7981918" lon="12.1249629"><ele>269.0</ele><time>2026-04-04T15:52:44.156Z</time></trkpt><trkpt lat="45.79817" lon="12.1250932"><ele>269.0</ele><time>2026-04-04T15:52:45.151Z</time></trkpt><trkpt lat="45.7981494" lon="12.1251905"><ele>269.0</ele><time>2026-04-04T15:52:46.158Z</time></trkpt><trkpt lat="45.7980646" lon="12.1253045"><ele>269.0</ele><time>2026-04-04T15:52:48.157Z</time></trkpt><trkpt lat="45.798003" lon="12.1254104"><ele>269.0</ele><time>2026-04-04T15:52:50.164Z</time></trkpt><trkpt lat="45.7979576" lon="12.1254943"><ele>269.0</ele><time>2026-04-04T15:52:52.163Z</time></trkpt><trkpt lat="45.7979284" lon="12.125575"><ele>269.0</ele><time>2026-04-04T15:52:54.155Z</time></trkpt><trkpt lat="45.7978928" lon="12.1256855"><ele>268.5</ele><time>2026-04-04T15:52:56.17Z</time></trkpt><trkpt lat="45.7978541" lon="12.1258067"><ele>268.0</ele><time>2026-04-04T15:52:58.155Z</time></trkpt><trkpt lat="45.7978283" lon="12.1258973"><ele>267.5</ele><time>2026-04-04T15:52:59.152Z</time></trkpt><trkpt lat="45.7977977" lon="12.1259954"><ele>267.0</ele><time>2026-04-04T15:53:00.158Z</time></trkpt><trkpt lat="45.7977488" lon="12.1260914"><ele>266.5</ele><time>2026-04-04T15:53:01.148Z</time></trkpt><trkpt lat="45.7976992" lon="12.1261854"><ele>266.0</ele><time>2026-04-04T15:53:02.154Z</time></trkpt><trkpt lat="45.7976383" lon="12.1262888"><ele>263.6666666666667</ele><time>2026-04-04T15:53:03.149Z</time></trkpt><trkpt lat="45.7975755" lon="12.1263751"><ele>261.33333333333337</ele><time>2026-04-04T15:53:04.152Z</time></trkpt><trkpt lat="45.7975171" lon="12.1264359"><ele>259.0</ele><time>2026-04-04T15:53:05.152Z</time></trkpt><trkpt lat="45.7974495" lon="12.1264997"><ele>256.6666666666667</ele><time>2026-04-04T15:53:06.161Z</time></trkpt><trkpt lat="45.7973646" lon="12.1265626"><ele>254.33333333333334</ele><time>2026-04-04T15:53:07.15Z</time></trkpt><trkpt lat="45.7972946" lon="12.1266206"><ele>252.0</ele><time>2026-04-04T15:53:08.15Z</time></trkpt><trkpt lat="45.7972276" lon="12.1267092"><ele>252.0</ele><time>2026-04-04T15:53:09.151Z</time></trkpt><trkpt lat="45.7971803" lon="12.1268371"><ele>252.0</ele><time>2026-04-04T15:53:10.145Z</time></trkpt><trkpt lat="45.7971431" lon="12.1269659"><ele>252.0</ele><time>2026-04-04T15:53:11.146Z</time></trkpt><trkpt lat="45.7971021" lon="12.1270681"><ele>252.0</ele><time>2026-04-04T15:53:12.15Z</time></trkpt><trkpt lat="45.7970472" lon="12.1271696"><ele>252.0</ele><time>2026-04-04T15:53:13.15Z</time></trkpt><trkpt lat="45.7969405" lon="12.1272486"><ele>247.25</ele><time>2026-04-04T15:53:14.15Z</time></trkpt><trkpt lat="45.7968147" lon="12.1273155"><ele>242.5</ele><time>2026-04-04T15:53:15.149Z</time></trkpt><trkpt lat="45.7967137" lon="12.1273949"><ele>237.75</ele><time>2026-04-04T15:53:16.146Z</time></trkpt><trkpt lat="45.7966276" lon="12.1274832"><ele>233.0</ele><time>2026-04-04T15:53:17.144Z</time></trkpt><trkpt lat="45.796552" lon="12.1276068"><ele>233.0</ele><time>2026-04-04T15:53:18.153Z</time></trkpt><trkpt lat="45.7964604" lon="12.1277054"><ele>233.0</ele><time>2026-04-04T15:53:19.155Z</time></trkpt><trkpt lat="45.7963696" lon="12.1278192"><ele>233.0</ele><time>2026-04-04T15:53:20.153Z</time></trkpt><trkpt lat="45.7962944" lon="12.1278972"><ele>233.0</ele><time>2026-04-04T15:53:21.154Z</time></trkpt><trkpt lat="45.7962176" lon="12.1279735"><ele>233.0</ele><time>2026-04-04T15:53:22.155Z</time></trkpt><trkpt lat="45.7961487" lon="12.128049"><ele>233.0</ele><time>2026-04-04T15:53:23.153Z</time></trkpt><trkpt lat="45.7960797" lon="12.1281238"><ele>233.0</ele><time>2026-04-04T15:53:24.145Z</time></trkpt><trkpt lat="45.7960273" lon="12.1282132"><ele>233.0</ele><time>2026-04-04T15:53:25.158Z</time></trkpt><trkpt lat="45.7959721" lon="12.1283391"><ele>233.0</ele><time>2026-04-04T15:53:26.156Z</time></trkpt><trkpt lat="45.7959075" lon="12.1284467"><ele>233.0</ele><time>2026-04-04T15:53:27.16Z</time></trkpt><trkpt lat="45.795825" lon="12.1285374"><ele>230.4</ele><time>2026-04-04T15:53:28.161Z</time></trkpt><trkpt lat="45.795771" lon="12.1286692"><ele>227.8</ele><time>2026-04-04T15:53:29.16Z</time></trkpt><trkpt lat="45.7957329" lon="12.1287927"><ele>225.2</ele><time>2026-04-04T15:53:30.177Z</time></trkpt><trkpt lat="45.7957007" lon="12.128902"><ele>222.6</ele><time>2026-04-04T15:53:31.159Z</time></trkpt><trkpt lat="45.7956859" lon="12.1289935"><ele>220.0</ele><time>2026-04-04T15:53:32.147Z</time></trkpt><trkpt lat="45.7956482" lon="12.1291644"><ele>219.99999999999997</ele><time>2026-04-04T15:53:34.149Z</time></trkpt><trkpt lat="45.7955849" lon="12.1292068"><ele>220.0</ele><time>2026-04-04T15:53:35.159Z</time></trkpt><trkpt lat="45.7954976" lon="12.1292605"><ele>220.0</ele><time>2026-04-04T15:53:36.158Z</time></trkpt><trkpt lat="45.7954098" lon="12.1292887"><ele>220.0</ele><time>2026-04-04T15:53:37.153Z</time></trkpt><trkpt lat="45.7953461" lon="12.1293316"><ele>219.99999999999997</ele><time>2026-04-04T15:53:38.155Z</time></trkpt><trkpt lat="45.7952647" lon="12.1294056"><ele>220.0</ele><time>2026-04-04T15:53:39.163Z</time></trkpt><trkpt lat="45.7951891" lon="12.129501"><ele>216.2</ele><time>2026-04-04T15:53:40.152Z</time></trkpt><trkpt lat="45.7951166" lon="12.1296036"><ele>212.4</ele><time>2026-04-04T15:53:41.153Z</time></trkpt><trkpt lat="45.7950293" lon="12.1297046"><ele>208.60000000000002</ele><time>2026-04-04T15:53:42.155Z</time></trkpt><trkpt lat="45.7949196" lon="12.1297989"><ele>204.8</ele><time>2026-04-04T15:53:43.149Z</time></trkpt><trkpt lat="45.7948274" lon="12.1298766"><ele>201.0</ele><time>2026-04-04T15:53:44.151Z</time></trkpt><trkpt lat="45.7947518" lon="12.1299691"><ele>201.0</ele><time>2026-04-04T15:53:45.153Z</time></trkpt><trkpt lat="45.7947007" lon="12.1300792"><ele>201.0</ele><time>2026-04-04T15:53:46.145Z</time></trkpt><trkpt lat="45.794671" lon="12.1302029"><ele>201.0</ele><time>2026-04-04T15:53:47.152Z</time></trkpt><trkpt lat="45.7946283" lon="12.130318"><ele>201.0</ele><time>2026-04-04T15:53:48.149Z</time></trkpt><trkpt lat="45.794609" lon="12.1304702"><ele>201.0</ele><time>2026-04-04T15:53:49.151Z</time></trkpt><trkpt lat="45.794609" lon="12.1306283"><ele>200.60000000000002</ele><time>2026-04-04T15:53:50.151Z</time></trkpt><trkpt lat="45.7946114" lon="12.1307752"><ele>200.2</ele><time>2026-04-04T15:53:51.152Z</time></trkpt><trkpt lat="45.7946228" lon="12.1308948"><ele>199.8</ele><time>2026-04-04T15:53:52.154Z</time></trkpt><trkpt lat="45.794612" lon="12.1310072"><ele>199.39999999999998</ele><time>2026-04-04T15:53:53.16Z</time></trkpt><trkpt lat="45.7946071" lon="12.1311572"><ele>199.0</ele><time>2026-04-04T15:53:55.145Z</time></trkpt><trkpt lat="45.7947007" lon="12.1311586"><ele>198.99999999999997</ele><time>2026-04-04T15:54:04.157Z</time></trkpt><trkpt lat="45.7947874" lon="12.1311067"><ele>199.0</ele><time>2026-04-04T15:54:06.182Z</time></trkpt><trkpt lat="45.7948512" lon="12.1310719"><ele>199.0</ele><time>2026-04-04T15:54:07.161Z</time></trkpt><trkpt lat="45.7949176" lon="12.1310485"><ele>199.0</ele><time>2026-04-04T15:54:08.15Z</time></trkpt><trkpt lat="45.7949945" lon="12.1310534"><ele>198.99999999999997</ele><time>2026-04-04T15:54:09.16Z</time></trkpt><trkpt lat="45.7950775" lon="12.1310927"><ele>199.0</ele><time>2026-04-04T15:54:10.154Z</time></trkpt><trkpt lat="45.7951602" lon="12.1311157"><ele>200.0</ele><time>2026-04-04T15:54:11.152Z</time></trkpt><trkpt lat="45.7952528" lon="12.1311083"><ele>201.0</ele><time>2026-04-04T15:54:12.149Z</time></trkpt><trkpt lat="45.7953288" lon="12.1310854"><ele>202.0</ele><time>2026-04-04T15:54:13.149Z</time></trkpt><trkpt lat="45.7954119" lon="12.1310464"><ele>203.0</ele><time>2026-04-04T15:54:14.152Z</time></trkpt><trkpt lat="45.7954923" lon="12.1309925"><ele>204.0</ele><time>2026-04-04T15:54:15.155Z</time></trkpt><trkpt lat="45.7955792" lon="12.1309118"><ele>204.0</ele><time>2026-04-04T15:54:16.143Z</time></trkpt><trkpt lat="45.795659" lon="12.1308089"><ele>204.0</ele><time>2026-04-04T15:54:17.152Z</time></trkpt><trkpt lat="45.795759" lon="12.1307369"><ele>204.0</ele><time>2026-04-04T15:54:18.154Z</time></trkpt><trkpt lat="45.795873" lon="12.1306596"><ele>204.0</ele><time>2026-04-04T15:54:19.165Z</time></trkpt><trkpt lat="45.7960054" lon="12.1305968"><ele>205.79999999999998</ele><time>2026-04-04T15:54:20.147Z</time></trkpt><trkpt lat="45.7961273" lon="12.1305334"><ele>207.6</ele><time>2026-04-04T15:54:21.145Z</time></trkpt><trkpt lat="45.7962485" lon="12.1304767"><ele>209.4</ele><time>2026-04-04T15:54:22.146Z</time></trkpt><trkpt lat="45.7963523" lon="12.1304245"><ele>211.2</ele><time>2026-04-04T15:54:23.152Z</time></trkpt><trkpt lat="45.7964277" lon="12.1303917"><ele>213.0</ele><time>2026-04-04T15:54:24.152Z</time></trkpt><trkpt lat="45.7965403" lon="12.1303941"><ele>213.0</ele><time>2026-04-04T15:54:26.144Z</time></trkpt><trkpt lat="45.7965977" lon="12.1305343"><ele>213.0</ele><time>2026-04-04T15:54:28.143Z</time></trkpt><trkpt lat="45.7965873" lon="12.1306298"><ele>213.0</ele><time>2026-04-04T15:54:29.15Z</time></trkpt><trkpt lat="45.7965648" lon="12.1307378"><ele>213.0</ele><time>2026-04-04T15:54:30.148Z</time></trkpt><trkpt lat="45.7965129" lon="12.1308295"><ele>213.0</ele><time>2026-04-04T15:54:31.159Z</time></trkpt><trkpt lat="45.7964398" lon="12.1309295"><ele>213.0</ele><time>2026-04-04T15:54:32.154Z</time></trkpt><trkpt lat="45.7963601" lon="12.1310503"><ele>212.5</ele><time>2026-04-04T15:54:33.171Z</time></trkpt><trkpt lat="45.7962996" lon="12.1312137"><ele>212.0</ele><time>2026-04-04T15:54:34.157Z</time></trkpt><trkpt lat="45.7962484" lon="12.1313889"><ele>211.5</ele><time>2026-04-04T15:54:35.158Z</time></trkpt><trkpt lat="45.7961993" lon="12.1315463"><ele>211.0</ele><time>2026-04-04T15:54:36.155Z</time></trkpt><trkpt lat="45.7961584" lon="12.1316621"><ele>211.8</ele><time>2026-04-04T15:54:37.15Z</time></trkpt><trkpt lat="45.7961255" lon="12.1317494"><ele>212.60000000000002</ele><time>2026-04-04T15:54:38.154Z</time></trkpt><trkpt lat="45.7961151" lon="12.1319012"><ele>213.4</ele><time>2026-04-04T15:54:40.158Z</time></trkpt><trkpt lat="45.7962104" lon="12.1320039"><ele>214.2</ele><time>2026-04-04T15:54:42.152Z</time></trkpt><trkpt lat="45.7962889" lon="12.1320022"><ele>215.0</ele><time>2026-04-04T15:54:43.146Z</time></trkpt><trkpt lat="45.7964012" lon="12.1320086"><ele>215.0</ele><time>2026-04-04T15:54:44.155Z</time></trkpt><trkpt lat="45.796519" lon="12.1320199"><ele>215.0</ele><time>2026-04-04T15:54:45.152Z</time></trkpt><trkpt lat="45.7966497" lon="12.1320396"><ele>215.0</ele><time>2026-04-04T15:54:46.149Z</time></trkpt><trkpt lat="45.7967806" lon="12.1320494"><ele>215.0</ele><time>2026-04-04T15:54:47.148Z</time></trkpt><trkpt lat="45.7969039" lon="12.1320664"><ele>217.4</ele><time>2026-04-04T15:54:48.149Z</time></trkpt><trkpt lat="45.7970032" lon="12.1320763"><ele>219.8</ele><time>2026-04-04T15:54:49.154Z</time></trkpt><trkpt lat="45.7970803" lon="12.132082"><ele>222.2</ele><time>2026-04-04T15:54:50.162Z</time></trkpt><trkpt lat="45.7971505" lon="12.132105"><ele>224.6</ele><time>2026-04-04T15:54:51.143Z</time></trkpt><trkpt lat="45.797246" lon="12.1322047"><ele>227.0</ele><time>2026-04-04T15:54:53.159Z</time></trkpt><trkpt lat="45.797266" lon="12.1323299"><ele>225.25</ele><time>2026-04-04T15:54:54.158Z</time></trkpt><trkpt lat="45.7972962" lon="12.1324898"><ele>223.5</ele><time>2026-04-04T15:54:55.148Z</time></trkpt><trkpt lat="45.7973522" lon="12.1326642"><ele>221.75</ele><time>2026-04-04T15:54:56.15Z</time></trkpt><trkpt lat="45.7974169" lon="12.1327878"><ele>220.0</ele><time>2026-04-04T15:54:57.148Z</time></trkpt><trkpt lat="45.7975009" lon="12.1329101"><ele>220.0</ele><time>2026-04-04T15:54:58.149Z</time></trkpt><trkpt lat="45.7975854" lon="12.1330464"><ele>220.0</ele><time>2026-04-04T15:54:59.151Z</time></trkpt><trkpt lat="45.7976903" lon="12.1331209"><ele>220.0</ele><time>2026-04-04T15:55:00.148Z</time></trkpt><trkpt lat="45.7977732" lon="12.1331662"><ele>220.0</ele><time>2026-04-04T15:55:01.154Z</time></trkpt><trkpt lat="45.7978761" lon="12.1331839"><ele>220.0</ele><time>2026-04-04T15:55:02.149Z</time></trkpt><trkpt lat="45.7979995" lon="12.1331962"><ele>219.8</ele><time>2026-04-04T15:55:03.151Z</time></trkpt><trkpt lat="45.7981233" lon="12.1332215"><ele>219.6</ele><time>2026-04-04T15:55:04.146Z</time></trkpt><trkpt lat="45.7982456" lon="12.1332763"><ele>219.39999999999998</ele><time>2026-04-04T15:55:05.154Z</time></trkpt><trkpt lat="45.7983475" lon="12.1333138"><ele>219.2</ele><time>2026-04-04T15:55:06.146Z</time></trkpt><trkpt lat="45.7984244" lon="12.133341"><ele>219.0</ele><time>2026-04-04T15:55:07.154Z</time></trkpt><trkpt lat="45.7984948" lon="12.1333587"><ele>219.6</ele><time>2026-04-04T15:55:08.156Z</time></trkpt><trkpt lat="45.7985936" lon="12.1333391"><ele>220.2</ele><time>2026-04-04T15:55:10.15Z</time></trkpt><trkpt lat="45.7986436" lon="12.1331751"><ele>220.79999999999998</ele><time>2026-04-04T15:55:12.16Z</time></trkpt><trkpt lat="45.7986469" lon="12.1330694"><ele>221.39999999999998</ele><time>2026-04-04T15:55:13.149Z</time></trkpt><trkpt lat="45.7986537" lon="12.1329252"><ele>222.0</ele><time>2026-04-04T15:55:15.151Z</time></trkpt><trkpt lat="45.7987344" lon="12.1328669"><ele>222.0</ele><time>2026-04-04T15:55:17.15Z</time></trkpt><trkpt lat="45.7987963" lon="12.1328919"><ele>222.0</ele><time>2026-04-04T15:55:18.151Z</time></trkpt><trkpt lat="45.7988968" lon="12.1329532"><ele>222.0</ele><time>2026-04-04T15:55:19.144Z</time></trkpt><trkpt lat="45.7990055" lon="12.133021"><ele>222.0</ele><time>2026-04-04T15:55:20.154Z</time></trkpt><trkpt lat="45.7991006" lon="12.1330871"><ele>222.0</ele><time>2026-04-04T15:55:21.147Z</time></trkpt><trkpt lat="45.7991868" lon="12.1331126"><ele>222.0</ele><time>2026-04-04T15:55:22.146Z</time></trkpt><trkpt lat="45.7992611" lon="12.1331275"><ele>222.0</ele><time>2026-04-04T15:55:23.148Z</time></trkpt><trkpt lat="45.7993341" lon="12.1330966"><ele>222.0</ele><time>2026-04-04T15:55:24.143Z</time></trkpt><trkpt lat="45.7994068" lon="12.1330403"><ele>222.0</ele><time>2026-04-04T15:55:25.15Z</time></trkpt><trkpt lat="45.7994765" lon="12.13294"><ele>222.0</ele><time>2026-04-04T15:55:26.171Z</time></trkpt><trkpt lat="45.7995502" lon="12.1328423"><ele>222.0</ele><time>2026-04-04T15:55:27.178Z</time></trkpt><trkpt lat="45.7996419" lon="12.1327774"><ele>221.33333333333334</ele><time>2026-04-04T15:55:28.143Z</time></trkpt><trkpt lat="45.7997331" lon="12.1327385"><ele>220.66666666666669</ele><time>2026-04-04T15:55:29.154Z</time></trkpt><trkpt lat="45.7998061" lon="12.1326889"><ele>220.0</ele><time>2026-04-04T15:55:30.15Z</time></trkpt><trkpt lat="45.7998721" lon="12.1326451"><ele>219.33333333333334</ele><time>2026-04-04T15:55:31.147Z</time></trkpt><trkpt lat="45.7999814" lon="12.1326303"><ele>218.66666666666669</ele><time>2026-04-04T15:55:33.148Z</time></trkpt><trkpt lat="45.8000412" lon="12.1327161"><ele>218.0</ele><time>2026-04-04T15:55:35.157Z</time></trkpt><trkpt lat="45.8000089" lon="12.1328652"><ele>218.0</ele><time>2026-04-04T15:55:37.154Z</time></trkpt><trkpt lat="45.7999484" lon="12.1329533"><ele>218.0</ele><time>2026-04-04T15:55:38.153Z</time></trkpt><trkpt lat="45.7998966" lon="12.1330581"><ele>218.0</ele><time>2026-04-04T15:55:39.154Z</time></trkpt><trkpt lat="45.7998604" lon="12.1331816"><ele>218.0</ele><time>2026-04-04T15:55:40.154Z</time></trkpt><trkpt lat="45.7998503" lon="12.1333272"><ele>218.0</ele><time>2026-04-04T15:55:41.157Z</time></trkpt><trkpt lat="45.7998439" lon="12.1334765"><ele>217.5</ele><time>2026-04-04T15:55:42.155Z</time></trkpt><trkpt lat="45.799839" lon="12.1336251"><ele>217.0</ele><time>2026-04-04T15:55:43.162Z</time></trkpt><trkpt lat="45.7998507" lon="12.1337919"><ele>216.5</ele><time>2026-04-04T15:55:44.158Z</time></trkpt><trkpt lat="45.7998675" lon="12.1339583"><ele>216.0</ele><time>2026-04-04T15:55:45.15Z</time></trkpt><trkpt lat="45.799884" lon="12.13413"><ele>216.0</ele><time>2026-04-04T15:55:46.155Z</time></trkpt><trkpt lat="45.7999032" lon="12.1342807"><ele>216.00000000000003</ele><time>2026-04-04T15:55:47.159Z</time></trkpt><trkpt lat="45.7999243" lon="12.1344192"><ele>216.00000000000003</ele><time>2026-04-04T15:55:48.145Z</time></trkpt><trkpt lat="45.7999421" lon="12.1345303"><ele>216.0</ele><time>2026-04-04T15:55:49.144Z</time></trkpt><trkpt lat="45.7999625" lon="12.1346369"><ele>216.0</ele><time>2026-04-04T15:55:50.161Z</time></trkpt><trkpt lat="45.8000151" lon="12.1347646"><ele>216.0</ele><time>2026-04-04T15:55:52.152Z</time></trkpt><trkpt lat="45.8001033" lon="12.1347142"><ele>216.0</ele><time>2026-04-04T15:55:55.159Z</time></trkpt><trkpt lat="45.8001991" lon="12.134576"><ele>216.0</ele><time>2026-04-04T15:55:56.162Z</time></trkpt><trkpt lat="45.8002937" lon="12.134435"><ele>216.0</ele><time>2026-04-04T15:55:57.147Z</time></trkpt><trkpt lat="45.8003972" lon="12.1342935"><ele>218.25</ele><time>2026-04-04T15:55:58.154Z</time></trkpt><trkpt lat="45.8004948" lon="12.1341484"><ele>220.5</ele><time>2026-04-04T15:55:59.179Z</time></trkpt><trkpt lat="45.8005694" lon="12.1340179"><ele>222.75</ele><time>2026-04-04T15:56:00.168Z</time></trkpt><trkpt lat="45.8006386" lon="12.133911"><ele>225.0</ele><time>2026-04-04T15:56:01.151Z</time></trkpt><trkpt lat="45.8007118" lon="12.1338315"><ele>226.4</ele><time>2026-04-04T15:56:02.146Z</time></trkpt><trkpt lat="45.8007919" lon="12.1337816"><ele>227.8</ele><time>2026-04-04T15:56:03.155Z</time></trkpt><trkpt lat="45.8008819" lon="12.1337777"><ele>229.2</ele><time>2026-04-04T15:56:04.159Z</time></trkpt><trkpt lat="45.8009858" lon="12.1337886"><ele>230.6</ele><time>2026-04-04T15:56:05.153Z</time></trkpt><trkpt lat="45.8011069" lon="12.1338091"><ele>232.0</ele><time>2026-04-04T15:56:06.153Z</time></trkpt><trkpt lat="45.8012249" lon="12.1338294"><ele>234.0</ele><time>2026-04-04T15:56:07.154Z</time></trkpt><trkpt lat="45.801341" lon="12.1338539"><ele>236.0</ele><time>2026-04-04T15:56:08.154Z</time></trkpt><trkpt lat="45.8014389" lon="12.1338728"><ele>238.0</ele><time>2026-04-04T15:56:09.149Z</time></trkpt><trkpt lat="45.8015294" lon="12.1338782"><ele>240.0</ele><time>2026-04-04T15:56:10.16Z</time></trkpt><trkpt lat="45.8016347" lon="12.1338835"><ele>242.0</ele><time>2026-04-04T15:56:11.155Z</time></trkpt><trkpt lat="45.8017504" lon="12.1338959"><ele>242.6</ele><time>2026-04-04T15:56:12.149Z</time></trkpt><trkpt lat="45.8018686" lon="12.1339107"><ele>243.2</ele><time>2026-04-04T15:56:13.158Z</time></trkpt><trkpt lat="45.8019839" lon="12.1339187"><ele>243.8</ele><time>2026-04-04T15:56:14.154Z</time></trkpt><trkpt lat="45.8020892" lon="12.1339087"><ele>244.4</ele><time>2026-04-04T15:56:15.16Z</time></trkpt><trkpt lat="45.8021891" lon="12.1338664"><ele>245.0</ele><time>2026-04-04T15:56:16.15Z</time></trkpt><trkpt lat="45.8022823" lon="12.1337926"><ele>245.00000000000003</ele><time>2026-04-04T15:56:17.149Z</time></trkpt><trkpt lat="45.8023627" lon="12.1337368"><ele>245.0</ele><time>2026-04-04T15:56:18.153Z</time></trkpt><trkpt lat="45.8024296" lon="12.1337194"><ele>245.0</ele><time>2026-04-04T15:56:19.155Z</time></trkpt><trkpt lat="45.8025128" lon="12.1337222"><ele>245.0</ele><time>2026-04-04T15:56:20.149Z</time></trkpt><trkpt lat="45.802603" lon="12.1337475"><ele>245.00000000000003</ele><time>2026-04-04T15:56:21.146Z</time></trkpt><trkpt lat="45.8026894" lon="12.1337597"><ele>245.0</ele><time>2026-04-04T15:56:22.159Z</time></trkpt><trkpt lat="45.8027673" lon="12.1337734"><ele>244.0</ele><time>2026-04-04T15:56:23.151Z</time></trkpt><trkpt lat="45.8028452" lon="12.1337967"><ele>243.0</ele><time>2026-04-04T15:56:24.146Z</time></trkpt><trkpt lat="45.8029302" lon="12.1338622"><ele>242.0</ele><time>2026-04-04T15:56:25.163Z</time></trkpt><trkpt lat="45.8030112" lon="12.1339721"><ele>241.0</ele><time>2026-04-04T15:56:26.152Z</time></trkpt><trkpt lat="45.8030889" lon="12.134075"><ele>240.0</ele><time>2026-04-04T15:56:27.153Z</time></trkpt><trkpt lat="45.8031573" lon="12.1341777"><ele>240.0</ele><time>2026-04-04T15:56:28.155Z</time></trkpt><trkpt lat="45.8032228" lon="12.1342835"><ele>240.0</ele><time>2026-04-04T15:56:29.16Z</time></trkpt><trkpt lat="45.803281" lon="12.1343561"><ele>240.0</ele><time>2026-04-04T15:56:30.156Z</time></trkpt><trkpt lat="45.8033483" lon="12.1343951"><ele>240.0</ele><time>2026-04-04T15:56:31.158Z</time></trkpt><trkpt lat="45.8034309" lon="12.1344101"><ele>240.0</ele><time>2026-04-04T15:56:32.153Z</time></trkpt><trkpt lat="45.8035371" lon="12.1343723"><ele>240.0</ele><time>2026-04-04T15:56:33.146Z</time></trkpt><trkpt lat="45.8036577" lon="12.1342974"><ele>242.33333333333331</ele><time>2026-04-04T15:56:34.147Z</time></trkpt><trkpt lat="45.8037988" lon="12.1342105"><ele>244.66666666666666</ele><time>2026-04-04T15:56:35.163Z</time></trkpt><trkpt lat="45.8039376" lon="12.1341123"><ele>247.0</ele><time>2026-04-04T15:56:36.146Z</time></trkpt><trkpt lat="45.8040811" lon="12.1340278"><ele>247.75</ele><time>2026-04-04T15:56:37.155Z</time></trkpt><trkpt lat="45.8042353" lon="12.133969"><ele>248.5</ele><time>2026-04-04T15:56:38.152Z</time></trkpt><trkpt lat="45.804374" lon="12.1339148"><ele>249.25</ele><time>2026-04-04T15:56:39.148Z</time></trkpt><trkpt lat="45.8044937" lon="12.1338555"><ele>250.0</ele><time>2026-04-04T15:56:40.143Z</time></trkpt><trkpt lat="45.8045928" lon="12.1337913"><ele>251.0</ele><time>2026-04-04T15:56:41.149Z</time></trkpt><trkpt lat="45.8046885" lon="12.1337368"><ele>252.0</ele><time>2026-04-04T15:56:42.153Z</time></trkpt><trkpt lat="45.8047691" lon="12.1336979"><ele>253.0</ele><time>2026-04-04T15:56:43.152Z</time></trkpt><trkpt lat="45.8048365" lon="12.1336606"><ele>254.0</ele><time>2026-04-04T15:56:44.153Z</time></trkpt><trkpt lat="45.804923" lon="12.1335813"><ele>255.0</ele><time>2026-04-04T15:56:46.148Z</time></trkpt><trkpt lat="45.8050018" lon="12.1334702"><ele>255.0</ele><time>2026-04-04T15:56:48.163Z</time></trkpt><trkpt lat="45.8050414" lon="12.1333849"><ele>255.0</ele><time>2026-04-04T15:56:49.162Z</time></trkpt><trkpt lat="45.8050811" lon="12.1332958"><ele>255.0</ele><time>2026-04-04T15:56:50.156Z</time></trkpt><trkpt lat="45.805128" lon="12.1332067"><ele>255.0</ele><time>2026-04-04T15:56:51.154Z</time></trkpt><trkpt lat="45.8051801" lon="12.1331133"><ele>255.0</ele><time>2026-04-04T15:56:52.153Z</time></trkpt><trkpt lat="45.8052466" lon="12.1330224"><ele>255.0</ele><time>2026-04-04T15:56:53.153Z</time></trkpt><trkpt lat="45.8053049" lon="12.1329393"><ele>256.2</ele><time>2026-04-04T15:56:54.153Z</time></trkpt><trkpt lat="45.8053869" lon="12.1328818"><ele>257.4</ele><time>2026-04-04T15:56:55.154Z</time></trkpt><trkpt lat="45.8054817" lon="12.1328385"><ele>258.6</ele><time>2026-04-04T15:56:56.155Z</time></trkpt><trkpt lat="45.8055829" lon="12.1328048"><ele>259.8</ele><time>2026-04-04T15:56:57.154Z</time></trkpt><trkpt lat="45.8056818" lon="12.1327776"><ele>261.0</ele><time>2026-04-04T15:56:58.144Z</time></trkpt><trkpt lat="45.8057635" lon="12.1327684"><ele>261.0</ele><time>2026-04-04T15:56:59.149Z</time></trkpt><trkpt lat="45.8058426" lon="12.132762"><ele>261.0</ele><time>2026-04-04T15:57:00.148Z</time></trkpt><trkpt lat="45.8059056" lon="12.1327892"><ele>261.0</ele><time>2026-04-04T15:57:01.147Z</time></trkpt><trkpt lat="45.8059768" lon="12.1328953"><ele>261.0</ele><time>2026-04-04T15:57:03.172Z</time></trkpt><trkpt lat="45.8060493" lon="12.1330056"><ele>261.0</ele><time>2026-04-04T15:57:05.15Z</time></trkpt><trkpt lat="45.8061174" lon="12.133103"><ele>261.2</ele><time>2026-04-04T15:57:07.158Z</time></trkpt><trkpt lat="45.8062007" lon="12.1331943"><ele>261.40000000000003</ele><time>2026-04-04T15:57:09.163Z</time></trkpt><trkpt lat="45.8062941" lon="12.1332936"><ele>261.6</ele><time>2026-04-04T15:57:11.157Z</time></trkpt><trkpt lat="45.8063597" lon="12.1333875"><ele>261.8</ele><time>2026-04-04T15:57:13.157Z</time></trkpt><trkpt lat="45.8064328" lon="12.1334848"><ele>262.0</ele><time>2026-04-04T15:57:15.16Z</time></trkpt><trkpt lat="45.8065237" lon="12.133538"><ele>262.2</ele><time>2026-04-04T15:57:17.154Z</time></trkpt><trkpt lat="45.8066558" lon="12.1335467"><ele>262.4</ele><time>2026-04-04T15:57:19.153Z</time></trkpt><trkpt lat="45.8067448" lon="12.1335288"><ele>262.6</ele><time>2026-04-04T15:57:20.166Z</time></trkpt><trkpt lat="45.8068369" lon="12.1335022"><ele>262.8</ele><time>2026-04-04T15:57:21.162Z</time></trkpt><trkpt lat="45.8069319" lon="12.1334708"><ele>263.0</ele><time>2026-04-04T15:57:22.162Z</time></trkpt><trkpt lat="45.8070241" lon="12.1333894"><ele>262.5</ele><time>2026-04-04T15:57:23.153Z</time></trkpt><trkpt lat="45.8071197" lon="12.1332585"><ele>262.0</ele><time>2026-04-04T15:57:24.16Z</time></trkpt><trkpt lat="45.8072145" lon="12.1331323"><ele>261.5</ele><time>2026-04-04T15:57:25.154Z</time></trkpt><trkpt lat="45.8072924" lon="12.1330246"><ele>261.0</ele><time>2026-04-04T15:57:26.159Z</time></trkpt><trkpt lat="45.8073707" lon="12.1329462"><ele>261.0</ele><time>2026-04-04T15:57:27.155Z</time></trkpt><trkpt lat="45.8074539" lon="12.1328935"><ele>261.0</ele><time>2026-04-04T15:57:28.153Z</time></trkpt><trkpt lat="45.8075398" lon="12.1328392"><ele>261.0</ele><time>2026-04-04T15:57:29.154Z</time></trkpt><trkpt lat="45.8076347" lon="12.1328177"><ele>261.0</ele><time>2026-04-04T15:57:30.156Z</time></trkpt><trkpt lat="45.8077312" lon="12.1327863"><ele>261.0</ele><time>2026-04-04T15:57:31.152Z</time></trkpt><trkpt lat="45.8078437" lon="12.1327089"><ele>262.75</ele><time>2026-04-04T15:57:32.168Z</time></trkpt><trkpt lat="45.8079773" lon="12.1326189"><ele>264.5</ele><time>2026-04-04T15:57:33.158Z</time></trkpt><trkpt lat="45.8081098" lon="12.132535"><ele>266.25</ele><time>2026-04-04T15:57:34.151Z</time></trkpt><trkpt lat="45.8082381" lon="12.1324532"><ele>268.0</ele><time>2026-04-04T15:57:35.157Z</time></trkpt><trkpt lat="45.8083718" lon="12.1323916"><ele>269.0</ele><time>2026-04-04T15:57:36.154Z</time></trkpt><trkpt lat="45.8085041" lon="12.1323339"><ele>270.0</ele><time>2026-04-04T15:57:37.155Z</time></trkpt><trkpt lat="45.8086142" lon="12.1322865"><ele>271.0</ele><time>2026-04-04T15:57:38.154Z</time></trkpt><trkpt lat="45.8087071" lon="12.1322248"><ele>272.0</ele><time>2026-04-04T15:57:39.152Z</time></trkpt><trkpt lat="45.8087755" lon="12.132135"><ele>273.0</ele><time>2026-04-04T15:57:40.151Z</time></trkpt><trkpt lat="45.8088389" lon="12.1320661"><ele>273.0</ele><time>2026-04-04T15:57:41.157Z</time></trkpt><trkpt lat="45.8088843" lon="12.1319998"><ele>273.0</ele><time>2026-04-04T15:57:42.152Z</time></trkpt><trkpt lat="45.8089894" lon="12.1320109"><ele>273.0</ele><time>2026-04-04T15:57:44.151Z</time></trkpt><trkpt lat="45.8090511" lon="12.1320662"><ele>273.0</ele><time>2026-04-04T15:57:45.16Z</time></trkpt><trkpt lat="45.8091329" lon="12.132115"><ele>273.0</ele><time>2026-04-04T15:57:46.163Z</time></trkpt><trkpt lat="45.8092185" lon="12.1321607"><ele>273.0</ele><time>2026-04-04T15:57:47.154Z</time></trkpt><trkpt lat="45.8093308" lon="12.13217"><ele>273.25</ele><time>2026-04-04T15:57:48.161Z</time></trkpt><trkpt lat="45.8094537" lon="12.1321399"><ele>273.5</ele><time>2026-04-04T15:57:49.156Z</time></trkpt><trkpt lat="45.8095679" lon="12.1320839"><ele>273.75</ele><time>2026-04-04T15:57:50.148Z</time></trkpt><trkpt lat="45.8096801" lon="12.1320134"><ele>274.0</ele><time>2026-04-04T15:57:51.15Z</time></trkpt><trkpt lat="45.8097743" lon="12.1319424"><ele>274.0</ele><time>2026-04-04T15:57:52.164Z</time></trkpt><trkpt lat="45.8098563" lon="12.1319061"><ele>274.0</ele><time>2026-04-04T15:57:53.156Z</time></trkpt><trkpt lat="45.8099391" lon="12.1318744"><ele>274.0</ele><time>2026-04-04T15:57:54.155Z</time></trkpt><trkpt lat="45.8100273" lon="12.1318891"><ele>274.0</ele><time>2026-04-04T15:57:55.151Z</time></trkpt><trkpt lat="45.8101303" lon="12.1319292"><ele>274.0</ele><time>2026-04-04T15:57:56.154Z</time></trkpt><trkpt lat="45.8102306" lon="12.131987"><ele>274.16666666666663</ele><time>2026-04-04T15:57:57.157Z</time></trkpt><trkpt lat="45.8103092" lon="12.1320586"><ele>274.3333333333333</ele><time>2026-04-04T15:57:58.15Z</time></trkpt><trkpt lat="45.8103752" lon="12.132142"><ele>274.5</ele><time>2026-04-04T15:57:59.153Z</time></trkpt><trkpt lat="45.8104738" lon="12.132201"><ele>274.6666666666667</ele><time>2026-04-04T15:58:01.15Z</time></trkpt><trkpt lat="45.810542" lon="12.1321776"><ele>274.83333333333337</ele><time>2026-04-04T15:58:02.153Z</time></trkpt><trkpt lat="45.8106127" lon="12.1321606"><ele>275.0</ele><time>2026-04-04T15:58:03.151Z</time></trkpt><trkpt lat="45.8106936" lon="12.1321366"><ele>275.0</ele><time>2026-04-04T15:58:04.156Z</time></trkpt><trkpt lat="45.810757" lon="12.1321572"><ele>275.0</ele><time>2026-04-04T15:58:05.151Z</time></trkpt><trkpt lat="45.8108516" lon="12.1322399"><ele>275.0</ele><time>2026-04-04T15:58:06.153Z</time></trkpt><trkpt lat="45.81095" lon="12.1323586"><ele>275.0</ele><time>2026-04-04T15:58:07.149Z</time></trkpt><trkpt lat="45.8110314" lon="12.1324527"><ele>275.0</ele><time>2026-04-04T15:58:08.159Z</time></trkpt><trkpt lat="45.8110945" lon="12.1325241"><ele>272.4</ele><time>2026-04-04T15:58:09.155Z</time></trkpt><trkpt lat="45.8111488" lon="12.1325884"><ele>269.8</ele><time>2026-04-04T15:58:10.158Z</time></trkpt><trkpt lat="45.8112544" lon="12.1326344"><ele>267.2</ele><time>2026-04-04T15:58:12.161Z</time></trkpt><trkpt lat="45.8113267" lon="12.1325829"><ele>264.6</ele><time>2026-04-04T15:58:13.155Z</time></trkpt><trkpt lat="45.8114004" lon="12.1325155"><ele>262.0</ele><time>2026-04-04T15:58:14.148Z</time></trkpt><trkpt lat="45.8114672" lon="12.132391"><ele>263.0</ele><time>2026-04-04T15:58:15.156Z</time></trkpt><trkpt lat="45.8115192" lon="12.1322694"><ele>264.0</ele><time>2026-04-04T15:58:16.149Z</time></trkpt><trkpt lat="45.8115626" lon="12.132144"><ele>265.0</ele><time>2026-04-04T15:58:17.153Z</time></trkpt><trkpt lat="45.8116123" lon="12.1320373"><ele>266.0</ele><time>2026-04-04T15:58:18.16Z</time></trkpt><trkpt lat="45.8116353" lon="12.1319255"><ele>267.0</ele><time>2026-04-04T15:58:19.151Z</time></trkpt><trkpt lat="45.8116622" lon="12.1318256"><ele>268.0</ele><time>2026-04-04T15:58:20.152Z</time></trkpt><trkpt lat="45.8116852" lon="12.1317345"><ele>268.0</ele><time>2026-04-04T15:58:21.152Z</time></trkpt><trkpt lat="45.8117702" lon="12.1316325"><ele>268.0</ele><time>2026-04-04T15:58:23.147Z</time></trkpt><trkpt lat="45.8118325" lon="12.1316074"><ele>268.0</ele><time>2026-04-04T15:58:24.155Z</time></trkpt><trkpt lat="45.8119051" lon="12.1315756"><ele>268.0</ele><time>2026-04-04T15:58:25.145Z</time></trkpt><trkpt lat="45.8119736" lon="12.1315471"><ele>268.0</ele><time>2026-04-04T15:58:26.143Z</time></trkpt><trkpt lat="45.8120778" lon="12.1315241"><ele>268.0</ele><time>2026-04-04T15:58:28.159Z</time></trkpt><trkpt lat="45.8121478" lon="12.1316611"><ele>269.25</ele><time>2026-04-04T15:58:30.18Z</time></trkpt><trkpt lat="45.8121503" lon="12.1317771"><ele>270.5</ele><time>2026-04-04T15:58:31.159Z</time></trkpt><trkpt lat="45.8121389" lon="12.1319415"><ele>271.75</ele><time>2026-04-04T15:58:32.152Z</time></trkpt><trkpt lat="45.8121359" lon="12.1321279"><ele>273.0</ele><time>2026-04-04T15:58:33.145Z</time></trkpt><trkpt lat="45.8121585" lon="12.132318"><ele>273.25</ele><time>2026-04-04T15:58:34.143Z</time></trkpt><trkpt lat="45.8121814" lon="12.1325128"><ele>273.5</ele><time>2026-04-04T15:58:35.146Z</time></trkpt><trkpt lat="45.8122153" lon="12.1327029"><ele>273.75</ele><time>2026-04-04T15:58:36.148Z</time></trkpt><trkpt lat="45.8122623" lon="12.1328758"><ele>274.0</ele><time>2026-04-04T15:58:37.155Z</time></trkpt><trkpt lat="45.8123041" lon="12.1330403"><ele>274.0</ele><time>2026-04-04T15:58:38.156Z</time></trkpt><trkpt lat="45.8123315" lon="12.1331456"><ele>274.0</ele><time>2026-04-04T15:58:39.141Z</time></trkpt><trkpt lat="45.8123589" lon="12.1332429"><ele>274.0</ele><time>2026-04-04T15:58:40.151Z</time></trkpt><trkpt lat="45.8123837" lon="12.1333569"><ele>274.0</ele><time>2026-04-04T15:58:41.147Z</time></trkpt><trkpt lat="45.8124128" lon="12.1334549"><ele>274.0</ele><time>2026-04-04T15:58:42.154Z</time></trkpt><trkpt lat="45.8124745" lon="12.133557"><ele>274.0</ele><time>2026-04-04T15:58:44.152Z</time></trkpt><trkpt lat="45.8125282" lon="12.1336798"><ele>274.0</ele><time>2026-04-04T15:58:46.157Z</time></trkpt><trkpt lat="45.8125609" lon="12.1338247"><ele>274.0</ele><time>2026-04-04T15:58:48.152Z</time></trkpt><trkpt lat="45.812539" lon="12.1339111"><ele>274.0</ele><time>2026-04-04T15:58:49.16Z</time></trkpt><trkpt lat="45.8124806" lon="12.133977"><ele>274.0</ele><time>2026-04-04T15:58:50.144Z</time></trkpt><trkpt lat="45.8123982" lon="12.1340642"><ele>274.0</ele><time>2026-04-04T15:58:51.156Z</time></trkpt><trkpt lat="45.8122799" lon="12.1341285"><ele>274.0</ele><time>2026-04-04T15:58:52.159Z</time></trkpt><trkpt lat="45.8121342" lon="12.1342005"><ele>274.0</ele><time>2026-04-04T15:58:53.157Z</time></trkpt><trkpt lat="45.8119942" lon="12.134277"><ele>274.0</ele><time>2026-04-04T15:58:54.153Z</time></trkpt><trkpt lat="45.8118324" lon="12.1343771"><ele>270.0</ele><time>2026-04-04T15:58:55.152Z</time></trkpt><trkpt lat="45.8116743" lon="12.1344743"><ele>266.0</ele><time>2026-04-04T15:58:56.156Z</time></trkpt><trkpt lat="45.8115357" lon="12.1345512"><ele>262.0</ele><time>2026-04-04T15:58:57.153Z</time></trkpt><trkpt lat="45.8114029" lon="12.1346248"><ele>262.0</ele><time>2026-04-04T15:58:58.148Z</time></trkpt><trkpt lat="45.8112744" lon="12.1347015"><ele>262.0</ele><time>2026-04-04T15:58:59.154Z</time></trkpt><trkpt lat="45.8111631" lon="12.1347729"><ele>262.0</ele><time>2026-04-04T15:59:00.154Z</time></trkpt><trkpt lat="45.8110647" lon="12.1348477"><ele>262.0</ele><time>2026-04-04T15:59:01.15Z</time></trkpt><trkpt lat="45.8109742" lon="12.1349534"><ele>261.0</ele><time>2026-04-04T15:59:02.158Z</time></trkpt><trkpt lat="45.8109058" lon="12.1351032"><ele>260.0</ele><time>2026-04-04T15:59:03.148Z</time></trkpt><trkpt lat="45.8108282" lon="12.1352684"><ele>259.0</ele><time>2026-04-04T15:59:04.152Z</time></trkpt><trkpt lat="45.8107587" lon="12.1354562"><ele>258.0</ele><time>2026-04-04T15:59:05.154Z</time></trkpt><trkpt lat="45.8106945" lon="12.1356325"><ele>257.5</ele><time>2026-04-04T15:59:06.153Z</time></trkpt><trkpt lat="45.8106476" lon="12.13575"><ele>257.0</ele><time>2026-04-04T15:59:07.15Z</time></trkpt><trkpt lat="45.8106133" lon="12.1358601"><ele>256.5</ele><time>2026-04-04T15:59:08.156Z</time></trkpt><trkpt lat="45.810579" lon="12.1359624"><ele>256.0</ele><time>2026-04-04T15:59:09.152Z</time></trkpt><trkpt lat="45.8105395" lon="12.1360689"><ele>255.5</ele><time>2026-04-04T15:59:10.154Z</time></trkpt><trkpt lat="45.8105" lon="12.1361665"><ele>255.0</ele><time>2026-04-04T15:59:11.151Z</time></trkpt><trkpt lat="45.8104381" lon="12.136262"><ele>255.0</ele><time>2026-04-04T15:59:12.15Z</time></trkpt><trkpt lat="45.8103615" lon="12.1363436"><ele>255.0</ele><time>2026-04-04T15:59:13.152Z</time></trkpt><trkpt lat="45.8102879" lon="12.1364157"><ele>255.0</ele><time>2026-04-04T15:59:14.152Z</time></trkpt><trkpt lat="45.8102289" lon="12.1364791"><ele>255.0</ele><time>2026-04-04T15:59:15.161Z</time></trkpt><trkpt lat="45.8102028" lon="12.1366001"><ele>255.0</ele><time>2026-04-04T15:59:16.156Z</time></trkpt><trkpt lat="45.8101953" lon="12.1367283"><ele>255.0</ele><time>2026-04-04T15:59:17.15Z</time></trkpt><trkpt lat="45.8102248" lon="12.1368594"><ele>254.0</ele><time>2026-04-04T15:59:18.163Z</time></trkpt><trkpt lat="45.8102664" lon="12.1369749"><ele>253.0</ele><time>2026-04-04T15:59:19.162Z</time></trkpt><trkpt lat="45.810305" lon="12.1370891"><ele>252.0</ele><time>2026-04-04T15:59:20.157Z</time></trkpt><trkpt lat="45.8103549" lon="12.1372074"><ele>251.0</ele><time>2026-04-04T15:59:21.155Z</time></trkpt><trkpt lat="45.8104" lon="12.1373373"><ele>250.0</ele><time>2026-04-04T15:59:22.157Z</time></trkpt><trkpt lat="45.8104288" lon="12.1374801"><ele>249.0</ele><time>2026-04-04T15:59:23.152Z</time></trkpt><trkpt lat="45.8104411" lon="12.1376216"><ele>248.0</ele><time>2026-04-04T15:59:24.149Z</time></trkpt><trkpt lat="45.8104365" lon="12.1377579"><ele>247.0</ele><time>2026-04-04T15:59:25.148Z</time></trkpt><trkpt lat="45.810424" lon="12.1378884"><ele>246.0</ele><time>2026-04-04T15:59:26.149Z</time></trkpt><trkpt lat="45.8104094" lon="12.1380239"><ele>245.0</ele><time>2026-04-04T15:59:27.152Z</time></trkpt><trkpt lat="45.810393" lon="12.1381512"><ele>243.8</ele><time>2026-04-04T15:59:28.155Z</time></trkpt><trkpt lat="45.8103735" lon="12.1382617"><ele>242.6</ele><time>2026-04-04T15:59:29.153Z</time></trkpt><trkpt lat="45.8103553" lon="12.1383643"><ele>241.39999999999998</ele><time>2026-04-04T15:59:30.154Z</time></trkpt><trkpt lat="45.8103341" lon="12.1385154"><ele>240.2</ele><time>2026-04-04T15:59:32.157Z</time></trkpt><trkpt lat="45.8103575" lon="12.1386577"><ele>239.0</ele><time>2026-04-04T15:59:34.163Z</time></trkpt><trkpt lat="45.810416" lon="12.1387893"><ele>239.0</ele><time>2026-04-04T15:59:36.154Z</time></trkpt><trkpt lat="45.810524" lon="12.138881"><ele>238.99999999999997</ele><time>2026-04-04T15:59:38.154Z</time></trkpt><trkpt lat="45.8105819" lon="12.1389182"><ele>238.99999999999997</ele><time>2026-04-04T15:59:39.164Z</time></trkpt><trkpt lat="45.8106936" lon="12.1389715"><ele>239.0</ele><time>2026-04-04T15:59:41.156Z</time></trkpt><trkpt lat="45.8107843" lon="12.1390261"><ele>239.0</ele><time>2026-04-04T15:59:43.151Z</time></trkpt><trkpt lat="45.8108647" lon="12.1391276"><ele>238.66666666666669</ele><time>2026-04-04T15:59:45.155Z</time></trkpt><trkpt lat="45.810886" lon="12.139243"><ele>238.33333333333334</ele><time>2026-04-04T15:59:46.155Z</time></trkpt><trkpt lat="45.8108866" lon="12.1393621"><ele>238.0</ele><time>2026-04-04T15:59:47.151Z</time></trkpt><trkpt lat="45.81089" lon="12.1394777"><ele>237.66666666666669</ele><time>2026-04-04T15:59:48.153Z</time></trkpt><trkpt lat="45.8108881" lon="12.1395859"><ele>237.33333333333334</ele><time>2026-04-04T15:59:49.159Z</time></trkpt><trkpt lat="45.8108864" lon="12.1396908"><ele>237.0</ele><time>2026-04-04T15:59:50.147Z</time></trkpt><trkpt lat="45.8108855" lon="12.139783"><ele>237.39999999999998</ele><time>2026-04-04T15:59:51.154Z</time></trkpt><trkpt lat="45.8108978" lon="12.1398944"><ele>237.79999999999998</ele><time>2026-04-04T15:59:53.152Z</time></trkpt><trkpt lat="45.8109497" lon="12.139977"><ele>238.2</ele><time>2026-04-04T15:59:55.148Z</time></trkpt><trkpt lat="45.8110748" lon="12.1399719"><ele>238.6</ele><time>2026-04-04T15:59:57.164Z</time></trkpt><trkpt lat="45.8111749" lon="12.139934"><ele>239.0</ele><time>2026-04-04T15:59:58.156Z</time></trkpt><trkpt lat="45.8112665" lon="12.1399152"><ele>239.50000000000003</ele><time>2026-04-04T15:59:59.146Z</time></trkpt><trkpt lat="45.8113597" lon="12.1399156"><ele>240.0</ele><time>2026-04-04T16:00:00.151Z</time></trkpt><trkpt lat="45.8114593" lon="12.1399264"><ele>240.5</ele><time>2026-04-04T16:00:01.152Z</time></trkpt><trkpt lat="45.8115448" lon="12.1399358"><ele>241.0</ele><time>2026-04-04T16:00:02.15Z</time></trkpt><trkpt lat="45.8116192" lon="12.1399441"><ele>241.50000000000003</ele><time>2026-04-04T16:00:03.151Z</time></trkpt><trkpt lat="45.8116882" lon="12.1399574"><ele>242.0</ele><time>2026-04-04T16:00:04.151Z</time></trkpt><trkpt lat="45.8117847" lon="12.1400473"><ele>242.00000000000003</ele><time>2026-04-04T16:00:06.155Z</time></trkpt><trkpt lat="45.8118098" lon="12.1401387"><ele>242.0</ele><time>2026-04-04T16:00:07.158Z</time></trkpt><trkpt lat="45.8118181" lon="12.1402499"><ele>242.0</ele><time>2026-04-04T16:00:08.157Z</time></trkpt><trkpt lat="45.8118087" lon="12.1403634"><ele>242.0</ele><time>2026-04-04T16:00:09.154Z</time></trkpt><trkpt lat="45.811783" lon="12.1404919"><ele>242.00000000000003</ele><time>2026-04-04T16:00:10.153Z</time></trkpt><trkpt lat="45.8117533" lon="12.1406306"><ele>242.0</ele><time>2026-04-04T16:00:11.16Z</time></trkpt><trkpt lat="45.8117044" lon="12.1407834"><ele>239.8</ele><time>2026-04-04T16:00:12.153Z</time></trkpt><trkpt lat="45.8116559" lon="12.1409339"><ele>237.6</ele><time>2026-04-04T16:00:13.152Z</time></trkpt><trkpt lat="45.8116164" lon="12.1410702"><ele>235.40000000000003</ele><time>2026-04-04T16:00:14.156Z</time></trkpt><trkpt lat="45.8115775" lon="12.1411856"><ele>233.20000000000002</ele><time>2026-04-04T16:00:15.154Z</time></trkpt><trkpt lat="45.8115143" lon="12.1412788"><ele>231.0</ele><time>2026-04-04T16:00:16.161Z</time></trkpt><trkpt lat="45.811445" lon="12.1413369"><ele>231.0</ele><time>2026-04-04T16:00:17.152Z</time></trkpt><trkpt lat="45.811372" lon="12.1413942"><ele>231.0</ele><time>2026-04-04T16:00:18.16Z</time></trkpt><trkpt lat="45.8113085" lon="12.1414622"><ele>231.0</ele><time>2026-04-04T16:00:19.158Z</time></trkpt><trkpt lat="45.8112572" lon="12.141542"><ele>231.0</ele><time>2026-04-04T16:00:20.156Z</time></trkpt><trkpt lat="45.8112045" lon="12.141641"><ele>231.0</ele><time>2026-04-04T16:00:21.152Z</time></trkpt><trkpt lat="45.8111769" lon="12.1417706"><ele>231.0</ele><time>2026-04-04T16:00:22.152Z</time></trkpt><trkpt lat="45.811151" lon="12.1419202"><ele>230.75</ele><time>2026-04-04T16:00:23.154Z</time></trkpt><trkpt lat="45.811125" lon="12.1420766"><ele>230.5</ele><time>2026-04-04T16:00:24.159Z</time></trkpt><trkpt lat="45.8110903" lon="12.1422406"><ele>230.25</ele><time>2026-04-04T16:00:25.155Z</time></trkpt><trkpt lat="45.8110607" lon="12.1424142"><ele>230.0</ele><time>2026-04-04T16:00:26.152Z</time></trkpt><trkpt lat="45.8110306" lon="12.142591"><ele>230.0</ele><time>2026-04-04T16:00:27.154Z</time></trkpt><trkpt lat="45.8109968" lon="12.1427623"><ele>230.0</ele><time>2026-04-04T16:00:28.147Z</time></trkpt><trkpt lat="45.8109685" lon="12.1429376"><ele>230.0</ele><time>2026-04-04T16:00:29.147Z</time></trkpt><trkpt lat="45.8109367" lon="12.1431155"><ele>230.0</ele><time>2026-04-04T16:00:30.155Z</time></trkpt><trkpt lat="45.8109124" lon="12.1432773"><ele>229.6</ele><time>2026-04-04T16:00:31.145Z</time></trkpt><trkpt lat="45.8108997" lon="12.1434278"><ele>229.2</ele><time>2026-04-04T16:00:32.155Z</time></trkpt><trkpt lat="45.810906" lon="12.1435704"><ele>228.8</ele><time>2026-04-04T16:00:33.16Z</time></trkpt><trkpt lat="45.810928" lon="12.1437067"><ele>228.4</ele><time>2026-04-04T16:00:34.156Z</time></trkpt><trkpt lat="45.8109669" lon="12.1438402"><ele>228.0</ele><time>2026-04-04T16:00:35.151Z</time></trkpt><trkpt lat="45.8110061" lon="12.1439662"><ele>227.2</ele><time>2026-04-04T16:00:36.158Z</time></trkpt><trkpt lat="45.81104" lon="12.1440932"><ele>226.4</ele><time>2026-04-04T16:00:37.16Z</time></trkpt><trkpt lat="45.8110653" lon="12.1442138"><ele>225.59999999999997</ele><time>2026-04-04T16:00:38.157Z</time></trkpt><trkpt lat="45.8110842" lon="12.1443528"><ele>224.79999999999998</ele><time>2026-04-04T16:00:39.15Z</time></trkpt><trkpt lat="45.8111071" lon="12.1444756"><ele>224.0</ele><time>2026-04-04T16:00:40.15Z</time></trkpt><trkpt lat="45.8111473" lon="12.1445996"><ele>224.0</ele><time>2026-04-04T16:00:41.153Z</time></trkpt><trkpt lat="45.8112053" lon="12.1447333"><ele>223.99999999999997</ele><time>2026-04-04T16:00:42.15Z</time></trkpt><trkpt lat="45.8112755" lon="12.1448387"><ele>223.99999999999997</ele><time>2026-04-04T16:00:43.164Z</time></trkpt><trkpt lat="45.8113372" lon="12.1449316"><ele>224.0</ele><time>2026-04-04T16:00:44.155Z</time></trkpt><trkpt lat="45.8113915" lon="12.1450239"><ele>224.0</ele><time>2026-04-04T16:00:45.156Z</time></trkpt><trkpt lat="45.811439" lon="12.1451335"><ele>222.0</ele><time>2026-04-04T16:00:46.153Z</time></trkpt><trkpt lat="45.811459" lon="12.1452584"><ele>219.99999999999997</ele><time>2026-04-04T16:00:47.151Z</time></trkpt><trkpt lat="45.8114814" lon="12.145406"><ele>217.99999999999997</ele><time>2026-04-04T16:00:48.155Z</time></trkpt><trkpt lat="45.8114972" lon="12.1455526"><ele>216.0</ele><time>2026-04-04T16:00:49.158Z</time></trkpt><trkpt lat="45.8114988" lon="12.1456881"><ele>214.0</ele><time>2026-04-04T16:00:50.16Z</time></trkpt><trkpt lat="45.8114687" lon="12.1458051"><ele>212.99999999999997</ele><time>2026-04-04T16:00:51.156Z</time></trkpt><trkpt lat="45.8114508" lon="12.1458993"><ele>212.0</ele><time>2026-04-04T16:00:52.158Z</time></trkpt><trkpt lat="45.8114638" lon="12.1460397"><ele>211.0</ele><time>2026-04-04T16:00:54.153Z</time></trkpt><trkpt lat="45.8115025" lon="12.146116"><ele>210.0</ele><time>2026-04-04T16:00:56.152Z</time></trkpt><trkpt lat="45.811572" lon="12.1460272"><ele>208.99999999999997</ele><time>2026-04-04T16:00:58.154Z</time></trkpt><trkpt lat="45.8116112" lon="12.1458659"><ele>208.0</ele><time>2026-04-04T16:01:00.148Z</time></trkpt><trkpt lat="45.8116297" lon="12.1457485"><ele>208.99999999999997</ele><time>2026-04-04T16:01:01.16Z</time></trkpt><trkpt lat="45.8116578" lon="12.1456582"><ele>210.0</ele><time>2026-04-04T16:01:02.159Z</time></trkpt><trkpt lat="45.811705" lon="12.1455864"><ele>211.0</ele><time>2026-04-04T16:01:03.15Z</time></trkpt><trkpt lat="45.8117607" lon="12.1455402"><ele>212.0</ele><time>2026-04-04T16:01:04.155Z</time></trkpt><trkpt lat="45.8118297" lon="12.1455234"><ele>212.99999999999997</ele><time>2026-04-04T16:01:05.157Z</time></trkpt><trkpt lat="45.8119257" lon="12.1455461"><ele>214.0</ele><time>2026-04-04T16:01:06.152Z</time></trkpt><trkpt lat="45.8120281" lon="12.1455817"><ele>215.6</ele><time>2026-04-04T16:01:07.15Z</time></trkpt><trkpt lat="45.8121202" lon="12.1456175"><ele>217.2</ele><time>2026-04-04T16:01:08.15Z</time></trkpt><trkpt lat="45.8122129" lon="12.1456497"><ele>218.79999999999998</ele><time>2026-04-04T16:01:09.152Z</time></trkpt><trkpt lat="45.8122802" lon="12.1456504"><ele>220.39999999999998</ele><time>2026-04-04T16:01:10.147Z</time></trkpt><trkpt lat="45.8124089" lon="12.1455933"><ele>222.0</ele><time>2026-04-04T16:01:12.157Z</time></trkpt><trkpt lat="45.8124941" lon="12.1455626"><ele>222.0</ele><time>2026-04-04T16:01:13.154Z</time></trkpt><trkpt lat="45.8125775" lon="12.1455645"><ele>222.0</ele><time>2026-04-04T16:01:14.145Z</time></trkpt><trkpt lat="45.8126557" lon="12.1455939"><ele>222.0</ele><time>2026-04-04T16:01:15.156Z</time></trkpt><trkpt lat="45.8127327" lon="12.145675"><ele>222.0</ele><time>2026-04-04T16:01:16.149Z</time></trkpt><trkpt lat="45.8127809" lon="12.1458"><ele>222.0</ele><time>2026-04-04T16:01:17.152Z</time></trkpt><trkpt lat="45.8128188" lon="12.1459318"><ele>220.6</ele><time>2026-04-04T16:01:18.151Z</time></trkpt><trkpt lat="45.8128611" lon="12.1460365"><ele>219.2</ele><time>2026-04-04T16:01:19.155Z</time></trkpt><trkpt lat="45.8129053" lon="12.1461483"><ele>217.8</ele><time>2026-04-04T16:01:20.15Z</time></trkpt><trkpt lat="45.8129706" lon="12.1462373"><ele>216.4</ele><time>2026-04-04T16:01:21.15Z</time></trkpt><trkpt lat="45.8130532" lon="12.1463073"><ele>215.0</ele><time>2026-04-04T16:01:22.15Z</time></trkpt><trkpt lat="45.8131479" lon="12.1463602"><ele>215.0</ele><time>2026-04-04T16:01:23.155Z</time></trkpt><trkpt lat="45.8132422" lon="12.1463999"><ele>215.0</ele><time>2026-04-04T16:01:24.156Z</time></trkpt><trkpt lat="45.813343" lon="12.146413"><ele>215.0</ele><time>2026-04-04T16:01:25.15Z</time></trkpt><trkpt lat="45.8134366" lon="12.1464107"><ele>215.0</ele><time>2026-04-04T16:01:26.157Z</time></trkpt><trkpt lat="45.8135094" lon="12.1464059"><ele>215.0</ele><time>2026-04-04T16:01:27.158Z</time></trkpt><trkpt lat="45.8136249" lon="12.146413"><ele>215.16666666666669</ele><time>2026-04-04T16:01:29.153Z</time></trkpt><trkpt lat="45.8136924" lon="12.1464302"><ele>215.33333333333334</ele><time>2026-04-04T16:01:31.153Z</time></trkpt><trkpt lat="45.8137484" lon="12.146479"><ele>215.5</ele><time>2026-04-04T16:02:20.158Z</time></trkpt><trkpt lat="45.8137129" lon="12.1466186"><ele>215.66666666666669</ele><time>2026-04-04T16:02:23.152Z</time></trkpt><trkpt lat="45.8136525" lon="12.1466888"><ele>215.83333333333334</ele><time>2026-04-04T16:02:24.147Z</time></trkpt><trkpt lat="45.8135697" lon="12.1467844"><ele>216.0</ele><time>2026-04-04T16:02:25.152Z</time></trkpt><trkpt lat="45.8134734" lon="12.1468874"><ele>214.75</ele><time>2026-04-04T16:02:26.153Z</time></trkpt><trkpt lat="45.8133784" lon="12.1469805"><ele>213.5</ele><time>2026-04-04T16:02:27.157Z</time></trkpt><trkpt lat="45.8132824" lon="12.1470716"><ele>212.25</ele><time>2026-04-04T16:02:28.153Z</time></trkpt><trkpt lat="45.8131874" lon="12.1471695"><ele>211.0</ele><time>2026-04-04T16:02:29.157Z</time></trkpt><trkpt lat="45.8130958" lon="12.1472655"><ele>211.0</ele><time>2026-04-04T16:02:30.147Z</time></trkpt><trkpt lat="45.8129949" lon="12.1473666"><ele>211.0</ele><time>2026-04-04T16:02:31.153Z</time></trkpt><trkpt lat="45.8128848" lon="12.1474437"><ele>211.0</ele><time>2026-04-04T16:02:32.15Z</time></trkpt><trkpt lat="45.8127705" lon="12.1474793"><ele>211.0</ele><time>2026-04-04T16:02:33.147Z</time></trkpt><trkpt lat="45.812666" lon="12.1474994"><ele>210.0</ele><time>2026-04-04T16:02:34.162Z</time></trkpt><trkpt lat="45.8125593" lon="12.1475074"><ele>209.0</ele><time>2026-04-04T16:02:35.153Z</time></trkpt><trkpt lat="45.812446" lon="12.1475106"><ele>208.0</ele><time>2026-04-04T16:02:36.15Z</time></trkpt><trkpt lat="45.8123306" lon="12.1475075"><ele>207.0</ele><time>2026-04-04T16:02:37.157Z</time></trkpt><trkpt lat="45.8122161" lon="12.1474999"><ele>207.0</ele><time>2026-04-04T16:02:38.157Z</time></trkpt><trkpt lat="45.8120996" lon="12.1474894"><ele>207.0</ele><time>2026-04-04T16:02:39.151Z</time></trkpt><trkpt lat="45.8119842" lon="12.1474798"><ele>207.0</ele><time>2026-04-04T16:02:40.152Z</time></trkpt><trkpt lat="45.8118726" lon="12.1474723"><ele>207.0</ele><time>2026-04-04T16:02:41.16Z</time></trkpt><trkpt lat="45.811761" lon="12.1474613"><ele>207.5</ele><time>2026-04-04T16:02:42.158Z</time></trkpt><trkpt lat="45.8116481" lon="12.1474481"><ele>208.0</ele><time>2026-04-04T16:02:43.15Z</time></trkpt><trkpt lat="45.8115317" lon="12.1474393"><ele>208.5</ele><time>2026-04-04T16:02:44.189Z</time></trkpt><trkpt lat="45.8114145" lon="12.1474314"><ele>209.0</ele><time>2026-04-04T16:02:45.158Z</time></trkpt><trkpt lat="45.8112957" lon="12.1474171"><ele>209.0</ele><time>2026-04-04T16:02:46.148Z</time></trkpt><trkpt lat="45.8111726" lon="12.1474008"><ele>209.0</ele><time>2026-04-04T16:02:47.153Z</time></trkpt><trkpt lat="45.8110508" lon="12.147391"><ele>209.0</ele><time>2026-04-04T16:02:48.151Z</time></trkpt><trkpt lat="45.8109283" lon="12.1473793"><ele>209.0</ele><time>2026-04-04T16:02:49.156Z</time></trkpt><trkpt lat="45.8108103" lon="12.1473804"><ele>208.0</ele><time>2026-04-04T16:02:50.159Z</time></trkpt><trkpt lat="45.8106797" lon="12.1473904"><ele>207.0</ele><time>2026-04-04T16:02:51.16Z</time></trkpt><trkpt lat="45.8105521" lon="12.1474077"><ele>206.0</ele><time>2026-04-04T16:02:52.156Z</time></trkpt><trkpt lat="45.8104329" lon="12.1474317"><ele>205.0</ele><time>2026-04-04T16:02:53.153Z</time></trkpt><trkpt lat="45.8103156" lon="12.1474613"><ele>205.0</ele><time>2026-04-04T16:02:54.156Z</time></trkpt><trkpt lat="45.8101988" lon="12.14749"><ele>205.0</ele><time>2026-04-04T16:02:55.154Z</time></trkpt><trkpt lat="45.8100831" lon="12.147519"><ele>205.0</ele><time>2026-04-04T16:02:56.157Z</time></trkpt><trkpt lat="45.8099715" lon="12.1475948"><ele>205.0</ele><time>2026-04-04T16:02:57.16Z</time></trkpt><trkpt lat="45.8098788" lon="12.1477035"><ele>204.5</ele><time>2026-04-04T16:02:58.169Z</time></trkpt><trkpt lat="45.8098094" lon="12.147852"><ele>204.0</ele><time>2026-04-04T16:02:59.161Z</time></trkpt><trkpt lat="45.8097409" lon="12.1480057"><ele>203.5</ele><time>2026-04-04T16:03:00.164Z</time></trkpt><trkpt lat="45.8097274" lon="12.1482295"><ele>203.0</ele><time>2026-04-04T16:03:01.151Z</time></trkpt><trkpt lat="45.8097128" lon="12.1484988"><ele>203.0</ele><time>2026-04-04T16:03:02.155Z</time></trkpt><trkpt lat="45.8096968" lon="12.148802"><ele>203.0</ele><time>2026-04-04T16:03:03.159Z</time></trkpt><trkpt lat="45.8096823" lon="12.1490901"><ele>203.0</ele><time>2026-04-04T16:03:04.148Z</time></trkpt><trkpt lat="45.8096669" lon="12.1493615"><ele>200.0</ele><time>2026-04-04T16:03:05.15Z</time></trkpt><trkpt lat="45.8096478" lon="12.1496142"><ele>197.0</ele><time>2026-04-04T16:03:06.153Z</time></trkpt><trkpt lat="45.8096161" lon="12.1498542"><ele>194.0</ele><time>2026-04-04T16:03:07.158Z</time></trkpt><trkpt lat="45.809571" lon="12.1500763"><ele>193.75</ele><time>2026-04-04T16:03:08.149Z</time></trkpt><trkpt lat="45.8095128" lon="12.1502819"><ele>193.5</ele><time>2026-04-04T16:03:09.163Z</time></trkpt><trkpt lat="45.8094514" lon="12.1504683"><ele>193.25</ele><time>2026-04-04T16:03:10.199Z</time></trkpt><trkpt lat="45.8093896" lon="12.1506459"><ele>193.0</ele><time>2026-04-04T16:03:11.176Z</time></trkpt><trkpt lat="45.8093291" lon="12.1508218"><ele>192.25</ele><time>2026-04-04T16:03:12.148Z</time></trkpt><trkpt lat="45.8092746" lon="12.1509982"><ele>191.5</ele><time>2026-04-04T16:03:13.16Z</time></trkpt><trkpt lat="45.8092236" lon="12.1511757"><ele>190.75</ele><time>2026-04-04T16:03:14.159Z</time></trkpt><trkpt lat="45.8091745" lon="12.1513501"><ele>190.0</ele><time>2026-04-04T16:03:15.16Z</time></trkpt><trkpt lat="45.8091243" lon="12.1515264"><ele>189.5</ele><time>2026-04-04T16:03:16.152Z</time></trkpt><trkpt lat="45.8090763" lon="12.1517038"><ele>189.0</ele><time>2026-04-04T16:03:17.151Z</time></trkpt><trkpt lat="45.8090293" lon="12.1518816"><ele>188.5</ele><time>2026-04-04T16:03:18.16Z</time></trkpt><trkpt lat="45.8089826" lon="12.1520619"><ele>188.0</ele><time>2026-04-04T16:03:19.161Z</time></trkpt><trkpt lat="45.8089327" lon="12.1522426"><ele>186.25</ele><time>2026-04-04T16:03:20.154Z</time></trkpt><trkpt lat="45.8088835" lon="12.1524173"><ele>184.5</ele><time>2026-04-04T16:03:21.155Z</time></trkpt><trkpt lat="45.8088409" lon="12.1525734"><ele>182.75</ele><time>2026-04-04T16:03:22.156Z</time></trkpt><trkpt lat="45.8087949" lon="12.1527275"><ele>181.0</ele><time>2026-04-04T16:03:23.152Z</time></trkpt><trkpt lat="45.8087538" lon="12.1528776"><ele>181.0</ele><time>2026-04-04T16:03:24.16Z</time></trkpt><trkpt lat="45.8087106" lon="12.1530133"><ele>181.0</ele><time>2026-04-04T16:03:25.162Z</time></trkpt><trkpt lat="45.808663" lon="12.1531497"><ele>181.0</ele><time>2026-04-04T16:03:26.156Z</time></trkpt><trkpt lat="45.8086201" lon="12.1532919"><ele>181.0</ele><time>2026-04-04T16:03:27.155Z</time></trkpt><trkpt lat="45.8085722" lon="12.1534226"><ele>181.0</ele><time>2026-04-04T16:03:28.16Z</time></trkpt><trkpt lat="45.8085044" lon="12.1535363"><ele>180.0</ele><time>2026-04-04T16:03:29.155Z</time></trkpt><trkpt lat="45.8084468" lon="12.1536376"><ele>179.0</ele><time>2026-04-04T16:03:30.159Z</time></trkpt><trkpt lat="45.8083546" lon="12.1536807"><ele>178.0</ele><time>2026-04-04T16:03:31.15Z</time></trkpt><trkpt lat="45.8082528" lon="12.1536917"><ele>177.0</ele><time>2026-04-04T16:03:32.153Z</time></trkpt><trkpt lat="45.8081449" lon="12.1536699"><ele>176.0</ele><time>2026-04-04T16:03:33.168Z</time></trkpt><trkpt lat="45.8080392" lon="12.153632"><ele>176.0</ele><time>2026-04-04T16:03:34.154Z</time></trkpt><trkpt lat="45.8079293" lon="12.1535754"><ele>176.0</ele><time>2026-04-04T16:03:35.152Z</time></trkpt><trkpt lat="45.8078245" lon="12.1535282"><ele>176.0</ele><time>2026-04-04T16:03:36.152Z</time></trkpt><trkpt lat="45.8077131" lon="12.1534626"><ele>176.0</ele><time>2026-04-04T16:03:37.146Z</time></trkpt><trkpt lat="45.8075935" lon="12.1534072"><ele>176.0</ele><time>2026-04-04T16:03:38.154Z</time></trkpt><trkpt lat="45.8074683" lon="12.1533498"><ele>176.0</ele><time>2026-04-04T16:03:39.153Z</time></trkpt><trkpt lat="45.8073455" lon="12.1532898"><ele>176.0</ele><time>2026-04-04T16:03:40.157Z</time></trkpt><trkpt lat="45.8072141" lon="12.1532293"><ele>176.0</ele><time>2026-04-04T16:03:41.153Z</time></trkpt><trkpt lat="45.8070844" lon="12.1531822"><ele>176.0</ele><time>2026-04-04T16:03:42.149Z</time></trkpt><trkpt lat="45.8069532" lon="12.1531671"><ele>176.0</ele><time>2026-04-04T16:03:43.148Z</time></trkpt><trkpt lat="45.8068381" lon="12.1531696"><ele>176.0</ele><time>2026-04-04T16:03:44.159Z</time></trkpt><trkpt lat="45.806715" lon="12.1532136"><ele>176.0</ele><time>2026-04-04T16:03:45.161Z</time></trkpt><trkpt lat="45.8065944" lon="12.1532719"><ele>174.75</ele><time>2026-04-04T16:03:46.146Z</time></trkpt><trkpt lat="45.8064758" lon="12.1533413"><ele>173.5</ele><time>2026-04-04T16:03:47.142Z</time></trkpt><trkpt lat="45.8063654" lon="12.1534354"><ele>172.25</ele><time>2026-04-04T16:03:48.154Z</time></trkpt><trkpt lat="45.8062634" lon="12.15354"><ele>171.0</ele><time>2026-04-04T16:03:49.153Z</time></trkpt><trkpt lat="45.8061661" lon="12.1536512"><ele>171.0</ele><time>2026-04-04T16:03:50.145Z</time></trkpt><trkpt lat="45.8060711" lon="12.15377"><ele>171.0</ele><time>2026-04-04T16:03:51.146Z</time></trkpt><trkpt lat="45.8059806" lon="12.153895"><ele>171.0</ele><time>2026-04-04T16:03:52.15Z</time></trkpt><trkpt lat="45.805899" lon="12.1540258"><ele>171.0</ele><time>2026-04-04T16:03:53.15Z</time></trkpt><trkpt lat="45.8058215" lon="12.154164"><ele>169.0</ele><time>2026-04-04T16:03:54.152Z</time></trkpt><trkpt lat="45.8057544" lon="12.1543197"><ele>167.0</ele><time>2026-04-04T16:03:55.152Z</time></trkpt><trkpt lat="45.8056998" lon="12.154489"><ele>165.0</ele><time>2026-04-04T16:03:56.151Z</time></trkpt><trkpt lat="45.8056492" lon="12.1546615"><ele>163.0</ele><time>2026-04-04T16:03:57.152Z</time></trkpt><trkpt lat="45.8055985" lon="12.1548463"><ele>162.5</ele><time>2026-04-04T16:03:58.16Z</time></trkpt><trkpt lat="45.8055483" lon="12.1550387"><ele>162.0</ele><time>2026-04-04T16:03:59.152Z</time></trkpt><trkpt lat="45.8055002" lon="12.1552376"><ele>161.5</ele><time>2026-04-04T16:04:00.156Z</time></trkpt><trkpt lat="45.805442" lon="12.1554348"><ele>161.0</ele><time>2026-04-04T16:04:01.162Z</time></trkpt><trkpt lat="45.8053814" lon="12.1556317"><ele>159.75</ele><time>2026-04-04T16:04:02.15Z</time></trkpt><trkpt lat="45.8053229" lon="12.1558266"><ele>158.5</ele><time>2026-04-04T16:04:03.15Z</time></trkpt><trkpt lat="45.8052665" lon="12.1560143"><ele>157.25</ele><time>2026-04-04T16:04:04.157Z</time></trkpt><trkpt lat="45.8052142" lon="12.1561981"><ele>156.0</ele><time>2026-04-04T16:04:05.145Z</time></trkpt><trkpt lat="45.8051617" lon="12.1563842"><ele>151.75</ele><time>2026-04-04T16:04:06.158Z</time></trkpt><trkpt lat="45.8051091" lon="12.1565701"><ele>147.5</ele><time>2026-04-04T16:04:07.164Z</time></trkpt><trkpt lat="45.8050577" lon="12.1567523"><ele>143.25</ele><time>2026-04-04T16:04:08.19Z</time></trkpt><trkpt lat="45.8050093" lon="12.1569283"><ele>139.0</ele><time>2026-04-04T16:04:09.158Z</time></trkpt><trkpt lat="45.804953" lon="12.1571021"><ele>139.0</ele><time>2026-04-04T16:04:10.153Z</time></trkpt><trkpt lat="45.804884" lon="12.1572664"><ele>139.0</ele><time>2026-04-04T16:04:11.149Z</time></trkpt><trkpt lat="45.8048028" lon="12.1574149"><ele>139.0</ele><time>2026-04-04T16:04:12.152Z</time></trkpt><trkpt lat="45.8047086" lon="12.1575459"><ele>139.0</ele><time>2026-04-04T16:04:13.158Z</time></trkpt><trkpt lat="45.804605" lon="12.1576715"><ele>138.0</ele><time>2026-04-04T16:04:14.152Z</time></trkpt><trkpt lat="45.804496" lon="12.1577939"><ele>137.0</ele><time>2026-04-04T16:04:15.15Z</time></trkpt><trkpt lat="45.8043873" lon="12.1579119"><ele>136.0</ele><time>2026-04-04T16:04:16.146Z</time></trkpt><trkpt lat="45.8042796" lon="12.1580238"><ele>135.0</ele><time>2026-04-04T16:04:17.152Z</time></trkpt><trkpt lat="45.8041749" lon="12.1581348"><ele>133.25</ele><time>2026-04-04T16:04:18.149Z</time></trkpt><trkpt lat="45.8040663" lon="12.158228"><ele>131.5</ele><time>2026-04-04T16:04:19.153Z</time></trkpt><trkpt lat="45.8039497" lon="12.1583169"><ele>129.75</ele><time>2026-04-04T16:04:20.152Z</time></trkpt><trkpt lat="45.8038323" lon="12.1583892"><ele>128.0</ele><time>2026-04-04T16:04:21.153Z</time></trkpt><trkpt lat="45.8037071" lon="12.1584485"><ele>128.0</ele><time>2026-04-04T16:04:22.148Z</time></trkpt><trkpt lat="45.8035735" lon="12.1585004"><ele>128.0</ele><time>2026-04-04T16:04:23.154Z</time></trkpt><trkpt lat="45.803437" lon="12.1585502"><ele>128.0</ele><time>2026-04-04T16:04:24.165Z</time></trkpt><trkpt lat="45.8033007" lon="12.1585938"><ele>128.0</ele><time>2026-04-04T16:04:25.154Z</time></trkpt><trkpt lat="45.8031653" lon="12.1586421"><ele>126.5</ele><time>2026-04-04T16:04:26.145Z</time></trkpt><trkpt lat="45.803031" lon="12.1586923"><ele>125.0</ele><time>2026-04-04T16:04:27.148Z</time></trkpt><trkpt lat="45.8028956" lon="12.1587398"><ele>123.5</ele><time>2026-04-04T16:04:28.149Z</time></trkpt><trkpt lat="45.8027546" lon="12.1587892"><ele>122.0</ele><time>2026-04-04T16:04:29.154Z</time></trkpt><trkpt lat="45.8026061" lon="12.1588399"><ele>119.33333333333333</ele><time>2026-04-04T16:04:30.175Z</time></trkpt><trkpt lat="45.8024557" lon="12.1588893"><ele>116.66666666666666</ele><time>2026-04-04T16:04:31.152Z</time></trkpt><trkpt lat="45.8023074" lon="12.1589387"><ele>114.0</ele><time>2026-04-04T16:04:32.151Z</time></trkpt><trkpt lat="45.8021666" lon="12.1589916"><ele>114.75</ele><time>2026-04-04T16:04:33.154Z</time></trkpt><trkpt lat="45.8020328" lon="12.1590643"><ele>115.5</ele><time>2026-04-04T16:04:34.165Z</time></trkpt><trkpt lat="45.8019052" lon="12.1591638"><ele>116.25</ele><time>2026-04-04T16:04:35.157Z</time></trkpt><trkpt lat="45.8017751" lon="12.1592805"><ele>117.0</ele><time>2026-04-04T16:04:36.157Z</time></trkpt><trkpt lat="45.8016508" lon="12.1594099"><ele>114.25</ele><time>2026-04-04T16:04:37.154Z</time></trkpt><trkpt lat="45.8015318" lon="12.1595336"><ele>111.5</ele><time>2026-04-04T16:04:38.152Z</time></trkpt><trkpt lat="45.8014188" lon="12.1596552"><ele>108.75</ele><time>2026-04-04T16:04:39.153Z</time></trkpt><trkpt lat="45.8013058" lon="12.1597752"><ele>106.0</ele><time>2026-04-04T16:04:40.156Z</time></trkpt><trkpt lat="45.8011942" lon="12.1598922"><ele>105.75</ele><time>2026-04-04T16:04:41.161Z</time></trkpt><trkpt lat="45.8010878" lon="12.1600078"><ele>105.5</ele><time>2026-04-04T16:04:42.146Z</time></trkpt><trkpt lat="45.8009826" lon="12.160118"><ele>105.25</ele><time>2026-04-04T16:04:43.154Z</time></trkpt><trkpt lat="45.8008769" lon="12.1602295"><ele>105.0</ele><time>2026-04-04T16:04:44.166Z</time></trkpt><trkpt lat="45.8007717" lon="12.1603404"><ele>103.5</ele><time>2026-04-04T16:04:45.155Z</time></trkpt><trkpt lat="45.80067" lon="12.1604477"><ele>102.0</ele><time>2026-04-04T16:04:46.152Z</time></trkpt><trkpt lat="45.8005727" lon="12.160556"><ele>100.5</ele><time>2026-04-04T16:04:47.164Z</time></trkpt><trkpt lat="45.8004804" lon="12.1606705"><ele>99.0</ele><time>2026-04-04T16:04:48.155Z</time></trkpt><trkpt lat="45.8003925" lon="12.1607918"><ele>99.0</ele><time>2026-04-04T16:04:49.156Z</time></trkpt><trkpt lat="45.8003115" lon="12.1609059"><ele>99.0</ele><time>2026-04-04T16:04:50.158Z</time></trkpt><trkpt lat="45.8002361" lon="12.1610072"><ele>99.0</ele><time>2026-04-04T16:04:51.15Z</time></trkpt><trkpt lat="45.8001627" lon="12.1611027"><ele>99.0</ele><time>2026-04-04T16:04:52.151Z</time></trkpt><trkpt lat="45.8000903" lon="12.1611975"><ele>99.0</ele><time>2026-04-04T16:04:53.156Z</time></trkpt><trkpt lat="45.800022" lon="12.161288"><ele>97.16666666666667</ele><time>2026-04-04T16:04:54.156Z</time></trkpt><trkpt lat="45.7999571" lon="12.1613715"><ele>95.33333333333333</ele><time>2026-04-04T16:04:55.157Z</time></trkpt><trkpt lat="45.799892" lon="12.1614553"><ele>93.5</ele><time>2026-04-04T16:04:56.161Z</time></trkpt><trkpt lat="45.7998309" lon="12.1615317"><ele>91.66666666666666</ele><time>2026-04-04T16:04:57.155Z</time></trkpt><trkpt lat="45.7997737" lon="12.1616018"><ele>89.83333333333333</ele><time>2026-04-04T16:04:58.15Z</time></trkpt><trkpt lat="45.7997223" lon="12.1616617"><ele>88.0</ele><time>2026-04-04T16:04:59.155Z</time></trkpt><trkpt lat="45.7996157" lon="12.1617488"><ele>88.0</ele><time>2026-04-04T16:05:01.169Z</time></trkpt><trkpt lat="45.7995468" lon="12.1618113"><ele>88.0</ele><time>2026-04-04T16:05:02.159Z</time></trkpt><trkpt lat="45.7994734" lon="12.1619001"><ele>88.0</ele><time>2026-04-04T16:05:03.155Z</time></trkpt><trkpt lat="45.7993892" lon="12.1619938"><ele>88.0</ele><time>2026-04-04T16:05:04.154Z</time></trkpt><trkpt lat="45.7992919" lon="12.1620706"><ele>88.0</ele><time>2026-04-04T16:05:05.161Z</time></trkpt><trkpt lat="45.7991845" lon="12.1621303"><ele>85.75</ele><time>2026-04-04T16:05:06.154Z</time></trkpt><trkpt lat="45.7990707" lon="12.1621788"><ele>83.5</ele><time>2026-04-04T16:05:07.165Z</time></trkpt><trkpt lat="45.7989529" lon="12.1622189"><ele>81.25</ele><time>2026-04-04T16:05:08.156Z</time></trkpt><trkpt lat="45.7988344" lon="12.1622518"><ele>79.0</ele><time>2026-04-04T16:05:09.156Z</time></trkpt><trkpt lat="45.7987154" lon="12.1622849"><ele>79.0</ele><time>2026-04-04T16:05:10.155Z</time></trkpt><trkpt lat="45.7985969" lon="12.1623195"><ele>79.0</ele><time>2026-04-04T16:05:11.153Z</time></trkpt><trkpt lat="45.7984808" lon="12.1623481"><ele>79.0</ele><time>2026-04-04T16:05:12.152Z</time></trkpt><trkpt lat="45.7983668" lon="12.1623803"><ele>79.0</ele><time>2026-04-04T16:05:13.15Z</time></trkpt><trkpt lat="45.7982578" lon="12.1624108"><ele>79.0</ele><time>2026-04-04T16:05:14.151Z</time></trkpt><trkpt lat="45.7981812" lon="12.1624308"><ele>79.0</ele><time>2026-04-04T16:05:15.149Z</time></trkpt><trkpt lat="45.798116" lon="12.1624461"><ele>79.0</ele><time>2026-04-04T16:05:16.16Z</time></trkpt><trkpt lat="45.7980236" lon="12.1624619"><ele>79.0</ele><time>2026-04-04T16:05:18.145Z</time></trkpt><trkpt lat="45.7979596" lon="12.1624667"><ele>79.0</ele><time>2026-04-04T16:05:20.16Z</time></trkpt><trkpt lat="45.7979033" lon="12.1624212"><ele>79.0</ele><time>2026-04-04T16:05:22.159Z</time></trkpt></trkseg><trkseg><trkpt lat="45.7978635" lon="12.1625124"><ele>79.0</ele><time>2026-04-04T16:15:38.411Z</time></trkpt><trkpt lat="45.797811" lon="12.1625816"><ele>79.0</ele><time>2026-04-04T16:15:40.42Z</time></trkpt><trkpt lat="45.7976873" lon="12.1626131"><ele>79.0</ele><time>2026-04-04T16:15:42.433Z</time></trkpt><trkpt lat="45.7976118" lon="12.162625"><ele>79.0</ele><time>2026-04-04T16:15:43.427Z</time></trkpt><trkpt lat="45.7975286" lon="12.1626322"><ele>79.0</ele><time>2026-04-04T16:15:44.425Z</time></trkpt><trkpt lat="45.7974389" lon="12.1626351"><ele>79.0</ele><time>2026-04-04T16:15:45.425Z</time></trkpt><trkpt lat="45.7973437" lon="12.1626221"><ele>78.8</ele><time>2026-04-04T16:15:46.433Z</time></trkpt><trkpt lat="45.797249" lon="12.162602"><ele>78.60000000000001</ele><time>2026-04-04T16:15:47.426Z</time></trkpt><trkpt lat="45.7971547" lon="12.1625811"><ele>78.4</ele><time>2026-04-04T16:15:48.427Z</time></trkpt><trkpt lat="45.7970517" lon="12.1625591"><ele>78.2</ele><time>2026-04-04T16:15:49.42Z</time></trkpt><trkpt lat="45.7969438" lon="12.162536"><ele>78.0</ele><time>2026-04-04T16:15:50.435Z</time></trkpt><trkpt lat="45.7968361" lon="12.1625139"><ele>77.75</ele><time>2026-04-04T16:15:51.437Z</time></trkpt><trkpt lat="45.7967262" lon="12.1624927"><ele>77.5</ele><time>2026-04-04T16:15:52.425Z</time></trkpt><trkpt lat="45.7966128" lon="12.1624746"><ele>77.25</ele><time>2026-04-04T16:15:53.433Z</time></trkpt><trkpt lat="45.7965007" lon="12.1624562"><ele>77.0</ele><time>2026-04-04T16:15:54.426Z</time></trkpt><trkpt lat="45.7963856" lon="12.1624356"><ele>77.0</ele><time>2026-04-04T16:15:55.423Z</time></trkpt><trkpt lat="45.7962715" lon="12.1624137"><ele>77.0</ele><time>2026-04-04T16:15:56.431Z</time></trkpt><trkpt lat="45.796156" lon="12.1623926"><ele>77.0</ele><time>2026-04-04T16:15:57.427Z</time></trkpt><trkpt lat="45.7960376" lon="12.1623732"><ele>77.0</ele><time>2026-04-04T16:15:58.428Z</time></trkpt><trkpt lat="45.795918" lon="12.1623588"><ele>77.0</ele><time>2026-04-04T16:15:59.425Z</time></trkpt><trkpt lat="45.7957975" lon="12.1623516"><ele>77.0</ele><time>2026-04-04T16:16:00.428Z</time></trkpt><trkpt lat="45.7956752" lon="12.1623577"><ele>77.0</ele><time>2026-04-04T16:16:01.42Z</time></trkpt><trkpt lat="45.7955534" lon="12.1623864"><ele>77.0</ele><time>2026-04-04T16:16:02.431Z</time></trkpt><trkpt lat="45.7954386" lon="12.1624304"><ele>77.0</ele><time>2026-04-04T16:16:03.417Z</time></trkpt><trkpt lat="45.7953282" lon="12.1624821"><ele>77.0</ele><time>2026-04-04T16:16:04.447Z</time></trkpt><trkpt lat="45.7952158" lon="12.162538"><ele>77.0</ele><time>2026-04-04T16:16:05.418Z</time></trkpt><trkpt lat="45.7951015" lon="12.1625972"><ele>77.0</ele><time>2026-04-04T16:16:06.433Z</time></trkpt><trkpt lat="45.7949834" lon="12.1626582"><ele>76.75</ele><time>2026-04-04T16:16:07.438Z</time></trkpt><trkpt lat="45.7948639" lon="12.1627196"><ele>76.5</ele><time>2026-04-04T16:16:08.421Z</time></trkpt><trkpt lat="45.7947444" lon="12.1627809"><ele>76.25</ele><time>2026-04-04T16:16:09.428Z</time></trkpt><trkpt lat="45.7946253" lon="12.1628433"><ele>76.0</ele><time>2026-04-04T16:16:10.422Z</time></trkpt><trkpt lat="45.7945072" lon="12.1629048"><ele>76.0</ele><time>2026-04-04T16:16:11.435Z</time></trkpt><trkpt lat="45.7943883" lon="12.1629672"><ele>76.0</ele><time>2026-04-04T16:16:12.426Z</time></trkpt><trkpt lat="45.7942694" lon="12.163031"><ele>76.0</ele><time>2026-04-04T16:16:13.433Z</time></trkpt><trkpt lat="45.7941495" lon="12.1630949"><ele>76.0</ele><time>2026-04-04T16:16:14.424Z</time></trkpt><trkpt lat="45.7940283" lon="12.163158"><ele>76.25</ele><time>2026-04-04T16:16:15.428Z</time></trkpt><trkpt lat="45.7939083" lon="12.163223"><ele>76.5</ele><time>2026-04-04T16:16:16.437Z</time></trkpt><trkpt lat="45.7937889" lon="12.1632929"><ele>76.75</ele><time>2026-04-04T16:16:17.426Z</time></trkpt><trkpt lat="45.7936735" lon="12.1633703"><ele>77.0</ele><time>2026-04-04T16:16:18.417Z</time></trkpt><trkpt lat="45.7935693" lon="12.1634529"><ele>76.6</ele><time>2026-04-04T16:16:19.421Z</time></trkpt><trkpt lat="45.7934703" lon="12.1635321"><ele>76.2</ele><time>2026-04-04T16:16:20.422Z</time></trkpt><trkpt lat="45.7933851" lon="12.1636132"><ele>75.8</ele><time>2026-04-04T16:16:21.431Z</time></trkpt><trkpt lat="45.7932995" lon="12.1637008"><ele>75.4</ele><time>2026-04-04T16:16:22.421Z</time></trkpt><trkpt lat="45.7932114" lon="12.1637851"><ele>75.0</ele><time>2026-04-04T16:16:23.42Z</time></trkpt><trkpt lat="45.7931346" lon="12.1638581"><ele>75.0</ele><time>2026-04-04T16:16:24.429Z</time></trkpt><trkpt lat="45.7930621" lon="12.163931"><ele>75.0</ele><time>2026-04-04T16:16:25.438Z</time></trkpt><trkpt lat="45.792997" lon="12.1639957"><ele>75.0</ele><time>2026-04-04T16:16:26.431Z</time></trkpt><trkpt lat="45.7929382" lon="12.1640547"><ele>75.0</ele><time>2026-04-04T16:16:27.429Z</time></trkpt><trkpt lat="45.7928478" lon="12.1641402"><ele>75.0</ele><time>2026-04-04T16:16:29.42Z</time></trkpt><trkpt lat="45.7927842" lon="12.1641787"><ele>75.0</ele><time>2026-04-04T16:16:31.427Z</time></trkpt><trkpt lat="45.7926101" lon="12.1643051"><ele>74.6</ele><time>2026-04-04T16:17:25.425Z</time></trkpt><trkpt lat="45.792526" lon="12.1643814"><ele>74.2</ele><time>2026-04-04T16:17:26.422Z</time></trkpt><trkpt lat="45.792442" lon="12.1644636"><ele>73.8</ele><time>2026-04-04T16:17:27.427Z</time></trkpt><trkpt lat="45.7923591" lon="12.1645709"><ele>73.4</ele><time>2026-04-04T16:17:28.433Z</time></trkpt><trkpt lat="45.7922733" lon="12.1646837"><ele>73.0</ele><time>2026-04-04T16:17:29.426Z</time></trkpt><trkpt lat="45.7921823" lon="12.1647917"><ele>73.0</ele><time>2026-04-04T16:17:30.435Z</time></trkpt><trkpt lat="45.7920868" lon="12.1649006"><ele>73.0</ele><time>2026-04-04T16:17:31.439Z</time></trkpt><trkpt lat="45.7919884" lon="12.1650077"><ele>73.0</ele><time>2026-04-04T16:17:32.436Z</time></trkpt><trkpt lat="45.7918955" lon="12.1651066"><ele>73.0</ele><time>2026-04-04T16:17:33.415Z</time></trkpt><trkpt lat="45.791809" lon="12.1652008"><ele>73.0</ele><time>2026-04-04T16:17:34.433Z</time></trkpt><trkpt lat="45.7917243" lon="12.1653032"><ele>73.0</ele><time>2026-04-04T16:17:35.434Z</time></trkpt><trkpt lat="45.7916441" lon="12.1654221"><ele>73.0</ele><time>2026-04-04T16:17:36.429Z</time></trkpt><trkpt lat="45.7915755" lon="12.1655614"><ele>73.0</ele><time>2026-04-04T16:17:37.432Z</time></trkpt><trkpt lat="45.7915173" lon="12.1657177"><ele>73.0</ele><time>2026-04-04T16:17:38.432Z</time></trkpt><trkpt lat="45.7914644" lon="12.1658851"><ele>73.0</ele><time>2026-04-04T16:17:39.439Z</time></trkpt><trkpt lat="45.7914114" lon="12.1660517"><ele>73.0</ele><time>2026-04-04T16:17:40.43Z</time></trkpt><trkpt lat="45.7913629" lon="12.1662199"><ele>73.0</ele><time>2026-04-04T16:17:41.425Z</time></trkpt><trkpt lat="45.7913159" lon="12.1663866"><ele>72.2</ele><time>2026-04-04T16:17:42.429Z</time></trkpt><trkpt lat="45.7912683" lon="12.1665524"><ele>71.4</ele><time>2026-04-04T16:17:43.436Z</time></trkpt><trkpt lat="45.7912233" lon="12.1667069"><ele>70.60000000000001</ele><time>2026-04-04T16:17:44.426Z</time></trkpt><trkpt lat="45.7911859" lon="12.1668415"><ele>69.8</ele><time>2026-04-04T16:17:45.41Z</time></trkpt><trkpt lat="45.7911467" lon="12.1669704"><ele>69.0</ele><time>2026-04-04T16:17:46.41Z</time></trkpt><trkpt lat="45.7910987" lon="12.1671059"><ele>69.0</ele><time>2026-04-04T16:17:47.43Z</time></trkpt><trkpt lat="45.7910381" lon="12.1672491"><ele>69.0</ele><time>2026-04-04T16:17:48.415Z</time></trkpt><trkpt lat="45.7909658" lon="12.1673994"><ele>69.0</ele><time>2026-04-04T16:17:49.423Z</time></trkpt><trkpt lat="45.7908845" lon="12.1675608"><ele>69.0</ele><time>2026-04-04T16:17:50.419Z</time></trkpt><trkpt lat="45.7907992" lon="12.1677208"><ele>69.0</ele><time>2026-04-04T16:17:51.426Z</time></trkpt><trkpt lat="45.7907147" lon="12.1678804"><ele>69.0</ele><time>2026-04-04T16:17:52.428Z</time></trkpt><trkpt lat="45.7906287" lon="12.1680409"><ele>69.0</ele><time>2026-04-04T16:17:53.429Z</time></trkpt><trkpt lat="45.7905404" lon="12.1682"><ele>69.0</ele><time>2026-04-04T16:17:54.45Z</time></trkpt><trkpt lat="45.7904539" lon="12.1683611"><ele>68.75</ele><time>2026-04-04T16:17:55.434Z</time></trkpt><trkpt lat="45.7903675" lon="12.1685247"><ele>68.5</ele><time>2026-04-04T16:17:56.424Z</time></trkpt><trkpt lat="45.7902815" lon="12.168688"><ele>68.25</ele><time>2026-04-04T16:17:57.422Z</time></trkpt><trkpt lat="45.7901971" lon="12.1688563"><ele>68.0</ele><time>2026-04-04T16:17:58.414Z</time></trkpt><trkpt lat="45.790115" lon="12.1690324"><ele>68.66666666666667</ele><time>2026-04-04T16:17:59.429Z</time></trkpt><trkpt lat="45.7900392" lon="12.1692172"><ele>69.33333333333333</ele><time>2026-04-04T16:18:00.432Z</time></trkpt><trkpt lat="45.7899686" lon="12.1694088"><ele>70.0</ele><time>2026-04-04T16:18:01.424Z</time></trkpt><trkpt lat="45.7899001" lon="12.1696036"><ele>70.0</ele><time>2026-04-04T16:18:02.444Z</time></trkpt><trkpt lat="45.7898339" lon="12.1697976"><ele>70.0</ele><time>2026-04-04T16:18:03.418Z</time></trkpt><trkpt lat="45.789769" lon="12.1699893"><ele>70.0</ele><time>2026-04-04T16:18:04.425Z</time></trkpt><trkpt lat="45.7897081" lon="12.1701716"><ele>70.0</ele><time>2026-04-04T16:18:05.424Z</time></trkpt><trkpt lat="45.7896511" lon="12.1703436"><ele>69.6</ele><time>2026-04-04T16:18:06.413Z</time></trkpt><trkpt lat="45.7895983" lon="12.1705027"><ele>69.2</ele><time>2026-04-04T16:18:07.421Z</time></trkpt><trkpt lat="45.7895506" lon="12.170645"><ele>68.8</ele><time>2026-04-04T16:18:08.429Z</time></trkpt><trkpt lat="45.7895087" lon="12.1707668"><ele>68.4</ele><time>2026-04-04T16:18:09.428Z</time></trkpt><trkpt lat="45.789474" lon="12.170872"><ele>68.0</ele><time>2026-04-04T16:18:10.429Z</time></trkpt><trkpt lat="45.7894422" lon="12.1709853"><ele>68.0</ele><time>2026-04-04T16:18:11.429Z</time></trkpt><trkpt lat="45.7894129" lon="12.1711013"><ele>68.0</ele><time>2026-04-04T16:18:12.422Z</time></trkpt><trkpt lat="45.7893687" lon="12.1712424"><ele>68.0</ele><time>2026-04-04T16:18:13.414Z</time></trkpt><trkpt lat="45.7893217" lon="12.1713996"><ele>68.0</ele><time>2026-04-04T16:18:14.449Z</time></trkpt><trkpt lat="45.7892691" lon="12.171571"><ele>68.0</ele><time>2026-04-04T16:18:15.424Z</time></trkpt><trkpt lat="45.7892154" lon="12.1717447"><ele>68.25</ele><time>2026-04-04T16:18:16.425Z</time></trkpt><trkpt lat="45.789159" lon="12.1719248"><ele>68.5</ele><time>2026-04-04T16:18:17.43Z</time></trkpt><trkpt lat="45.7891028" lon="12.1721033"><ele>68.75</ele><time>2026-04-04T16:18:18.436Z</time></trkpt><trkpt lat="45.7890467" lon="12.1722862"><ele>69.0</ele><time>2026-04-04T16:18:19.426Z</time></trkpt><trkpt lat="45.7889854" lon="12.1724608"><ele>69.0</ele><time>2026-04-04T16:18:20.431Z</time></trkpt><trkpt lat="45.788933" lon="12.1726466"><ele>69.0</ele><time>2026-04-04T16:18:21.432Z</time></trkpt><trkpt lat="45.7888745" lon="12.1728378"><ele>69.0</ele><time>2026-04-04T16:18:22.426Z</time></trkpt><trkpt lat="45.7888108" lon="12.1730253"><ele>69.0</ele><time>2026-04-04T16:18:23.43Z</time></trkpt><trkpt lat="45.788744" lon="12.1732111"><ele>68.66666666666667</ele><time>2026-04-04T16:18:24.431Z</time></trkpt><trkpt lat="45.7886751" lon="12.1734007"><ele>68.33333333333334</ele><time>2026-04-04T16:18:25.434Z</time></trkpt><trkpt lat="45.7886087" lon="12.1735952"><ele>68.0</ele><time>2026-04-04T16:18:26.429Z</time></trkpt><trkpt lat="45.7885442" lon="12.1737888"><ele>67.75</ele><time>2026-04-04T16:18:27.425Z</time></trkpt><trkpt lat="45.7884781" lon="12.1739819"><ele>67.5</ele><time>2026-04-04T16:18:28.424Z</time></trkpt><trkpt lat="45.7884173" lon="12.1741632"><ele>67.25</ele><time>2026-04-04T16:18:29.429Z</time></trkpt><trkpt lat="45.7883636" lon="12.1743259"><ele>67.0</ele><time>2026-04-04T16:18:30.427Z</time></trkpt><trkpt lat="45.7883093" lon="12.174485"><ele>67.0</ele><time>2026-04-04T16:18:31.434Z</time></trkpt><trkpt lat="45.7882545" lon="12.1746411"><ele>67.0</ele><time>2026-04-04T16:18:32.428Z</time></trkpt><trkpt lat="45.7882021" lon="12.1747905"><ele>67.0</ele><time>2026-04-04T16:18:33.42Z</time></trkpt><trkpt lat="45.7881429" lon="12.1749404"><ele>67.0</ele><time>2026-04-04T16:18:34.426Z</time></trkpt><trkpt lat="45.7880785" lon="12.1750912"><ele>67.0</ele><time>2026-04-04T16:18:35.414Z</time></trkpt><trkpt lat="45.7880069" lon="12.1752354"><ele>67.0</ele><time>2026-04-04T16:18:36.424Z</time></trkpt><trkpt lat="45.787928" lon="12.1753727"><ele>67.0</ele><time>2026-04-04T16:18:37.411Z</time></trkpt><trkpt lat="45.7878415" lon="12.1755042"><ele>67.0</ele><time>2026-04-04T16:18:38.426Z</time></trkpt><trkpt lat="45.7877466" lon="12.1756314"><ele>67.0</ele><time>2026-04-04T16:18:39.429Z</time></trkpt><trkpt lat="45.7876443" lon="12.1757535"><ele>67.0</ele><time>2026-04-04T16:18:40.422Z</time></trkpt><trkpt lat="45.7875382" lon="12.1758717"><ele>67.0</ele><time>2026-04-04T16:18:41.429Z</time></trkpt><trkpt lat="45.7874304" lon="12.1759846"><ele>67.0</ele><time>2026-04-04T16:18:42.426Z</time></trkpt><trkpt lat="45.7873215" lon="12.1760967"><ele>67.0</ele><time>2026-04-04T16:18:43.429Z</time></trkpt><trkpt lat="45.7872188" lon="12.1762043"><ele>67.0</ele><time>2026-04-04T16:18:44.424Z</time></trkpt><trkpt lat="45.7871277" lon="12.1762965"><ele>67.0</ele><time>2026-04-04T16:18:45.429Z</time></trkpt><trkpt lat="45.7870408" lon="12.1763753"><ele>67.0</ele><time>2026-04-04T16:18:46.419Z</time></trkpt><trkpt lat="45.7869475" lon="12.1764425"><ele>67.0</ele><time>2026-04-04T16:18:47.407Z</time></trkpt><trkpt lat="45.7868458" lon="12.176488"><ele>66.8</ele><time>2026-04-04T16:18:48.428Z</time></trkpt><trkpt lat="45.7867364" lon="12.1765016"><ele>66.6</ele><time>2026-04-04T16:18:49.413Z</time></trkpt><trkpt lat="45.7866234" lon="12.1764779"><ele>66.39999999999999</ele><time>2026-04-04T16:18:50.419Z</time></trkpt><trkpt lat="45.7865159" lon="12.1764359"><ele>66.2</ele><time>2026-04-04T16:18:51.416Z</time></trkpt><trkpt lat="45.7864236" lon="12.1763982"><ele>66.0</ele><time>2026-04-04T16:18:52.426Z</time></trkpt><trkpt lat="45.7863433" lon="12.1763778"><ele>66.0</ele><time>2026-04-04T16:18:53.417Z</time></trkpt><trkpt lat="45.7862716" lon="12.1763865"><ele>66.0</ele><time>2026-04-04T16:18:54.423Z</time></trkpt><trkpt lat="45.7862144" lon="12.1764353"><ele>66.0</ele><time>2026-04-04T16:18:55.425Z</time></trkpt><trkpt lat="45.7861689" lon="12.1765238"><ele>66.0</ele><time>2026-04-04T16:18:56.422Z</time></trkpt><trkpt lat="45.7861368" lon="12.1766493"><ele>66.0</ele><time>2026-04-04T16:18:57.413Z</time></trkpt><trkpt lat="45.7861088" lon="12.1768021"><ele>66.0</ele><time>2026-04-04T16:18:58.41Z</time></trkpt><trkpt lat="45.7860754" lon="12.1769758"><ele>66.0</ele><time>2026-04-04T16:18:59.423Z</time></trkpt><trkpt lat="45.7860386" lon="12.1771547"><ele>66.0</ele><time>2026-04-04T16:19:00.423Z</time></trkpt><trkpt lat="45.7859967" lon="12.1773302"><ele>66.0</ele><time>2026-04-04T16:19:01.418Z</time></trkpt><trkpt lat="45.7859542" lon="12.177508"><ele>66.0</ele><time>2026-04-04T16:19:02.432Z</time></trkpt><trkpt lat="45.7859067" lon="12.1776907"><ele>65.5</ele><time>2026-04-04T16:19:03.417Z</time></trkpt><trkpt lat="45.7858524" lon="12.1778676"><ele>65.0</ele><time>2026-04-04T16:19:04.426Z</time></trkpt><trkpt lat="45.7858123" lon="12.1780601"><ele>64.5</ele><time>2026-04-04T16:19:05.428Z</time></trkpt><trkpt lat="45.7857656" lon="12.1782545"><ele>64.0</ele><time>2026-04-04T16:19:06.432Z</time></trkpt><trkpt lat="45.7857198" lon="12.1784472"><ele>64.0</ele><time>2026-04-04T16:19:07.429Z</time></trkpt><trkpt lat="45.7856779" lon="12.1786454"><ele>64.0</ele><time>2026-04-04T16:19:08.437Z</time></trkpt><trkpt lat="45.7856314" lon="12.1788493"><ele>64.0</ele><time>2026-04-04T16:19:09.416Z</time></trkpt><trkpt lat="45.7855833" lon="12.1790547"><ele>64.0</ele><time>2026-04-04T16:19:10.43Z</time></trkpt><trkpt lat="45.7855339" lon="12.1792575"><ele>64.0</ele><time>2026-04-04T16:19:11.438Z</time></trkpt><trkpt lat="45.7854883" lon="12.1794607"><ele>64.0</ele><time>2026-04-04T16:19:12.437Z</time></trkpt><trkpt lat="45.785443" lon="12.1796586"><ele>64.0</ele><time>2026-04-04T16:19:13.424Z</time></trkpt><trkpt lat="45.7853979" lon="12.1798576"><ele>64.0</ele><time>2026-04-04T16:19:14.436Z</time></trkpt><trkpt lat="45.785351" lon="12.1800613"><ele>64.0</ele><time>2026-04-04T16:19:15.434Z</time></trkpt><trkpt lat="45.7853055" lon="12.1802572"><ele>64.0</ele><time>2026-04-04T16:19:16.435Z</time></trkpt><trkpt lat="45.7852589" lon="12.1804521"><ele>64.0</ele><time>2026-04-04T16:19:17.426Z</time></trkpt><trkpt lat="45.7852094" lon="12.1806475"><ele>64.0</ele><time>2026-04-04T16:19:18.423Z</time></trkpt><trkpt lat="45.7851559" lon="12.1808407"><ele>63.5</ele><time>2026-04-04T16:19:19.432Z</time></trkpt><trkpt lat="45.7850977" lon="12.1810315"><ele>63.0</ele><time>2026-04-04T16:19:20.419Z</time></trkpt><trkpt lat="45.7850357" lon="12.1812209"><ele>62.5</ele><time>2026-04-04T16:19:21.436Z</time></trkpt><trkpt lat="45.7849725" lon="12.1814107"><ele>62.0</ele><time>2026-04-04T16:19:22.427Z</time></trkpt><trkpt lat="45.7849068" lon="12.1815997"><ele>62.0</ele><time>2026-04-04T16:19:23.425Z</time></trkpt><trkpt lat="45.7848378" lon="12.1817865"><ele>62.0</ele><time>2026-04-04T16:19:24.429Z</time></trkpt><trkpt lat="45.784768" lon="12.181973"><ele>62.0</ele><time>2026-04-04T16:19:25.436Z</time></trkpt><trkpt lat="45.7846971" lon="12.1821612"><ele>62.0</ele><time>2026-04-04T16:19:26.435Z</time></trkpt><trkpt lat="45.7846242" lon="12.1823528"><ele>62.0</ele><time>2026-04-04T16:19:27.435Z</time></trkpt><trkpt lat="45.7845478" lon="12.182548"><ele>62.0</ele><time>2026-04-04T16:19:28.429Z</time></trkpt><trkpt lat="45.7844669" lon="12.1827428"><ele>62.0</ele><time>2026-04-04T16:19:29.426Z</time></trkpt><trkpt lat="45.7843804" lon="12.1829355"><ele>61.333333333333336</ele><time>2026-04-04T16:19:30.42Z</time></trkpt><trkpt lat="45.7842853" lon="12.1831241"><ele>60.66666666666667</ele><time>2026-04-04T16:19:31.445Z</time></trkpt><trkpt lat="45.7841816" lon="12.1833077"><ele>60.0</ele><time>2026-04-04T16:19:32.43Z</time></trkpt><trkpt lat="45.7840743" lon="12.1834865"><ele>60.0</ele><time>2026-04-04T16:19:33.428Z</time></trkpt><trkpt lat="45.7839654" lon="12.1836627"><ele>60.0</ele><time>2026-04-04T16:19:34.424Z</time></trkpt><trkpt lat="45.7838555" lon="12.1838363"><ele>60.0</ele><time>2026-04-04T16:19:35.417Z</time></trkpt><trkpt lat="45.7837459" lon="12.1840066"><ele>60.0</ele><time>2026-04-04T16:19:36.433Z</time></trkpt><trkpt lat="45.7836428" lon="12.1841657"><ele>60.0</ele><time>2026-04-04T16:19:37.431Z</time></trkpt><trkpt lat="45.7835521" lon="12.1843067"><ele>60.0</ele><time>2026-04-04T16:19:38.435Z</time></trkpt><trkpt lat="45.7834764" lon="12.1844251"><ele>60.0</ele><time>2026-04-04T16:19:39.421Z</time></trkpt><trkpt lat="45.7834136" lon="12.184523"><ele>60.0</ele><time>2026-04-04T16:19:40.423Z</time></trkpt><trkpt lat="45.7833623" lon="12.1846019"><ele>60.0</ele><time>2026-04-04T16:19:41.424Z</time></trkpt><trkpt lat="45.7833146" lon="12.1846642"><ele>60.0</ele><time>2026-04-04T16:19:42.425Z</time></trkpt><trkpt lat="45.7832159" lon="12.184765"><ele>60.0</ele><time>2026-04-04T16:19:44.438Z</time></trkpt><trkpt lat="45.783122" lon="12.1848694"><ele>60.0</ele><time>2026-04-04T16:19:46.405Z</time></trkpt><trkpt lat="45.7830801" lon="12.1849467"><ele>60.0</ele><time>2026-04-04T16:19:47.422Z</time></trkpt><trkpt lat="45.7829916" lon="12.185152"><ele>60.0</ele><time>2026-04-04T16:19:49.423Z</time></trkpt><trkpt lat="45.7829325" lon="12.1852631"><ele>60.0</ele><time>2026-04-04T16:19:50.447Z</time></trkpt><trkpt lat="45.7828644" lon="12.1853752"><ele>60.0</ele><time>2026-04-04T16:19:51.417Z</time></trkpt><trkpt lat="45.7827914" lon="12.1854889"><ele>60.0</ele><time>2026-04-04T16:19:52.418Z</time></trkpt><trkpt lat="45.7827135" lon="12.1856117"><ele>60.0</ele><time>2026-04-04T16:19:53.438Z</time></trkpt><trkpt lat="45.7826287" lon="12.1857431"><ele>59.75</ele><time>2026-04-04T16:19:54.418Z</time></trkpt><trkpt lat="45.7825391" lon="12.1858817"><ele>59.5</ele><time>2026-04-04T16:19:55.433Z</time></trkpt><trkpt lat="45.7824457" lon="12.1860247"><ele>59.25</ele><time>2026-04-04T16:19:56.436Z</time></trkpt><trkpt lat="45.7823514" lon="12.1861705"><ele>59.0</ele><time>2026-04-04T16:19:57.434Z</time></trkpt><trkpt lat="45.7822561" lon="12.1863182"><ele>59.0</ele><time>2026-04-04T16:19:58.423Z</time></trkpt><trkpt lat="45.7821579" lon="12.1864684"><ele>59.0</ele><time>2026-04-04T16:19:59.433Z</time></trkpt><trkpt lat="45.7820566" lon="12.1866212"><ele>59.0</ele><time>2026-04-04T16:20:00.423Z</time></trkpt><trkpt lat="45.7819495" lon="12.1867746"><ele>59.0</ele><time>2026-04-04T16:20:01.429Z</time></trkpt><trkpt lat="45.7818356" lon="12.1869265"><ele>59.0</ele><time>2026-04-04T16:20:02.431Z</time></trkpt><trkpt lat="45.7817147" lon="12.1870761"><ele>59.0</ele><time>2026-04-04T16:20:03.429Z</time></trkpt><trkpt lat="45.7815876" lon="12.1872192"><ele>59.0</ele><time>2026-04-04T16:20:04.425Z</time></trkpt><trkpt lat="45.7814578" lon="12.1873528"><ele>59.0</ele><time>2026-04-04T16:20:05.429Z</time></trkpt><trkpt lat="45.7813239" lon="12.1874775"><ele>59.0</ele><time>2026-04-04T16:20:06.43Z</time></trkpt><trkpt lat="45.7811866" lon="12.1875965"><ele>59.0</ele><time>2026-04-04T16:20:07.437Z</time></trkpt><trkpt lat="45.7810468" lon="12.1877104"><ele>59.333333333333336</ele><time>2026-04-04T16:20:08.423Z</time></trkpt><trkpt lat="45.7809066" lon="12.1878219"><ele>59.66666666666667</ele><time>2026-04-04T16:20:09.423Z</time></trkpt><trkpt lat="45.7807677" lon="12.1879374"><ele>60.0</ele><time>2026-04-04T16:20:10.415Z</time></trkpt><trkpt lat="45.7806302" lon="12.1880582"><ele>60.33333333333333</ele><time>2026-04-04T16:20:11.435Z</time></trkpt><trkpt lat="45.7804963" lon="12.1881846"><ele>60.666666666666664</ele><time>2026-04-04T16:20:12.431Z</time></trkpt><trkpt lat="45.7803713" lon="12.1883101"><ele>61.0</ele><time>2026-04-04T16:20:13.426Z</time></trkpt><trkpt lat="45.7802577" lon="12.1884309"><ele>60.75</ele><time>2026-04-04T16:20:14.429Z</time></trkpt><trkpt lat="45.7801533" lon="12.1885465"><ele>60.5</ele><time>2026-04-04T16:20:15.428Z</time></trkpt><trkpt lat="45.7800497" lon="12.1886621"><ele>60.25</ele><time>2026-04-04T16:20:16.424Z</time></trkpt><trkpt lat="45.7799466" lon="12.1887828"><ele>60.0</ele><time>2026-04-04T16:20:17.424Z</time></trkpt><trkpt lat="45.7798437" lon="12.1889079"><ele>59.75</ele><time>2026-04-04T16:20:18.438Z</time></trkpt><trkpt lat="45.7797418" lon="12.1890381"><ele>59.5</ele><time>2026-04-04T16:20:19.422Z</time></trkpt><trkpt lat="45.7796416" lon="12.1891748"><ele>59.25</ele><time>2026-04-04T16:20:20.444Z</time></trkpt><trkpt lat="45.7795407" lon="12.1893178"><ele>59.0</ele><time>2026-04-04T16:20:21.411Z</time></trkpt><trkpt lat="45.7794375" lon="12.1894669"><ele>59.0</ele><time>2026-04-04T16:20:22.426Z</time></trkpt><trkpt lat="45.7793332" lon="12.1896247"><ele>59.0</ele><time>2026-04-04T16:20:23.43Z</time></trkpt><trkpt lat="45.7792272" lon="12.1897903"><ele>59.0</ele><time>2026-04-04T16:20:24.425Z</time></trkpt><trkpt lat="45.7791199" lon="12.1899638"><ele>59.0</ele><time>2026-04-04T16:20:25.427Z</time></trkpt><trkpt lat="45.7790115" lon="12.190143"><ele>59.0</ele><time>2026-04-04T16:20:26.428Z</time></trkpt><trkpt lat="45.7789012" lon="12.1903268"><ele>59.0</ele><time>2026-04-04T16:20:27.428Z</time></trkpt><trkpt lat="45.7787896" lon="12.1905076"><ele>59.66666666666667</ele><time>2026-04-04T16:20:28.427Z</time></trkpt><trkpt lat="45.7786797" lon="12.1906802"><ele>60.33333333333333</ele><time>2026-04-04T16:20:29.425Z</time></trkpt><trkpt lat="45.7785724" lon="12.1908372"><ele>61.0</ele><time>2026-04-04T16:20:30.428Z</time></trkpt><trkpt lat="45.7784616" lon="12.1909775"><ele>61.0</ele><time>2026-04-04T16:20:31.427Z</time></trkpt><trkpt lat="45.7783424" lon="12.1910987"><ele>61.0</ele><time>2026-04-04T16:20:32.426Z</time></trkpt><trkpt lat="45.7782104" lon="12.1911979"><ele>61.0</ele><time>2026-04-04T16:20:33.415Z</time></trkpt><trkpt lat="45.778068" lon="12.1912744"><ele>61.0</ele><time>2026-04-04T16:20:34.435Z</time></trkpt><trkpt lat="45.7779178" lon="12.1913319"><ele>61.0</ele><time>2026-04-04T16:20:35.416Z</time></trkpt><trkpt lat="45.7777623" lon="12.191377"><ele>61.0</ele><time>2026-04-04T16:20:36.429Z</time></trkpt><trkpt lat="45.7776048" lon="12.1914149"><ele>61.0</ele><time>2026-04-04T16:20:37.427Z</time></trkpt><trkpt lat="45.7774465" lon="12.1914513"><ele>60.666666666666664</ele><time>2026-04-04T16:20:38.439Z</time></trkpt><trkpt lat="45.7772896" lon="12.1914894"><ele>60.33333333333333</ele><time>2026-04-04T16:20:39.426Z</time></trkpt><trkpt lat="45.7771341" lon="12.1915284"><ele>60.0</ele><time>2026-04-04T16:20:40.429Z</time></trkpt><trkpt lat="45.7769797" lon="12.191569"><ele>60.0</ele><time>2026-04-04T16:20:41.44Z</time></trkpt><trkpt lat="45.7768256" lon="12.1916113"><ele>60.0</ele><time>2026-04-04T16:20:42.434Z</time></trkpt><trkpt lat="45.7766713" lon="12.1916535"><ele>60.0</ele><time>2026-04-04T16:20:43.433Z</time></trkpt><trkpt lat="45.7765158" lon="12.1916942"><ele>60.0</ele><time>2026-04-04T16:20:44.437Z</time></trkpt><trkpt lat="45.7763602" lon="12.1917318"><ele>60.0</ele><time>2026-04-04T16:20:45.429Z</time></trkpt><trkpt lat="45.7762044" lon="12.1917666"><ele>60.0</ele><time>2026-04-04T16:20:46.433Z</time></trkpt><trkpt lat="45.776049" lon="12.1917996"><ele>59.5</ele><time>2026-04-04T16:20:47.433Z</time></trkpt><trkpt lat="45.7758932" lon="12.1918303"><ele>59.0</ele><time>2026-04-04T16:20:48.44Z</time></trkpt><trkpt lat="45.7755797" lon="12.1918894"><ele>59.0</ele><time>2026-04-04T16:20:50.431Z</time></trkpt><trkpt lat="45.7754206" lon="12.1919187"><ele>59.0</ele><time>2026-04-04T16:20:51.431Z</time></trkpt><trkpt lat="45.7752609" lon="12.1919469"><ele>59.0</ele><time>2026-04-04T16:20:52.431Z</time></trkpt><trkpt lat="45.7751011" lon="12.1919738"><ele>59.333333333333336</ele><time>2026-04-04T16:20:53.435Z</time></trkpt><trkpt lat="45.7749404" lon="12.1919997"><ele>59.66666666666667</ele><time>2026-04-04T16:20:54.425Z</time></trkpt><trkpt lat="45.7747793" lon="12.1920258"><ele>60.0</ele><time>2026-04-04T16:20:55.43Z</time></trkpt><trkpt lat="45.7746181" lon="12.1920539"><ele>60.0</ele><time>2026-04-04T16:20:56.422Z</time></trkpt><trkpt lat="45.7744552" lon="12.192087"><ele>60.0</ele><time>2026-04-04T16:20:57.433Z</time></trkpt><trkpt lat="45.7742911" lon="12.1921251"><ele>60.0</ele><time>2026-04-04T16:20:58.442Z</time></trkpt><trkpt lat="45.7741246" lon="12.192167"><ele>59.66666666666667</ele><time>2026-04-04T16:20:59.43Z</time></trkpt><trkpt lat="45.7739567" lon="12.1922112"><ele>59.333333333333336</ele><time>2026-04-04T16:21:00.43Z</time></trkpt><trkpt lat="45.7737889" lon="12.1922571"><ele>59.0</ele><time>2026-04-04T16:21:01.429Z</time></trkpt><trkpt lat="45.7736227" lon="12.1923036"><ele>59.0</ele><time>2026-04-04T16:21:02.434Z</time></trkpt><trkpt lat="45.7734576" lon="12.1923499"><ele>59.0</ele><time>2026-04-04T16:21:03.422Z</time></trkpt><trkpt lat="45.7732957" lon="12.1923957"><ele>59.0</ele><time>2026-04-04T16:21:04.431Z</time></trkpt><trkpt lat="45.7731352" lon="12.1924415"><ele>59.0</ele><time>2026-04-04T16:21:05.419Z</time></trkpt><trkpt lat="45.7729754" lon="12.1924874"><ele>59.0</ele><time>2026-04-04T16:21:06.437Z</time></trkpt><trkpt lat="45.7728251" lon="12.1925292"><ele>59.0</ele><time>2026-04-04T16:21:07.433Z</time></trkpt><trkpt lat="45.7726844" lon="12.1925688"><ele>58.5</ele><time>2026-04-04T16:21:08.441Z</time></trkpt><trkpt lat="45.7725499" lon="12.1926068"><ele>58.0</ele><time>2026-04-04T16:21:09.419Z</time></trkpt><trkpt lat="45.7724145" lon="12.1926452"><ele>57.5</ele><time>2026-04-04T16:21:10.414Z</time></trkpt><trkpt lat="45.7722778" lon="12.192682"><ele>57.0</ele><time>2026-04-04T16:21:11.432Z</time></trkpt><trkpt lat="45.7721394" lon="12.1927116"><ele>57.0</ele><time>2026-04-04T16:21:12.42Z</time></trkpt><trkpt lat="45.7719986" lon="12.1927206"><ele>57.0</ele><time>2026-04-04T16:21:13.422Z</time></trkpt><trkpt lat="45.7718572" lon="12.1927051"><ele>57.0</ele><time>2026-04-04T16:21:14.426Z</time></trkpt><trkpt lat="45.7717211" lon="12.1926709"><ele>57.0</ele><time>2026-04-04T16:21:15.434Z</time></trkpt><trkpt lat="45.7715899" lon="12.1926492"><ele>57.0</ele><time>2026-04-04T16:21:16.425Z</time></trkpt><trkpt lat="45.771472" lon="12.192641"><ele>57.0</ele><time>2026-04-04T16:21:17.431Z</time></trkpt><trkpt lat="45.7713667" lon="12.1926328"><ele>57.0</ele><time>2026-04-04T16:21:18.434Z</time></trkpt><trkpt lat="45.77127" lon="12.1926051"><ele>57.0</ele><time>2026-04-04T16:21:19.429Z</time></trkpt><trkpt lat="45.7711834" lon="12.192554"><ele>57.0</ele><time>2026-04-04T16:21:20.414Z</time></trkpt><trkpt lat="45.7711024" lon="12.1925203"><ele>57.0</ele><time>2026-04-04T16:21:21.434Z</time></trkpt><trkpt lat="45.7710194" lon="12.1924986"><ele>57.0</ele><time>2026-04-04T16:21:22.418Z</time></trkpt><trkpt lat="45.7709482" lon="12.192561"><ele>57.0</ele><time>2026-04-04T16:21:23.421Z</time></trkpt><trkpt lat="45.7708993" lon="12.1926658"><ele>57.0</ele><time>2026-04-04T16:21:24.419Z</time></trkpt><trkpt lat="45.7708719" lon="12.1927915"><ele>57.0</ele><time>2026-04-04T16:21:25.422Z</time></trkpt><trkpt lat="45.7708349" lon="12.1929225"><ele>57.0</ele><time>2026-04-04T16:21:26.421Z</time></trkpt><trkpt lat="45.7707718" lon="12.1930314"><ele>57.0</ele><time>2026-04-04T16:21:27.404Z</time></trkpt><trkpt lat="45.7706809" lon="12.1931039"><ele>57.0</ele><time>2026-04-04T16:21:28.43Z</time></trkpt><trkpt lat="45.7705731" lon="12.193144"><ele>57.0</ele><time>2026-04-04T16:21:29.426Z</time></trkpt><trkpt lat="45.7704448" lon="12.1931856"><ele>57.0</ele><time>2026-04-04T16:21:30.423Z</time></trkpt><trkpt lat="45.7703071" lon="12.1932331"><ele>57.25</ele><time>2026-04-04T16:21:31.433Z</time></trkpt><trkpt lat="45.7701647" lon="12.1932792"><ele>57.5</ele><time>2026-04-04T16:21:32.435Z</time></trkpt><trkpt lat="45.7700245" lon="12.1933198"><ele>57.75</ele><time>2026-04-04T16:21:33.425Z</time></trkpt><trkpt lat="45.7698876" lon="12.193362"><ele>58.0</ele><time>2026-04-04T16:21:34.433Z</time></trkpt><trkpt lat="45.7697476" lon="12.1934013"><ele>58.0</ele><time>2026-04-04T16:21:35.429Z</time></trkpt><trkpt lat="45.7696076" lon="12.1934449"><ele>58.0</ele><time>2026-04-04T16:21:36.429Z</time></trkpt><trkpt lat="45.7694651" lon="12.1934871"><ele>58.0</ele><time>2026-04-04T16:21:37.442Z</time></trkpt><trkpt lat="45.7693182" lon="12.1935289"><ele>58.0</ele><time>2026-04-04T16:21:38.437Z</time></trkpt><trkpt lat="45.769169" lon="12.1935707"><ele>57.666666666666664</ele><time>2026-04-04T16:21:39.429Z</time></trkpt><trkpt lat="45.7690176" lon="12.1936149"><ele>57.33333333333333</ele><time>2026-04-04T16:21:40.436Z</time></trkpt><trkpt lat="45.7688628" lon="12.1936595"><ele>57.0</ele><time>2026-04-04T16:21:41.436Z</time></trkpt><trkpt lat="45.7687066" lon="12.1937049"><ele>57.0</ele><time>2026-04-04T16:21:42.426Z</time></trkpt><trkpt lat="45.7685505" lon="12.1937498"><ele>57.0</ele><time>2026-04-04T16:21:43.433Z</time></trkpt><trkpt lat="45.7683926" lon="12.1937948"><ele>57.0</ele><time>2026-04-04T16:21:44.42Z</time></trkpt><trkpt lat="45.7682325" lon="12.1938388"><ele>56.33333333333333</ele><time>2026-04-04T16:21:45.431Z</time></trkpt><trkpt lat="45.7680702" lon="12.1938823"><ele>55.666666666666664</ele><time>2026-04-04T16:21:46.433Z</time></trkpt><trkpt lat="45.7679019" lon="12.1939303"><ele>55.0</ele><time>2026-04-04T16:21:47.44Z</time></trkpt><trkpt lat="45.7677323" lon="12.1939843"><ele>55.666666666666664</ele><time>2026-04-04T16:21:48.431Z</time></trkpt><trkpt lat="45.7675642" lon="12.1940428"><ele>56.33333333333333</ele><time>2026-04-04T16:21:49.413Z</time></trkpt><trkpt lat="45.7674" lon="12.1941079"><ele>57.0</ele><time>2026-04-04T16:21:50.428Z</time></trkpt><trkpt lat="45.7672399" lon="12.1941817"><ele>57.0</ele><time>2026-04-04T16:21:51.431Z</time></trkpt><trkpt lat="45.7670827" lon="12.1942605"><ele>57.0</ele><time>2026-04-04T16:21:52.43Z</time></trkpt><trkpt lat="45.7669248" lon="12.1943354"><ele>57.0</ele><time>2026-04-04T16:21:53.43Z</time></trkpt><trkpt lat="45.7667751" lon="12.1944047"><ele>57.25</ele><time>2026-04-04T16:21:54.413Z</time></trkpt><trkpt lat="45.7666386" lon="12.1944697"><ele>57.5</ele><time>2026-04-04T16:21:55.431Z</time></trkpt><trkpt lat="45.7665106" lon="12.1945308"><ele>57.75</ele><time>2026-04-04T16:21:56.423Z</time></trkpt><trkpt lat="45.7663879" lon="12.1945882"><ele>58.0</ele><time>2026-04-04T16:21:57.427Z</time></trkpt><trkpt lat="45.7662755" lon="12.1946385"><ele>57.99999999999999</ele><time>2026-04-04T16:21:58.436Z</time></trkpt><trkpt lat="45.7661761" lon="12.1946806"><ele>58.0</ele><time>2026-04-04T16:21:59.42Z</time></trkpt><trkpt lat="45.7660878" lon="12.1947062"><ele>58.0</ele><time>2026-04-04T16:22:00.425Z</time></trkpt><trkpt lat="45.7660032" lon="12.1947033"><ele>58.0</ele><time>2026-04-04T16:22:01.427Z</time></trkpt><trkpt lat="45.765927" lon="12.19466"><ele>57.99999999999999</ele><time>2026-04-04T16:22:02.424Z</time></trkpt><trkpt lat="45.7658606" lon="12.1945894"><ele>58.0</ele><time>2026-04-04T16:22:03.414Z</time></trkpt><trkpt lat="45.7658036" lon="12.1944903"><ele>58.5</ele><time>2026-04-04T16:22:04.412Z</time></trkpt><trkpt lat="45.7657545" lon="12.1943577"><ele>59.0</ele><time>2026-04-04T16:22:05.426Z</time></trkpt><trkpt lat="45.7657155" lon="12.1941992"><ele>59.5</ele><time>2026-04-04T16:22:06.431Z</time></trkpt><trkpt lat="45.7656739" lon="12.1940222"><ele>60.0</ele><time>2026-04-04T16:22:07.426Z</time></trkpt><trkpt lat="45.7656279" lon="12.1938408"><ele>60.0</ele><time>2026-04-04T16:22:08.445Z</time></trkpt><trkpt lat="45.7655815" lon="12.193658"><ele>60.0</ele><time>2026-04-04T16:22:09.423Z</time></trkpt><trkpt lat="45.7655332" lon="12.193471"><ele>60.0</ele><time>2026-04-04T16:22:10.438Z</time></trkpt><trkpt lat="45.7654835" lon="12.1932788"><ele>60.0</ele><time>2026-04-04T16:22:11.421Z</time></trkpt><trkpt lat="45.7654326" lon="12.1930812"><ele>60.0</ele><time>2026-04-04T16:22:12.427Z</time></trkpt><trkpt lat="45.7653812" lon="12.1928796"><ele>60.0</ele><time>2026-04-04T16:22:13.429Z</time></trkpt><trkpt lat="45.7653296" lon="12.1926727"><ele>60.0</ele><time>2026-04-04T16:22:14.427Z</time></trkpt><trkpt lat="45.7652786" lon="12.1924619"><ele>60.25</ele><time>2026-04-04T16:22:15.427Z</time></trkpt><trkpt lat="45.7652309" lon="12.1922562"><ele>60.5</ele><time>2026-04-04T16:22:16.421Z</time></trkpt><trkpt lat="45.7651879" lon="12.1920647"><ele>60.75</ele><time>2026-04-04T16:22:17.435Z</time></trkpt><trkpt lat="45.7651493" lon="12.191893"><ele>61.0</ele><time>2026-04-04T16:22:18.408Z</time></trkpt><trkpt lat="45.7651143" lon="12.191738"><ele>60.666666666666664</ele><time>2026-04-04T16:22:19.405Z</time></trkpt><trkpt lat="45.7650826" lon="12.1915951"><ele>60.33333333333333</ele><time>2026-04-04T16:22:20.418Z</time></trkpt><trkpt lat="45.7650527" lon="12.1914659"><ele>60.0</ele><time>2026-04-04T16:22:21.407Z</time></trkpt><trkpt lat="45.7650285" lon="12.1913556"><ele>59.66666666666667</ele><time>2026-04-04T16:22:22.42Z</time></trkpt><trkpt lat="45.7650066" lon="12.1912582"><ele>59.333333333333336</ele><time>2026-04-04T16:22:23.416Z</time></trkpt><trkpt lat="45.7649808" lon="12.1911699"><ele>59.0</ele><time>2026-04-04T16:22:24.433Z</time></trkpt><trkpt lat="45.7649465" lon="12.1910588"><ele>59.0</ele><time>2026-04-04T16:22:25.422Z</time></trkpt><trkpt lat="45.7649257" lon="12.1909104"><ele>59.0</ele><time>2026-04-04T16:22:26.428Z</time></trkpt><trkpt lat="45.7648905" lon="12.1907395"><ele>59.0</ele><time>2026-04-04T16:22:27.438Z</time></trkpt><trkpt lat="45.7648516" lon="12.190575"><ele>59.0</ele><time>2026-04-04T16:22:28.432Z</time></trkpt><trkpt lat="45.7648138" lon="12.1904093"><ele>59.5</ele><time>2026-04-04T16:22:29.43Z</time></trkpt><trkpt lat="45.7647753" lon="12.1902519"><ele>60.0</ele><time>2026-04-04T16:22:30.432Z</time></trkpt><trkpt lat="45.7647216" lon="12.1900624"><ele>60.5</ele><time>2026-04-04T16:22:31.428Z</time></trkpt><trkpt lat="45.7646539" lon="12.189863"><ele>61.0</ele><time>2026-04-04T16:22:32.436Z</time></trkpt><trkpt lat="45.7645865" lon="12.1896327"><ele>61.666666666666664</ele><time>2026-04-04T16:22:33.427Z</time></trkpt><trkpt lat="45.7645324" lon="12.1893836"><ele>62.33333333333333</ele><time>2026-04-04T16:22:34.419Z</time></trkpt><trkpt lat="45.7644822" lon="12.1891204"><ele>63.0</ele><time>2026-04-04T16:22:35.415Z</time></trkpt><trkpt lat="45.7644348" lon="12.1888473"><ele>63.0</ele><time>2026-04-04T16:22:36.419Z</time></trkpt><trkpt lat="45.7643949" lon="12.1885621"><ele>63.0</ele><time>2026-04-04T16:22:37.427Z</time></trkpt><trkpt lat="45.7643541" lon="12.1882698"><ele>63.0</ele><time>2026-04-04T16:22:38.438Z</time></trkpt><trkpt lat="45.7643144" lon="12.187967"><ele>63.33333333333333</ele><time>2026-04-04T16:22:39.427Z</time></trkpt><trkpt lat="45.7642766" lon="12.1876524"><ele>63.666666666666664</ele><time>2026-04-04T16:22:40.421Z</time></trkpt><trkpt lat="45.7642622" lon="12.1873285"><ele>64.0</ele><time>2026-04-04T16:22:41.438Z</time></trkpt><trkpt lat="45.7642395" lon="12.1870051"><ele>64.0</ele><time>2026-04-04T16:22:42.43Z</time></trkpt><trkpt lat="45.76423" lon="12.1866708"><ele>64.0</ele><time>2026-04-04T16:22:43.434Z</time></trkpt><trkpt lat="45.764223" lon="12.1863333"><ele>64.0</ele><time>2026-04-04T16:22:44.425Z</time></trkpt><trkpt lat="45.7642279" lon="12.1859957"><ele>64.0</ele><time>2026-04-04T16:22:45.435Z</time></trkpt><trkpt lat="45.76424" lon="12.1856545"><ele>63.0</ele><time>2026-04-04T16:22:46.432Z</time></trkpt><trkpt lat="45.7642597" lon="12.1853079"><ele>62.0</ele><time>2026-04-04T16:22:47.431Z</time></trkpt><trkpt lat="45.7642873" lon="12.1849574"><ele>61.5</ele><time>2026-04-04T16:22:48.435Z</time></trkpt><trkpt lat="45.7643211" lon="12.1846025"><ele>61.0</ele><time>2026-04-04T16:22:49.44Z</time></trkpt><trkpt lat="45.7643611" lon="12.1842437"><ele>65.0</ele><time>2026-04-04T16:22:50.437Z</time></trkpt><trkpt lat="45.7644628" lon="12.1835236"><ele>66.0</ele><time>2026-04-04T16:22:52.427Z</time></trkpt><trkpt lat="45.7645233" lon="12.1831657"><ele>67.0</ele><time>2026-04-04T16:22:53.443Z</time></trkpt><trkpt lat="45.7645856" lon="12.1828088"><ele>67.0</ele><time>2026-04-04T16:22:54.434Z</time></trkpt><trkpt lat="45.7646501" lon="12.1824511"><ele>67.0</ele><time>2026-04-04T16:22:55.424Z</time></trkpt><trkpt lat="45.7647168" lon="12.1820947"><ele>66.0</ele><time>2026-04-04T16:22:56.435Z</time></trkpt><trkpt lat="45.7647853" lon="12.1817407"><ele>65.0</ele><time>2026-04-04T16:22:57.408Z</time></trkpt><trkpt lat="45.764855" lon="12.1813877"><ele>65.0</ele><time>2026-04-04T16:22:58.439Z</time></trkpt><trkpt lat="45.7649282" lon="12.181034"><ele>65.0</ele><time>2026-04-04T16:22:59.422Z</time></trkpt><trkpt lat="45.7650014" lon="12.1806766"><ele>65.0</ele><time>2026-04-04T16:23:00.409Z</time></trkpt><trkpt lat="45.7650754" lon="12.1803178"><ele>65.0</ele><time>2026-04-04T16:23:01.411Z</time></trkpt><trkpt lat="45.7651491" lon="12.1799565"><ele>65.0</ele><time>2026-04-04T16:23:02.424Z</time></trkpt><trkpt lat="45.765226" lon="12.1796016"><ele>65.0</ele><time>2026-04-04T16:23:03.407Z</time></trkpt><trkpt lat="45.7652897" lon="12.1792421"><ele>65.0</ele><time>2026-04-04T16:23:04.428Z</time></trkpt><trkpt lat="45.765567" lon="12.1778201"><ele>66.0</ele><time>2026-04-04T16:23:08.411Z</time></trkpt><trkpt lat="45.7659142" lon="12.1759992"><ele>66.0</ele><time>2026-04-04T16:23:13.388Z</time></trkpt><trkpt lat="45.7659726" lon="12.1756286"><ele>66.0</ele><time>2026-04-04T16:23:14.411Z</time></trkpt><trkpt lat="45.7660394" lon="12.1752846"><ele>66.0</ele><time>2026-04-04T16:23:15.448Z</time></trkpt><trkpt lat="45.7661038" lon="12.1749419"><ele>66.0</ele><time>2026-04-04T16:23:16.431Z</time></trkpt><trkpt lat="45.7661754" lon="12.1745827"><ele>65.5</ele><time>2026-04-04T16:23:17.439Z</time></trkpt><trkpt lat="45.7662434" lon="12.174227"><ele>65.0</ele><time>2026-04-04T16:23:18.424Z</time></trkpt><trkpt lat="45.7663171" lon="12.1738739"><ele>65.5</ele><time>2026-04-04T16:23:19.427Z</time></trkpt><trkpt lat="45.7663982" lon="12.1735227"><ele>66.0</ele><time>2026-04-04T16:23:20.431Z</time></trkpt><trkpt lat="45.7664761" lon="12.17316"><ele>66.0</ele><time>2026-04-04T16:23:21.426Z</time></trkpt><trkpt lat="45.7665595" lon="12.1727966"><ele>66.0</ele><time>2026-04-04T16:23:22.423Z</time></trkpt><trkpt lat="45.7666313" lon="12.1724284"><ele>65.5</ele><time>2026-04-04T16:23:23.436Z</time></trkpt><trkpt lat="45.7666903" lon="12.1720425"><ele>65.0</ele><time>2026-04-04T16:23:24.424Z</time></trkpt><trkpt lat="45.766728" lon="12.1716459"><ele>66.5</ele><time>2026-04-04T16:23:25.426Z</time></trkpt><trkpt lat="45.7667733" lon="12.1712759"><ele>68.0</ele><time>2026-04-04T16:23:26.398Z</time></trkpt><trkpt lat="45.7668045" lon="12.1708939"><ele>68.5</ele><time>2026-04-04T16:23:27.428Z</time></trkpt><trkpt lat="45.7668262" lon="12.1705132"><ele>69.0</ele><time>2026-04-04T16:23:28.432Z</time></trkpt><trkpt lat="45.7668413" lon="12.1701278"><ele>69.5</ele><time>2026-04-04T16:23:29.415Z</time></trkpt><trkpt lat="45.7668498" lon="12.1697371"><ele>70.0</ele><time>2026-04-04T16:23:30.414Z</time></trkpt><trkpt lat="45.7668504" lon="12.1693459"><ele>69.0</ele><time>2026-04-04T16:23:31.434Z</time></trkpt><trkpt lat="45.7668398" lon="12.1689639"><ele>68.0</ele><time>2026-04-04T16:23:32.42Z</time></trkpt><trkpt lat="45.7668327" lon="12.1685789"><ele>67.0</ele><time>2026-04-04T16:23:33.406Z</time></trkpt><trkpt lat="45.766806" lon="12.1681852"><ele>66.0</ele><time>2026-04-04T16:23:34.427Z</time></trkpt><trkpt lat="45.7667647" lon="12.167804"><ele>66.0</ele><time>2026-04-04T16:23:35.433Z</time></trkpt><trkpt lat="45.766714" lon="12.1674308"><ele>66.0</ele><time>2026-04-04T16:23:36.409Z</time></trkpt><trkpt lat="45.7666519" lon="12.1670476"><ele>66.0</ele><time>2026-04-04T16:23:37.419Z</time></trkpt><trkpt lat="45.7665857" lon="12.1666719"><ele>66.0</ele><time>2026-04-04T16:23:38.42Z</time></trkpt><trkpt lat="45.7665202" lon="12.1662984"><ele>66.5</ele><time>2026-04-04T16:23:39.437Z</time></trkpt><trkpt lat="45.7664576" lon="12.1659351"><ele>67.0</ele><time>2026-04-04T16:23:40.425Z</time></trkpt><trkpt lat="45.7663944" lon="12.1655784"><ele>67.5</ele><time>2026-04-04T16:23:41.425Z</time></trkpt><trkpt lat="45.7663267" lon="12.1652264"><ele>68.0</ele><time>2026-04-04T16:23:42.432Z</time></trkpt><trkpt lat="45.7662638" lon="12.1648779"><ele>68.5</ele><time>2026-04-04T16:23:43.43Z</time></trkpt><trkpt lat="45.7662046" lon="12.1645306"><ele>69.0</ele><time>2026-04-04T16:23:44.424Z</time></trkpt><trkpt lat="45.7661471" lon="12.1641819"><ele>69.5</ele><time>2026-04-04T16:23:45.416Z</time></trkpt><trkpt lat="45.7660923" lon="12.1638206"><ele>70.0</ele><time>2026-04-04T16:23:46.433Z</time></trkpt><trkpt lat="45.7660387" lon="12.163459"><ele>71.0</ele><time>2026-04-04T16:23:47.423Z</time></trkpt><trkpt lat="45.7659898" lon="12.1631109"><ele>72.0</ele><time>2026-04-04T16:23:48.42Z</time></trkpt><trkpt lat="45.7659461" lon="12.1627622"><ele>72.0</ele><time>2026-04-04T16:23:49.415Z</time></trkpt><trkpt lat="45.7659064" lon="12.1624107"><ele>72.0</ele><time>2026-04-04T16:23:50.433Z</time></trkpt><trkpt lat="45.7658644" lon="12.1620601"><ele>70.0</ele><time>2026-04-04T16:23:51.431Z</time></trkpt><trkpt lat="45.765788" lon="12.1613345"><ele>70.0</ele><time>2026-04-04T16:23:53.427Z</time></trkpt><trkpt lat="45.7657607" lon="12.1609527"><ele>70.0</ele><time>2026-04-04T16:23:54.437Z</time></trkpt><trkpt lat="45.765739" lon="12.1605732"><ele>70.5</ele><time>2026-04-04T16:23:55.412Z</time></trkpt><trkpt lat="45.7657343" lon="12.1601866"><ele>71.0</ele><time>2026-04-04T16:23:56.426Z</time></trkpt><trkpt lat="45.7657352" lon="12.1598103"><ele>71.0</ele><time>2026-04-04T16:23:57.417Z</time></trkpt><trkpt lat="45.7657428" lon="12.1594304"><ele>71.0</ele><time>2026-04-04T16:23:58.435Z</time></trkpt><trkpt lat="45.7657443" lon="12.1590606"><ele>70.5</ele><time>2026-04-04T16:23:59.431Z</time></trkpt><trkpt lat="45.7657313" lon="12.1586955"><ele>70.0</ele><time>2026-04-04T16:24:00.432Z</time></trkpt><trkpt lat="45.7657186" lon="12.1583332"><ele>71.0</ele><time>2026-04-04T16:24:01.431Z</time></trkpt><trkpt lat="45.7656946" lon="12.1576161"><ele>71.5</ele><time>2026-04-04T16:24:03.397Z</time></trkpt><trkpt lat="45.7656745" lon="12.1572327"><ele>72.0</ele><time>2026-04-04T16:24:04.426Z</time></trkpt><trkpt lat="45.7656571" lon="12.1568595"><ele>72.5</ele><time>2026-04-04T16:24:05.425Z</time></trkpt><trkpt lat="45.7656452" lon="12.156483"><ele>73.0</ele><time>2026-04-04T16:24:06.433Z</time></trkpt><trkpt lat="45.7656209" lon="12.1561025"><ele>73.0</ele><time>2026-04-04T16:24:07.428Z</time></trkpt><trkpt lat="45.7655828" lon="12.1557242"><ele>73.0</ele><time>2026-04-04T16:24:08.43Z</time></trkpt><trkpt lat="45.7655384" lon="12.1553476"><ele>73.0</ele><time>2026-04-04T16:24:09.436Z</time></trkpt><trkpt lat="45.7654967" lon="12.154979"><ele>73.0</ele><time>2026-04-04T16:24:10.424Z</time></trkpt><trkpt lat="45.7654489" lon="12.154612"><ele>73.0</ele><time>2026-04-04T16:24:11.421Z</time></trkpt><trkpt lat="45.7653933" lon="12.1542455"><ele>73.0</ele><time>2026-04-04T16:24:12.421Z</time></trkpt><trkpt lat="45.7653307" lon="12.1538891"><ele>74.0</ele><time>2026-04-04T16:24:13.426Z</time></trkpt><trkpt lat="45.7652671" lon="12.1535387"><ele>75.0</ele><time>2026-04-04T16:24:14.432Z</time></trkpt><trkpt lat="45.7652113" lon="12.1531826"><ele>73.5</ele><time>2026-04-04T16:24:15.407Z</time></trkpt><trkpt lat="45.7651537" lon="12.1528165"><ele>72.0</ele><time>2026-04-04T16:24:16.427Z</time></trkpt><trkpt lat="45.765099" lon="12.1524585"><ele>72.5</ele><time>2026-04-04T16:24:17.427Z</time></trkpt><trkpt lat="45.7650465" lon="12.1521067"><ele>73.0</ele><time>2026-04-04T16:24:18.425Z</time></trkpt><trkpt lat="45.7649982" lon="12.1517489"><ele>72.0</ele><time>2026-04-04T16:24:19.427Z</time></trkpt><trkpt lat="45.7649494" lon="12.1513911"><ele>71.0</ele><time>2026-04-04T16:24:20.441Z</time></trkpt><trkpt lat="45.7648987" lon="12.1510379"><ele>71.5</ele><time>2026-04-04T16:24:21.428Z</time></trkpt><trkpt lat="45.7648488" lon="12.1506833"><ele>72.0</ele><time>2026-04-04T16:24:22.432Z</time></trkpt><trkpt lat="45.7648025" lon="12.1503322"><ele>72.0</ele><time>2026-04-04T16:24:23.406Z</time></trkpt><trkpt lat="45.7647573" lon="12.149971"><ele>72.0</ele><time>2026-04-04T16:24:24.434Z</time></trkpt><trkpt lat="45.7647139" lon="12.1496174"><ele>72.0</ele><time>2026-04-04T16:24:25.428Z</time></trkpt><trkpt lat="45.7646743" lon="12.1492594"><ele>72.0</ele><time>2026-04-04T16:24:26.427Z</time></trkpt><trkpt lat="45.7646371" lon="12.1489012"><ele>72.0</ele><time>2026-04-04T16:24:27.423Z</time></trkpt><trkpt lat="45.7646056" lon="12.1485394"><ele>72.0</ele><time>2026-04-04T16:24:28.433Z</time></trkpt><trkpt lat="45.7645807" lon="12.1481744"><ele>73.5</ele><time>2026-04-04T16:24:29.435Z</time></trkpt><trkpt lat="45.7645607" lon="12.147808"><ele>75.0</ele><time>2026-04-04T16:24:30.42Z</time></trkpt><trkpt lat="45.7645449" lon="12.1474335"><ele>74.5</ele><time>2026-04-04T16:24:31.437Z</time></trkpt><trkpt lat="45.7645335" lon="12.147061"><ele>74.0</ele><time>2026-04-04T16:24:32.423Z</time></trkpt><trkpt lat="45.7645285" lon="12.1466809"><ele>73.0</ele><time>2026-04-04T16:24:33.422Z</time></trkpt><trkpt lat="45.7645298" lon="12.1462999"><ele>72.0</ele><time>2026-04-04T16:24:34.424Z</time></trkpt><trkpt lat="45.7645363" lon="12.1459139"><ele>72.0</ele><time>2026-04-04T16:24:35.442Z</time></trkpt><trkpt lat="45.7645488" lon="12.1455303"><ele>72.0</ele><time>2026-04-04T16:24:36.43Z</time></trkpt><trkpt lat="45.764568" lon="12.1451417"><ele>73.0</ele><time>2026-04-04T16:24:37.423Z</time></trkpt><trkpt lat="45.7645936" lon="12.1447487"><ele>74.0</ele><time>2026-04-04T16:24:38.439Z</time></trkpt><trkpt lat="45.7646259" lon="12.1443609"><ele>75.5</ele><time>2026-04-04T16:24:39.43Z</time></trkpt><trkpt lat="45.7646634" lon="12.1439704"><ele>77.0</ele><time>2026-04-04T16:24:40.428Z</time></trkpt><trkpt lat="45.7647056" lon="12.1435781"><ele>76.0</ele><time>2026-04-04T16:24:41.453Z</time></trkpt><trkpt lat="45.7647501" lon="12.1431974"><ele>75.0</ele><time>2026-04-04T16:24:42.436Z</time></trkpt><trkpt lat="45.7647969" lon="12.1428177"><ele>75.0</ele><time>2026-04-04T16:24:43.434Z</time></trkpt><trkpt lat="45.7648428" lon="12.1424441"><ele>75.0</ele><time>2026-04-04T16:24:44.419Z</time></trkpt><trkpt lat="45.7648891" lon="12.1420707"><ele>75.0</ele><time>2026-04-04T16:24:45.43Z</time></trkpt><trkpt lat="45.7649372" lon="12.1417035"><ele>75.0</ele><time>2026-04-04T16:24:46.422Z</time></trkpt><trkpt lat="45.7649848" lon="12.1413329"><ele>75.0</ele><time>2026-04-04T16:24:47.439Z</time></trkpt><trkpt lat="45.7650291" lon="12.1409667"><ele>75.0</ele><time>2026-04-04T16:24:48.434Z</time></trkpt><trkpt lat="45.7650681" lon="12.1405982"><ele>75.0</ele><time>2026-04-04T16:24:49.431Z</time></trkpt><trkpt lat="45.7651007" lon="12.1402275"><ele>75.0</ele><time>2026-04-04T16:24:50.44Z</time></trkpt><trkpt lat="45.7651234" lon="12.1398551"><ele>74.0</ele><time>2026-04-04T16:24:51.443Z</time></trkpt><trkpt lat="45.765138" lon="12.1394798"><ele>73.0</ele><time>2026-04-04T16:24:52.435Z</time></trkpt><trkpt lat="45.7651527" lon="12.138719"><ele>73.0</ele><time>2026-04-04T16:24:54.438Z</time></trkpt><trkpt lat="45.7651489" lon="12.1383369"><ele>73.0</ele><time>2026-04-04T16:24:55.424Z</time></trkpt><trkpt lat="45.7651413" lon="12.1379493"><ele>73.5</ele><time>2026-04-04T16:24:56.435Z</time></trkpt><trkpt lat="45.7651298" lon="12.1375632"><ele>74.0</ele><time>2026-04-04T16:24:57.434Z</time></trkpt><trkpt lat="45.7651124" lon="12.1371758"><ele>74.5</ele><time>2026-04-04T16:24:58.418Z</time></trkpt><trkpt lat="45.765088" lon="12.1367823"><ele>75.0</ele><time>2026-04-04T16:24:59.425Z</time></trkpt><trkpt lat="45.7650547" lon="12.1363884"><ele>75.0</ele><time>2026-04-04T16:25:00.433Z</time></trkpt><trkpt lat="45.7650134" lon="12.1359933"><ele>75.0</ele><time>2026-04-04T16:25:01.438Z</time></trkpt><trkpt lat="45.7649657" lon="12.1355967"><ele>75.0</ele><time>2026-04-04T16:25:02.432Z</time></trkpt><trkpt lat="45.7649124" lon="12.1351967"><ele>75.0</ele><time>2026-04-04T16:25:03.431Z</time></trkpt><trkpt lat="45.7648525" lon="12.1347991"><ele>75.5</ele><time>2026-04-04T16:25:04.435Z</time></trkpt><trkpt lat="45.7647863" lon="12.1344066"><ele>76.0</ele><time>2026-04-04T16:25:05.443Z</time></trkpt><trkpt lat="45.7647149" lon="12.1340189"><ele>76.5</ele><time>2026-04-04T16:25:06.442Z</time></trkpt><trkpt lat="45.7646363" lon="12.1336418"><ele>77.0</ele><time>2026-04-04T16:25:07.431Z</time></trkpt><trkpt lat="45.7645477" lon="12.1332711"><ele>77.0</ele><time>2026-04-04T16:25:08.441Z</time></trkpt><trkpt lat="45.7644593" lon="12.1329028"><ele>77.0</ele><time>2026-04-04T16:25:09.436Z</time></trkpt><trkpt lat="45.7643695" lon="12.1325328"><ele>77.0</ele><time>2026-04-04T16:25:10.436Z</time></trkpt><trkpt lat="45.7642783" lon="12.132165"><ele>77.0</ele><time>2026-04-04T16:25:11.426Z</time></trkpt><trkpt lat="45.7641874" lon="12.1317959"><ele>78.0</ele><time>2026-04-04T16:25:12.427Z</time></trkpt><trkpt lat="45.7640971" lon="12.1314368"><ele>79.0</ele><time>2026-04-04T16:25:13.43Z</time></trkpt><trkpt lat="45.7640087" lon="12.1310765"><ele>78.5</ele><time>2026-04-04T16:25:14.44Z</time></trkpt><trkpt lat="45.7639255" lon="12.1307179"><ele>78.0</ele><time>2026-04-04T16:25:15.419Z</time></trkpt><trkpt lat="45.7638414" lon="12.1303504"><ele>78.0</ele><time>2026-04-04T16:25:16.431Z</time></trkpt><trkpt lat="45.7637619" lon="12.1299895"><ele>78.0</ele><time>2026-04-04T16:25:17.435Z</time></trkpt><trkpt lat="45.7636864" lon="12.129634"><ele>77.5</ele><time>2026-04-04T16:25:18.444Z</time></trkpt><trkpt lat="45.7636111" lon="12.1292776"><ele>77.0</ele><time>2026-04-04T16:25:19.44Z</time></trkpt><trkpt lat="45.7635389" lon="12.1289169"><ele>77.5</ele><time>2026-04-04T16:25:20.475Z</time></trkpt><trkpt lat="45.7634745" lon="12.1285648"><ele>78.0</ele><time>2026-04-04T16:25:21.438Z</time></trkpt><trkpt lat="45.7634114" lon="12.1282022"><ele>78.5</ele><time>2026-04-04T16:25:22.435Z</time></trkpt><trkpt lat="45.7633553" lon="12.1278374"><ele>79.0</ele><time>2026-04-04T16:25:23.438Z</time></trkpt><trkpt lat="45.7633044" lon="12.1274737"><ele>77.5</ele><time>2026-04-04T16:25:24.414Z</time></trkpt><trkpt lat="45.7632522" lon="12.1270951"><ele>76.0</ele><time>2026-04-04T16:25:25.43Z</time></trkpt><trkpt lat="45.7632128" lon="12.1267277"><ele>77.5</ele><time>2026-04-04T16:25:26.398Z</time></trkpt><trkpt lat="45.7631755" lon="12.1263468"><ele>79.0</ele><time>2026-04-04T16:25:27.435Z</time></trkpt><trkpt lat="45.7631439" lon="12.1259787"><ele>79.5</ele><time>2026-04-04T16:25:28.437Z</time></trkpt><trkpt lat="45.7631188" lon="12.1256061"><ele>80.0</ele><time>2026-04-04T16:25:29.435Z</time></trkpt><trkpt lat="45.7631037" lon="12.125233"><ele>79.5</ele><time>2026-04-04T16:25:30.435Z</time></trkpt><trkpt lat="45.7630864" lon="12.1248631"><ele>79.0</ele><time>2026-04-04T16:25:31.427Z</time></trkpt><trkpt lat="45.763074" lon="12.1244987"><ele>79.0</ele><time>2026-04-04T16:25:32.424Z</time></trkpt><trkpt lat="45.7630707" lon="12.1241324"><ele>79.0</ele><time>2026-04-04T16:25:33.428Z</time></trkpt><trkpt lat="45.7630692" lon="12.1237643"><ele>80.0</ele><time>2026-04-04T16:25:34.426Z</time></trkpt><trkpt lat="45.7630752" lon="12.1233972"><ele>81.0</ele><time>2026-04-04T16:25:35.43Z</time></trkpt><trkpt lat="45.7630866" lon="12.1230271"><ele>81.5</ele><time>2026-04-04T16:25:36.432Z</time></trkpt><trkpt lat="45.7631058" lon="12.1226539"><ele>82.0</ele><time>2026-04-04T16:25:37.432Z</time></trkpt><trkpt lat="45.7631306" lon="12.1222789"><ele>81.0</ele><time>2026-04-04T16:25:38.435Z</time></trkpt><trkpt lat="45.7631595" lon="12.1219041"><ele>80.0</ele><time>2026-04-04T16:25:39.437Z</time></trkpt><trkpt lat="45.7631938" lon="12.1215282"><ele>79.5</ele><time>2026-04-04T16:25:40.433Z</time></trkpt><trkpt lat="45.7632322" lon="12.1211497"><ele>79.0</ele><time>2026-04-04T16:25:41.441Z</time></trkpt><trkpt lat="45.7632717" lon="12.1207749"><ele>79.5</ele><time>2026-04-04T16:25:42.431Z</time></trkpt><trkpt lat="45.7633151" lon="12.1203989"><ele>80.0</ele><time>2026-04-04T16:25:43.431Z</time></trkpt><trkpt lat="45.7633664" lon="12.120024"><ele>80.0</ele><time>2026-04-04T16:25:44.436Z</time></trkpt><trkpt lat="45.763413" lon="12.1196513"><ele>80.0</ele><time>2026-04-04T16:25:45.442Z</time></trkpt><trkpt lat="45.7634596" lon="12.1192801"><ele>81.5</ele><time>2026-04-04T16:25:46.439Z</time></trkpt><trkpt lat="45.7635079" lon="12.1189094"><ele>83.0</ele><time>2026-04-04T16:25:47.44Z</time></trkpt><trkpt lat="45.7635575" lon="12.1185425"><ele>83.0</ele><time>2026-04-04T16:25:48.432Z</time></trkpt><trkpt lat="45.7636095" lon="12.1181669"><ele>83.0</ele><time>2026-04-04T16:25:49.482Z</time></trkpt><trkpt lat="45.7636474" lon="12.1178066"><ele>83.0</ele><time>2026-04-04T16:25:50.431Z</time></trkpt><trkpt lat="45.763686" lon="12.1174308"><ele>83.0</ele><time>2026-04-04T16:25:51.434Z</time></trkpt><trkpt lat="45.7637216" lon="12.1170556"><ele>83.0</ele><time>2026-04-04T16:25:52.436Z</time></trkpt><trkpt lat="45.7637472" lon="12.1166774"><ele>83.0</ele><time>2026-04-04T16:25:53.423Z</time></trkpt><trkpt lat="45.7637633" lon="12.1163038"><ele>83.0</ele><time>2026-04-04T16:25:54.425Z</time></trkpt><trkpt lat="45.7637692" lon="12.1159314"><ele>83.0</ele><time>2026-04-04T16:25:55.424Z</time></trkpt><trkpt lat="45.7637696" lon="12.1155504"><ele>83.5</ele><time>2026-04-04T16:25:56.438Z</time></trkpt><trkpt lat="45.7637583" lon="12.1151775"><ele>84.0</ele><time>2026-04-04T16:25:57.431Z</time></trkpt><trkpt lat="45.7637385" lon="12.114807"><ele>84.0</ele><time>2026-04-04T16:25:58.411Z</time></trkpt><trkpt lat="45.7637106" lon="12.1144326"><ele>84.0</ele><time>2026-04-04T16:25:59.433Z</time></trkpt><trkpt lat="45.7636755" lon="12.1140663"><ele>84.5</ele><time>2026-04-04T16:26:00.43Z</time></trkpt><trkpt lat="45.7636413" lon="12.1137046"><ele>85.0</ele><time>2026-04-04T16:26:01.441Z</time></trkpt><trkpt lat="45.7636013" lon="12.1133443"><ele>85.5</ele><time>2026-04-04T16:26:02.434Z</time></trkpt><trkpt lat="45.7635537" lon="12.1129789"><ele>86.0</ele><time>2026-04-04T16:26:03.431Z</time></trkpt><trkpt lat="45.7635084" lon="12.1126135"><ele>86.5</ele><time>2026-04-04T16:26:04.427Z</time></trkpt><trkpt lat="45.7634682" lon="12.1122475"><ele>87.0</ele><time>2026-04-04T16:26:05.427Z</time></trkpt><trkpt lat="45.7634328" lon="12.1118765"><ele>87.0</ele><time>2026-04-04T16:26:06.437Z</time></trkpt><trkpt lat="45.7633981" lon="12.1115086"><ele>87.0</ele><time>2026-04-04T16:26:07.435Z</time></trkpt><trkpt lat="45.7633633" lon="12.1111413"><ele>87.0</ele><time>2026-04-04T16:26:08.425Z</time></trkpt><trkpt lat="45.7633281" lon="12.1107709"><ele>87.0</ele><time>2026-04-04T16:26:09.445Z</time></trkpt><trkpt lat="45.7632924" lon="12.1104054"><ele>87.0</ele><time>2026-04-04T16:26:10.439Z</time></trkpt><trkpt lat="45.7632559" lon="12.1100372"><ele>87.0</ele><time>2026-04-04T16:26:11.446Z</time></trkpt><trkpt lat="45.76322" lon="12.1096709"><ele>87.0</ele><time>2026-04-04T16:26:12.436Z</time></trkpt><trkpt lat="45.7631805" lon="12.1093024"><ele>87.0</ele><time>2026-04-04T16:26:13.447Z</time></trkpt><trkpt lat="45.7631418" lon="12.1089351"><ele>87.0</ele><time>2026-04-04T16:26:14.429Z</time></trkpt><trkpt lat="45.7631033" lon="12.1085618"><ele>87.0</ele><time>2026-04-04T16:26:15.439Z</time></trkpt><trkpt lat="45.7630648" lon="12.1081929"><ele>86.0</ele><time>2026-04-04T16:26:16.421Z</time></trkpt><trkpt lat="45.7630274" lon="12.1078198"><ele>85.0</ele><time>2026-04-04T16:26:17.432Z</time></trkpt><trkpt lat="45.7629929" lon="12.1074495"><ele>84.5</ele><time>2026-04-04T16:26:18.436Z</time></trkpt><trkpt lat="45.7629575" lon="12.1070797"><ele>84.0</ele><time>2026-04-04T16:26:19.436Z</time></trkpt><trkpt lat="45.7629192" lon="12.1067108"><ele>83.0</ele><time>2026-04-04T16:26:20.436Z</time></trkpt><trkpt lat="45.7628816" lon="12.1063412"><ele>82.0</ele><time>2026-04-04T16:26:21.435Z</time></trkpt><trkpt lat="45.7628444" lon="12.1059696"><ele>81.5</ele><time>2026-04-04T16:26:22.46Z</time></trkpt><trkpt lat="45.7628093" lon="12.1056059"><ele>81.0</ele><time>2026-04-04T16:26:23.43Z</time></trkpt><trkpt lat="45.7627737" lon="12.1052333"><ele>81.5</ele><time>2026-04-04T16:26:24.437Z</time></trkpt><trkpt lat="45.7627359" lon="12.104866"><ele>82.0</ele><time>2026-04-04T16:26:25.411Z</time></trkpt><trkpt lat="45.7626972" lon="12.1044874"><ele>82.0</ele><time>2026-04-04T16:26:26.456Z</time></trkpt><trkpt lat="45.7626603" lon="12.1041238"><ele>82.0</ele><time>2026-04-04T16:26:27.412Z</time></trkpt><trkpt lat="45.7626224" lon="12.1037468"><ele>82.5</ele><time>2026-04-04T16:26:28.427Z</time></trkpt><trkpt lat="45.7625851" lon="12.1033741"><ele>83.0</ele><time>2026-04-04T16:26:29.437Z</time></trkpt><trkpt lat="45.7625478" lon="12.1030056"><ele>84.0</ele><time>2026-04-04T16:26:30.442Z</time></trkpt><trkpt lat="45.762511" lon="12.1026389"><ele>85.0</ele><time>2026-04-04T16:26:31.431Z</time></trkpt><trkpt lat="45.7624733" lon="12.1022678"><ele>85.5</ele><time>2026-04-04T16:26:32.437Z</time></trkpt><trkpt lat="45.7624362" lon="12.1018986"><ele>86.0</ele><time>2026-04-04T16:26:33.428Z</time></trkpt><trkpt lat="45.7623993" lon="12.1015265"><ele>86.0</ele><time>2026-04-04T16:26:34.437Z</time></trkpt><trkpt lat="45.7623624" lon="12.101156"><ele>86.0</ele><time>2026-04-04T16:26:35.436Z</time></trkpt><trkpt lat="45.7623253" lon="12.100782"><ele>86.5</ele><time>2026-04-04T16:26:36.442Z</time></trkpt><trkpt lat="45.7622876" lon="12.1004071"><ele>87.0</ele><time>2026-04-04T16:26:37.438Z</time></trkpt><trkpt lat="45.7622493" lon="12.1000294"><ele>88.5</ele><time>2026-04-04T16:26:38.441Z</time></trkpt><trkpt lat="45.7622113" lon="12.0996528"><ele>90.0</ele><time>2026-04-04T16:26:39.431Z</time></trkpt><trkpt lat="45.7621738" lon="12.0992717"><ele>90.0</ele><time>2026-04-04T16:26:40.447Z</time></trkpt><trkpt lat="45.7621362" lon="12.0988938"><ele>90.0</ele><time>2026-04-04T16:26:41.437Z</time></trkpt><trkpt lat="45.7620983" lon="12.0985116"><ele>89.5</ele><time>2026-04-04T16:26:42.444Z</time></trkpt><trkpt lat="45.7620616" lon="12.0981309"><ele>89.0</ele><time>2026-04-04T16:26:43.437Z</time></trkpt><trkpt lat="45.7620264" lon="12.0977479"><ele>88.0</ele><time>2026-04-04T16:26:44.433Z</time></trkpt><trkpt lat="45.7619909" lon="12.0973642"><ele>87.0</ele><time>2026-04-04T16:26:45.425Z</time></trkpt><trkpt lat="45.7619506" lon="12.0969886"><ele>87.0</ele><time>2026-04-04T16:26:46.423Z</time></trkpt><trkpt lat="45.7619088" lon="12.0966193"><ele>87.0</ele><time>2026-04-04T16:26:47.423Z</time></trkpt><trkpt lat="45.7618649" lon="12.0962407"><ele>87.0</ele><time>2026-04-04T16:26:48.426Z</time></trkpt><trkpt lat="45.761818" lon="12.0958656"><ele>87.0</ele><time>2026-04-04T16:26:49.433Z</time></trkpt><trkpt lat="45.7617723" lon="12.0954898"><ele>87.0</ele><time>2026-04-04T16:26:50.44Z</time></trkpt><trkpt lat="45.7617202" lon="12.0951083"><ele>87.0</ele><time>2026-04-04T16:26:51.436Z</time></trkpt><trkpt lat="45.7616639" lon="12.0947279"><ele>88.0</ele><time>2026-04-04T16:26:52.436Z</time></trkpt><trkpt lat="45.7615973" lon="12.0943498"><ele>89.0</ele><time>2026-04-04T16:26:53.437Z</time></trkpt><trkpt lat="45.7615279" lon="12.0939681"><ele>89.0</ele><time>2026-04-04T16:26:54.443Z</time></trkpt><trkpt lat="45.7614477" lon="12.0935934"><ele>89.0</ele><time>2026-04-04T16:26:55.439Z</time></trkpt><trkpt lat="45.7613646" lon="12.0932219"><ele>88.5</ele><time>2026-04-04T16:26:56.437Z</time></trkpt><trkpt lat="45.7612774" lon="12.0928549"><ele>88.0</ele><time>2026-04-04T16:26:57.43Z</time></trkpt><trkpt lat="45.761184" lon="12.0924908"><ele>88.5</ele><time>2026-04-04T16:26:58.434Z</time></trkpt><trkpt lat="45.7610888" lon="12.092128"><ele>89.0</ele><time>2026-04-04T16:26:59.447Z</time></trkpt><trkpt lat="45.7609882" lon="12.091775"><ele>90.0</ele><time>2026-04-04T16:27:00.437Z</time></trkpt><trkpt lat="45.760882" lon="12.0914304"><ele>91.0</ele><time>2026-04-04T16:27:01.435Z</time></trkpt><trkpt lat="45.7607707" lon="12.0910911"><ele>91.0</ele><time>2026-04-04T16:27:02.44Z</time></trkpt><trkpt lat="45.7606553" lon="12.0907495"><ele>91.0</ele><time>2026-04-04T16:27:03.431Z</time></trkpt><trkpt lat="45.7605355" lon="12.0904162"><ele>91.0</ele><time>2026-04-04T16:27:04.418Z</time></trkpt><trkpt lat="45.7604111" lon="12.0900896"><ele>91.0</ele><time>2026-04-04T16:27:05.433Z</time></trkpt><trkpt lat="45.7602827" lon="12.089766"><ele>90.5</ele><time>2026-04-04T16:27:06.43Z</time></trkpt><trkpt lat="45.7601592" lon="12.0894381"><ele>90.0</ele><time>2026-04-04T16:27:07.442Z</time></trkpt><trkpt lat="45.7600316" lon="12.0891169"><ele>90.5</ele><time>2026-04-04T16:27:08.452Z</time></trkpt><trkpt lat="45.7599058" lon="12.0887992"><ele>91.0</ele><time>2026-04-04T16:27:09.451Z</time></trkpt><trkpt lat="45.7597833" lon="12.0884793"><ele>90.5</ele><time>2026-04-04T16:27:10.45Z</time></trkpt><trkpt lat="45.7596606" lon="12.0881606"><ele>90.0</ele><time>2026-04-04T16:27:11.445Z</time></trkpt><trkpt lat="45.7595384" lon="12.0878434"><ele>90.0</ele><time>2026-04-04T16:27:12.43Z</time></trkpt><trkpt lat="45.759413" lon="12.0875216"><ele>90.0</ele><time>2026-04-04T16:27:13.459Z</time></trkpt><trkpt lat="45.7592916" lon="12.0872034"><ele>89.0</ele><time>2026-04-04T16:27:14.44Z</time></trkpt><trkpt lat="45.7591664" lon="12.0868806"><ele>88.0</ele><time>2026-04-04T16:27:15.425Z</time></trkpt><trkpt lat="45.7590402" lon="12.0865562"><ele>87.0</ele><time>2026-04-04T16:27:16.428Z</time></trkpt><trkpt lat="45.7589121" lon="12.0862337"><ele>86.0</ele><time>2026-04-04T16:27:17.451Z</time></trkpt><trkpt lat="45.758785" lon="12.0859119"><ele>86.5</ele><time>2026-04-04T16:27:18.434Z</time></trkpt><trkpt lat="45.7586586" lon="12.085584"><ele>87.0</ele><time>2026-04-04T16:27:19.44Z</time></trkpt><trkpt lat="45.7585327" lon="12.0852573"><ele>87.0</ele><time>2026-04-04T16:27:20.434Z</time></trkpt><trkpt lat="45.7584081" lon="12.084935"><ele>87.0</ele><time>2026-04-04T16:27:21.413Z</time></trkpt><trkpt lat="45.7582757" lon="12.0846104"><ele>86.5</ele><time>2026-04-04T16:27:22.431Z</time></trkpt><trkpt lat="45.7581493" lon="12.0842767"><ele>86.0</ele><time>2026-04-04T16:27:23.43Z</time></trkpt><trkpt lat="45.7580225" lon="12.0839429"><ele>86.0</ele><time>2026-04-04T16:27:24.431Z</time></trkpt><trkpt lat="45.7578957" lon="12.0836119"><ele>86.0</ele><time>2026-04-04T16:27:25.446Z</time></trkpt><trkpt lat="45.7577731" lon="12.0832831"><ele>87.5</ele><time>2026-04-04T16:27:26.42Z</time></trkpt><trkpt lat="45.7576416" lon="12.0829492"><ele>89.0</ele><time>2026-04-04T16:27:27.438Z</time></trkpt><trkpt lat="45.7575153" lon="12.0826193"><ele>89.0</ele><time>2026-04-04T16:27:28.426Z</time></trkpt><trkpt lat="45.7573846" lon="12.0822874"><ele>89.0</ele><time>2026-04-04T16:27:29.433Z</time></trkpt><trkpt lat="45.7572544" lon="12.0819581"><ele>89.0</ele><time>2026-04-04T16:27:30.433Z</time></trkpt><trkpt lat="45.7571245" lon="12.0816272"><ele>89.0</ele><time>2026-04-04T16:27:31.445Z</time></trkpt><trkpt lat="45.7569971" lon="12.0813005"><ele>89.0</ele><time>2026-04-04T16:27:32.45Z</time></trkpt><trkpt lat="45.7568723" lon="12.0809763"><ele>89.0</ele><time>2026-04-04T16:27:33.439Z</time></trkpt><trkpt lat="45.7567468" lon="12.080652"><ele>87.5</ele><time>2026-04-04T16:27:34.426Z</time></trkpt><trkpt lat="45.7566197" lon="12.0803238"><ele>86.0</ele><time>2026-04-04T16:27:35.44Z</time></trkpt><trkpt lat="45.7564944" lon="12.0800001"><ele>86.5</ele><time>2026-04-04T16:27:36.429Z</time></trkpt><trkpt lat="45.7563707" lon="12.0796719"><ele>87.0</ele><time>2026-04-04T16:27:37.437Z</time></trkpt><trkpt lat="45.756248" lon="12.0793461"><ele>87.0</ele><time>2026-04-04T16:27:38.429Z</time></trkpt><trkpt lat="45.7561193" lon="12.0790289"><ele>87.0</ele><time>2026-04-04T16:27:39.426Z</time></trkpt><trkpt lat="45.7559838" lon="12.0787093"><ele>87.0</ele><time>2026-04-04T16:27:40.44Z</time></trkpt><trkpt lat="45.755851" lon="12.0783874"><ele>87.0</ele><time>2026-04-04T16:27:41.442Z</time></trkpt><trkpt lat="45.7557157" lon="12.0780686"><ele>87.0</ele><time>2026-04-04T16:27:42.423Z</time></trkpt><trkpt lat="45.755575" lon="12.0777471"><ele>87.0</ele><time>2026-04-04T16:27:43.441Z</time></trkpt><trkpt lat="45.7554332" lon="12.0774328"><ele>87.5</ele><time>2026-04-04T16:27:44.448Z</time></trkpt><trkpt lat="45.7552836" lon="12.0771263"><ele>88.0</ele><time>2026-04-04T16:27:45.448Z</time></trkpt><trkpt lat="45.7551269" lon="12.0768211"><ele>87.0</ele><time>2026-04-04T16:27:46.447Z</time></trkpt><trkpt lat="45.7549677" lon="12.0765224"><ele>86.0</ele><time>2026-04-04T16:27:47.426Z</time></trkpt><trkpt lat="45.7548032" lon="12.076222"><ele>86.0</ele><time>2026-04-04T16:27:48.431Z</time></trkpt><trkpt lat="45.7546338" lon="12.0759262"><ele>86.0</ele><time>2026-04-04T16:27:49.442Z</time></trkpt><trkpt lat="45.7544615" lon="12.0756412"><ele>86.5</ele><time>2026-04-04T16:27:50.432Z</time></trkpt><trkpt lat="45.7542838" lon="12.0753593"><ele>87.0</ele><time>2026-04-04T16:27:51.423Z</time></trkpt><trkpt lat="45.7541035" lon="12.0750782"><ele>87.5</ele><time>2026-04-04T16:27:52.433Z</time></trkpt><trkpt lat="45.7539206" lon="12.0748023"><ele>88.0</ele><time>2026-04-04T16:27:53.448Z</time></trkpt><trkpt lat="45.7537365" lon="12.0745324"><ele>88.0</ele><time>2026-04-04T16:27:54.439Z</time></trkpt><trkpt lat="45.7535457" lon="12.074266"><ele>88.0</ele><time>2026-04-04T16:27:55.447Z</time></trkpt><trkpt lat="45.7533523" lon="12.0740096"><ele>87.0</ele><time>2026-04-04T16:27:56.427Z</time></trkpt><trkpt lat="45.7531507" lon="12.0737565"><ele>86.0</ele><time>2026-04-04T16:27:57.44Z</time></trkpt><trkpt lat="45.7529481" lon="12.0735106"><ele>86.0</ele><time>2026-04-04T16:27:58.441Z</time></trkpt><trkpt lat="45.7527436" lon="12.0732722"><ele>86.0</ele><time>2026-04-04T16:27:59.414Z</time></trkpt><trkpt lat="45.7525301" lon="12.0730338"><ele>85.0</ele><time>2026-04-04T16:28:00.445Z</time></trkpt><trkpt lat="45.7523185" lon="12.0728045"><ele>84.0</ele><time>2026-04-04T16:28:01.438Z</time></trkpt><trkpt lat="45.7521013" lon="12.0725775"><ele>84.0</ele><time>2026-04-04T16:28:02.439Z</time></trkpt><trkpt lat="45.7518804" lon="12.072358"><ele>84.0</ele><time>2026-04-04T16:28:03.431Z</time></trkpt><trkpt lat="45.7516547" lon="12.0721469"><ele>84.0</ele><time>2026-04-04T16:28:04.416Z</time></trkpt><trkpt lat="45.7514227" lon="12.07194"><ele>84.0</ele><time>2026-04-04T16:28:05.439Z</time></trkpt><trkpt lat="45.7511929" lon="12.0717423"><ele>84.0</ele><time>2026-04-04T16:28:06.441Z</time></trkpt><trkpt lat="45.7509635" lon="12.0715515"><ele>84.0</ele><time>2026-04-04T16:28:07.431Z</time></trkpt><trkpt lat="45.7507319" lon="12.071364"><ele>84.0</ele><time>2026-04-04T16:28:08.437Z</time></trkpt><trkpt lat="45.7505016" lon="12.0711807"><ele>84.0</ele><time>2026-04-04T16:28:09.437Z</time></trkpt><trkpt lat="45.7502718" lon="12.0709987"><ele>84.0</ele><time>2026-04-04T16:28:10.446Z</time></trkpt><trkpt lat="45.7500435" lon="12.0708218"><ele>84.0</ele><time>2026-04-04T16:28:11.434Z</time></trkpt><trkpt lat="45.7498141" lon="12.0706442"><ele>84.0</ele><time>2026-04-04T16:28:12.428Z</time></trkpt><trkpt lat="45.7495832" lon="12.070466"><ele>84.0</ele><time>2026-04-04T16:28:13.44Z</time></trkpt><trkpt lat="45.7493538" lon="12.0702876"><ele>84.0</ele><time>2026-04-04T16:28:14.431Z</time></trkpt><trkpt lat="45.7491216" lon="12.0701056"><ele>84.0</ele><time>2026-04-04T16:28:15.444Z</time></trkpt><trkpt lat="45.7488931" lon="12.0699246"><ele>84.0</ele><time>2026-04-04T16:28:16.439Z</time></trkpt><trkpt lat="45.7486666" lon="12.06974"><ele>84.0</ele><time>2026-04-04T16:28:17.427Z</time></trkpt><trkpt lat="45.7484364" lon="12.0695601"><ele>82.5</ele><time>2026-04-04T16:28:18.437Z</time></trkpt><trkpt lat="45.7482162" lon="12.0693773"><ele>81.0</ele><time>2026-04-04T16:28:19.427Z</time></trkpt><trkpt lat="45.7479907" lon="12.0691897"><ele>81.5</ele><time>2026-04-04T16:28:20.445Z</time></trkpt><trkpt lat="45.7477707" lon="12.0689957"><ele>82.0</ele><time>2026-04-04T16:28:21.436Z</time></trkpt><trkpt lat="45.7475406" lon="12.0688112"><ele>82.0</ele><time>2026-04-04T16:28:22.442Z</time></trkpt><trkpt lat="45.7473223" lon="12.0686067"><ele>82.0</ele><time>2026-04-04T16:28:23.432Z</time></trkpt><trkpt lat="45.7471048" lon="12.0683917"><ele>81.5</ele><time>2026-04-04T16:28:24.432Z</time></trkpt><trkpt lat="45.7468968" lon="12.068175"><ele>81.0</ele><time>2026-04-04T16:28:25.444Z</time></trkpt><trkpt lat="45.746687" lon="12.0679471"><ele>81.0</ele><time>2026-04-04T16:28:26.435Z</time></trkpt><trkpt lat="45.7464829" lon="12.0677115"><ele>81.0</ele><time>2026-04-04T16:28:27.427Z</time></trkpt><trkpt lat="45.7462836" lon="12.0674709"><ele>81.0</ele><time>2026-04-04T16:28:28.424Z</time></trkpt><trkpt lat="45.7460857" lon="12.0672223"><ele>81.0</ele><time>2026-04-04T16:28:29.41Z</time></trkpt><trkpt lat="45.7458905" lon="12.0669679"><ele>81.0</ele><time>2026-04-04T16:28:30.423Z</time></trkpt><trkpt lat="45.7456971" lon="12.0667079"><ele>81.0</ele><time>2026-04-04T16:28:31.427Z</time></trkpt><trkpt lat="45.7455074" lon="12.0664393"><ele>81.0</ele><time>2026-04-04T16:28:32.442Z</time></trkpt><trkpt lat="45.7453238" lon="12.0661655"><ele>81.0</ele><time>2026-04-04T16:28:33.438Z</time></trkpt><trkpt lat="45.7451423" lon="12.0658837"><ele>81.0</ele><time>2026-04-04T16:28:34.443Z</time></trkpt><trkpt lat="45.7449621" lon="12.0655991"><ele>81.0</ele><time>2026-04-04T16:28:35.435Z</time></trkpt><trkpt lat="45.7447918" lon="12.0652962"><ele>81.0</ele><time>2026-04-04T16:28:36.454Z</time></trkpt><trkpt lat="45.7446235" lon="12.0649959"><ele>81.0</ele><time>2026-04-04T16:28:37.418Z</time></trkpt><trkpt lat="45.7420244" lon="12.0567896"><ele>80.0</ele><time>2026-04-04T16:29:01.396Z</time></trkpt><trkpt lat="45.7419935" lon="12.0564523"><ele>79.0</ele><time>2026-04-04T16:29:02.439Z</time></trkpt><trkpt lat="45.7418993" lon="12.0561189"><ele>78.0</ele><time>2026-04-04T16:29:03.422Z</time></trkpt><trkpt lat="45.7418263" lon="12.0557838"><ele>77.0</ele><time>2026-04-04T16:29:04.439Z</time></trkpt><trkpt lat="45.7417605" lon="12.0554618"><ele>77.0</ele><time>2026-04-04T16:29:05.434Z</time></trkpt><trkpt lat="45.7416936" lon="12.0551253"><ele>77.0</ele><time>2026-04-04T16:29:06.435Z</time></trkpt><trkpt lat="45.7416223" lon="12.0547785"><ele>77.0</ele><time>2026-04-04T16:29:07.425Z</time></trkpt><trkpt lat="45.7415494" lon="12.0544347"><ele>77.0</ele><time>2026-04-04T16:29:08.429Z</time></trkpt><trkpt lat="45.7414741" lon="12.0540897"><ele>76.5</ele><time>2026-04-04T16:29:09.419Z</time></trkpt><trkpt lat="45.7414027" lon="12.0537396"><ele>76.0</ele><time>2026-04-04T16:29:10.423Z</time></trkpt><trkpt lat="45.74133" lon="12.0533885"><ele>76.0</ele><time>2026-04-04T16:29:11.433Z</time></trkpt><trkpt lat="45.7412552" lon="12.0530421"><ele>76.0</ele><time>2026-04-04T16:29:12.433Z</time></trkpt><trkpt lat="45.7411755" lon="12.0526872"><ele>76.5</ele><time>2026-04-04T16:29:13.424Z</time></trkpt><trkpt lat="45.7410985" lon="12.0523366"><ele>77.0</ele><time>2026-04-04T16:29:14.433Z</time></trkpt><trkpt lat="45.7410204" lon="12.0519854"><ele>77.0</ele><time>2026-04-04T16:29:15.431Z</time></trkpt><trkpt lat="45.7409413" lon="12.0516328"><ele>77.0</ele><time>2026-04-04T16:29:16.445Z</time></trkpt><trkpt lat="45.7408624" lon="12.0512741"><ele>77.0</ele><time>2026-04-04T16:29:17.427Z</time></trkpt><trkpt lat="45.7407839" lon="12.050912"><ele>77.0</ele><time>2026-04-04T16:29:18.44Z</time></trkpt><trkpt lat="45.7407038" lon="12.0505495"><ele>76.5</ele><time>2026-04-04T16:29:19.46Z</time></trkpt><trkpt lat="45.7406176" lon="12.0501981"><ele>76.0</ele><time>2026-04-04T16:29:20.437Z</time></trkpt><trkpt lat="45.7405374" lon="12.0498282"><ele>76.0</ele><time>2026-04-04T16:29:21.443Z</time></trkpt><trkpt lat="45.7404613" lon="12.0494502"><ele>76.0</ele><time>2026-04-04T16:29:22.427Z</time></trkpt><trkpt lat="45.7403808" lon="12.049076"><ele>76.0</ele><time>2026-04-04T16:29:23.461Z</time></trkpt><trkpt lat="45.7402979" lon="12.0487031"><ele>76.0</ele><time>2026-04-04T16:29:24.436Z</time></trkpt><trkpt lat="45.7402104" lon="12.0483297"><ele>76.0</ele><time>2026-04-04T16:29:25.434Z</time></trkpt><trkpt lat="45.7401184" lon="12.0479552"><ele>76.0</ele><time>2026-04-04T16:29:26.434Z</time></trkpt><trkpt lat="45.7400202" lon="12.0475817"><ele>76.0</ele><time>2026-04-04T16:29:27.448Z</time></trkpt><trkpt lat="45.7399183" lon="12.047219"><ele>76.0</ele><time>2026-04-04T16:29:28.431Z</time></trkpt><trkpt lat="45.7398088" lon="12.0468608"><ele>76.0</ele><time>2026-04-04T16:29:29.409Z</time></trkpt><trkpt lat="45.7396832" lon="12.0464981"><ele>76.0</ele><time>2026-04-04T16:29:30.452Z</time></trkpt><trkpt lat="45.7395625" lon="12.0461459"><ele>76.0</ele><time>2026-04-04T16:29:31.448Z</time></trkpt><trkpt lat="45.7394416" lon="12.0457972"><ele>76.0</ele><time>2026-04-04T16:29:32.43Z</time></trkpt><trkpt lat="45.7393149" lon="12.0454493"><ele>75.5</ele><time>2026-04-04T16:29:33.431Z</time></trkpt><trkpt lat="45.7391819" lon="12.0451038"><ele>75.0</ele><time>2026-04-04T16:29:34.444Z</time></trkpt><trkpt lat="45.7390464" lon="12.0447678"><ele>74.5</ele><time>2026-04-04T16:29:35.437Z</time></trkpt><trkpt lat="45.738903" lon="12.0444375"><ele>74.0</ele><time>2026-04-04T16:29:36.451Z</time></trkpt><trkpt lat="45.7387596" lon="12.0441214"><ele>74.0</ele><time>2026-04-04T16:29:37.429Z</time></trkpt><trkpt lat="45.7386103" lon="12.0438034"><ele>74.0</ele><time>2026-04-04T16:29:38.432Z</time></trkpt><trkpt lat="45.738455" lon="12.0434872"><ele>73.5</ele><time>2026-04-04T16:29:39.437Z</time></trkpt><trkpt lat="45.738297" lon="12.0431841"><ele>73.0</ele><time>2026-04-04T16:29:40.426Z</time></trkpt><trkpt lat="45.738133" lon="12.0428803"><ele>73.0</ele><time>2026-04-04T16:29:41.449Z</time></trkpt><trkpt lat="45.7379754" lon="12.0425828"><ele>73.0</ele><time>2026-04-04T16:29:42.438Z</time></trkpt><trkpt lat="45.7378168" lon="12.0422824"><ele>72.5</ele><time>2026-04-04T16:29:43.436Z</time></trkpt><trkpt lat="45.737657" lon="12.0419861"><ele>72.0</ele><time>2026-04-04T16:29:44.441Z</time></trkpt><trkpt lat="45.7374964" lon="12.0416971"><ele>72.0</ele><time>2026-04-04T16:29:45.437Z</time></trkpt><trkpt lat="45.7373406" lon="12.041406"><ele>72.0</ele><time>2026-04-04T16:29:46.421Z</time></trkpt><trkpt lat="45.7371826" lon="12.0411087"><ele>72.0</ele><time>2026-04-04T16:29:47.443Z</time></trkpt><trkpt lat="45.7370276" lon="12.0408148"><ele>72.0</ele><time>2026-04-04T16:29:48.439Z</time></trkpt><trkpt lat="45.7368722" lon="12.0405187"><ele>72.0</ele><time>2026-04-04T16:29:49.429Z</time></trkpt><trkpt lat="45.7367156" lon="12.0402188"><ele>72.0</ele><time>2026-04-04T16:29:50.437Z</time></trkpt><trkpt lat="45.7365599" lon="12.0399225"><ele>72.0</ele><time>2026-04-04T16:29:51.44Z</time></trkpt><trkpt lat="45.7364035" lon="12.0396297"><ele>72.0</ele><time>2026-04-04T16:29:52.427Z</time></trkpt><trkpt lat="45.736245" lon="12.0393308"><ele>71.5</ele><time>2026-04-04T16:29:53.452Z</time></trkpt><trkpt lat="45.7360893" lon="12.0390408"><ele>71.0</ele><time>2026-04-04T16:29:54.436Z</time></trkpt><trkpt lat="45.7359311" lon="12.0387438"><ele>71.0</ele><time>2026-04-04T16:29:55.433Z</time></trkpt><trkpt lat="45.735772" lon="12.0384438"><ele>71.0</ele><time>2026-04-04T16:29:56.441Z</time></trkpt><trkpt lat="45.7356138" lon="12.0381466"><ele>71.5</ele><time>2026-04-04T16:29:57.454Z</time></trkpt><trkpt lat="45.7354571" lon="12.0378573"><ele>72.0</ele><time>2026-04-04T16:29:58.424Z</time></trkpt><trkpt lat="45.7352968" lon="12.0375615"><ele>72.0</ele><time>2026-04-04T16:29:59.417Z</time></trkpt><trkpt lat="45.7351342" lon="12.0372618"><ele>72.0</ele><time>2026-04-04T16:30:00.439Z</time></trkpt><trkpt lat="45.734969" lon="12.0369621"><ele>72.0</ele><time>2026-04-04T16:30:01.46Z</time></trkpt><trkpt lat="45.7348107" lon="12.0366668"><ele>72.0</ele><time>2026-04-04T16:30:02.438Z</time></trkpt><trkpt lat="45.7346494" lon="12.0363619"><ele>71.5</ele><time>2026-04-04T16:30:03.444Z</time></trkpt><trkpt lat="45.7344881" lon="12.0360568"><ele>71.0</ele><time>2026-04-04T16:30:04.431Z</time></trkpt><trkpt lat="45.734326" lon="12.0357461"><ele>71.0</ele><time>2026-04-04T16:30:05.426Z</time></trkpt><trkpt lat="45.7341622" lon="12.0354361"><ele>71.0</ele><time>2026-04-04T16:30:06.441Z</time></trkpt><trkpt lat="45.733999" lon="12.0351275"><ele>72.0</ele><time>2026-04-04T16:30:07.439Z</time></trkpt><trkpt lat="45.7338353" lon="12.0348196"><ele>73.0</ele><time>2026-04-04T16:30:08.447Z</time></trkpt><trkpt lat="45.7336725" lon="12.0345125"><ele>72.5</ele><time>2026-04-04T16:30:09.451Z</time></trkpt><trkpt lat="45.7335101" lon="12.0342062"><ele>72.0</ele><time>2026-04-04T16:30:10.432Z</time></trkpt><trkpt lat="45.7333474" lon="12.0338962"><ele>71.5</ele><time>2026-04-04T16:30:11.436Z</time></trkpt><trkpt lat="45.7331875" lon="12.0335843"><ele>71.0</ele><time>2026-04-04T16:30:12.456Z</time></trkpt><trkpt lat="45.733031" lon="12.0332764"><ele>71.0</ele><time>2026-04-04T16:30:13.442Z</time></trkpt><trkpt lat="45.7328728" lon="12.0329664"><ele>71.0</ele><time>2026-04-04T16:30:14.44Z</time></trkpt><trkpt lat="45.7327158" lon="12.0326479"><ele>70.5</ele><time>2026-04-04T16:30:15.448Z</time></trkpt><trkpt lat="45.7325705" lon="12.0323243"><ele>70.0</ele><time>2026-04-04T16:30:16.438Z</time></trkpt><trkpt lat="45.732429" lon="12.0319992"><ele>70.0</ele><time>2026-04-04T16:30:17.44Z</time></trkpt><trkpt lat="45.7322889" lon="12.0316755"><ele>70.0</ele><time>2026-04-04T16:30:18.445Z</time></trkpt><trkpt lat="45.7321534" lon="12.0313637"><ele>70.0</ele><time>2026-04-04T16:30:19.415Z</time></trkpt><trkpt lat="45.7320217" lon="12.0310392"><ele>70.0</ele><time>2026-04-04T16:30:20.429Z</time></trkpt><trkpt lat="45.7318967" lon="12.0307124"><ele>69.5</ele><time>2026-04-04T16:30:21.444Z</time></trkpt><trkpt lat="45.7317793" lon="12.0303884"><ele>69.0</ele><time>2026-04-04T16:30:22.44Z</time></trkpt><trkpt lat="45.7316648" lon="12.0300613"><ele>69.0</ele><time>2026-04-04T16:30:23.45Z</time></trkpt><trkpt lat="45.7315528" lon="12.0297373"><ele>69.0</ele><time>2026-04-04T16:30:24.43Z</time></trkpt><trkpt lat="45.7314432" lon="12.0294022"><ele>70.0</ele><time>2026-04-04T16:30:25.44Z</time></trkpt><trkpt lat="45.7313356" lon="12.0290697"><ele>71.0</ele><time>2026-04-04T16:30:26.406Z</time></trkpt><trkpt lat="45.7312295" lon="12.0287249"><ele>71.0</ele><time>2026-04-04T16:30:27.461Z</time></trkpt><trkpt lat="45.7311302" lon="12.0283901"><ele>71.0</ele><time>2026-04-04T16:30:28.432Z</time></trkpt><trkpt lat="45.7310328" lon="12.0280408"><ele>70.5</ele><time>2026-04-04T16:30:29.431Z</time></trkpt><trkpt lat="45.7309393" lon="12.0276907"><ele>70.0</ele><time>2026-04-04T16:30:30.43Z</time></trkpt><trkpt lat="45.7308481" lon="12.0273403"><ele>70.0</ele><time>2026-04-04T16:30:31.43Z</time></trkpt><trkpt lat="45.7307568" lon="12.0269911"><ele>70.0</ele><time>2026-04-04T16:30:32.44Z</time></trkpt><trkpt lat="45.7306711" lon="12.0266421"><ele>69.5</ele><time>2026-04-04T16:30:33.426Z</time></trkpt><trkpt lat="45.7305925" lon="12.0262861"><ele>69.0</ele><time>2026-04-04T16:30:34.425Z</time></trkpt><trkpt lat="45.730522" lon="12.0259255"><ele>69.5</ele><time>2026-04-04T16:30:35.44Z</time></trkpt><trkpt lat="45.7304535" lon="12.0255683"><ele>70.0</ele><time>2026-04-04T16:30:36.425Z</time></trkpt><trkpt lat="45.7303813" lon="12.0252088"><ele>70.0</ele><time>2026-04-04T16:30:37.438Z</time></trkpt><trkpt lat="45.7303141" lon="12.0248501"><ele>70.0</ele><time>2026-04-04T16:30:38.431Z</time></trkpt><trkpt lat="45.7302498" lon="12.024486"><ele>70.0</ele><time>2026-04-04T16:30:39.443Z</time></trkpt><trkpt lat="45.7301867" lon="12.0241226"><ele>70.0</ele><time>2026-04-04T16:30:40.429Z</time></trkpt><trkpt lat="45.7301289" lon="12.0237481"><ele>70.0</ele><time>2026-04-04T16:30:41.435Z</time></trkpt><trkpt lat="45.7300766" lon="12.023373"><ele>70.0</ele><time>2026-04-04T16:30:42.441Z</time></trkpt><trkpt lat="45.7300292" lon="12.0229996"><ele>70.0</ele><time>2026-04-04T16:30:43.428Z</time></trkpt><trkpt lat="45.7299861" lon="12.0226231"><ele>70.0</ele><time>2026-04-04T16:30:44.432Z</time></trkpt><trkpt lat="45.7299461" lon="12.0222512"><ele>70.0</ele><time>2026-04-04T16:30:45.448Z</time></trkpt><trkpt lat="45.7299098" lon="12.0218812"><ele>70.0</ele><time>2026-04-04T16:30:46.456Z</time></trkpt><trkpt lat="45.7298776" lon="12.0215132"><ele>69.5</ele><time>2026-04-04T16:30:47.44Z</time></trkpt><trkpt lat="45.7298459" lon="12.0211444"><ele>69.0</ele><time>2026-04-04T16:30:48.429Z</time></trkpt><trkpt lat="45.7298205" lon="12.0207714"><ele>70.5</ele><time>2026-04-04T16:30:49.43Z</time></trkpt><trkpt lat="45.7298" lon="12.0204015"><ele>72.0</ele><time>2026-04-04T16:30:50.436Z</time></trkpt><trkpt lat="45.7297833" lon="12.0200315"><ele>71.5</ele><time>2026-04-04T16:30:51.427Z</time></trkpt><trkpt lat="45.7297715" lon="12.0196622"><ele>71.0</ele><time>2026-04-04T16:30:52.431Z</time></trkpt><trkpt lat="45.7297624" lon="12.0192949"><ele>71.0</ele><time>2026-04-04T16:30:53.425Z</time></trkpt><trkpt lat="45.7297529" lon="12.0189269"><ele>71.0</ele><time>2026-04-04T16:30:54.423Z</time></trkpt><trkpt lat="45.7297434" lon="12.0185568"><ele>70.5</ele><time>2026-04-04T16:30:55.427Z</time></trkpt><trkpt lat="45.7297351" lon="12.0181817"><ele>70.0</ele><time>2026-04-04T16:30:56.452Z</time></trkpt><trkpt lat="45.7297288" lon="12.0178134"><ele>70.5</ele><time>2026-04-04T16:30:57.427Z</time></trkpt><trkpt lat="45.7297215" lon="12.0174367"><ele>71.0</ele><time>2026-04-04T16:30:58.437Z</time></trkpt><trkpt lat="45.7297135" lon="12.0170625"><ele>71.0</ele><time>2026-04-04T16:30:59.428Z</time></trkpt><trkpt lat="45.7297032" lon="12.0166828"><ele>71.0</ele><time>2026-04-04T16:31:00.438Z</time></trkpt><trkpt lat="45.7296909" lon="12.0163072"><ele>71.0</ele><time>2026-04-04T16:31:01.435Z</time></trkpt><trkpt lat="45.7296784" lon="12.01593"><ele>71.0</ele><time>2026-04-04T16:31:02.436Z</time></trkpt><trkpt lat="45.7296666" lon="12.0155534"><ele>71.0</ele><time>2026-04-04T16:31:03.435Z</time></trkpt><trkpt lat="45.7296567" lon="12.0151764"><ele>71.0</ele><time>2026-04-04T16:31:04.427Z</time></trkpt><trkpt lat="45.7296486" lon="12.0148011"><ele>70.5</ele><time>2026-04-04T16:31:05.416Z</time></trkpt><trkpt lat="45.7296401" lon="12.0144185"><ele>70.0</ele><time>2026-04-04T16:31:06.435Z</time></trkpt><trkpt lat="45.7296401" lon="12.0140501"><ele>70.0</ele><time>2026-04-04T16:31:07.446Z</time></trkpt><trkpt lat="45.7296341" lon="12.0136792"><ele>70.0</ele><time>2026-04-04T16:31:08.433Z</time></trkpt><trkpt lat="45.7296246" lon="12.0133001"><ele>70.5</ele><time>2026-04-04T16:31:09.44Z</time></trkpt><trkpt lat="45.7296137" lon="12.0129269"><ele>71.0</ele><time>2026-04-04T16:31:10.432Z</time></trkpt><trkpt lat="45.7296022" lon="12.0125533"><ele>70.5</ele><time>2026-04-04T16:31:11.431Z</time></trkpt><trkpt lat="45.7295931" lon="12.01218"><ele>70.0</ele><time>2026-04-04T16:31:12.431Z</time></trkpt><trkpt lat="45.7295802" lon="12.0117968"><ele>70.5</ele><time>2026-04-04T16:31:13.436Z</time></trkpt><trkpt lat="45.7295679" lon="12.0114182"><ele>71.0</ele><time>2026-04-04T16:31:14.396Z</time></trkpt><trkpt lat="45.7295567" lon="12.0110247"><ele>71.0</ele><time>2026-04-04T16:31:15.422Z</time></trkpt><trkpt lat="45.7295494" lon="12.0106402"><ele>71.0</ele><time>2026-04-04T16:31:16.412Z</time></trkpt><trkpt lat="45.729538" lon="12.0102578"><ele>70.5</ele><time>2026-04-04T16:31:17.424Z</time></trkpt><trkpt lat="45.7295278" lon="12.0098751"><ele>70.0</ele><time>2026-04-04T16:31:18.418Z</time></trkpt><trkpt lat="45.7295191" lon="12.0094916"><ele>70.5</ele><time>2026-04-04T16:31:19.442Z</time></trkpt><trkpt lat="45.7295103" lon="12.0091144"><ele>71.0</ele><time>2026-04-04T16:31:20.427Z</time></trkpt><trkpt lat="45.7295003" lon="12.0087308"><ele>71.0</ele><time>2026-04-04T16:31:21.441Z</time></trkpt><trkpt lat="45.7294901" lon="12.0083481"><ele>71.0</ele><time>2026-04-04T16:31:22.435Z</time></trkpt><trkpt lat="45.7294797" lon="12.0079646"><ele>71.0</ele><time>2026-04-04T16:31:23.427Z</time></trkpt><trkpt lat="45.7294687" lon="12.007578"><ele>71.0</ele><time>2026-04-04T16:31:24.432Z</time></trkpt><trkpt lat="45.729458" lon="12.0071915"><ele>71.0</ele><time>2026-04-04T16:31:25.434Z</time></trkpt><trkpt lat="45.7294486" lon="12.0068037"><ele>71.0</ele><time>2026-04-04T16:31:26.431Z</time></trkpt><trkpt lat="45.7294431" lon="12.0064168"><ele>71.0</ele><time>2026-04-04T16:31:27.424Z</time></trkpt><trkpt lat="45.7294373" lon="12.0060266"><ele>71.0</ele><time>2026-04-04T16:31:28.433Z</time></trkpt><trkpt lat="45.7294296" lon="12.0056446"><ele>71.5</ele><time>2026-04-04T16:31:29.438Z</time></trkpt><trkpt lat="45.7294186" lon="12.0052611"><ele>72.0</ele><time>2026-04-04T16:31:30.435Z</time></trkpt><trkpt lat="45.7294095" lon="12.0048766"><ele>72.0</ele><time>2026-04-04T16:31:31.435Z</time></trkpt><trkpt lat="45.7294032" lon="12.0044963"><ele>72.0</ele><time>2026-04-04T16:31:32.434Z</time></trkpt><trkpt lat="45.7293963" lon="12.0041164"><ele>71.0</ele><time>2026-04-04T16:31:33.437Z</time></trkpt><trkpt lat="45.7293907" lon="12.0037371"><ele>70.0</ele><time>2026-04-04T16:31:34.439Z</time></trkpt><trkpt lat="45.729383" lon="12.0033597"><ele>70.5</ele><time>2026-04-04T16:31:35.432Z</time></trkpt><trkpt lat="45.7293716" lon="12.0029818"><ele>71.0</ele><time>2026-04-04T16:31:36.439Z</time></trkpt><trkpt lat="45.7293573" lon="12.0026069"><ele>71.0</ele><time>2026-04-04T16:31:37.427Z</time></trkpt><trkpt lat="45.7293427" lon="12.0022327"><ele>71.0</ele><time>2026-04-04T16:31:38.411Z</time></trkpt><trkpt lat="45.7293199" lon="12.0018507"><ele>71.0</ele><time>2026-04-04T16:31:39.442Z</time></trkpt><trkpt lat="45.7292895" lon="12.0014762"><ele>71.0</ele><time>2026-04-04T16:31:40.438Z</time></trkpt><trkpt lat="45.7292502" lon="12.0011026"><ele>71.0</ele><time>2026-04-04T16:31:41.427Z</time></trkpt><trkpt lat="45.7292046" lon="12.0007253"><ele>71.0</ele><time>2026-04-04T16:31:42.463Z</time></trkpt><trkpt lat="45.7291572" lon="12.0003688"><ele>71.0</ele><time>2026-04-04T16:31:43.42Z</time></trkpt><trkpt lat="45.7291062" lon="11.9999956"><ele>71.0</ele><time>2026-04-04T16:31:44.405Z</time></trkpt><trkpt lat="45.7290472" lon="11.9996139"><ele>71.0</ele><time>2026-04-04T16:31:45.419Z</time></trkpt><trkpt lat="45.7289806" lon="11.9992428"><ele>71.0</ele><time>2026-04-04T16:31:46.433Z</time></trkpt><trkpt lat="45.7289019" lon="11.9988791"><ele>71.0</ele><time>2026-04-04T16:31:47.441Z</time></trkpt><trkpt lat="45.7288233" lon="11.9985185"><ele>71.0</ele><time>2026-04-04T16:31:48.429Z</time></trkpt><trkpt lat="45.728746" lon="11.9981629"><ele>71.0</ele><time>2026-04-04T16:31:49.437Z</time></trkpt><trkpt lat="45.7286724" lon="11.9978084"><ele>71.0</ele><time>2026-04-04T16:31:50.431Z</time></trkpt><trkpt lat="45.7286023" lon="11.9974544"><ele>70.0</ele><time>2026-04-04T16:31:51.425Z</time></trkpt><trkpt lat="45.7285323" lon="11.9970966"><ele>69.0</ele><time>2026-04-04T16:31:52.441Z</time></trkpt><trkpt lat="45.7284657" lon="11.9967343"><ele>69.5</ele><time>2026-04-04T16:31:53.449Z</time></trkpt><trkpt lat="45.7284013" lon="11.9963754"><ele>70.0</ele><time>2026-04-04T16:31:54.448Z</time></trkpt><trkpt lat="45.7283416" lon="11.9960188"><ele>70.5</ele><time>2026-04-04T16:31:55.425Z</time></trkpt><trkpt lat="45.728287" lon="11.9956554"><ele>71.0</ele><time>2026-04-04T16:31:56.44Z</time></trkpt><trkpt lat="45.7282402" lon="11.9952932"><ele>71.0</ele><time>2026-04-04T16:31:57.441Z</time></trkpt><trkpt lat="45.7281998" lon="11.9949248"><ele>71.0</ele><time>2026-04-04T16:31:58.44Z</time></trkpt><trkpt lat="45.7281642" lon="11.9945585"><ele>71.0</ele><time>2026-04-04T16:31:59.423Z</time></trkpt><trkpt lat="45.7281309" lon="11.994188"><ele>71.0</ele><time>2026-04-04T16:32:00.428Z</time></trkpt><trkpt lat="45.7281058" lon="11.993815"><ele>71.0</ele><time>2026-04-04T16:32:01.43Z</time></trkpt><trkpt lat="45.7280876" lon="11.9934399"><ele>71.0</ele><time>2026-04-04T16:32:02.433Z</time></trkpt><trkpt lat="45.7280756" lon="11.993063"><ele>71.5</ele><time>2026-04-04T16:32:03.44Z</time></trkpt><trkpt lat="45.7280686" lon="11.9926904"><ele>72.0</ele><time>2026-04-04T16:32:04.415Z</time></trkpt><trkpt lat="45.7280668" lon="11.9923093"><ele>72.5</ele><time>2026-04-04T16:32:05.435Z</time></trkpt><trkpt lat="45.7280706" lon="11.9919376"><ele>73.0</ele><time>2026-04-04T16:32:06.44Z</time></trkpt><trkpt lat="45.7280806" lon="11.99157"><ele>73.0</ele><time>2026-04-04T16:32:07.442Z</time></trkpt><trkpt lat="45.7280899" lon="11.9912063"><ele>73.0</ele><time>2026-04-04T16:32:08.428Z</time></trkpt><trkpt lat="45.7280982" lon="11.9908357"><ele>72.0</ele><time>2026-04-04T16:32:09.429Z</time></trkpt><trkpt lat="45.7281076" lon="11.9904628"><ele>71.0</ele><time>2026-04-04T16:32:10.435Z</time></trkpt><trkpt lat="45.7281387" lon="11.990091"><ele>71.0</ele><time>2026-04-04T16:32:11.435Z</time></trkpt><trkpt lat="45.7281979" lon="11.9897232"><ele>71.0</ele><time>2026-04-04T16:32:12.412Z</time></trkpt><trkpt lat="45.7282564" lon="11.9893405"><ele>71.5</ele><time>2026-04-04T16:32:13.437Z</time></trkpt><trkpt lat="45.7283205" lon="11.9889674"><ele>72.0</ele><time>2026-04-04T16:32:14.427Z</time></trkpt><trkpt lat="45.7283804" lon="11.9885912"><ele>71.0</ele><time>2026-04-04T16:32:15.443Z</time></trkpt><trkpt lat="45.7284489" lon="11.9882278"><ele>70.0</ele><time>2026-04-04T16:32:16.429Z</time></trkpt><trkpt lat="45.7285202" lon="11.9878648"><ele>72.0</ele><time>2026-04-04T16:32:17.438Z</time></trkpt><trkpt lat="45.7285891" lon="11.9875045"><ele>74.0</ele><time>2026-04-04T16:32:18.438Z</time></trkpt><trkpt lat="45.7286555" lon="11.987141"><ele>74.0</ele><time>2026-04-04T16:32:19.438Z</time></trkpt><trkpt lat="45.7287265" lon="11.9867793"><ele>74.0</ele><time>2026-04-04T16:32:20.444Z</time></trkpt><trkpt lat="45.7287948" lon="11.9864151"><ele>72.5</ele><time>2026-04-04T16:32:21.448Z</time></trkpt><trkpt lat="45.7288588" lon="11.9860488"><ele>71.0</ele><time>2026-04-04T16:32:22.443Z</time></trkpt><trkpt lat="45.7289201" lon="11.9856815"><ele>71.0</ele><time>2026-04-04T16:32:23.435Z</time></trkpt><trkpt lat="45.7289845" lon="11.985306"><ele>71.0</ele><time>2026-04-04T16:32:24.449Z</time></trkpt><trkpt lat="45.7290514" lon="11.9849368"><ele>71.0</ele><time>2026-04-04T16:32:25.449Z</time></trkpt><trkpt lat="45.7291207" lon="11.9845916"><ele>71.0</ele><time>2026-04-04T16:32:26.425Z</time></trkpt><trkpt lat="45.7292002" lon="11.9842347"><ele>71.0</ele><time>2026-04-04T16:32:27.432Z</time></trkpt><trkpt lat="45.7292746" lon="11.9838702"><ele>71.0</ele><time>2026-04-04T16:32:28.433Z</time></trkpt><trkpt lat="45.7293473" lon="11.9835119"><ele>72.0</ele><time>2026-04-04T16:32:29.445Z</time></trkpt><trkpt lat="45.7294194" lon="11.9831646"><ele>73.0</ele><time>2026-04-04T16:32:30.43Z</time></trkpt><trkpt lat="45.7294907" lon="11.9828056"><ele>73.0</ele><time>2026-04-04T16:32:31.437Z</time></trkpt><trkpt lat="45.7295622" lon="11.9824461"><ele>73.0</ele><time>2026-04-04T16:32:32.44Z</time></trkpt><trkpt lat="45.7296359" lon="11.9820877"><ele>73.0</ele><time>2026-04-04T16:32:33.414Z</time></trkpt><trkpt lat="45.7297111" lon="11.9817187"><ele>73.0</ele><time>2026-04-04T16:32:34.424Z</time></trkpt><trkpt lat="45.7297856" lon="11.9813536"><ele>73.0</ele><time>2026-04-04T16:32:35.428Z</time></trkpt><trkpt lat="45.7298547" lon="11.9809907"><ele>73.0</ele><time>2026-04-04T16:32:36.438Z</time></trkpt><trkpt lat="45.7299197" lon="11.9806272"><ele>73.0</ele><time>2026-04-04T16:32:37.441Z</time></trkpt><trkpt lat="45.7299794" lon="11.9802629"><ele>73.0</ele><time>2026-04-04T16:32:38.431Z</time></trkpt><trkpt lat="45.7300338" lon="11.9798918"><ele>73.5</ele><time>2026-04-04T16:32:39.446Z</time></trkpt><trkpt lat="45.730073" lon="11.9795192"><ele>74.0</ele><time>2026-04-04T16:32:40.438Z</time></trkpt><trkpt lat="45.7301014" lon="11.9791412"><ele>75.5</ele><time>2026-04-04T16:32:41.433Z</time></trkpt><trkpt lat="45.7301223" lon="11.9787644"><ele>77.0</ele><time>2026-04-04T16:32:42.413Z</time></trkpt><trkpt lat="45.7301357" lon="11.9783847"><ele>76.5</ele><time>2026-04-04T16:32:43.428Z</time></trkpt><trkpt lat="45.730138" lon="11.978003"><ele>76.0</ele><time>2026-04-04T16:32:44.423Z</time></trkpt><trkpt lat="45.7301356" lon="11.9776223"><ele>74.0</ele><time>2026-04-04T16:32:45.432Z</time></trkpt><trkpt lat="45.7301351" lon="11.9772414"><ele>72.0</ele><time>2026-04-04T16:32:46.416Z</time></trkpt><trkpt lat="45.7301385" lon="11.9768566"><ele>72.5</ele><time>2026-04-04T16:32:47.442Z</time></trkpt><trkpt lat="45.7301452" lon="11.976488"><ele>73.0</ele><time>2026-04-04T16:32:48.429Z</time></trkpt><trkpt lat="45.7301578" lon="11.9761243"><ele>72.5</ele><time>2026-04-04T16:32:49.425Z</time></trkpt><trkpt lat="45.7301685" lon="11.9757575"><ele>72.0</ele><time>2026-04-04T16:32:50.443Z</time></trkpt><trkpt lat="45.7301853" lon="11.9754045"><ele>72.0</ele><time>2026-04-04T16:32:51.417Z</time></trkpt><trkpt lat="45.7301975" lon="11.9750417"><ele>72.0</ele><time>2026-04-04T16:32:52.419Z</time></trkpt><trkpt lat="45.7302066" lon="11.9746672"><ele>72.0</ele><time>2026-04-04T16:32:53.431Z</time></trkpt><trkpt lat="45.730213" lon="11.9742876"><ele>72.0</ele><time>2026-04-04T16:32:54.441Z</time></trkpt><trkpt lat="45.7302194" lon="11.9739066"><ele>72.5</ele><time>2026-04-04T16:32:55.441Z</time></trkpt><trkpt lat="45.7302237" lon="11.9735245"><ele>73.0</ele><time>2026-04-04T16:32:56.444Z</time></trkpt><trkpt lat="45.7302301" lon="11.9731411"><ele>73.5</ele><time>2026-04-04T16:32:57.435Z</time></trkpt><trkpt lat="45.7302376" lon="11.9727553"><ele>74.0</ele><time>2026-04-04T16:32:58.425Z</time></trkpt><trkpt lat="45.7302471" lon="11.9723664"><ele>74.0</ele><time>2026-04-04T16:32:59.433Z</time></trkpt><trkpt lat="45.7302586" lon="11.9719797"><ele>74.0</ele><time>2026-04-04T16:33:00.438Z</time></trkpt><trkpt lat="45.7302763" lon="11.9715981"><ele>74.0</ele><time>2026-04-04T16:33:01.435Z</time></trkpt><trkpt lat="45.7303009" lon="11.9712216"><ele>74.0</ele><time>2026-04-04T16:33:02.436Z</time></trkpt><trkpt lat="45.7303285" lon="11.9708485"><ele>74.0</ele><time>2026-04-04T16:33:03.435Z</time></trkpt><trkpt lat="45.7303557" lon="11.9704774"><ele>74.0</ele><time>2026-04-04T16:33:04.426Z</time></trkpt><trkpt lat="45.7303848" lon="11.9701056"><ele>73.5</ele><time>2026-04-04T16:33:05.42Z</time></trkpt><trkpt lat="45.7304216" lon="11.9697305"><ele>73.0</ele><time>2026-04-04T16:33:06.443Z</time></trkpt><trkpt lat="45.7304633" lon="11.9693635"><ele>72.0</ele><time>2026-04-04T16:33:07.435Z</time></trkpt><trkpt lat="45.730513" lon="11.968995"><ele>71.0</ele><time>2026-04-04T16:33:08.439Z</time></trkpt><trkpt lat="45.7305739" lon="11.9686292"><ele>71.0</ele><time>2026-04-04T16:33:09.443Z</time></trkpt><trkpt lat="45.7306376" lon="11.9682613"><ele>71.0</ele><time>2026-04-04T16:33:10.446Z</time></trkpt><trkpt lat="45.7307074" lon="11.9678972"><ele>71.0</ele><time>2026-04-04T16:33:11.45Z</time></trkpt><trkpt lat="45.730778" lon="11.9675383"><ele>71.0</ele><time>2026-04-04T16:33:12.421Z</time></trkpt><trkpt lat="45.7308515" lon="11.9671751"><ele>71.0</ele><time>2026-04-04T16:33:13.444Z</time></trkpt><trkpt lat="45.7309228" lon="11.9668184"><ele>71.0</ele><time>2026-04-04T16:33:14.436Z</time></trkpt><trkpt lat="45.7309951" lon="11.9664649"><ele>70.5</ele><time>2026-04-04T16:33:15.413Z</time></trkpt><trkpt lat="45.7310682" lon="11.9661094"><ele>70.0</ele><time>2026-04-04T16:33:16.427Z</time></trkpt><trkpt lat="45.7311407" lon="11.9657593"><ele>69.5</ele><time>2026-04-04T16:33:17.434Z</time></trkpt><trkpt lat="45.7312144" lon="11.9654063"><ele>69.0</ele><time>2026-04-04T16:33:18.438Z</time></trkpt><trkpt lat="45.7312907" lon="11.9650505"><ele>69.5</ele><time>2026-04-04T16:33:19.44Z</time></trkpt><trkpt lat="45.7313624" lon="11.9646835"><ele>70.0</ele><time>2026-04-04T16:33:20.417Z</time></trkpt><trkpt lat="45.7314309" lon="11.9642917"><ele>70.5</ele><time>2026-04-04T16:33:21.437Z</time></trkpt><trkpt lat="45.7314993" lon="11.9638888"><ele>71.0</ele><time>2026-04-04T16:33:22.433Z</time></trkpt><trkpt lat="45.7315715" lon="11.9634984"><ele>71.5</ele><time>2026-04-04T16:33:23.425Z</time></trkpt><trkpt lat="45.7316437" lon="11.963135"><ele>72.0</ele><time>2026-04-04T16:33:24.441Z</time></trkpt><trkpt lat="45.7317138" lon="11.9627953"><ele>71.5</ele><time>2026-04-04T16:33:25.442Z</time></trkpt><trkpt lat="45.7317865" lon="11.962466"><ele>71.0</ele><time>2026-04-04T16:33:26.441Z</time></trkpt><trkpt lat="45.7318581" lon="11.9621281"><ele>71.5</ele><time>2026-04-04T16:33:27.452Z</time></trkpt><trkpt lat="45.731928" lon="11.9617855"><ele>72.0</ele><time>2026-04-04T16:33:28.436Z</time></trkpt><trkpt lat="45.7319984" lon="11.9614382"><ele>72.0</ele><time>2026-04-04T16:33:29.412Z</time></trkpt><trkpt lat="45.7320715" lon="11.9610827"><ele>72.0</ele><time>2026-04-04T16:33:30.433Z</time></trkpt><trkpt lat="45.7321437" lon="11.960731"><ele>72.0</ele><time>2026-04-04T16:33:31.432Z</time></trkpt><trkpt lat="45.7322192" lon="11.9603786"><ele>72.0</ele><time>2026-04-04T16:33:32.432Z</time></trkpt><trkpt lat="45.7322979" lon="11.9600264"><ele>72.5</ele><time>2026-04-04T16:33:33.431Z</time></trkpt><trkpt lat="45.7323817" lon="11.9596734"><ele>73.0</ele><time>2026-04-04T16:33:34.44Z</time></trkpt><trkpt lat="45.7324735" lon="11.9593246"><ele>72.5</ele><time>2026-04-04T16:33:35.436Z</time></trkpt><trkpt lat="45.7325785" lon="11.9589826"><ele>72.0</ele><time>2026-04-04T16:33:36.422Z</time></trkpt><trkpt lat="45.7326949" lon="11.9586455"><ele>71.5</ele><time>2026-04-04T16:33:37.416Z</time></trkpt><trkpt lat="45.7328105" lon="11.9583039"><ele>71.0</ele><time>2026-04-04T16:33:38.431Z</time></trkpt><trkpt lat="45.7329272" lon="11.9579714"><ele>73.0</ele><time>2026-04-04T16:33:39.424Z</time></trkpt><trkpt lat="45.7335463" lon="11.95634"><ele>73.0</ele><time>2026-04-04T16:33:44.408Z</time></trkpt><trkpt lat="45.7337025" lon="11.9560378"><ele>73.0</ele><time>2026-04-04T16:33:45.427Z</time></trkpt><trkpt lat="45.7338588" lon="11.9557468"><ele>73.0</ele><time>2026-04-04T16:33:46.429Z</time></trkpt><trkpt lat="45.7340324" lon="11.9554779"><ele>73.0</ele><time>2026-04-04T16:33:47.436Z</time></trkpt><trkpt lat="45.734202" lon="11.9551893"><ele>73.0</ele><time>2026-04-04T16:33:48.439Z</time></trkpt><trkpt lat="45.7343719" lon="11.9549046"><ele>73.0</ele><time>2026-04-04T16:33:49.425Z</time></trkpt><trkpt lat="45.7345421" lon="11.9546162"><ele>73.0</ele><time>2026-04-04T16:33:50.42Z</time></trkpt><trkpt lat="45.7347163" lon="11.9543342"><ele>73.0</ele><time>2026-04-04T16:33:51.429Z</time></trkpt><trkpt lat="45.7348912" lon="11.9540554"><ele>73.0</ele><time>2026-04-04T16:33:52.44Z</time></trkpt><trkpt lat="45.735069" lon="11.9537804"><ele>73.0</ele><time>2026-04-04T16:33:53.445Z</time></trkpt><trkpt lat="45.7352479" lon="11.9535067"><ele>74.0</ele><time>2026-04-04T16:33:54.429Z</time></trkpt><trkpt lat="45.7354301" lon="11.9532267"><ele>75.0</ele><time>2026-04-04T16:33:55.437Z</time></trkpt><trkpt lat="45.7356108" lon="11.9529479"><ele>75.0</ele><time>2026-04-04T16:33:56.441Z</time></trkpt><trkpt lat="45.7357917" lon="11.9526674"><ele>75.0</ele><time>2026-04-04T16:33:57.429Z</time></trkpt><trkpt lat="45.7359734" lon="11.9523825"><ele>74.5</ele><time>2026-04-04T16:33:58.457Z</time></trkpt><trkpt lat="45.7361479" lon="11.9521056"><ele>74.0</ele><time>2026-04-04T16:33:59.43Z</time></trkpt><trkpt lat="45.7363207" lon="11.9518225"><ele>74.5</ele><time>2026-04-04T16:34:00.425Z</time></trkpt><trkpt lat="45.7364865" lon="11.951543"><ele>75.0</ele><time>2026-04-04T16:34:01.409Z</time></trkpt><trkpt lat="45.7368432" lon="11.9509969"><ele>74.5</ele><time>2026-04-04T16:34:03.43Z</time></trkpt><trkpt lat="45.737025" lon="11.9507276"><ele>74.0</ele><time>2026-04-04T16:34:04.435Z</time></trkpt><trkpt lat="45.737199" lon="11.9504499"><ele>74.0</ele><time>2026-04-04T16:34:05.416Z</time></trkpt><trkpt lat="45.737373" lon="11.9501571"><ele>74.0</ele><time>2026-04-04T16:34:06.414Z</time></trkpt><trkpt lat="45.7375556" lon="11.9498751"><ele>75.0</ele><time>2026-04-04T16:34:07.445Z</time></trkpt><trkpt lat="45.7377252" lon="11.9496001"><ele>76.0</ele><time>2026-04-04T16:34:08.425Z</time></trkpt><trkpt lat="45.7379043" lon="11.9493264"><ele>76.0</ele><time>2026-04-04T16:34:09.434Z</time></trkpt><trkpt lat="45.7380753" lon="11.9490559"><ele>76.0</ele><time>2026-04-04T16:34:10.429Z</time></trkpt><trkpt lat="45.7382412" lon="11.9487774"><ele>76.0</ele><time>2026-04-04T16:34:11.426Z</time></trkpt><trkpt lat="45.7384007" lon="11.9484878"><ele>76.0</ele><time>2026-04-04T16:34:12.443Z</time></trkpt><trkpt lat="45.7385526" lon="11.9481897"><ele>75.0</ele><time>2026-04-04T16:34:13.423Z</time></trkpt><trkpt lat="45.7387023" lon="11.9478812"><ele>74.0</ele><time>2026-04-04T16:34:14.426Z</time></trkpt><trkpt lat="45.7388466" lon="11.9475669"><ele>74.0</ele><time>2026-04-04T16:34:15.426Z</time></trkpt><trkpt lat="45.7389899" lon="11.9472505"><ele>74.0</ele><time>2026-04-04T16:34:16.426Z</time></trkpt><trkpt lat="45.7391342" lon="11.9469342"><ele>73.5</ele><time>2026-04-04T16:34:17.432Z</time></trkpt><trkpt lat="45.7392664" lon="11.9466151"><ele>73.0</ele><time>2026-04-04T16:34:18.415Z</time></trkpt><trkpt lat="45.7393989" lon="11.9462848"><ele>74.0</ele><time>2026-04-04T16:34:19.427Z</time></trkpt><trkpt lat="45.7395191" lon="11.9459469"><ele>75.0</ele><time>2026-04-04T16:34:20.424Z</time></trkpt><trkpt lat="45.7396344" lon="11.9456061"><ele>75.0</ele><time>2026-04-04T16:34:21.441Z</time></trkpt><trkpt lat="45.7397423" lon="11.9452643"><ele>75.0</ele><time>2026-04-04T16:34:22.417Z</time></trkpt><trkpt lat="45.7398451" lon="11.9449121"><ele>75.5</ele><time>2026-04-04T16:34:23.429Z</time></trkpt><trkpt lat="45.7399407" lon="11.9445589"><ele>76.0</ele><time>2026-04-04T16:34:24.447Z</time></trkpt><trkpt lat="45.7400301" lon="11.9442164"><ele>75.5</ele><time>2026-04-04T16:34:25.432Z</time></trkpt><trkpt lat="45.7401247" lon="11.9438668"><ele>75.0</ele><time>2026-04-04T16:34:26.449Z</time></trkpt><trkpt lat="45.7402184" lon="11.943519"><ele>75.5</ele><time>2026-04-04T16:34:27.441Z</time></trkpt><trkpt lat="45.7403197" lon="11.9431733"><ele>76.0</ele><time>2026-04-04T16:34:28.403Z</time></trkpt><trkpt lat="45.7404204" lon="11.9428188"><ele>76.0</ele><time>2026-04-04T16:34:29.431Z</time></trkpt><trkpt lat="45.7405202" lon="11.9424746"><ele>76.0</ele><time>2026-04-04T16:34:30.442Z</time></trkpt><trkpt lat="45.7406185" lon="11.9421328"><ele>76.0</ele><time>2026-04-04T16:34:31.447Z</time></trkpt><trkpt lat="45.7407183" lon="11.9417868"><ele>76.0</ele><time>2026-04-04T16:34:32.435Z</time></trkpt><trkpt lat="45.7408134" lon="11.9414332"><ele>75.5</ele><time>2026-04-04T16:34:33.439Z</time></trkpt><trkpt lat="45.7409105" lon="11.9410831"><ele>75.0</ele><time>2026-04-04T16:34:34.424Z</time></trkpt><trkpt lat="45.7410078" lon="11.9407341"><ele>75.5</ele><time>2026-04-04T16:34:35.411Z</time></trkpt><trkpt lat="45.7411058" lon="11.9403785"><ele>76.0</ele><time>2026-04-04T16:34:36.434Z</time></trkpt><trkpt lat="45.7412046" lon="11.9400332"><ele>76.0</ele><time>2026-04-04T16:34:37.435Z</time></trkpt><trkpt lat="45.741298" lon="11.9396742"><ele>76.0</ele><time>2026-04-04T16:34:38.435Z</time></trkpt><trkpt lat="45.7413952" lon="11.9393231"><ele>75.5</ele><time>2026-04-04T16:34:39.438Z</time></trkpt><trkpt lat="45.7414915" lon="11.9389767"><ele>75.0</ele><time>2026-04-04T16:34:40.42Z</time></trkpt><trkpt lat="45.7415878" lon="11.9386284"><ele>74.0</ele><time>2026-04-04T16:34:41.44Z</time></trkpt><trkpt lat="45.7416809" lon="11.9382844"><ele>73.0</ele><time>2026-04-04T16:34:42.442Z</time></trkpt><trkpt lat="45.7417749" lon="11.9379392"><ele>73.0</ele><time>2026-04-04T16:34:43.432Z</time></trkpt><trkpt lat="45.7418722" lon="11.9375876"><ele>73.0</ele><time>2026-04-04T16:34:44.438Z</time></trkpt><trkpt lat="45.7419678" lon="11.9372443"><ele>73.0</ele><time>2026-04-04T16:34:45.42Z</time></trkpt><trkpt lat="45.7420647" lon="11.9369002"><ele>73.0</ele><time>2026-04-04T16:34:46.434Z</time></trkpt><trkpt lat="45.7421613" lon="11.9365554"><ele>73.5</ele><time>2026-04-04T16:34:47.438Z</time></trkpt><trkpt lat="45.7422602" lon="11.9362057"><ele>74.0</ele><time>2026-04-04T16:34:48.454Z</time></trkpt><trkpt lat="45.7423575" lon="11.935858"><ele>74.5</ele><time>2026-04-04T16:34:49.435Z</time></trkpt><trkpt lat="45.7424549" lon="11.9355061"><ele>75.0</ele><time>2026-04-04T16:34:50.437Z</time></trkpt><trkpt lat="45.7425528" lon="11.935155"><ele>75.0</ele><time>2026-04-04T16:34:51.442Z</time></trkpt><trkpt lat="45.7426493" lon="11.9348118"><ele>75.0</ele><time>2026-04-04T16:34:52.425Z</time></trkpt><trkpt lat="45.7427365" lon="11.934459"><ele>75.0</ele><time>2026-04-04T16:34:53.421Z</time></trkpt><trkpt lat="45.7428335" lon="11.9341194"><ele>75.0</ele><time>2026-04-04T16:34:54.418Z</time></trkpt><trkpt lat="45.7430377" lon="11.9334414"><ele>75.0</ele><time>2026-04-04T16:34:56.416Z</time></trkpt><trkpt lat="45.7431344" lon="11.9330804"><ele>75.0</ele><time>2026-04-04T16:34:57.423Z</time></trkpt><trkpt lat="45.743226" lon="11.9327178"><ele>74.0</ele><time>2026-04-04T16:34:58.438Z</time></trkpt><trkpt lat="45.743312" lon="11.9323653"><ele>73.0</ele><time>2026-04-04T16:34:59.436Z</time></trkpt><trkpt lat="45.7433914" lon="11.9320088"><ele>74.0</ele><time>2026-04-04T16:35:00.42Z</time></trkpt><trkpt lat="45.7434724" lon="11.9316346"><ele>75.0</ele><time>2026-04-04T16:35:01.455Z</time></trkpt><trkpt lat="45.7435424" lon="11.9312756"><ele>75.0</ele><time>2026-04-04T16:35:02.413Z</time></trkpt><trkpt lat="45.7436076" lon="11.9309044"><ele>75.0</ele><time>2026-04-04T16:35:03.436Z</time></trkpt><trkpt lat="45.7436703" lon="11.9305396"><ele>74.5</ele><time>2026-04-04T16:35:04.424Z</time></trkpt><trkpt lat="45.7437292" lon="11.9301693"><ele>74.0</ele><time>2026-04-04T16:35:05.426Z</time></trkpt><trkpt lat="45.7437855" lon="11.9297958"><ele>74.0</ele><time>2026-04-04T16:35:06.443Z</time></trkpt><trkpt lat="45.7438408" lon="11.9294284"><ele>74.0</ele><time>2026-04-04T16:35:07.409Z</time></trkpt><trkpt lat="45.7438935" lon="11.9290498"><ele>74.5</ele><time>2026-04-04T16:35:08.431Z</time></trkpt><trkpt lat="45.7439443" lon="11.9286789"><ele>75.0</ele><time>2026-04-04T16:35:09.431Z</time></trkpt><trkpt lat="45.743993" lon="11.9283058"><ele>75.5</ele><time>2026-04-04T16:35:10.43Z</time></trkpt><trkpt lat="45.7440439" lon="11.9279328"><ele>76.0</ele><time>2026-04-04T16:35:11.437Z</time></trkpt><trkpt lat="45.7440965" lon="11.9275636"><ele>75.0</ele><time>2026-04-04T16:35:12.439Z</time></trkpt><trkpt lat="45.7441488" lon="11.927196"><ele>74.0</ele><time>2026-04-04T16:35:13.446Z</time></trkpt><trkpt lat="45.7441969" lon="11.9268461"><ele>73.5</ele><time>2026-04-04T16:35:14.41Z</time></trkpt><trkpt lat="45.7442476" lon="11.9264841"><ele>73.0</ele><time>2026-04-04T16:35:15.42Z</time></trkpt><trkpt lat="45.7442973" lon="11.9261194"><ele>73.0</ele><time>2026-04-04T16:35:16.455Z</time></trkpt><trkpt lat="45.7443426" lon="11.9257597"><ele>73.0</ele><time>2026-04-04T16:35:17.442Z</time></trkpt><trkpt lat="45.7443889" lon="11.9253986"><ele>73.5</ele><time>2026-04-04T16:35:18.425Z</time></trkpt><trkpt lat="45.7444388" lon="11.9250321"><ele>74.0</ele><time>2026-04-04T16:35:19.435Z</time></trkpt><trkpt lat="45.7444897" lon="11.9246657"><ele>74.0</ele><time>2026-04-04T16:35:20.453Z</time></trkpt><trkpt lat="45.7445427" lon="11.9243016"><ele>74.0</ele><time>2026-04-04T16:35:21.451Z</time></trkpt><trkpt lat="45.744594" lon="11.9239396"><ele>74.0</ele><time>2026-04-04T16:35:22.423Z</time></trkpt><trkpt lat="45.7446453" lon="11.9235696"><ele>74.0</ele><time>2026-04-04T16:35:23.442Z</time></trkpt><trkpt lat="45.7446947" lon="11.9232045"><ele>73.5</ele><time>2026-04-04T16:35:24.426Z</time></trkpt><trkpt lat="45.7447454" lon="11.9228334"><ele>73.0</ele><time>2026-04-04T16:35:25.437Z</time></trkpt><trkpt lat="45.7447967" lon="11.9224646"><ele>73.0</ele><time>2026-04-04T16:35:26.429Z</time></trkpt><trkpt lat="45.7448531" lon="11.9220941"><ele>73.0</ele><time>2026-04-04T16:35:27.443Z</time></trkpt><trkpt lat="45.7449137" lon="11.9217278"><ele>73.0</ele><time>2026-04-04T16:35:28.437Z</time></trkpt><trkpt lat="45.744982" lon="11.9213681"><ele>73.0</ele><time>2026-04-04T16:35:29.432Z</time></trkpt><trkpt lat="45.7450555" lon="11.9210057"><ele>72.5</ele><time>2026-04-04T16:35:30.425Z</time></trkpt><trkpt lat="45.7451391" lon="11.9206471"><ele>72.0</ele><time>2026-04-04T16:35:31.423Z</time></trkpt><trkpt lat="45.7452349" lon="11.9202889"><ele>73.0</ele><time>2026-04-04T16:35:32.444Z</time></trkpt><trkpt lat="45.7453335" lon="11.9199414"><ele>74.0</ele><time>2026-04-04T16:35:33.427Z</time></trkpt><trkpt lat="45.7454368" lon="11.919592"><ele>74.0</ele><time>2026-04-04T16:35:34.437Z</time></trkpt><trkpt lat="45.7455433" lon="11.9192497"><ele>74.0</ele><time>2026-04-04T16:35:35.438Z</time></trkpt><trkpt lat="45.7456578" lon="11.9189085"><ele>74.0</ele><time>2026-04-04T16:35:36.447Z</time></trkpt><trkpt lat="45.7457763" lon="11.9185741"><ele>74.0</ele><time>2026-04-04T16:35:37.438Z</time></trkpt><trkpt lat="45.7459008" lon="11.9182426"><ele>73.5</ele><time>2026-04-04T16:35:38.429Z</time></trkpt><trkpt lat="45.7460304" lon="11.9179163"><ele>73.0</ele><time>2026-04-04T16:35:39.424Z</time></trkpt><trkpt lat="45.7461635" lon="11.9175902"><ele>72.5</ele><time>2026-04-04T16:35:40.435Z</time></trkpt><trkpt lat="45.7462947" lon="11.9172676"><ele>72.0</ele><time>2026-04-04T16:35:41.424Z</time></trkpt><trkpt lat="45.7464279" lon="11.9169427"><ele>71.0</ele><time>2026-04-04T16:35:42.429Z</time></trkpt><trkpt lat="45.7465611" lon="11.9166253"><ele>70.0</ele><time>2026-04-04T16:35:43.427Z</time></trkpt><trkpt lat="45.7466976" lon="11.9163002"><ele>70.0</ele><time>2026-04-04T16:35:44.453Z</time></trkpt><trkpt lat="45.7468285" lon="11.915982"><ele>70.0</ele><time>2026-04-04T16:35:45.41Z</time></trkpt><trkpt lat="45.7469622" lon="11.9156488"><ele>70.5</ele><time>2026-04-04T16:35:46.419Z</time></trkpt><trkpt lat="45.747096" lon="11.915317"><ele>71.0</ele><time>2026-04-04T16:35:47.419Z</time></trkpt><trkpt lat="45.7472309" lon="11.9149838"><ele>71.5</ele><time>2026-04-04T16:35:48.437Z</time></trkpt><trkpt lat="45.7473668" lon="11.914653"><ele>72.0</ele><time>2026-04-04T16:35:49.436Z</time></trkpt><trkpt lat="45.7475049" lon="11.9143221"><ele>73.0</ele><time>2026-04-04T16:35:50.432Z</time></trkpt><trkpt lat="45.7496062" lon="11.908518"><ele>72.5</ele><time>2026-04-04T16:36:07.367Z</time></trkpt><trkpt lat="45.7496969" lon="11.90805"><ele>72.0</ele><time>2026-04-04T16:36:08.421Z</time></trkpt><trkpt lat="45.7497835" lon="11.9075838"><ele>72.0</ele><time>2026-04-04T16:36:09.434Z</time></trkpt><trkpt lat="45.7498835" lon="11.9071243"><ele>72.0</ele><time>2026-04-04T16:36:10.415Z</time></trkpt><trkpt lat="45.7499934" lon="11.9066551"><ele>71.5</ele><time>2026-04-04T16:36:11.418Z</time></trkpt><trkpt lat="45.7501042" lon="11.9061739"><ele>71.0</ele><time>2026-04-04T16:36:12.423Z</time></trkpt><trkpt lat="45.7502172" lon="11.9057146"><ele>71.0</ele><time>2026-04-04T16:36:13.434Z</time></trkpt><trkpt lat="45.7503328" lon="11.9052711"><ele>71.0</ele><time>2026-04-04T16:36:14.42Z</time></trkpt><trkpt lat="45.7504541" lon="11.9048264"><ele>71.5</ele><time>2026-04-04T16:36:15.426Z</time></trkpt><trkpt lat="45.7505773" lon="11.9043901"><ele>72.0</ele><time>2026-04-04T16:36:16.423Z</time></trkpt><trkpt lat="45.7506999" lon="11.9039495"><ele>72.0</ele><time>2026-04-04T16:36:17.424Z</time></trkpt><trkpt lat="45.7508092" lon="11.9035311"><ele>72.0</ele><time>2026-04-04T16:36:18.411Z</time></trkpt><trkpt lat="45.750918" lon="11.9031205"><ele>71.5</ele><time>2026-04-04T16:36:19.41Z</time></trkpt><trkpt lat="45.751023" lon="11.9027222"><ele>71.0</ele><time>2026-04-04T16:36:20.414Z</time></trkpt><trkpt lat="45.7511245" lon="11.9023378"><ele>71.0</ele><time>2026-04-04T16:36:21.417Z</time></trkpt><trkpt lat="45.751223" lon="11.9019586"><ele>71.0</ele><time>2026-04-04T16:36:22.44Z</time></trkpt><trkpt lat="45.751318" lon="11.9015836"><ele>71.0</ele><time>2026-04-04T16:36:23.447Z</time></trkpt><trkpt lat="45.7514088" lon="11.901215"><ele>71.0</ele><time>2026-04-04T16:36:24.43Z</time></trkpt><trkpt lat="45.7514999" lon="11.9008476"><ele>71.0</ele><time>2026-04-04T16:36:25.431Z</time></trkpt><trkpt lat="45.7515904" lon="11.9004901"><ele>71.0</ele><time>2026-04-04T16:36:26.414Z</time></trkpt><trkpt lat="45.7516843" lon="11.9001291"><ele>71.0</ele><time>2026-04-04T16:36:27.429Z</time></trkpt><trkpt lat="45.7517775" lon="11.8997754"><ele>71.0</ele><time>2026-04-04T16:36:28.419Z</time></trkpt><trkpt lat="45.7518713" lon="11.8994187"><ele>72.0</ele><time>2026-04-04T16:36:29.418Z</time></trkpt><trkpt lat="45.7519649" lon="11.8990583"><ele>73.0</ele><time>2026-04-04T16:36:30.429Z</time></trkpt><trkpt lat="45.7520579" lon="11.8986983"><ele>72.0</ele><time>2026-04-04T16:36:31.43Z</time></trkpt><trkpt lat="45.7521508" lon="11.8983374"><ele>71.0</ele><time>2026-04-04T16:36:32.429Z</time></trkpt><trkpt lat="45.7522437" lon="11.8979782"><ele>71.0</ele><time>2026-04-04T16:36:33.424Z</time></trkpt><trkpt lat="45.7523357" lon="11.8976199"><ele>71.0</ele><time>2026-04-04T16:36:34.423Z</time></trkpt><trkpt lat="45.7524268" lon="11.8972639"><ele>71.0</ele><time>2026-04-04T16:36:35.416Z</time></trkpt><trkpt lat="45.7525186" lon="11.8969044"><ele>71.0</ele><time>2026-04-04T16:36:36.423Z</time></trkpt><trkpt lat="45.7526092" lon="11.896546"><ele>71.0</ele><time>2026-04-04T16:36:37.43Z</time></trkpt><trkpt lat="45.7526988" lon="11.8961902"><ele>71.0</ele><time>2026-04-04T16:36:38.429Z</time></trkpt><trkpt lat="45.7527881" lon="11.8958399"><ele>71.5</ele><time>2026-04-04T16:36:39.427Z</time></trkpt><trkpt lat="45.7528765" lon="11.8954906"><ele>72.0</ele><time>2026-04-04T16:36:40.425Z</time></trkpt><trkpt lat="45.7529629" lon="11.8951401"><ele>72.0</ele><time>2026-04-04T16:36:41.427Z</time></trkpt><trkpt lat="45.7530501" lon="11.8947877"><ele>72.0</ele><time>2026-04-04T16:36:42.433Z</time></trkpt><trkpt lat="45.7531381" lon="11.894437"><ele>72.0</ele><time>2026-04-04T16:36:43.42Z</time></trkpt><trkpt lat="45.7532292" lon="11.8940853"><ele>72.0</ele><time>2026-04-04T16:36:44.416Z</time></trkpt><trkpt lat="45.7533199" lon="11.8937324"><ele>72.5</ele><time>2026-04-04T16:36:45.431Z</time></trkpt><trkpt lat="45.7534075" lon="11.8933804"><ele>73.0</ele><time>2026-04-04T16:36:46.43Z</time></trkpt><trkpt lat="45.7534947" lon="11.8930279"><ele>73.0</ele><time>2026-04-04T16:36:47.423Z</time></trkpt><trkpt lat="45.7535827" lon="11.892671"><ele>73.0</ele><time>2026-04-04T16:36:48.428Z</time></trkpt><trkpt lat="45.753669" lon="11.8923177"><ele>73.5</ele><time>2026-04-04T16:36:49.417Z</time></trkpt><trkpt lat="45.7537539" lon="11.891964"><ele>74.0</ele><time>2026-04-04T16:36:50.406Z</time></trkpt><trkpt lat="45.7538371" lon="11.8916033"><ele>74.0</ele><time>2026-04-04T16:36:51.426Z</time></trkpt><trkpt lat="45.7539158" lon="11.8912475"><ele>74.0</ele><time>2026-04-04T16:36:52.416Z</time></trkpt><trkpt lat="45.7539933" lon="11.8908865"><ele>73.5</ele><time>2026-04-04T16:36:53.427Z</time></trkpt><trkpt lat="45.7540662" lon="11.8905261"><ele>73.0</ele><time>2026-04-04T16:36:54.425Z</time></trkpt><trkpt lat="45.7541355" lon="11.8901638"><ele>73.0</ele><time>2026-04-04T16:36:55.416Z</time></trkpt><trkpt lat="45.7542034" lon="11.8897993"><ele>73.0</ele><time>2026-04-04T16:36:56.407Z</time></trkpt><trkpt lat="45.7542703" lon="11.8894253"><ele>73.0</ele><time>2026-04-04T16:36:57.431Z</time></trkpt><trkpt lat="45.7543339" lon="11.889058"><ele>73.0</ele><time>2026-04-04T16:36:58.421Z</time></trkpt><trkpt lat="45.7543936" lon="11.8886878"><ele>73.0</ele><time>2026-04-04T16:36:59.417Z</time></trkpt><trkpt lat="45.7544488" lon="11.8883214"><ele>73.0</ele><time>2026-04-04T16:37:00.419Z</time></trkpt><trkpt lat="45.7544993" lon="11.8879564"><ele>74.0</ele><time>2026-04-04T16:37:01.422Z</time></trkpt><trkpt lat="45.7545481" lon="11.8875923"><ele>75.0</ele><time>2026-04-04T16:37:02.414Z</time></trkpt><trkpt lat="45.7545953" lon="11.8872256"><ele>75.0</ele><time>2026-04-04T16:37:03.418Z</time></trkpt><trkpt lat="45.7546403" lon="11.8868586"><ele>75.0</ele><time>2026-04-04T16:37:04.433Z</time></trkpt><trkpt lat="45.7546811" lon="11.8864955"><ele>75.5</ele><time>2026-04-04T16:37:05.41Z</time></trkpt><trkpt lat="45.7547196" lon="11.8861262"><ele>76.0</ele><time>2026-04-04T16:37:06.422Z</time></trkpt><trkpt lat="45.7547582" lon="11.8857574"><ele>75.0</ele><time>2026-04-04T16:37:07.432Z</time></trkpt><trkpt lat="45.754791" lon="11.8853845"><ele>74.0</ele><time>2026-04-04T16:37:08.417Z</time></trkpt><trkpt lat="45.7548225" lon="11.885008"><ele>72.5</ele><time>2026-04-04T16:37:09.407Z</time></trkpt><trkpt lat="45.75485" lon="11.8846265"><ele>71.0</ele><time>2026-04-04T16:37:10.421Z</time></trkpt><trkpt lat="45.7548721" lon="11.884252"><ele>71.0</ele><time>2026-04-04T16:37:11.413Z</time></trkpt><trkpt lat="45.7548888" lon="11.8838765"><ele>71.0</ele><time>2026-04-04T16:37:12.415Z</time></trkpt><trkpt lat="45.7549048" lon="11.8835005"><ele>71.0</ele><time>2026-04-04T16:37:13.419Z</time></trkpt><trkpt lat="45.7549189" lon="11.8831277"><ele>71.0</ele><time>2026-04-04T16:37:14.425Z</time></trkpt><trkpt lat="45.7549306" lon="11.8827593"><ele>72.0</ele><time>2026-04-04T16:37:15.406Z</time></trkpt><trkpt lat="45.7549397" lon="11.8823863"><ele>73.0</ele><time>2026-04-04T16:37:16.42Z</time></trkpt><trkpt lat="45.7549465" lon="11.8820206"><ele>73.5</ele><time>2026-04-04T16:37:17.394Z</time></trkpt><trkpt lat="45.7549499" lon="11.8816457"><ele>74.0</ele><time>2026-04-04T16:37:18.423Z</time></trkpt><trkpt lat="45.7549492" lon="11.88128"><ele>74.0</ele><time>2026-04-04T16:37:19.42Z</time></trkpt><trkpt lat="45.7549453" lon="11.8809151"><ele>74.0</ele><time>2026-04-04T16:37:20.423Z</time></trkpt><trkpt lat="45.7549374" lon="11.8805493"><ele>74.0</ele><time>2026-04-04T16:37:21.414Z</time></trkpt><trkpt lat="45.7549256" lon="11.8801818"><ele>74.0</ele><time>2026-04-04T16:37:22.415Z</time></trkpt><trkpt lat="45.7549058" lon="11.8798069"><ele>74.0</ele><time>2026-04-04T16:37:23.44Z</time></trkpt><trkpt lat="45.7548899" lon="11.8794424"><ele>74.0</ele><time>2026-04-04T16:37:24.408Z</time></trkpt><trkpt lat="45.7548765" lon="11.8790621"><ele>74.0</ele><time>2026-04-04T16:37:25.429Z</time></trkpt><trkpt lat="45.7548539" lon="11.878691"><ele>74.0</ele><time>2026-04-04T16:37:26.419Z</time></trkpt><trkpt lat="45.7548264" lon="11.8783213"><ele>74.0</ele><time>2026-04-04T16:37:27.42Z</time></trkpt><trkpt lat="45.7547972" lon="11.8779445"><ele>74.0</ele><time>2026-04-04T16:37:28.423Z</time></trkpt><trkpt lat="45.7547654" lon="11.8775756"><ele>73.5</ele><time>2026-04-04T16:37:29.411Z</time></trkpt><trkpt lat="45.7547314" lon="11.877201"><ele>73.0</ele><time>2026-04-04T16:37:30.434Z</time></trkpt><trkpt lat="45.7546967" lon="11.876839"><ele>73.5</ele><time>2026-04-04T16:37:31.426Z</time></trkpt><trkpt lat="45.7546564" lon="11.87647"><ele>74.0</ele><time>2026-04-04T16:37:32.426Z</time></trkpt><trkpt lat="45.7546108" lon="11.8760994"><ele>74.5</ele><time>2026-04-04T16:37:33.427Z</time></trkpt><trkpt lat="45.754563" lon="11.8757265"><ele>75.0</ele><time>2026-04-04T16:37:34.435Z</time></trkpt><trkpt lat="45.7545141" lon="11.8753596"><ele>74.5</ele><time>2026-04-04T16:37:35.432Z</time></trkpt><trkpt lat="45.7544644" lon="11.874995"><ele>74.0</ele><time>2026-04-04T16:37:36.45Z</time></trkpt><trkpt lat="45.7544122" lon="11.8746375"><ele>73.5</ele><time>2026-04-04T16:37:37.425Z</time></trkpt><trkpt lat="45.7543536" lon="11.8742727"><ele>73.0</ele><time>2026-04-04T16:37:38.415Z</time></trkpt><trkpt lat="45.7542935" lon="11.8739035"><ele>73.0</ele><time>2026-04-04T16:37:39.418Z</time></trkpt><trkpt lat="45.7542284" lon="11.8735358"><ele>73.0</ele><time>2026-04-04T16:37:40.402Z</time></trkpt><trkpt lat="45.7541567" lon="11.8731603"><ele>73.0</ele><time>2026-04-04T16:37:41.43Z</time></trkpt><trkpt lat="45.7540844" lon="11.8727904"><ele>73.0</ele><time>2026-04-04T16:37:42.421Z</time></trkpt><trkpt lat="45.7540068" lon="11.872419"><ele>73.0</ele><time>2026-04-04T16:37:43.427Z</time></trkpt><trkpt lat="45.7539287" lon="11.8720557"><ele>73.0</ele><time>2026-04-04T16:37:44.421Z</time></trkpt><trkpt lat="45.7538498" lon="11.8716945"><ele>73.0</ele><time>2026-04-04T16:37:45.418Z</time></trkpt><trkpt lat="45.7537666" lon="11.8713373"><ele>73.0</ele><time>2026-04-04T16:37:46.425Z</time></trkpt><trkpt lat="45.7536814" lon="11.870984"><ele>72.5</ele><time>2026-04-04T16:37:47.419Z</time></trkpt><trkpt lat="45.7535938" lon="11.8706269"><ele>72.0</ele><time>2026-04-04T16:37:48.426Z</time></trkpt><trkpt lat="45.7535024" lon="11.8702748"><ele>72.5</ele><time>2026-04-04T16:37:49.423Z</time></trkpt><trkpt lat="45.7534063" lon="11.8699204"><ele>73.0</ele><time>2026-04-04T16:37:50.439Z</time></trkpt><trkpt lat="45.7533075" lon="11.8695759"><ele>73.5</ele><time>2026-04-04T16:37:51.436Z</time></trkpt><trkpt lat="45.7532048" lon="11.8692322"><ele>74.0</ele><time>2026-04-04T16:37:52.426Z</time></trkpt><trkpt lat="45.7531006" lon="11.8688839"><ele>74.0</ele><time>2026-04-04T16:37:53.445Z</time></trkpt><trkpt lat="45.7529976" lon="11.8685442"><ele>74.0</ele><time>2026-04-04T16:37:54.438Z</time></trkpt><trkpt lat="45.7528907" lon="11.8682022"><ele>74.0</ele><time>2026-04-04T16:37:55.437Z</time></trkpt><trkpt lat="45.7527807" lon="11.8678589"><ele>74.0</ele><time>2026-04-04T16:37:56.433Z</time></trkpt><trkpt lat="45.7526725" lon="11.8675205"><ele>73.5</ele><time>2026-04-04T16:37:57.425Z</time></trkpt><trkpt lat="45.7525589" lon="11.8671849"><ele>73.0</ele><time>2026-04-04T16:37:58.405Z</time></trkpt><trkpt lat="45.7524388" lon="11.8668471"><ele>73.0</ele><time>2026-04-04T16:37:59.428Z</time></trkpt><trkpt lat="45.7523185" lon="11.8665181"><ele>73.0</ele><time>2026-04-04T16:38:00.433Z</time></trkpt><trkpt lat="45.7521962" lon="11.8661918"><ele>74.0</ele><time>2026-04-04T16:38:01.427Z</time></trkpt><trkpt lat="45.75207" lon="11.8658669"><ele>75.0</ele><time>2026-04-04T16:38:02.435Z</time></trkpt><trkpt lat="45.7519443" lon="11.8655449"><ele>74.5</ele><time>2026-04-04T16:38:03.436Z</time></trkpt><trkpt lat="45.7518128" lon="11.8652255"><ele>74.0</ele><time>2026-04-04T16:38:04.437Z</time></trkpt><trkpt lat="45.75168" lon="11.8649067"><ele>74.5</ele><time>2026-04-04T16:38:05.434Z</time></trkpt><trkpt lat="45.7515473" lon="11.8645868"><ele>75.0</ele><time>2026-04-04T16:38:06.437Z</time></trkpt><trkpt lat="45.7514137" lon="11.8642641"><ele>75.0</ele><time>2026-04-04T16:38:07.448Z</time></trkpt><trkpt lat="45.751278" lon="11.8639494"><ele>75.0</ele><time>2026-04-04T16:38:08.43Z</time></trkpt><trkpt lat="45.7511433" lon="11.8636296"><ele>73.0</ele><time>2026-04-04T16:38:09.43Z</time></trkpt><trkpt lat="45.7510096" lon="11.8633108"><ele>71.0</ele><time>2026-04-04T16:38:10.41Z</time></trkpt><trkpt lat="45.7508725" lon="11.8629862"><ele>71.0</ele><time>2026-04-04T16:38:11.429Z</time></trkpt><trkpt lat="45.7507332" lon="11.8626642"><ele>71.0</ele><time>2026-04-04T16:38:12.451Z</time></trkpt><trkpt lat="45.7506003" lon="11.8623424"><ele>72.0</ele><time>2026-04-04T16:38:13.439Z</time></trkpt><trkpt lat="45.7504632" lon="11.8620249"><ele>73.0</ele><time>2026-04-04T16:38:14.426Z</time></trkpt><trkpt lat="45.7503286" lon="11.861708"><ele>73.5</ele><time>2026-04-04T16:38:15.43Z</time></trkpt><trkpt lat="45.750192" lon="11.8613858"><ele>74.0</ele><time>2026-04-04T16:38:16.439Z</time></trkpt><trkpt lat="45.7500549" lon="11.8610703"><ele>75.0</ele><time>2026-04-04T16:38:17.422Z</time></trkpt><trkpt lat="45.7499184" lon="11.860749"><ele>76.0</ele><time>2026-04-04T16:38:18.438Z</time></trkpt><trkpt lat="45.7497859" lon="11.8604283"><ele>75.5</ele><time>2026-04-04T16:38:19.432Z</time></trkpt><trkpt lat="45.7496504" lon="11.860103"><ele>75.0</ele><time>2026-04-04T16:38:20.439Z</time></trkpt><trkpt lat="45.7495168" lon="11.8597775"><ele>75.0</ele><time>2026-04-04T16:38:21.454Z</time></trkpt><trkpt lat="45.7493803" lon="11.8594565"><ele>75.0</ele><time>2026-04-04T16:38:22.429Z</time></trkpt><trkpt lat="45.7492412" lon="11.8591399"><ele>74.5</ele><time>2026-04-04T16:38:23.433Z</time></trkpt><trkpt lat="45.7491076" lon="11.858818"><ele>74.0</ele><time>2026-04-04T16:38:24.422Z</time></trkpt><trkpt lat="45.748294" lon="11.8568726"><ele>75.0</ele><time>2026-04-04T16:38:30.423Z</time></trkpt><trkpt lat="45.7481207" lon="11.8565393"><ele>76.0</ele><time>2026-04-04T16:38:31.428Z</time></trkpt><trkpt lat="45.747975" lon="11.8561873"><ele>76.5</ele><time>2026-04-04T16:38:32.443Z</time></trkpt><trkpt lat="45.7478492" lon="11.8558387"><ele>77.0</ele><time>2026-04-04T16:38:33.435Z</time></trkpt><trkpt lat="45.7477379" lon="11.8555008"><ele>77.0</ele><time>2026-04-04T16:38:34.428Z</time></trkpt><trkpt lat="45.7476229" lon="11.8551579"><ele>77.0</ele><time>2026-04-04T16:38:35.442Z</time></trkpt><trkpt lat="45.7475159" lon="11.8548152"><ele>77.0</ele><time>2026-04-04T16:38:36.44Z</time></trkpt><trkpt lat="45.747409" lon="11.8544643"><ele>77.0</ele><time>2026-04-04T16:38:37.442Z</time></trkpt><trkpt lat="45.7473133" lon="11.8541168"><ele>77.5</ele><time>2026-04-04T16:38:38.443Z</time></trkpt><trkpt lat="45.7472209" lon="11.8537617"><ele>78.0</ele><time>2026-04-04T16:38:39.413Z</time></trkpt><trkpt lat="45.7471335" lon="11.8534276"><ele>78.0</ele><time>2026-04-04T16:38:40.43Z</time></trkpt><trkpt lat="45.7470563" lon="11.8531156"><ele>78.0</ele><time>2026-04-04T16:38:41.443Z</time></trkpt><trkpt lat="45.7469861" lon="11.8528021"><ele>77.5</ele><time>2026-04-04T16:38:42.425Z</time></trkpt><trkpt lat="45.7469189" lon="11.8524883"><ele>77.0</ele><time>2026-04-04T16:38:43.437Z</time></trkpt><trkpt lat="45.7468535" lon="11.8521667"><ele>77.0</ele><time>2026-04-04T16:38:44.436Z</time></trkpt><trkpt lat="45.7467925" lon="11.8518364"><ele>77.0</ele><time>2026-04-04T16:38:45.423Z</time></trkpt><trkpt lat="45.7467356" lon="11.8515"><ele>77.0</ele><time>2026-04-04T16:38:46.436Z</time></trkpt><trkpt lat="45.746681" lon="11.8511572"><ele>77.0</ele><time>2026-04-04T16:38:47.423Z</time></trkpt><trkpt lat="45.7466301" lon="11.8508083"><ele>77.0</ele><time>2026-04-04T16:38:48.423Z</time></trkpt><trkpt lat="45.7465829" lon="11.8504529"><ele>77.0</ele><time>2026-04-04T16:38:49.447Z</time></trkpt><trkpt lat="45.7465402" lon="11.8500937"><ele>77.5</ele><time>2026-04-04T16:38:50.43Z</time></trkpt><trkpt lat="45.7465005" lon="11.8497264"><ele>78.0</ele><time>2026-04-04T16:38:51.422Z</time></trkpt><trkpt lat="45.7464663" lon="11.8493571"><ele>78.5</ele><time>2026-04-04T16:38:52.434Z</time></trkpt><trkpt lat="45.746438" lon="11.84898"><ele>79.0</ele><time>2026-04-04T16:38:53.465Z</time></trkpt><trkpt lat="45.746414" lon="11.8485998"><ele>79.0</ele><time>2026-04-04T16:38:54.433Z</time></trkpt><trkpt lat="45.7463921" lon="11.8482189"><ele>79.0</ele><time>2026-04-04T16:38:55.436Z</time></trkpt><trkpt lat="45.7463755" lon="11.8478348"><ele>79.0</ele><time>2026-04-04T16:38:56.44Z</time></trkpt><trkpt lat="45.7463647" lon="11.8474498"><ele>79.0</ele><time>2026-04-04T16:38:57.454Z</time></trkpt><trkpt lat="45.7463609" lon="11.8470624"><ele>79.0</ele><time>2026-04-04T16:38:58.436Z</time></trkpt><trkpt lat="45.746363" lon="11.8466733"><ele>79.0</ele><time>2026-04-04T16:38:59.44Z</time></trkpt><trkpt lat="45.7463708" lon="11.8462875"><ele>79.5</ele><time>2026-04-04T16:39:00.424Z</time></trkpt><trkpt lat="45.7463829" lon="11.845903"><ele>80.0</ele><time>2026-04-04T16:39:01.434Z</time></trkpt><trkpt lat="45.7463997" lon="11.8455183"><ele>80.0</ele><time>2026-04-04T16:39:02.428Z</time></trkpt><trkpt lat="45.7464216" lon="11.8451355"><ele>80.0</ele><time>2026-04-04T16:39:03.437Z</time></trkpt><trkpt lat="45.7464456" lon="11.8447513"><ele>79.5</ele><time>2026-04-04T16:39:04.448Z</time></trkpt><trkpt lat="45.7464722" lon="11.8443675"><ele>79.0</ele><time>2026-04-04T16:39:05.428Z</time></trkpt><trkpt lat="45.7465006" lon="11.843982"><ele>78.5</ele><time>2026-04-04T16:39:06.412Z</time></trkpt><trkpt lat="45.7465309" lon="11.8435955"><ele>78.0</ele><time>2026-04-04T16:39:07.434Z</time></trkpt><trkpt lat="45.7465596" lon="11.8432107"><ele>79.5</ele><time>2026-04-04T16:39:08.429Z</time></trkpt><trkpt lat="45.7465855" lon="11.8428274"><ele>81.0</ele><time>2026-04-04T16:39:09.435Z</time></trkpt><trkpt lat="45.7466095" lon="11.8424439"><ele>81.5</ele><time>2026-04-04T16:39:10.43Z</time></trkpt><trkpt lat="45.7466341" lon="11.8420606"><ele>82.0</ele><time>2026-04-04T16:39:11.439Z</time></trkpt><trkpt lat="45.7466594" lon="11.8416768"><ele>81.0</ele><time>2026-04-04T16:39:12.438Z</time></trkpt><trkpt lat="45.7466842" lon="11.8412919"><ele>80.0</ele><time>2026-04-04T16:39:13.436Z</time></trkpt><trkpt lat="45.7467088" lon="11.8409087"><ele>80.0</ele><time>2026-04-04T16:39:14.429Z</time></trkpt><trkpt lat="45.7467323" lon="11.8405299"><ele>80.0</ele><time>2026-04-04T16:39:15.445Z</time></trkpt><trkpt lat="45.7467546" lon="11.8401509"><ele>80.5</ele><time>2026-04-04T16:39:16.442Z</time></trkpt><trkpt lat="45.7467763" lon="11.8397753"><ele>81.0</ele><time>2026-04-04T16:39:17.429Z</time></trkpt><trkpt lat="45.746797" lon="11.839404"><ele>81.0</ele><time>2026-04-04T16:39:18.428Z</time></trkpt><trkpt lat="45.7468172" lon="11.8390345"><ele>81.0</ele><time>2026-04-04T16:39:19.435Z</time></trkpt><trkpt lat="45.7468389" lon="11.8386656"><ele>82.0</ele><time>2026-04-04T16:39:20.441Z</time></trkpt><trkpt lat="45.7468595" lon="11.8382949"><ele>83.0</ele><time>2026-04-04T16:39:21.432Z</time></trkpt><trkpt lat="45.7468784" lon="11.8379252"><ele>83.5</ele><time>2026-04-04T16:39:22.423Z</time></trkpt><trkpt lat="45.7468957" lon="11.8375537"><ele>84.0</ele><time>2026-04-04T16:39:23.428Z</time></trkpt><trkpt lat="45.7469119" lon="11.8371807"><ele>84.0</ele><time>2026-04-04T16:39:24.442Z</time></trkpt><trkpt lat="45.7469266" lon="11.8368056"><ele>84.0</ele><time>2026-04-04T16:39:25.437Z</time></trkpt><trkpt lat="45.7469406" lon="11.8364315"><ele>84.0</ele><time>2026-04-04T16:39:26.43Z</time></trkpt><trkpt lat="45.7469537" lon="11.8360599"><ele>84.0</ele><time>2026-04-04T16:39:27.41Z</time></trkpt><trkpt lat="45.7469655" lon="11.8356885"><ele>84.0</ele><time>2026-04-04T16:39:28.446Z</time></trkpt><trkpt lat="45.7469761" lon="11.8353162"><ele>84.0</ele><time>2026-04-04T16:39:29.44Z</time></trkpt><trkpt lat="45.7469848" lon="11.8349438"><ele>84.0</ele><time>2026-04-04T16:39:30.439Z</time></trkpt><trkpt lat="45.7469909" lon="11.834572"><ele>84.0</ele><time>2026-04-04T16:39:31.435Z</time></trkpt><trkpt lat="45.7469945" lon="11.8342005"><ele>84.0</ele><time>2026-04-04T16:39:32.432Z</time></trkpt><trkpt lat="45.7469972" lon="11.8338271"><ele>84.0</ele><time>2026-04-04T16:39:33.433Z</time></trkpt><trkpt lat="45.7469985" lon="11.8334528"><ele>84.5</ele><time>2026-04-04T16:39:34.413Z</time></trkpt><trkpt lat="45.7469976" lon="11.8330768"><ele>85.0</ele><time>2026-04-04T16:39:35.438Z</time></trkpt><trkpt lat="45.7469947" lon="11.8327013"><ele>84.5</ele><time>2026-04-04T16:39:36.436Z</time></trkpt><trkpt lat="45.7469912" lon="11.8323244"><ele>84.0</ele><time>2026-04-04T16:39:37.424Z</time></trkpt><trkpt lat="45.746987" lon="11.8319469"><ele>84.0</ele><time>2026-04-04T16:39:38.439Z</time></trkpt><trkpt lat="45.746982" lon="11.831569"><ele>84.0</ele><time>2026-04-04T16:39:39.428Z</time></trkpt><trkpt lat="45.7469747" lon="11.831191"><ele>83.5</ele><time>2026-04-04T16:39:40.444Z</time></trkpt><trkpt lat="45.7469649" lon="11.8308144"><ele>83.0</ele><time>2026-04-04T16:39:41.447Z</time></trkpt><trkpt lat="45.746953" lon="11.830441"><ele>84.0</ele><time>2026-04-04T16:39:42.432Z</time></trkpt><trkpt lat="45.7469398" lon="11.8300689"><ele>85.0</ele><time>2026-04-04T16:39:43.431Z</time></trkpt><trkpt lat="45.7469244" lon="11.8296983"><ele>85.0</ele><time>2026-04-04T16:39:44.437Z</time></trkpt><trkpt lat="45.7469091" lon="11.8293274"><ele>85.0</ele><time>2026-04-04T16:39:45.435Z</time></trkpt><trkpt lat="45.7468929" lon="11.8289575"><ele>85.0</ele><time>2026-04-04T16:39:46.432Z</time></trkpt><trkpt lat="45.7468753" lon="11.8285888"><ele>85.0</ele><time>2026-04-04T16:39:47.45Z</time></trkpt><trkpt lat="45.7468568" lon="11.8282192"><ele>85.0</ele><time>2026-04-04T16:39:48.461Z</time></trkpt><trkpt lat="45.7468373" lon="11.827847"><ele>85.0</ele><time>2026-04-04T16:39:49.437Z</time></trkpt><trkpt lat="45.7468157" lon="11.827471"><ele>85.0</ele><time>2026-04-04T16:39:50.438Z</time></trkpt><trkpt lat="45.7467918" lon="11.8270908"><ele>85.0</ele><time>2026-04-04T16:39:51.432Z</time></trkpt><trkpt lat="45.7467658" lon="11.8267082"><ele>84.5</ele><time>2026-04-04T16:39:52.44Z</time></trkpt><trkpt lat="45.7467392" lon="11.8263302"><ele>84.0</ele><time>2026-04-04T16:39:53.435Z</time></trkpt><trkpt lat="45.7467125" lon="11.8259543"><ele>85.5</ele><time>2026-04-04T16:39:54.437Z</time></trkpt><trkpt lat="45.7466852" lon="11.8255796"><ele>87.0</ele><time>2026-04-04T16:39:55.438Z</time></trkpt><trkpt lat="45.7466578" lon="11.8252075"><ele>86.5</ele><time>2026-04-04T16:39:56.443Z</time></trkpt><trkpt lat="45.7466304" lon="11.8248386"><ele>86.0</ele><time>2026-04-04T16:39:57.442Z</time></trkpt><trkpt lat="45.7466027" lon="11.8244688"><ele>87.5</ele><time>2026-04-04T16:39:58.439Z</time></trkpt><trkpt lat="45.7465741" lon="11.824096"><ele>89.0</ele><time>2026-04-04T16:39:59.436Z</time></trkpt><trkpt lat="45.7465445" lon="11.82372"><ele>89.0</ele><time>2026-04-04T16:40:00.421Z</time></trkpt><trkpt lat="45.7465152" lon="11.8233408"><ele>89.0</ele><time>2026-04-04T16:40:01.424Z</time></trkpt><trkpt lat="45.7464858" lon="11.8229599"><ele>88.0</ele><time>2026-04-04T16:40:02.431Z</time></trkpt><trkpt lat="45.7464562" lon="11.8225802"><ele>87.0</ele><time>2026-04-04T16:40:03.431Z</time></trkpt><trkpt lat="45.7464264" lon="11.8222014"><ele>87.0</ele><time>2026-04-04T16:40:04.449Z</time></trkpt><trkpt lat="45.7463961" lon="11.8218244"><ele>87.0</ele><time>2026-04-04T16:40:05.44Z</time></trkpt><trkpt lat="45.7463641" lon="11.82145"><ele>87.0</ele><time>2026-04-04T16:40:06.434Z</time></trkpt><trkpt lat="45.7463324" lon="11.8210783"><ele>87.0</ele><time>2026-04-04T16:40:07.431Z</time></trkpt><trkpt lat="45.7463003" lon="11.8207096"><ele>87.5</ele><time>2026-04-04T16:40:08.437Z</time></trkpt><trkpt lat="45.7462675" lon="11.8203395"><ele>88.0</ele><time>2026-04-04T16:40:09.432Z</time></trkpt><trkpt lat="45.7462348" lon="11.8199679"><ele>89.0</ele><time>2026-04-04T16:40:10.416Z</time></trkpt><trkpt lat="45.7462001" lon="11.819596"><ele>90.0</ele><time>2026-04-04T16:40:11.42Z</time></trkpt><trkpt lat="45.746162" lon="11.8192244"><ele>90.0</ele><time>2026-04-04T16:40:12.434Z</time></trkpt><trkpt lat="45.7461197" lon="11.8188534"><ele>90.0</ele><time>2026-04-04T16:40:13.424Z</time></trkpt><trkpt lat="45.7460763" lon="11.8185131"><ele>89.0</ele><time>2026-04-04T16:40:14.424Z</time></trkpt><trkpt lat="45.7460254" lon="11.8181539"><ele>88.0</ele><time>2026-04-04T16:40:15.442Z</time></trkpt><trkpt lat="45.7459751" lon="11.817805"><ele>88.5</ele><time>2026-04-04T16:40:16.435Z</time></trkpt><trkpt lat="45.7459295" lon="11.8174563"><ele>89.0</ele><time>2026-04-04T16:40:17.433Z</time></trkpt><trkpt lat="45.7458707" lon="11.8170978"><ele>89.0</ele><time>2026-04-04T16:40:18.429Z</time></trkpt><trkpt lat="45.745805" lon="11.8167309"><ele>89.0</ele><time>2026-04-04T16:40:19.423Z</time></trkpt><trkpt lat="45.7457403" lon="11.816362"><ele>89.0</ele><time>2026-04-04T16:40:20.436Z</time></trkpt><trkpt lat="45.7456751" lon="11.8159957"><ele>89.0</ele><time>2026-04-04T16:40:21.433Z</time></trkpt><trkpt lat="45.7456038" lon="11.8156297"><ele>89.0</ele><time>2026-04-04T16:40:22.433Z</time></trkpt><trkpt lat="45.7455332" lon="11.8152671"><ele>89.0</ele><time>2026-04-04T16:40:23.428Z</time></trkpt><trkpt lat="45.7454606" lon="11.8149068"><ele>89.0</ele><time>2026-04-04T16:40:24.43Z</time></trkpt><trkpt lat="45.7453832" lon="11.8145446"><ele>89.0</ele><time>2026-04-04T16:40:25.433Z</time></trkpt><trkpt lat="45.7453048" lon="11.8141816"><ele>89.0</ele><time>2026-04-04T16:40:26.425Z</time></trkpt><trkpt lat="45.7452242" lon="11.8138217"><ele>89.0</ele><time>2026-04-04T16:40:27.432Z</time></trkpt><trkpt lat="45.7451393" lon="11.8134663"><ele>89.0</ele><time>2026-04-04T16:40:28.44Z</time></trkpt><trkpt lat="45.7450527" lon="11.8131157"><ele>89.0</ele><time>2026-04-04T16:40:29.417Z</time></trkpt><trkpt lat="45.7442854" lon="11.8095317"><ele>90.0</ele><time>2026-04-04T16:40:39.411Z</time></trkpt><trkpt lat="45.7442002" lon="11.8092249"><ele>91.0</ele><time>2026-04-04T16:40:40.403Z</time></trkpt><trkpt lat="45.7441183" lon="11.8088218"><ele>91.0</ele><time>2026-04-04T16:40:41.42Z</time></trkpt><trkpt lat="45.7440605" lon="11.8084382"><ele>91.0</ele><time>2026-04-04T16:40:42.434Z</time></trkpt><trkpt lat="45.7440088" lon="11.8080723"><ele>91.0</ele><time>2026-04-04T16:40:43.427Z</time></trkpt><trkpt lat="45.7439689" lon="11.8077033"><ele>91.0</ele><time>2026-04-04T16:40:44.411Z</time></trkpt><trkpt lat="45.7439341" lon="11.8073373"><ele>91.5</ele><time>2026-04-04T16:40:45.437Z</time></trkpt><trkpt lat="45.7439084" lon="11.8069649"><ele>92.0</ele><time>2026-04-04T16:40:46.441Z</time></trkpt><trkpt lat="45.7438756" lon="11.8065732"><ele>92.5</ele><time>2026-04-04T16:40:47.438Z</time></trkpt><trkpt lat="45.7438608" lon="11.8062068"><ele>93.0</ele><time>2026-04-04T16:40:48.42Z</time></trkpt><trkpt lat="45.7438401" lon="11.8058367"><ele>94.5</ele><time>2026-04-04T16:40:49.43Z</time></trkpt><trkpt lat="45.7438283" lon="11.8054591"><ele>96.0</ele><time>2026-04-04T16:40:50.44Z</time></trkpt><trkpt lat="45.7438138" lon="11.8050868"><ele>96.0</ele><time>2026-04-04T16:40:51.429Z</time></trkpt><trkpt lat="45.7437923" lon="11.8047198"><ele>96.0</ele><time>2026-04-04T16:40:52.425Z</time></trkpt><trkpt lat="45.743774" lon="11.8043502"><ele>95.0</ele><time>2026-04-04T16:40:53.438Z</time></trkpt><trkpt lat="45.743755" lon="11.8039774"><ele>94.0</ele><time>2026-04-04T16:40:54.417Z</time></trkpt><trkpt lat="45.7437314" lon="11.8035996"><ele>95.0</ele><time>2026-04-04T16:40:55.424Z</time></trkpt><trkpt lat="45.7436988" lon="11.8032224"><ele>96.0</ele><time>2026-04-04T16:40:56.427Z</time></trkpt><trkpt lat="45.7436545" lon="11.8028353"><ele>95.5</ele><time>2026-04-04T16:40:57.425Z</time></trkpt><trkpt lat="45.743601" lon="11.8024432"><ele>95.0</ele><time>2026-04-04T16:40:58.431Z</time></trkpt><trkpt lat="45.7435376" lon="11.8020576"><ele>94.5</ele><time>2026-04-04T16:40:59.433Z</time></trkpt><trkpt lat="45.7434643" lon="11.8016764"><ele>94.0</ele><time>2026-04-04T16:41:00.438Z</time></trkpt><trkpt lat="45.7433818" lon="11.8012995"><ele>95.0</ele><time>2026-04-04T16:41:01.431Z</time></trkpt><trkpt lat="45.7432911" lon="11.8009298"><ele>96.0</ele><time>2026-04-04T16:41:02.442Z</time></trkpt><trkpt lat="45.7431987" lon="11.800569"><ele>96.0</ele><time>2026-04-04T16:41:03.433Z</time></trkpt><trkpt lat="45.7430904" lon="11.8002248"><ele>96.0</ele><time>2026-04-04T16:41:04.427Z</time></trkpt><trkpt lat="45.7429739" lon="11.7998909"><ele>96.0</ele><time>2026-04-04T16:41:05.436Z</time></trkpt><trkpt lat="45.7428579" lon="11.799552"><ele>96.0</ele><time>2026-04-04T16:41:06.427Z</time></trkpt><trkpt lat="45.7427387" lon="11.7992192"><ele>96.5</ele><time>2026-04-04T16:41:07.425Z</time></trkpt><trkpt lat="45.7426215" lon="11.7988898"><ele>97.0</ele><time>2026-04-04T16:41:08.414Z</time></trkpt><trkpt lat="45.7425064" lon="11.7985569"><ele>96.0</ele><time>2026-04-04T16:41:09.438Z</time></trkpt><trkpt lat="45.7423894" lon="11.7982231"><ele>95.0</ele><time>2026-04-04T16:41:10.45Z</time></trkpt><trkpt lat="45.7422759" lon="11.7978927"><ele>94.5</ele><time>2026-04-04T16:41:11.421Z</time></trkpt><trkpt lat="45.7421635" lon="11.7975295"><ele>94.0</ele><time>2026-04-04T16:41:12.454Z</time></trkpt><trkpt lat="45.7420603" lon="11.7972067"><ele>94.0</ele><time>2026-04-04T16:41:13.424Z</time></trkpt><trkpt lat="45.7419673" lon="11.7968641"><ele>94.0</ele><time>2026-04-04T16:41:14.44Z</time></trkpt><trkpt lat="45.7418763" lon="11.7965153"><ele>95.5</ele><time>2026-04-04T16:41:15.439Z</time></trkpt><trkpt lat="45.7417935" lon="11.7961628"><ele>97.0</ele><time>2026-04-04T16:41:16.433Z</time></trkpt><trkpt lat="45.7417109" lon="11.7958115"><ele>97.5</ele><time>2026-04-04T16:41:17.431Z</time></trkpt><trkpt lat="45.741634" lon="11.7954621"><ele>98.0</ele><time>2026-04-04T16:41:18.436Z</time></trkpt><trkpt lat="45.7415615" lon="11.7951133"><ele>98.0</ele><time>2026-04-04T16:41:19.432Z</time></trkpt><trkpt lat="45.741501" lon="11.7947422"><ele>98.0</ele><time>2026-04-04T16:41:20.426Z</time></trkpt><trkpt lat="45.7414457" lon="11.7943832"><ele>98.0</ele><time>2026-04-04T16:41:21.436Z</time></trkpt><trkpt lat="45.7414026" lon="11.7940157"><ele>98.0</ele><time>2026-04-04T16:41:22.426Z</time></trkpt><trkpt lat="45.7413643" lon="11.7936583"><ele>98.0</ele><time>2026-04-04T16:41:23.439Z</time></trkpt><trkpt lat="45.7413306" lon="11.7932996"><ele>98.0</ele><time>2026-04-04T16:41:24.432Z</time></trkpt><trkpt lat="45.7413129" lon="11.7929335"><ele>98.0</ele><time>2026-04-04T16:41:25.428Z</time></trkpt><trkpt lat="45.7413094" lon="11.7925788"><ele>98.0</ele><time>2026-04-04T16:41:26.416Z</time></trkpt><trkpt lat="45.7413047" lon="11.7922084"><ele>98.0</ele><time>2026-04-04T16:41:27.422Z</time></trkpt><trkpt lat="45.7412997" lon="11.7918395"><ele>98.0</ele><time>2026-04-04T16:41:28.425Z</time></trkpt><trkpt lat="45.7412855" lon="11.791485"><ele>98.0</ele><time>2026-04-04T16:41:29.438Z</time></trkpt><trkpt lat="45.7412876" lon="11.7910999"><ele>98.0</ele><time>2026-04-04T16:41:30.418Z</time></trkpt><trkpt lat="45.7412885" lon="11.7907226"><ele>98.0</ele><time>2026-04-04T16:41:31.425Z</time></trkpt><trkpt lat="45.7413057" lon="11.7903394"><ele>98.0</ele><time>2026-04-04T16:41:32.425Z</time></trkpt><trkpt lat="45.7413052" lon="11.789964"><ele>97.5</ele><time>2026-04-04T16:41:33.427Z</time></trkpt><trkpt lat="45.7413097" lon="11.7895889"><ele>97.0</ele><time>2026-04-04T16:41:34.433Z</time></trkpt><trkpt lat="45.7402002" lon="11.779457"><ele>97.0</ele><time>2026-04-04T16:42:01.429Z</time></trkpt><trkpt lat="45.7401539" lon="11.7790963"><ele>97.0</ele><time>2026-04-04T16:42:02.413Z</time></trkpt><trkpt lat="45.7401047" lon="11.7787357"><ele>98.0</ele><time>2026-04-04T16:42:03.416Z</time></trkpt><trkpt lat="45.7400599" lon="11.7783741"><ele>99.0</ele><time>2026-04-04T16:42:04.432Z</time></trkpt><trkpt lat="45.7400152" lon="11.778014"><ele>99.5</ele><time>2026-04-04T16:42:05.435Z</time></trkpt><trkpt lat="45.7399673" lon="11.7776483"><ele>100.0</ele><time>2026-04-04T16:42:06.448Z</time></trkpt><trkpt lat="45.7399213" lon="11.77729"><ele>100.0</ele><time>2026-04-04T16:42:07.42Z</time></trkpt><trkpt lat="45.7398738" lon="11.7769257"><ele>100.0</ele><time>2026-04-04T16:42:08.423Z</time></trkpt><trkpt lat="45.7398273" lon="11.7765594"><ele>100.5</ele><time>2026-04-04T16:42:09.423Z</time></trkpt><trkpt lat="45.7397862" lon="11.7761916"><ele>101.0</ele><time>2026-04-04T16:42:10.444Z</time></trkpt><trkpt lat="45.7397369" lon="11.7758293"><ele>101.0</ele><time>2026-04-04T16:42:11.427Z</time></trkpt><trkpt lat="45.7396802" lon="11.7754626"><ele>101.0</ele><time>2026-04-04T16:42:12.433Z</time></trkpt><trkpt lat="45.7396209" lon="11.7751003"><ele>101.5</ele><time>2026-04-04T16:42:13.418Z</time></trkpt><trkpt lat="45.7395591" lon="11.7747339"><ele>102.0</ele><time>2026-04-04T16:42:14.429Z</time></trkpt><trkpt lat="45.739498" lon="11.7743737"><ele>102.5</ele><time>2026-04-04T16:42:15.421Z</time></trkpt><trkpt lat="45.7394359" lon="11.7740058"><ele>103.0</ele><time>2026-04-04T16:42:16.431Z</time></trkpt><trkpt lat="45.7393751" lon="11.7736387"><ele>102.5</ele><time>2026-04-04T16:42:17.406Z</time></trkpt><trkpt lat="45.739308" lon="11.7732611"><ele>102.0</ele><time>2026-04-04T16:42:18.432Z</time></trkpt><trkpt lat="45.7392424" lon="11.7728923"><ele>101.5</ele><time>2026-04-04T16:42:19.429Z</time></trkpt><trkpt lat="45.7391793" lon="11.7725305"><ele>101.0</ele><time>2026-04-04T16:42:20.436Z</time></trkpt><trkpt lat="45.7391262" lon="11.7721563"><ele>101.0</ele><time>2026-04-04T16:42:21.428Z</time></trkpt><trkpt lat="45.7390663" lon="11.7717805"><ele>101.0</ele><time>2026-04-04T16:42:22.44Z</time></trkpt><trkpt lat="45.7390025" lon="11.7714115"><ele>101.0</ele><time>2026-04-04T16:42:23.431Z</time></trkpt><trkpt lat="45.738932" lon="11.7710413"><ele>101.0</ele><time>2026-04-04T16:42:24.433Z</time></trkpt><trkpt lat="45.7388587" lon="11.7706792"><ele>101.5</ele><time>2026-04-04T16:42:25.432Z</time></trkpt><trkpt lat="45.7387814" lon="11.7702967"><ele>102.0</ele><time>2026-04-04T16:42:26.434Z</time></trkpt><trkpt lat="45.7387058" lon="11.7699218"><ele>102.0</ele><time>2026-04-04T16:42:27.434Z</time></trkpt><trkpt lat="45.738641" lon="11.7695586"><ele>102.0</ele><time>2026-04-04T16:42:28.423Z</time></trkpt><trkpt lat="45.7385768" lon="11.7691943"><ele>102.5</ele><time>2026-04-04T16:42:29.436Z</time></trkpt><trkpt lat="45.738515" lon="11.7688381"><ele>103.0</ele><time>2026-04-04T16:42:30.414Z</time></trkpt><trkpt lat="45.7384523" lon="11.7684683"><ele>103.5</ele><time>2026-04-04T16:42:31.434Z</time></trkpt><trkpt lat="45.7383901" lon="11.7681079"><ele>104.0</ele><time>2026-04-04T16:42:32.421Z</time></trkpt><trkpt lat="45.7383259" lon="11.7677435"><ele>103.5</ele><time>2026-04-04T16:42:33.438Z</time></trkpt><trkpt lat="45.7382616" lon="11.7673831"><ele>103.0</ele><time>2026-04-04T16:42:34.429Z</time></trkpt><trkpt lat="45.7381969" lon="11.7670191"><ele>102.5</ele><time>2026-04-04T16:42:35.432Z</time></trkpt><trkpt lat="45.738137" lon="11.766659"><ele>102.0</ele><time>2026-04-04T16:42:36.429Z</time></trkpt><trkpt lat="45.7380836" lon="11.766331"><ele>102.0</ele><time>2026-04-04T16:42:37.433Z</time></trkpt><trkpt lat="45.7380372" lon="11.7660233"><ele>102.0</ele><time>2026-04-04T16:42:38.429Z</time></trkpt><trkpt lat="45.737987" lon="11.7657288"><ele>102.0</ele><time>2026-04-04T16:42:39.427Z</time></trkpt><trkpt lat="45.7379354" lon="11.7654442"><ele>102.0</ele><time>2026-04-04T16:42:40.426Z</time></trkpt><trkpt lat="45.7378863" lon="11.7651661"><ele>102.0</ele><time>2026-04-04T16:42:41.449Z</time></trkpt><trkpt lat="45.7378396" lon="11.7648937"><ele>102.0</ele><time>2026-04-04T16:42:42.443Z</time></trkpt><trkpt lat="45.7377938" lon="11.7646226"><ele>102.0</ele><time>2026-04-04T16:42:43.44Z</time></trkpt><trkpt lat="45.7377438" lon="11.7643565"><ele>102.0</ele><time>2026-04-04T16:42:44.429Z</time></trkpt><trkpt lat="45.7376864" lon="11.7640755"><ele>102.0</ele><time>2026-04-04T16:42:45.428Z</time></trkpt><trkpt lat="45.737618" lon="11.7637684"><ele>101.5</ele><time>2026-04-04T16:42:46.453Z</time></trkpt><trkpt lat="45.7375581" lon="11.7634411"><ele>101.0</ele><time>2026-04-04T16:42:47.418Z</time></trkpt><trkpt lat="45.7375002" lon="11.7630717"><ele>101.0</ele><time>2026-04-04T16:42:48.433Z</time></trkpt><trkpt lat="45.7374482" lon="11.7626968"><ele>101.0</ele><time>2026-04-04T16:42:49.435Z</time></trkpt><trkpt lat="45.7373955" lon="11.7623012"><ele>101.0</ele><time>2026-04-04T16:42:50.428Z</time></trkpt><trkpt lat="45.7373559" lon="11.7618778"><ele>101.0</ele><time>2026-04-04T16:42:51.44Z</time></trkpt><trkpt lat="45.7372998" lon="11.7614436"><ele>102.0</ele><time>2026-04-04T16:42:52.443Z</time></trkpt><trkpt lat="45.7372379" lon="11.761009"><ele>103.0</ele><time>2026-04-04T16:42:53.418Z</time></trkpt><trkpt lat="45.7371621" lon="11.7605893"><ele>103.5</ele><time>2026-04-04T16:42:54.435Z</time></trkpt><trkpt lat="45.7370857" lon="11.7601374"><ele>104.0</ele><time>2026-04-04T16:42:55.427Z</time></trkpt><trkpt lat="45.7370238" lon="11.7597162"><ele>103.5</ele><time>2026-04-04T16:42:56.436Z</time></trkpt><trkpt lat="45.7369696" lon="11.7593016"><ele>103.0</ele><time>2026-04-04T16:42:57.442Z</time></trkpt><trkpt lat="45.7369137" lon="11.7588795"><ele>102.0</ele><time>2026-04-04T16:42:58.431Z</time></trkpt><trkpt lat="45.7368622" lon="11.758457"><ele>101.0</ele><time>2026-04-04T16:42:59.416Z</time></trkpt><trkpt lat="45.7368089" lon="11.7580458"><ele>100.5</ele><time>2026-04-04T16:43:00.442Z</time></trkpt><trkpt lat="45.7367569" lon="11.757641"><ele>100.0</ele><time>2026-04-04T16:43:01.431Z</time></trkpt><trkpt lat="45.7367138" lon="11.7572396"><ele>100.5</ele><time>2026-04-04T16:43:02.437Z</time></trkpt><trkpt lat="45.736665" lon="11.7568367"><ele>101.0</ele><time>2026-04-04T16:43:03.442Z</time></trkpt><trkpt lat="45.73661" lon="11.7564358"><ele>101.0</ele><time>2026-04-04T16:43:04.425Z</time></trkpt><trkpt lat="45.7365583" lon="11.7560313"><ele>101.0</ele><time>2026-04-04T16:43:05.418Z</time></trkpt><trkpt lat="45.7365083" lon="11.7556412"><ele>101.0</ele><time>2026-04-04T16:43:06.422Z</time></trkpt><trkpt lat="45.7364607" lon="11.7552665"><ele>101.0</ele><time>2026-04-04T16:43:07.43Z</time></trkpt><trkpt lat="45.736414" lon="11.7548988"><ele>101.0</ele><time>2026-04-04T16:43:08.427Z</time></trkpt><trkpt lat="45.7363652" lon="11.7545309"><ele>101.0</ele><time>2026-04-04T16:43:09.429Z</time></trkpt><trkpt lat="45.7363153" lon="11.7541648"><ele>101.0</ele><time>2026-04-04T16:43:10.411Z</time></trkpt><trkpt lat="45.7362673" lon="11.7537981"><ele>101.0</ele><time>2026-04-04T16:43:11.425Z</time></trkpt><trkpt lat="45.7362198" lon="11.7534295"><ele>100.5</ele><time>2026-04-04T16:43:12.433Z</time></trkpt><trkpt lat="45.7361762" lon="11.75306"><ele>100.0</ele><time>2026-04-04T16:43:13.442Z</time></trkpt><trkpt lat="45.7361359" lon="11.752692"><ele>101.5</ele><time>2026-04-04T16:43:14.427Z</time></trkpt><trkpt lat="45.7360974" lon="11.7523184"><ele>103.0</ele><time>2026-04-04T16:43:15.434Z</time></trkpt><trkpt lat="45.7360649" lon="11.7519415"><ele>102.0</ele><time>2026-04-04T16:43:16.43Z</time></trkpt><trkpt lat="45.7360354" lon="11.7515659"><ele>101.0</ele><time>2026-04-04T16:43:17.434Z</time></trkpt><trkpt lat="45.736012" lon="11.7511914"><ele>102.5</ele><time>2026-04-04T16:43:18.435Z</time></trkpt><trkpt lat="45.7359962" lon="11.7508133"><ele>104.0</ele><time>2026-04-04T16:43:19.435Z</time></trkpt><trkpt lat="45.7359871" lon="11.7504294"><ele>102.5</ele><time>2026-04-04T16:43:20.435Z</time></trkpt><trkpt lat="45.7359697" lon="11.7500328"><ele>101.0</ele><time>2026-04-04T16:43:21.418Z</time></trkpt><trkpt lat="45.7359751" lon="11.7496561"><ele>101.5</ele><time>2026-04-04T16:43:22.423Z</time></trkpt><trkpt lat="45.7359887" lon="11.7492674"><ele>102.0</ele><time>2026-04-04T16:43:23.423Z</time></trkpt><trkpt lat="45.7360048" lon="11.7488756"><ele>102.0</ele><time>2026-04-04T16:43:24.422Z</time></trkpt><trkpt lat="45.7360172" lon="11.7484908"><ele>102.0</ele><time>2026-04-04T16:43:25.416Z</time></trkpt><trkpt lat="45.7360344" lon="11.748113"><ele>102.5</ele><time>2026-04-04T16:43:26.432Z</time></trkpt><trkpt lat="45.7360533" lon="11.7477453"><ele>103.0</ele><time>2026-04-04T16:43:27.429Z</time></trkpt><trkpt lat="45.7360718" lon="11.7473791"><ele>102.0</ele><time>2026-04-04T16:43:28.438Z</time></trkpt><trkpt lat="45.7360944" lon="11.7470089"><ele>101.0</ele><time>2026-04-04T16:43:29.425Z</time></trkpt><trkpt lat="45.7361167" lon="11.7466385"><ele>101.5</ele><time>2026-04-04T16:43:30.413Z</time></trkpt><trkpt lat="45.7361362" lon="11.7462686"><ele>102.0</ele><time>2026-04-04T16:43:31.42Z</time></trkpt><trkpt lat="45.7361553" lon="11.7459027"><ele>102.0</ele><time>2026-04-04T16:43:32.412Z</time></trkpt><trkpt lat="45.7361751" lon="11.7455356"><ele>102.0</ele><time>2026-04-04T16:43:33.417Z</time></trkpt><trkpt lat="45.7361967" lon="11.7451652"><ele>101.5</ele><time>2026-04-04T16:43:34.417Z</time></trkpt><trkpt lat="45.7362174" lon="11.7447943"><ele>101.0</ele><time>2026-04-04T16:43:35.446Z</time></trkpt><trkpt lat="45.7362399" lon="11.7444236"><ele>101.5</ele><time>2026-04-04T16:43:36.445Z</time></trkpt><trkpt lat="45.7362623" lon="11.7440509"><ele>102.0</ele><time>2026-04-04T16:43:37.435Z</time></trkpt><trkpt lat="45.7362844" lon="11.7436763"><ele>102.5</ele><time>2026-04-04T16:43:38.441Z</time></trkpt><trkpt lat="45.7363058" lon="11.7433028"><ele>103.0</ele><time>2026-04-04T16:43:39.432Z</time></trkpt><trkpt lat="45.7363246" lon="11.7429301"><ele>103.0</ele><time>2026-04-04T16:43:40.428Z</time></trkpt><trkpt lat="45.7363456" lon="11.7425588"><ele>103.0</ele><time>2026-04-04T16:43:41.425Z</time></trkpt><trkpt lat="45.7363664" lon="11.7421901"><ele>103.0</ele><time>2026-04-04T16:43:42.438Z</time></trkpt><trkpt lat="45.7363858" lon="11.7418221"><ele>103.0</ele><time>2026-04-04T16:43:43.431Z</time></trkpt><trkpt lat="45.7364124" lon="11.741451"><ele>103.0</ele><time>2026-04-04T16:43:44.412Z</time></trkpt><trkpt lat="45.7364299" lon="11.7410887"><ele>103.0</ele><time>2026-04-04T16:43:45.419Z</time></trkpt><trkpt lat="45.7364621" lon="11.7407438"><ele>102.0</ele><time>2026-04-04T16:43:46.411Z</time></trkpt><trkpt lat="45.7364871" lon="11.740376"><ele>101.0</ele><time>2026-04-04T16:43:47.425Z</time></trkpt><trkpt lat="45.7365207" lon="11.7400139"><ele>100.5</ele><time>2026-04-04T16:43:48.417Z</time></trkpt><trkpt lat="45.7365686" lon="11.7396449"><ele>100.0</ele><time>2026-04-04T16:43:49.413Z</time></trkpt><trkpt lat="45.7366137" lon="11.7392809"><ele>100.0</ele><time>2026-04-04T16:43:50.443Z</time></trkpt><trkpt lat="45.7366727" lon="11.7389114"><ele>100.0</ele><time>2026-04-04T16:43:51.429Z</time></trkpt><trkpt lat="45.7367367" lon="11.7385409"><ele>100.5</ele><time>2026-04-04T16:43:52.43Z</time></trkpt><trkpt lat="45.7368061" lon="11.738162"><ele>101.0</ele><time>2026-04-04T16:43:53.431Z</time></trkpt><trkpt lat="45.7368833" lon="11.7377834"><ele>101.5</ele><time>2026-04-04T16:43:54.426Z</time></trkpt><trkpt lat="45.7369635" lon="11.7374052"><ele>102.0</ele><time>2026-04-04T16:43:55.416Z</time></trkpt><trkpt lat="45.7370455" lon="11.7370291"><ele>101.0</ele><time>2026-04-04T16:43:56.43Z</time></trkpt><trkpt lat="45.7371264" lon="11.7366563"><ele>100.0</ele><time>2026-04-04T16:43:57.434Z</time></trkpt><trkpt lat="45.7372082" lon="11.7362931"><ele>100.5</ele><time>2026-04-04T16:43:58.444Z</time></trkpt><trkpt lat="45.737289" lon="11.7359426"><ele>101.0</ele><time>2026-04-04T16:43:59.424Z</time></trkpt><trkpt lat="45.7373693" lon="11.7355939"><ele>101.0</ele><time>2026-04-04T16:44:00.415Z</time></trkpt><trkpt lat="45.7374477" lon="11.7352474"><ele>101.0</ele><time>2026-04-04T16:44:01.431Z</time></trkpt><trkpt lat="45.737526" lon="11.7349099"><ele>100.5</ele><time>2026-04-04T16:44:02.414Z</time></trkpt><trkpt lat="45.7376039" lon="11.7345681"><ele>100.0</ele><time>2026-04-04T16:44:03.414Z</time></trkpt><trkpt lat="45.7376829" lon="11.7342224"><ele>100.0</ele><time>2026-04-04T16:44:04.426Z</time></trkpt><trkpt lat="45.7377635" lon="11.7338748"><ele>100.0</ele><time>2026-04-04T16:44:05.43Z</time></trkpt><trkpt lat="45.7378451" lon="11.7335224"><ele>100.0</ele><time>2026-04-04T16:44:06.428Z</time></trkpt><trkpt lat="45.7379269" lon="11.7331668"><ele>100.0</ele><time>2026-04-04T16:44:07.426Z</time></trkpt><trkpt lat="45.7380085" lon="11.7328102"><ele>99.5</ele><time>2026-04-04T16:44:08.437Z</time></trkpt><trkpt lat="45.7380913" lon="11.732457"><ele>99.0</ele><time>2026-04-04T16:44:09.426Z</time></trkpt><trkpt lat="45.7381746" lon="11.7321009"><ele>99.5</ele><time>2026-04-04T16:44:10.43Z</time></trkpt><trkpt lat="45.7382575" lon="11.7317448"><ele>100.0</ele><time>2026-04-04T16:44:11.43Z</time></trkpt><trkpt lat="45.7383406" lon="11.7313885"><ele>99.0</ele><time>2026-04-04T16:44:12.428Z</time></trkpt><trkpt lat="45.7384215" lon="11.7310316"><ele>98.0</ele><time>2026-04-04T16:44:13.435Z</time></trkpt><trkpt lat="45.7384968" lon="11.7306765"><ele>98.0</ele><time>2026-04-04T16:44:14.428Z</time></trkpt><trkpt lat="45.7385663" lon="11.7303215"><ele>98.0</ele><time>2026-04-04T16:44:15.404Z</time></trkpt><trkpt lat="45.7386314" lon="11.7299556"><ele>97.5</ele><time>2026-04-04T16:44:16.442Z</time></trkpt><trkpt lat="45.7386882" lon="11.7295978"><ele>97.0</ele><time>2026-04-04T16:44:17.424Z</time></trkpt><trkpt lat="45.7387367" lon="11.7292311"><ele>96.5</ele><time>2026-04-04T16:44:18.423Z</time></trkpt><trkpt lat="45.7387799" lon="11.7288625"><ele>96.0</ele><time>2026-04-04T16:44:19.43Z</time></trkpt><trkpt lat="45.7388205" lon="11.7284954"><ele>95.5</ele><time>2026-04-04T16:44:20.432Z</time></trkpt><trkpt lat="45.7388576" lon="11.7281305"><ele>95.0</ele><time>2026-04-04T16:44:21.428Z</time></trkpt><trkpt lat="45.7388893" lon="11.7277641"><ele>96.5</ele><time>2026-04-04T16:44:22.432Z</time></trkpt><trkpt lat="45.7389133" lon="11.727398"><ele>98.0</ele><time>2026-04-04T16:44:23.42Z</time></trkpt><trkpt lat="45.7389318" lon="11.727027"><ele>98.0</ele><time>2026-04-04T16:44:24.423Z</time></trkpt><trkpt lat="45.7389437" lon="11.7266536"><ele>98.0</ele><time>2026-04-04T16:44:25.439Z</time></trkpt><trkpt lat="45.7389474" lon="11.7262816"><ele>98.0</ele><time>2026-04-04T16:44:26.429Z</time></trkpt><trkpt lat="45.7389463" lon="11.7259029"><ele>98.0</ele><time>2026-04-04T16:44:27.441Z</time></trkpt><trkpt lat="45.7389428" lon="11.7255242"><ele>98.0</ele><time>2026-04-04T16:44:28.438Z</time></trkpt><trkpt lat="45.7389323" lon="11.7251467"><ele>98.0</ele><time>2026-04-04T16:44:29.415Z</time></trkpt><trkpt lat="45.7389124" lon="11.7247637"><ele>97.0</ele><time>2026-04-04T16:44:30.433Z</time></trkpt><trkpt lat="45.7388852" lon="11.7243873"><ele>96.0</ele><time>2026-04-04T16:44:31.439Z</time></trkpt><trkpt lat="45.738819" lon="11.7236389"><ele>96.0</ele><time>2026-04-04T16:44:33.435Z</time></trkpt><trkpt lat="45.7387808" lon="11.7232647"><ele>96.0</ele><time>2026-04-04T16:44:34.427Z</time></trkpt><trkpt lat="45.7387429" lon="11.7228886"><ele>95.5</ele><time>2026-04-04T16:44:35.425Z</time></trkpt><trkpt lat="45.7387047" lon="11.7225118"><ele>95.0</ele><time>2026-04-04T16:44:36.42Z</time></trkpt><trkpt lat="45.7386693" lon="11.7221298"><ele>95.5</ele><time>2026-04-04T16:44:37.437Z</time></trkpt><trkpt lat="45.738635" lon="11.7217504"><ele>96.0</ele><time>2026-04-04T16:44:38.435Z</time></trkpt><trkpt lat="45.7386005" lon="11.7213674"><ele>95.5</ele><time>2026-04-04T16:44:39.448Z</time></trkpt><trkpt lat="45.738567" lon="11.7209858"><ele>95.0</ele><time>2026-04-04T16:44:40.444Z</time></trkpt><trkpt lat="45.7385335" lon="11.7206045"><ele>95.5</ele><time>2026-04-04T16:44:41.424Z</time></trkpt><trkpt lat="45.7384989" lon="11.7202199"><ele>96.0</ele><time>2026-04-04T16:44:42.422Z</time></trkpt><trkpt lat="45.738464" lon="11.7198344"><ele>96.0</ele><time>2026-04-04T16:44:43.436Z</time></trkpt><trkpt lat="45.7384298" lon="11.7194538"><ele>96.0</ele><time>2026-04-04T16:44:44.427Z</time></trkpt><trkpt lat="45.7383949" lon="11.7190729"><ele>96.0</ele><time>2026-04-04T16:44:45.418Z</time></trkpt><trkpt lat="45.7383594" lon="11.7186879"><ele>96.0</ele><time>2026-04-04T16:44:46.453Z</time></trkpt><trkpt lat="45.7383255" lon="11.7183163"><ele>96.0</ele><time>2026-04-04T16:44:47.417Z</time></trkpt><trkpt lat="45.7382902" lon="11.7179338"><ele>96.0</ele><time>2026-04-04T16:44:48.44Z</time></trkpt><trkpt lat="45.7382543" lon="11.7175595"><ele>96.5</ele><time>2026-04-04T16:44:49.424Z</time></trkpt><trkpt lat="45.7382178" lon="11.71718"><ele>97.0</ele><time>2026-04-04T16:44:50.438Z</time></trkpt><trkpt lat="45.7381836" lon="11.7168014"><ele>96.0</ele><time>2026-04-04T16:44:51.459Z</time></trkpt><trkpt lat="45.7381521" lon="11.7164292"><ele>95.0</ele><time>2026-04-04T16:44:52.429Z</time></trkpt><trkpt lat="45.7381231" lon="11.7160498"><ele>95.0</ele><time>2026-04-04T16:44:53.429Z</time></trkpt><trkpt lat="45.7380932" lon="11.7156692"><ele>95.0</ele><time>2026-04-04T16:44:54.445Z</time></trkpt><trkpt lat="45.7380645" lon="11.7152967"><ele>94.5</ele><time>2026-04-04T16:44:55.467Z</time></trkpt><trkpt lat="45.7380387" lon="11.7149431"><ele>94.0</ele><time>2026-04-04T16:44:56.426Z</time></trkpt><trkpt lat="45.7380139" lon="11.714585"><ele>93.5</ele><time>2026-04-04T16:44:57.429Z</time></trkpt><trkpt lat="45.7379878" lon="11.7142347"><ele>93.0</ele><time>2026-04-04T16:44:58.418Z</time></trkpt><trkpt lat="45.7379592" lon="11.7138888"><ele>93.0</ele><time>2026-04-04T16:44:59.43Z</time></trkpt><trkpt lat="45.737931" lon="11.7135539"><ele>93.0</ele><time>2026-04-04T16:45:00.431Z</time></trkpt><trkpt lat="45.7379047" lon="11.7132262"><ele>93.0</ele><time>2026-04-04T16:45:01.419Z</time></trkpt><trkpt lat="45.7378809" lon="11.7129114"><ele>93.0</ele><time>2026-04-04T16:45:02.423Z</time></trkpt><trkpt lat="45.7378608" lon="11.7126178"><ele>93.0</ele><time>2026-04-04T16:45:03.415Z</time></trkpt><trkpt lat="45.737846" lon="11.7123312"><ele>92.66666666666667</ele><time>2026-04-04T16:45:04.424Z</time></trkpt><trkpt lat="45.7378381" lon="11.71205"><ele>92.33333333333334</ele><time>2026-04-04T16:45:05.432Z</time></trkpt><trkpt lat="45.7378411" lon="11.7117808"><ele>92.0</ele><time>2026-04-04T16:45:06.417Z</time></trkpt><trkpt lat="45.7378592" lon="11.7115203"><ele>92.66666666666667</ele><time>2026-04-04T16:45:07.421Z</time></trkpt><trkpt lat="45.7378843" lon="11.7112874"><ele>93.33333333333333</ele><time>2026-04-04T16:45:08.402Z</time></trkpt><trkpt lat="45.7379216" lon="11.7110732"><ele>94.0</ele><time>2026-04-04T16:45:09.427Z</time></trkpt><trkpt lat="45.7379572" lon="11.7108652"><ele>94.0</ele><time>2026-04-04T16:45:10.435Z</time></trkpt><trkpt lat="45.7379876" lon="11.7106775"><ele>94.0</ele><time>2026-04-04T16:45:11.434Z</time></trkpt><trkpt lat="45.738009" lon="11.710505"><ele>94.0</ele><time>2026-04-04T16:45:12.412Z</time></trkpt><trkpt lat="45.7380095" lon="11.7103379"><ele>94.0</ele><time>2026-04-04T16:45:13.422Z</time></trkpt><trkpt lat="45.7379783" lon="11.71018"><ele>94.0</ele><time>2026-04-04T16:45:14.416Z</time></trkpt><trkpt lat="45.7379263" lon="11.7100435"><ele>94.0</ele><time>2026-04-04T16:45:15.416Z</time></trkpt><trkpt lat="45.7378679" lon="11.7099144"><ele>94.0</ele><time>2026-04-04T16:45:16.412Z</time></trkpt><trkpt lat="45.737783" lon="11.7098051"><ele>94.0</ele><time>2026-04-04T16:45:17.407Z</time></trkpt><trkpt lat="45.7376936" lon="11.7096837"><ele>94.25</ele><time>2026-04-04T16:45:18.403Z</time></trkpt><trkpt lat="45.7376045" lon="11.7095648"><ele>94.5</ele><time>2026-04-04T16:45:19.399Z</time></trkpt><trkpt lat="45.737473" lon="11.7095049"><ele>94.75</ele><time>2026-04-04T16:45:20.408Z</time></trkpt><trkpt lat="45.7373374" lon="11.7096403"><ele>95.0</ele><time>2026-04-04T16:45:21.41Z</time></trkpt><trkpt lat="45.7372122" lon="11.7097748"><ele>95.0</ele><time>2026-04-04T16:45:22.407Z</time></trkpt><trkpt lat="45.7371541" lon="11.7100702"><ele>95.0</ele><time>2026-04-04T16:45:23.399Z</time></trkpt><trkpt lat="45.7371456" lon="11.7104325"><ele>95.33333333333334</ele><time>2026-04-04T16:45:24.408Z</time></trkpt><trkpt lat="45.7371672" lon="11.7107008"><ele>95.66666666666667</ele><time>2026-04-04T16:45:25.406Z</time></trkpt><trkpt lat="45.7372003" lon="11.7109542"><ele>96.0</ele><time>2026-04-04T16:45:26.413Z</time></trkpt><trkpt lat="45.7372482" lon="11.7112181"><ele>95.33333333333333</ele><time>2026-04-04T16:45:27.42Z</time></trkpt><trkpt lat="45.7372748" lon="11.7114451"><ele>94.66666666666666</ele><time>2026-04-04T16:45:28.436Z</time></trkpt><trkpt lat="45.737304" lon="11.7116566"><ele>94.0</ele><time>2026-04-04T16:45:29.421Z</time></trkpt><trkpt lat="45.7373501" lon="11.7118663"><ele>93.75</ele><time>2026-04-04T16:45:30.416Z</time></trkpt><trkpt lat="45.7374055" lon="11.7120653"><ele>93.5</ele><time>2026-04-04T16:45:31.412Z</time></trkpt><trkpt lat="45.7374568" lon="11.7122528"><ele>93.25</ele><time>2026-04-04T16:45:32.416Z</time></trkpt><trkpt lat="45.7374945" lon="11.7124259"><ele>93.0</ele><time>2026-04-04T16:45:33.415Z</time></trkpt><trkpt lat="45.7375141" lon="11.7125868"><ele>93.0</ele><time>2026-04-04T16:45:34.422Z</time></trkpt><trkpt lat="45.7375208" lon="11.7127228"><ele>93.0</ele><time>2026-04-04T16:45:35.403Z</time></trkpt><trkpt lat="45.737524" lon="11.7128394"><ele>93.0</ele><time>2026-04-04T16:45:36.409Z</time></trkpt><trkpt lat="45.7375332" lon="11.7130123"><ele>93.0</ele><time>2026-04-04T16:45:38.42Z</time></trkpt><trkpt lat="45.7375391" lon="11.7131105"><ele>93.0</ele><time>2026-04-04T16:45:39.426Z</time></trkpt><trkpt lat="45.7375431" lon="11.7132118"><ele>93.0</ele><time>2026-04-04T16:45:40.422Z</time></trkpt><trkpt lat="45.7375508" lon="11.7133363"><ele>93.60000000000001</ele><time>2026-04-04T16:45:41.426Z</time></trkpt><trkpt lat="45.7375627" lon="11.7134861"><ele>94.2</ele><time>2026-04-04T16:45:42.422Z</time></trkpt><trkpt lat="45.7375787" lon="11.7136202"><ele>94.8</ele><time>2026-04-04T16:45:43.432Z</time></trkpt><trkpt lat="45.7375933" lon="11.713764"><ele>95.4</ele><time>2026-04-04T16:45:44.419Z</time></trkpt><trkpt lat="45.7376094" lon="11.7139158"><ele>96.0</ele><time>2026-04-04T16:45:45.42Z</time></trkpt><trkpt lat="45.7376264" lon="11.7140689"><ele>96.0</ele><time>2026-04-04T16:45:46.419Z</time></trkpt><trkpt lat="45.7376425" lon="11.7142051"><ele>96.0</ele><time>2026-04-04T16:45:47.427Z</time></trkpt><trkpt lat="45.73766" lon="11.7143397"><ele>96.0</ele><time>2026-04-04T16:45:48.415Z</time></trkpt><trkpt lat="45.7376748" lon="11.7144678"><ele>96.0</ele><time>2026-04-04T16:45:49.417Z</time></trkpt><trkpt lat="45.7376889" lon="11.7145841"><ele>96.0</ele><time>2026-04-04T16:45:50.416Z</time></trkpt><trkpt lat="45.7376863" lon="11.7146943"><ele>96.0</ele><time>2026-04-04T16:45:51.402Z</time></trkpt><trkpt lat="45.7376632" lon="11.7147956"><ele>96.0</ele><time>2026-04-04T16:45:52.41Z</time></trkpt><trkpt lat="45.7376222" lon="11.7148737"><ele>96.0</ele><time>2026-04-04T16:45:53.409Z</time></trkpt><trkpt lat="45.7375107" lon="11.714954"><ele>96.0</ele><time>2026-04-04T16:45:55.404Z</time></trkpt><trkpt lat="45.7374029" lon="11.7149348"><ele>96.0</ele><time>2026-04-04T16:45:57.412Z</time></trkpt><trkpt lat="45.737282" lon="11.7148501"><ele>96.0</ele><time>2026-04-04T16:45:59.396Z</time></trkpt><trkpt lat="45.7372065" lon="11.7148179"><ele>96.0</ele><time>2026-04-04T16:46:00.417Z</time></trkpt><trkpt lat="45.7371312" lon="11.7148155"><ele>96.0</ele><time>2026-04-04T16:46:01.415Z</time></trkpt><trkpt lat="45.7370566" lon="11.7148459"><ele>96.0</ele><time>2026-04-04T16:46:02.419Z</time></trkpt><trkpt lat="45.7369953" lon="11.7149151"><ele>96.0</ele><time>2026-04-04T16:46:03.403Z</time></trkpt><trkpt lat="45.7369566" lon="11.7150136"><ele>96.0</ele><time>2026-04-04T16:46:04.407Z</time></trkpt><trkpt lat="45.7369469" lon="11.7151304"><ele>96.0</ele><time>2026-04-04T16:46:05.414Z</time></trkpt><trkpt lat="45.7369668" lon="11.7152535"><ele>96.0</ele><time>2026-04-04T16:46:06.414Z</time></trkpt><trkpt lat="45.7370156" lon="11.7153725"><ele>96.0</ele><time>2026-04-04T16:46:07.412Z</time></trkpt><trkpt lat="45.7370755" lon="11.7154969"><ele>96.0</ele><time>2026-04-04T16:46:08.426Z</time></trkpt><trkpt lat="45.7371313" lon="11.7156394"><ele>96.0</ele><time>2026-04-04T16:46:09.417Z</time></trkpt><trkpt lat="45.7371723" lon="11.7157985"><ele>96.0</ele><time>2026-04-04T16:46:10.409Z</time></trkpt><trkpt lat="45.7372005" lon="11.7159693"><ele>95.75</ele><time>2026-04-04T16:46:11.408Z</time></trkpt><trkpt lat="45.7372221" lon="11.716149"><ele>95.5</ele><time>2026-04-04T16:46:12.423Z</time></trkpt><trkpt lat="45.7372429" lon="11.716336"><ele>95.25</ele><time>2026-04-04T16:46:13.425Z</time></trkpt><trkpt lat="45.7372644" lon="11.7165321"><ele>95.0</ele><time>2026-04-04T16:46:14.429Z</time></trkpt><trkpt lat="45.7372865" lon="11.7167388"><ele>94.66666666666667</ele><time>2026-04-04T16:46:15.428Z</time></trkpt><trkpt lat="45.7373101" lon="11.716955"><ele>94.33333333333333</ele><time>2026-04-04T16:46:16.423Z</time></trkpt><trkpt lat="45.7373343" lon="11.7171747"><ele>94.0</ele><time>2026-04-04T16:46:17.416Z</time></trkpt><trkpt lat="45.7373598" lon="11.7173982"><ele>94.0</ele><time>2026-04-04T16:46:18.427Z</time></trkpt><trkpt lat="45.7373882" lon="11.7176265"><ele>94.0</ele><time>2026-04-04T16:46:19.43Z</time></trkpt><trkpt lat="45.7374211" lon="11.7178602"><ele>94.0</ele><time>2026-04-04T16:46:20.432Z</time></trkpt><trkpt lat="45.7374617" lon="11.718096"><ele>94.0</ele><time>2026-04-04T16:46:21.414Z</time></trkpt><trkpt lat="45.7375097" lon="11.718334"><ele>94.0</ele><time>2026-04-04T16:46:22.425Z</time></trkpt><trkpt lat="45.7375642" lon="11.7185742"><ele>94.0</ele><time>2026-04-04T16:46:23.433Z</time></trkpt><trkpt lat="45.7376228" lon="11.7188167"><ele>94.33333333333333</ele><time>2026-04-04T16:46:24.428Z</time></trkpt><trkpt lat="45.7376845" lon="11.7190623"><ele>94.66666666666667</ele><time>2026-04-04T16:46:25.424Z</time></trkpt><trkpt lat="45.7377483" lon="11.7193117"><ele>95.0</ele><time>2026-04-04T16:46:26.422Z</time></trkpt><trkpt lat="45.7378127" lon="11.7195632"><ele>95.33333333333334</ele><time>2026-04-04T16:46:27.425Z</time></trkpt><trkpt lat="45.7378753" lon="11.719807"><ele>95.66666666666667</ele><time>2026-04-04T16:46:28.426Z</time></trkpt><trkpt lat="45.7379357" lon="11.7200417"><ele>96.0</ele><time>2026-04-04T16:46:29.419Z</time></trkpt><trkpt lat="45.7379943" lon="11.7202764"><ele>95.33333333333333</ele><time>2026-04-04T16:46:30.431Z</time></trkpt><trkpt lat="45.7380507" lon="11.720519"><ele>94.66666666666666</ele><time>2026-04-04T16:46:31.428Z</time></trkpt><trkpt lat="45.7381044" lon="11.7207656"><ele>94.0</ele><time>2026-04-04T16:46:32.432Z</time></trkpt><trkpt lat="45.7381546" lon="11.7210148"><ele>94.0</ele><time>2026-04-04T16:46:33.426Z</time></trkpt><trkpt lat="45.7381998" lon="11.7212683"><ele>94.0</ele><time>2026-04-04T16:46:34.412Z</time></trkpt><trkpt lat="45.7382402" lon="11.7215261"><ele>94.0</ele><time>2026-04-04T16:46:35.431Z</time></trkpt><trkpt lat="45.7382763" lon="11.7217875"><ele>94.66666666666666</ele><time>2026-04-04T16:46:36.422Z</time></trkpt><trkpt lat="45.7383087" lon="11.7220534"><ele>95.33333333333333</ele><time>2026-04-04T16:46:37.412Z</time></trkpt><trkpt lat="45.7383375" lon="11.7223229"><ele>96.0</ele><time>2026-04-04T16:46:38.429Z</time></trkpt><trkpt lat="45.7383635" lon="11.7225964"><ele>96.66666666666666</ele><time>2026-04-04T16:46:39.419Z</time></trkpt><trkpt lat="45.7383875" lon="11.7228708"><ele>97.33333333333333</ele><time>2026-04-04T16:46:40.425Z</time></trkpt><trkpt lat="45.7384114" lon="11.723145"><ele>98.0</ele><time>2026-04-04T16:46:41.416Z</time></trkpt><trkpt lat="45.7384358" lon="11.7234198"><ele>98.0</ele><time>2026-04-04T16:46:42.42Z</time></trkpt><trkpt lat="45.7384594" lon="11.723697"><ele>98.0</ele><time>2026-04-04T16:46:43.427Z</time></trkpt><trkpt lat="45.7384822" lon="11.7239765"><ele>98.0</ele><time>2026-04-04T16:46:44.413Z</time></trkpt><trkpt lat="45.7385043" lon="11.7242666"><ele>98.0</ele><time>2026-04-04T16:46:45.413Z</time></trkpt><trkpt lat="45.7385265" lon="11.7245637"><ele>98.0</ele><time>2026-04-04T16:46:46.414Z</time></trkpt><trkpt lat="45.7385466" lon="11.72486"><ele>98.0</ele><time>2026-04-04T16:46:47.425Z</time></trkpt><trkpt lat="45.7385616" lon="11.7251543"><ele>98.0</ele><time>2026-04-04T16:46:48.419Z</time></trkpt><trkpt lat="45.7385714" lon="11.7254497"><ele>98.0</ele><time>2026-04-04T16:46:49.421Z</time></trkpt><trkpt lat="45.7385774" lon="11.7257461"><ele>98.0</ele><time>2026-04-04T16:46:50.431Z</time></trkpt><trkpt lat="45.7385805" lon="11.7260436"><ele>98.0</ele><time>2026-04-04T16:46:51.43Z</time></trkpt><trkpt lat="45.7385809" lon="11.7263421"><ele>98.0</ele><time>2026-04-04T16:46:52.411Z</time></trkpt><trkpt lat="45.7385773" lon="11.7266426"><ele>98.0</ele><time>2026-04-04T16:46:53.423Z</time></trkpt><trkpt lat="45.7385702" lon="11.726945"><ele>98.0</ele><time>2026-04-04T16:46:54.412Z</time></trkpt><trkpt lat="45.7385588" lon="11.7272491"><ele>98.0</ele><time>2026-04-04T16:46:55.426Z</time></trkpt><trkpt lat="45.738544" lon="11.7275539"><ele>98.0</ele><time>2026-04-04T16:46:56.427Z</time></trkpt><trkpt lat="45.7385249" lon="11.7278581"><ele>97.0</ele><time>2026-04-04T16:46:57.419Z</time></trkpt><trkpt lat="45.7385025" lon="11.7281624"><ele>96.0</ele><time>2026-04-04T16:46:58.428Z</time></trkpt><trkpt lat="45.7384792" lon="11.7284477"><ele>95.0</ele><time>2026-04-04T16:46:59.421Z</time></trkpt><trkpt lat="45.7384494" lon="11.7287319"><ele>95.0</ele><time>2026-04-04T16:47:00.408Z</time></trkpt><trkpt lat="45.7384169" lon="11.7290154"><ele>95.0</ele><time>2026-04-04T16:47:01.416Z</time></trkpt><trkpt lat="45.7383828" lon="11.7292941"><ele>95.0</ele><time>2026-04-04T16:47:02.414Z</time></trkpt><trkpt lat="45.7383468" lon="11.7295517"><ele>95.0</ele><time>2026-04-04T16:47:03.435Z</time></trkpt><trkpt lat="45.7383107" lon="11.7297837"><ele>95.0</ele><time>2026-04-04T16:47:04.421Z</time></trkpt><trkpt lat="45.7382762" lon="11.7299854"><ele>95.0</ele><time>2026-04-04T16:47:05.407Z</time></trkpt><trkpt lat="45.7382438" lon="11.7301672"><ele>95.0</ele><time>2026-04-04T16:47:06.421Z</time></trkpt><trkpt lat="45.7382138" lon="11.7303286"><ele>95.5</ele><time>2026-04-04T16:47:07.422Z</time></trkpt><trkpt lat="45.7381811" lon="11.7304713"><ele>96.0</ele><time>2026-04-04T16:47:08.415Z</time></trkpt><trkpt lat="45.7381439" lon="11.730594"><ele>96.5</ele><time>2026-04-04T16:47:09.422Z</time></trkpt><trkpt lat="45.7381085" lon="11.7306977"><ele>97.0</ele><time>2026-04-04T16:47:10.427Z</time></trkpt><trkpt lat="45.7380762" lon="11.73078"><ele>97.49999999999999</ele><time>2026-04-04T16:47:11.413Z</time></trkpt><trkpt lat="45.7380324" lon="11.7308825"><ele>98.0</ele><time>2026-04-04T16:47:13.413Z</time></trkpt><trkpt lat="45.7379977" lon="11.730969"><ele>98.4</ele><time>2026-04-04T16:47:21.424Z</time></trkpt><trkpt lat="45.7379295" lon="11.7311073"><ele>98.80000000000001</ele><time>2026-04-04T16:47:23.421Z</time></trkpt><trkpt lat="45.7378635" lon="11.731168"><ele>99.2</ele><time>2026-04-04T16:47:24.423Z</time></trkpt><trkpt lat="45.7377783" lon="11.7312034"><ele>99.6</ele><time>2026-04-04T16:47:25.416Z</time></trkpt><trkpt lat="45.7376789" lon="11.7312091"><ele>100.0</ele><time>2026-04-04T16:47:26.405Z</time></trkpt><trkpt lat="45.73757" lon="11.7311891"><ele>100.0</ele><time>2026-04-04T16:47:27.418Z</time></trkpt><trkpt lat="45.7374438" lon="11.7311589"><ele>100.0</ele><time>2026-04-04T16:47:28.413Z</time></trkpt><trkpt lat="45.7373048" lon="11.731158"><ele>100.0</ele><time>2026-04-04T16:47:29.406Z</time></trkpt><trkpt lat="45.7371624" lon="11.7311992"><ele>100.0</ele><time>2026-04-04T16:47:30.417Z</time></trkpt><trkpt lat="45.7370258" lon="11.7312745"><ele>100.0</ele><time>2026-04-04T16:47:31.422Z</time></trkpt><trkpt lat="45.736902" lon="11.7313726"><ele>100.0</ele><time>2026-04-04T16:47:32.421Z</time></trkpt><trkpt lat="45.7367947" lon="11.7314799"><ele>100.0</ele><time>2026-04-04T16:47:33.425Z</time></trkpt><trkpt lat="45.7366948" lon="11.731574"><ele>100.0</ele><time>2026-04-04T16:47:34.414Z</time></trkpt><trkpt lat="45.7365859" lon="11.731645"><ele>99.5</ele><time>2026-04-04T16:47:35.419Z</time></trkpt><trkpt lat="45.7364685" lon="11.7316909"><ele>99.0</ele><time>2026-04-04T16:47:36.426Z</time></trkpt><trkpt lat="45.7363443" lon="11.7317228"><ele>98.5</ele><time>2026-04-04T16:47:37.424Z</time></trkpt><trkpt lat="45.7362131" lon="11.7317595"><ele>98.0</ele><time>2026-04-04T16:47:38.416Z</time></trkpt><trkpt lat="45.736081" lon="11.7318146"><ele>98.25</ele><time>2026-04-04T16:47:39.414Z</time></trkpt><trkpt lat="45.7359447" lon="11.7318793"><ele>98.5</ele><time>2026-04-04T16:47:40.418Z</time></trkpt><trkpt lat="45.7358089" lon="11.7319503"><ele>98.75</ele><time>2026-04-04T16:47:41.421Z</time></trkpt><trkpt lat="45.735673" lon="11.7320225"><ele>99.0</ele><time>2026-04-04T16:47:42.431Z</time></trkpt><trkpt lat="45.7355369" lon="11.7320962"><ele>99.25</ele><time>2026-04-04T16:47:43.428Z</time></trkpt><trkpt lat="45.7354014" lon="11.7321784"><ele>99.5</ele><time>2026-04-04T16:47:44.418Z</time></trkpt><trkpt lat="45.7352702" lon="11.7322753"><ele>99.75</ele><time>2026-04-04T16:47:45.421Z</time></trkpt><trkpt lat="45.7351511" lon="11.7323752"><ele>100.0</ele><time>2026-04-04T16:47:46.419Z</time></trkpt><trkpt lat="45.7350372" lon="11.7324752"><ele>100.0</ele><time>2026-04-04T16:47:47.43Z</time></trkpt><trkpt lat="45.7349327" lon="11.7325666"><ele>100.0</ele><time>2026-04-04T16:47:48.431Z</time></trkpt><trkpt lat="45.7348262" lon="11.7326515"><ele>100.0</ele><time>2026-04-04T16:47:49.424Z</time></trkpt><trkpt lat="45.734715" lon="11.7327279"><ele>100.0</ele><time>2026-04-04T16:47:50.433Z</time></trkpt><trkpt lat="45.7345969" lon="11.7327944"><ele>100.25</ele><time>2026-04-04T16:47:51.419Z</time></trkpt><trkpt lat="45.7344714" lon="11.732854"><ele>100.5</ele><time>2026-04-04T16:47:52.417Z</time></trkpt><trkpt lat="45.7343386" lon="11.7329093"><ele>100.75</ele><time>2026-04-04T16:47:53.412Z</time></trkpt><trkpt lat="45.7342102" lon="11.732958"><ele>101.0</ele><time>2026-04-04T16:47:54.431Z</time></trkpt><trkpt lat="45.7340853" lon="11.7330022"><ele>101.25</ele><time>2026-04-04T16:47:55.409Z</time></trkpt><trkpt lat="45.7339579" lon="11.7330401"><ele>101.5</ele><time>2026-04-04T16:47:56.431Z</time></trkpt><trkpt lat="45.7338285" lon="11.7330732"><ele>101.75</ele><time>2026-04-04T16:47:57.409Z</time></trkpt><trkpt lat="45.7337006" lon="11.733104"><ele>102.0</ele><time>2026-04-04T16:47:58.423Z</time></trkpt><trkpt lat="45.7335745" lon="11.7331336"><ele>101.19999999999999</ele><time>2026-04-04T16:47:59.419Z</time></trkpt><trkpt lat="45.7334574" lon="11.7331596"><ele>100.4</ele><time>2026-04-04T16:48:00.425Z</time></trkpt><trkpt lat="45.7333482" lon="11.7331832"><ele>99.6</ele><time>2026-04-04T16:48:01.429Z</time></trkpt><trkpt lat="45.7332503" lon="11.7332029"><ele>98.80000000000001</ele><time>2026-04-04T16:48:02.423Z</time></trkpt><trkpt lat="45.7331579" lon="11.7332107"><ele>98.0</ele><time>2026-04-04T16:48:03.421Z</time></trkpt><trkpt lat="45.7330617" lon="11.733195"><ele>98.0</ele><time>2026-04-04T16:48:04.417Z</time></trkpt><trkpt lat="45.7329647" lon="11.7331685"><ele>98.0</ele><time>2026-04-04T16:48:05.414Z</time></trkpt><trkpt lat="45.732874" lon="11.7331587"><ele>98.0</ele><time>2026-04-04T16:48:06.408Z</time></trkpt><trkpt lat="45.7327842" lon="11.7331834"><ele>98.0</ele><time>2026-04-04T16:48:07.406Z</time></trkpt><trkpt lat="45.7326925" lon="11.7332368"><ele>98.0</ele><time>2026-04-04T16:48:08.416Z</time></trkpt><trkpt lat="45.7326011" lon="11.7332956"><ele>98.0</ele><time>2026-04-04T16:48:09.415Z</time></trkpt><trkpt lat="45.7325061" lon="11.7333427"><ele>98.0</ele><time>2026-04-04T16:48:10.419Z</time></trkpt><trkpt lat="45.7324022" lon="11.7333745"><ele>98.0</ele><time>2026-04-04T16:48:11.427Z</time></trkpt><trkpt lat="45.7322923" lon="11.7333986"><ele>98.0</ele><time>2026-04-04T16:48:12.413Z</time></trkpt><trkpt lat="45.7321792" lon="11.7334215"><ele>98.0</ele><time>2026-04-04T16:48:13.412Z</time></trkpt><trkpt lat="45.7320614" lon="11.733445"><ele>98.0</ele><time>2026-04-04T16:48:14.42Z</time></trkpt><trkpt lat="45.7319419" lon="11.7334654"><ele>98.0</ele><time>2026-04-04T16:48:15.421Z</time></trkpt><trkpt lat="45.7318174" lon="11.7334876"><ele>98.0</ele><time>2026-04-04T16:48:16.424Z</time></trkpt><trkpt lat="45.7316874" lon="11.7335067"><ele>98.0</ele><time>2026-04-04T16:48:17.433Z</time></trkpt><trkpt lat="45.7315532" lon="11.7335232"><ele>98.0</ele><time>2026-04-04T16:48:18.424Z</time></trkpt><trkpt lat="45.7314216" lon="11.7335311"><ele>98.0</ele><time>2026-04-04T16:48:19.425Z</time></trkpt><trkpt lat="45.731287" lon="11.7335311"><ele>98.0</ele><time>2026-04-04T16:48:20.426Z</time></trkpt><trkpt lat="45.7311513" lon="11.733528"><ele>98.0</ele><time>2026-04-04T16:48:21.414Z</time></trkpt><trkpt lat="45.7310166" lon="11.7335243"><ele>97.75</ele><time>2026-04-04T16:48:22.42Z</time></trkpt><trkpt lat="45.7308833" lon="11.7335199"><ele>97.5</ele><time>2026-04-04T16:48:23.428Z</time></trkpt><trkpt lat="45.73075" lon="11.7335151"><ele>97.25</ele><time>2026-04-04T16:48:24.439Z</time></trkpt><trkpt lat="45.7306114" lon="11.7335091"><ele>97.0</ele><time>2026-04-04T16:48:25.424Z</time></trkpt><trkpt lat="45.7304727" lon="11.7335065"><ele>97.0</ele><time>2026-04-04T16:48:26.429Z</time></trkpt><trkpt lat="45.7303432" lon="11.7335032"><ele>97.0</ele><time>2026-04-04T16:48:27.431Z</time></trkpt><trkpt lat="45.7302178" lon="11.7334998"><ele>97.0</ele><time>2026-04-04T16:48:28.429Z</time></trkpt><trkpt lat="45.7300932" lon="11.7335033"><ele>97.0</ele><time>2026-04-04T16:48:29.425Z</time></trkpt><trkpt lat="45.7299688" lon="11.7335197"><ele>97.0</ele><time>2026-04-04T16:48:30.429Z</time></trkpt><trkpt lat="45.7298492" lon="11.7335396"><ele>97.0</ele><time>2026-04-04T16:48:31.421Z</time></trkpt><trkpt lat="45.7297315" lon="11.7335814"><ele>97.0</ele><time>2026-04-04T16:48:32.426Z</time></trkpt><trkpt lat="45.729611" lon="11.7336328"><ele>97.0</ele><time>2026-04-04T16:48:33.432Z</time></trkpt><trkpt lat="45.7294946" lon="11.7336842"><ele>96.66666666666667</ele><time>2026-04-04T16:48:34.422Z</time></trkpt><trkpt lat="45.7293818" lon="11.7337366"><ele>96.33333333333334</ele><time>2026-04-04T16:48:35.429Z</time></trkpt><trkpt lat="45.7291497" lon="11.7338477"><ele>96.0</ele><time>2026-04-04T16:48:37.424Z</time></trkpt><trkpt lat="45.7290334" lon="11.7339013"><ele>96.0</ele><time>2026-04-04T16:48:38.421Z</time></trkpt><trkpt lat="45.7289172" lon="11.7339557"><ele>96.0</ele><time>2026-04-04T16:48:39.42Z</time></trkpt><trkpt lat="45.7288024" lon="11.7340104"><ele>96.0</ele><time>2026-04-04T16:48:40.445Z</time></trkpt><trkpt lat="45.7286848" lon="11.734066"><ele>96.0</ele><time>2026-04-04T16:48:41.422Z</time></trkpt><trkpt lat="45.7285622" lon="11.7341288"><ele>96.0</ele><time>2026-04-04T16:48:42.423Z</time></trkpt><trkpt lat="45.7284392" lon="11.7341848"><ele>96.0</ele><time>2026-04-04T16:48:43.431Z</time></trkpt><trkpt lat="45.7283103" lon="11.7342142"><ele>96.0</ele><time>2026-04-04T16:48:44.419Z</time></trkpt><trkpt lat="45.7281809" lon="11.7342282"><ele>96.0</ele><time>2026-04-04T16:48:45.418Z</time></trkpt><trkpt lat="45.7280457" lon="11.7342365"><ele>96.0</ele><time>2026-04-04T16:48:46.417Z</time></trkpt><trkpt lat="45.7279067" lon="11.7342389"><ele>96.0</ele><time>2026-04-04T16:48:47.42Z</time></trkpt><trkpt lat="45.7277726" lon="11.734244"><ele>96.0</ele><time>2026-04-04T16:48:48.425Z</time></trkpt><trkpt lat="45.72765" lon="11.7342461"><ele>96.0</ele><time>2026-04-04T16:48:49.426Z</time></trkpt><trkpt lat="45.7275275" lon="11.7342522"><ele>96.19999999999999</ele><time>2026-04-04T16:48:50.424Z</time></trkpt><trkpt lat="45.7274072" lon="11.7342549"><ele>96.39999999999999</ele><time>2026-04-04T16:48:51.402Z</time></trkpt><trkpt lat="45.7272891" lon="11.734255"><ele>96.6</ele><time>2026-04-04T16:48:52.439Z</time></trkpt><trkpt lat="45.7271837" lon="11.7342441"><ele>96.8</ele><time>2026-04-04T16:48:53.419Z</time></trkpt><trkpt lat="45.7270904" lon="11.7342311"><ele>97.0</ele><time>2026-04-04T16:48:54.418Z</time></trkpt><trkpt lat="45.7270109" lon="11.7341589"><ele>97.0</ele><time>2026-04-04T16:48:55.41Z</time></trkpt><trkpt lat="45.7269477" lon="11.7340492"><ele>97.0</ele><time>2026-04-04T16:48:56.42Z</time></trkpt><trkpt lat="45.7268878" lon="11.7339192"><ele>97.0</ele><time>2026-04-04T16:48:57.417Z</time></trkpt><trkpt lat="45.7268093" lon="11.7338015"><ele>97.0</ele><time>2026-04-04T16:48:58.425Z</time></trkpt><trkpt lat="45.7267053" lon="11.7337129"><ele>97.0</ele><time>2026-04-04T16:48:59.42Z</time></trkpt><trkpt lat="45.7265842" lon="11.7336523"><ele>97.0</ele><time>2026-04-04T16:49:00.423Z</time></trkpt><trkpt lat="45.7264492" lon="11.7336083"><ele>97.0</ele><time>2026-04-04T16:49:01.422Z</time></trkpt><trkpt lat="45.7263069" lon="11.7335667"><ele>97.0</ele><time>2026-04-04T16:49:02.422Z</time></trkpt><trkpt lat="45.7261653" lon="11.7335238"><ele>97.0</ele><time>2026-04-04T16:49:03.42Z</time></trkpt><trkpt lat="45.7260161" lon="11.7334789"><ele>96.0</ele><time>2026-04-04T16:49:04.421Z</time></trkpt><trkpt lat="45.7258685" lon="11.7334391"><ele>95.0</ele><time>2026-04-04T16:49:05.435Z</time></trkpt><trkpt lat="45.7257245" lon="11.7333969"><ele>94.0</ele><time>2026-04-04T16:49:06.425Z</time></trkpt><trkpt lat="45.7255807" lon="11.7333508"><ele>93.0</ele><time>2026-04-04T16:49:07.412Z</time></trkpt><trkpt lat="45.7254373" lon="11.7333064"><ele>93.0</ele><time>2026-04-04T16:49:08.413Z</time></trkpt><trkpt lat="45.7252939" lon="11.7332561"><ele>93.0</ele><time>2026-04-04T16:49:09.423Z</time></trkpt><trkpt lat="45.7251396" lon="11.7332228"><ele>93.0</ele><time>2026-04-04T16:49:10.423Z</time></trkpt><trkpt lat="45.7249811" lon="11.7331784"><ele>94.0</ele><time>2026-04-04T16:49:11.419Z</time></trkpt><trkpt lat="45.7248209" lon="11.7331303"><ele>95.0</ele><time>2026-04-04T16:49:12.424Z</time></trkpt><trkpt lat="45.7246633" lon="11.7330848"><ele>96.0</ele><time>2026-04-04T16:49:13.425Z</time></trkpt><trkpt lat="45.7245086" lon="11.7330379"><ele>95.33333333333333</ele><time>2026-04-04T16:49:14.417Z</time></trkpt><trkpt lat="45.7243461" lon="11.7330144"><ele>94.66666666666666</ele><time>2026-04-04T16:49:15.411Z</time></trkpt><trkpt lat="45.7241871" lon="11.7330078"><ele>94.0</ele><time>2026-04-04T16:49:16.409Z</time></trkpt><trkpt lat="45.7240278" lon="11.7330188"><ele>94.0</ele><time>2026-04-04T16:49:17.424Z</time></trkpt><trkpt lat="45.7238938" lon="11.7330346"><ele>94.0</ele><time>2026-04-04T16:49:18.432Z</time></trkpt><trkpt lat="45.7237821" lon="11.7330523"><ele>94.0</ele><time>2026-04-04T16:49:19.424Z</time></trkpt><trkpt lat="45.7236747" lon="11.7330716"><ele>94.0</ele><time>2026-04-04T16:49:20.427Z</time></trkpt><trkpt lat="45.7235627" lon="11.733089"><ele>94.0</ele><time>2026-04-04T16:49:21.425Z</time></trkpt><trkpt lat="45.7234434" lon="11.7331059"><ele>94.0</ele><time>2026-04-04T16:49:22.425Z</time></trkpt><trkpt lat="45.7233156" lon="11.7331294"><ele>94.0</ele><time>2026-04-04T16:49:23.425Z</time></trkpt><trkpt lat="45.7231756" lon="11.7331494"><ele>94.0</ele><time>2026-04-04T16:49:24.427Z</time></trkpt><trkpt lat="45.7230273" lon="11.7331754"><ele>94.0</ele><time>2026-04-04T16:49:25.431Z</time></trkpt><trkpt lat="45.7228646" lon="11.7331996"><ele>94.0</ele><time>2026-04-04T16:49:26.423Z</time></trkpt><trkpt lat="45.7226993" lon="11.733216"><ele>94.0</ele><time>2026-04-04T16:49:27.426Z</time></trkpt><trkpt lat="45.7225316" lon="11.7332225"><ele>93.33333333333333</ele><time>2026-04-04T16:49:28.431Z</time></trkpt><trkpt lat="45.7223733" lon="11.7332214"><ele>92.66666666666667</ele><time>2026-04-04T16:49:29.418Z</time></trkpt><trkpt lat="45.7222194" lon="11.7332164"><ele>92.0</ele><time>2026-04-04T16:49:30.432Z</time></trkpt><trkpt lat="45.7220757" lon="11.7332138"><ele>92.0</ele><time>2026-04-04T16:49:31.405Z</time></trkpt><trkpt lat="45.7219389" lon="11.7332133"><ele>92.0</ele><time>2026-04-04T16:49:32.425Z</time></trkpt><trkpt lat="45.7218061" lon="11.7332128"><ele>92.0</ele><time>2026-04-04T16:49:33.41Z</time></trkpt><trkpt lat="45.721684" lon="11.733213"><ele>92.0</ele><time>2026-04-04T16:49:34.415Z</time></trkpt><trkpt lat="45.7215708" lon="11.7332148"><ele>91.6</ele><time>2026-04-04T16:49:35.42Z</time></trkpt><trkpt lat="45.7214629" lon="11.7332082"><ele>91.19999999999999</ele><time>2026-04-04T16:49:36.411Z</time></trkpt><trkpt lat="45.7213633" lon="11.7331879"><ele>90.8</ele><time>2026-04-04T16:49:37.414Z</time></trkpt><trkpt lat="45.7212852" lon="11.7331601"><ele>90.4</ele><time>2026-04-04T16:49:38.419Z</time></trkpt><trkpt lat="45.7211817" lon="11.733091"><ele>90.0</ele><time>2026-04-04T16:49:40.416Z</time></trkpt><trkpt lat="45.7211005" lon="11.7329507"><ele>90.5</ele><time>2026-04-04T16:49:42.41Z</time></trkpt><trkpt lat="45.7210536" lon="11.7328809"><ele>91.0</ele><time>2026-04-04T16:49:43.406Z</time></trkpt><trkpt lat="45.7210042" lon="11.7328198"><ele>91.5</ele><time>2026-04-04T16:49:44.415Z</time></trkpt><trkpt lat="45.720934" lon="11.7328361"><ele>92.0</ele><time>2026-04-04T16:49:45.413Z</time></trkpt><trkpt lat="45.7208681" lon="11.7328833"><ele>92.5</ele><time>2026-04-04T16:49:46.417Z</time></trkpt><trkpt lat="45.720784" lon="11.732925"><ele>93.0</ele><time>2026-04-04T16:49:47.418Z</time></trkpt><trkpt lat="45.7206914" lon="11.7329449"><ele>93.0</ele><time>2026-04-04T16:49:48.411Z</time></trkpt><trkpt lat="45.7205877" lon="11.7329359"><ele>93.0</ele><time>2026-04-04T16:49:49.427Z</time></trkpt><trkpt lat="45.7204692" lon="11.7329219"><ele>93.0</ele><time>2026-04-04T16:49:50.406Z</time></trkpt><trkpt lat="45.7203453" lon="11.7329026"><ele>93.0</ele><time>2026-04-04T16:49:51.423Z</time></trkpt><trkpt lat="45.7202178" lon="11.7328893"><ele>93.0</ele><time>2026-04-04T16:49:52.423Z</time></trkpt><trkpt lat="45.7200864" lon="11.7328762"><ele>93.0</ele><time>2026-04-04T16:49:53.417Z</time></trkpt><trkpt lat="45.7199463" lon="11.732857"><ele>93.0</ele><time>2026-04-04T16:49:54.417Z</time></trkpt><trkpt lat="45.7198042" lon="11.7328367"><ele>93.0</ele><time>2026-04-04T16:49:55.427Z</time></trkpt><trkpt lat="45.7196588" lon="11.7328148"><ele>93.0</ele><time>2026-04-04T16:49:56.43Z</time></trkpt><trkpt lat="45.7195099" lon="11.7327948"><ele>93.0</ele><time>2026-04-04T16:49:57.418Z</time></trkpt><trkpt lat="45.7193577" lon="11.7327751"><ele>93.0</ele><time>2026-04-04T16:49:58.423Z</time></trkpt><trkpt lat="45.7192046" lon="11.732754"><ele>92.5</ele><time>2026-04-04T16:49:59.418Z</time></trkpt><trkpt lat="45.7190529" lon="11.7327318"><ele>92.0</ele><time>2026-04-04T16:50:00.42Z</time></trkpt><trkpt lat="45.71891" lon="11.7327174"><ele>91.5</ele><time>2026-04-04T16:50:01.412Z</time></trkpt><trkpt lat="45.7187766" lon="11.7326969"><ele>91.0</ele><time>2026-04-04T16:50:02.413Z</time></trkpt><trkpt lat="45.7186456" lon="11.732682"><ele>90.75</ele><time>2026-04-04T16:50:03.41Z</time></trkpt><trkpt lat="45.7185113" lon="11.7326661"><ele>90.5</ele><time>2026-04-04T16:50:04.427Z</time></trkpt><trkpt lat="45.7183715" lon="11.7326561"><ele>90.25</ele><time>2026-04-04T16:50:05.424Z</time></trkpt><trkpt lat="45.718227" lon="11.7326564"><ele>90.0</ele><time>2026-04-04T16:50:06.424Z</time></trkpt><trkpt lat="45.7180815" lon="11.7326548"><ele>90.0</ele><time>2026-04-04T16:50:07.42Z</time></trkpt><trkpt lat="45.7179376" lon="11.7326538"><ele>90.0</ele><time>2026-04-04T16:50:08.406Z</time></trkpt><trkpt lat="45.7177935" lon="11.7326563"><ele>90.0</ele><time>2026-04-04T16:50:09.42Z</time></trkpt><trkpt lat="45.7176499" lon="11.732655"><ele>90.0</ele><time>2026-04-04T16:50:10.424Z</time></trkpt><trkpt lat="45.7175062" lon="11.7326508"><ele>90.0</ele><time>2026-04-04T16:50:11.419Z</time></trkpt><trkpt lat="45.7173614" lon="11.7326359"><ele>90.0</ele><time>2026-04-04T16:50:12.411Z</time></trkpt><trkpt lat="45.7172166" lon="11.7326178"><ele>90.0</ele><time>2026-04-04T16:50:13.425Z</time></trkpt><trkpt lat="45.71707" lon="11.7325909"><ele>90.0</ele><time>2026-04-04T16:50:14.428Z</time></trkpt><trkpt lat="45.7169234" lon="11.7325608"><ele>89.66666666666667</ele><time>2026-04-04T16:50:15.425Z</time></trkpt><trkpt lat="45.7167743" lon="11.7325259"><ele>89.33333333333334</ele><time>2026-04-04T16:50:16.42Z</time></trkpt><trkpt lat="45.7166265" lon="11.7324861"><ele>89.0</ele><time>2026-04-04T16:50:17.422Z</time></trkpt><trkpt lat="45.716478" lon="11.7324424"><ele>89.0</ele><time>2026-04-04T16:50:18.416Z</time></trkpt><trkpt lat="45.7163297" lon="11.7323957"><ele>89.0</ele><time>2026-04-04T16:50:19.416Z</time></trkpt><trkpt lat="45.7161812" lon="11.7323475"><ele>89.0</ele><time>2026-04-04T16:50:20.422Z</time></trkpt><trkpt lat="45.7160335" lon="11.7323048"><ele>89.25</ele><time>2026-04-04T16:50:21.419Z</time></trkpt><trkpt lat="45.7158871" lon="11.7322617"><ele>89.5</ele><time>2026-04-04T16:50:22.428Z</time></trkpt><trkpt lat="45.7157472" lon="11.7322226"><ele>89.75</ele><time>2026-04-04T16:50:23.431Z</time></trkpt><trkpt lat="45.7156094" lon="11.7321855"><ele>90.0</ele><time>2026-04-04T16:50:24.429Z</time></trkpt><trkpt lat="45.7154709" lon="11.7321474"><ele>90.0</ele><time>2026-04-04T16:50:25.398Z</time></trkpt><trkpt lat="45.7153307" lon="11.732107"><ele>90.0</ele><time>2026-04-04T16:50:26.415Z</time></trkpt><trkpt lat="45.7151898" lon="11.7320653"><ele>90.0</ele><time>2026-04-04T16:50:27.423Z</time></trkpt><trkpt lat="45.7150491" lon="11.7320225"><ele>90.0</ele><time>2026-04-04T16:50:28.424Z</time></trkpt><trkpt lat="45.714911" lon="11.7319818"><ele>89.5</ele><time>2026-04-04T16:50:29.42Z</time></trkpt><trkpt lat="45.7147745" lon="11.7319428"><ele>89.0</ele><time>2026-04-04T16:50:30.447Z</time></trkpt><trkpt lat="45.7146385" lon="11.7319049"><ele>88.5</ele><time>2026-04-04T16:50:31.422Z</time></trkpt><trkpt lat="45.714503" lon="11.7318652"><ele>88.0</ele><time>2026-04-04T16:50:32.427Z</time></trkpt><trkpt lat="45.7143667" lon="11.7318238"><ele>87.75</ele><time>2026-04-04T16:50:33.415Z</time></trkpt><trkpt lat="45.7142271" lon="11.7317809"><ele>87.5</ele><time>2026-04-04T16:50:34.418Z</time></trkpt><trkpt lat="45.7140873" lon="11.731741"><ele>87.25</ele><time>2026-04-04T16:50:35.42Z</time></trkpt><trkpt lat="45.7139403" lon="11.731706"><ele>87.0</ele><time>2026-04-04T16:50:36.431Z</time></trkpt><trkpt lat="45.7137913" lon="11.7316728"><ele>87.0</ele><time>2026-04-04T16:50:37.426Z</time></trkpt><trkpt lat="45.713647" lon="11.7316415"><ele>87.0</ele><time>2026-04-04T16:50:38.419Z</time></trkpt><trkpt lat="45.7135138" lon="11.7316138"><ele>87.0</ele><time>2026-04-04T16:50:39.433Z</time></trkpt><trkpt lat="45.7133867" lon="11.731588"><ele>87.0</ele><time>2026-04-04T16:50:40.431Z</time></trkpt><trkpt lat="45.7132689" lon="11.7315643"><ele>87.25</ele><time>2026-04-04T16:50:41.418Z</time></trkpt><trkpt lat="45.7131516" lon="11.7315413"><ele>87.5</ele><time>2026-04-04T16:50:42.42Z</time></trkpt><trkpt lat="45.7130286" lon="11.7315229"><ele>87.75</ele><time>2026-04-04T16:50:43.426Z</time></trkpt><trkpt lat="45.7128973" lon="11.7315106"><ele>88.0</ele><time>2026-04-04T16:50:44.431Z</time></trkpt><trkpt lat="45.7127592" lon="11.7315053"><ele>87.75</ele><time>2026-04-04T16:50:45.423Z</time></trkpt><trkpt lat="45.7126178" lon="11.7315052"><ele>87.5</ele><time>2026-04-04T16:50:46.415Z</time></trkpt><trkpt lat="45.7124724" lon="11.7315127"><ele>87.25</ele><time>2026-04-04T16:50:47.415Z</time></trkpt><trkpt lat="45.712331" lon="11.7315199"><ele>87.0</ele><time>2026-04-04T16:50:48.408Z</time></trkpt><trkpt lat="45.7122006" lon="11.731527"><ele>87.0</ele><time>2026-04-04T16:50:49.431Z</time></trkpt><trkpt lat="45.7120719" lon="11.7315353"><ele>87.0</ele><time>2026-04-04T16:50:50.415Z</time></trkpt><trkpt lat="45.7119403" lon="11.7315445"><ele>87.0</ele><time>2026-04-04T16:50:51.417Z</time></trkpt><trkpt lat="45.7118085" lon="11.731554"><ele>87.0</ele><time>2026-04-04T16:50:52.426Z</time></trkpt><trkpt lat="45.7116764" lon="11.7315632"><ele>86.5</ele><time>2026-04-04T16:50:53.423Z</time></trkpt><trkpt lat="45.7115451" lon="11.7315725"><ele>86.0</ele><time>2026-04-04T16:50:54.424Z</time></trkpt><trkpt lat="45.7114133" lon="11.7315807"><ele>85.5</ele><time>2026-04-04T16:50:55.43Z</time></trkpt><trkpt lat="45.7112883" lon="11.7315877"><ele>85.0</ele><time>2026-04-04T16:50:56.419Z</time></trkpt><trkpt lat="45.7111724" lon="11.7315972"><ele>85.0</ele><time>2026-04-04T16:50:57.426Z</time></trkpt><trkpt lat="45.7110672" lon="11.7316048"><ele>85.0</ele><time>2026-04-04T16:50:58.423Z</time></trkpt><trkpt lat="45.71097" lon="11.731612"><ele>85.0</ele><time>2026-04-04T16:50:59.43Z</time></trkpt><trkpt lat="45.7108716" lon="11.7316205"><ele>85.0</ele><time>2026-04-04T16:51:00.422Z</time></trkpt><trkpt lat="45.7107691" lon="11.7316289"><ele>85.0</ele><time>2026-04-04T16:51:01.427Z</time></trkpt><trkpt lat="45.7106648" lon="11.7316368"><ele>85.0</ele><time>2026-04-04T16:51:02.412Z</time></trkpt><trkpt lat="45.7105603" lon="11.731644"><ele>85.0</ele><time>2026-04-04T16:51:03.425Z</time></trkpt><trkpt lat="45.7104604" lon="11.7316474"><ele>85.0</ele><time>2026-04-04T16:51:04.428Z</time></trkpt><trkpt lat="45.7103568" lon="11.7316509"><ele>85.0</ele><time>2026-04-04T16:51:05.426Z</time></trkpt><trkpt lat="45.710249" lon="11.7316534"><ele>85.0</ele><time>2026-04-04T16:51:06.422Z</time></trkpt><trkpt lat="45.7101358" lon="11.731659"><ele>85.25</ele><time>2026-04-04T16:51:07.422Z</time></trkpt><trkpt lat="45.7100225" lon="11.7316669"><ele>85.5</ele><time>2026-04-04T16:51:08.419Z</time></trkpt><trkpt lat="45.7099002" lon="11.7316771"><ele>85.75</ele><time>2026-04-04T16:51:09.415Z</time></trkpt><trkpt lat="45.7097755" lon="11.7316812"><ele>86.0</ele><time>2026-04-04T16:51:10.425Z</time></trkpt><trkpt lat="45.7096559" lon="11.731686"><ele>86.0</ele><time>2026-04-04T16:51:11.429Z</time></trkpt><trkpt lat="45.7095502" lon="11.7316911"><ele>86.0</ele><time>2026-04-04T16:51:12.427Z</time></trkpt><trkpt lat="45.7094524" lon="11.7316964"><ele>86.0</ele><time>2026-04-04T16:51:13.427Z</time></trkpt><trkpt lat="45.7093573" lon="11.7317045"><ele>86.0</ele><time>2026-04-04T16:51:14.42Z</time></trkpt><trkpt lat="45.7092609" lon="11.7317143"><ele>86.0</ele><time>2026-04-04T16:51:15.429Z</time></trkpt><trkpt lat="45.7091607" lon="11.7317205"><ele>85.6</ele><time>2026-04-04T16:51:16.419Z</time></trkpt><trkpt lat="45.709061" lon="11.7317254"><ele>85.19999999999999</ele><time>2026-04-04T16:51:17.433Z</time></trkpt><trkpt lat="45.7089582" lon="11.7317317"><ele>84.80000000000001</ele><time>2026-04-04T16:51:18.43Z</time></trkpt><trkpt lat="45.7088581" lon="11.7317425"><ele>84.4</ele><time>2026-04-04T16:51:19.419Z</time></trkpt><trkpt lat="45.7087679" lon="11.7317526"><ele>84.0</ele><time>2026-04-04T16:51:20.403Z</time></trkpt><trkpt lat="45.7086828" lon="11.7317648"><ele>84.0</ele><time>2026-04-04T16:51:21.429Z</time></trkpt><trkpt lat="45.7085948" lon="11.731782"><ele>84.0</ele><time>2026-04-04T16:51:22.428Z</time></trkpt><trkpt lat="45.7085079" lon="11.7317951"><ele>84.0</ele><time>2026-04-04T16:51:23.44Z</time></trkpt><trkpt lat="45.7084188" lon="11.7318032"><ele>84.0</ele><time>2026-04-04T16:51:24.429Z</time></trkpt><trkpt lat="45.7083289" lon="11.7318084"><ele>84.0</ele><time>2026-04-04T16:51:25.421Z</time></trkpt><trkpt lat="45.7082348" lon="11.7318141"><ele>84.0</ele><time>2026-04-04T16:51:26.416Z</time></trkpt><trkpt lat="45.7081446" lon="11.7318205"><ele>84.0</ele><time>2026-04-04T16:51:27.424Z</time></trkpt><trkpt lat="45.708055" lon="11.7318361"><ele>84.0</ele><time>2026-04-04T16:51:28.42Z</time></trkpt><trkpt lat="45.7079671" lon="11.7318603"><ele>84.0</ele><time>2026-04-04T16:51:29.422Z</time></trkpt><trkpt lat="45.7078939" lon="11.7318859"><ele>84.0</ele><time>2026-04-04T16:51:30.42Z</time></trkpt><trkpt lat="45.707828" lon="11.7319128"><ele>84.0</ele><time>2026-04-04T16:51:31.428Z</time></trkpt><trkpt lat="45.7077655" lon="11.7319423"><ele>83.83333333333333</ele><time>2026-04-04T16:51:32.425Z</time></trkpt><trkpt lat="45.7076522" lon="11.7319851"><ele>83.66666666666667</ele><time>2026-04-04T16:51:34.413Z</time></trkpt><trkpt lat="45.7075899" lon="11.7320023"><ele>83.5</ele><time>2026-04-04T16:51:35.43Z</time></trkpt><trkpt lat="45.7075268" lon="11.7320154"><ele>83.33333333333334</ele><time>2026-04-04T16:51:36.422Z</time></trkpt><trkpt lat="45.7074613" lon="11.7320276"><ele>83.16666666666667</ele><time>2026-04-04T16:51:37.424Z</time></trkpt><trkpt lat="45.7073909" lon="11.732042"><ele>83.0</ele><time>2026-04-04T16:51:38.42Z</time></trkpt><trkpt lat="45.7073123" lon="11.7320566"><ele>83.0</ele><time>2026-04-04T16:51:39.425Z</time></trkpt><trkpt lat="45.7072308" lon="11.7320731"><ele>83.0</ele><time>2026-04-04T16:51:40.419Z</time></trkpt><trkpt lat="45.7071455" lon="11.7320885"><ele>83.0</ele><time>2026-04-04T16:51:41.418Z</time></trkpt><trkpt lat="45.7070561" lon="11.7321039"><ele>83.0</ele><time>2026-04-04T16:51:42.417Z</time></trkpt><trkpt lat="45.7069602" lon="11.7321208"><ele>83.0</ele><time>2026-04-04T16:51:43.419Z</time></trkpt><trkpt lat="45.706864" lon="11.7321424"><ele>82.80000000000001</ele><time>2026-04-04T16:51:44.421Z</time></trkpt><trkpt lat="45.7067671" lon="11.7321652"><ele>82.6</ele><time>2026-04-04T16:51:45.425Z</time></trkpt><trkpt lat="45.7066646" lon="11.732182"><ele>82.4</ele><time>2026-04-04T16:51:46.419Z</time></trkpt><trkpt lat="45.7065599" lon="11.7322067"><ele>82.19999999999999</ele><time>2026-04-04T16:51:47.423Z</time></trkpt><trkpt lat="45.7064548" lon="11.7322321"><ele>82.0</ele><time>2026-04-04T16:51:48.433Z</time></trkpt><trkpt lat="45.7063473" lon="11.7322604"><ele>82.0</ele><time>2026-04-04T16:51:49.422Z</time></trkpt><trkpt lat="45.7062397" lon="11.7322883"><ele>82.0</ele><time>2026-04-04T16:51:50.412Z</time></trkpt><trkpt lat="45.706128" lon="11.7323183"><ele>82.0</ele><time>2026-04-04T16:51:51.418Z</time></trkpt><trkpt lat="45.7060115" lon="11.7323549"><ele>82.0</ele><time>2026-04-04T16:51:52.429Z</time></trkpt><trkpt lat="45.7058906" lon="11.7323944"><ele>81.75</ele><time>2026-04-04T16:51:53.419Z</time></trkpt><trkpt lat="45.705764" lon="11.7324354"><ele>81.5</ele><time>2026-04-04T16:51:54.419Z</time></trkpt><trkpt lat="45.7056349" lon="11.7324751"><ele>81.25</ele><time>2026-04-04T16:51:55.421Z</time></trkpt><trkpt lat="45.7055056" lon="11.7325121"><ele>81.0</ele><time>2026-04-04T16:51:56.418Z</time></trkpt><trkpt lat="45.705377" lon="11.7325507"><ele>81.0</ele><time>2026-04-04T16:51:57.431Z</time></trkpt><trkpt lat="45.7052476" lon="11.7325869"><ele>81.0</ele><time>2026-04-04T16:51:58.409Z</time></trkpt><trkpt lat="45.705119" lon="11.7326253"><ele>81.0</ele><time>2026-04-04T16:51:59.413Z</time></trkpt><trkpt lat="45.70499" lon="11.7326636"><ele>81.0</ele><time>2026-04-04T16:52:00.419Z</time></trkpt><trkpt lat="45.704859" lon="11.7326973"><ele>80.75</ele><time>2026-04-04T16:52:01.43Z</time></trkpt><trkpt lat="45.7047307" lon="11.7327279"><ele>80.5</ele><time>2026-04-04T16:52:02.43Z</time></trkpt><trkpt lat="45.7046046" lon="11.7327507"><ele>80.25</ele><time>2026-04-04T16:52:03.423Z</time></trkpt><trkpt lat="45.7044766" lon="11.7327665"><ele>80.0</ele><time>2026-04-04T16:52:04.417Z</time></trkpt><trkpt lat="45.7043514" lon="11.7327801"><ele>80.0</ele><time>2026-04-04T16:52:05.421Z</time></trkpt><trkpt lat="45.7042294" lon="11.7327914"><ele>80.0</ele><time>2026-04-04T16:52:06.426Z</time></trkpt><trkpt lat="45.7041064" lon="11.7328052"><ele>80.0</ele><time>2026-04-04T16:52:07.429Z</time></trkpt><trkpt lat="45.7039825" lon="11.7328194"><ele>80.0</ele><time>2026-04-04T16:52:08.424Z</time></trkpt><trkpt lat="45.7038652" lon="11.7328317"><ele>80.0</ele><time>2026-04-04T16:52:09.414Z</time></trkpt><trkpt lat="45.7037513" lon="11.7328419"><ele>80.0</ele><time>2026-04-04T16:52:10.413Z</time></trkpt><trkpt lat="45.7036354" lon="11.7328534"><ele>80.0</ele><time>2026-04-04T16:52:11.42Z</time></trkpt><trkpt lat="45.7035228" lon="11.7328666"><ele>80.0</ele><time>2026-04-04T16:52:12.427Z</time></trkpt><trkpt lat="45.7034138" lon="11.7328767"><ele>79.8</ele><time>2026-04-04T16:52:13.415Z</time></trkpt><trkpt lat="45.7033029" lon="11.7328877"><ele>79.6</ele><time>2026-04-04T16:52:14.426Z</time></trkpt><trkpt lat="45.7031897" lon="11.7328979"><ele>79.4</ele><time>2026-04-04T16:52:15.419Z</time></trkpt><trkpt lat="45.7030792" lon="11.7329075"><ele>79.2</ele><time>2026-04-04T16:52:16.424Z</time></trkpt><trkpt lat="45.7029735" lon="11.732919"><ele>79.0</ele><time>2026-04-04T16:52:17.409Z</time></trkpt><trkpt lat="45.7028668" lon="11.7329332"><ele>79.0</ele><time>2026-04-04T16:52:18.425Z</time></trkpt><trkpt lat="45.7027573" lon="11.732948"><ele>79.0</ele><time>2026-04-04T16:52:19.418Z</time></trkpt><trkpt lat="45.7026428" lon="11.7329659"><ele>79.0</ele><time>2026-04-04T16:52:20.423Z</time></trkpt><trkpt lat="45.7025289" lon="11.7329825"><ele>79.0</ele><time>2026-04-04T16:52:21.418Z</time></trkpt><trkpt lat="45.702429" lon="11.7329936"><ele>79.0</ele><time>2026-04-04T16:52:22.423Z</time></trkpt><trkpt lat="45.7023413" lon="11.7330034"><ele>78.8</ele><time>2026-04-04T16:52:23.421Z</time></trkpt><trkpt lat="45.7022577" lon="11.733015"><ele>78.60000000000001</ele><time>2026-04-04T16:52:24.424Z</time></trkpt><trkpt lat="45.7021729" lon="11.7330254"><ele>78.4</ele><time>2026-04-04T16:52:25.432Z</time></trkpt><trkpt lat="45.7020724" lon="11.7330306"><ele>78.2</ele><time>2026-04-04T16:52:26.424Z</time></trkpt><trkpt lat="45.7019494" lon="11.7330328"><ele>78.0</ele><time>2026-04-04T16:52:27.415Z</time></trkpt><trkpt lat="45.7018101" lon="11.7330332"><ele>77.66666666666667</ele><time>2026-04-04T16:52:28.428Z</time></trkpt><trkpt lat="45.7016546" lon="11.7330339"><ele>77.33333333333334</ele><time>2026-04-04T16:52:29.414Z</time></trkpt><trkpt lat="45.7014735" lon="11.7330369"><ele>77.0</ele><time>2026-04-04T16:52:30.428Z</time></trkpt><trkpt lat="45.7012665" lon="11.7330403"><ele>77.33333333333334</ele><time>2026-04-04T16:52:31.424Z</time></trkpt><trkpt lat="45.7010501" lon="11.7330402"><ele>77.66666666666667</ele><time>2026-04-04T16:52:32.427Z</time></trkpt><trkpt lat="45.7008302" lon="11.7330337"><ele>78.0</ele><time>2026-04-04T16:52:33.426Z</time></trkpt><trkpt lat="45.7006132" lon="11.7330166"><ele>78.0</ele><time>2026-04-04T16:52:34.421Z</time></trkpt><trkpt lat="45.7004038" lon="11.7329905"><ele>78.0</ele><time>2026-04-04T16:52:35.429Z</time></trkpt><trkpt lat="45.7002049" lon="11.7329584"><ele>78.0</ele><time>2026-04-04T16:52:36.413Z</time></trkpt><trkpt lat="45.7000146" lon="11.7329258"><ele>78.33333333333333</ele><time>2026-04-04T16:52:37.425Z</time></trkpt><trkpt lat="45.6998264" lon="11.7328959"><ele>78.66666666666666</ele><time>2026-04-04T16:52:38.424Z</time></trkpt><trkpt lat="45.6996416" lon="11.7328708"><ele>79.0</ele><time>2026-04-04T16:52:39.415Z</time></trkpt><trkpt lat="45.6994513" lon="11.7328516"><ele>79.0</ele><time>2026-04-04T16:52:40.419Z</time></trkpt><trkpt lat="45.6992626" lon="11.7328249"><ele>79.0</ele><time>2026-04-04T16:52:41.417Z</time></trkpt><trkpt lat="45.6990871" lon="11.7327904"><ele>79.0</ele><time>2026-04-04T16:52:42.422Z</time></trkpt><trkpt lat="45.6989225" lon="11.7327573"><ele>79.0</ele><time>2026-04-04T16:52:43.428Z</time></trkpt><trkpt lat="45.6987667" lon="11.7327292"><ele>79.0</ele><time>2026-04-04T16:52:44.429Z</time></trkpt><trkpt lat="45.6986147" lon="11.7327029"><ele>79.0</ele><time>2026-04-04T16:52:45.425Z</time></trkpt><trkpt lat="45.6984712" lon="11.7326794"><ele>78.66666666666666</ele><time>2026-04-04T16:52:46.426Z</time></trkpt><trkpt lat="45.6983231" lon="11.7326649"><ele>78.33333333333333</ele><time>2026-04-04T16:52:47.424Z</time></trkpt><trkpt lat="45.6981559" lon="11.7326528"><ele>78.0</ele><time>2026-04-04T16:52:48.438Z</time></trkpt><trkpt lat="45.6979673" lon="11.7326341"><ele>78.0</ele><time>2026-04-04T16:52:49.432Z</time></trkpt><trkpt lat="45.6977601" lon="11.7326154"><ele>78.0</ele><time>2026-04-04T16:52:50.426Z</time></trkpt><trkpt lat="45.6975473" lon="11.7325985"><ele>78.0</ele><time>2026-04-04T16:52:51.418Z</time></trkpt><trkpt lat="45.697338" lon="11.7325854"><ele>78.0</ele><time>2026-04-04T16:52:52.426Z</time></trkpt><trkpt lat="45.6971308" lon="11.7325789"><ele>78.0</ele><time>2026-04-04T16:52:53.451Z</time></trkpt><trkpt lat="45.6969216" lon="11.7325743"><ele>78.0</ele><time>2026-04-04T16:52:54.435Z</time></trkpt><trkpt lat="45.6967268" lon="11.7325724"><ele>77.33333333333333</ele><time>2026-04-04T16:52:55.419Z</time></trkpt><trkpt lat="45.6965526" lon="11.7325712"><ele>76.66666666666666</ele><time>2026-04-04T16:52:56.428Z</time></trkpt><trkpt lat="45.696392" lon="11.7325713"><ele>76.0</ele><time>2026-04-04T16:52:57.432Z</time></trkpt><trkpt lat="45.6962303" lon="11.7325746"><ele>75.75</ele><time>2026-04-04T16:52:58.427Z</time></trkpt><trkpt lat="45.696075" lon="11.7325775"><ele>75.5</ele><time>2026-04-04T16:52:59.411Z</time></trkpt><trkpt lat="45.6959297" lon="11.7325751"><ele>75.25</ele><time>2026-04-04T16:53:00.415Z</time></trkpt><trkpt lat="45.695799" lon="11.7325704"><ele>75.0</ele><time>2026-04-04T16:53:01.411Z</time></trkpt><trkpt lat="45.6956793" lon="11.7325622"><ele>75.0</ele><time>2026-04-04T16:53:02.415Z</time></trkpt><trkpt lat="45.6955716" lon="11.7325473"><ele>75.0</ele><time>2026-04-04T16:53:03.413Z</time></trkpt><trkpt lat="45.6954752" lon="11.7325208"><ele>75.0</ele><time>2026-04-04T16:53:04.412Z</time></trkpt><trkpt lat="45.6953921" lon="11.7324816"><ele>75.0</ele><time>2026-04-04T16:53:05.429Z</time></trkpt><trkpt lat="45.6953153" lon="11.7324275"><ele>75.0</ele><time>2026-04-04T16:53:06.424Z</time></trkpt><trkpt lat="45.6952361" lon="11.7323471"><ele>75.2</ele><time>2026-04-04T16:53:07.431Z</time></trkpt><trkpt lat="45.6951515" lon="11.7322721"><ele>75.4</ele><time>2026-04-04T16:53:08.414Z</time></trkpt><trkpt lat="45.6950589" lon="11.7322491"><ele>75.6</ele><time>2026-04-04T16:53:09.4Z</time></trkpt><trkpt lat="45.6949807" lon="11.7322829"><ele>75.8</ele><time>2026-04-04T16:53:10.418Z</time></trkpt><trkpt lat="45.6949011" lon="11.7323563"><ele>76.0</ele><time>2026-04-04T16:53:11.404Z</time></trkpt><trkpt lat="45.6948302" lon="11.7324373"><ele>76.0</ele><time>2026-04-04T16:53:12.42Z</time></trkpt><trkpt lat="45.6947514" lon="11.7324936"><ele>76.0</ele><time>2026-04-04T16:53:13.424Z</time></trkpt><trkpt lat="45.6946717" lon="11.7325369"><ele>76.0</ele><time>2026-04-04T16:53:14.431Z</time></trkpt><trkpt lat="45.694589" lon="11.7325562"><ele>76.0</ele><time>2026-04-04T16:53:15.422Z</time></trkpt><trkpt lat="45.6945021" lon="11.7325637"><ele>76.0</ele><time>2026-04-04T16:53:16.433Z</time></trkpt><trkpt lat="45.6944085" lon="11.7325607"><ele>76.0</ele><time>2026-04-04T16:53:17.412Z</time></trkpt><trkpt lat="45.6943041" lon="11.732573"><ele>75.66666666666666</ele><time>2026-04-04T16:53:18.427Z</time></trkpt><trkpt lat="45.6941839" lon="11.732593"><ele>75.33333333333333</ele><time>2026-04-04T16:53:19.425Z</time></trkpt><trkpt lat="45.6939968" lon="11.7325982"><ele>75.0</ele><time>2026-04-04T16:53:20.422Z</time></trkpt><trkpt lat="45.6938034" lon="11.7325854"><ele>75.0</ele><time>2026-04-04T16:53:21.422Z</time></trkpt><trkpt lat="45.6936093" lon="11.7325905"><ele>75.0</ele><time>2026-04-04T16:53:22.424Z</time></trkpt><trkpt lat="45.6934015" lon="11.7325972"><ele>75.0</ele><time>2026-04-04T16:53:23.427Z</time></trkpt><trkpt lat="45.6931943" lon="11.7325997"><ele>75.0</ele><time>2026-04-04T16:53:24.421Z</time></trkpt><trkpt lat="45.693009" lon="11.7326226"><ele>75.0</ele><time>2026-04-04T16:53:25.428Z</time></trkpt><trkpt lat="45.6928355" lon="11.732649"><ele>75.0</ele><time>2026-04-04T16:53:26.42Z</time></trkpt><trkpt lat="45.6926762" lon="11.7326711"><ele>75.0</ele><time>2026-04-04T16:53:27.413Z</time></trkpt><trkpt lat="45.6925332" lon="11.7326959"><ele>75.0</ele><time>2026-04-04T16:53:28.424Z</time></trkpt><trkpt lat="45.692409" lon="11.7327129"><ele>75.0</ele><time>2026-04-04T16:53:29.421Z</time></trkpt><trkpt lat="45.6923011" lon="11.7327297"><ele>75.0</ele><time>2026-04-04T16:53:30.418Z</time></trkpt><trkpt lat="45.6922124" lon="11.7327408"><ele>75.16666666666667</ele><time>2026-04-04T16:53:31.422Z</time></trkpt><trkpt lat="45.6921447" lon="11.7327485"><ele>75.33333333333333</ele><time>2026-04-04T16:53:32.422Z</time></trkpt><trkpt lat="45.6920686" lon="11.7327592"><ele>75.5</ele><time>2026-04-04T16:53:34.431Z</time></trkpt><trkpt lat="45.6919505" lon="11.7327802"><ele>75.66666666666666</ele><time>2026-04-04T16:54:27.425Z</time></trkpt><trkpt lat="45.6918718" lon="11.732821"><ele>75.83333333333333</ele><time>2026-04-04T16:54:28.433Z</time></trkpt><trkpt lat="45.6917777" lon="11.7328747"><ele>76.0</ele><time>2026-04-04T16:54:29.412Z</time></trkpt><trkpt lat="45.6916621" lon="11.7329259"><ele>75.0</ele><time>2026-04-04T16:54:30.413Z</time></trkpt><trkpt lat="45.6915207" lon="11.7329608"><ele>74.0</ele><time>2026-04-04T16:54:31.427Z</time></trkpt><trkpt lat="45.6913656" lon="11.7329844"><ele>73.0</ele><time>2026-04-04T16:54:32.414Z</time></trkpt><trkpt lat="45.6911952" lon="11.7330013"><ele>73.0</ele><time>2026-04-04T16:54:33.431Z</time></trkpt><trkpt lat="45.6910195" lon="11.7330182"><ele>73.0</ele><time>2026-04-04T16:54:34.423Z</time></trkpt><trkpt lat="45.6908423" lon="11.7330344"><ele>73.0</ele><time>2026-04-04T16:54:35.42Z</time></trkpt><trkpt lat="45.6906606" lon="11.7330527"><ele>73.0</ele><time>2026-04-04T16:54:36.422Z</time></trkpt><trkpt lat="45.6904746" lon="11.7330723"><ele>73.0</ele><time>2026-04-04T16:54:37.43Z</time></trkpt><trkpt lat="45.6902952" lon="11.7330923"><ele>73.0</ele><time>2026-04-04T16:54:38.424Z</time></trkpt><trkpt lat="45.6901282" lon="11.7331099"><ele>73.0</ele><time>2026-04-04T16:54:39.435Z</time></trkpt><trkpt lat="45.6899799" lon="11.733123"><ele>73.0</ele><time>2026-04-04T16:54:40.407Z</time></trkpt><trkpt lat="45.6898404" lon="11.7331381"><ele>73.0</ele><time>2026-04-04T16:54:41.426Z</time></trkpt><trkpt lat="45.6897198" lon="11.7331252"><ele>73.0</ele><time>2026-04-04T16:54:42.419Z</time></trkpt><trkpt lat="45.6895998" lon="11.7330666"><ele>73.0</ele><time>2026-04-04T16:54:43.414Z</time></trkpt><trkpt lat="45.6894932" lon="11.7329484"><ele>73.0</ele><time>2026-04-04T16:54:44.422Z</time></trkpt><trkpt lat="45.6893919" lon="11.7327771"><ele>73.0</ele><time>2026-04-04T16:54:45.412Z</time></trkpt><trkpt lat="45.6893101" lon="11.7325718"><ele>72.66666666666666</ele><time>2026-04-04T16:54:46.406Z</time></trkpt><trkpt lat="45.6892475" lon="11.7323414"><ele>72.33333333333333</ele><time>2026-04-04T16:54:47.424Z</time></trkpt><trkpt lat="45.6891885" lon="11.7321022"><ele>72.0</ele><time>2026-04-04T16:54:48.413Z</time></trkpt><trkpt lat="45.689154" lon="11.7318333"><ele>72.0</ele><time>2026-04-04T16:54:49.428Z</time></trkpt><trkpt lat="45.6891159" lon="11.731561"><ele>72.0</ele><time>2026-04-04T16:54:50.422Z</time></trkpt><trkpt lat="45.6890747" lon="11.73132"><ele>72.0</ele><time>2026-04-04T16:54:51.408Z</time></trkpt><trkpt lat="45.6890299" lon="11.7310986"><ele>72.0</ele><time>2026-04-04T16:54:52.428Z</time></trkpt><trkpt lat="45.6889629" lon="11.7308942"><ele>72.0</ele><time>2026-04-04T16:54:53.426Z</time></trkpt><trkpt lat="45.6888841" lon="11.7307042"><ele>72.0</ele><time>2026-04-04T16:54:54.415Z</time></trkpt><trkpt lat="45.6887443" lon="11.7305629"><ele>72.0</ele><time>2026-04-04T16:54:55.409Z</time></trkpt><trkpt lat="45.6885948" lon="11.730472"><ele>72.0</ele><time>2026-04-04T16:54:56.408Z</time></trkpt><trkpt lat="45.6884294" lon="11.7304282"><ele>72.0</ele><time>2026-04-04T16:54:57.411Z</time></trkpt><trkpt lat="45.6882596" lon="11.7304123"><ele>71.66666666666667</ele><time>2026-04-04T16:54:58.419Z</time></trkpt><trkpt lat="45.6880754" lon="11.7304089"><ele>71.33333333333334</ele><time>2026-04-04T16:54:59.422Z</time></trkpt><trkpt lat="45.687871" lon="11.7304088"><ele>71.0</ele><time>2026-04-04T16:55:00.42Z</time></trkpt><trkpt lat="45.687646" lon="11.7304111"><ele>70.5</ele><time>2026-04-04T16:55:01.419Z</time></trkpt><trkpt lat="45.6874093" lon="11.7304136"><ele>70.0</ele><time>2026-04-04T16:55:02.429Z</time></trkpt><trkpt lat="45.6871826" lon="11.7304082"><ele>70.0</ele><time>2026-04-04T16:55:03.417Z</time></trkpt><trkpt lat="45.6869686" lon="11.7304128"><ele>70.0</ele><time>2026-04-04T16:55:04.427Z</time></trkpt><trkpt lat="45.6867677" lon="11.730415"><ele>70.0</ele><time>2026-04-04T16:55:05.427Z</time></trkpt><trkpt lat="45.6865773" lon="11.7304184"><ele>70.33333333333333</ele><time>2026-04-04T16:55:06.412Z</time></trkpt><trkpt lat="45.6863978" lon="11.7304207"><ele>70.66666666666667</ele><time>2026-04-04T16:55:07.422Z</time></trkpt><trkpt lat="45.6862409" lon="11.7304191"><ele>71.0</ele><time>2026-04-04T16:55:08.427Z</time></trkpt><trkpt lat="45.6861013" lon="11.7304186"><ele>71.0</ele><time>2026-04-04T16:55:09.431Z</time></trkpt><trkpt lat="45.6859826" lon="11.7304195"><ele>71.0</ele><time>2026-04-04T16:55:10.415Z</time></trkpt><trkpt lat="45.6858915" lon="11.7304232"><ele>71.0</ele><time>2026-04-04T16:55:11.418Z</time></trkpt><trkpt lat="45.6858243" lon="11.730419"><ele>71.0</ele><time>2026-04-04T16:55:12.403Z</time></trkpt><trkpt lat="45.6857375" lon="11.7302985"><ele>71.0</ele><time>2026-04-04T16:55:14.405Z</time></trkpt><trkpt lat="45.6857189" lon="11.7301677"><ele>70.75</ele><time>2026-04-04T16:55:15.423Z</time></trkpt><trkpt lat="45.6856955" lon="11.7299886"><ele>70.5</ele><time>2026-04-04T16:55:16.441Z</time></trkpt><trkpt lat="45.6856616" lon="11.7297619"><ele>70.25</ele><time>2026-04-04T16:55:17.413Z</time></trkpt><trkpt lat="45.6856333" lon="11.7295419"><ele>70.0</ele><time>2026-04-04T16:55:18.416Z</time></trkpt><trkpt lat="45.68561" lon="11.7293551"><ele>70.0</ele><time>2026-04-04T16:55:19.427Z</time></trkpt><trkpt lat="45.6855948" lon="11.7292062"><ele>70.0</ele><time>2026-04-04T16:55:20.428Z</time></trkpt><trkpt lat="45.685581" lon="11.7290683"><ele>70.0</ele><time>2026-04-04T16:55:21.43Z</time></trkpt><trkpt lat="45.6855327" lon="11.7290087"><ele>70.0</ele><time>2026-04-04T16:55:22.423Z</time></trkpt><trkpt lat="45.6854637" lon="11.7289752"><ele>70.0</ele><time>2026-04-04T16:55:23.416Z</time></trkpt><trkpt lat="45.6853677" lon="11.7289517"><ele>70.0</ele><time>2026-04-04T16:55:24.404Z</time></trkpt><trkpt lat="45.6852544" lon="11.7289334"><ele>70.25</ele><time>2026-04-04T16:55:25.403Z</time></trkpt><trkpt lat="45.6851354" lon="11.7289184"><ele>70.5</ele><time>2026-04-04T16:55:26.418Z</time></trkpt><trkpt lat="45.6850071" lon="11.7289054"><ele>70.75</ele><time>2026-04-04T16:55:27.419Z</time></trkpt><trkpt lat="45.6848731" lon="11.7288915"><ele>71.0</ele><time>2026-04-04T16:55:28.431Z</time></trkpt><trkpt lat="45.6847314" lon="11.7288757"><ele>71.0</ele><time>2026-04-04T16:55:29.409Z</time></trkpt><trkpt lat="45.6845869" lon="11.7288576"><ele>71.0</ele><time>2026-04-04T16:55:30.432Z</time></trkpt><trkpt lat="45.6844392" lon="11.728835"><ele>71.0</ele><time>2026-04-04T16:55:31.42Z</time></trkpt><trkpt lat="45.6842931" lon="11.7288134"><ele>71.0</ele><time>2026-04-04T16:55:32.431Z</time></trkpt><trkpt lat="45.6841469" lon="11.7287928"><ele>70.75</ele><time>2026-04-04T16:55:33.416Z</time></trkpt><trkpt lat="45.684" lon="11.7287752"><ele>70.5</ele><time>2026-04-04T16:55:34.423Z</time></trkpt><trkpt lat="45.6838542" lon="11.7287575"><ele>70.25</ele><time>2026-04-04T16:55:35.431Z</time></trkpt><trkpt lat="45.6837195" lon="11.7287385"><ele>70.0</ele><time>2026-04-04T16:55:36.422Z</time></trkpt><trkpt lat="45.6835979" lon="11.7287198"><ele>70.0</ele><time>2026-04-04T16:55:37.419Z</time></trkpt><trkpt lat="45.6834867" lon="11.7287021"><ele>70.0</ele><time>2026-04-04T16:55:38.427Z</time></trkpt><trkpt lat="45.6833883" lon="11.7286854"><ele>70.0</ele><time>2026-04-04T16:55:39.425Z</time></trkpt><trkpt lat="45.683303" lon="11.7286695"><ele>70.0</ele><time>2026-04-04T16:55:40.421Z</time></trkpt><trkpt lat="45.6832304" lon="11.7286607"><ele>70.0</ele><time>2026-04-04T16:55:41.412Z</time></trkpt><trkpt lat="45.6831327" lon="11.7286467"><ele>70.0</ele><time>2026-04-04T16:55:43.407Z</time></trkpt><trkpt lat="45.6830726" lon="11.7287134"><ele>70.0</ele><time>2026-04-04T16:55:49.425Z</time></trkpt><trkpt lat="45.6830851" lon="11.7289095"><ele>70.0</ele><time>2026-04-04T16:55:51.422Z</time></trkpt><trkpt lat="45.6831003" lon="11.7290459"><ele>70.0</ele><time>2026-04-04T16:55:52.415Z</time></trkpt><trkpt lat="45.6831177" lon="11.7291999"><ele>70.0</ele><time>2026-04-04T16:55:53.421Z</time></trkpt><trkpt lat="45.6831375" lon="11.7293745"><ele>70.0</ele><time>2026-04-04T16:55:54.427Z</time></trkpt><trkpt lat="45.6831523" lon="11.7295429"><ele>70.0</ele><time>2026-04-04T16:55:55.426Z</time></trkpt><trkpt lat="45.6831776" lon="11.7297103"><ele>70.0</ele><time>2026-04-04T16:55:56.426Z</time></trkpt><trkpt lat="45.6831844" lon="11.7298537"><ele>70.0</ele><time>2026-04-04T16:55:57.419Z</time></trkpt><trkpt lat="45.6831864" lon="11.729962"><ele>70.0</ele><time>2026-04-04T16:55:58.422Z</time></trkpt><trkpt lat="45.6831226" lon="11.7301256"><ele>70.0</ele><time>2026-04-04T16:56:00.416Z</time></trkpt><trkpt lat="45.6830517" lon="11.7302114"><ele>70.0</ele><time>2026-04-04T16:56:01.42Z</time></trkpt><trkpt lat="45.6829656" lon="11.7302875"><ele>70.0</ele><time>2026-04-04T16:56:02.407Z</time></trkpt><trkpt lat="45.682866" lon="11.7303523"><ele>70.0</ele><time>2026-04-04T16:56:03.411Z</time></trkpt><trkpt lat="45.6827476" lon="11.7303964"><ele>70.0</ele><time>2026-04-04T16:56:04.419Z</time></trkpt><trkpt lat="45.6826179" lon="11.7304303"><ele>69.75</ele><time>2026-04-04T16:56:05.433Z</time></trkpt><trkpt lat="45.6824778" lon="11.7304663"><ele>69.5</ele><time>2026-04-04T16:56:06.424Z</time></trkpt><trkpt lat="45.6823316" lon="11.7305003"><ele>69.25</ele><time>2026-04-04T16:56:07.401Z</time></trkpt><trkpt lat="45.6821826" lon="11.7305378"><ele>69.0</ele><time>2026-04-04T16:56:08.422Z</time></trkpt><trkpt lat="45.6820324" lon="11.7305749"><ele>69.0</ele><time>2026-04-04T16:56:09.422Z</time></trkpt><trkpt lat="45.6818828" lon="11.7306121"><ele>69.0</ele><time>2026-04-04T16:56:10.427Z</time></trkpt><trkpt lat="45.6817295" lon="11.7306511"><ele>69.0</ele><time>2026-04-04T16:56:11.423Z</time></trkpt><trkpt lat="45.6815757" lon="11.7306882"><ele>69.0</ele><time>2026-04-04T16:56:12.42Z</time></trkpt><trkpt lat="45.6814214" lon="11.7307279"><ele>69.0</ele><time>2026-04-04T16:56:13.415Z</time></trkpt><trkpt lat="45.681267" lon="11.730767"><ele>69.0</ele><time>2026-04-04T16:56:14.42Z</time></trkpt><trkpt lat="45.6811114" lon="11.7308068"><ele>68.66666666666667</ele><time>2026-04-04T16:56:15.432Z</time></trkpt><trkpt lat="45.6809555" lon="11.7308432"><ele>68.33333333333334</ele><time>2026-04-04T16:56:16.433Z</time></trkpt><trkpt lat="45.6808003" lon="11.7308811"><ele>68.0</ele><time>2026-04-04T16:56:17.428Z</time></trkpt><trkpt lat="45.6806431" lon="11.7309101"><ele>68.0</ele><time>2026-04-04T16:56:18.425Z</time></trkpt><trkpt lat="45.6804852" lon="11.730949"><ele>68.0</ele><time>2026-04-04T16:56:19.413Z</time></trkpt><trkpt lat="45.6803342" lon="11.730987"><ele>68.0</ele><time>2026-04-04T16:56:20.421Z</time></trkpt><trkpt lat="45.6801882" lon="11.7310181"><ele>67.75</ele><time>2026-04-04T16:56:21.43Z</time></trkpt><trkpt lat="45.6800615" lon="11.7310539"><ele>67.5</ele><time>2026-04-04T16:56:22.433Z</time></trkpt><trkpt lat="45.6799413" lon="11.7310792"><ele>67.25</ele><time>2026-04-04T16:56:23.428Z</time></trkpt><trkpt lat="45.6798205" lon="11.7311076"><ele>67.0</ele><time>2026-04-04T16:56:24.422Z</time></trkpt><trkpt lat="45.6796923" lon="11.7311398"><ele>67.0</ele><time>2026-04-04T16:56:25.425Z</time></trkpt><trkpt lat="45.6795506" lon="11.73117"><ele>67.0</ele><time>2026-04-04T16:56:26.431Z</time></trkpt><trkpt lat="45.6793942" lon="11.7312023"><ele>67.0</ele><time>2026-04-04T16:56:27.423Z</time></trkpt><trkpt lat="45.6792156" lon="11.7312402"><ele>66.66666666666666</ele><time>2026-04-04T16:56:28.42Z</time></trkpt><trkpt lat="45.6790358" lon="11.7312801"><ele>66.33333333333333</ele><time>2026-04-04T16:56:29.414Z</time></trkpt><trkpt lat="45.6788498" lon="11.7313211"><ele>66.0</ele><time>2026-04-04T16:56:30.415Z</time></trkpt><trkpt lat="45.6786548" lon="11.7313688"><ele>65.66666666666667</ele><time>2026-04-04T16:56:31.416Z</time></trkpt><trkpt lat="45.6784446" lon="11.7314219"><ele>65.33333333333334</ele><time>2026-04-04T16:56:32.432Z</time></trkpt><trkpt lat="45.6782182" lon="11.7314754"><ele>65.0</ele><time>2026-04-04T16:56:33.425Z</time></trkpt><trkpt lat="45.6779861" lon="11.7315307"><ele>64.5</ele><time>2026-04-04T16:56:34.42Z</time></trkpt><trkpt lat="45.6777383" lon="11.7315886"><ele>64.0</ele><time>2026-04-04T16:56:35.423Z</time></trkpt><trkpt lat="45.6774878" lon="11.7316481"><ele>64.0</ele><time>2026-04-04T16:56:36.42Z</time></trkpt><trkpt lat="45.677237" lon="11.7317049"><ele>64.0</ele><time>2026-04-04T16:56:37.43Z</time></trkpt><trkpt lat="45.6769832" lon="11.7317655"><ele>63.5</ele><time>2026-04-04T16:56:38.422Z</time></trkpt><trkpt lat="45.6767303" lon="11.7318262"><ele>63.0</ele><time>2026-04-04T16:56:39.425Z</time></trkpt><trkpt lat="45.6764769" lon="11.7318888"><ele>62.5</ele><time>2026-04-04T16:56:40.428Z</time></trkpt><trkpt lat="45.6762239" lon="11.7319506"><ele>62.0</ele><time>2026-04-04T16:56:41.428Z</time></trkpt><trkpt lat="45.6759702" lon="11.7320118"><ele>63.0</ele><time>2026-04-04T16:56:42.412Z</time></trkpt><trkpt lat="45.6757207" lon="11.7320713"><ele>64.0</ele><time>2026-04-04T16:56:43.419Z</time></trkpt><trkpt lat="45.6754827" lon="11.732134"><ele>63.5</ele><time>2026-04-04T16:56:44.422Z</time></trkpt><trkpt lat="45.6752574" lon="11.7321857"><ele>63.0</ele><time>2026-04-04T16:56:45.429Z</time></trkpt><trkpt lat="45.6750331" lon="11.7322412"><ele>63.0</ele><time>2026-04-04T16:56:46.427Z</time></trkpt><trkpt lat="45.6748154" lon="11.7322909"><ele>63.0</ele><time>2026-04-04T16:56:47.429Z</time></trkpt><trkpt lat="45.6746004" lon="11.7323429"><ele>63.0</ele><time>2026-04-04T16:56:48.429Z</time></trkpt><trkpt lat="45.674386" lon="11.7323958"><ele>62.66666666666667</ele><time>2026-04-04T16:56:49.421Z</time></trkpt><trkpt lat="45.6741743" lon="11.732447"><ele>62.333333333333336</ele><time>2026-04-04T16:56:50.42Z</time></trkpt><trkpt lat="45.6739677" lon="11.7325032"><ele>62.0</ele><time>2026-04-04T16:56:51.41Z</time></trkpt><trkpt lat="45.6737471" lon="11.7325544"><ele>63.0</ele><time>2026-04-04T16:56:52.42Z</time></trkpt><trkpt lat="45.6735274" lon="11.732607"><ele>64.0</ele><time>2026-04-04T16:56:53.415Z</time></trkpt><trkpt lat="45.6733011" lon="11.7326608"><ele>64.0</ele><time>2026-04-04T16:56:54.421Z</time></trkpt><trkpt lat="45.6730734" lon="11.732711"><ele>64.0</ele><time>2026-04-04T16:56:55.419Z</time></trkpt><trkpt lat="45.6728418" lon="11.7327614"><ele>63.0</ele><time>2026-04-04T16:56:56.424Z</time></trkpt><trkpt lat="45.6726002" lon="11.7328137"><ele>62.0</ele><time>2026-04-04T16:56:57.416Z</time></trkpt><trkpt lat="45.6723578" lon="11.7328621"><ele>62.0</ele><time>2026-04-04T16:56:58.414Z</time></trkpt><trkpt lat="45.6721067" lon="11.73291"><ele>62.0</ele><time>2026-04-04T16:56:59.425Z</time></trkpt><trkpt lat="45.671845" lon="11.7329604"><ele>62.5</ele><time>2026-04-04T16:57:00.416Z</time></trkpt><trkpt lat="45.6715884" lon="11.7330145"><ele>63.0</ele><time>2026-04-04T16:57:01.426Z</time></trkpt><trkpt lat="45.6713481" lon="11.7330628"><ele>63.0</ele><time>2026-04-04T16:57:02.411Z</time></trkpt><trkpt lat="45.6711249" lon="11.7331069"><ele>63.0</ele><time>2026-04-04T16:57:03.417Z</time></trkpt><trkpt lat="45.6709313" lon="11.7331431"><ele>63.0</ele><time>2026-04-04T16:57:04.41Z</time></trkpt><trkpt lat="45.670763" lon="11.7331752"><ele>63.0</ele><time>2026-04-04T16:57:05.428Z</time></trkpt><trkpt lat="45.6706153" lon="11.7332048"><ele>63.0</ele><time>2026-04-04T16:57:06.431Z</time></trkpt><trkpt lat="45.6704881" lon="11.7332313"><ele>63.0</ele><time>2026-04-04T16:57:07.418Z</time></trkpt><trkpt lat="45.6703876" lon="11.733255"><ele>63.0</ele><time>2026-04-04T16:57:08.421Z</time></trkpt><trkpt lat="45.6703121" lon="11.7332704"><ele>62.4</ele><time>2026-04-04T16:57:09.413Z</time></trkpt><trkpt lat="45.6702477" lon="11.7332632"><ele>61.8</ele><time>2026-04-04T16:57:10.406Z</time></trkpt><trkpt lat="45.6701878" lon="11.7332031"><ele>61.2</ele><time>2026-04-04T16:57:11.402Z</time></trkpt><trkpt lat="45.6701422" lon="11.7330898"><ele>60.6</ele><time>2026-04-04T16:57:12.415Z</time></trkpt><trkpt lat="45.6701108" lon="11.7329234"><ele>60.0</ele><time>2026-04-04T16:57:13.421Z</time></trkpt><trkpt lat="45.6700769" lon="11.7327112"><ele>60.0</ele><time>2026-04-04T16:57:14.402Z</time></trkpt><trkpt lat="45.6700296" lon="11.7324571"><ele>60.0</ele><time>2026-04-04T16:57:15.43Z</time></trkpt><trkpt lat="45.6699787" lon="11.7321925"><ele>60.0</ele><time>2026-04-04T16:57:16.426Z</time></trkpt><trkpt lat="45.669926" lon="11.7319312"><ele>60.0</ele><time>2026-04-04T16:57:17.421Z</time></trkpt><trkpt lat="45.6698727" lon="11.7316775"><ele>60.0</ele><time>2026-04-04T16:57:18.412Z</time></trkpt><trkpt lat="45.6698199" lon="11.7314262"><ele>60.0</ele><time>2026-04-04T16:57:19.407Z</time></trkpt><trkpt lat="45.6697666" lon="11.7311797"><ele>60.0</ele><time>2026-04-04T16:57:20.421Z</time></trkpt><trkpt lat="45.6697135" lon="11.7309478"><ele>60.0</ele><time>2026-04-04T16:57:21.422Z</time></trkpt><trkpt lat="45.6696617" lon="11.7307219"><ele>60.0</ele><time>2026-04-04T16:57:22.419Z</time></trkpt><trkpt lat="45.6696093" lon="11.7304975"><ele>60.0</ele><time>2026-04-04T16:57:23.41Z</time></trkpt><trkpt lat="45.669556" lon="11.730273"><ele>60.0</ele><time>2026-04-04T16:57:24.422Z</time></trkpt><trkpt lat="45.6695026" lon="11.7300532"><ele>60.0</ele><time>2026-04-04T16:57:25.407Z</time></trkpt><trkpt lat="45.6694491" lon="11.7298275"><ele>60.0</ele><time>2026-04-04T16:57:26.428Z</time></trkpt><trkpt lat="45.6693999" lon="11.7295974"><ele>60.0</ele><time>2026-04-04T16:57:27.432Z</time></trkpt><trkpt lat="45.6693526" lon="11.7293602"><ele>60.0</ele><time>2026-04-04T16:57:28.415Z</time></trkpt><trkpt lat="45.6693027" lon="11.7291111"><ele>60.0</ele><time>2026-04-04T16:57:29.427Z</time></trkpt><trkpt lat="45.6692525" lon="11.7288554"><ele>60.0</ele><time>2026-04-04T16:57:30.429Z</time></trkpt><trkpt lat="45.6692018" lon="11.7285897"><ele>60.0</ele><time>2026-04-04T16:57:31.435Z</time></trkpt><trkpt lat="45.6691485" lon="11.7283172"><ele>60.0</ele><time>2026-04-04T16:57:32.432Z</time></trkpt><trkpt lat="45.669094" lon="11.7280371"><ele>60.0</ele><time>2026-04-04T16:57:33.428Z</time></trkpt><trkpt lat="45.6690389" lon="11.7277535"><ele>60.0</ele><time>2026-04-04T16:57:34.434Z</time></trkpt><trkpt lat="45.6689828" lon="11.7274711"><ele>60.0</ele><time>2026-04-04T16:57:35.416Z</time></trkpt><trkpt lat="45.6689238" lon="11.7271822"><ele>60.0</ele><time>2026-04-04T16:57:36.416Z</time></trkpt><trkpt lat="45.6688628" lon="11.7268896"><ele>60.0</ele><time>2026-04-04T16:57:37.419Z</time></trkpt><trkpt lat="45.6688014" lon="11.7265922"><ele>60.0</ele><time>2026-04-04T16:57:38.425Z</time></trkpt><trkpt lat="45.6687395" lon="11.7262923"><ele>60.0</ele><time>2026-04-04T16:57:39.411Z</time></trkpt><trkpt lat="45.6686768" lon="11.7259857"><ele>60.0</ele><time>2026-04-04T16:57:40.419Z</time></trkpt><trkpt lat="45.6686143" lon="11.7256784"><ele>60.0</ele><time>2026-04-04T16:57:41.417Z</time></trkpt><trkpt lat="45.668551" lon="11.7253709"><ele>60.0</ele><time>2026-04-04T16:57:42.426Z</time></trkpt><trkpt lat="45.6684887" lon="11.7250665"><ele>60.0</ele><time>2026-04-04T16:57:43.421Z</time></trkpt><trkpt lat="45.668428" lon="11.7247626"><ele>60.0</ele><time>2026-04-04T16:57:44.418Z</time></trkpt><trkpt lat="45.6683692" lon="11.7244619"><ele>60.0</ele><time>2026-04-04T16:57:45.415Z</time></trkpt><trkpt lat="45.6683099" lon="11.7241668"><ele>60.0</ele><time>2026-04-04T16:57:46.425Z</time></trkpt><trkpt lat="45.6682524" lon="11.7238809"><ele>60.0</ele><time>2026-04-04T16:57:47.422Z</time></trkpt><trkpt lat="45.6681997" lon="11.7235956"><ele>60.0</ele><time>2026-04-04T16:57:48.423Z</time></trkpt><trkpt lat="45.6681485" lon="11.7233095"><ele>60.0</ele><time>2026-04-04T16:57:49.422Z</time></trkpt><trkpt lat="45.6680922" lon="11.7230243"><ele>60.33333333333333</ele><time>2026-04-04T16:57:50.421Z</time></trkpt><trkpt lat="45.6680304" lon="11.722748"><ele>60.666666666666664</ele><time>2026-04-04T16:57:51.417Z</time></trkpt><trkpt lat="45.667962" lon="11.7224756"><ele>61.0</ele><time>2026-04-04T16:57:52.44Z</time></trkpt><trkpt lat="45.6678977" lon="11.7222248"><ele>61.0</ele><time>2026-04-04T16:57:53.423Z</time></trkpt><trkpt lat="45.6678392" lon="11.7219972"><ele>61.0</ele><time>2026-04-04T16:57:54.417Z</time></trkpt><trkpt lat="45.6677877" lon="11.7217759"><ele>61.0</ele><time>2026-04-04T16:57:55.417Z</time></trkpt><trkpt lat="45.6677422" lon="11.7215595"><ele>60.666666666666664</ele><time>2026-04-04T16:57:56.422Z</time></trkpt><trkpt lat="45.6677002" lon="11.7213487"><ele>60.33333333333333</ele><time>2026-04-04T16:57:57.413Z</time></trkpt><trkpt lat="45.6676595" lon="11.7211405"><ele>60.0</ele><time>2026-04-04T16:57:58.422Z</time></trkpt><trkpt lat="45.6676238" lon="11.7209322"><ele>60.0</ele><time>2026-04-04T16:57:59.416Z</time></trkpt><trkpt lat="45.6675877" lon="11.7207238"><ele>60.0</ele><time>2026-04-04T16:58:00.424Z</time></trkpt><trkpt lat="45.6675513" lon="11.7205292"><ele>60.0</ele><time>2026-04-04T16:58:01.424Z</time></trkpt><trkpt lat="45.6675183" lon="11.7203553"><ele>60.0</ele><time>2026-04-04T16:58:02.396Z</time></trkpt><trkpt lat="45.6674902" lon="11.7201976"><ele>60.0</ele><time>2026-04-04T16:58:03.401Z</time></trkpt><trkpt lat="45.6674647" lon="11.7200681"><ele>60.0</ele><time>2026-04-04T16:58:04.406Z</time></trkpt><trkpt lat="45.6674447" lon="11.7199706"><ele>60.0</ele><time>2026-04-04T16:58:05.394Z</time></trkpt><trkpt lat="45.6674524" lon="11.7198567"><ele>60.0</ele><time>2026-04-04T16:58:07.415Z</time></trkpt></trkseg></trk></gpx>